<?xml version='1.0' encoding='UTF-8'?><gpx version="1.1" creator="JPX - https://github.com/jenetics/jpx" xmlns="http://www.topografix.com/GPX/1/1"><trk><trkseg><trkpt lat="42.810304436823955" lon="9.489063311605134"><ele>4.0</ele><time>2026-05-01T06:48:32.999Z</time></trkpt><trkpt lat="42.810399621827855" lon="9.48907530382057"><ele>4.0</ele><time>2026-05-01T06:48:37.999Z</time></trkpt><trkpt lat="42.81046176182525" lon="9.489101783814895"><ele>4.0</ele><time>2026-05-01T06:48:39.999Z</time></trkpt><trkpt lat="42.81054923451769" lon="9.489101838829857"><ele>4.0</ele><time>2026-05-01T06:49:09.999Z</time></trkpt><trkpt lat="42.81064742407375" lon="9.489141345767733"><ele>4.0</ele><time>2026-05-01T06:49:11.999Z</time></trkpt><trkpt lat="42.81076582584091" lon="9.489183637183185"><ele>4.0</ele><time>2026-05-01T06:49:13.999Z</time></trkpt><trkpt lat="42.81086046378296" lon="9.489224900778442"><ele>4.0</ele><time>2026-05-01T06:49:15.999Z</time></trkpt><trkpt lat="42.810986636382275" lon="9.489249233284298"><ele>4.0</ele><time>2026-05-01T06:49:17.999Z</time></trkpt><trkpt lat="42.811062600614065" lon="9.489263654915113"><ele>4.0</ele><time>2026-05-01T06:49:18.999Z</time></trkpt><trkpt lat="42.811133827532906" lon="9.48928274427357"><ele>4.0</ele><time>2026-05-01T06:49:19.999Z</time></trkpt><trkpt lat="42.811209703006284" lon="9.489296811925282"><ele>5.0</ele><time>2026-05-01T06:49:20.998Z</time></trkpt><trkpt lat="42.81128599832618" lon="9.489315090572633"><ele>6.0</ele><time>2026-05-01T06:49:21.998Z</time></trkpt><trkpt lat="42.811357083886264" lon="9.489335608286424"><ele>7.0</ele><time>2026-05-01T06:49:22.998Z</time></trkpt><trkpt lat="42.811417657681865" lon="9.489367492980934"><ele>8.0</ele><time>2026-05-01T06:49:23.998Z</time></trkpt><trkpt lat="42.81157276287256" lon="9.489373382402995"><ele>9.0</ele><time>2026-05-01T06:49:25.998Z</time></trkpt><trkpt lat="42.81171069099604" lon="9.489404433847728"><ele>9.0</ele><time>2026-05-01T06:49:27.998Z</time></trkpt><trkpt lat="42.81179871445144" lon="9.489435533299662"><ele>9.0</ele><time>2026-05-01T06:49:28.998Z</time></trkpt><trkpt lat="42.81189155425236" lon="9.489485174637995"><ele>9.0</ele><time>2026-05-01T06:49:29.998Z</time></trkpt><trkpt lat="42.81199295524234" lon="9.48955391140004"><ele>9.0</ele><time>2026-05-01T06:49:30.998Z</time></trkpt><trkpt lat="42.81209556858559" lon="9.489631447985161"><ele>9.0</ele><time>2026-05-01T06:49:31.998Z</time></trkpt><trkpt lat="42.81219479953947" lon="9.489714589822615"><ele>9.75</ele><time>2026-05-01T06:49:32.998Z</time></trkpt><trkpt lat="42.81230220035666" lon="9.489792466291574"><ele>10.5</ele><time>2026-05-01T06:49:33.998Z</time></trkpt><trkpt lat="42.812430667729295" lon="9.489848811937666"><ele>11.25</ele><time>2026-05-01T06:49:34.998Z</time></trkpt><trkpt lat="42.81255462659719" lon="9.489834085862093"><ele>12.0</ele><time>2026-05-01T06:49:35.998Z</time></trkpt><trkpt lat="42.81265904837196" lon="9.489784401728867"><ele>12.0</ele><time>2026-05-01T06:49:36.998Z</time></trkpt><trkpt lat="42.812768697608576" lon="9.489682319236938"><ele>12.0</ele><time>2026-05-01T06:49:37.998Z</time></trkpt><trkpt lat="42.812865271372054" lon="9.489524077333309"><ele>12.0</ele><time>2026-05-01T06:49:38.998Z</time></trkpt><trkpt lat="42.81298139872849" lon="9.489482217373986"><ele>12.0</ele><time>2026-05-01T06:49:39.998Z</time></trkpt><trkpt lat="42.81308253219213" lon="9.48947102400114"><ele>12.0</ele><time>2026-05-01T06:49:40.998Z</time></trkpt><trkpt lat="42.81317107539819" lon="9.489527411789062"><ele>12.0</ele><time>2026-05-01T06:49:41.998Z</time></trkpt><trkpt lat="42.81325097837391" lon="9.489632818196808"><ele>12.0</ele><time>2026-05-01T06:49:42.998Z</time></trkpt><trkpt lat="42.813332023072725" lon="9.489774059411445"><ele>12.0</ele><time>2026-05-01T06:49:43.998Z</time></trkpt><trkpt lat="42.81343384885174" lon="9.489942032806631"><ele>13.0</ele><time>2026-05-01T06:49:44.998Z</time></trkpt><trkpt lat="42.81355874288427" lon="9.490066396414964"><ele>14.0</ele><time>2026-05-01T06:49:45.998Z</time></trkpt><trkpt lat="42.81367649927929" lon="9.49010998208443"><ele>15.0</ele><time>2026-05-01T06:49:46.998Z</time></trkpt><trkpt lat="42.8138195791028" lon="9.490093579901203"><ele>16.0</ele><time>2026-05-01T06:49:47.998Z</time></trkpt><trkpt lat="42.813967863840304" lon="9.490017801486834"><ele>16.0</ele><time>2026-05-01T06:49:48.998Z</time></trkpt><trkpt lat="42.81413131345826" lon="9.489950658108642"><ele>16.0</ele><time>2026-05-01T06:49:49.998Z</time></trkpt><trkpt lat="42.81429183453766" lon="9.489915954713048"><ele>16.0</ele><time>2026-05-01T06:49:50.998Z</time></trkpt><trkpt lat="42.81447825264422" lon="9.489837457454199"><ele>17.666666666666664</ele><time>2026-05-01T06:49:51.998Z</time></trkpt><trkpt lat="42.81464102049459" lon="9.489755985637204"><ele>19.333333333333332</ele><time>2026-05-01T06:49:52.998Z</time></trkpt><trkpt lat="42.81477575463924" lon="9.489628078783685"><ele>21.0</ele><time>2026-05-01T06:49:53.998Z</time></trkpt><trkpt lat="42.81487685301128" lon="9.489426600186356"><ele>21.0</ele><time>2026-05-01T06:49:54.998Z</time></trkpt><trkpt lat="42.81498455128868" lon="9.489232353817036"><ele>21.0</ele><time>2026-05-01T06:49:55.998Z</time></trkpt><trkpt lat="42.81514721808472" lon="9.489104523867576"><ele>21.0</ele><time>2026-05-01T06:49:56.998Z</time></trkpt><trkpt lat="42.815347899754244" lon="9.48895093880863"><ele>27.5</ele><time>2026-05-01T06:49:57.998Z</time></trkpt><trkpt lat="42.81557186146837" lon="9.488770296293891"><ele>34.0</ele><time>2026-05-01T06:49:58.998Z</time></trkpt><trkpt lat="42.81580602739716" lon="9.48862623669844"><ele>32.0</ele><time>2026-05-01T06:49:59.998Z</time></trkpt><trkpt lat="42.8160479535734" lon="9.488589902079841"><ele>30.0</ele><time>2026-05-01T06:50:00.998Z</time></trkpt><trkpt lat="42.81630565669124" lon="9.488583320361114"><ele>30.0</ele><time>2026-05-01T06:50:01.999Z</time></trkpt><trkpt lat="42.81656278336207" lon="9.488606384361761"><ele>30.0</ele><time>2026-05-01T06:50:02.999Z</time></trkpt><trkpt lat="42.81679823276373" lon="9.488622177288148"><ele>24.333333333333332</ele><time>2026-05-01T06:50:03.999Z</time></trkpt><trkpt lat="42.816998133216124" lon="9.488636097343887"><ele>18.666666666666664</ele><time>2026-05-01T06:50:04.999Z</time></trkpt><trkpt lat="42.817171932620624" lon="9.488607997970169"><ele>13.0</ele><time>2026-05-01T06:50:05.999Z</time></trkpt><trkpt lat="42.817333988364226" lon="9.488526259521693"><ele>13.0</ele><time>2026-05-01T06:50:06.999Z</time></trkpt><trkpt lat="42.8174914927707" lon="9.488401501747836"><ele>13.0</ele><time>2026-05-01T06:50:07.999Z</time></trkpt><trkpt lat="42.81763330346943" lon="9.488248904410552"><ele>13.0</ele><time>2026-05-01T06:50:08.999Z</time></trkpt><trkpt lat="42.81776036326801" lon="9.48809903028415"><ele>16.333333333333332</ele><time>2026-05-01T06:50:09.999Z</time></trkpt><trkpt lat="42.81788867793167" lon="9.487944231917323"><ele>19.666666666666668</ele><time>2026-05-01T06:50:10.999Z</time></trkpt><trkpt lat="42.818027279990176" lon="9.487780374954811"><ele>23.0</ele><time>2026-05-01T06:50:11.999Z</time></trkpt><trkpt lat="42.81819030996226" lon="9.487605722706796"><ele>23.0</ele><time>2026-05-01T06:50:12.999Z</time></trkpt><trkpt lat="42.81834644804202" lon="9.4873780627585"><ele>23.0</ele><time>2026-05-01T06:50:13.999Z</time></trkpt><trkpt lat="42.81850927214465" lon="9.487180082886493"><ele>23.0</ele><time>2026-05-01T06:50:14.999Z</time></trkpt><trkpt lat="42.81869021712967" lon="9.486999576240933"><ele>29.5</ele><time>2026-05-01T06:50:15.999Z</time></trkpt><trkpt lat="42.81892648829444" lon="9.486916124633982"><ele>36.0</ele><time>2026-05-01T06:50:16.999Z</time></trkpt><trkpt lat="42.81917595415293" lon="9.486802608278639"><ele>29.0</ele><time>2026-05-01T06:50:17.999Z</time></trkpt><trkpt lat="42.81944066523679" lon="9.486676493719765"><ele>22.0</ele><time>2026-05-01T06:50:18.999Z</time></trkpt><trkpt lat="42.8197198382134" lon="9.486547232795779"><ele>22.0</ele><time>2026-05-01T06:50:19.999Z</time></trkpt><trkpt lat="42.81998097208585" lon="9.486446922178466"><ele>22.0</ele><time>2026-05-01T06:50:20.999Z</time></trkpt><trkpt lat="42.82022912920206" lon="9.486373225011791"><ele>19.0</ele><time>2026-05-01T06:50:21.999Z</time></trkpt><trkpt lat="42.82048925866833" lon="9.486368572446558"><ele>16.0</ele><time>2026-05-01T06:50:22.999Z</time></trkpt><trkpt lat="42.82075290690427" lon="9.486364025452051"><ele>15.0</ele><time>2026-05-01T06:50:23.999Z</time></trkpt><trkpt lat="42.821010347307" lon="9.486346228658721"><ele>14.0</ele><time>2026-05-01T06:50:24.999Z</time></trkpt><trkpt lat="42.821259925002785" lon="9.48634545119982"><ele>14.0</ele><time>2026-05-01T06:50:25.999Z</time></trkpt><trkpt lat="42.82150332117798" lon="9.486338607716505"><ele>14.0</ele><time>2026-05-01T06:50:26.999Z</time></trkpt><trkpt lat="42.821745333785266" lon="9.48632550948501"><ele>16.0</ele><time>2026-05-01T06:50:27.999Z</time></trkpt><trkpt lat="42.82198985168789" lon="9.48635443358408"><ele>18.0</ele><time>2026-05-01T06:50:28.999Z</time></trkpt><trkpt lat="42.82222532845282" lon="9.486390035859266"><ele>18.0</ele><time>2026-05-01T06:50:29.999Z</time></trkpt><trkpt lat="42.822455875291226" lon="9.486456744781185"><ele>18.0</ele><time>2026-05-01T06:50:30.999Z</time></trkpt><trkpt lat="42.8226727449844" lon="9.48651185485482"><ele>19.0</ele><time>2026-05-01T06:50:31.999Z</time></trkpt><trkpt lat="42.82286449447421" lon="9.486587481977097"><ele>20.0</ele><time>2026-05-01T06:50:32.999Z</time></trkpt><trkpt lat="42.82303870454828" lon="9.486618590930297"><ele>21.0</ele><time>2026-05-01T06:50:33.999Z</time></trkpt><trkpt lat="42.8232283983809" lon="9.486585315477091"><ele>21.0</ele><time>2026-05-01T06:50:34.999Z</time></trkpt><trkpt lat="42.82342342531845" lon="9.48651502268365"><ele>21.0</ele><time>2026-05-01T06:50:35.999Z</time></trkpt><trkpt lat="42.82362149401996" lon="9.486419326973598"><ele>21.0</ele><time>2026-05-01T06:50:36.999Z</time></trkpt><trkpt lat="42.82382014857929" lon="9.486304516514664"><ele>24.0</ele><time>2026-05-01T06:50:37.999Z</time></trkpt><trkpt lat="42.82401929738669" lon="9.486182831719509"><ele>27.0</ele><time>2026-05-01T06:50:38.999Z</time></trkpt><trkpt lat="42.824219662065" lon="9.486062782535472"><ele>30.0</ele><time>2026-05-01T06:50:39.999Z</time></trkpt><trkpt lat="42.82441673388062" lon="9.48594146656062"><ele>23.666666666666668</ele><time>2026-05-01T06:50:40.999Z</time></trkpt><trkpt lat="42.824597186799004" lon="9.485790510308302"><ele>17.333333333333332</ele><time>2026-05-01T06:50:41.999Z</time></trkpt><trkpt lat="42.82475009067848" lon="9.485607769279431"><ele>11.0</ele><time>2026-05-01T06:50:42.999Z</time></trkpt><trkpt lat="42.82488287428607" lon="9.485455659260646"><ele>15.666666666666668</ele><time>2026-05-01T06:50:43.999Z</time></trkpt><trkpt lat="42.825029340964136" lon="9.485363607843402"><ele>20.333333333333336</ele><time>2026-05-01T06:50:44.999Z</time></trkpt><trkpt lat="42.82517915135892" lon="9.485401224233891"><ele>25.0</ele><time>2026-05-01T06:50:45.999Z</time></trkpt><trkpt lat="42.825307705145875" lon="9.485484649921654"><ele>26.333333333333336</ele><time>2026-05-01T06:50:46.999Z</time></trkpt><trkpt lat="42.825416717745426" lon="9.485653712913075"><ele>27.666666666666664</ele><time>2026-05-01T06:50:47.999Z</time></trkpt><trkpt lat="42.82554424896714" lon="9.485845991022305"><ele>29.0</ele><time>2026-05-01T06:50:48.999Z</time></trkpt><trkpt lat="42.825684807688425" lon="9.486048951668584"><ele>26.0</ele><time>2026-05-01T06:50:49.999Z</time></trkpt><trkpt lat="42.825817224311606" lon="9.486266048406799"><ele>23.0</ele><time>2026-05-01T06:50:50.999Z</time></trkpt><trkpt lat="42.82596749715056" lon="9.486472254521637"><ele>20.0</ele><time>2026-05-01T06:50:51.999Z</time></trkpt><trkpt lat="42.82611073394127" lon="9.486646650462674"><ele>20.0</ele><time>2026-05-01T06:50:52.999Z</time></trkpt><trkpt lat="42.82626303507471" lon="9.486751774457648"><ele>20.0</ele><time>2026-05-01T06:50:53.999Z</time></trkpt><trkpt lat="42.82645055087462" lon="9.486799685687634"><ele>20.0</ele><time>2026-05-01T06:50:54.999Z</time></trkpt><trkpt lat="42.82665875273162" lon="9.48679097447355"><ele>16.5</ele><time>2026-05-01T06:50:55.999Z</time></trkpt><trkpt lat="42.82688519413434" lon="9.486738809355433"><ele>13.0</ele><time>2026-05-01T06:50:56.999Z</time></trkpt><trkpt lat="42.8271123569902" lon="9.486645642905982"><ele>13.0</ele><time>2026-05-01T06:50:57.999Z</time></trkpt><trkpt lat="42.82732888490432" lon="9.486477817394778"><ele>13.0</ele><time>2026-05-01T06:50:58.999Z</time></trkpt><trkpt lat="42.82751878907742" lon="9.486269369731193"><ele>16.666666666666664</ele><time>2026-05-01T06:50:59.999Z</time></trkpt><trkpt lat="42.827660999258754" lon="9.486064134357196"><ele>20.333333333333332</ele><time>2026-05-01T06:51:00.999Z</time></trkpt><trkpt lat="42.82777835504773" lon="9.485929462007709"><ele>24.0</ele><time>2026-05-01T06:51:01.999Z</time></trkpt><trkpt lat="42.82789782401616" lon="9.485852251234812"><ele>24.0</ele><time>2026-05-01T06:51:02.999Z</time></trkpt><trkpt lat="42.82806886058452" lon="9.485894464847073"><ele>24.0</ele><time>2026-05-01T06:51:03.999Z</time></trkpt><trkpt lat="42.828266640664566" lon="9.485951408970504"><ele>24.0</ele><time>2026-05-01T06:51:04.999Z</time></trkpt><trkpt lat="42.82847092493157" lon="9.485921622655917"><ele>20.333333333333332</ele><time>2026-05-01T06:51:05.999Z</time></trkpt><trkpt lat="42.8286670899334" lon="9.485803598394694"><ele>16.666666666666664</ele><time>2026-05-01T06:51:06.999Z</time></trkpt><trkpt lat="42.82885099817875" lon="9.485670764478137"><ele>13.0</ele><time>2026-05-01T06:51:07.999Z</time></trkpt><trkpt lat="42.82901809220222" lon="9.485561602394972"><ele>13.0</ele><time>2026-05-01T06:51:08.999Z</time></trkpt><trkpt lat="42.82918997668155" lon="9.485508614638684"><ele>13.0</ele><time>2026-05-01T06:51:09.999Z</time></trkpt><trkpt lat="42.82935832058159" lon="9.48554246164699"><ele>13.0</ele><time>2026-05-01T06:51:10.999Z</time></trkpt><trkpt lat="42.82952206459462" lon="9.485639675029764"><ele>13.333333333333332</ele><time>2026-05-01T06:51:11.999Z</time></trkpt><trkpt lat="42.82966248019301" lon="9.485790296344296"><ele>13.666666666666668</ele><time>2026-05-01T06:51:12.999Z</time></trkpt><trkpt lat="42.82979164457188" lon="9.485950571066457"><ele>14.0</ele><time>2026-05-01T06:51:13.999Z</time></trkpt><trkpt lat="42.829922199173645" lon="9.486045438322043"><ele>14.0</ele><time>2026-05-01T06:51:14.999Z</time></trkpt><trkpt lat="42.83006537860899" lon="9.486060129133932"><ele>14.0</ele><time>2026-05-01T06:51:15.999Z</time></trkpt><trkpt lat="42.830207286043866" lon="9.485999958228971"><ele>14.0</ele><time>2026-05-01T06:51:16.999Z</time></trkpt><trkpt lat="42.830345156576385" lon="9.485880463563591"><ele>11.333333333333334</ele><time>2026-05-01T06:51:17.999Z</time></trkpt><trkpt lat="42.83044769507237" lon="9.485684531859537"><ele>8.666666666666668</ele><time>2026-05-01T06:51:18.999Z</time></trkpt><trkpt lat="42.830525194531376" lon="9.485455050912131"><ele>6.0</ele><time>2026-05-01T06:51:19.999Z</time></trkpt><trkpt lat="42.83058518101876" lon="9.485215067627637"><ele>6.0</ele><time>2026-05-01T06:51:20.999Z</time></trkpt><trkpt lat="42.83063564797225" lon="9.484975830771386"><ele>6.0</ele><time>2026-05-01T06:51:21.999Z</time></trkpt><trkpt lat="42.830695625547094" lon="9.484754022394597"><ele>6.0</ele><time>2026-05-01T06:51:22.999Z</time></trkpt><trkpt lat="42.83077879825736" lon="9.484561338627797"><ele>8.25</ele><time>2026-05-01T06:51:23.999Z</time></trkpt><trkpt lat="42.83087953537408" lon="9.48443028536175"><ele>10.5</ele><time>2026-05-01T06:51:24.999Z</time></trkpt><trkpt lat="42.83099161722334" lon="9.484346481295239"><ele>12.75</ele><time>2026-05-01T06:51:25.999Z</time></trkpt><trkpt lat="42.8311144970251" lon="9.484305242887432"><ele>15.0</ele><time>2026-05-01T06:51:26.999Z</time></trkpt><trkpt lat="42.831241764001675" lon="9.484317485420526"><ele>15.333333333333332</ele><time>2026-05-01T06:51:27.999Z</time></trkpt><trkpt lat="42.831382028884676" lon="9.484383695096437"><ele>15.666666666666666</ele><time>2026-05-01T06:51:28.999Z</time></trkpt><trkpt lat="42.831513801112045" lon="9.484493191036428"><ele>16.0</ele><time>2026-05-01T06:51:29.999Z</time></trkpt><trkpt lat="42.83164654637631" lon="9.48466944659454"><ele>16.333333333333332</ele><time>2026-05-01T06:51:30.999Z</time></trkpt><trkpt lat="42.8317613999497" lon="9.484901975806658"><ele>16.666666666666668</ele><time>2026-05-01T06:51:31.999Z</time></trkpt><trkpt lat="42.83184643172024" lon="9.485134313765851"><ele>17.0</ele><time>2026-05-01T06:51:32.999Z</time></trkpt><trkpt lat="42.831950459722684" lon="9.485323500302417"><ele>12.666666666666668</ele><time>2026-05-01T06:51:33.999Z</time></trkpt><trkpt lat="42.83210317493573" lon="9.485443782462884"><ele>8.333333333333334</ele><time>2026-05-01T06:51:34.998Z</time></trkpt><trkpt lat="42.83228343432073" lon="9.485526395520047"><ele>4.0</ele><time>2026-05-01T06:51:35.998Z</time></trkpt><trkpt lat="42.83247176931018" lon="9.48559192356518"><ele>3.6666666666666665</ele><time>2026-05-01T06:51:36.998Z</time></trkpt><trkpt lat="42.83264151784042" lon="9.485630120100357"><ele>3.333333333333333</ele><time>2026-05-01T06:51:37.998Z</time></trkpt><trkpt lat="42.83280497312972" lon="9.48559005201014"><ele>3.0</ele><time>2026-05-01T06:51:38.998Z</time></trkpt><trkpt lat="42.83298475176451" lon="9.485487288512426"><ele>10.0</ele><time>2026-05-01T06:51:39.998Z</time></trkpt><trkpt lat="42.83319809298944" lon="9.485354402856867"><ele>17.0</ele><time>2026-05-01T06:51:40.998Z</time></trkpt><trkpt lat="42.833434448117806" lon="9.485279728700203"><ele>15.5</ele><time>2026-05-01T06:51:41.998Z</time></trkpt><trkpt lat="42.83367809437952" lon="9.485228322940285"><ele>14.0</ele><time>2026-05-01T06:51:42.998Z</time></trkpt><trkpt lat="42.83388597315543" lon="9.485168882851502"><ele>14.0</ele><time>2026-05-01T06:51:43.998Z</time></trkpt><trkpt lat="42.834053111375" lon="9.485079966294315"><ele>14.0</ele><time>2026-05-01T06:51:44.998Z</time></trkpt><trkpt lat="42.83420354408812" lon="9.484945409520867"><ele>14.0</ele><time>2026-05-01T06:51:45.998Z</time></trkpt><trkpt lat="42.83434180992796" lon="9.48476980246985"><ele>13.333333333333334</ele><time>2026-05-01T06:51:46.998Z</time></trkpt><trkpt lat="42.83449226818051" lon="9.484597450207326"><ele>12.666666666666668</ele><time>2026-05-01T06:51:47.998Z</time></trkpt><trkpt lat="42.834658317914574" lon="9.484458780752892"><ele>12.0</ele><time>2026-05-01T06:51:48.998Z</time></trkpt><trkpt lat="42.83479937249162" lon="9.484310683725228"><ele>12.0</ele><time>2026-05-01T06:51:49.998Z</time></trkpt><trkpt lat="42.83492781105109" lon="9.484107585931696"><ele>12.0</ele><time>2026-05-01T06:51:50.998Z</time></trkpt><trkpt lat="42.83505208593158" lon="9.483874206121342"><ele>12.0</ele><time>2026-05-01T06:51:51.998Z</time></trkpt><trkpt lat="42.83520265968979" lon="9.48364624827321"><ele>9.5</ele><time>2026-05-01T06:51:52.998Z</time></trkpt><trkpt lat="42.835377131681824" lon="9.4834388662882"><ele>7.0</ele><time>2026-05-01T06:51:53.998Z</time></trkpt><trkpt lat="42.83556292284109" lon="9.483240702030916"><ele>7.0</ele><time>2026-05-01T06:51:54.998Z</time></trkpt><trkpt lat="42.835751140885215" lon="9.483106169632135"><ele>7.0</ele><time>2026-05-01T06:51:55.998Z</time></trkpt><trkpt lat="42.835927836359396" lon="9.483020089139396"><ele>7.0</ele><time>2026-05-01T06:51:56.998Z</time></trkpt><trkpt lat="42.8360673112049" lon="9.482948023034778"><ele>5.5</ele><time>2026-05-01T06:51:57.998Z</time></trkpt><trkpt lat="42.83617338977765" lon="9.482865616587546"><ele>4.0</ele><time>2026-05-01T06:51:58.998Z</time></trkpt><trkpt lat="42.83623872929609" lon="9.482746418738454"><ele>2.5</ele><time>2026-05-01T06:51:59.998Z</time></trkpt><trkpt lat="42.83625807878948" lon="9.48259845913566"><ele>1.0</ele><time>2026-05-01T06:52:00.998Z</time></trkpt><trkpt lat="42.83624158001749" lon="9.482430150457576"><ele>1.0</ele><time>2026-05-01T06:52:01.998Z</time></trkpt><trkpt lat="42.83621146321189" lon="9.48224479896604"><ele>1.0</ele><time>2026-05-01T06:52:02.998Z</time></trkpt><trkpt lat="42.836165240567624" lon="9.482031503428669"><ele>1.0</ele><time>2026-05-01T06:52:03.998Z</time></trkpt><trkpt lat="42.836100167964425" lon="9.481806281777342"><ele>0.6666666666666666</ele><time>2026-05-01T06:52:04.998Z</time></trkpt><trkpt lat="42.83601704814698" lon="9.481565401173574"><ele>0.3333333333333333</ele><time>2026-05-01T06:52:05.998Z</time></trkpt><trkpt lat="42.83592284253502" lon="9.481326753778385"><ele>0.0</ele><time>2026-05-01T06:52:06.998Z</time></trkpt><trkpt lat="42.835824674168855" lon="9.481094514876727"><ele>1.6666666666666667</ele><time>2026-05-01T06:52:07.999Z</time></trkpt><trkpt lat="42.83573424309738" lon="9.480873334405077"><ele>3.3333333333333335</ele><time>2026-05-01T06:52:08.999Z</time></trkpt><trkpt lat="42.83565979064236" lon="9.480678307564872"><ele>5.0</ele><time>2026-05-01T06:52:09.999Z</time></trkpt><trkpt lat="42.83560624684052" lon="9.480527382469726"><ele>4.4</ele><time>2026-05-01T06:52:10.999Z</time></trkpt><trkpt lat="42.835552810934146" lon="9.48040416923937"><ele>3.8</ele><time>2026-05-01T06:52:11.999Z</time></trkpt><trkpt lat="42.83550907538804" lon="9.480297891068957"><ele>3.2</ele><time>2026-05-01T06:52:12.999Z</time></trkpt><trkpt lat="42.83549210717536" lon="9.480184519628466"><ele>2.6</ele><time>2026-05-01T06:52:13.999Z</time></trkpt><trkpt lat="42.83552142987181" lon="9.480058730609919"><ele>2.0</ele><time>2026-05-01T06:52:14.999Z</time></trkpt><trkpt lat="42.83560282021053" lon="9.479963365403384"><ele>2.0</ele><time>2026-05-01T06:52:15.999Z</time></trkpt><trkpt lat="42.83571869968351" lon="9.479883289956502"><ele>2.0</ele><time>2026-05-01T06:52:16.999Z</time></trkpt><trkpt lat="42.83584800766991" lon="9.479772798587216"><ele>2.0</ele><time>2026-05-01T06:52:17.999Z</time></trkpt><trkpt lat="42.83598184372412" lon="9.479643835326309"><ele>2.0</ele><time>2026-05-01T06:52:18.999Z</time></trkpt><trkpt lat="42.83612525331709" lon="9.47951652095979"><ele>1.0</ele><time>2026-05-01T06:52:19.999Z</time></trkpt><trkpt lat="42.83626979507403" lon="9.47939026994124"><ele>0.0</ele><time>2026-05-01T06:52:20.999Z</time></trkpt><trkpt lat="42.83640375417658" lon="9.479277097557018"><ele>-1.0</ele><time>2026-05-01T06:52:21.999Z</time></trkpt><trkpt lat="42.83652768542808" lon="9.479183194913634"><ele>-1.0</ele><time>2026-05-01T06:52:22.999Z</time></trkpt><trkpt lat="42.836647155715184" lon="9.479093604883682"><ele>-1.0</ele><time>2026-05-01T06:52:23.999Z</time></trkpt><trkpt lat="42.83677494915173" lon="9.479011471864222"><ele>-1.0</ele><time>2026-05-01T06:52:24.999Z</time></trkpt><trkpt lat="42.836911338567226" lon="9.478936353900743"><ele>-1.0</ele><time>2026-05-01T06:52:25.999Z</time></trkpt><trkpt lat="42.8370570829002" lon="9.47887618608196"><ele>-1.0</ele><time>2026-05-01T06:52:26.999Z</time></trkpt><trkpt lat="42.83721800972189" lon="9.478836086959742"><ele>-1.0</ele><time>2026-05-01T06:52:27.999Z</time></trkpt><trkpt lat="42.83737418706779" lon="9.478768346018288"><ele>-1.0</ele><time>2026-05-01T06:52:28.999Z</time></trkpt><trkpt lat="42.83751176180022" lon="9.478732649004824"><ele>-0.75</ele><time>2026-05-01T06:52:29.999Z</time></trkpt><trkpt lat="42.83763069101748" lon="9.478699320733428"><ele>-0.5</ele><time>2026-05-01T06:52:30.999Z</time></trkpt><trkpt lat="42.83775234723296" lon="9.478660858033413"><ele>-0.25</ele><time>2026-05-01T06:52:31.999Z</time></trkpt><trkpt lat="42.837888984814896" lon="9.47861009918811"><ele>0.0</ele><time>2026-05-01T06:52:32.999Z</time></trkpt><trkpt lat="42.83803047109338" lon="9.478562188823172"><ele>0.6666666666666666</ele><time>2026-05-01T06:52:33.999Z</time></trkpt><trkpt lat="42.83817349067463" lon="9.478513167665392"><ele>1.3333333333333333</ele><time>2026-05-01T06:52:34.999Z</time></trkpt><trkpt lat="42.83832637766678" lon="9.478462944084074"><ele>2.0</ele><time>2026-05-01T06:52:35.999Z</time></trkpt><trkpt lat="42.8384834925228" lon="9.478414296767461"><ele>2.0</ele><time>2026-05-01T06:52:36.999Z</time></trkpt><trkpt lat="42.83862631210944" lon="9.478369463357147"><ele>2.0</ele><time>2026-05-01T06:52:37.999Z</time></trkpt><trkpt lat="42.83878438604176" lon="9.478330513147256"><ele>2.0</ele><time>2026-05-01T06:52:38.999Z</time></trkpt><trkpt lat="42.83895285779091" lon="9.478314267575625"><ele>2.0</ele><time>2026-05-01T06:52:39.999Z</time></trkpt><trkpt lat="42.83913122897075" lon="9.478314664795157"><ele>2.0</ele><time>2026-05-01T06:52:40.999Z</time></trkpt><trkpt lat="42.839305424641296" lon="9.47832534557762"><ele>2.0</ele><time>2026-05-01T06:52:41.999Z</time></trkpt><trkpt lat="42.83946587014768" lon="9.478341724211043"><ele>1.75</ele><time>2026-05-01T06:52:42.999Z</time></trkpt><trkpt lat="42.839611701906726" lon="9.47834807727259"><ele>1.5</ele><time>2026-05-01T06:52:43.999Z</time></trkpt><trkpt lat="42.83974207413146" lon="9.478354423200097"><ele>1.25</ele><time>2026-05-01T06:52:44.999Z</time></trkpt><trkpt lat="42.839868047724714" lon="9.478360648366099"><ele>1.0</ele><time>2026-05-01T06:52:45.999Z</time></trkpt><trkpt lat="42.83999717651866" lon="9.478363307641724"><ele>1.25</ele><time>2026-05-01T06:52:46.999Z</time></trkpt><trkpt lat="42.840134140837016" lon="9.478376570957069"><ele>1.5</ele><time>2026-05-01T06:52:47.999Z</time></trkpt><trkpt lat="42.84026772705265" lon="9.47838178030852"><ele>1.75</ele><time>2026-05-01T06:52:48.999Z</time></trkpt><trkpt lat="42.84040364268726" lon="9.478395532414462"><ele>2.0</ele><time>2026-05-01T06:52:49.999Z</time></trkpt><trkpt lat="42.840521747372634" lon="9.478401343915955"><ele>2.0</ele><time>2026-05-01T06:52:50.999Z</time></trkpt><trkpt lat="42.84062479428486" lon="9.47841475945119"><ele>2.0</ele><time>2026-05-01T06:52:51.999Z</time></trkpt><trkpt lat="42.84075392201645" lon="9.478426088836436"><ele>2.0</ele><time>2026-05-01T06:52:52.999Z</time></trkpt><trkpt lat="42.840894236467854" lon="9.478479788427439"><ele>2.0</ele><time>2026-05-01T06:52:53.999Z</time></trkpt><trkpt lat="42.84098680402073" lon="9.478588697018848"><ele>6.75</ele><time>2026-05-01T06:52:54.999Z</time></trkpt><trkpt lat="42.84105866545293" lon="9.478729101929005"><ele>11.5</ele><time>2026-05-01T06:52:55.999Z</time></trkpt><trkpt lat="42.841071657283344" lon="9.478899745385812"><ele>16.25</ele><time>2026-05-01T06:52:56.999Z</time></trkpt><trkpt lat="42.841080800665786" lon="9.479073113537199"><ele>21.0</ele><time>2026-05-01T06:52:57.999Z</time></trkpt><trkpt lat="42.84109421467219" lon="9.479258892853577"><ele>21.0</ele><time>2026-05-01T06:52:58.999Z</time></trkpt><trkpt lat="42.84110677006747" lon="9.479475670465225"><ele>21.0</ele><time>2026-05-01T06:52:59.999Z</time></trkpt><trkpt lat="42.84110315226197" lon="9.47967620033584"><ele>21.0</ele><time>2026-05-01T06:53:00.999Z</time></trkpt><trkpt lat="42.84106947300724" lon="9.479884822354006"><ele>21.0</ele><time>2026-05-01T06:53:01.999Z</time></trkpt><trkpt lat="42.84104218583334" lon="9.480108576473288"><ele>21.0</ele><time>2026-05-01T06:53:02.999Z</time></trkpt><trkpt lat="42.8410607205768" lon="9.480308959777329"><ele>21.0</ele><time>2026-05-01T06:53:03.999Z</time></trkpt><trkpt lat="42.841118095701816" lon="9.48051255043036"><ele>21.0</ele><time>2026-05-01T06:53:04.999Z</time></trkpt><trkpt lat="42.84119884861977" lon="9.480735287459382"><ele>21.0</ele><time>2026-05-01T06:53:05.999Z</time></trkpt><trkpt lat="42.841241095881315" lon="9.48096495084505"><ele>21.0</ele><time>2026-05-01T06:53:06.999Z</time></trkpt><trkpt lat="42.841223260712994" lon="9.481210514830089"><ele>22.333333333333336</ele><time>2026-05-01T06:53:07.999Z</time></trkpt><trkpt lat="42.841205855446724" lon="9.48146241075213"><ele>23.666666666666668</ele><time>2026-05-01T06:53:08.999Z</time></trkpt><trkpt lat="42.8412109556101" lon="9.481699238111167"><ele>25.0</ele><time>2026-05-01T06:53:09.999Z</time></trkpt><trkpt lat="42.84123698174819" lon="9.48192509575403"><ele>24.666666666666668</ele><time>2026-05-01T06:53:10.999Z</time></trkpt><trkpt lat="42.84132387537516" lon="9.482164674645635"><ele>24.333333333333336</ele><time>2026-05-01T06:53:11.999Z</time></trkpt><trkpt lat="42.84139357359673" lon="9.482426555896252"><ele>24.0</ele><time>2026-05-01T06:53:12.999Z</time></trkpt><trkpt lat="42.841423031178316" lon="9.482706679283757"><ele>20.333333333333332</ele><time>2026-05-01T06:53:13.999Z</time></trkpt><trkpt lat="42.84148264959805" lon="9.482971667530611"><ele>16.666666666666664</ele><time>2026-05-01T06:53:14.999Z</time></trkpt><trkpt lat="42.841566222258464" lon="9.483206202623268"><ele>13.0</ele><time>2026-05-01T06:53:15.999Z</time></trkpt><trkpt lat="42.84171373663945" lon="9.483406329647933"><ele>14.333333333333332</ele><time>2026-05-01T06:53:16.999Z</time></trkpt><trkpt lat="42.84190079731193" lon="9.483542491208816"><ele>15.666666666666668</ele><time>2026-05-01T06:53:17.999Z</time></trkpt><trkpt lat="42.84209129057483" lon="9.483594788058113"><ele>17.0</ele><time>2026-05-01T06:53:18.999Z</time></trkpt><trkpt lat="42.842264815204125" lon="9.483551944880702"><ele>17.0</ele><time>2026-05-01T06:53:19.999Z</time></trkpt><trkpt lat="42.84243397820144" lon="9.48345116969355"><ele>17.0</ele><time>2026-05-01T06:53:20.999Z</time></trkpt><trkpt lat="42.842588732814185" lon="9.483319312267438"><ele>17.0</ele><time>2026-05-01T06:53:21.999Z</time></trkpt><trkpt lat="42.8427291142569" lon="9.483173212812941"><ele>13.333333333333334</ele><time>2026-05-01T06:53:22.999Z</time></trkpt><trkpt lat="42.842867450331255" lon="9.483017726302185"><ele>9.666666666666668</ele><time>2026-05-01T06:53:23.999Z</time></trkpt><trkpt lat="42.843036689730056" lon="9.482955794760317"><ele>6.0</ele><time>2026-05-01T06:53:24.999Z</time></trkpt><trkpt lat="42.843213738058914" lon="9.482926588129834"><ele>10.333333333333332</ele><time>2026-05-01T06:53:25.999Z</time></trkpt><trkpt lat="42.84337707919716" lon="9.48286238097633"><ele>14.666666666666666</ele><time>2026-05-01T06:53:26.999Z</time></trkpt><trkpt lat="42.84352715311393" lon="9.482764188888444"><ele>19.0</ele><time>2026-05-01T06:53:27.999Z</time></trkpt><trkpt lat="42.843642343624126" lon="9.482632686309616"><ele>19.0</ele><time>2026-05-01T06:53:28.999Z</time></trkpt><trkpt lat="42.84373482739685" lon="9.482492937374264"><ele>19.0</ele><time>2026-05-01T06:53:29.999Z</time></trkpt><trkpt lat="42.84381612108387" lon="9.482391901241517"><ele>19.0</ele><time>2026-05-01T06:53:30.999Z</time></trkpt><trkpt lat="42.84390766680015" lon="9.482306797543401"><ele>19.0</ele><time>2026-05-01T06:53:31.999Z</time></trkpt><trkpt lat="42.844019176709565" lon="9.482259229871895"><ele>19.0</ele><time>2026-05-01T06:53:32.999Z</time></trkpt><trkpt lat="42.84414920455" lon="9.482255772369614"><ele>19.0</ele><time>2026-05-01T06:53:33.999Z</time></trkpt><trkpt lat="42.84428408261009" lon="9.48233163729214"><ele>19.0</ele><time>2026-05-01T06:53:34.999Z</time></trkpt><trkpt lat="42.844402826027554" lon="9.482437919958905"><ele>19.0</ele><time>2026-05-01T06:53:35.999Z</time></trkpt><trkpt lat="42.84453378202153" lon="9.482558619783232"><ele>22.333333333333332</ele><time>2026-05-01T06:53:36.999Z</time></trkpt><trkpt lat="42.844682844723174" lon="9.482661223007412"><ele>25.666666666666664</ele><time>2026-05-01T06:53:37.999Z</time></trkpt><trkpt lat="42.8448368145289" lon="9.482763526494873"><ele>29.0</ele><time>2026-05-01T06:53:38.999Z</time></trkpt><trkpt lat="42.8449805523497" lon="9.48285712363564"><ele>23.5</ele><time>2026-05-01T06:53:39.999Z</time></trkpt><trkpt lat="42.84511032918554" lon="9.48294793726592"><ele>18.0</ele><time>2026-05-01T06:53:40.999Z</time></trkpt><trkpt lat="42.84522218283463" lon="9.483028869479742"><ele>12.5</ele><time>2026-05-01T06:53:41.999Z</time></trkpt><trkpt lat="42.845337760382755" lon="9.483100590317953"><ele>7.0</ele><time>2026-05-01T06:53:42.999Z</time></trkpt><trkpt lat="42.84545596137559" lon="9.483152376627341"><ele>7.0</ele><time>2026-05-01T06:53:43.999Z</time></trkpt><trkpt lat="42.84557928397878" lon="9.483162126731138"><ele>7.0</ele><time>2026-05-01T06:53:44.999Z</time></trkpt><trkpt lat="42.84570911576179" lon="9.483108155968653"><ele>7.0</ele><time>2026-05-01T06:53:45.999Z</time></trkpt><trkpt lat="42.84581993086925" lon="9.482993037568745"><ele>7.0</ele><time>2026-05-01T06:53:46.998Z</time></trkpt><trkpt lat="42.845899162740665" lon="9.482860881590497"><ele>11.5</ele><time>2026-05-01T06:53:47.998Z</time></trkpt><trkpt lat="42.845976670281075" lon="9.482765922075961"><ele>16.0</ele><time>2026-05-01T06:53:48.998Z</time></trkpt><trkpt lat="42.84607467590168" lon="9.482713255946733"><ele>20.5</ele><time>2026-05-01T06:53:49.998Z</time></trkpt><trkpt lat="42.84619924906426" lon="9.48268987913853"><ele>25.0</ele><time>2026-05-01T06:53:50.998Z</time></trkpt><trkpt lat="42.84633399924303" lon="9.482683310639615"><ele>25.0</ele><time>2026-05-01T06:53:51.998Z</time></trkpt><trkpt lat="42.84647525611549" lon="9.48269053552713"><ele>25.0</ele><time>2026-05-01T06:53:52.998Z</time></trkpt><trkpt lat="42.8465989827019" lon="9.482684518324602"><ele>25.0</ele><time>2026-05-01T06:53:53.998Z</time></trkpt><trkpt lat="42.846705740422095" lon="9.48266673106749"><ele>25.0</ele><time>2026-05-01T06:53:54.998Z</time></trkpt><trkpt lat="42.846807389178096" lon="9.482614805297635"><ele>20.666666666666668</ele><time>2026-05-01T06:53:55.998Z</time></trkpt><trkpt lat="42.84689402964519" lon="9.482514755851527"><ele>16.333333333333336</ele><time>2026-05-01T06:53:56.998Z</time></trkpt><trkpt lat="42.84697648783376" lon="9.482351919832045"><ele>12.0</ele><time>2026-05-01T06:53:57.998Z</time></trkpt><trkpt lat="42.84707347863245" lon="9.482119036916362"><ele>19.0</ele><time>2026-05-01T06:53:58.998Z</time></trkpt><trkpt lat="42.84720450539279" lon="9.481901972878408"><ele>26.0</ele><time>2026-05-01T06:53:59.998Z</time></trkpt><trkpt lat="42.847393931049155" lon="9.481877905050741"><ele>33.0</ele><time>2026-05-01T06:54:00.998Z</time></trkpt><trkpt lat="42.8476164892367" lon="9.481872940388314"><ele>36.5</ele><time>2026-05-01T06:54:01.998Z</time></trkpt><trkpt lat="42.847874270780316" lon="9.481865778867451"><ele>40.0</ele><time>2026-05-01T06:54:02.998Z</time></trkpt><trkpt lat="42.848145365676615" lon="9.481891806166537"><ele>40.0</ele><time>2026-05-01T06:54:03.998Z</time></trkpt><trkpt lat="42.84839483862417" lon="9.482065268139477"><ele>40.0</ele><time>2026-05-01T06:54:04.998Z</time></trkpt><trkpt lat="42.8486388846969" lon="9.482146504899912"><ele>34.0</ele><time>2026-05-01T06:54:05.998Z</time></trkpt><trkpt lat="42.84885105690994" lon="9.482183274231547"><ele>28.0</ele><time>2026-05-01T06:54:06.998Z</time></trkpt><trkpt lat="42.84905938016238" lon="9.482191497068245"><ele>22.0</ele><time>2026-05-01T06:54:07.998Z</time></trkpt><trkpt lat="42.84921592328959" lon="9.482340786184489"><ele>32.5</ele><time>2026-05-01T06:54:08.998Z</time></trkpt><trkpt lat="42.849399423344565" lon="9.482561517089422"><ele>43.0</ele><time>2026-05-01T06:54:09.998Z</time></trkpt><trkpt lat="42.84959602460492" lon="9.4827671556855"><ele>39.333333333333336</ele><time>2026-05-01T06:54:10.998Z</time></trkpt><trkpt lat="42.84974868208993" lon="9.482954229277185"><ele>35.666666666666664</ele><time>2026-05-01T06:54:11.998Z</time></trkpt><trkpt lat="42.84992788720501" lon="9.483037892405845"><ele>32.0</ele><time>2026-05-01T06:54:12.998Z</time></trkpt><trkpt lat="42.85014748425967" lon="9.483050462305894"><ele>32.0</ele><time>2026-05-01T06:54:13.998Z</time></trkpt><trkpt lat="42.850386394043376" lon="9.482994619276917"><ele>32.0</ele><time>2026-05-01T06:54:14.999Z</time></trkpt><trkpt lat="42.85057911100272" lon="9.482930273446975"><ele>32.0</ele><time>2026-05-01T06:54:15.999Z</time></trkpt><trkpt lat="42.850710323733146" lon="9.483009957577472"><ele>32.0</ele><time>2026-05-01T06:54:16.999Z</time></trkpt><trkpt lat="42.85079871814443" lon="9.483138837591625"><ele>32.0</ele><time>2026-05-01T06:54:17.999Z</time></trkpt><trkpt lat="42.850839663958226" lon="9.483317245254458"><ele>32.0</ele><time>2026-05-01T06:54:18.999Z</time></trkpt><trkpt lat="42.85081810280663" lon="9.483547487556239"><ele>32.0</ele><time>2026-05-01T06:54:19.999Z</time></trkpt><trkpt lat="42.85083343314525" lon="9.483799398572277"><ele>29.0</ele><time>2026-05-01T06:54:20.999Z</time></trkpt><trkpt lat="42.8508520116986" lon="9.484029500173799"><ele>26.0</ele><time>2026-05-01T06:54:21.999Z</time></trkpt><trkpt lat="42.85095917648437" lon="9.484279194191876"><ele>23.0</ele><time>2026-05-01T06:54:22.999Z</time></trkpt><trkpt lat="42.85108100507984" lon="9.484533089920493"><ele>24.0</ele><time>2026-05-01T06:54:23.999Z</time></trkpt><trkpt lat="42.851181135451256" lon="9.484758514126167"><ele>25.0</ele><time>2026-05-01T06:54:24.999Z</time></trkpt><trkpt lat="42.851277965340785" lon="9.48494638940766"><ele>26.0</ele><time>2026-05-01T06:54:25.999Z</time></trkpt><trkpt lat="42.851416098695715" lon="9.48508376049332"><ele>26.0</ele><time>2026-05-01T06:54:26.999Z</time></trkpt><trkpt lat="42.85157545544256" lon="9.485126948914319"><ele>26.0</ele><time>2026-05-01T06:54:27.999Z</time></trkpt><trkpt lat="42.85173148214489" lon="9.485079634544068"><ele>26.0</ele><time>2026-05-01T06:54:28.999Z</time></trkpt><trkpt lat="42.85189139467902" lon="9.485030579835522"><ele>21.666666666666664</ele><time>2026-05-01T06:54:29.999Z</time></trkpt><trkpt lat="42.85204943396731" lon="9.484973923228766"><ele>17.333333333333332</ele><time>2026-05-01T06:54:30.999Z</time></trkpt><trkpt lat="42.85219677057503" lon="9.484862404149254"><ele>13.0</ele><time>2026-05-01T06:54:31.999Z</time></trkpt><trkpt lat="42.85230273868308" lon="9.484672140954059"><ele>19.666666666666664</ele><time>2026-05-01T06:54:32.999Z</time></trkpt><trkpt lat="42.85237740583425" lon="9.484449161587973"><ele>26.333333333333332</ele><time>2026-05-01T06:54:33.999Z</time></trkpt><trkpt lat="42.852473617927295" lon="9.484212053706322"><ele>33.0</ele><time>2026-05-01T06:54:34.999Z</time></trkpt><trkpt lat="42.85262089710179" lon="9.484052113509339"><ele>33.0</ele><time>2026-05-01T06:54:35.999Z</time></trkpt><trkpt lat="42.8527699897936" lon="9.483965192857593"><ele>33.0</ele><time>2026-05-01T06:54:36.999Z</time></trkpt><trkpt lat="42.852924580686405" lon="9.483876593581481"><ele>33.0</ele><time>2026-05-01T06:54:37.999Z</time></trkpt><trkpt lat="42.853047677132416" lon="9.483748377016584"><ele>33.0</ele><time>2026-05-01T06:54:38.999Z</time></trkpt><trkpt lat="42.853140307434245" lon="9.48355354288098"><ele>33.0</ele><time>2026-05-01T06:54:39.999Z</time></trkpt><trkpt lat="42.85321246794814" lon="9.483341707965927"><ele>33.0</ele><time>2026-05-01T06:54:40.999Z</time></trkpt><trkpt lat="42.853332962032056" lon="9.483214757280924"><ele>28.333333333333332</ele><time>2026-05-01T06:54:41.999Z</time></trkpt><trkpt lat="42.85347997896458" lon="9.483154296715183"><ele>23.666666666666664</ele><time>2026-05-01T06:54:42.999Z</time></trkpt><trkpt lat="42.85363034634012" lon="9.483186758886452"><ele>19.0</ele><time>2026-05-01T06:54:43.999Z</time></trkpt><trkpt lat="42.85380787490258" lon="9.483220358187765"><ele>19.0</ele><time>2026-05-01T06:54:44.999Z</time></trkpt><trkpt lat="42.853984824013686" lon="9.483226257247278"><ele>19.0</ele><time>2026-05-01T06:54:45.999Z</time></trkpt><trkpt lat="42.85415356605664" lon="9.48318336839098"><ele>19.0</ele><time>2026-05-01T06:54:46.999Z</time></trkpt><trkpt lat="42.85430281613009" lon="9.483069277575549"><ele>24.333333333333332</ele><time>2026-05-01T06:54:47.999Z</time></trkpt><trkpt lat="42.85440164868823" lon="9.482883942994068"><ele>29.666666666666664</ele><time>2026-05-01T06:54:48.999Z</time></trkpt><trkpt lat="42.85445548581716" lon="9.482673090956094"><ele>35.0</ele><time>2026-05-01T06:54:49.999Z</time></trkpt><trkpt lat="42.85453200871382" lon="9.482493159395668"><ele>35.0</ele><time>2026-05-01T06:54:50.999Z</time></trkpt><trkpt lat="42.854637780221665" lon="9.48238175799928"><ele>35.0</ele><time>2026-05-01T06:54:51.999Z</time></trkpt><trkpt lat="42.85477208938501" lon="9.482354768874158"><ele>35.0</ele><time>2026-05-01T06:54:52.999Z</time></trkpt><trkpt lat="42.85491099220649" lon="9.482446707439214"><ele>35.0</ele><time>2026-05-01T06:54:53.999Z</time></trkpt><trkpt lat="42.855047498144906" lon="9.482559992278974"><ele>36.33333333333333</ele><time>2026-05-01T06:54:54.999Z</time></trkpt><trkpt lat="42.85519013787957" lon="9.482696907321143"><ele>37.666666666666664</ele><time>2026-05-01T06:54:55.999Z</time></trkpt><trkpt lat="42.85533067051231" lon="9.482772359440055"><ele>39.0</ele><time>2026-05-01T06:54:56.999Z</time></trkpt><trkpt lat="42.85549052739601" lon="9.482761100341365"><ele>39.0</ele><time>2026-05-01T06:54:57.999Z</time></trkpt><trkpt lat="42.855665860569545" lon="9.48269485099759"><ele>39.0</ele><time>2026-05-01T06:54:58.999Z</time></trkpt><trkpt lat="42.85585435392532" lon="9.482697358398559"><ele>39.0</ele><time>2026-05-01T06:54:59.999Z</time></trkpt><trkpt lat="42.85604453353647" lon="9.48270302836696"><ele>34.0</ele><time>2026-05-01T06:55:00.999Z</time></trkpt><trkpt lat="42.856214752789384" lon="9.48267288215083"><ele>29.0</ele><time>2026-05-01T06:55:01.999Z</time></trkpt><trkpt lat="42.85637439139067" lon="9.482537085170453"><ele>24.0</ele><time>2026-05-01T06:55:02.999Z</time></trkpt><trkpt lat="42.85653745283535" lon="9.482367641032688"><ele>24.0</ele><time>2026-05-01T06:55:03.999Z</time></trkpt><trkpt lat="42.85668185712069" lon="9.482185714333134"><ele>24.0</ele><time>2026-05-01T06:55:04.999Z</time></trkpt><trkpt lat="42.85679986472323" lon="9.482023859767816"><ele>24.0</ele><time>2026-05-01T06:55:05.999Z</time></trkpt><trkpt lat="42.85692172529266" lon="9.481949057813331"><ele>24.666666666666664</ele><time>2026-05-01T06:55:06.999Z</time></trkpt><trkpt lat="42.85707073538517" lon="9.48192908293674"><ele>25.333333333333332</ele><time>2026-05-01T06:55:07.999Z</time></trkpt><trkpt lat="42.85721824275584" lon="9.481861303720876"><ele>26.0</ele><time>2026-05-01T06:55:08.999Z</time></trkpt><trkpt lat="42.857345432459894" lon="9.481721287046863"><ele>26.0</ele><time>2026-05-01T06:55:09.999Z</time></trkpt><trkpt lat="42.857445164221005" lon="9.48151971967216"><ele>26.0</ele><time>2026-05-01T06:55:10.999Z</time></trkpt><trkpt lat="42.85757370524908" lon="9.481402852389888"><ele>26.0</ele><time>2026-05-01T06:55:11.999Z</time></trkpt><trkpt lat="42.85774241465683" lon="9.481390263955184"><ele>20.666666666666664</ele><time>2026-05-01T06:55:12.999Z</time></trkpt><trkpt lat="42.85793591203269" lon="9.481376249836662"><ele>15.333333333333332</ele><time>2026-05-01T06:55:13.999Z</time></trkpt><trkpt lat="42.85814260486947" lon="9.481346700869397"><ele>10.0</ele><time>2026-05-01T06:55:14.999Z</time></trkpt><trkpt lat="42.85835175965549" lon="9.481302475653656"><ele>11.666666666666668</ele><time>2026-05-01T06:55:15.999Z</time></trkpt><trkpt lat="42.85855634186699" lon="9.481236473093132"><ele>13.333333333333334</ele><time>2026-05-01T06:55:16.999Z</time></trkpt><trkpt lat="42.85874112573114" lon="9.481169274307662"><ele>15.0</ele><time>2026-05-01T06:55:17.999Z</time></trkpt><trkpt lat="42.858884155328354" lon="9.48107898044178"><ele>15.0</ele><time>2026-05-01T06:55:18.999Z</time></trkpt><trkpt lat="42.85901082210006" lon="9.480939106253166"><ele>15.0</ele><time>2026-05-01T06:55:19.999Z</time></trkpt><trkpt lat="42.85910196548913" lon="9.480743605346435"><ele>15.0</ele><time>2026-05-01T06:55:20.999Z</time></trkpt><trkpt lat="42.85917063738484" lon="9.480505688674542"><ele>14.0</ele><time>2026-05-01T06:55:21.999Z</time></trkpt><trkpt lat="42.8592772463155" lon="9.480279465549332"><ele>13.0</ele><time>2026-05-01T06:55:22.999Z</time></trkpt><trkpt lat="42.8594447590089" lon="9.480098991198895"><ele>12.0</ele><time>2026-05-01T06:55:23.999Z</time></trkpt><trkpt lat="42.85961414475817" lon="9.479871702870714"><ele>12.0</ele><time>2026-05-01T06:55:24.999Z</time></trkpt><trkpt lat="42.85977589489034" lon="9.47967026946008"><ele>12.0</ele><time>2026-05-01T06:55:25.999Z</time></trkpt><trkpt lat="42.859909236138364" lon="9.479496364523586"><ele>12.0</ele><time>2026-05-01T06:55:26.999Z</time></trkpt><trkpt lat="42.86003375992049" lon="9.479372090066162"><ele>20.0</ele><time>2026-05-01T06:55:27.999Z</time></trkpt><trkpt lat="42.860175636769746" lon="9.479303218431367"><ele>28.0</ele><time>2026-05-01T06:55:28.999Z</time></trkpt><trkpt lat="42.86033077513582" lon="9.479326517916784"><ele>36.0</ele><time>2026-05-01T06:55:29.999Z</time></trkpt><trkpt lat="42.860470600534" lon="9.479398820525724"><ele>36.0</ele><time>2026-05-01T06:55:30.999Z</time></trkpt><trkpt lat="42.8605971843892" lon="9.479533677118326"><ele>36.0</ele><time>2026-05-01T06:55:31.999Z</time></trkpt><trkpt lat="42.860673924443525" lon="9.479722734501056"><ele>36.0</ele><time>2026-05-01T06:55:32.999Z</time></trkpt><trkpt lat="42.860714129213484" lon="9.47995020631801"><ele>32.333333333333336</ele><time>2026-05-01T06:55:33.999Z</time></trkpt><trkpt lat="42.86071250811975" lon="9.48019362740152"><ele>28.666666666666668</ele><time>2026-05-01T06:55:34.999Z</time></trkpt><trkpt lat="42.86073159801561" lon="9.480408464561659"><ele>25.0</ele><time>2026-05-01T06:55:35.999Z</time></trkpt><trkpt lat="42.86077523188787" lon="9.480599082948645"><ele>27.25</ele><time>2026-05-01T06:55:36.999Z</time></trkpt><trkpt lat="42.860847625797376" lon="9.480789165723113"><ele>29.5</ele><time>2026-05-01T06:55:37.999Z</time></trkpt><trkpt lat="42.86093729303708" lon="9.480956532590918"><ele>31.75</ele><time>2026-05-01T06:55:38.999Z</time></trkpt><trkpt lat="42.86104051370498" lon="9.481065458882144"><ele>34.0</ele><time>2026-05-01T06:55:39.999Z</time></trkpt><trkpt lat="42.86113496122292" lon="9.481131320936358"><ele>34.0</ele><time>2026-05-01T06:55:40.999Z</time></trkpt><trkpt lat="42.861233581255874" lon="9.481153167757114"><ele>34.0</ele><time>2026-05-01T06:55:41.999Z</time></trkpt><trkpt lat="42.86135175006451" lon="9.481157544619132"><ele>34.0</ele><time>2026-05-01T06:55:42.999Z</time></trkpt><trkpt lat="42.8615278713616" lon="9.48118060236029"><ele>34.0</ele><time>2026-05-01T06:55:43.999Z</time></trkpt><trkpt lat="42.861735823507765" lon="9.481175039103402"><ele>34.0</ele><time>2026-05-01T06:55:44.999Z</time></trkpt><trkpt lat="42.861944323679694" lon="9.481174239318438"><ele>34.0</ele><time>2026-05-01T06:55:45.999Z</time></trkpt><trkpt lat="42.8621191111329" lon="9.481176743316393"><ele>34.0</ele><time>2026-05-01T06:55:46.999Z</time></trkpt><trkpt lat="42.86227416570927" lon="9.481205041738852"><ele>26.666666666666668</ele><time>2026-05-01T06:55:47.999Z</time></trkpt><trkpt lat="42.86241148020532" lon="9.481317953377339"><ele>19.333333333333336</ele><time>2026-05-01T06:55:48.999Z</time></trkpt><trkpt lat="42.86255428825801" lon="9.48138633880285"><ele>12.0</ele><time>2026-05-01T06:55:49.999Z</time></trkpt><trkpt lat="42.86270643394814" lon="9.481441421813818"><ele>12.0</ele><time>2026-05-01T06:55:50.999Z</time></trkpt><trkpt lat="42.862895095294604" lon="9.481426270609205"><ele>12.0</ele><time>2026-05-01T06:55:51.999Z</time></trkpt><trkpt lat="42.86308406245345" lon="9.481367907864747"><ele>12.0</ele><time>2026-05-01T06:55:52.999Z</time></trkpt><trkpt lat="42.86324084481518" lon="9.481339489713493"><ele>12.0</ele><time>2026-05-01T06:55:53.999Z</time></trkpt><trkpt lat="42.86337199023126" lon="9.481326760456136"><ele>12.0</ele><time>2026-05-01T06:55:54.999Z</time></trkpt><trkpt lat="42.8634811295233" lon="9.481319202442217"><ele>12.0</ele><time>2026-05-01T06:55:55.999Z</time></trkpt><trkpt lat="42.863583222784385" lon="9.481320879016437"><ele>12.0</ele><time>2026-05-01T06:55:56.999Z</time></trkpt><trkpt lat="42.8636994621785" lon="9.481363794039341"><ele>14.75</ele><time>2026-05-01T06:55:57.999Z</time></trkpt><trkpt lat="42.863820735333626" lon="9.481470972819176"><ele>17.5</ele><time>2026-05-01T06:55:58.999Z</time></trkpt><trkpt lat="42.863920524899285" lon="9.481629718670519"><ele>20.25</ele><time>2026-05-01T06:55:59.999Z</time></trkpt><trkpt lat="42.86401967277929" lon="9.481771842793254"><ele>23.0</ele><time>2026-05-01T06:56:00.999Z</time></trkpt><trkpt lat="42.86414038731562" lon="9.481845633682743"><ele>23.0</ele><time>2026-05-01T06:56:01.999Z</time></trkpt><trkpt lat="42.86427708201807" lon="9.481861604999889"><ele>23.0</ele><time>2026-05-01T06:56:02.999Z</time></trkpt><trkpt lat="42.8644029787254" lon="9.481825382922398"><ele>23.0</ele><time>2026-05-01T06:56:03.999Z</time></trkpt><trkpt lat="42.86451041139511" lon="9.481751707360056"><ele>23.0</ele><time>2026-05-01T06:56:04.999Z</time></trkpt><trkpt lat="42.864598456350755" lon="9.481657537273309"><ele>20.75</ele><time>2026-05-01T06:56:05.999Z</time></trkpt><trkpt lat="42.8646850683507" lon="9.481549368293193"><ele>18.5</ele><time>2026-05-01T06:56:06.999Z</time></trkpt><trkpt lat="42.864769650078856" lon="9.48142747420464"><ele>16.25</ele><time>2026-05-01T06:56:07.999Z</time></trkpt><trkpt lat="42.86484083157239" lon="9.481294885005612"><ele>14.0</ele><time>2026-05-01T06:56:08.999Z</time></trkpt><trkpt lat="42.86491413029482" lon="9.481175242048206"><ele>16.0</ele><time>2026-05-01T06:56:09.999Z</time></trkpt><trkpt lat="42.86500267146644" lon="9.481103567560504"><ele>18.0</ele><time>2026-05-01T06:56:10.999Z</time></trkpt><trkpt lat="42.865116794884365" lon="9.481051439064524"><ele>20.0</ele><time>2026-05-01T06:56:11.999Z</time></trkpt><trkpt lat="42.86525123684057" lon="9.481021722295631"><ele>22.0</ele><time>2026-05-01T06:56:12.999Z</time></trkpt><trkpt lat="42.86538377996136" lon="9.481015401880992"><ele>22.0</ele><time>2026-05-01T06:56:13.999Z</time></trkpt><trkpt lat="42.86548647845494" lon="9.481005709318094"><ele>22.0</ele><time>2026-05-01T06:56:14.999Z</time></trkpt><trkpt lat="42.86557619653887" lon="9.480973295079485"><ele>22.0</ele><time>2026-05-01T06:56:15.999Z</time></trkpt><trkpt lat="42.86566602156009" lon="9.480899157286716"><ele>22.0</ele><time>2026-05-01T06:56:16.999Z</time></trkpt><trkpt lat="42.86575981555068" lon="9.480812650556341"><ele>22.0</ele><time>2026-05-01T06:56:17.999Z</time></trkpt><trkpt lat="42.8658541876423" lon="9.480710379633283"><ele>22.25</ele><time>2026-05-01T06:56:18.999Z</time></trkpt><trkpt lat="42.865956411058235" lon="9.480676745192717"><ele>22.5</ele><time>2026-05-01T06:56:19.999Z</time></trkpt><trkpt lat="42.86606026950217" lon="9.480692307089818"><ele>22.75</ele><time>2026-05-01T06:56:20.999Z</time></trkpt><trkpt lat="42.866176810938285" lon="9.480728439010944"><ele>23.0</ele><time>2026-05-01T06:56:21.999Z</time></trkpt><trkpt lat="42.86630170634113" lon="9.480753878683757"><ele>23.0</ele><time>2026-05-01T06:56:22.999Z</time></trkpt><trkpt lat="42.866415829734926" lon="9.480794091830337"><ele>23.0</ele><time>2026-05-01T06:56:23.999Z</time></trkpt><trkpt lat="42.86652414213713" lon="9.480824219711897"><ele>23.0</ele><time>2026-05-01T06:56:24.999Z</time></trkpt><trkpt lat="42.86662747724498" lon="9.480860942908896"><ele>23.0</ele><time>2026-05-01T06:56:25.999Z</time></trkpt><trkpt lat="42.86672786507298" lon="9.480905078363909"><ele>23.0</ele><time>2026-05-01T06:56:26.999Z</time></trkpt><trkpt lat="42.866831808487056" lon="9.480945510171308"><ele>21.599999999999998</ele><time>2026-05-01T06:56:27.999Z</time></trkpt><trkpt lat="42.86693480568991" lon="9.480971102464903"><ele>20.2</ele><time>2026-05-01T06:56:28.999Z</time></trkpt><trkpt lat="42.86703962014701" lon="9.481002768608388"><ele>18.8</ele><time>2026-05-01T06:56:29.999Z</time></trkpt><trkpt lat="42.86714510214771" lon="9.481025836898535"><ele>17.4</ele><time>2026-05-01T06:56:30.999Z</time></trkpt><trkpt lat="42.86725284597129" lon="9.48103933831962"><ele>16.0</ele><time>2026-05-01T06:56:31.999Z</time></trkpt><trkpt lat="42.8673606006598" lon="9.481018035375548"><ele>16.0</ele><time>2026-05-01T06:56:32.999Z</time></trkpt><trkpt lat="42.86748121248071" lon="9.480963088947826"><ele>16.0</ele><time>2026-05-01T06:56:33.999Z</time></trkpt><trkpt lat="42.86759983541806" lon="9.480831802596096"><ele>16.0</ele><time>2026-05-01T06:56:34.999Z</time></trkpt><trkpt lat="42.867690475637765" lon="9.480695612373927"><ele>16.0</ele><time>2026-05-01T06:56:35.999Z</time></trkpt><trkpt lat="42.867790414083586" lon="9.480571648514285"><ele>16.5</ele><time>2026-05-01T06:56:36.999Z</time></trkpt><trkpt lat="42.86788672245289" lon="9.480474937008248"><ele>17.0</ele><time>2026-05-01T06:56:38Z</time></trkpt><trkpt lat="42.86797900597183" lon="9.480390730055971"><ele>17.5</ele><time>2026-05-01T06:56:39Z</time></trkpt><trkpt lat="42.86807095459782" lon="9.48030949180262"><ele>18.0</ele><time>2026-05-01T06:56:40Z</time></trkpt><trkpt lat="42.86817976354201" lon="9.480243673061551"><ele>18.0</ele><time>2026-05-01T06:56:41Z</time></trkpt><trkpt lat="42.8682859307256" lon="9.480160770144758"><ele>18.0</ele><time>2026-05-01T06:56:42Z</time></trkpt><trkpt lat="42.86837773410776" lon="9.480066221942813"><ele>18.0</ele><time>2026-05-01T06:56:43Z</time></trkpt><trkpt lat="42.868460902315455" lon="9.479967159929158"><ele>18.0</ele><time>2026-05-01T06:56:44Z</time></trkpt><trkpt lat="42.86853955059086" lon="9.479879682281263"><ele>18.0</ele><time>2026-05-01T06:56:45Z</time></trkpt><trkpt lat="42.868604722833474" lon="9.479781474003145"><ele>16.833333333333332</ele><time>2026-05-01T06:56:46Z</time></trkpt><trkpt lat="42.86865869396884" lon="9.479675125121846"><ele>15.666666666666666</ele><time>2026-05-01T06:56:47Z</time></trkpt><trkpt lat="42.86870214914979" lon="9.479571680087119"><ele>14.5</ele><time>2026-05-01T06:56:48Z</time></trkpt><trkpt lat="42.868745768529784" lon="9.479471822628192"><ele>13.333333333333332</ele><time>2026-05-01T06:56:49Z</time></trkpt><trkpt lat="42.86878713743492" lon="9.479381626854176"><ele>12.166666666666666</ele><time>2026-05-01T06:56:50Z</time></trkpt><trkpt lat="42.8688319016485" lon="9.479294818415923"><ele>11.0</ele><time>2026-05-01T06:56:51Z</time></trkpt><trkpt lat="42.868875512990826" lon="9.47921462469838"><ele>11.0</ele><time>2026-05-01T06:56:52Z</time></trkpt><trkpt lat="42.868929342279905" lon="9.479127582312584"><ele>11.0</ele><time>2026-05-01T06:56:53Z</time></trkpt><trkpt lat="42.86899475275786" lon="9.479033047142384"><ele>11.0</ele><time>2026-05-01T06:56:54Z</time></trkpt><trkpt lat="42.86906609230138" lon="9.478936030625837"><ele>11.0</ele><time>2026-05-01T06:56:55Z</time></trkpt><trkpt lat="42.86912639842573" lon="9.478844217493325"><ele>11.0</ele><time>2026-05-01T06:56:56Z</time></trkpt><trkpt lat="42.869182772456185" lon="9.478762649082896"><ele>10.166666666666666</ele><time>2026-05-01T06:56:57Z</time></trkpt><trkpt lat="42.869216661548116" lon="9.478667088719432"><ele>9.333333333333332</ele><time>2026-05-01T06:56:58Z</time></trkpt><trkpt lat="42.86925007108877" lon="9.478575769243607"><ele>8.5</ele><time>2026-05-01T06:56:59Z</time></trkpt><trkpt lat="42.86928193143113" lon="9.478494629277865"><ele>7.666666666666666</ele><time>2026-05-01T06:57:00Z</time></trkpt><trkpt lat="42.86933104820973" lon="9.4783869994538"><ele>6.833333333333333</ele><time>2026-05-01T06:57:02Z</time></trkpt><trkpt lat="42.869369783276134" lon="9.478270503262161"><ele>6.0</ele><time>2026-05-01T06:57:04Z</time></trkpt><trkpt lat="42.869414235210435" lon="9.478156209201982"><ele>6.0</ele><time>2026-05-01T06:57:06Z</time></trkpt><trkpt lat="42.8694918884595" lon="9.478017364547508"><ele>6.0</ele><time>2026-05-01T06:57:08Z</time></trkpt><trkpt lat="42.86956434096054" lon="9.477959959740915"><ele>6.0</ele><time>2026-05-01T06:57:09Z</time></trkpt><trkpt lat="42.8696548513284" lon="9.477920159127882"><ele>6.0</ele><time>2026-05-01T06:57:10Z</time></trkpt><trkpt lat="42.86976418647998" lon="9.477911739201094"><ele>6.0</ele><time>2026-05-01T06:57:11Z</time></trkpt><trkpt lat="42.86986314703582" lon="9.47792859628391"><ele>6.0</ele><time>2026-05-01T06:57:12Z</time></trkpt><trkpt lat="42.86995605577108" lon="9.477940313397326"><ele>6.0</ele><time>2026-05-01T06:57:13Z</time></trkpt><trkpt lat="42.8700536400891" lon="9.477940791202593"><ele>6.0</ele><time>2026-05-01T06:57:14Z</time></trkpt><trkpt lat="42.87014264439645" lon="9.477911529054285"><ele>6.0</ele><time>2026-05-01T06:57:15Z</time></trkpt><trkpt lat="42.870221033266716" lon="9.477859894565912"><ele>6.0</ele><time>2026-05-01T06:57:16Z</time></trkpt><trkpt lat="42.87026934336985" lon="9.477768771543678"><ele>7.0</ele><time>2026-05-01T06:57:17Z</time></trkpt><trkpt lat="42.87029663053356" lon="9.4776762105937"><ele>8.0</ele><time>2026-05-01T06:57:18Z</time></trkpt><trkpt lat="42.870307925335936" lon="9.477578793944046"><ele>9.0</ele><time>2026-05-01T06:57:19Z</time></trkpt><trkpt lat="42.870307759894914" lon="9.477462308285016"><ele>10.0</ele><time>2026-05-01T06:57:20Z</time></trkpt><trkpt lat="42.87029902822567" lon="9.47733642107147"><ele>11.0</ele><time>2026-05-01T06:57:21Z</time></trkpt><trkpt lat="42.87030321078699" lon="9.477200373840562"><ele>12.0</ele><time>2026-05-01T06:57:21.999Z</time></trkpt><trkpt lat="42.870309301858995" lon="9.477083616878197"><ele>14.333333333333332</ele><time>2026-05-01T06:57:22.999Z</time></trkpt><trkpt lat="42.87031959106527" lon="9.47697460958647"><ele>16.666666666666664</ele><time>2026-05-01T06:57:23.999Z</time></trkpt><trkpt lat="42.87034406649912" lon="9.476867448988482"><ele>19.0</ele><time>2026-05-01T06:57:24.999Z</time></trkpt><trkpt lat="42.870354914626546" lon="9.47676034423788"><ele>21.333333333333332</ele><time>2026-05-01T06:57:25.999Z</time></trkpt><trkpt lat="42.87036908588616" lon="9.47664857100844"><ele>23.666666666666664</ele><time>2026-05-01T06:57:26.999Z</time></trkpt><trkpt lat="42.870380331216474" lon="9.476533460241903"><ele>26.0</ele><time>2026-05-01T06:57:27.999Z</time></trkpt><trkpt lat="42.870462862293195" lon="9.476484773623646"><ele>26.0</ele><time>2026-05-01T06:57:28.999Z</time></trkpt><trkpt lat="42.87052919649557" lon="9.47647236500846"><ele>26.0</ele><time>2026-05-01T06:57:29.999Z</time></trkpt><trkpt lat="42.87062914188826" lon="9.476564139205882"><ele>26.0</ele><time>2026-05-01T06:57:31.999Z</time></trkpt><trkpt lat="42.87065376562322" lon="9.47666655575602"><ele>26.0</ele><time>2026-05-01T06:57:32.999Z</time></trkpt><trkpt lat="42.87066430705074" lon="9.476766040701852"><ele>26.0</ele><time>2026-05-01T06:57:33.999Z</time></trkpt><trkpt lat="42.87069601398335" lon="9.476947307357873"><ele>25.999999999999996</ele><time>2026-05-01T06:57:35.999Z</time></trkpt><trkpt lat="42.8707249713147" lon="9.477045312239435"><ele>26.0</ele><time>2026-05-01T06:57:36.999Z</time></trkpt><trkpt lat="42.870767848161876" lon="9.477140474258464"><ele>26.0</ele><time>2026-05-01T06:57:37.999Z</time></trkpt><trkpt lat="42.87082094474805" lon="9.477230284667723"><ele>26.0</ele><time>2026-05-01T06:57:38.999Z</time></trkpt><trkpt lat="42.8708888678185" lon="9.477308032165705"><ele>25.999999999999996</ele><time>2026-05-01T06:57:39.999Z</time></trkpt><trkpt lat="42.87095214100683" lon="9.477378620978742"><ele>26.0</ele><time>2026-05-01T06:57:40.999Z</time></trkpt><trkpt lat="42.87101987764182" lon="9.477441923355489"><ele>25.428571428571427</ele><time>2026-05-01T06:57:41.999Z</time></trkpt><trkpt lat="42.87108059201051" lon="9.477507392284705"><ele>24.857142857142858</ele><time>2026-05-01T06:57:42.999Z</time></trkpt><trkpt lat="42.87114344534407" lon="9.477565982209056"><ele>24.285714285714285</ele><time>2026-05-01T06:57:43.999Z</time></trkpt><trkpt lat="42.871208495619804" lon="9.47761452869638"><ele>23.714285714285715</ele><time>2026-05-01T06:57:44.999Z</time></trkpt><trkpt lat="42.87127558763293" lon="9.477658406459037"><ele>23.142857142857142</ele><time>2026-05-01T06:57:45.999Z</time></trkpt><trkpt lat="42.87134224657216" lon="9.477692285082437"><ele>22.571428571428573</ele><time>2026-05-01T06:57:46.999Z</time></trkpt><trkpt lat="42.87140573999447" lon="9.477722091172367"><ele>22.0</ele><time>2026-05-01T06:57:47.999Z</time></trkpt><trkpt lat="42.871469824240364" lon="9.477745846807654"><ele>22.0</ele><time>2026-05-01T06:57:48.999Z</time></trkpt><trkpt lat="42.87153491194742" lon="9.477770520739684"><ele>22.0</ele><time>2026-05-01T06:57:49.999Z</time></trkpt><trkpt lat="42.871602116215186" lon="9.4777912677343"><ele>22.0</ele><time>2026-05-01T06:57:50.999Z</time></trkpt><trkpt lat="42.87167437745664" lon="9.477791869831062"><ele>22.0</ele><time>2026-05-01T06:57:51.999Z</time></trkpt><trkpt lat="42.87175105482302" lon="9.47774239835081"><ele>22.0</ele><time>2026-05-01T06:57:52.999Z</time></trkpt><trkpt lat="42.87181780106017" lon="9.477643738188567"><ele>22.0</ele><time>2026-05-01T06:57:53.999Z</time></trkpt><trkpt lat="42.871878202381325" lon="9.477511245938741"><ele>20.166666666666664</ele><time>2026-05-01T06:57:54.999Z</time></trkpt><trkpt lat="42.87191517952728" lon="9.477415965037423"><ele>18.333333333333332</ele><time>2026-05-01T06:57:55.999Z</time></trkpt><trkpt lat="42.87196414197592" lon="9.477330419339735"><ele>16.5</ele><time>2026-05-01T06:57:56.999Z</time></trkpt><trkpt lat="42.872010387711654" lon="9.477238438306896"><ele>14.666666666666666</ele><time>2026-05-01T06:57:57.999Z</time></trkpt><trkpt lat="42.87206114187444" lon="9.477136887820363"><ele>12.833333333333332</ele><time>2026-05-01T06:57:58.999Z</time></trkpt><trkpt lat="42.87211003144673" lon="9.47703637877886"><ele>11.0</ele><time>2026-05-01T06:57:59.999Z</time></trkpt><trkpt lat="42.87214655046069" lon="9.476941539055082"><ele>11.0</ele><time>2026-05-01T06:58:00.999Z</time></trkpt><trkpt lat="42.872177311266995" lon="9.476857150595302"><ele>11.0</ele><time>2026-05-01T06:58:01.999Z</time></trkpt><trkpt lat="42.87220528269713" lon="9.476779785763476"><ele>11.0</ele><time>2026-05-01T06:58:02.999Z</time></trkpt><trkpt lat="42.87223459207825" lon="9.476686666331608"><ele>11.0</ele><time>2026-05-01T06:58:03.999Z</time></trkpt><trkpt lat="42.87226601009163" lon="9.47658085394276"><ele>11.0</ele><time>2026-05-01T06:58:04.999Z</time></trkpt><trkpt lat="42.872290247950154" lon="9.47648012164945"><ele>11.0</ele><time>2026-05-01T06:58:05.999Z</time></trkpt><trkpt lat="42.87231598776563" lon="9.476382602452833"><ele>11.0</ele><time>2026-05-01T06:58:06.999Z</time></trkpt><trkpt lat="42.87234510912404" lon="9.476276550120936"><ele>12.600000000000001</ele><time>2026-05-01T06:58:07.999Z</time></trkpt><trkpt lat="42.87237639577031" lon="9.4761681642383"><ele>14.2</ele><time>2026-05-01T06:58:08.999Z</time></trkpt><trkpt lat="42.87241068003642" lon="9.476053442443412"><ele>15.799999999999999</ele><time>2026-05-01T06:58:09.999Z</time></trkpt><trkpt lat="42.87245076803901" lon="9.475930792545242"><ele>17.4</ele><time>2026-05-01T06:58:10.999Z</time></trkpt><trkpt lat="42.872490840231606" lon="9.475799704456383"><ele>19.0</ele><time>2026-05-01T06:58:11.999Z</time></trkpt><trkpt lat="42.87253081525745" lon="9.475656981781604"><ele>19.0</ele><time>2026-05-01T06:58:12.999Z</time></trkpt><trkpt lat="42.8725733355812" lon="9.475508546660636"><ele>19.0</ele><time>2026-05-01T06:58:13.999Z</time></trkpt><trkpt lat="42.872616077981164" lon="9.475353636120706"><ele>19.0</ele><time>2026-05-01T06:58:14.999Z</time></trkpt><trkpt lat="42.87266395976841" lon="9.475211058479992"><ele>19.0</ele><time>2026-05-01T06:58:15.999Z</time></trkpt><trkpt lat="42.87272568450149" lon="9.475086676544663"><ele>18.333333333333332</ele><time>2026-05-01T06:58:16.999Z</time></trkpt><trkpt lat="42.872779197907924" lon="9.474995072960342"><ele>17.666666666666664</ele><time>2026-05-01T06:58:17.999Z</time></trkpt><trkpt lat="42.87283967924504" lon="9.474893146124575"><ele>17.0</ele><time>2026-05-01T06:58:19.999Z</time></trkpt><trkpt lat="42.87290213046071" lon="9.47477637972042"><ele>16.333333333333332</ele><time>2026-05-01T06:58:21.999Z</time></trkpt><trkpt lat="42.87293833777956" lon="9.474704721554875"><ele>15.666666666666666</ele><time>2026-05-01T06:58:22.999Z</time></trkpt><trkpt lat="42.87298311787722" lon="9.474619678643696"><ele>15.0</ele><time>2026-05-01T06:58:23.999Z</time></trkpt><trkpt lat="42.87303575682742" lon="9.474524377746292"><ele>15.0</ele><time>2026-05-01T06:58:24.999Z</time></trkpt><trkpt lat="42.87309823350465" lon="9.474421941492466"><ele>15.0</ele><time>2026-05-01T06:58:26Z</time></trkpt><trkpt lat="42.87316808380641" lon="9.474312258693832"><ele>15.0</ele><time>2026-05-01T06:58:27Z</time></trkpt><trkpt lat="42.87324234541295" lon="9.47420538222503"><ele>15.0</ele><time>2026-05-01T06:58:28Z</time></trkpt><trkpt lat="42.873317680444636" lon="9.47411581209393"><ele>15.0</ele><time>2026-05-01T06:58:29Z</time></trkpt><trkpt lat="42.873383372697944" lon="9.474025126202118"><ele>13.0</ele><time>2026-05-01T06:58:30Z</time></trkpt><trkpt lat="42.87343944809646" lon="9.473917009749538"><ele>11.0</ele><time>2026-05-01T06:58:31Z</time></trkpt><trkpt lat="42.873493624835106" lon="9.47380437818309"><ele>9.0</ele><time>2026-05-01T06:58:32Z</time></trkpt><trkpt lat="42.873538205980694" lon="9.473699303422867"><ele>7.0</ele><time>2026-05-01T06:58:33Z</time></trkpt><trkpt lat="42.873582845444666" lon="9.47360475955977"><ele>5.0</ele><time>2026-05-01T06:58:34Z</time></trkpt><trkpt lat="42.87364078257481" lon="9.473515076580666"><ele>5.0</ele><time>2026-05-01T06:58:35Z</time></trkpt><trkpt lat="42.873720989209346" lon="9.47342678916964"><ele>5.0</ele><time>2026-05-01T06:58:36Z</time></trkpt><trkpt lat="42.87381737828321" lon="9.473353958207321"><ele>5.0</ele><time>2026-05-01T06:58:37Z</time></trkpt><trkpt lat="42.8739040293553" lon="9.47327726744027"><ele>5.0</ele><time>2026-05-01T06:58:38Z</time></trkpt><trkpt lat="42.87397462569858" lon="9.473177452960481"><ele>5.0</ele><time>2026-05-01T06:58:39Z</time></trkpt><trkpt lat="42.87402307118893" lon="9.473071095497305"><ele>5.0</ele><time>2026-05-01T06:58:40Z</time></trkpt><trkpt lat="42.87406959230889" lon="9.472971281726942"><ele>5.0</ele><time>2026-05-01T06:58:41Z</time></trkpt><trkpt lat="42.874136618968095" lon="9.472892161583534"><ele>5.0</ele><time>2026-05-01T06:58:42Z</time></trkpt><trkpt lat="42.874231875902744" lon="9.472836393607585"><ele>5.0</ele><time>2026-05-01T06:58:43Z</time></trkpt><trkpt lat="42.87433925370104" lon="9.4728066204679"><ele>5.0</ele><time>2026-05-01T06:58:44Z</time></trkpt><trkpt lat="42.87443993821849" lon="9.472773047582884"><ele>4.4</ele><time>2026-05-01T06:58:45Z</time></trkpt><trkpt lat="42.8745256044493" lon="9.472690047749976"><ele>3.8</ele><time>2026-05-01T06:58:46Z</time></trkpt><trkpt lat="42.87459079660487" lon="9.472566045241384"><ele>3.2</ele><time>2026-05-01T06:58:47Z</time></trkpt><trkpt lat="42.87462321372008" lon="9.472420374613504"><ele>2.6</ele><time>2026-05-01T06:58:48Z</time></trkpt><trkpt lat="42.874636980058966" lon="9.472267404520986"><ele>2.0</ele><time>2026-05-01T06:58:49Z</time></trkpt><trkpt lat="42.87465872755434" lon="9.472129380454525"><ele>2.8</ele><time>2026-05-01T06:58:50Z</time></trkpt><trkpt lat="42.87471007301024" lon="9.472017387307337"><ele>3.6</ele><time>2026-05-01T06:58:51Z</time></trkpt><trkpt lat="42.874785243701005" lon="9.471940633662218"><ele>4.3999999999999995</ele><time>2026-05-01T06:58:52Z</time></trkpt><trkpt lat="42.874868201677536" lon="9.471888056670943"><ele>5.2</ele><time>2026-05-01T06:58:53Z</time></trkpt><trkpt lat="42.8749634379289" lon="9.471867009523844"><ele>6.0</ele><time>2026-05-01T06:58:54Z</time></trkpt><trkpt lat="42.87506723383089" lon="9.471870521972711"><ele>5.2</ele><time>2026-05-01T06:58:55Z</time></trkpt><trkpt lat="42.875169886587905" lon="9.471927537541905"><ele>4.3999999999999995</ele><time>2026-05-01T06:58:56Z</time></trkpt><trkpt lat="42.87527525557312" lon="9.471968009002289"><ele>3.6</ele><time>2026-05-01T06:58:57Z</time></trkpt><trkpt lat="42.87537782040094" lon="9.471988744183696"><ele>2.8</ele><time>2026-05-01T06:58:58Z</time></trkpt><trkpt lat="42.8754646116708" lon="9.47202829247026"><ele>2.0</ele><time>2026-05-01T06:58:59Z</time></trkpt><trkpt lat="42.87554378207742" lon="9.472069425099056"><ele>1.9999999999999998</ele><time>2026-05-01T06:59:00Z</time></trkpt><trkpt lat="42.875626854822755" lon="9.472102134732966"><ele>2.0</ele><time>2026-05-01T06:59:01Z</time></trkpt><trkpt lat="42.875711114055875" lon="9.472143057259151"><ele>2.0</ele><time>2026-05-01T06:59:02Z</time></trkpt><trkpt lat="42.875784953640746" lon="9.472176808537414"><ele>2.0</ele><time>2026-05-01T06:59:03Z</time></trkpt><trkpt lat="42.875856207985755" lon="9.47220552258247"><ele>1.9999999999999998</ele><time>2026-05-01T06:59:04Z</time></trkpt><trkpt lat="42.87594232972362" lon="9.472241666105933"><ele>2.0</ele><time>2026-05-01T06:59:06Z</time></trkpt><trkpt lat="42.87602283812053" lon="9.47227522212719"><ele>1.8</ele><time>2026-05-01T06:59:09Z</time></trkpt><trkpt lat="42.87613651026699" lon="9.472323061520438"><ele>1.6</ele><time>2026-05-01T06:59:11Z</time></trkpt><trkpt lat="42.87621693780771" lon="9.472351182991135"><ele>1.4000000000000001</ele><time>2026-05-01T06:59:12Z</time></trkpt><trkpt lat="42.876298069555496" lon="9.472377747898744"><ele>1.2000000000000002</ele><time>2026-05-01T06:59:13Z</time></trkpt><trkpt lat="42.87638071587984" lon="9.472415126924766"><ele>1.0</ele><time>2026-05-01T06:59:14Z</time></trkpt><trkpt lat="42.87647192189834" lon="9.472453195332127"><ele>0.9999999999999999</ele><time>2026-05-01T06:59:15Z</time></trkpt><trkpt lat="42.87656222993142" lon="9.472490267052807"><ele>1.0</ele><time>2026-05-01T06:59:16Z</time></trkpt><trkpt lat="42.876648811513846" lon="9.472524903660545"><ele>1.0</ele><time>2026-05-01T06:59:17Z</time></trkpt><trkpt lat="42.876732303953965" lon="9.472558845574081"><ele>1.0</ele><time>2026-05-01T06:59:18Z</time></trkpt><trkpt lat="42.87680733492187" lon="9.472593335686044"><ele>0.9999999999999999</ele><time>2026-05-01T06:59:19Z</time></trkpt><trkpt lat="42.87687463148505" lon="9.47261584114153"><ele>1.0</ele><time>2026-05-01T06:59:20Z</time></trkpt><trkpt lat="42.87694948411559" lon="9.472647184020287"><ele>0.8</ele><time>2026-05-01T06:59:21Z</time></trkpt><trkpt lat="42.87703094366599" lon="9.472681845906406"><ele>0.6000000000000001</ele><time>2026-05-01T06:59:22Z</time></trkpt><trkpt lat="42.87711969380762" lon="9.472715993676875"><ele>0.4</ele><time>2026-05-01T06:59:23Z</time></trkpt><trkpt lat="42.87721104831015" lon="9.472751091860864"><ele>0.2</ele><time>2026-05-01T06:59:24Z</time></trkpt><trkpt lat="42.87730589424214" lon="9.47278652141988"><ele>0.0</ele><time>2026-05-01T06:59:25Z</time></trkpt><trkpt lat="42.87739547524728" lon="9.472823250268338"><ele>0.0</ele><time>2026-05-01T06:59:26Z</time></trkpt><trkpt lat="42.87748741077054" lon="9.472863137912054"><ele>0.0</ele><time>2026-05-01T06:59:27Z</time></trkpt><trkpt lat="42.877586988166584" lon="9.472905439815497"><ele>0.0</ele><time>2026-05-01T06:59:28Z</time></trkpt><trkpt lat="42.87769244869139" lon="9.47294485896228"><ele>0.0</ele><time>2026-05-01T06:59:29Z</time></trkpt><trkpt lat="42.87779221322185" lon="9.472983896227786"><ele>0.0</ele><time>2026-05-01T06:59:30Z</time></trkpt><trkpt lat="42.877886802118205" lon="9.473024610464387"><ele>1.6</ele><time>2026-05-01T06:59:31Z</time></trkpt><trkpt lat="42.877980867080346" lon="9.473067514001036"><ele>3.2</ele><time>2026-05-01T06:59:32Z</time></trkpt><trkpt lat="42.878076738687035" lon="9.473120133382725"><ele>4.800000000000001</ele><time>2026-05-01T06:59:33Z</time></trkpt><trkpt lat="42.878163400653804" lon="9.473193876228477"><ele>6.4</ele><time>2026-05-01T06:59:34Z</time></trkpt><trkpt lat="42.87824132127657" lon="9.473291453640439"><ele>8.0</ele><time>2026-05-01T06:59:35Z</time></trkpt><trkpt lat="42.87830083122618" lon="9.473412148224819"><ele>8.0</ele><time>2026-05-01T06:59:36Z</time></trkpt><trkpt lat="42.878328433597645" lon="9.473551465324267"><ele>8.0</ele><time>2026-05-01T06:59:37Z</time></trkpt><trkpt lat="42.87834652924748" lon="9.473689882382875"><ele>8.0</ele><time>2026-05-01T06:59:38Z</time></trkpt><trkpt lat="42.878344022362924" lon="9.47384855593081"><ele>8.0</ele><time>2026-05-01T06:59:39Z</time></trkpt><trkpt lat="42.878286857127094" lon="9.473993083293982"><ele>8.0</ele><time>2026-05-01T06:59:40Z</time></trkpt><trkpt lat="42.87822419935236" lon="9.47415526784845"><ele>9.25</ele><time>2026-05-01T06:59:41Z</time></trkpt><trkpt lat="42.87816962471087" lon="9.474323312259896"><ele>10.5</ele><time>2026-05-01T06:59:42Z</time></trkpt><trkpt lat="42.87813608422633" lon="9.474485102013787"><ele>11.75</ele><time>2026-05-01T06:59:43Z</time></trkpt><trkpt lat="42.87810448140581" lon="9.474620099655931"><ele>13.0</ele><time>2026-05-01T06:59:44Z</time></trkpt><trkpt lat="42.878082673177865" lon="9.474754893253147"><ele>13.0</ele><time>2026-05-01T06:59:45Z</time></trkpt><trkpt lat="42.87805418470907" lon="9.474893701114226"><ele>13.0</ele><time>2026-05-01T06:59:46Z</time></trkpt><trkpt lat="42.87802255094775" lon="9.475041426750177"><ele>13.0</ele><time>2026-05-01T06:59:47Z</time></trkpt><trkpt lat="42.87799476340992" lon="9.475185294344339"><ele>13.0</ele><time>2026-05-01T06:59:48Z</time></trkpt><trkpt lat="42.877985169195014" lon="9.475333332438566"><ele>13.0</ele><time>2026-05-01T06:59:49Z</time></trkpt><trkpt lat="42.87800327620563" lon="9.475480309022075"><ele>13.0</ele><time>2026-05-01T06:59:50Z</time></trkpt><trkpt lat="42.87805272618298" lon="9.475614030066914"><ele>13.0</ele><time>2026-05-01T06:59:51Z</time></trkpt><trkpt lat="42.878110320088034" lon="9.475729921548492"><ele>13.0</ele><time>2026-05-01T06:59:52Z</time></trkpt><trkpt lat="42.8781922059468" lon="9.47583017408906"><ele>13.0</ele><time>2026-05-01T06:59:53Z</time></trkpt><trkpt lat="42.87828246026626" lon="9.475919355413504"><ele>13.0</ele><time>2026-05-01T06:59:54Z</time></trkpt><trkpt lat="42.87836671725119" lon="9.47601318346814"><ele>15.25</ele><time>2026-05-01T06:59:55Z</time></trkpt><trkpt lat="42.878441164014625" lon="9.476144010722026"><ele>17.5</ele><time>2026-05-01T06:59:56Z</time></trkpt><trkpt lat="42.87848767377661" lon="9.47631139286394"><ele>19.75</ele><time>2026-05-01T06:59:57Z</time></trkpt><trkpt lat="42.87851161965143" lon="9.476489265895925"><ele>22.0</ele><time>2026-05-01T06:59:58Z</time></trkpt><trkpt lat="42.87853105281668" lon="9.476652299101156"><ele>22.0</ele><time>2026-05-01T06:59:59Z</time></trkpt><trkpt lat="42.87856660664409" lon="9.47680690941794"><ele>22.0</ele><time>2026-05-01T07:00:00Z</time></trkpt><trkpt lat="42.87862365687739" lon="9.476946368452037"><ele>22.0</ele><time>2026-05-01T07:00:01Z</time></trkpt><trkpt lat="42.878704676559174" lon="9.477067283949884"><ele>22.0</ele><time>2026-05-01T07:00:02Z</time></trkpt><trkpt lat="42.878803974433865" lon="9.477150442162324"><ele>18.75</ele><time>2026-05-01T07:00:03Z</time></trkpt><trkpt lat="42.8789042253951" lon="9.477213688522973"><ele>15.5</ele><time>2026-05-01T07:00:04Z</time></trkpt><trkpt lat="42.87900150189108" lon="9.47729846719513"><ele>12.25</ele><time>2026-05-01T07:00:05Z</time></trkpt><trkpt lat="42.87908233002421" lon="9.477418509193628"><ele>9.0</ele><time>2026-05-01T07:00:06Z</time></trkpt><trkpt lat="42.87914592171426" lon="9.477534214172362"><ele>9.0</ele><time>2026-05-01T07:00:07Z</time></trkpt><trkpt lat="42.87922712392003" lon="9.47761743459953"><ele>9.0</ele><time>2026-05-01T07:00:08Z</time></trkpt><trkpt lat="42.8793256588671" lon="9.477669690719319"><ele>9.0</ele><time>2026-05-01T07:00:08.999Z</time></trkpt><trkpt lat="42.879433012190674" lon="9.477696652331057"><ele>9.0</ele><time>2026-05-01T07:00:09.999Z</time></trkpt><trkpt lat="42.87955124766275" lon="9.477683012039607"><ele>9.0</ele><time>2026-05-01T07:00:10.999Z</time></trkpt><trkpt lat="42.87967046310089" lon="9.477628501113179"><ele>9.25</ele><time>2026-05-01T07:00:11.999Z</time></trkpt><trkpt lat="42.87979104058553" lon="9.477566181827942"><ele>9.5</ele><time>2026-05-01T07:00:12.999Z</time></trkpt><trkpt lat="42.8799124462688" lon="9.477517659896384"><ele>9.75</ele><time>2026-05-01T07:00:13.999Z</time></trkpt><trkpt lat="42.88001228313701" lon="9.477460771997958"><ele>10.0</ele><time>2026-05-01T07:00:14.999Z</time></trkpt><trkpt lat="42.880115585527044" lon="9.47741943498498"><ele>9.5</ele><time>2026-05-01T07:00:15.999Z</time></trkpt><trkpt lat="42.880234031781924" lon="9.477404520969614"><ele>9.0</ele><time>2026-05-01T07:00:16.999Z</time></trkpt><trkpt lat="42.88036108216155" lon="9.477417165604678"><ele>8.5</ele><time>2026-05-01T07:00:17.999Z</time></trkpt><trkpt lat="42.88048982776796" lon="9.47744162675242"><ele>8.0</ele><time>2026-05-01T07:00:18.999Z</time></trkpt><trkpt lat="42.88060978091444" lon="9.477484412100765"><ele>8.0</ele><time>2026-05-01T07:00:19.999Z</time></trkpt><trkpt lat="42.880710783909635" lon="9.477532171699304"><ele>8.0</ele><time>2026-05-01T07:00:20.999Z</time></trkpt><trkpt lat="42.880810172867335" lon="9.477558724785437"><ele>8.0</ele><time>2026-05-01T07:00:21.999Z</time></trkpt><trkpt lat="42.880907430995485" lon="9.477551987259996"><ele>8.0</ele><time>2026-05-01T07:00:22.999Z</time></trkpt><trkpt lat="42.8810181098777" lon="9.477500055277318"><ele>8.0</ele><time>2026-05-01T07:00:23.999Z</time></trkpt><trkpt lat="42.88113666869893" lon="9.477425323979299"><ele>7.0</ele><time>2026-05-01T07:00:24.999Z</time></trkpt><trkpt lat="42.881255225362864" lon="9.477347842033629"><ele>6.0</ele><time>2026-05-01T07:00:25.999Z</time></trkpt><trkpt lat="42.88137132615834" lon="9.477283662347684"><ele>5.0</ele><time>2026-05-01T07:00:26.999Z</time></trkpt><trkpt lat="42.88149336731498" lon="9.4772418100733"><ele>4.0</ele><time>2026-05-01T07:00:27.999Z</time></trkpt><trkpt lat="42.88160909830614" lon="9.477227807656988"><ele>4.0</ele><time>2026-05-01T07:00:28.999Z</time></trkpt><trkpt lat="42.881716815583005" lon="9.477226832326775"><ele>4.0</ele><time>2026-05-01T07:00:29.999Z</time></trkpt><trkpt lat="42.88182118507398" lon="9.4772084809749"><ele>4.0</ele><time>2026-05-01T07:00:30.999Z</time></trkpt><trkpt lat="42.881922700071875" lon="9.477159941761645"><ele>4.0</ele><time>2026-05-01T07:00:31.999Z</time></trkpt><trkpt lat="42.88202465145175" lon="9.47707499875556"><ele>4.0</ele><time>2026-05-01T07:00:32.999Z</time></trkpt><trkpt lat="42.88212362200075" lon="9.476965472201293"><ele>5.25</ele><time>2026-05-01T07:00:33.999Z</time></trkpt><trkpt lat="42.88222373691405" lon="9.476857314559723"><ele>6.5</ele><time>2026-05-01T07:00:34.999Z</time></trkpt><trkpt lat="42.882324507805954" lon="9.476757891438016"><ele>7.75</ele><time>2026-05-01T07:00:35.999Z</time></trkpt><trkpt lat="42.88244024573354" lon="9.476651309833219"><ele>9.0</ele><time>2026-05-01T07:00:36.999Z</time></trkpt><trkpt lat="42.88256125888671" lon="9.476535487121055"><ele>9.25</ele><time>2026-05-01T07:00:37.999Z</time></trkpt><trkpt lat="42.882680448482986" lon="9.476430299074174"><ele>9.5</ele><time>2026-05-01T07:00:38.999Z</time></trkpt><trkpt lat="42.88280709623426" lon="9.476324088221954"><ele>9.75</ele><time>2026-05-01T07:00:39.999Z</time></trkpt><trkpt lat="42.88293071422336" lon="9.47624107579827"><ele>10.0</ele><time>2026-05-01T07:00:40.999Z</time></trkpt><trkpt lat="42.88305541799205" lon="9.476172977976011"><ele>10.0</ele><time>2026-05-01T07:00:41.999Z</time></trkpt><trkpt lat="42.88316863102014" lon="9.476117846715933"><ele>10.0</ele><time>2026-05-01T07:00:42.999Z</time></trkpt><trkpt lat="42.88326703855364" lon="9.476071559186119"><ele>10.0</ele><time>2026-05-01T07:00:43.999Z</time></trkpt><trkpt lat="42.8833606498232" lon="9.476028321694079"><ele>10.0</ele><time>2026-05-01T07:00:44.999Z</time></trkpt><trkpt lat="42.883444129462205" lon="9.475982605677142"><ele>10.0</ele><time>2026-05-01T07:00:45.999Z</time></trkpt><trkpt lat="42.88351925557494" lon="9.475938281127526"><ele>1.0</ele><time>2026-05-01T07:00:46.999Z</time></trkpt><trkpt lat="42.8835909444113" lon="9.475905744130058"><ele>1.0</ele><time>2026-05-01T07:00:47.999Z</time></trkpt><trkpt lat="42.88367649757541" lon="9.475874025506934"><ele>1.0</ele><time>2026-05-01T07:00:49Z</time></trkpt><trkpt lat="42.883754036017464" lon="9.475850017045667"><ele>1.0</ele><time>2026-05-01T07:00:50Z</time></trkpt><trkpt lat="42.883857481012654" lon="9.475820523640818"><ele>1.0</ele><time>2026-05-01T07:00:52Z</time></trkpt><trkpt lat="42.88392180433146" lon="9.475765145015325"><ele>1.0</ele><time>2026-05-01T07:00:56Z</time></trkpt></trkseg><trkseg><trkpt lat="42.87028998155209" lon="9.477818802297316"><ele>12.0</ele><time>2026-05-01T07:22:14Z</time></trkpt><trkpt lat="42.87027874124296" lon="9.477731980723268"><ele>12.0</ele><time>2026-05-01T07:23:46.999Z</time></trkpt><trkpt lat="42.8703107030305" lon="9.477656795093788"><ele>12.0</ele><time>2026-05-01T07:23:49.999Z</time></trkpt><trkpt lat="42.870297800562895" lon="9.477548245547872"><ele>12.0</ele><time>2026-05-01T07:24:18.998Z</time></trkpt><trkpt lat="42.8702966690945" lon="9.477399282168278"><ele>12.0</ele><time>2026-05-01T07:24:21Z</time></trkpt><trkpt lat="42.87029912137093" lon="9.47729578494379"><ele>12.0</ele><time>2026-05-01T07:24:22Z</time></trkpt><trkpt lat="42.87030004726891" lon="9.477183279233556"><ele>14.333333333333332</ele><time>2026-05-01T07:24:23Z</time></trkpt><trkpt lat="42.870307629176914" lon="9.477064474844768"><ele>16.666666666666664</ele><time>2026-05-01T07:24:24Z</time></trkpt><trkpt lat="42.87032299767873" lon="9.476957828735502"><ele>19.0</ele><time>2026-05-01T07:24:25Z</time></trkpt><trkpt lat="42.87033242364273" lon="9.476836053736788"><ele>21.333333333333332</ele><time>2026-05-01T07:24:26Z</time></trkpt><trkpt lat="42.870343022594156" lon="9.476713840399487"><ele>23.666666666666664</ele><time>2026-05-01T07:24:27Z</time></trkpt><trkpt lat="42.8703769945769" lon="9.47659773006421"><ele>26.0</ele><time>2026-05-01T07:24:28Z</time></trkpt><trkpt lat="42.87042110132315" lon="9.476504476573234"><ele>26.0</ele><time>2026-05-01T07:24:29Z</time></trkpt><trkpt lat="42.87049607205317" lon="9.476476521859402"><ele>26.0</ele><time>2026-05-01T07:24:30Z</time></trkpt><trkpt lat="42.8705775460887" lon="9.476457420891082"><ele>26.0</ele><time>2026-05-01T07:24:31Z</time></trkpt><trkpt lat="42.87063189321373" lon="9.476565262636711"><ele>26.0</ele><time>2026-05-01T07:24:32Z</time></trkpt><trkpt lat="42.87064724374802" lon="9.476701009905772"><ele>26.0</ele><time>2026-05-01T07:24:33Z</time></trkpt><trkpt lat="42.87066947639724" lon="9.476859700319489"><ele>26.0</ele><time>2026-05-01T07:24:34Z</time></trkpt><trkpt lat="42.87070532364633" lon="9.477026809339483"><ele>26.0</ele><time>2026-05-01T07:24:35Z</time></trkpt><trkpt lat="42.870779541802264" lon="9.477171920872708"><ele>26.0</ele><time>2026-05-01T07:24:36Z</time></trkpt><trkpt lat="42.87085646395575" lon="9.477304115564854"><ele>26.0</ele><time>2026-05-01T07:24:37Z</time></trkpt><trkpt lat="42.87095623294431" lon="9.477402852006978"><ele>25.0</ele><time>2026-05-01T07:24:38Z</time></trkpt><trkpt lat="42.87107292265291" lon="9.477506461570725"><ele>24.0</ele><time>2026-05-01T07:24:39Z</time></trkpt><trkpt lat="42.87118014912432" lon="9.477603051596953"><ele>23.0</ele><time>2026-05-01T07:24:40Z</time></trkpt><trkpt lat="42.87129349152007" lon="9.477688478324932"><ele>22.0</ele><time>2026-05-01T07:24:41Z</time></trkpt><trkpt lat="42.87141561669544" lon="9.477744216072796"><ele>22.0</ele><time>2026-05-01T07:24:42Z</time></trkpt><trkpt lat="42.871541123777256" lon="9.477779284691607"><ele>22.0</ele><time>2026-05-01T07:24:43Z</time></trkpt><trkpt lat="42.87165080311699" lon="9.47780971076867"><ele>22.0</ele><time>2026-05-01T07:24:44Z</time></trkpt><trkpt lat="42.87174467616163" lon="9.477777452089878"><ele>22.0</ele><time>2026-05-01T07:24:45Z</time></trkpt><trkpt lat="42.87180393732847" lon="9.477677902858531"><ele>22.0</ele><time>2026-05-01T07:24:46Z</time></trkpt><trkpt lat="42.871876857609855" lon="9.47750521747459"><ele>19.25</ele><time>2026-05-01T07:24:47Z</time></trkpt><trkpt lat="42.87194797791556" lon="9.477364608858165"><ele>16.5</ele><time>2026-05-01T07:24:48Z</time></trkpt><trkpt lat="42.87201933480006" lon="9.477221138537502"><ele>13.75</ele><time>2026-05-01T07:24:49Z</time></trkpt><trkpt lat="42.87208833719379" lon="9.477077891539329"><ele>11.0</ele><time>2026-05-01T07:24:50Z</time></trkpt><trkpt lat="42.87215031194244" lon="9.47692536172295"><ele>11.0</ele><time>2026-05-01T07:24:51Z</time></trkpt><trkpt lat="42.87220413328992" lon="9.4767659347142"><ele>11.0</ele><time>2026-05-01T07:24:52Z</time></trkpt><trkpt lat="42.87225706356841" lon="9.476572817140175"><ele>11.0</ele><time>2026-05-01T07:24:53Z</time></trkpt><trkpt lat="42.87232518649315" lon="9.476327936958079"><ele>13.666666666666666</ele><time>2026-05-01T07:24:54Z</time></trkpt><trkpt lat="42.87240566956398" lon="9.476058642582629"><ele>16.333333333333332</ele><time>2026-05-01T07:24:55Z</time></trkpt><trkpt lat="42.87247850106607" lon="9.475801057781764"><ele>19.0</ele><time>2026-05-01T07:24:56Z</time></trkpt><trkpt lat="42.872542351117076" lon="9.475567508399223"><ele>22.666666666666664</ele><time>2026-05-01T07:24:57Z</time></trkpt><trkpt lat="42.872601772153516" lon="9.47535268389199"><ele>26.333333333333332</ele><time>2026-05-01T07:24:58Z</time></trkpt><trkpt lat="42.87267320783633" lon="9.47514703453398"><ele>30.0</ele><time>2026-05-01T07:24:59Z</time></trkpt><trkpt lat="42.87275376476175" lon="9.474986622492208"><ele>27.0</ele><time>2026-05-01T07:25:00Z</time></trkpt><trkpt lat="42.87284592088066" lon="9.474852687557789"><ele>24.0</ele><time>2026-05-01T07:25:01Z</time></trkpt><trkpt lat="42.87290174486023" lon="9.474743043741372"><ele>21.0</ele><time>2026-05-01T07:25:01.999Z</time></trkpt><trkpt lat="42.87297152353428" lon="9.474650818757521"><ele>18.0</ele><time>2026-05-01T07:25:02.999Z</time></trkpt><trkpt lat="42.87302781390563" lon="9.47453415825696"><ele>15.0</ele><time>2026-05-01T07:25:03.999Z</time></trkpt><trkpt lat="42.87308870694777" lon="9.474423451211383"><ele>15.0</ele><time>2026-05-01T07:25:04.999Z</time></trkpt><trkpt lat="42.87316361745198" lon="9.474302355682477"><ele>15.0</ele><time>2026-05-01T07:25:05.999Z</time></trkpt><trkpt lat="42.87324803616259" lon="9.474195606075805"><ele>15.0</ele><time>2026-05-01T07:25:06.999Z</time></trkpt><trkpt lat="42.87332565805447" lon="9.474081132399416"><ele>15.0</ele><time>2026-05-01T07:25:07.999Z</time></trkpt><trkpt lat="42.87339968486927" lon="9.47396876245466"><ele>13.0</ele><time>2026-05-01T07:25:08.999Z</time></trkpt><trkpt lat="42.873444295702946" lon="9.473843127063473"><ele>11.0</ele><time>2026-05-01T07:25:09.999Z</time></trkpt><trkpt lat="42.87350323438812" lon="9.473734657397916"><ele>9.0</ele><time>2026-05-01T07:25:10.999Z</time></trkpt><trkpt lat="42.87355033679734" lon="9.473620408307331"><ele>7.0</ele><time>2026-05-01T07:25:11.999Z</time></trkpt><trkpt lat="42.87360728031402" lon="9.473521111872513"><ele>5.0</ele><time>2026-05-01T07:25:12.999Z</time></trkpt><trkpt lat="42.87368289450969" lon="9.473452435471785"><ele>5.0</ele><time>2026-05-01T07:25:13.999Z</time></trkpt><trkpt lat="42.87375910901617" lon="9.473384847946704"><ele>5.0</ele><time>2026-05-01T07:25:14.999Z</time></trkpt><trkpt lat="42.87389285513613" lon="9.473269047953385"><ele>5.0</ele><time>2026-05-01T07:25:16.999Z</time></trkpt><trkpt lat="42.873975654638954" lon="9.47318105559397"><ele>5.0</ele><time>2026-05-01T07:25:17.999Z</time></trkpt><trkpt lat="42.87401635188439" lon="9.473077751430747"><ele>5.0</ele><time>2026-05-01T07:25:18.999Z</time></trkpt><trkpt lat="42.874052235676814" lon="9.47296354395229"><ele>4.5</ele><time>2026-05-01T07:25:19.999Z</time></trkpt><trkpt lat="42.87412850809731" lon="9.472899336798848"><ele>4.0</ele><time>2026-05-01T07:25:20.999Z</time></trkpt><trkpt lat="42.8742113479093" lon="9.47285312207429"><ele>3.5</ele><time>2026-05-01T07:25:21.999Z</time></trkpt><trkpt lat="42.87429756461811" lon="9.472833010665775"><ele>3.0</ele><time>2026-05-01T07:25:22.999Z</time></trkpt><trkpt lat="42.87437459484211" lon="9.472785598084451"><ele>2.5</ele><time>2026-05-01T07:25:23.999Z</time></trkpt><trkpt lat="42.87444620010962" lon="9.472746930630814"><ele>2.0</ele><time>2026-05-01T07:25:24.999Z</time></trkpt><trkpt lat="42.87455749066068" lon="9.472578360147189"><ele>2.0</ele><time>2026-05-01T07:25:26.999Z</time></trkpt><trkpt lat="42.87460137126699" lon="9.472413157597321"><ele>2.0</ele><time>2026-05-01T07:25:27.999Z</time></trkpt><trkpt lat="42.87462165814369" lon="9.472281450195922"><ele>2.0</ele><time>2026-05-01T07:25:28.999Z</time></trkpt><trkpt lat="42.87465073217914" lon="9.472152912717322"><ele>2.0</ele><time>2026-05-01T07:25:29.999Z</time></trkpt><trkpt lat="42.87468411924416" lon="9.472058755957063"><ele>2.0</ele><time>2026-05-01T07:25:30.999Z</time></trkpt><trkpt lat="42.87473480730425" lon="9.471993894477329"><ele>1.9999999999999998</ele><time>2026-05-01T07:25:31.999Z</time></trkpt><trkpt lat="42.87478978016085" lon="9.47194162423086"><ele>2.0</ele><time>2026-05-01T07:25:32.999Z</time></trkpt><trkpt lat="42.87485157453681" lon="9.471904317171163"><ele>2.0</ele><time>2026-05-01T07:25:33.999Z</time></trkpt><trkpt lat="42.87492806083649" lon="9.47187990067162"><ele>2.0</ele><time>2026-05-01T07:25:34.999Z</time></trkpt><trkpt lat="42.875008428412364" lon="9.47188265081388"><ele>1.9999999999999998</ele><time>2026-05-01T07:25:35.999Z</time></trkpt><trkpt lat="42.8750956053807" lon="9.471904455118956"><ele>2.0</ele><time>2026-05-01T07:25:36.999Z</time></trkpt><trkpt lat="42.875196787696" lon="9.471938431707656"><ele>2.0</ele><time>2026-05-01T07:25:37.999Z</time></trkpt><trkpt lat="42.87530753008532" lon="9.471981482823733"><ele>2.0</ele><time>2026-05-01T07:25:38.999Z</time></trkpt><trkpt lat="42.875417626626955" lon="9.472027652126076"><ele>2.0</ele><time>2026-05-01T07:25:39.999Z</time></trkpt><trkpt lat="42.87556750562143" lon="9.472093000533548"><ele>2.0</ele><time>2026-05-01T07:25:40.999Z</time></trkpt><trkpt lat="42.875729851515686" lon="9.472162974814102"><ele>2.0</ele><time>2026-05-01T07:25:41.999Z</time></trkpt><trkpt lat="42.8758810738174" lon="9.472226582956983"><ele>2.0</ele><time>2026-05-01T07:25:42.999Z</time></trkpt><trkpt lat="42.8760384111551" lon="9.472293805548759"><ele>2.0</ele><time>2026-05-01T07:25:43.999Z</time></trkpt><trkpt lat="42.87620699146318" lon="9.472361833753713"><ele>1.6666666666666665</ele><time>2026-05-01T07:25:44.999Z</time></trkpt><trkpt lat="42.876379801295975" lon="9.4724079854722"><ele>1.3333333333333333</ele><time>2026-05-01T07:25:45.999Z</time></trkpt><trkpt lat="42.87655211876344" lon="9.472501105074349"><ele>1.0</ele><time>2026-05-01T07:25:46.999Z</time></trkpt><trkpt lat="42.8767202995867" lon="9.472570550171161"><ele>0.6666666666666666</ele><time>2026-05-01T07:25:47.999Z</time></trkpt><trkpt lat="42.87690759543913" lon="9.472645520681674"><ele>0.3333333333333333</ele><time>2026-05-01T07:25:48.999Z</time></trkpt><trkpt lat="42.877093367073655" lon="9.472697020979924"><ele>0.0</ele><time>2026-05-01T07:25:49.999Z</time></trkpt><trkpt lat="42.87726734164003" lon="9.472785694247907"><ele>0.0</ele><time>2026-05-01T07:25:50.999Z</time></trkpt><trkpt lat="42.87744925357108" lon="9.472844952370464"><ele>0.0</ele><time>2026-05-01T07:25:51.999Z</time></trkpt><trkpt lat="42.877622436820126" lon="9.472911127275903"><ele>0.0</ele><time>2026-05-01T07:25:52.999Z</time></trkpt><trkpt lat="42.877781720154836" lon="9.472982585970728"><ele>2.6666666666666665</ele><time>2026-05-01T07:25:53.999Z</time></trkpt><trkpt lat="42.877940209507024" lon="9.47304265571881"><ele>5.333333333333333</ele><time>2026-05-01T07:25:54.999Z</time></trkpt><trkpt lat="42.87808523369864" lon="9.473119275911717"><ele>8.0</ele><time>2026-05-01T07:25:55.998Z</time></trkpt><trkpt lat="42.878203829531586" lon="9.473228262252205"><ele>8.0</ele><time>2026-05-01T07:25:56.998Z</time></trkpt><trkpt lat="42.878283780273556" lon="9.473376699843335"><ele>8.0</ele><time>2026-05-01T07:25:57.998Z</time></trkpt><trkpt lat="42.878330522737414" lon="9.473562428496514"><ele>8.0</ele><time>2026-05-01T07:25:58.998Z</time></trkpt><trkpt lat="42.87834455142771" lon="9.473770464468187"><ele>8.0</ele><time>2026-05-01T07:25:59.998Z</time></trkpt><trkpt lat="42.878314431915584" lon="9.473988831643497"><ele>9.666666666666666</ele><time>2026-05-01T07:26:00.998Z</time></trkpt><trkpt lat="42.87821632071516" lon="9.474170307605792"><ele>11.333333333333332</ele><time>2026-05-01T07:26:01.998Z</time></trkpt><trkpt lat="42.87815343348432" lon="9.474375178950002"><ele>13.0</ele><time>2026-05-01T07:26:02.998Z</time></trkpt><trkpt lat="42.87809629811238" lon="9.474592494679342"><ele>14.0</ele><time>2026-05-01T07:26:03.998Z</time></trkpt><trkpt lat="42.87806344840105" lon="9.474819970766656"><ele>15.0</ele><time>2026-05-01T07:26:04.998Z</time></trkpt><trkpt lat="42.878017157498306" lon="9.475039460209887"><ele>16.0</ele><time>2026-05-01T07:26:05.998Z</time></trkpt><trkpt lat="42.87797670563707" lon="9.475269232078459"><ele>15.0</ele><time>2026-05-01T07:26:06.998Z</time></trkpt><trkpt lat="42.877986258490395" lon="9.475488075975898"><ele>14.0</ele><time>2026-05-01T07:26:07.998Z</time></trkpt><trkpt lat="42.87806957337703" lon="9.475706083549442"><ele>13.0</ele><time>2026-05-01T07:26:08.998Z</time></trkpt><trkpt lat="42.87817509604944" lon="9.475876332121045"><ele>13.0</ele><time>2026-05-01T07:26:09.998Z</time></trkpt><trkpt lat="42.878323761608904" lon="9.47599383954192"><ele>13.0</ele><time>2026-05-01T07:26:10.998Z</time></trkpt><trkpt lat="42.878434872997666" lon="9.476157818925598"><ele>13.0</ele><time>2026-05-01T07:26:11.998Z</time></trkpt><trkpt lat="42.878492695784225" lon="9.47636250937542"><ele>16.0</ele><time>2026-05-01T07:26:12.998Z</time></trkpt><trkpt lat="42.87852001821971" lon="9.47660403024108"><ele>19.0</ele><time>2026-05-01T07:26:13.998Z</time></trkpt><trkpt lat="42.87858627713278" lon="9.476847099194815"><ele>22.0</ele><time>2026-05-01T07:26:14.998Z</time></trkpt><trkpt lat="42.87868103366081" lon="9.477066354904883"><ele>17.666666666666664</ele><time>2026-05-01T07:26:15.998Z</time></trkpt><trkpt lat="42.87882525455312" lon="9.477221259533742"><ele>13.333333333333332</ele><time>2026-05-01T07:26:16.998Z</time></trkpt><trkpt lat="42.87898741814531" lon="9.477299091910416"><ele>9.0</ele><time>2026-05-01T07:26:17.998Z</time></trkpt><trkpt lat="42.87908239423561" lon="9.477437389071541"><ele>9.0</ele><time>2026-05-01T07:26:18.998Z</time></trkpt><trkpt lat="42.87920566816331" lon="9.477612333559737"><ele>9.0</ele><time>2026-05-01T07:26:19.998Z</time></trkpt><trkpt lat="42.87933997315216" lon="9.47769833992232"><ele>9.0</ele><time>2026-05-01T07:26:20.998Z</time></trkpt><trkpt lat="42.87949847638433" lon="9.477700657518314"><ele>9.333333333333334</ele><time>2026-05-01T07:26:21.998Z</time></trkpt><trkpt lat="42.87967357980464" lon="9.477641197761844"><ele>9.666666666666668</ele><time>2026-05-01T07:26:22.998Z</time></trkpt><trkpt lat="42.87985712584462" lon="9.477536934604638"><ele>10.0</ele><time>2026-05-01T07:26:23.998Z</time></trkpt><trkpt lat="42.88005120366137" lon="9.477458770793776"><ele>9.333333333333334</ele><time>2026-05-01T07:26:24.998Z</time></trkpt><trkpt lat="42.88023905237443" lon="9.477411198100649"><ele>8.666666666666666</ele><time>2026-05-01T07:26:25.999Z</time></trkpt><trkpt lat="42.880431219540704" lon="9.477428803471344"><ele>8.0</ele><time>2026-05-01T07:26:26.999Z</time></trkpt><trkpt lat="42.880632322082676" lon="9.477492206746291"><ele>8.0</ele><time>2026-05-01T07:26:27.999Z</time></trkpt><trkpt lat="42.88081034501522" lon="9.477545066540891"><ele>8.0</ele><time>2026-05-01T07:26:28.999Z</time></trkpt><trkpt lat="42.88097480301565" lon="9.477533450927954"><ele>8.0</ele><time>2026-05-01T07:26:29.999Z</time></trkpt><trkpt lat="42.88114469756625" lon="9.477426334070827"><ele>6.666666666666666</ele><time>2026-05-01T07:26:30.999Z</time></trkpt><trkpt lat="42.88133059533486" lon="9.477305362487927"><ele>5.333333333333333</ele><time>2026-05-01T07:26:31.999Z</time></trkpt><trkpt lat="42.881535330695684" lon="9.477229991743133"><ele>4.0</ele><time>2026-05-01T07:26:32.999Z</time></trkpt><trkpt lat="42.88174021867945" lon="9.477209494567205"><ele>3.0</ele><time>2026-05-01T07:26:33.999Z</time></trkpt><trkpt lat="42.88192558042261" lon="9.47716594519149"><ele>2.0</ele><time>2026-05-01T07:26:34.999Z</time></trkpt><trkpt lat="42.8820949079503" lon="9.477032758133369"><ele>1.0</ele><time>2026-05-01T07:26:35.999Z</time></trkpt><trkpt lat="42.88226353928188" lon="9.476847048162924"><ele>1.0</ele><time>2026-05-01T07:26:36.999Z</time></trkpt><trkpt lat="42.88243924827392" lon="9.47667194295345"><ele>1.0</ele><time>2026-05-01T07:26:37.999Z</time></trkpt><trkpt lat="42.88262752035952" lon="9.476505875784273"><ele>1.0</ele><time>2026-05-01T07:26:38.999Z</time></trkpt><trkpt lat="42.88282046145878" lon="9.476341261245924"><ele>4.0</ele><time>2026-05-01T07:26:39.999Z</time></trkpt><trkpt lat="42.88301064307299" lon="9.476201906590738"><ele>7.0</ele><time>2026-05-01T07:26:40.999Z</time></trkpt><trkpt lat="42.88319611796019" lon="9.476102948435198"><ele>10.0</ele><time>2026-05-01T07:26:41.999Z</time></trkpt><trkpt lat="42.883366188713616" lon="9.476022022743484"><ele>7.75</ele><time>2026-05-01T07:26:42.999Z</time></trkpt><trkpt lat="42.88352200836172" lon="9.47593663150611"><ele>5.5</ele><time>2026-05-01T07:26:43.999Z</time></trkpt><trkpt lat="42.88366824820344" lon="9.475852196134564"><ele>3.25</ele><time>2026-05-01T07:26:44.999Z</time></trkpt><trkpt lat="42.88377116434024" lon="9.475815094519168"><ele>1.0</ele><time>2026-05-01T07:26:45.999Z</time></trkpt><trkpt lat="42.88393006181989" lon="9.475662853864238"><ele>1.0</ele><time>2026-05-01T07:26:46.999Z</time></trkpt><trkpt lat="42.884037676486514" lon="9.47548936871608"><ele>1.0</ele><time>2026-05-01T07:26:47.999Z</time></trkpt><trkpt lat="42.88416085276812" lon="9.475314613062494"><ele>1.0</ele><time>2026-05-01T07:26:48.999Z</time></trkpt><trkpt lat="42.88427804872012" lon="9.475123393998699"><ele>1.0</ele><time>2026-05-01T07:26:49.999Z</time></trkpt><trkpt lat="42.8844269884934" lon="9.474982162534012"><ele>1.0</ele><time>2026-05-01T07:26:50.999Z</time></trkpt><trkpt lat="42.88458442272432" lon="9.474858551130765"><ele>1.0</ele><time>2026-05-01T07:26:51.999Z</time></trkpt><trkpt lat="42.88473717928093" lon="9.47472348280431"><ele>1.0</ele><time>2026-05-01T07:26:52.999Z</time></trkpt><trkpt lat="42.88488926787056" lon="9.474622267896804"><ele>1.0</ele><time>2026-05-01T07:26:53.999Z</time></trkpt><trkpt lat="42.88501136128867" lon="9.474478491845481"><ele>1.0</ele><time>2026-05-01T07:26:54.999Z</time></trkpt><trkpt lat="42.885119272033734" lon="9.47434803603802"><ele>0.6666666666666666</ele><time>2026-05-01T07:26:55.999Z</time></trkpt><trkpt lat="42.885186026323616" lon="9.474162908741546"><ele>0.3333333333333333</ele><time>2026-05-01T07:26:56.999Z</time></trkpt><trkpt lat="42.885226175822076" lon="9.473962665689507"><ele>0.0</ele><time>2026-05-01T07:26:57.999Z</time></trkpt><trkpt lat="42.88526144265151" lon="9.473766563349557"><ele>0.5</ele><time>2026-05-01T07:26:58.999Z</time></trkpt><trkpt lat="42.8853188905464" lon="9.47360274730971"><ele>1.0</ele><time>2026-05-01T07:26:59.999Z</time></trkpt><trkpt lat="42.88539906492278" lon="9.473466817634158"><ele>1.5</ele><time>2026-05-01T07:27:00.999Z</time></trkpt><trkpt lat="42.88550095052823" lon="9.473374550772363"><ele>2.0</ele><time>2026-05-01T07:27:01.999Z</time></trkpt><trkpt lat="42.885627512333954" lon="9.473390307016317"><ele>2.0</ele><time>2026-05-01T07:27:02.999Z</time></trkpt><trkpt lat="42.885741115679984" lon="9.473364580244446"><ele>2.0</ele><time>2026-05-01T07:27:03.999Z</time></trkpt><trkpt lat="42.885846009573804" lon="9.47334076119405"><ele>2.0</ele><time>2026-05-01T07:27:04.999Z</time></trkpt><trkpt lat="42.88594588789606" lon="9.473312463130375"><ele>2.0</ele><time>2026-05-01T07:27:05.999Z</time></trkpt><trkpt lat="42.886054227813936" lon="9.473276986038833"><ele>2.0</ele><time>2026-05-01T07:27:06.999Z</time></trkpt><trkpt lat="42.88616661802578" lon="9.473252995639731"><ele>2.2</ele><time>2026-05-01T07:27:07.999Z</time></trkpt><trkpt lat="42.886276994025586" lon="9.473227517853017"><ele>2.4000000000000004</ele><time>2026-05-01T07:27:08.999Z</time></trkpt><trkpt lat="42.88638537261688" lon="9.47320698540818"><ele>2.5999999999999996</ele><time>2026-05-01T07:27:09.999Z</time></trkpt><trkpt lat="42.88649666057341" lon="9.473185485605713"><ele>2.8</ele><time>2026-05-01T07:27:10.999Z</time></trkpt><trkpt lat="42.88660813134382" lon="9.473164586328595"><ele>3.0</ele><time>2026-05-01T07:27:11.999Z</time></trkpt><trkpt lat="42.886717650499946" lon="9.473146470025666"><ele>3.0</ele><time>2026-05-01T07:27:12.999Z</time></trkpt><trkpt lat="42.88682931539795" lon="9.473131317777678"><ele>3.0</ele><time>2026-05-01T07:27:13.999Z</time></trkpt><trkpt lat="42.88693561600584" lon="9.473124498056531"><ele>3.0</ele><time>2026-05-01T07:27:14.999Z</time></trkpt><trkpt lat="42.88704100868395" lon="9.473132554697585"><ele>3.0</ele><time>2026-05-01T07:27:15.999Z</time></trkpt><trkpt lat="42.887138789058135" lon="9.473143011533548"><ele>3.0</ele><time>2026-05-01T07:27:16.999Z</time></trkpt><trkpt lat="42.887236212877546" lon="9.473157216063235"><ele>3.0</ele><time>2026-05-01T07:27:17.999Z</time></trkpt><trkpt lat="42.887329868449825" lon="9.473170759791023"><ele>3.0</ele><time>2026-05-01T07:27:18.999Z</time></trkpt><trkpt lat="42.88742415187536" lon="9.473191348847408"><ele>3.0</ele><time>2026-05-01T07:27:19.999Z</time></trkpt><trkpt lat="42.887515270219474" lon="9.473201732836461"><ele>3.0</ele><time>2026-05-01T07:27:20.999Z</time></trkpt><trkpt lat="42.88761302849998" lon="9.473216985738189"><ele>3.0</ele><time>2026-05-01T07:27:21.999Z</time></trkpt><trkpt lat="42.88771790230953" lon="9.47323123994112"><ele>3.2</ele><time>2026-05-01T07:27:22.999Z</time></trkpt><trkpt lat="42.88781858945879" lon="9.473246192733264"><ele>3.4</ele><time>2026-05-01T07:27:23.999Z</time></trkpt><trkpt lat="42.88792107829507" lon="9.473263955734698"><ele>3.6000000000000005</ele><time>2026-05-01T07:27:24.999Z</time></trkpt><trkpt lat="42.8880233994345" lon="9.47328237999712"><ele>3.8000000000000003</ele><time>2026-05-01T07:27:25.999Z</time></trkpt><trkpt lat="42.8881215655937" lon="9.473296743802292"><ele>4.0</ele><time>2026-05-01T07:27:26.999Z</time></trkpt><trkpt lat="42.88822437459397" lon="9.473306280593276"><ele>4.0</ele><time>2026-05-01T07:27:27.999Z</time></trkpt><trkpt lat="42.888322708182436" lon="9.473317275161147"><ele>4.0</ele><time>2026-05-01T07:27:28.999Z</time></trkpt><trkpt lat="42.88842395437546" lon="9.473343289857356"><ele>4.0</ele><time>2026-05-01T07:27:29.999Z</time></trkpt><trkpt lat="42.888533508333744" lon="9.473349085364958"><ele>4.0</ele><time>2026-05-01T07:27:30.999Z</time></trkpt><trkpt lat="42.888638240171524" lon="9.473352071177858"><ele>4.0</ele><time>2026-05-01T07:27:31.999Z</time></trkpt><trkpt lat="42.88874473059284" lon="9.473369301230296"><ele>4.0</ele><time>2026-05-01T07:27:32.999Z</time></trkpt><trkpt lat="42.888858854472915" lon="9.47339304805245"><ele>4.0</ele><time>2026-05-01T07:27:33.999Z</time></trkpt><trkpt lat="42.88896413412601" lon="9.473400760264223"><ele>4.0</ele><time>2026-05-01T07:27:34.999Z</time></trkpt><trkpt lat="42.889071091638954" lon="9.473415257209558"><ele>4.0</ele><time>2026-05-01T07:27:35.999Z</time></trkpt><trkpt lat="42.88918462651798" lon="9.473426500046552"><ele>4.0</ele><time>2026-05-01T07:27:36.999Z</time></trkpt><trkpt lat="42.88928406625107" lon="9.473440906951636"><ele>4.0</ele><time>2026-05-01T07:27:37.999Z</time></trkpt><trkpt lat="42.88940808315824" lon="9.473450124869398"><ele>4.0</ele><time>2026-05-01T07:27:38.999Z</time></trkpt><trkpt lat="42.88952038147549" lon="9.473465490869707"><ele>4.0</ele><time>2026-05-01T07:27:39.999Z</time></trkpt><trkpt lat="42.88964221864937" lon="9.473498504765455"><ele>4.0</ele><time>2026-05-01T07:27:40.999Z</time></trkpt><trkpt lat="42.88976431091876" lon="9.473516965585281"><ele>4.0</ele><time>2026-05-01T07:27:41.999Z</time></trkpt><trkpt lat="42.88989326866003" lon="9.473528166703039"><ele>4.0</ele><time>2026-05-01T07:27:42.999Z</time></trkpt><trkpt lat="42.89002181898247" lon="9.473569631587823"><ele>4.0</ele><time>2026-05-01T07:27:43.999Z</time></trkpt><trkpt lat="42.89014737668737" lon="9.473612152524172"><ele>4.0</ele><time>2026-05-01T07:27:44.999Z</time></trkpt><trkpt lat="42.89028898669744" lon="9.473638090435234"><ele>5.75</ele><time>2026-05-01T07:27:45.999Z</time></trkpt><trkpt lat="42.890423593616205" lon="9.473669134936971"><ele>7.5</ele><time>2026-05-01T07:27:46.999Z</time></trkpt><trkpt lat="42.89055684815789" lon="9.4737005015859"><ele>9.25</ele><time>2026-05-01T07:27:47.999Z</time></trkpt><trkpt lat="42.890695211794686" lon="9.47373145869785"><ele>11.0</ele><time>2026-05-01T07:27:48.999Z</time></trkpt><trkpt lat="42.89083621257203" lon="9.473768147015056"><ele>9.5</ele><time>2026-05-01T07:27:49.999Z</time></trkpt><trkpt lat="42.890984123576935" lon="9.473807466859725"><ele>8.0</ele><time>2026-05-01T07:27:50.998Z</time></trkpt><trkpt lat="42.89113423377442" lon="9.473835772788892"><ele>6.5</ele><time>2026-05-01T07:27:51.998Z</time></trkpt><trkpt lat="42.891278915274924" lon="9.473858834491418"><ele>5.0</ele><time>2026-05-01T07:27:52.998Z</time></trkpt><trkpt lat="42.891429281457945" lon="9.473892434455253"><ele>5.0</ele><time>2026-05-01T07:27:53.998Z</time></trkpt><trkpt lat="42.891574784754425" lon="9.473912103143391"><ele>5.0</ele><time>2026-05-01T07:27:54.998Z</time></trkpt><trkpt lat="42.891720409427776" lon="9.47393330313635"><ele>5.0</ele><time>2026-05-01T07:27:55.998Z</time></trkpt><trkpt lat="42.891864943361234" lon="9.473951507078226"><ele>5.0</ele><time>2026-05-01T07:27:56.998Z</time></trkpt><trkpt lat="42.892013119453715" lon="9.473969336550287"><ele>5.666666666666667</ele><time>2026-05-01T07:27:57.998Z</time></trkpt><trkpt lat="42.892163607967575" lon="9.473997173220532"><ele>6.333333333333334</ele><time>2026-05-01T07:27:58.998Z</time></trkpt><trkpt lat="42.89231044535171" lon="9.474050338356518"><ele>7.0</ele><time>2026-05-01T07:27:59.998Z</time></trkpt><trkpt lat="42.89245709425078" lon="9.474107142161383"><ele>7.0</ele><time>2026-05-01T07:28:00.998Z</time></trkpt><trkpt lat="42.89260896050627" lon="9.474147856079634"><ele>7.0</ele><time>2026-05-01T07:28:01.998Z</time></trkpt><trkpt lat="42.89276560294624" lon="9.474166880096398"><ele>7.0</ele><time>2026-05-01T07:28:02.998Z</time></trkpt><trkpt lat="42.89291880219728" lon="9.474147857569033"><ele>7.0</ele><time>2026-05-01T07:28:03.998Z</time></trkpt><trkpt lat="42.89306541903661" lon="9.474105968024592"><ele>7.0</ele><time>2026-05-01T07:28:04.998Z</time></trkpt><trkpt lat="42.89320103618094" lon="9.47404107341331"><ele>7.0</ele><time>2026-05-01T07:28:05.998Z</time></trkpt><trkpt lat="42.89333200882568" lon="9.473967244632513"><ele>7.0</ele><time>2026-05-01T07:28:06.998Z</time></trkpt><trkpt lat="42.89346387787521" lon="9.473892485078913"><ele>8.0</ele><time>2026-05-01T07:28:07.998Z</time></trkpt><trkpt lat="42.89359102601041" lon="9.473803196576267"><ele>9.0</ele><time>2026-05-01T07:28:08.998Z</time></trkpt><trkpt lat="42.89371981174559" lon="9.473711867359135"><ele>10.0</ele><time>2026-05-01T07:28:09.998Z</time></trkpt><trkpt lat="42.89384827335775" lon="9.473624181906214"><ele>11.0</ele><time>2026-05-01T07:28:10.998Z</time></trkpt><trkpt lat="42.89397672904005" lon="9.473536420435096"><ele>11.0</ele><time>2026-05-01T07:28:11.998Z</time></trkpt><trkpt lat="42.894104396595544" lon="9.473447679322618"><ele>11.0</ele><time>2026-05-01T07:28:12.998Z</time></trkpt><trkpt lat="42.89423124330902" lon="9.473356428227456"><ele>11.0</ele><time>2026-05-01T07:28:13.998Z</time></trkpt><trkpt lat="42.894359754528914" lon="9.473267006427536"><ele>11.0</ele><time>2026-05-01T07:28:14.998Z</time></trkpt><trkpt lat="42.89448686367538" lon="9.473180824585013"><ele>9.5</ele><time>2026-05-01T07:28:15.998Z</time></trkpt><trkpt lat="42.89461307079151" lon="9.473094951585491"><ele>8.0</ele><time>2026-05-01T07:28:16.998Z</time></trkpt><trkpt lat="42.894738997948764" lon="9.473011958106602"><ele>6.5</ele><time>2026-05-01T07:28:17.998Z</time></trkpt><trkpt lat="42.894863708101674" lon="9.472926697829886"><ele>5.0</ele><time>2026-05-01T07:28:18.998Z</time></trkpt><trkpt lat="42.89498536943568" lon="9.472834663729587"><ele>7.5</ele><time>2026-05-01T07:28:19.998Z</time></trkpt><trkpt lat="42.8951079334489" lon="9.472745270914182"><ele>10.0</ele><time>2026-05-01T07:28:20.998Z</time></trkpt><trkpt lat="42.89523796599872" lon="9.472676697986346"><ele>12.5</ele><time>2026-05-01T07:28:21.998Z</time></trkpt><trkpt lat="42.89537381440139" lon="9.472628134246378"><ele>15.0</ele><time>2026-05-01T07:28:22.998Z</time></trkpt><trkpt lat="42.89550889615628" lon="9.47258403635201"><ele>15.0</ele><time>2026-05-01T07:28:23.998Z</time></trkpt><trkpt lat="42.89564791699569" lon="9.472547576648456"><ele>15.0</ele><time>2026-05-01T07:28:24.998Z</time></trkpt><trkpt lat="42.895788922097715" lon="9.472530002359434"><ele>15.0</ele><time>2026-05-01T07:28:25.998Z</time></trkpt><trkpt lat="42.895930630213506" lon="9.472525956462105"><ele>15.0</ele><time>2026-05-01T07:28:26.998Z</time></trkpt><trkpt lat="42.89607422114081" lon="9.472530558652405"><ele>14.0</ele><time>2026-05-01T07:28:27.998Z</time></trkpt><trkpt lat="42.89621743253336" lon="9.472533611291414"><ele>13.0</ele><time>2026-05-01T07:28:28.998Z</time></trkpt><trkpt lat="42.89636096895398" lon="9.472522939190027"><ele>12.0</ele><time>2026-05-01T07:28:29.998Z</time></trkpt><trkpt lat="42.89649744653081" lon="9.47248857272291"><ele>11.0</ele><time>2026-05-01T07:28:30.998Z</time></trkpt><trkpt lat="42.89663426012973" lon="9.472422571664788"><ele>10.333333333333332</ele><time>2026-05-01T07:28:31.999Z</time></trkpt><trkpt lat="42.8967706675034" lon="9.472340999607324"><ele>9.666666666666666</ele><time>2026-05-01T07:28:32.999Z</time></trkpt><trkpt lat="42.89691264448042" lon="9.472266028903036"><ele>9.0</ele><time>2026-05-01T07:28:33.999Z</time></trkpt><trkpt lat="42.897055933172304" lon="9.472197205076114"><ele>9.0</ele><time>2026-05-01T07:28:34.999Z</time></trkpt><trkpt lat="42.897207922405755" lon="9.472140445837663"><ele>9.0</ele><time>2026-05-01T07:28:35.999Z</time></trkpt><trkpt lat="42.89736368664138" lon="9.472116332359212"><ele>9.0</ele><time>2026-05-01T07:28:36.999Z</time></trkpt><trkpt lat="42.89752718741323" lon="9.472120099962417"><ele>9.666666666666666</ele><time>2026-05-01T07:28:37.999Z</time></trkpt><trkpt lat="42.897687936251245" lon="9.472151231481002"><ele>10.333333333333332</ele><time>2026-05-01T07:28:38.999Z</time></trkpt><trkpt lat="42.89784756964798" lon="9.47220017024771"><ele>11.0</ele><time>2026-05-01T07:28:39.999Z</time></trkpt><trkpt lat="42.89800576244825" lon="9.47225259842084"><ele>11.0</ele><time>2026-05-01T07:28:40.999Z</time></trkpt><trkpt lat="42.89815836710029" lon="9.47232557072761"><ele>11.0</ele><time>2026-05-01T07:28:41.999Z</time></trkpt><trkpt lat="42.898316435829884" lon="9.472361260478385"><ele>11.0</ele><time>2026-05-01T07:28:42.999Z</time></trkpt><trkpt lat="42.89847066025316" lon="9.47241321491585"><ele>13.333333333333332</ele><time>2026-05-01T07:28:43.999Z</time></trkpt><trkpt lat="42.89862641431585" lon="9.472464116934031"><ele>15.666666666666666</ele><time>2026-05-01T07:28:44.999Z</time></trkpt><trkpt lat="42.89878208941025" lon="9.472524250602277"><ele>18.0</ele><time>2026-05-01T07:28:45.999Z</time></trkpt><trkpt lat="42.898934182829805" lon="9.472594598857166"><ele>18.0</ele><time>2026-05-01T07:28:46.999Z</time></trkpt><trkpt lat="42.89908515121662" lon="9.472671853732404"><ele>18.0</ele><time>2026-05-01T07:28:47.999Z</time></trkpt><trkpt lat="42.89923412001821" lon="9.472754575645983"><ele>18.0</ele><time>2026-05-01T07:28:48.999Z</time></trkpt><trkpt lat="42.89939186943322" lon="9.472846345378667"><ele>16.333333333333332</ele><time>2026-05-01T07:28:49.999Z</time></trkpt><trkpt lat="42.89954881233873" lon="9.472939616719705"><ele>14.666666666666666</ele><time>2026-05-01T07:28:50.999Z</time></trkpt><trkpt lat="42.89969859356909" lon="9.473029958529105"><ele>13.0</ele><time>2026-05-01T07:28:51.999Z</time></trkpt><trkpt lat="42.899837293882975" lon="9.473117848851723"><ele>13.0</ele><time>2026-05-01T07:28:52.999Z</time></trkpt><trkpt lat="42.899973171437935" lon="9.473189123779449"><ele>13.0</ele><time>2026-05-01T07:28:53.999Z</time></trkpt><trkpt lat="42.90012252652445" lon="9.47322346916061"><ele>13.0</ele><time>2026-05-01T07:28:54.999Z</time></trkpt><trkpt lat="42.9002765187353" lon="9.473214357767695"><ele>11.0</ele><time>2026-05-01T07:28:55.999Z</time></trkpt><trkpt lat="42.90044119017011" lon="9.473154552056819"><ele>9.0</ele><time>2026-05-01T07:28:56.999Z</time></trkpt><trkpt lat="42.90059677474986" lon="9.473053910570322"><ele>7.0</ele><time>2026-05-01T07:28:57.999Z</time></trkpt><trkpt lat="42.90074983838342" lon="9.472922114234041"><ele>8.333333333333334</ele><time>2026-05-01T07:28:58.999Z</time></trkpt><trkpt lat="42.90091075062656" lon="9.472789794695656"><ele>9.666666666666666</ele><time>2026-05-01T07:28:59.999Z</time></trkpt><trkpt lat="42.901071603532664" lon="9.47265872816517"><ele>11.0</ele><time>2026-05-01T07:29:00.999Z</time></trkpt><trkpt lat="42.90122608112244" lon="9.472527425022385"><ele>11.0</ele><time>2026-05-01T07:29:01.999Z</time></trkpt><trkpt lat="42.90139273306477" lon="9.472420984648727"><ele>11.0</ele><time>2026-05-01T07:29:02.999Z</time></trkpt><trkpt lat="42.90154612990462" lon="9.472296955867284"><ele>11.0</ele><time>2026-05-01T07:29:03.999Z</time></trkpt><trkpt lat="42.90170899150319" lon="9.472232130864015"><ele>10.333333333333332</ele><time>2026-05-01T07:29:04.999Z</time></trkpt><trkpt lat="42.901887759067364" lon="9.472214951187546"><ele>9.666666666666666</ele><time>2026-05-01T07:29:05.999Z</time></trkpt><trkpt lat="42.90207007369477" lon="9.472257995467691"><ele>9.0</ele><time>2026-05-01T07:29:06.999Z</time></trkpt><trkpt lat="42.902231809266645" lon="9.47232347347758"><ele>9.0</ele><time>2026-05-01T07:29:07.999Z</time></trkpt><trkpt lat="42.90239375397749" lon="9.472403538233324"><ele>9.0</ele><time>2026-05-01T07:29:08.999Z</time></trkpt><trkpt lat="42.902550266165726" lon="9.472455513463586"><ele>9.0</ele><time>2026-05-01T07:29:09.999Z</time></trkpt><trkpt lat="42.90269366641383" lon="9.472453166985016"><ele>7.75</ele><time>2026-05-01T07:29:10.999Z</time></trkpt><trkpt lat="42.902810400361275" lon="9.472379236354914"><ele>6.5</ele><time>2026-05-01T07:29:11.999Z</time></trkpt><trkpt lat="42.902895682054655" lon="9.472215080631997"><ele>5.25</ele><time>2026-05-01T07:29:12.999Z</time></trkpt><trkpt lat="42.90295633318207" lon="9.472014854596502"><ele>4.0</ele><time>2026-05-01T07:29:13.999Z</time></trkpt><trkpt lat="42.90299194134808" lon="9.471769205665776"><ele>4.0</ele><time>2026-05-01T07:29:14.999Z</time></trkpt><trkpt lat="42.9030506624735" lon="9.47154154502409"><ele>4.0</ele><time>2026-05-01T07:29:15.999Z</time></trkpt><trkpt lat="42.90313775727015" lon="9.471310986218885"><ele>4.0</ele><time>2026-05-01T07:29:16.999Z</time></trkpt><trkpt lat="42.903263271509395" lon="9.471102382800225"><ele>2.6666666666666665</ele><time>2026-05-01T07:29:17.999Z</time></trkpt><trkpt lat="42.903395720441026" lon="9.47089074706589"><ele>1.3333333333333333</ele><time>2026-05-01T07:29:18.999Z</time></trkpt><trkpt lat="42.90353324792082" lon="9.47067592036214"><ele>0.0</ele><time>2026-05-01T07:29:19.999Z</time></trkpt><trkpt lat="42.903661759798425" lon="9.470443867172499"><ele>1.3333333333333333</ele><time>2026-05-01T07:29:20.999Z</time></trkpt><trkpt lat="42.90380797598765" lon="9.470223347128176"><ele>2.6666666666666665</ele><time>2026-05-01T07:29:21.999Z</time></trkpt><trkpt lat="42.903946667625306" lon="9.4699996426706"><ele>4.0</ele><time>2026-05-01T07:29:22.999Z</time></trkpt><trkpt lat="42.904085063484885" lon="9.46977702788116"><ele>3.333333333333333</ele><time>2026-05-01T07:29:23.999Z</time></trkpt><trkpt lat="42.9042248500118" lon="9.469565366114011"><ele>2.6666666666666665</ele><time>2026-05-01T07:29:24.999Z</time></trkpt><trkpt lat="42.90436200002031" lon="9.469353556454628"><ele>2.0</ele><time>2026-05-01T07:29:25.999Z</time></trkpt><trkpt lat="42.90449973433318" lon="9.469136906407394"><ele>2.0</ele><time>2026-05-01T07:29:26.999Z</time></trkpt><trkpt lat="42.90463160833997" lon="9.468929781913708"><ele>2.0</ele><time>2026-05-01T07:29:27.999Z</time></trkpt><trkpt lat="42.904757758055574" lon="9.468734127866886"><ele>2.0</ele><time>2026-05-01T07:29:28.999Z</time></trkpt><trkpt lat="42.904881865809045" lon="9.468547347876436"><ele>2.333333333333333</ele><time>2026-05-01T07:29:29.999Z</time></trkpt><trkpt lat="42.904992012028316" lon="9.468365750580803"><ele>2.6666666666666665</ele><time>2026-05-01T07:29:30.999Z</time></trkpt><trkpt lat="42.90509888355338" lon="9.468186772058699"><ele>3.0</ele><time>2026-05-01T07:29:31.999Z</time></trkpt><trkpt lat="42.90520670822815" lon="9.468017904122535"><ele>3.0</ele><time>2026-05-01T07:29:32.999Z</time></trkpt><trkpt lat="42.90530831828363" lon="9.467856721363884"><ele>3.0</ele><time>2026-05-01T07:29:33.999Z</time></trkpt><trkpt lat="42.9054021649232" lon="9.467703540457087"><ele>3.0</ele><time>2026-05-01T07:29:34.999Z</time></trkpt><trkpt lat="42.90549070701434" lon="9.467559990910532"><ele>3.0</ele><time>2026-05-01T07:29:35.999Z</time></trkpt><trkpt lat="42.90558012816484" lon="9.467430222267275"><ele>3.0</ele><time>2026-05-01T07:29:36.999Z</time></trkpt><trkpt lat="42.90567693413229" lon="9.467322371297621"><ele>3.0</ele><time>2026-05-01T07:29:37.999Z</time></trkpt><trkpt lat="42.90578700447631" lon="9.467267913930632"><ele>3.0</ele><time>2026-05-01T07:29:38.999Z</time></trkpt><trkpt lat="42.90588755293662" lon="9.467198326471788"><ele>3.0</ele><time>2026-05-01T07:29:39.999Z</time></trkpt><trkpt lat="42.90599622042476" lon="9.467159122280622"><ele>3.0</ele><time>2026-05-01T07:29:40.999Z</time></trkpt><trkpt lat="42.9061096624706" lon="9.467118630246334"><ele>3.0</ele><time>2026-05-01T07:29:41.999Z</time></trkpt><trkpt lat="42.90622684028935" lon="9.467075932137028"><ele>3.0</ele><time>2026-05-01T07:29:42.999Z</time></trkpt><trkpt lat="42.90635029260896" lon="9.467033658243443"><ele>3.0</ele><time>2026-05-01T07:29:43.999Z</time></trkpt><trkpt lat="42.90647669625628" lon="9.46699440951478"><ele>3.25</ele><time>2026-05-01T07:29:44.999Z</time></trkpt><trkpt lat="42.906604134410046" lon="9.466963655183633"><ele>3.5</ele><time>2026-05-01T07:29:45.999Z</time></trkpt><trkpt lat="42.90673212582277" lon="9.466962518225717"><ele>3.75</ele><time>2026-05-01T07:29:46.999Z</time></trkpt><trkpt lat="42.90685808003003" lon="9.46699712321674"><ele>4.0</ele><time>2026-05-01T07:29:47.999Z</time></trkpt><trkpt lat="42.906964074450045" lon="9.46708980556214"><ele>5.5</ele><time>2026-05-01T07:29:48.999Z</time></trkpt><trkpt lat="42.90708586417569" lon="9.467166041674773"><ele>7.0</ele><time>2026-05-01T07:29:49.999Z</time></trkpt><trkpt lat="42.907195214198026" lon="9.467272618610982"><ele>8.5</ele><time>2026-05-01T07:29:50.999Z</time></trkpt><trkpt lat="42.907307857307686" lon="9.467374774932084"><ele>10.0</ele><time>2026-05-01T07:29:51.999Z</time></trkpt><trkpt lat="42.90741582046036" lon="9.467485463449972"><ele>10.0</ele><time>2026-05-01T07:29:52.999Z</time></trkpt><trkpt lat="42.907530626843936" lon="9.467583203103995"><ele>10.0</ele><time>2026-05-01T07:29:53.999Z</time></trkpt><trkpt lat="42.907645718611754" lon="9.467686207873946"><ele>10.0</ele><time>2026-05-01T07:29:54.999Z</time></trkpt><trkpt lat="42.90776455648597" lon="9.467793826015114"><ele>10.0</ele><time>2026-05-01T07:29:55.999Z</time></trkpt><trkpt lat="42.907868875842865" lon="9.467925130545519"><ele>11.25</ele><time>2026-05-01T07:29:56.999Z</time></trkpt><trkpt lat="42.90798936077544" lon="9.468031940674548"><ele>12.5</ele><time>2026-05-01T07:29:57.999Z</time></trkpt><trkpt lat="42.90809657283664" lon="9.468165513488648"><ele>13.75</ele><time>2026-05-01T07:29:58.999Z</time></trkpt><trkpt lat="42.90820171708717" lon="9.46830025428034"><ele>15.0</ele><time>2026-05-01T07:29:59.999Z</time></trkpt><trkpt lat="42.908267789975376" lon="9.468465052404929"><ele>15.0</ele><time>2026-05-01T07:30:00.999Z</time></trkpt><trkpt lat="42.90833577343491" lon="9.46862218920969"><ele>15.0</ele><time>2026-05-01T07:30:01.999Z</time></trkpt><trkpt lat="42.90840183833247" lon="9.468767308226777"><ele>15.0</ele><time>2026-05-01T07:30:02.999Z</time></trkpt><trkpt lat="42.908470392780224" lon="9.46891567586792"><ele>15.0</ele><time>2026-05-01T07:30:03.999Z</time></trkpt><trkpt lat="42.90854895645999" lon="9.46905392512802"><ele>17.0</ele><time>2026-05-01T07:30:04.999Z</time></trkpt><trkpt lat="42.90864292370884" lon="9.469173850310074"><ele>19.0</ele><time>2026-05-01T07:30:05.999Z</time></trkpt><trkpt lat="42.908747862730095" lon="9.4692742021362"><ele>21.0</ele><time>2026-05-01T07:30:06.999Z</time></trkpt><trkpt lat="42.90885621936596" lon="9.46933905930441"><ele>23.0</ele><time>2026-05-01T07:30:07.999Z</time></trkpt><trkpt lat="42.90895356142354" lon="9.469407768124118"><ele>23.0</ele><time>2026-05-01T07:30:08.999Z</time></trkpt><trkpt lat="42.90904726671629" lon="9.469475258146412"><ele>23.0</ele><time>2026-05-01T07:30:09.999Z</time></trkpt><trkpt lat="42.90912760820086" lon="9.4695441267474"><ele>23.0</ele><time>2026-05-01T07:30:10.999Z</time></trkpt><trkpt lat="42.90921148790463" lon="9.469630657294038"><ele>23.0</ele><time>2026-05-01T07:30:11.999Z</time></trkpt><trkpt lat="42.90928293651374" lon="9.469728596328205"><ele>23.0</ele><time>2026-05-01T07:30:12.998Z</time></trkpt><trkpt lat="42.90933769592127" lon="9.469843418263256"><ele>27.333333333333336</ele><time>2026-05-01T07:30:13.998Z</time></trkpt><trkpt lat="42.909379803444864" lon="9.470019498198582"><ele>31.666666666666668</ele><time>2026-05-01T07:30:14.998Z</time></trkpt><trkpt lat="42.909444334245144" lon="9.470258673923368"><ele>36.0</ele><time>2026-05-01T07:30:15.998Z</time></trkpt><trkpt lat="42.909512896163285" lon="9.470504018612798"><ele>36.0</ele><time>2026-05-01T07:30:16.998Z</time></trkpt><trkpt lat="42.90956888678577" lon="9.470702056132804"><ele>36.0</ele><time>2026-05-01T07:30:17.998Z</time></trkpt><trkpt lat="42.90961504997056" lon="9.470859207305294"><ele>36.0</ele><time>2026-05-01T07:30:18.998Z</time></trkpt><trkpt lat="42.909657655440434" lon="9.47099684916481"><ele>36.0</ele><time>2026-05-01T07:30:19.998Z</time></trkpt><trkpt lat="42.90969285682793" lon="9.471114495862405"><ele>36.0</ele><time>2026-05-01T07:30:20.998Z</time></trkpt><trkpt lat="42.909728314497315" lon="9.471228578979202"><ele>36.0</ele><time>2026-05-01T07:30:21.998Z</time></trkpt><trkpt lat="42.90976552855162" lon="9.471334486181659"><ele>36.0</ele><time>2026-05-01T07:30:22.998Z</time></trkpt><trkpt lat="42.90981933784904" lon="9.47143869106822"><ele>36.0</ele><time>2026-05-01T07:30:23.998Z</time></trkpt><trkpt lat="42.90988418088011" lon="9.47152587071219"><ele>36.0</ele><time>2026-05-01T07:30:24.998Z</time></trkpt><trkpt lat="42.90997442107658" lon="9.471583120093747"><ele>30.75</ele><time>2026-05-01T07:30:25.998Z</time></trkpt><trkpt lat="42.91006223617679" lon="9.471629505029405"><ele>25.5</ele><time>2026-05-01T07:30:26.998Z</time></trkpt><trkpt lat="42.91016787074227" lon="9.471627156517656"><ele>20.25</ele><time>2026-05-01T07:30:27.998Z</time></trkpt><trkpt lat="42.910310564394834" lon="9.471577652461074"><ele>15.0</ele><time>2026-05-01T07:30:28.998Z</time></trkpt><trkpt lat="42.91048733521401" lon="9.47153607922898"><ele>14.666666666666668</ele><time>2026-05-01T07:30:29.998Z</time></trkpt><trkpt lat="42.91064684992711" lon="9.471456893109242"><ele>14.333333333333334</ele><time>2026-05-01T07:30:30.998Z</time></trkpt><trkpt lat="42.910791221889994" lon="9.471411273156082"><ele>14.0</ele><time>2026-05-01T07:30:31.998Z</time></trkpt><trkpt lat="42.91091778053062" lon="9.471346370641237"><ele>14.25</ele><time>2026-05-01T07:30:32.998Z</time></trkpt><trkpt lat="42.91103075935427" lon="9.471267359963925"><ele>14.5</ele><time>2026-05-01T07:30:33.998Z</time></trkpt><trkpt lat="42.91114029842139" lon="9.471177468817622"><ele>14.75</ele><time>2026-05-01T07:30:34.998Z</time></trkpt><trkpt lat="42.91124191457467" lon="9.471076579169289"><ele>15.0</ele><time>2026-05-01T07:30:35.998Z</time></trkpt><trkpt lat="42.91133267722836" lon="9.470973685344811"><ele>15.0</ele><time>2026-05-01T07:30:36.998Z</time></trkpt><trkpt lat="42.911415729497" lon="9.470863721199992"><ele>15.0</ele><time>2026-05-01T07:30:37.999Z</time></trkpt><trkpt lat="42.91150185266683" lon="9.470723662837333"><ele>15.0</ele><time>2026-05-01T07:30:38.999Z</time></trkpt><trkpt lat="42.911617309545754" lon="9.470538738484057"><ele>15.0</ele><time>2026-05-01T07:30:39.999Z</time></trkpt><trkpt lat="42.911722135623975" lon="9.470289075054081"><ele>14.666666666666668</ele><time>2026-05-01T07:30:40.999Z</time></trkpt><trkpt lat="42.91181635804048" lon="9.470031574121377"><ele>14.333333333333334</ele><time>2026-05-01T07:30:41.999Z</time></trkpt><trkpt lat="42.91192153882062" lon="9.469829697190233"><ele>14.0</ele><time>2026-05-01T07:30:42.999Z</time></trkpt><trkpt lat="42.912048288981424" lon="9.46967990020223"><ele>19.666666666666668</ele><time>2026-05-01T07:30:43.999Z</time></trkpt><trkpt lat="42.9121975618626" lon="9.4695743747941"><ele>25.333333333333336</ele><time>2026-05-01T07:30:44.999Z</time></trkpt><trkpt lat="42.91234873360305" lon="9.469543559771367"><ele>31.0</ele><time>2026-05-01T07:30:45.999Z</time></trkpt><trkpt lat="42.9125020038232" lon="9.469534011502127"><ele>30.666666666666668</ele><time>2026-05-01T07:30:46.999Z</time></trkpt><trkpt lat="42.91267999358438" lon="9.469547329316352"><ele>30.333333333333336</ele><time>2026-05-01T07:30:47.999Z</time></trkpt><trkpt lat="42.91287203844981" lon="9.469590862262553"><ele>30.0</ele><time>2026-05-01T07:30:48.999Z</time></trkpt><trkpt lat="42.91307551271033" lon="9.469666275751168"><ele>25.666666666666668</ele><time>2026-05-01T07:30:49.999Z</time></trkpt><trkpt lat="42.91328613270002" lon="9.469734779490334"><ele>21.333333333333336</ele><time>2026-05-01T07:30:50.999Z</time></trkpt><trkpt lat="42.91350146940858" lon="9.469794350565301"><ele>17.0</ele><time>2026-05-01T07:30:51.999Z</time></trkpt><trkpt lat="42.91371595070006" lon="9.469849957009654"><ele>17.0</ele><time>2026-05-01T07:30:52.999Z</time></trkpt><trkpt lat="42.913931474524325" lon="9.46990131641364"><ele>17.0</ele><time>2026-05-01T07:30:53.999Z</time></trkpt><trkpt lat="42.91414163972587" lon="9.46998015356422"><ele>17.0</ele><time>2026-05-01T07:30:54.999Z</time></trkpt><trkpt lat="42.91435497166829" lon="9.470023619529718"><ele>19.666666666666668</ele><time>2026-05-01T07:30:55.999Z</time></trkpt><trkpt lat="42.914561117683114" lon="9.470087602050572"><ele>22.333333333333336</ele><time>2026-05-01T07:30:56.999Z</time></trkpt><trkpt lat="42.914764806335754" lon="9.470148592922648"><ele>25.0</ele><time>2026-05-01T07:30:57.999Z</time></trkpt><trkpt lat="42.914962202213026" lon="9.470199636646031"><ele>26.0</ele><time>2026-05-01T07:30:58.999Z</time></trkpt><trkpt lat="42.915160404065254" lon="9.470234320780175"><ele>27.0</ele><time>2026-05-01T07:30:59.999Z</time></trkpt><trkpt lat="42.915355324375426" lon="9.47023590389325"><ele>28.0</ele><time>2026-05-01T07:31:00.999Z</time></trkpt><trkpt lat="42.91555135483022" lon="9.47021188358848"><ele>28.0</ele><time>2026-05-01T07:31:01.999Z</time></trkpt><trkpt lat="42.91574026004357" lon="9.470193658852454"><ele>28.0</ele><time>2026-05-01T07:31:02.999Z</time></trkpt><trkpt lat="42.91592279840869" lon="9.470223236800015"><ele>28.0</ele><time>2026-05-01T07:31:03.999Z</time></trkpt><trkpt lat="42.91609907120879" lon="9.470227726253997"><ele>29.0</ele><time>2026-05-01T07:31:04.999Z</time></trkpt><trkpt lat="42.9162586486897" lon="9.470257593095907"><ele>30.0</ele><time>2026-05-01T07:31:05.999Z</time></trkpt><trkpt lat="42.91640467031765" lon="9.470278030693457"><ele>31.0</ele><time>2026-05-01T07:31:06.999Z</time></trkpt><trkpt lat="42.91654569440985" lon="9.470279332033114"><ele>32.0</ele><time>2026-05-01T07:31:07.999Z</time></trkpt><trkpt lat="42.916691129261274" lon="9.470284959847858"><ele>30.333333333333332</ele><time>2026-05-01T07:31:08.999Z</time></trkpt><trkpt lat="42.916839726241754" lon="9.470296788527536"><ele>28.666666666666664</ele><time>2026-05-01T07:31:09.999Z</time></trkpt><trkpt lat="42.91698800773569" lon="9.470308248631744"><ele>27.0</ele><time>2026-05-01T07:31:10.999Z</time></trkpt><trkpt lat="42.917141114455205" lon="9.470314646525885"><ele>27.0</ele><time>2026-05-01T07:31:11.999Z</time></trkpt><trkpt lat="42.91730060835708" lon="9.470305191213024"><ele>27.0</ele><time>2026-05-01T07:31:12.999Z</time></trkpt><trkpt lat="42.917467880468465" lon="9.470287552221379"><ele>27.0</ele><time>2026-05-01T07:31:13.999Z</time></trkpt><trkpt lat="42.91763310481425" lon="9.47028261664024"><ele>27.666666666666664</ele><time>2026-05-01T07:31:14.999Z</time></trkpt><trkpt lat="42.91779890822944" lon="9.470259781447536"><ele>28.333333333333332</ele><time>2026-05-01T07:31:15.999Z</time></trkpt><trkpt lat="42.917963822645554" lon="9.470244670110253"><ele>29.0</ele><time>2026-05-01T07:31:16.999Z</time></trkpt><trkpt lat="42.918130464173224" lon="9.470236714075128"><ele>29.0</ele><time>2026-05-01T07:31:17.999Z</time></trkpt><trkpt lat="42.918292092971555" lon="9.470242060470593"><ele>29.0</ele><time>2026-05-01T07:31:18.999Z</time></trkpt><trkpt lat="42.91845416779671" lon="9.47027100699831"><ele>29.0</ele><time>2026-05-01T07:31:19.999Z</time></trkpt><trkpt lat="42.91861290201007" lon="9.470321074582703"><ele>24.666666666666664</ele><time>2026-05-01T07:31:20.999Z</time></trkpt><trkpt lat="42.91877321953576" lon="9.470388999951169"><ele>20.333333333333332</ele><time>2026-05-01T07:31:21.999Z</time></trkpt><trkpt lat="42.9189216600553" lon="9.470479290552595"><ele>16.0</ele><time>2026-05-01T07:31:22.999Z</time></trkpt><trkpt lat="42.919061313407546" lon="9.470604492889436"><ele>16.0</ele><time>2026-05-01T07:31:23.999Z</time></trkpt><trkpt lat="42.91917501855809" lon="9.470760930029822"><ele>16.0</ele><time>2026-05-01T07:31:24.999Z</time></trkpt><trkpt lat="42.9192907571204" lon="9.470918189575901"><ele>16.0</ele><time>2026-05-01T07:31:25.999Z</time></trkpt><trkpt lat="42.91941175163306" lon="9.47107867225449"><ele>13.0</ele><time>2026-05-01T07:31:26.999Z</time></trkpt><trkpt lat="42.91954044328179" lon="9.471224325137618"><ele>10.0</ele><time>2026-05-01T07:31:27.999Z</time></trkpt><trkpt lat="42.91965262179996" lon="9.471372094544874"><ele>7.0</ele><time>2026-05-01T07:31:28.999Z</time></trkpt><trkpt lat="42.919770441221054" lon="9.471501698279495"><ele>7.0</ele><time>2026-05-01T07:31:29.999Z</time></trkpt><trkpt lat="42.91990209684736" lon="9.471579510934053"><ele>7.0</ele><time>2026-05-01T07:31:30.999Z</time></trkpt><trkpt lat="42.9200492116908" lon="9.4715949975204"><ele>7.0</ele><time>2026-05-01T07:31:31.999Z</time></trkpt><trkpt lat="42.920196388476" lon="9.471537822699634"><ele>7.0</ele><time>2026-05-01T07:31:32.999Z</time></trkpt><trkpt lat="42.92033648075885" lon="9.471424892395264"><ele>7.333333333333334</ele><time>2026-05-01T07:31:33.999Z</time></trkpt><trkpt lat="42.92046411304855" lon="9.471272119653195"><ele>7.666666666666666</ele><time>2026-05-01T07:31:34.999Z</time></trkpt><trkpt lat="42.92057782702213" lon="9.471101775819632"><ele>8.0</ele><time>2026-05-01T07:31:35.999Z</time></trkpt><trkpt lat="42.920687377539295" lon="9.470925625885572"><ele>8.0</ele><time>2026-05-01T07:31:36.999Z</time></trkpt><trkpt lat="42.92078965620438" lon="9.470744032760322"><ele>8.0</ele><time>2026-05-01T07:31:37.999Z</time></trkpt><trkpt lat="42.92087643257481" lon="9.470546695263662"><ele>8.0</ele><time>2026-05-01T07:31:38.999Z</time></trkpt><trkpt lat="42.92095526522227" lon="9.470340165516182"><ele>5.333333333333333</ele><time>2026-05-01T07:31:39.999Z</time></trkpt><trkpt lat="42.92102660102118" lon="9.470128426991714"><ele>2.6666666666666665</ele><time>2026-05-01T07:31:40.999Z</time></trkpt><trkpt lat="42.92109558207868" lon="9.469916111405295"><ele>0.0</ele><time>2026-05-01T07:31:41.999Z</time></trkpt><trkpt lat="42.921170529924936" lon="9.469707584491026"><ele>3.0</ele><time>2026-05-01T07:31:42.999Z</time></trkpt><trkpt lat="42.921277133658464" lon="9.469530866545703"><ele>6.0</ele><time>2026-05-01T07:31:43.999Z</time></trkpt><trkpt lat="42.92139529165497" lon="9.469366987570238"><ele>9.0</ele><time>2026-05-01T07:31:44.999Z</time></trkpt><trkpt lat="42.92152782903181" lon="9.469221345735788"><ele>9.0</ele><time>2026-05-01T07:31:45.999Z</time></trkpt><trkpt lat="42.92167347676546" lon="9.469120746416687"><ele>9.0</ele><time>2026-05-01T07:31:46.999Z</time></trkpt><trkpt lat="42.92183316675824" lon="9.469086672548329"><ele>9.0</ele><time>2026-05-01T07:31:47.999Z</time></trkpt><trkpt lat="42.92198734056063" lon="9.469119033681823"><ele>11.333333333333332</ele><time>2026-05-01T07:31:48.999Z</time></trkpt><trkpt lat="42.92211533320698" lon="9.469225819208448"><ele>13.666666666666666</ele><time>2026-05-01T07:31:49.999Z</time></trkpt><trkpt lat="42.92224236054206" lon="9.469364553023853"><ele>16.0</ele><time>2026-05-01T07:31:50.999Z</time></trkpt><trkpt lat="42.92237595609432" lon="9.469511691332112"><ele>13.0</ele><time>2026-05-01T07:31:51.999Z</time></trkpt><trkpt lat="42.922493505149156" lon="9.469674000025316"><ele>10.0</ele><time>2026-05-01T07:31:52.999Z</time></trkpt><trkpt lat="42.922569511683676" lon="9.469874685678757"><ele>7.0</ele><time>2026-05-01T07:31:53.999Z</time></trkpt><trkpt lat="42.92265339636267" lon="9.47009058070204"><ele>9.0</ele><time>2026-05-01T07:31:54.999Z</time></trkpt><trkpt lat="42.92275312450899" lon="9.470290134548565"><ele>11.0</ele><time>2026-05-01T07:31:55.999Z</time></trkpt><trkpt lat="42.92284926096025" lon="9.470490718689161"><ele>13.0</ele><time>2026-05-01T07:31:56.999Z</time></trkpt><trkpt lat="42.92295768507035" lon="9.470682464831702"><ele>13.0</ele><time>2026-05-01T07:31:57.999Z</time></trkpt><trkpt lat="42.92307566907765" lon="9.470859777038427"><ele>13.0</ele><time>2026-05-01T07:31:58.999Z</time></trkpt><trkpt lat="42.92320413655843" lon="9.471028899315332"><ele>13.0</ele><time>2026-05-01T07:31:59.999Z</time></trkpt><trkpt lat="42.92333802243378" lon="9.471179477272027"><ele>11.0</ele><time>2026-05-01T07:32:00.999Z</time></trkpt><trkpt lat="42.92347697470903" lon="9.471322743913934"><ele>9.0</ele><time>2026-05-01T07:32:01.999Z</time></trkpt><trkpt lat="42.92360531411864" lon="9.471438237715986"><ele>7.0</ele><time>2026-05-01T07:32:02.999Z</time></trkpt><trkpt lat="42.923743655749185" lon="9.471508846060027"><ele>7.0</ele><time>2026-05-01T07:32:03.999Z</time></trkpt><trkpt lat="42.923887395547546" lon="9.471527308909579"><ele>7.0</ele><time>2026-05-01T07:32:04.999Z</time></trkpt><trkpt lat="42.924038053321965" lon="9.471515149394717"><ele>7.0</ele><time>2026-05-01T07:32:05.999Z</time></trkpt><trkpt lat="42.924180295529034" lon="9.471475573105257"><ele>7.0</ele><time>2026-05-01T07:32:06.999Z</time></trkpt><trkpt lat="42.924316761643375" lon="9.471410251098808"><ele>6.666666666666667</ele><time>2026-05-01T07:32:07.999Z</time></trkpt><trkpt lat="42.92444331654395" lon="9.471344221902484"><ele>6.333333333333334</ele><time>2026-05-01T07:32:08.999Z</time></trkpt><trkpt lat="42.92456309493934" lon="9.47128558334584"><ele>6.0</ele><time>2026-05-01T07:32:09.999Z</time></trkpt><trkpt lat="42.92463855145681" lon="9.471028122729134"><ele>6.0</ele><time>2026-05-01T07:32:10.999Z</time></trkpt><trkpt lat="42.92474547668243" lon="9.470877575612807"><ele>6.0</ele><time>2026-05-01T07:32:11.999Z</time></trkpt><trkpt lat="42.92485072619966" lon="9.470729803699149"><ele>6.0</ele><time>2026-05-01T07:32:12.999Z</time></trkpt><trkpt lat="42.92494115465813" lon="9.470567928078482"><ele>4.333333333333333</ele><time>2026-05-01T07:32:13.999Z</time></trkpt><trkpt lat="42.92500559252376" lon="9.47038584789366"><ele>2.6666666666666665</ele><time>2026-05-01T07:32:14.999Z</time></trkpt><trkpt lat="42.925041846351924" lon="9.470185151348206"><ele>1.0</ele><time>2026-05-01T07:32:15.999Z</time></trkpt><trkpt lat="42.92506615871367" lon="9.469982759294753"><ele>1.0</ele><time>2026-05-01T07:32:16.999Z</time></trkpt><trkpt lat="42.925089890012906" lon="9.469780709914701"><ele>1.0</ele><time>2026-05-01T07:32:17.999Z</time></trkpt><trkpt lat="42.92512929740407" lon="9.469608923149393"><ele>1.0</ele><time>2026-05-01T07:32:18.999Z</time></trkpt><trkpt lat="42.92514785393124" lon="9.469370809782555"><ele>2.0</ele><time>2026-05-01T07:32:19.999Z</time></trkpt><trkpt lat="42.92517981298804" lon="9.469164828377597"><ele>3.0</ele><time>2026-05-01T07:32:20.999Z</time></trkpt><trkpt lat="42.925230609804295" lon="9.468970903296672"><ele>4.0</ele><time>2026-05-01T07:32:21.999Z</time></trkpt><trkpt lat="42.925322637294165" lon="9.468804290418209"><ele>5.333333333333333</ele><time>2026-05-01T07:32:22.999Z</time></trkpt><trkpt lat="42.925451390174395" lon="9.468676669713924"><ele>6.666666666666666</ele><time>2026-05-01T07:32:23.999Z</time></trkpt><trkpt lat="42.92558639790176" lon="9.468555945058311"><ele>8.0</ele><time>2026-05-01T07:32:24.999Z</time></trkpt><trkpt lat="42.925698835048046" lon="9.468401727795184"><ele>8.0</ele><time>2026-05-01T07:32:25.999Z</time></trkpt><trkpt lat="42.92577054228847" lon="9.468205445517247"><ele>8.0</ele><time>2026-05-01T07:32:26.999Z</time></trkpt><trkpt lat="42.925796248739466" lon="9.467981612284323"><ele>8.0</ele><time>2026-05-01T07:32:27.999Z</time></trkpt><trkpt lat="42.9258242948515" lon="9.467766045087712"><ele>9.333333333333332</ele><time>2026-05-01T07:32:28.999Z</time></trkpt><trkpt lat="42.92588152484242" lon="9.467552126472766"><ele>10.666666666666666</ele><time>2026-05-01T07:32:29.999Z</time></trkpt><trkpt lat="42.92593987747209" lon="9.467339860662587"><ele>12.0</ele><time>2026-05-01T07:32:30.999Z</time></trkpt><trkpt lat="42.92599535437069" lon="9.467129971467168"><ele>11.333333333333334</ele><time>2026-05-01T07:32:31.999Z</time></trkpt><trkpt lat="42.92604042244441" lon="9.466917553394504"><ele>10.666666666666668</ele><time>2026-05-01T07:32:32.998Z</time></trkpt><trkpt lat="42.926095500406284" lon="9.466722756551476"><ele>10.0</ele><time>2026-05-01T07:32:33.998Z</time></trkpt><trkpt lat="42.92618052481685" lon="9.466537778924529"><ele>10.0</ele><time>2026-05-01T07:32:34.998Z</time></trkpt><trkpt lat="42.92629478865199" lon="9.46638921281392"><ele>10.0</ele><time>2026-05-01T07:32:35.998Z</time></trkpt><trkpt lat="42.92643943633945" lon="9.466305404104952"><ele>10.0</ele><time>2026-05-01T07:32:36.998Z</time></trkpt><trkpt lat="42.92658469338316" lon="9.4662529760573"><ele>11.75</ele><time>2026-05-01T07:32:37.998Z</time></trkpt><trkpt lat="42.92672242544627" lon="9.466265298950207"><ele>13.5</ele><time>2026-05-01T07:32:38.998Z</time></trkpt><trkpt lat="42.92686456916025" lon="9.466320183276068"><ele>15.25</ele><time>2026-05-01T07:32:39.998Z</time></trkpt><trkpt lat="42.92700654968232" lon="9.466392543226746"><ele>17.0</ele><time>2026-05-01T07:32:40.998Z</time></trkpt><trkpt lat="42.927121969849594" lon="9.466526934018718"><ele>17.0</ele><time>2026-05-01T07:32:41.998Z</time></trkpt><trkpt lat="42.927242715775364" lon="9.466665774371954"><ele>17.0</ele><time>2026-05-01T07:32:42.998Z</time></trkpt><trkpt lat="42.92736487481942" lon="9.466802233414757"><ele>17.0</ele><time>2026-05-01T07:32:43.999Z</time></trkpt><trkpt lat="42.92750899834109" lon="9.466905044992137"><ele>21.0</ele><time>2026-05-01T07:32:44.999Z</time></trkpt><trkpt lat="42.92766728833703" lon="9.466967992102974"><ele>25.0</ele><time>2026-05-01T07:32:45.999Z</time></trkpt><trkpt lat="42.92783285741786" lon="9.466985175508512"><ele>29.0</ele><time>2026-05-01T07:32:46.999Z</time></trkpt><trkpt lat="42.92800388043017" lon="9.466964015385127"><ele>29.0</ele><time>2026-05-01T07:32:47.999Z</time></trkpt><trkpt lat="42.92817808307992" lon="9.466978692734482"><ele>29.0</ele><time>2026-05-01T07:32:48.999Z</time></trkpt><trkpt lat="42.928350500767735" lon="9.466959576903315"><ele>29.0</ele><time>2026-05-01T07:32:49.999Z</time></trkpt><trkpt lat="42.92851639185458" lon="9.467012048227515"><ele>27.666666666666664</ele><time>2026-05-01T07:32:50.999Z</time></trkpt><trkpt lat="42.928684451774345" lon="9.467047153849649"><ele>26.333333333333336</ele><time>2026-05-01T07:32:51.999Z</time></trkpt><trkpt lat="42.92885992986852" lon="9.467044617952485"><ele>25.0</ele><time>2026-05-01T07:32:52.999Z</time></trkpt><trkpt lat="42.92902638775672" lon="9.467028472461253"><ele>25.0</ele><time>2026-05-01T07:32:53.999Z</time></trkpt><trkpt lat="42.929174880347404" lon="9.466958153525967"><ele>25.0</ele><time>2026-05-01T07:32:54.999Z</time></trkpt><trkpt lat="42.929313621369566" lon="9.46683252004859"><ele>25.0</ele><time>2026-05-01T07:32:55.999Z</time></trkpt><trkpt lat="42.929439448644594" lon="9.466660353339837"><ele>20.333333333333336</ele><time>2026-05-01T07:32:56.999Z</time></trkpt><trkpt lat="42.92958550320952" lon="9.466535358128962"><ele>15.666666666666668</ele><time>2026-05-01T07:32:57.999Z</time></trkpt><trkpt lat="42.92973731337683" lon="9.46645418071607"><ele>11.0</ele><time>2026-05-01T07:32:58.999Z</time></trkpt><trkpt lat="42.92990157739351" lon="9.466422181152737"><ele>11.0</ele><time>2026-05-01T07:32:59.999Z</time></trkpt><trkpt lat="42.93005695488679" lon="9.466346116709635"><ele>11.0</ele><time>2026-05-01T07:33:00.999Z</time></trkpt><trkpt lat="42.93019861364171" lon="9.466275673116618"><ele>11.0</ele><time>2026-05-01T07:33:01.999Z</time></trkpt><trkpt lat="42.93031118769301" lon="9.466126433857953"><ele>8.666666666666666</ele><time>2026-05-01T07:33:02.999Z</time></trkpt><trkpt lat="42.93040499385958" lon="9.465947131094046"><ele>6.333333333333333</ele><time>2026-05-01T07:33:03.999Z</time></trkpt><trkpt lat="42.9304901120971" lon="9.465719121465924"><ele>4.0</ele><time>2026-05-01T07:33:04.999Z</time></trkpt><trkpt lat="42.930592001285156" lon="9.465450026226444"><ele>5.0</ele><time>2026-05-01T07:33:05.999Z</time></trkpt><trkpt lat="42.93069692002588" lon="9.465167022110458"><ele>6.0</ele><time>2026-05-01T07:33:06.999Z</time></trkpt><trkpt lat="42.93080856109166" lon="9.464926915014912"><ele>7.0</ele><time>2026-05-01T07:33:07.999Z</time></trkpt><trkpt lat="42.930997499686434" lon="9.46478440696747"><ele>17.0</ele><time>2026-05-01T07:33:08.999Z</time></trkpt><trkpt lat="42.931223701482054" lon="9.464605321419148"><ele>27.0</ele><time>2026-05-01T07:33:09.999Z</time></trkpt><trkpt lat="42.93143237094251" lon="9.464427108001868"><ele>27.0</ele><time>2026-05-01T07:33:10.999Z</time></trkpt><trkpt lat="42.93158537929469" lon="9.464355025069217"><ele>27.0</ele><time>2026-05-01T07:33:11.999Z</time></trkpt><trkpt lat="42.93170380966836" lon="9.464410690495294"><ele>27.0</ele><time>2026-05-01T07:33:12.999Z</time></trkpt><trkpt lat="42.931868453054584" lon="9.464485223793776"><ele>19.333333333333332</ele><time>2026-05-01T07:33:13.999Z</time></trkpt><trkpt lat="42.932043654076146" lon="9.464617343584042"><ele>11.666666666666666</ele><time>2026-05-01T07:33:14.999Z</time></trkpt><trkpt lat="42.93216219961422" lon="9.464718756269075"><ele>4.0</ele><time>2026-05-01T07:33:15.999Z</time></trkpt><trkpt lat="42.93227838513424" lon="9.464819240773963"><ele>4.0</ele><time>2026-05-01T07:33:16.999Z</time></trkpt><trkpt lat="42.93239448396746" lon="9.464872295509224"><ele>4.0</ele><time>2026-05-01T07:33:17.999Z</time></trkpt><trkpt lat="42.93247455055861" lon="9.464927132035003"><ele>4.0</ele><time>2026-05-01T07:33:18.999Z</time></trkpt><trkpt lat="42.932578459477654" lon="9.464875356655433"><ele>4.0</ele><time>2026-05-01T07:33:19.999Z</time></trkpt><trkpt lat="42.93267522445323" lon="9.464784104303565"><ele>4.0</ele><time>2026-05-01T07:33:20.999Z</time></trkpt><trkpt lat="42.93277627920292" lon="9.464675882572864"><ele>4.166666666666666</ele><time>2026-05-01T07:33:21.999Z</time></trkpt><trkpt lat="42.932871937762414" lon="9.46458714551238"><ele>4.333333333333333</ele><time>2026-05-01T07:33:22.999Z</time></trkpt><trkpt lat="42.932960166308185" lon="9.464535977992226"><ele>4.5</ele><time>2026-05-01T07:33:23.999Z</time></trkpt><trkpt lat="42.933021899212534" lon="9.464486697712687"><ele>4.666666666666667</ele><time>2026-05-01T07:33:24.999Z</time></trkpt><trkpt lat="42.93308955226633" lon="9.4644343401334"><ele>4.833333333333334</ele><time>2026-05-01T07:33:25.999Z</time></trkpt><trkpt lat="42.933164907434545" lon="9.464376207968826"><ele>5.0</ele><time>2026-05-01T07:33:26.999Z</time></trkpt><trkpt lat="42.933245901955516" lon="9.464316965405867"><ele>5.0</ele><time>2026-05-01T07:33:27.999Z</time></trkpt><trkpt lat="42.93333220770312" lon="9.46426760491853"><ele>5.0</ele><time>2026-05-01T07:33:28.999Z</time></trkpt><trkpt lat="42.93341185152687" lon="9.464233693141345"><ele>5.0</ele><time>2026-05-01T07:33:29.999Z</time></trkpt><trkpt lat="42.93350625302244" lon="9.464218150953181"><ele>5.0</ele><time>2026-05-01T07:33:30.999Z</time></trkpt><trkpt lat="42.93359814810477" lon="9.464221780228714"><ele>5.0</ele><time>2026-05-01T07:33:31.999Z</time></trkpt><trkpt lat="42.933688340836895" lon="9.464252457005031"><ele>4.2</ele><time>2026-05-01T07:33:32.999Z</time></trkpt><trkpt lat="42.93378851733743" lon="9.464287866811398"><ele>3.4</ele><time>2026-05-01T07:33:33.999Z</time></trkpt><trkpt lat="42.933894724978686" lon="9.464325336405754"><ele>2.6</ele><time>2026-05-01T07:33:34.999Z</time></trkpt><trkpt lat="42.934005137905324" lon="9.464365797502317"><ele>1.8</ele><time>2026-05-01T07:33:35.999Z</time></trkpt><trkpt lat="42.9341159409413" lon="9.464408782447403"><ele>1.0</ele><time>2026-05-01T07:33:36.999Z</time></trkpt><trkpt lat="42.93422161557732" lon="9.464455194467437"><ele>0.9999999999999999</ele><time>2026-05-01T07:33:37.999Z</time></trkpt><trkpt lat="42.93431847504781" lon="9.46450842739241"><ele>1.0</ele><time>2026-05-01T07:33:38.999Z</time></trkpt><trkpt lat="42.93440119339519" lon="9.464585689271166"><ele>1.0</ele><time>2026-05-01T07:33:39.999Z</time></trkpt><trkpt lat="42.93446389477088" lon="9.464657378415584"><ele>1.0</ele><time>2026-05-01T07:33:40.999Z</time></trkpt><trkpt lat="42.93452355893697" lon="9.464707857824983"><ele>0.9999999999999999</ele><time>2026-05-01T07:33:41.999Z</time></trkpt><trkpt lat="42.93457291424992" lon="9.46477988988681"><ele>1.0</ele><time>2026-05-01T07:33:42.999Z</time></trkpt><trkpt lat="42.93462185320219" lon="9.464854065334006"><ele>1.6666666666666665</ele><time>2026-05-01T07:33:43.999Z</time></trkpt><trkpt lat="42.934657851683305" lon="9.464958432970498"><ele>2.3333333333333335</ele><time>2026-05-01T07:33:44.999Z</time></trkpt><trkpt lat="42.934711806008956" lon="9.465066497837746"><ele>3.0</ele><time>2026-05-01T07:33:45.999Z</time></trkpt><trkpt lat="42.93475969114346" lon="9.465180082652477"><ele>3.666666666666667</ele><time>2026-05-01T07:33:46.999Z</time></trkpt><trkpt lat="42.93480004650282" lon="9.465293232916343"><ele>4.333333333333334</ele><time>2026-05-01T07:33:47.999Z</time></trkpt><trkpt lat="42.934824824029256" lon="9.465397490954102"><ele>5.0</ele><time>2026-05-01T07:33:48.999Z</time></trkpt><trkpt lat="42.934857309161764" lon="9.465492544361972"><ele>5.5</ele><time>2026-05-01T07:33:49.999Z</time></trkpt><trkpt lat="42.934864997123505" lon="9.465588711727982"><ele>6.0</ele><time>2026-05-01T07:33:50.999Z</time></trkpt><trkpt lat="42.93487001438267" lon="9.465679355993405"><ele>6.5</ele><time>2026-05-01T07:33:51.999Z</time></trkpt><trkpt lat="42.93488730398167" lon="9.465841856754192"><ele>7.0</ele><time>2026-05-01T07:33:53.999Z</time></trkpt><trkpt lat="42.9349142987947" lon="9.465934653340621"><ele>7.499999999999999</ele><time>2026-05-01T07:33:54.999Z</time></trkpt><trkpt lat="42.93494463294467" lon="9.466018354385817"><ele>8.0</ele><time>2026-05-01T07:33:55.999Z</time></trkpt><trkpt lat="42.93497563874701" lon="9.466152301099362"><ele>8.25</ele><time>2026-05-01T07:33:57.999Z</time></trkpt><trkpt lat="42.9350363637" lon="9.466311088562314"><ele>8.5</ele><time>2026-05-01T07:33:59.999Z</time></trkpt><trkpt lat="42.93507730520359" lon="9.466426440739198"><ele>8.75</ele><time>2026-05-01T07:34:00.999Z</time></trkpt><trkpt lat="42.93512312301844" lon="9.466563752935624"><ele>9.0</ele><time>2026-05-01T07:34:01.999Z</time></trkpt><trkpt lat="42.93516539898765" lon="9.466716761585596"><ele>14.25</ele><time>2026-05-01T07:34:02.999Z</time></trkpt><trkpt lat="42.93519600418958" lon="9.4668846458616"><ele>19.5</ele><time>2026-05-01T07:34:03.999Z</time></trkpt><trkpt lat="42.93520817532958" lon="9.467066820958369"><ele>24.75</ele><time>2026-05-01T07:34:04.999Z</time></trkpt><trkpt lat="42.93518419989537" lon="9.467256769564182"><ele>30.0</ele><time>2026-05-01T07:34:05.999Z</time></trkpt><trkpt lat="42.93517987468742" lon="9.467435907480995"><ele>30.75</ele><time>2026-05-01T07:34:06.999Z</time></trkpt><trkpt lat="42.93517508711699" lon="9.467617510369356"><ele>31.5</ele><time>2026-05-01T07:34:07.999Z</time></trkpt><trkpt lat="42.93519221191455" lon="9.46777785790101"><ele>32.25</ele><time>2026-05-01T07:34:08.999Z</time></trkpt><trkpt lat="42.935229050783256" lon="9.467923158407421"><ele>33.0</ele><time>2026-05-01T07:34:09.999Z</time></trkpt><trkpt lat="42.935281969481025" lon="9.468060272430751"><ele>30.25</ele><time>2026-05-01T07:34:10.999Z</time></trkpt><trkpt lat="42.935355829217364" lon="9.468184912363025"><ele>27.5</ele><time>2026-05-01T07:34:11.999Z</time></trkpt><trkpt lat="42.93544369640597" lon="9.468304529800129"><ele>24.75</ele><time>2026-05-01T07:34:12.999Z</time></trkpt><trkpt lat="42.93554119016874" lon="9.468416288425734"><ele>22.0</ele><time>2026-05-01T07:34:13.999Z</time></trkpt><trkpt lat="42.93564056065527" lon="9.468522541541647"><ele>22.0</ele><time>2026-05-01T07:34:14.999Z</time></trkpt><trkpt lat="42.935732155561816" lon="9.468609704776974"><ele>22.0</ele><time>2026-05-01T07:34:15.999Z</time></trkpt><trkpt lat="42.93582562890078" lon="9.468667202927643"><ele>22.0</ele><time>2026-05-01T07:34:16.999Z</time></trkpt><trkpt lat="42.93591589926456" lon="9.46869204581743"><ele>22.0</ele><time>2026-05-01T07:34:17.999Z</time></trkpt><trkpt lat="42.936007152446614" lon="9.468684749062971"><ele>22.0</ele><time>2026-05-01T07:34:18.999Z</time></trkpt><trkpt lat="42.93610862000283" lon="9.468638486134196"><ele>19.75</ele><time>2026-05-01T07:34:19.999Z</time></trkpt><trkpt lat="42.93619713848868" lon="9.468555398738966"><ele>17.5</ele><time>2026-05-01T07:34:20.999Z</time></trkpt><trkpt lat="42.936275231511026" lon="9.468448133076526"><ele>15.25</ele><time>2026-05-01T07:34:21.999Z</time></trkpt><trkpt lat="42.936344344597885" lon="9.468322577141517"><ele>13.0</ele><time>2026-05-01T07:34:22.999Z</time></trkpt><trkpt lat="42.936426016446255" lon="9.46819111798671"><ele>13.0</ele><time>2026-05-01T07:34:23.999Z</time></trkpt><trkpt lat="42.936517257175005" lon="9.468073780056365"><ele>13.0</ele><time>2026-05-01T07:34:24.999Z</time></trkpt><trkpt lat="42.936638312655255" lon="9.467993003052431"><ele>13.0</ele><time>2026-05-01T07:34:25.999Z</time></trkpt><trkpt lat="42.93676369920444" lon="9.467933215172216"><ele>13.0</ele><time>2026-05-01T07:34:26.999Z</time></trkpt><trkpt lat="42.936894293437845" lon="9.467869671165108"><ele>17.25</ele><time>2026-05-01T07:34:27.999Z</time></trkpt><trkpt lat="42.937008974857775" lon="9.467777834494616"><ele>21.5</ele><time>2026-05-01T07:34:28.999Z</time></trkpt><trkpt lat="42.937130773102986" lon="9.467718574563703"><ele>25.75</ele><time>2026-05-01T07:34:29.999Z</time></trkpt><trkpt lat="42.93726220282783" lon="9.467731452365209"><ele>30.0</ele><time>2026-05-01T07:34:30.999Z</time></trkpt><trkpt lat="42.93738253126385" lon="9.467748438116743"><ele>30.0</ele><time>2026-05-01T07:34:31.999Z</time></trkpt><trkpt lat="42.93749704490623" lon="9.467776297408111"><ele>30.0</ele><time>2026-05-01T07:34:32.999Z</time></trkpt><trkpt lat="42.93760811327279" lon="9.467797329127615"><ele>30.0</ele><time>2026-05-01T07:34:33.999Z</time></trkpt><trkpt lat="42.93771801838852" lon="9.467779049643527"><ele>30.0</ele><time>2026-05-01T07:34:34.999Z</time></trkpt><trkpt lat="42.93782811143828" lon="9.467762288570956"><ele>28.0</ele><time>2026-05-01T07:34:35.999Z</time></trkpt><trkpt lat="42.9379400247112" lon="9.46771399913199"><ele>26.0</ele><time>2026-05-01T07:34:36.999Z</time></trkpt><trkpt lat="42.93805130598072" lon="9.467617379819679"><ele>24.0</ele><time>2026-05-01T07:34:37.999Z</time></trkpt><trkpt lat="42.93814753899857" lon="9.46750786913995"><ele>22.0</ele><time>2026-05-01T07:34:38.999Z</time></trkpt><trkpt lat="42.93824222859469" lon="9.467389688853162"><ele>22.0</ele><time>2026-05-01T07:34:39.999Z</time></trkpt><trkpt lat="42.938350883589" lon="9.467292174971348"><ele>22.0</ele><time>2026-05-01T07:34:40.999Z</time></trkpt><trkpt lat="42.938481797337836" lon="9.467260746398638"><ele>22.0</ele><time>2026-05-01T07:34:41.999Z</time></trkpt><trkpt lat="42.938610678442956" lon="9.467203814602644"><ele>22.0</ele><time>2026-05-01T07:34:42.999Z</time></trkpt><trkpt lat="42.93873869238438" lon="9.467110741277581"><ele>22.75</ele><time>2026-05-01T07:34:43.999Z</time></trkpt><trkpt lat="42.93887330889994" lon="9.467041916083295"><ele>23.5</ele><time>2026-05-01T07:34:44.999Z</time></trkpt><trkpt lat="42.93898605716027" lon="9.466933901160568"><ele>24.25</ele><time>2026-05-01T07:34:45.999Z</time></trkpt><trkpt lat="42.93909150128498" lon="9.46683104848854"><ele>25.0</ele><time>2026-05-01T07:34:46.999Z</time></trkpt><trkpt lat="42.939184976600615" lon="9.466715503452585"><ele>25.75</ele><time>2026-05-01T07:34:47.999Z</time></trkpt><trkpt lat="42.93926338149237" lon="9.466597590880358"><ele>26.5</ele><time>2026-05-01T07:34:49Z</time></trkpt><trkpt lat="42.9393321911288" lon="9.466481464066437"><ele>27.25</ele><time>2026-05-01T07:34:50Z</time></trkpt><trkpt lat="42.93939920888222" lon="9.466359578077094"><ele>28.0</ele><time>2026-05-01T07:34:51Z</time></trkpt><trkpt lat="42.93946557477051" lon="9.466227101087226"><ele>28.0</ele><time>2026-05-01T07:34:52Z</time></trkpt><trkpt lat="42.939537136086926" lon="9.466103263541514"><ele>28.0</ele><time>2026-05-01T07:34:53Z</time></trkpt><trkpt lat="42.93963794205489" lon="9.466020314563329"><ele>28.0</ele><time>2026-05-01T07:34:54Z</time></trkpt><trkpt lat="42.93974223843799" lon="9.465941008625633"><ele>28.0</ele><time>2026-05-01T07:34:55Z</time></trkpt><trkpt lat="42.939857544610234" lon="9.465896770032614"><ele>28.0</ele><time>2026-05-01T07:34:56Z</time></trkpt><trkpt lat="42.939985579712435" lon="9.465856236393199"><ele>28.0</ele><time>2026-05-01T07:34:57Z</time></trkpt><trkpt lat="42.94010479982774" lon="9.465796312507742"><ele>28.0</ele><time>2026-05-01T07:34:58Z</time></trkpt><trkpt lat="42.940231177516274" lon="9.465747819964806"><ele>28.0</ele><time>2026-05-01T07:34:59Z</time></trkpt><trkpt lat="42.940347918563425" lon="9.46567088388058"><ele>28.75</ele><time>2026-05-01T07:35:00Z</time></trkpt><trkpt lat="42.94045364042972" lon="9.465570106625542"><ele>29.5</ele><time>2026-05-01T07:35:01Z</time></trkpt><trkpt lat="42.94055868368767" lon="9.46546285610011"><ele>30.25</ele><time>2026-05-01T07:35:02Z</time></trkpt><trkpt lat="42.940665037800656" lon="9.465353004193549"><ele>31.0</ele><time>2026-05-01T07:35:03Z</time></trkpt><trkpt lat="42.94076658720526" lon="9.465246011480195"><ele>31.0</ele><time>2026-05-01T07:35:04Z</time></trkpt><trkpt lat="42.94086306799344" lon="9.46513393299771"><ele>31.0</ele><time>2026-05-01T07:35:05Z</time></trkpt><trkpt lat="42.940956269482456" lon="9.465028598248688"><ele>31.0</ele><time>2026-05-01T07:35:06Z</time></trkpt><trkpt lat="42.94104504271109" lon="9.464923966583525"><ele>31.0</ele><time>2026-05-01T07:35:07Z</time></trkpt><trkpt lat="42.94113366236464" lon="9.464828676334342"><ele>27.6</ele><time>2026-05-01T07:35:08Z</time></trkpt><trkpt lat="42.941220004028395" lon="9.464743106894428"><ele>24.200000000000003</ele><time>2026-05-01T07:35:09Z</time></trkpt><trkpt lat="42.94131596355871" lon="9.464676660561908"><ele>20.799999999999997</ele><time>2026-05-01T07:35:10Z</time></trkpt><trkpt lat="42.94142506720403" lon="9.464625762288927"><ele>17.4</ele><time>2026-05-01T07:35:11Z</time></trkpt><trkpt lat="42.941540726343" lon="9.464626957819522"><ele>14.0</ele><time>2026-05-01T07:35:12Z</time></trkpt><trkpt lat="42.94165750203322" lon="9.464645312852028"><ele>13.5</ele><time>2026-05-01T07:35:13Z</time></trkpt><trkpt lat="42.94177502142886" lon="9.464680494848245"><ele>13.0</ele><time>2026-05-01T07:35:14Z</time></trkpt><trkpt lat="42.94189014567624" lon="9.46473376625335"><ele>12.5</ele><time>2026-05-01T07:35:15Z</time></trkpt><trkpt lat="42.94199847140877" lon="9.464797169492968"><ele>12.0</ele><time>2026-05-01T07:35:16Z</time></trkpt><trkpt lat="42.94210542833909" lon="9.464831614338113"><ele>12.0</ele><time>2026-05-01T07:35:17Z</time></trkpt><trkpt lat="42.9422052139345" lon="9.464868506982567"><ele>12.0</ele><time>2026-05-01T07:35:18Z</time></trkpt><trkpt lat="42.942306868554674" lon="9.464871287525577"><ele>12.0</ele><time>2026-05-01T07:35:19Z</time></trkpt><trkpt lat="42.94241158001438" lon="9.464847661767124"><ele>12.0</ele><time>2026-05-01T07:35:20Z</time></trkpt><trkpt lat="42.94251876994633" lon="9.464798455018355"><ele>12.0</ele><time>2026-05-01T07:35:21Z</time></trkpt><trkpt lat="42.94260826113949" lon="9.46471387043467"><ele>9.0</ele><time>2026-05-01T07:35:22Z</time></trkpt><trkpt lat="42.94267715889948" lon="9.464600383653174"><ele>6.0</ele><time>2026-05-01T07:35:23Z</time></trkpt><trkpt lat="42.94272478280703" lon="9.464456012130249"><ele>3.0</ele><time>2026-05-01T07:35:24Z</time></trkpt><trkpt lat="42.94274810598214" lon="9.464297494871813"><ele>0.0</ele><time>2026-05-01T07:35:25Z</time></trkpt><trkpt lat="42.94276061442707" lon="9.464133767279447"><ele>0.0</ele><time>2026-05-01T07:35:26Z</time></trkpt><trkpt lat="42.942782929751026" lon="9.46395091005529"><ele>0.0</ele><time>2026-05-01T07:35:27Z</time></trkpt><trkpt lat="42.942806364725385" lon="9.46375559063838"><ele>0.0</ele><time>2026-05-01T07:35:28Z</time></trkpt><trkpt lat="42.942826351295935" lon="9.46356987793913"><ele>0.0</ele><time>2026-05-01T07:35:29Z</time></trkpt><trkpt lat="42.94285309842718" lon="9.463393188472622"><ele>0.75</ele><time>2026-05-01T07:35:30Z</time></trkpt><trkpt lat="42.9428881099041" lon="9.463219485575756"><ele>1.5</ele><time>2026-05-01T07:35:31Z</time></trkpt><trkpt lat="42.94292967305334" lon="9.463049212085238"><ele>2.25</ele><time>2026-05-01T07:35:32Z</time></trkpt><trkpt lat="42.94298631159092" lon="9.462874140176766"><ele>3.0</ele><time>2026-05-01T07:35:33Z</time></trkpt><trkpt lat="42.9430596046622" lon="9.462703325344625"><ele>4.0</ele><time>2026-05-01T07:35:34Z</time></trkpt><trkpt lat="42.943132183010235" lon="9.462546592924957"><ele>5.0</ele><time>2026-05-01T07:35:35Z</time></trkpt><trkpt lat="42.94319422057563" lon="9.462392134510015"><ele>6.0</ele><time>2026-05-01T07:35:36Z</time></trkpt><trkpt lat="42.943237959125575" lon="9.462234676010036"><ele>7.0</ele><time>2026-05-01T07:35:37Z</time></trkpt><trkpt lat="42.94326171695897" lon="9.462074857030892"><ele>8.5</ele><time>2026-05-01T07:35:38Z</time></trkpt><trkpt lat="42.943283924509316" lon="9.461911021742806"><ele>10.0</ele><time>2026-05-01T07:35:39Z</time></trkpt><trkpt lat="42.94330531106362" lon="9.461757385268555"><ele>11.5</ele><time>2026-05-01T07:35:40Z</time></trkpt><trkpt lat="42.943354105984184" lon="9.461626119375733"><ele>13.0</ele><time>2026-05-01T07:35:41Z</time></trkpt><trkpt lat="42.94342725674253" lon="9.461513713524658"><ele>13.999999999999998</ele><time>2026-05-01T07:35:42Z</time></trkpt><trkpt lat="42.94350404858528" lon="9.461430267327373"><ele>15.0</ele><time>2026-05-01T07:35:42.999Z</time></trkpt><trkpt lat="42.94358669340977" lon="9.461389608936015"><ele>16.0</ele><time>2026-05-01T07:35:43.999Z</time></trkpt><trkpt lat="42.94366386653707" lon="9.461400716407892"><ele>17.0</ele><time>2026-05-01T07:35:44.999Z</time></trkpt><trkpt lat="42.943732182074825" lon="9.46145866904921"><ele>18.0</ele><time>2026-05-01T07:35:45.999Z</time></trkpt><trkpt lat="42.943804423292455" lon="9.461525072098103"><ele>19.0</ele><time>2026-05-01T07:35:46.999Z</time></trkpt><trkpt lat="42.943876862882355" lon="9.461613660634365"><ele>19.0</ele><time>2026-05-01T07:35:47.999Z</time></trkpt><trkpt lat="42.94394215405006" lon="9.46173817366509"><ele>19.0</ele><time>2026-05-01T07:35:48.999Z</time></trkpt><trkpt lat="42.94403355850936" lon="9.461842069338816"><ele>19.0</ele><time>2026-05-01T07:35:49.999Z</time></trkpt><trkpt lat="42.9441264703427" lon="9.46194428628894"><ele>19.0</ele><time>2026-05-01T07:35:50.999Z</time></trkpt><trkpt lat="42.94422392585485" lon="9.462035196161693"><ele>20.2</ele><time>2026-05-01T07:35:51.999Z</time></trkpt><trkpt lat="42.94432430707626" lon="9.462111587344873"><ele>21.4</ele><time>2026-05-01T07:35:52.999Z</time></trkpt><trkpt lat="42.94442876061433" lon="9.462179974683634"><ele>22.6</ele><time>2026-05-01T07:35:53.999Z</time></trkpt><trkpt lat="42.94452638364928" lon="9.462251269589869"><ele>23.8</ele><time>2026-05-01T07:35:54.999Z</time></trkpt><trkpt lat="42.94461519792755" lon="9.462318702886947"><ele>25.0</ele><time>2026-05-01T07:35:55.999Z</time></trkpt><trkpt lat="42.94469116032017" lon="9.462362832192486"><ele>22.166666666666668</ele><time>2026-05-01T07:35:56.999Z</time></trkpt><trkpt lat="42.94476537213257" lon="9.462392443720898"><ele>19.333333333333336</ele><time>2026-05-01T07:35:57.999Z</time></trkpt><trkpt lat="42.94484402213484" lon="9.462399419302622"><ele>16.5</ele><time>2026-05-01T07:35:58.999Z</time></trkpt><trkpt lat="42.94492410682932" lon="9.462373833242559"><ele>13.666666666666668</ele><time>2026-05-01T07:35:59.999Z</time></trkpt><trkpt lat="42.94500723777948" lon="9.462317731643177"><ele>10.833333333333332</ele><time>2026-05-01T07:36:00.999Z</time></trkpt><trkpt lat="42.94508425260806" lon="9.462229124319247"><ele>8.0</ele><time>2026-05-01T07:36:01.999Z</time></trkpt><trkpt lat="42.94514347161291" lon="9.462109446928746"><ele>7.5</ele><time>2026-05-01T07:36:02.999Z</time></trkpt><trkpt lat="42.94518578696007" lon="9.461968320344257"><ele>7.0</ele><time>2026-05-01T07:36:03.999Z</time></trkpt><trkpt lat="42.94522386139004" lon="9.461811968051164"><ele>6.5</ele><time>2026-05-01T07:36:04.999Z</time></trkpt><trkpt lat="42.945269568348124" lon="9.46165210575821"><ele>6.0</ele><time>2026-05-01T07:36:05.999Z</time></trkpt><trkpt lat="42.94535573564083" lon="9.46150833689619"><ele>6.0</ele><time>2026-05-01T07:36:06.999Z</time></trkpt><trkpt lat="42.94544865384808" lon="9.461364727050464"><ele>6.0</ele><time>2026-05-01T07:36:07.999Z</time></trkpt><trkpt lat="42.94555368248492" lon="9.461234994577321"><ele>6.0</ele><time>2026-05-01T07:36:08.999Z</time></trkpt><trkpt lat="42.94566120289714" lon="9.461104251725759"><ele>6.0</ele><time>2026-05-01T07:36:09.999Z</time></trkpt><trkpt lat="42.94575940566955" lon="9.460982781225251"><ele>6.0</ele><time>2026-05-01T07:36:10.999Z</time></trkpt><trkpt lat="42.9458660797823" lon="9.460876350467835"><ele>6.0</ele><time>2026-05-01T07:36:11.999Z</time></trkpt><trkpt lat="42.94599202621381" lon="9.46079035917648"><ele>6.0</ele><time>2026-05-01T07:36:12.999Z</time></trkpt><trkpt lat="42.94612655627843" lon="9.46072446405135"><ele>6.0</ele><time>2026-05-01T07:36:13.999Z</time></trkpt><trkpt lat="42.946263057021106" lon="9.460669008196524"><ele>6.0</ele><time>2026-05-01T07:36:14.999Z</time></trkpt><trkpt lat="42.94636932442822" lon="9.460624999712994"><ele>6.0</ele><time>2026-05-01T07:36:15.999Z</time></trkpt><trkpt lat="42.946454057364846" lon="9.460571502215641"><ele>6.0</ele><time>2026-05-01T07:36:16.999Z</time></trkpt><trkpt lat="42.94652289658672" lon="9.460486247474464"><ele>6.0</ele><time>2026-05-01T07:36:17.999Z</time></trkpt><trkpt lat="42.946584309733666" lon="9.460345091427158"><ele>6.0</ele><time>2026-05-01T07:36:18.999Z</time></trkpt><trkpt lat="42.94666333697292" lon="9.460156381542474"><ele>6.333333333333334</ele><time>2026-05-01T07:36:19.999Z</time></trkpt><trkpt lat="42.946750444465586" lon="9.459934996647828"><ele>6.666666666666667</ele><time>2026-05-01T07:36:20.999Z</time></trkpt><trkpt lat="42.94686728491353" lon="9.459787359259845"><ele>7.0</ele><time>2026-05-01T07:36:21.999Z</time></trkpt><trkpt lat="42.94699856602524" lon="9.459689440083686"><ele>7.0</ele><time>2026-05-01T07:36:22.999Z</time></trkpt><trkpt lat="42.94713773282916" lon="9.459662268120429"><ele>7.0</ele><time>2026-05-01T07:36:23.999Z</time></trkpt><trkpt lat="42.94724534166335" lon="9.459587623211549"><ele>7.0</ele><time>2026-05-01T07:36:24.999Z</time></trkpt><trkpt lat="42.947334271772" lon="9.459514565973539"><ele>7.0</ele><time>2026-05-01T07:36:25.999Z</time></trkpt><trkpt lat="42.94739638896977" lon="9.45938955878813"><ele>5.333333333333334</ele><time>2026-05-01T07:36:26.999Z</time></trkpt><trkpt lat="42.94746520252718" lon="9.459188851515421"><ele>3.666666666666667</ele><time>2026-05-01T07:36:27.999Z</time></trkpt><trkpt lat="42.94755680010232" lon="9.458941577977923"><ele>2.0</ele><time>2026-05-01T07:36:28.999Z</time></trkpt><trkpt lat="42.94770068692863" lon="9.458724284134181"><ele>5.333333333333333</ele><time>2026-05-01T07:36:29.999Z</time></trkpt><trkpt lat="42.94784873751351" lon="9.45852739212389"><ele>8.666666666666666</ele><time>2026-05-01T07:36:30.999Z</time></trkpt><trkpt lat="42.94798020290488" lon="9.458355341512393"><ele>12.0</ele><time>2026-05-01T07:36:31.999Z</time></trkpt><trkpt lat="42.948107853088246" lon="9.458192293852607"><ele>12.0</ele><time>2026-05-01T07:36:32.999Z</time></trkpt><trkpt lat="42.948243899609196" lon="9.458049665748314"><ele>12.0</ele><time>2026-05-01T07:36:33.999Z</time></trkpt><trkpt lat="42.94838440001484" lon="9.457926693538127"><ele>12.0</ele><time>2026-05-01T07:36:34.999Z</time></trkpt><trkpt lat="42.94850095292969" lon="9.457821849062546"><ele>10.25</ele><time>2026-05-01T07:36:35.999Z</time></trkpt><trkpt lat="42.948610685648404" lon="9.457733499425387"><ele>8.5</ele><time>2026-05-01T07:36:36.999Z</time></trkpt><trkpt lat="42.94869511399042" lon="9.457642833366561"><ele>6.75</ele><time>2026-05-01T07:36:37.999Z</time></trkpt><trkpt lat="42.948772578379035" lon="9.457521111843214"><ele>5.0</ele><time>2026-05-01T07:36:38.999Z</time></trkpt><trkpt lat="42.94883027234662" lon="9.457371424786647"><ele>5.0</ele><time>2026-05-01T07:36:39.999Z</time></trkpt><trkpt lat="42.94887953567093" lon="9.45719712941826"><ele>5.0</ele><time>2026-05-01T07:36:40.999Z</time></trkpt><trkpt lat="42.94893690874296" lon="9.456980331699672"><ele>5.0</ele><time>2026-05-01T07:36:41.999Z</time></trkpt><trkpt lat="42.94899179885525" lon="9.456749034250702"><ele>4.75</ele><time>2026-05-01T07:36:42.999Z</time></trkpt><trkpt lat="42.94904550422073" lon="9.456553056055489"><ele>4.5</ele><time>2026-05-01T07:36:43.999Z</time></trkpt><trkpt lat="42.94910310941882" lon="9.456390724517641"><ele>4.25</ele><time>2026-05-01T07:36:44.999Z</time></trkpt><trkpt lat="42.94921219796858" lon="9.456299444257867"><ele>4.0</ele><time>2026-05-01T07:36:45.999Z</time></trkpt><trkpt lat="42.94932748347104" lon="9.45621884951721"><ele>6.0</ele><time>2026-05-01T07:36:46.999Z</time></trkpt><trkpt lat="42.9494501147819" lon="9.456123585670998"><ele>8.0</ele><time>2026-05-01T07:36:47.999Z</time></trkpt><trkpt lat="42.94958183495146" lon="9.45605356650063"><ele>10.0</ele><time>2026-05-01T07:36:48.999Z</time></trkpt><trkpt lat="42.94970136163136" lon="9.455981103836438"><ele>12.0</ele><time>2026-05-01T07:36:49.999Z</time></trkpt><trkpt lat="42.949807878559405" lon="9.455906899829706"><ele>12.0</ele><time>2026-05-01T07:36:50.999Z</time></trkpt><trkpt lat="42.94991230363277" lon="9.455857393152957"><ele>12.0</ele><time>2026-05-01T07:36:51.999Z</time></trkpt><trkpt lat="42.95002548754123" lon="9.455868083226704"><ele>12.0</ele><time>2026-05-01T07:36:52.999Z</time></trkpt><trkpt lat="42.95013932570923" lon="9.455875674911752"><ele>12.0</ele><time>2026-05-01T07:36:53.999Z</time></trkpt><trkpt lat="42.95027025650422" lon="9.455861560027992"><ele>11.25</ele><time>2026-05-01T07:36:55Z</time></trkpt><trkpt lat="42.95039870754214" lon="9.455863174696553"><ele>10.5</ele><time>2026-05-01T07:36:56Z</time></trkpt><trkpt lat="42.95051389879551" lon="9.455841447270553"><ele>9.75</ele><time>2026-05-01T07:36:57Z</time></trkpt><trkpt lat="42.950627533404344" lon="9.455781689095915"><ele>9.0</ele><time>2026-05-01T07:36:58Z</time></trkpt><trkpt lat="42.95073961530059" lon="9.45567613575441"><ele>9.0</ele><time>2026-05-01T07:36:59Z</time></trkpt><trkpt lat="42.95082724164031" lon="9.4555466768276"><ele>9.0</ele><time>2026-05-01T07:37:00Z</time></trkpt><trkpt lat="42.950888469861326" lon="9.45540500727727"><ele>9.0</ele><time>2026-05-01T07:37:01Z</time></trkpt><trkpt lat="42.95093901696211" lon="9.45527117514521"><ele>9.0</ele><time>2026-05-01T07:37:02Z</time></trkpt><trkpt lat="42.95101377731326" lon="9.455169486177217"><ele>12.2</ele><time>2026-05-01T07:37:03Z</time></trkpt><trkpt lat="42.951105490044526" lon="9.45510312002133"><ele>15.4</ele><time>2026-05-01T07:37:04Z</time></trkpt><trkpt lat="42.951212818212625" lon="9.455097040601192"><ele>18.6</ele><time>2026-05-01T07:37:05Z</time></trkpt><trkpt lat="42.951311183705364" lon="9.455134038652966"><ele>21.8</ele><time>2026-05-01T07:37:06Z</time></trkpt><trkpt lat="42.951397490899545" lon="9.455211719944453"><ele>25.0</ele><time>2026-05-01T07:37:07Z</time></trkpt><trkpt lat="42.95149460556825" lon="9.455324320832176"><ele>26.666666666666668</ele><time>2026-05-01T07:37:08Z</time></trkpt><trkpt lat="42.951601894833566" lon="9.455476600991128"><ele>28.333333333333336</ele><time>2026-05-01T07:37:09Z</time></trkpt><trkpt lat="42.95172255810648" lon="9.455652708096215"><ele>30.0</ele><time>2026-05-01T07:37:10Z</time></trkpt><trkpt lat="42.95185624998154" lon="9.455842472179539"><ele>30.0</ele><time>2026-05-01T07:37:11Z</time></trkpt><trkpt lat="42.952009448392545" lon="9.456019116442333"><ele>30.0</ele><time>2026-05-01T07:37:12Z</time></trkpt><trkpt lat="42.95213917033252" lon="9.45619046802929"><ele>30.0</ele><time>2026-05-01T07:37:13Z</time></trkpt><trkpt lat="42.95225752624336" lon="9.45633550911756"><ele>24.0</ele><time>2026-05-01T07:37:14Z</time></trkpt><trkpt lat="42.952369035219526" lon="9.45642174895574"><ele>18.0</ele><time>2026-05-01T07:37:15Z</time></trkpt><trkpt lat="42.95248332673633" lon="9.456459833252191"><ele>12.0</ele><time>2026-05-01T07:37:16Z</time></trkpt><trkpt lat="42.9526136393439" lon="9.456442744644738"><ele>6.0</ele><time>2026-05-01T07:37:17Z</time></trkpt><trkpt lat="42.95275086625153" lon="9.45637246717903"><ele>5.0</ele><time>2026-05-01T07:37:18Z</time></trkpt><trkpt lat="42.952931079115935" lon="9.456320242370378"><ele>4.0</ele><time>2026-05-01T07:37:19Z</time></trkpt><trkpt lat="42.95312387463936" lon="9.456212589575832"><ele>3.0</ele><time>2026-05-01T07:37:20Z</time></trkpt><trkpt lat="42.9533258659066" lon="9.456122663113632"><ele>8.0</ele><time>2026-05-01T07:37:21Z</time></trkpt><trkpt lat="42.953512768037804" lon="9.456055017101827"><ele>13.0</ele><time>2026-05-01T07:37:22Z</time></trkpt><trkpt lat="42.95367476857584" lon="9.45602700073812"><ele>18.0</ele><time>2026-05-01T07:37:23Z</time></trkpt><trkpt lat="42.95382392075093" lon="9.456056971761022"><ele>18.0</ele><time>2026-05-01T07:37:24Z</time></trkpt><trkpt lat="42.95396125281826" lon="9.456110216223077"><ele>18.0</ele><time>2026-05-01T07:37:25Z</time></trkpt><trkpt lat="42.95410619691459" lon="9.456163975288517"><ele>18.0</ele><time>2026-05-01T07:37:26Z</time></trkpt><trkpt lat="42.95424037626909" lon="9.456168716495883"><ele>18.0</ele><time>2026-05-01T07:37:27Z</time></trkpt><trkpt lat="42.954368777631586" lon="9.456159344986316"><ele>15.0</ele><time>2026-05-01T07:37:28Z</time></trkpt><trkpt lat="42.95449096574697" lon="9.456088459541327"><ele>12.0</ele><time>2026-05-01T07:37:29Z</time></trkpt><trkpt lat="42.95462043771462" lon="9.455957851568721"><ele>9.0</ele><time>2026-05-01T07:37:30Z</time></trkpt><trkpt lat="42.9547909451513" lon="9.455847586734773"><ele>9.0</ele><time>2026-05-01T07:37:31Z</time></trkpt><trkpt lat="42.95497093254445" lon="9.455768584233573"><ele>9.0</ele><time>2026-05-01T07:37:32Z</time></trkpt><trkpt lat="42.95513946716603" lon="9.455709710530234"><ele>9.0</ele><time>2026-05-01T07:37:33Z</time></trkpt><trkpt lat="42.955298636119" lon="9.455660699933896"><ele>7.25</ele><time>2026-05-01T07:37:34Z</time></trkpt><trkpt lat="42.95544195077715" lon="9.45561657113284"><ele>5.5</ele><time>2026-05-01T07:37:35Z</time></trkpt><trkpt lat="42.955571206878226" lon="9.455547222448056"><ele>3.75</ele><time>2026-05-01T07:37:36Z</time></trkpt><trkpt lat="42.955695234309786" lon="9.455479469341215"><ele>2.0</ele><time>2026-05-01T07:37:37Z</time></trkpt><trkpt lat="42.955796199201984" lon="9.455410292226212"><ele>2.0</ele><time>2026-05-01T07:37:38Z</time></trkpt><trkpt lat="42.95589962287749" lon="9.455345274622891"><ele>2.0</ele><time>2026-05-01T07:37:39Z</time></trkpt><trkpt lat="42.95599455791157" lon="9.455283059946712"><ele>2.0</ele><time>2026-05-01T07:37:40Z</time></trkpt><trkpt lat="42.95609012035084" lon="9.455249691504436"><ele>2.0</ele><time>2026-05-01T07:37:41Z</time></trkpt><trkpt lat="42.95619112269227" lon="9.455225083521468"><ele>2.0</ele><time>2026-05-01T07:37:42Z</time></trkpt><trkpt lat="42.95628669171221" lon="9.455197448107725"><ele>1.9999999999999998</ele><time>2026-05-01T07:37:43Z</time></trkpt><trkpt lat="42.95637721398955" lon="9.4551712720491"><ele>2.0</ele><time>2026-05-01T07:37:44Z</time></trkpt><trkpt lat="42.95646201458217" lon="9.4551485109612"><ele>2.0</ele><time>2026-05-01T07:37:45Z</time></trkpt><trkpt lat="42.95654158308989" lon="9.455134250906895"><ele>2.0</ele><time>2026-05-01T07:37:46Z</time></trkpt><trkpt lat="42.95662492487544" lon="9.45512610854922"><ele>1.9999999999999998</ele><time>2026-05-01T07:37:47Z</time></trkpt><trkpt lat="42.95671651597153" lon="9.455119540017986"><ele>2.0</ele><time>2026-05-01T07:37:48Z</time></trkpt><trkpt lat="42.95680289442243" lon="9.45512032411152"><ele>1.857142857142857</ele><time>2026-05-01T07:37:49Z</time></trkpt><trkpt lat="42.956884439019625" lon="9.455120071056177"><ele>1.714285714285714</ele><time>2026-05-01T07:37:50Z</time></trkpt><trkpt lat="42.95695513375692" lon="9.45511964087424"><ele>1.5714285714285714</ele><time>2026-05-01T07:37:51Z</time></trkpt><trkpt lat="42.95702459006286" lon="9.455118579992499"><ele>1.4285714285714284</ele><time>2026-05-01T07:37:51.999Z</time></trkpt><trkpt lat="42.95709525761191" lon="9.455117680583161"><ele>1.2857142857142856</ele><time>2026-05-01T07:37:52.999Z</time></trkpt><trkpt lat="42.95716465780703" lon="9.45511447382703"><ele>1.1428571428571428</ele><time>2026-05-01T07:37:53.999Z</time></trkpt><trkpt lat="42.957231556664844" lon="9.455106029794136"><ele>1.0</ele><time>2026-05-01T07:37:54.999Z</time></trkpt><trkpt lat="42.95733994617932" lon="9.455064708775701"><ele>1.0</ele><time>2026-05-01T07:37:56.999Z</time></trkpt><trkpt lat="42.9574086435379" lon="9.45502255209152"><ele>1.0</ele><time>2026-05-01T07:37:58.999Z</time></trkpt><trkpt lat="42.95747031771195" lon="9.454966704799702"><ele>1.0</ele><time>2026-05-01T07:37:59.999Z</time></trkpt><trkpt lat="42.95753323700424" lon="9.454869627770128"><ele>1.0</ele><time>2026-05-01T07:38:00.999Z</time></trkpt><trkpt lat="42.95759052769669" lon="9.45474974628293"><ele>1.0</ele><time>2026-05-01T07:38:01.999Z</time></trkpt><trkpt lat="42.95766213427785" lon="9.454617389588533"><ele>0.25</ele><time>2026-05-01T07:38:02.999Z</time></trkpt><trkpt lat="42.9577206964545" lon="9.45447115859625"><ele>-0.5</ele><time>2026-05-01T07:38:03.999Z</time></trkpt><trkpt lat="42.95778634417261" lon="9.454323360421705"><ele>-1.25</ele><time>2026-05-01T07:38:04.999Z</time></trkpt><trkpt lat="42.95785066146014" lon="9.454171828217499"><ele>-2.0</ele><time>2026-05-01T07:38:05.999Z</time></trkpt><trkpt lat="42.95791884842966" lon="9.454020211618758"><ele>-2.0</ele><time>2026-05-01T07:38:06.999Z</time></trkpt><trkpt lat="42.95799314268841" lon="9.453881341513565"><ele>-2.0</ele><time>2026-05-01T07:38:07.999Z</time></trkpt><trkpt lat="42.95807088075653" lon="9.453760001517692"><ele>-2.0</ele><time>2026-05-01T07:38:08.999Z</time></trkpt><trkpt lat="42.9581652035505" lon="9.453656645783674"><ele>-2.0</ele><time>2026-05-01T07:38:09.999Z</time></trkpt><trkpt lat="42.95828086255378" lon="9.453592179810128"><ele>-1.25</ele><time>2026-05-01T07:38:10.999Z</time></trkpt><trkpt lat="42.95839246994949" lon="9.453498975549703"><ele>-0.5</ele><time>2026-05-01T07:38:11.999Z</time></trkpt><trkpt lat="42.95850677925838" lon="9.453441674442807"><ele>0.25</ele><time>2026-05-01T07:38:12.999Z</time></trkpt><trkpt lat="42.95860489690509" lon="9.453384480004695"><ele>1.0</ele><time>2026-05-01T07:38:13.999Z</time></trkpt><trkpt lat="42.95869652304561" lon="9.453339935378468"><ele>1.0</ele><time>2026-05-01T07:38:14.999Z</time></trkpt><trkpt lat="42.95881305745597" lon="9.453322934041925"><ele>1.0</ele><time>2026-05-01T07:38:15.999Z</time></trkpt><trkpt lat="42.95891041563871" lon="9.453302728883875"><ele>1.0</ele><time>2026-05-01T07:38:16.999Z</time></trkpt><trkpt lat="42.95901108050566" lon="9.453241278692527"><ele>1.0</ele><time>2026-05-01T07:38:17.999Z</time></trkpt><trkpt lat="42.959096442138836" lon="9.453185730366885"><ele>1.0</ele><time>2026-05-01T07:38:18.999Z</time></trkpt><trkpt lat="42.95912954567878" lon="9.453044664103432"><ele>1.2000000000000002</ele><time>2026-05-01T07:38:19.999Z</time></trkpt><trkpt lat="42.95914959378484" lon="9.452923892105634"><ele>1.4000000000000001</ele><time>2026-05-01T07:38:20.999Z</time></trkpt><trkpt lat="42.9590913177795" lon="9.452781711713262"><ele>1.6</ele><time>2026-05-01T07:38:21.999Z</time></trkpt><trkpt lat="42.95903173416433" lon="9.452647146640693"><ele>1.8</ele><time>2026-05-01T07:38:22.999Z</time></trkpt><trkpt lat="42.958980390381946" lon="9.452501566789062"><ele>2.0</ele><time>2026-05-01T07:38:23.999Z</time></trkpt><trkpt lat="42.958937647600436" lon="9.45234426168883"><ele>2.0</ele><time>2026-05-01T07:38:24.999Z</time></trkpt><trkpt lat="42.95889972546884" lon="9.452184271458389"><ele>2.0</ele><time>2026-05-01T07:38:25.999Z</time></trkpt><trkpt lat="42.958863760864695" lon="9.452036809074091"><ele>2.0</ele><time>2026-05-01T07:38:26.999Z</time></trkpt><trkpt lat="42.95883554774499" lon="9.451920844150159"><ele>2.0</ele><time>2026-05-01T07:38:27.999Z</time></trkpt><trkpt lat="42.958820921074405" lon="9.451826239457962"><ele>2.0</ele><time>2026-05-01T07:38:28.999Z</time></trkpt><trkpt lat="42.95880421647479" lon="9.451727435341619"><ele>1.8</ele><time>2026-05-01T07:38:29.999Z</time></trkpt><trkpt lat="42.958763098246095" lon="9.451622224498552"><ele>1.6</ele><time>2026-05-01T07:38:30.999Z</time></trkpt><trkpt lat="42.958723659887575" lon="9.451501118745158"><ele>1.4000000000000001</ele><time>2026-05-01T07:38:31.999Z</time></trkpt><trkpt lat="42.95868953140936" lon="9.451366734457519"><ele>1.2000000000000002</ele><time>2026-05-01T07:38:32.999Z</time></trkpt><trkpt lat="42.958651935772664" lon="9.451214979401408"><ele>1.0</ele><time>2026-05-01T07:38:33.999Z</time></trkpt><trkpt lat="42.95860523579286" lon="9.451055660028478"><ele>1.75</ele><time>2026-05-01T07:38:34.999Z</time></trkpt><trkpt lat="42.95855149263167" lon="9.450891437340124"><ele>2.5</ele><time>2026-05-01T07:38:35.999Z</time></trkpt><trkpt lat="42.95849037757158" lon="9.450721603140787"><ele>3.25</ele><time>2026-05-01T07:38:36.999Z</time></trkpt><trkpt lat="42.95843547347805" lon="9.450537289875836"><ele>4.0</ele><time>2026-05-01T07:38:37.999Z</time></trkpt><trkpt lat="42.9583667548862" lon="9.450352875867956"><ele>5.0</ele><time>2026-05-01T07:38:38.999Z</time></trkpt><trkpt lat="42.95829661746937" lon="9.450164948888782"><ele>6.0</ele><time>2026-05-01T07:38:39.999Z</time></trkpt><trkpt lat="42.95822497427938" lon="9.44996683812129"><ele>7.0</ele><time>2026-05-01T07:38:40.999Z</time></trkpt><trkpt lat="42.95815269298275" lon="9.449767708477102"><ele>7.333333333333334</ele><time>2026-05-01T07:38:41.999Z</time></trkpt><trkpt lat="42.95807660434767" lon="9.449569872640067"><ele>7.666666666666666</ele><time>2026-05-01T07:38:42.999Z</time></trkpt><trkpt lat="42.95799929816281" lon="9.449365259651412"><ele>8.0</ele><time>2026-05-01T07:38:43.999Z</time></trkpt><trkpt lat="42.95792437151721" lon="9.44916386414839"><ele>8.0</ele><time>2026-05-01T07:38:44.999Z</time></trkpt><trkpt lat="42.95785405144951" lon="9.44898007923959"><ele>8.0</ele><time>2026-05-01T07:38:45.999Z</time></trkpt><trkpt lat="42.957795258907886" lon="9.448819010999667"><ele>8.0</ele><time>2026-05-01T07:38:46.999Z</time></trkpt><trkpt lat="42.95774661825541" lon="9.448676588268368"><ele>8.0</ele><time>2026-05-01T07:38:47.999Z</time></trkpt><trkpt lat="42.957701330797015" lon="9.44854721392505"><ele>8.0</ele><time>2026-05-01T07:38:48.999Z</time></trkpt><trkpt lat="42.9576465476559" lon="9.448396219407336"><ele>8.0</ele><time>2026-05-01T07:38:49.999Z</time></trkpt><trkpt lat="42.95758831468965" lon="9.448236283349084"><ele>8.0</ele><time>2026-05-01T07:38:50.999Z</time></trkpt><trkpt lat="42.95753869988604" lon="9.448096577508734"><ele>8.0</ele><time>2026-05-01T07:38:51.999Z</time></trkpt><trkpt lat="42.957494217500326" lon="9.447984768860294"><ele>8.600000000000001</ele><time>2026-05-01T07:38:52.999Z</time></trkpt><trkpt lat="42.9574521594385" lon="9.447877358594226"><ele>9.200000000000001</ele><time>2026-05-01T07:38:53.999Z</time></trkpt><trkpt lat="42.95740531708656" lon="9.447755924169002"><ele>9.8</ele><time>2026-05-01T07:38:54.999Z</time></trkpt><trkpt lat="42.95735219189563" lon="9.44761245644055"><ele>10.4</ele><time>2026-05-01T07:38:55.999Z</time></trkpt><trkpt lat="42.95729237032766" lon="9.447454793014824"><ele>11.0</ele><time>2026-05-01T07:38:56.999Z</time></trkpt><trkpt lat="42.95723001167208" lon="9.447289784494375"><ele>11.5</ele><time>2026-05-01T07:38:57.999Z</time></trkpt><trkpt lat="42.95716435880251" lon="9.44712457349214"><ele>12.0</ele><time>2026-05-01T07:38:58.999Z</time></trkpt><trkpt lat="42.95710899080057" lon="9.446962047896466"><ele>12.5</ele><time>2026-05-01T07:38:59.999Z</time></trkpt><trkpt lat="42.95705265937126" lon="9.446813643231547"><ele>13.0</ele><time>2026-05-01T07:39:01Z</time></trkpt><trkpt lat="42.957002809220874" lon="9.44668369475679"><ele>13.0</ele><time>2026-05-01T07:39:02Z</time></trkpt><trkpt lat="42.95695782424605" lon="9.446561635718627"><ele>13.0</ele><time>2026-05-01T07:39:03Z</time></trkpt><trkpt lat="42.95691710833283" lon="9.446447794600518"><ele>13.0</ele><time>2026-05-01T07:39:04Z</time></trkpt><trkpt lat="42.95687843919323" lon="9.446334816940483"><ele>13.0</ele><time>2026-05-01T07:39:05Z</time></trkpt><trkpt lat="42.95683119977534" lon="9.446222673579829"><ele>13.0</ele><time>2026-05-01T07:39:06Z</time></trkpt><trkpt lat="42.9567862539542" lon="9.446108826661208"><ele>13.166666666666666</ele><time>2026-05-01T07:39:07Z</time></trkpt><trkpt lat="42.956744633042725" lon="9.44599773178473"><ele>13.333333333333332</ele><time>2026-05-01T07:39:08Z</time></trkpt><trkpt lat="42.95670589392606" lon="9.445897580084171"><ele>13.5</ele><time>2026-05-01T07:39:09Z</time></trkpt><trkpt lat="42.95666817333063" lon="9.445808855845511"><ele>13.666666666666668</ele><time>2026-05-01T07:39:10Z</time></trkpt><trkpt lat="42.95663514516976" lon="9.445726618168328"><ele>13.833333333333334</ele><time>2026-05-01T07:39:11Z</time></trkpt><trkpt lat="42.956600041016394" lon="9.44562905275646"><ele>14.0</ele><time>2026-05-01T07:39:12Z</time></trkpt><trkpt lat="42.956584573286015" lon="9.445497599788682"><ele>14.5</ele><time>2026-05-01T07:39:13Z</time></trkpt><trkpt lat="42.956523705436986" lon="9.445355009279119"><ele>15.0</ele><time>2026-05-01T07:39:14Z</time></trkpt><trkpt lat="42.95648799695504" lon="9.44518743269928"><ele>15.5</ele><time>2026-05-01T07:39:15Z</time></trkpt><trkpt lat="42.95644302826161" lon="9.445005638826972"><ele>16.0</ele><time>2026-05-01T07:39:16Z</time></trkpt><trkpt lat="42.956391119890895" lon="9.444808266657425"><ele>17.333333333333332</ele><time>2026-05-01T07:39:17Z</time></trkpt><trkpt lat="42.95633406786605" lon="9.444589051108741"><ele>18.666666666666668</ele><time>2026-05-01T07:39:18Z</time></trkpt><trkpt lat="42.95627202544886" lon="9.444358213389911"><ele>20.0</ele><time>2026-05-01T07:39:19Z</time></trkpt><trkpt lat="42.95620630928171" lon="9.44411729717571"><ele>20.0</ele><time>2026-05-01T07:39:20Z</time></trkpt><trkpt lat="42.956135268484836" lon="9.443866056029009"><ele>20.0</ele><time>2026-05-01T07:39:21Z</time></trkpt><trkpt lat="42.956064993279234" lon="9.443610308743875"><ele>20.0</ele><time>2026-05-01T07:39:22Z</time></trkpt><trkpt lat="42.955996760824696" lon="9.443356462603026"><ele>22.0</ele><time>2026-05-01T07:39:23Z</time></trkpt><trkpt lat="42.95593465186214" lon="9.443100543598934"><ele>24.0</ele><time>2026-05-01T07:39:24Z</time></trkpt><trkpt lat="42.95587207602553" lon="9.442868813217192"><ele>26.0</ele><time>2026-05-01T07:39:25Z</time></trkpt><trkpt lat="42.95582650432491" lon="9.44265542129939"><ele>26.333333333333332</ele><time>2026-05-01T07:39:26Z</time></trkpt><trkpt lat="42.955807189934276" lon="9.442446275252124"><ele>26.666666666666664</ele><time>2026-05-01T07:39:27Z</time></trkpt><trkpt lat="42.955825421114994" lon="9.44222846589603"><ele>27.0</ele><time>2026-05-01T07:39:28Z</time></trkpt><trkpt lat="42.95583693820957" lon="9.441997126273954"><ele>28.0</ele><time>2026-05-01T07:39:29Z</time></trkpt><trkpt lat="42.955854878903544" lon="9.44176025522433"><ele>29.0</ele><time>2026-05-01T07:39:30Z</time></trkpt><trkpt lat="42.95582885980041" lon="9.441525645659958"><ele>30.0</ele><time>2026-05-01T07:39:31Z</time></trkpt><trkpt lat="42.95575947563488" lon="9.441288784164433"><ele>31.666666666666664</ele><time>2026-05-01T07:39:32Z</time></trkpt><trkpt lat="42.95571919509887" lon="9.441042545049934"><ele>33.33333333333333</ele><time>2026-05-01T07:39:33Z</time></trkpt><trkpt lat="42.95566980004293" lon="9.440797519180414"><ele>35.0</ele><time>2026-05-01T07:39:34Z</time></trkpt><trkpt lat="42.95562446350859" lon="9.440561970812421"><ele>37.0</ele><time>2026-05-01T07:39:35Z</time></trkpt><trkpt lat="42.95559742530703" lon="9.440333321429256"><ele>39.0</ele><time>2026-05-01T07:39:36Z</time></trkpt><trkpt lat="42.95560329857758" lon="9.440093689885027"><ele>41.0</ele><time>2026-05-01T07:39:37Z</time></trkpt><trkpt lat="42.95564751171895" lon="9.439864757032312"><ele>42.666666666666664</ele><time>2026-05-01T07:39:38Z</time></trkpt><trkpt lat="42.95569749850275" lon="9.43962002865355"><ele>44.333333333333336</ele><time>2026-05-01T07:39:39Z</time></trkpt><trkpt lat="42.95577458976256" lon="9.439387105947095"><ele>46.0</ele><time>2026-05-01T07:39:40Z</time></trkpt><trkpt lat="42.95581990862771" lon="9.439173101687794"><ele>46.0</ele><time>2026-05-01T07:39:41Z</time></trkpt><trkpt lat="42.95580824749501" lon="9.43899705873703"><ele>46.0</ele><time>2026-05-01T07:39:42Z</time></trkpt><trkpt lat="42.95572476190281" lon="9.438849870422157"><ele>46.0</ele><time>2026-05-01T07:39:43Z</time></trkpt><trkpt lat="42.95560358638793" lon="9.43871566620389"><ele>46.0</ele><time>2026-05-01T07:39:44Z</time></trkpt><trkpt lat="42.955482015838" lon="9.438558543607995"><ele>48.66666666666667</ele><time>2026-05-01T07:39:45Z</time></trkpt><trkpt lat="42.95542997861505" lon="9.43833857155702"><ele>51.333333333333336</ele><time>2026-05-01T07:39:46Z</time></trkpt><trkpt lat="42.955345302482804" lon="9.4381062942808"><ele>54.0</ele><time>2026-05-01T07:39:47Z</time></trkpt><trkpt lat="42.955273010258715" lon="9.437860243780829"><ele>57.33333333333333</ele><time>2026-05-01T07:39:48Z</time></trkpt><trkpt lat="42.95523185871371" lon="9.437626248142605"><ele>60.666666666666664</ele><time>2026-05-01T07:39:49Z</time></trkpt><trkpt lat="42.955259908882034" lon="9.437400217707571"><ele>64.0</ele><time>2026-05-01T07:39:50Z</time></trkpt><trkpt lat="42.95531278641065" lon="9.437174556977467"><ele>65.0</ele><time>2026-05-01T07:39:51Z</time></trkpt><trkpt lat="42.955412484990326" lon="9.436991093728231"><ele>66.0</ele><time>2026-05-01T07:39:52Z</time></trkpt><trkpt lat="42.95552115609277" lon="9.436838862897556"><ele>67.0</ele><time>2026-05-01T07:39:53Z</time></trkpt><trkpt lat="42.95559355334314" lon="9.436689390325943"><ele>67.0</ele><time>2026-05-01T07:39:54Z</time></trkpt><trkpt lat="42.95560981114631" lon="9.436553402525213"><ele>67.0</ele><time>2026-05-01T07:39:55Z</time></trkpt><trkpt lat="42.955545843342804" lon="9.436427036040305"><ele>67.0</ele><time>2026-05-01T07:39:56Z</time></trkpt><trkpt lat="42.95543555896536" lon="9.43634181441388"><ele>67.0</ele><time>2026-05-01T07:39:57Z</time></trkpt><trkpt lat="42.95531538886019" lon="9.436320922343201"><ele>67.0</ele><time>2026-05-01T07:39:58Z</time></trkpt><trkpt lat="42.95521166889559" lon="9.436308469463699"><ele>67.0</ele><time>2026-05-01T07:39:59Z</time></trkpt><trkpt lat="42.95513081792734" lon="9.436255251106365"><ele>67.0</ele><time>2026-05-01T07:40:00Z</time></trkpt><trkpt lat="42.955086970097994" lon="9.436152066349024"><ele>67.0</ele><time>2026-05-01T07:40:01Z</time></trkpt><trkpt lat="42.95507533568552" lon="9.436036721366385"><ele>67.0</ele><time>2026-05-01T07:40:02Z</time></trkpt><trkpt lat="42.95509782471911" lon="9.435904383397267"><ele>69.0</ele><time>2026-05-01T07:40:02.999Z</time></trkpt><trkpt lat="42.95509137171096" lon="9.435732954416713"><ele>71.0</ele><time>2026-05-01T07:40:03.999Z</time></trkpt><trkpt lat="42.9551019665885" lon="9.435542360794935"><ele>73.0</ele><time>2026-05-01T07:40:04.999Z</time></trkpt><trkpt lat="42.955112338343" lon="9.435340424358607"><ele>75.0</ele><time>2026-05-01T07:40:05.999Z</time></trkpt><trkpt lat="42.95512478498272" lon="9.435152327075789"><ele>75.6</ele><time>2026-05-01T07:40:06.999Z</time></trkpt><trkpt lat="42.95513868068132" lon="9.434995933344359"><ele>76.2</ele><time>2026-05-01T07:40:07.999Z</time></trkpt><trkpt lat="42.95515865780293" lon="9.434868286975375"><ele>76.8</ele><time>2026-05-01T07:40:08.999Z</time></trkpt><trkpt lat="42.95519437089805" lon="9.434743728480393"><ele>77.4</ele><time>2026-05-01T07:40:09.999Z</time></trkpt><trkpt lat="42.95525806103452" lon="9.434640528783024"><ele>78.0</ele><time>2026-05-01T07:40:10.999Z</time></trkpt><trkpt lat="42.955346108399844" lon="9.434569015462131"><ele>78.0</ele><time>2026-05-01T07:40:11.999Z</time></trkpt><trkpt lat="42.9554435213245" lon="9.43451240766685"><ele>78.0</ele><time>2026-05-01T07:40:12.999Z</time></trkpt><trkpt lat="42.955542115024" lon="9.434460524450587"><ele>78.0</ele><time>2026-05-01T07:40:13.999Z</time></trkpt><trkpt lat="42.955625668831416" lon="9.434398223273263"><ele>78.0</ele><time>2026-05-01T07:40:14.999Z</time></trkpt><trkpt lat="42.95568201522855" lon="9.434306300616083"><ele>78.0</ele><time>2026-05-01T07:40:15.999Z</time></trkpt><trkpt lat="42.955711423291206" lon="9.43419162200432"><ele>78.0</ele><time>2026-05-01T07:40:16.999Z</time></trkpt><trkpt lat="42.95570519239214" lon="9.434067423182121"><ele>78.0</ele><time>2026-05-01T07:40:17.999Z</time></trkpt><trkpt lat="42.95566660920359" lon="9.433939555473199"><ele>78.0</ele><time>2026-05-01T07:40:18.999Z</time></trkpt><trkpt lat="42.955614022399146" lon="9.433811839000892"><ele>78.0</ele><time>2026-05-01T07:40:19.999Z</time></trkpt><trkpt lat="42.95554124181294" lon="9.433702163363774"><ele>78.0</ele><time>2026-05-01T07:40:20.999Z</time></trkpt><trkpt lat="42.9554544950175" lon="9.433622010238253"><ele>79.0</ele><time>2026-05-01T07:40:21.999Z</time></trkpt><trkpt lat="42.95535952541536" lon="9.433574837904175"><ele>80.0</ele><time>2026-05-01T07:40:22.999Z</time></trkpt><trkpt lat="42.955248857461484" lon="9.433590551306521"><ele>81.0</ele><time>2026-05-01T07:40:23.999Z</time></trkpt><trkpt lat="42.955146127485065" lon="9.433559948087684"><ele>82.0</ele><time>2026-05-01T07:40:24.999Z</time></trkpt><trkpt lat="42.955065350587205" lon="9.433479497977649"><ele>83.0</ele><time>2026-05-01T07:40:25.999Z</time></trkpt><trkpt lat="42.95501189824961" lon="9.433360989516233"><ele>83.5</ele><time>2026-05-01T07:40:26.999Z</time></trkpt><trkpt lat="42.95497464531175" lon="9.433228954243829"><ele>84.0</ele><time>2026-05-01T07:40:27.999Z</time></trkpt><trkpt lat="42.95494563526246" lon="9.433100684606393"><ele>84.5</ele><time>2026-05-01T07:40:28.999Z</time></trkpt><trkpt lat="42.95493747913917" lon="9.432995448963236"><ele>85.0</ele><time>2026-05-01T07:40:29.999Z</time></trkpt><trkpt lat="42.95495330010444" lon="9.432889943973779"><ele>85.5</ele><time>2026-05-01T07:40:30.999Z</time></trkpt><trkpt lat="42.955006951248" lon="9.432805577698705"><ele>86.0</ele><time>2026-05-01T07:40:31.999Z</time></trkpt><trkpt lat="42.95508061638956" lon="9.432745657485764"><ele>86.0</ele><time>2026-05-01T07:40:32.999Z</time></trkpt><trkpt lat="42.95516794237095" lon="9.432696003078103"><ele>86.0</ele><time>2026-05-01T07:40:33.999Z</time></trkpt><trkpt lat="42.955258139118406" lon="9.432633029470614"><ele>86.0</ele><time>2026-05-01T07:40:34.999Z</time></trkpt><trkpt lat="42.955346400119424" lon="9.432567253758146"><ele>86.0</ele><time>2026-05-01T07:40:35.999Z</time></trkpt><trkpt lat="42.95542490800144" lon="9.432501395166522"><ele>86.0</ele><time>2026-05-01T07:40:36.999Z</time></trkpt><trkpt lat="42.95549805907803" lon="9.432393201586912"><ele>86.0</ele><time>2026-05-01T07:40:37.999Z</time></trkpt><trkpt lat="42.95555103412542" lon="9.432201019181264"><ele>86.0</ele><time>2026-05-01T07:40:38.999Z</time></trkpt><trkpt lat="42.95561919808293" lon="9.431954576371906"><ele>86.0</ele><time>2026-05-01T07:40:39.999Z</time></trkpt><trkpt lat="42.95567434546492" lon="9.431671629249077"><ele>86.66666666666667</ele><time>2026-05-01T07:40:40.999Z</time></trkpt><trkpt lat="42.955752544454334" lon="9.431399700859156"><ele>87.33333333333333</ele><time>2026-05-01T07:40:41.999Z</time></trkpt><trkpt lat="42.95581921924926" lon="9.431140164209266"><ele>88.0</ele><time>2026-05-01T07:40:42.999Z</time></trkpt><trkpt lat="42.95587616237335" lon="9.430925819311538"><ele>94.5</ele><time>2026-05-01T07:40:43.999Z</time></trkpt><trkpt lat="42.95596015459562" lon="9.4307465089129"><ele>101.0</ele><time>2026-05-01T07:40:44.999Z</time></trkpt><trkpt lat="42.95602528986676" lon="9.430574294125835"><ele>107.5</ele><time>2026-05-01T07:40:45.999Z</time></trkpt><trkpt lat="42.956087116442966" lon="9.430435375461807"><ele>114.0</ele><time>2026-05-01T07:40:46.999Z</time></trkpt><trkpt lat="42.95609280926466" lon="9.430295023910524"><ele>115.25</ele><time>2026-05-01T07:40:47.999Z</time></trkpt><trkpt lat="42.95604234116879" lon="9.430177834523114"><ele>116.5</ele><time>2026-05-01T07:40:48.999Z</time></trkpt><trkpt lat="42.95594422150159" lon="9.430102710057652"><ele>117.75</ele><time>2026-05-01T07:40:49.999Z</time></trkpt><trkpt lat="42.95577567470823" lon="9.430070332456944"><ele>119.0</ele><time>2026-05-01T07:40:50.999Z</time></trkpt><trkpt lat="42.95561356749083" lon="9.430051145295453"><ele>117.5</ele><time>2026-05-01T07:40:51.999Z</time></trkpt><trkpt lat="42.95547743519717" lon="9.430002246710085"><ele>116.0</ele><time>2026-05-01T07:40:52.999Z</time></trkpt><trkpt lat="42.955383443927" lon="9.42989150962395"><ele>114.5</ele><time>2026-05-01T07:40:53.999Z</time></trkpt><trkpt lat="42.955327439279536" lon="9.429723186033184"><ele>113.0</ele><time>2026-05-01T07:40:54.999Z</time></trkpt><trkpt lat="42.95529711098323" lon="9.429539770080677"><ele>113.0</ele><time>2026-05-01T07:40:55.999Z</time></trkpt><trkpt lat="42.95525981022693" lon="9.42933047655534"><ele>113.0</ele><time>2026-05-01T07:40:56.999Z</time></trkpt><trkpt lat="42.955219691310184" lon="9.429104395923181"><ele>113.0</ele><time>2026-05-01T07:40:57.999Z</time></trkpt><trkpt lat="42.9552433549947" lon="9.428862756823737"><ele>112.66666666666666</ele><time>2026-05-01T07:40:58.999Z</time></trkpt><trkpt lat="42.95527446303717" lon="9.428618835561913"><ele>112.33333333333334</ele><time>2026-05-01T07:40:59.999Z</time></trkpt><trkpt lat="42.955314928623" lon="9.428379969657525"><ele>112.0</ele><time>2026-05-01T07:41:00.999Z</time></trkpt><trkpt lat="42.955427613020554" lon="9.428206822023508"><ele>112.0</ele><time>2026-05-01T07:41:01.999Z</time></trkpt><trkpt lat="42.95554304025068" lon="9.428060673707982"><ele>112.0</ele><time>2026-05-01T07:41:02.999Z</time></trkpt><trkpt lat="42.95567995260663" lon="9.42796296683697"><ele>112.0</ele><time>2026-05-01T07:41:03.999Z</time></trkpt><trkpt lat="42.95583473844849" lon="9.42785135389793"><ele>114.0</ele><time>2026-05-01T07:41:04.999Z</time></trkpt><trkpt lat="42.95599083177708" lon="9.427739616196932"><ele>116.0</ele><time>2026-05-01T07:41:05.999Z</time></trkpt><trkpt lat="42.95612156147749" lon="9.42757675406022"><ele>118.0</ele><time>2026-05-01T07:41:06.999Z</time></trkpt><trkpt lat="42.95624234881781" lon="9.42737703616861"><ele>118.0</ele><time>2026-05-01T07:41:07.999Z</time></trkpt><trkpt lat="42.956327552564396" lon="9.427180096947088"><ele>118.0</ele><time>2026-05-01T07:41:08.999Z</time></trkpt><trkpt lat="42.9564380404157" lon="9.42703921281286"><ele>118.0</ele><time>2026-05-01T07:41:09.999Z</time></trkpt><trkpt lat="42.956586634294354" lon="9.42699402179444"><ele>118.0</ele><time>2026-05-01T07:41:10.999Z</time></trkpt><trkpt lat="42.9567134525443" lon="9.426992728787456"><ele>118.0</ele><time>2026-05-01T07:41:11.999Z</time></trkpt><trkpt lat="42.95681258521293" lon="9.427052254146266"><ele>118.0</ele><time>2026-05-01T07:41:12.999Z</time></trkpt><trkpt lat="42.95691772514138" lon="9.427112060461331"><ele>118.0</ele><time>2026-05-01T07:41:13.999Z</time></trkpt><trkpt lat="42.95701736422664" lon="9.427208986257755"><ele>118.0</ele><time>2026-05-01T07:41:14.999Z</time></trkpt><trkpt lat="42.95713652274314" lon="9.42729870018088"><ele>118.0</ele><time>2026-05-01T07:41:15.999Z</time></trkpt><trkpt lat="42.95726946420091" lon="9.427362939456547"><ele>118.0</ele><time>2026-05-01T07:41:16.999Z</time></trkpt><trkpt lat="42.9574278487584" lon="9.427374851627302"><ele>118.0</ele><time>2026-05-01T07:41:17.999Z</time></trkpt><trkpt lat="42.95756958887304" lon="9.427345169370183"><ele>119.0</ele><time>2026-05-01T07:41:18.999Z</time></trkpt><trkpt lat="42.95771099381662" lon="9.4273706809331"><ele>120.0</ele><time>2026-05-01T07:41:20Z</time></trkpt><trkpt lat="42.95782908226401" lon="9.427404513570286"><ele>121.0</ele><time>2026-05-01T07:41:21Z</time></trkpt><trkpt lat="42.957916448310826" lon="9.427471910199644"><ele>122.0</ele><time>2026-05-01T07:41:22Z</time></trkpt><trkpt lat="42.957998722159935" lon="9.427573076452793"><ele>122.0</ele><time>2026-05-01T07:41:23Z</time></trkpt><trkpt lat="42.958069751902705" lon="9.427719020471013"><ele>122.0</ele><time>2026-05-01T07:41:24Z</time></trkpt><trkpt lat="42.9581724012113" lon="9.427893155093253"><ele>122.0</ele><time>2026-05-01T07:41:25Z</time></trkpt><trkpt lat="42.95830408889955" lon="9.428015756007214"><ele>122.0</ele><time>2026-05-01T07:41:26Z</time></trkpt><trkpt lat="42.9584643697657" lon="9.428058209688912"><ele>122.0</ele><time>2026-05-01T07:41:27Z</time></trkpt><trkpt lat="42.958616600552396" lon="9.428041027687788"><ele>122.0</ele><time>2026-05-01T07:41:28Z</time></trkpt><trkpt lat="42.95874844570852" lon="9.427924665607256"><ele>122.0</ele><time>2026-05-01T07:41:29Z</time></trkpt><trkpt lat="42.95886210999223" lon="9.42776202298723"><ele>122.0</ele><time>2026-05-01T07:41:30Z</time></trkpt><trkpt lat="42.959004816635456" lon="9.42759769468141"><ele>122.0</ele><time>2026-05-01T07:41:31Z</time></trkpt><trkpt lat="42.95914745592188" lon="9.427434301678911"><ele>124.75</ele><time>2026-05-01T07:41:32Z</time></trkpt><trkpt lat="42.95928582747579" lon="9.427298151445687"><ele>127.5</ele><time>2026-05-01T07:41:33Z</time></trkpt><trkpt lat="42.95941978433573" lon="9.42724453221153"><ele>130.25</ele><time>2026-05-01T07:41:34Z</time></trkpt><trkpt lat="42.95953874636402" lon="9.42729063242874"><ele>133.0</ele><time>2026-05-01T07:41:35Z</time></trkpt><trkpt lat="42.95965147042207" lon="9.427394863971362"><ele>133.0</ele><time>2026-05-01T07:41:36Z</time></trkpt><trkpt lat="42.95980789293792" lon="9.427522853193965"><ele>133.0</ele><time>2026-05-01T07:41:37Z</time></trkpt><trkpt lat="42.9599766345578" lon="9.42763555133435"><ele>133.0</ele><time>2026-05-01T07:41:38Z</time></trkpt><trkpt lat="42.96014001579998" lon="9.42771615592353"><ele>139.33333333333334</ele><time>2026-05-01T07:41:39Z</time></trkpt><trkpt lat="42.960304468339466" lon="9.427781428042454"><ele>145.66666666666666</ele><time>2026-05-01T07:41:40Z</time></trkpt><trkpt lat="42.96048275580733" lon="9.427833218431697"><ele>152.0</ele><time>2026-05-01T07:41:41Z</time></trkpt><trkpt lat="42.960653918499716" lon="9.427900561407577"><ele>152.0</ele><time>2026-05-01T07:41:42Z</time></trkpt><trkpt lat="42.96081759778714" lon="9.427972138203751"><ele>152.0</ele><time>2026-05-01T07:41:43Z</time></trkpt><trkpt lat="42.96096577833047" lon="9.428074102561261"><ele>152.0</ele><time>2026-05-01T07:41:44Z</time></trkpt><trkpt lat="42.961109922201175" lon="9.428164471979567"><ele>145.66666666666666</ele><time>2026-05-01T07:41:45Z</time></trkpt><trkpt lat="42.96126729970478" lon="9.428177838201732"><ele>139.33333333333334</ele><time>2026-05-01T07:41:46Z</time></trkpt><trkpt lat="42.961439890047025" lon="9.42817208299515"><ele>133.0</ele><time>2026-05-01T07:41:47Z</time></trkpt><trkpt lat="42.96159749288962" lon="9.428210092568008"><ele>130.66666666666669</ele><time>2026-05-01T07:41:48Z</time></trkpt><trkpt lat="42.9617521248733" lon="9.428232928343313"><ele>128.33333333333334</ele><time>2026-05-01T07:41:49Z</time></trkpt><trkpt lat="42.961903814564" lon="9.428186458504793"><ele>126.0</ele><time>2026-05-01T07:41:50Z</time></trkpt><trkpt lat="42.962042198441225" lon="9.428069925553503"><ele>129.33333333333334</ele><time>2026-05-01T07:41:51Z</time></trkpt><trkpt lat="42.9621418329164" lon="9.427911234957458"><ele>132.66666666666669</ele><time>2026-05-01T07:41:52Z</time></trkpt><trkpt lat="42.962190497821645" lon="9.427711567850173"><ele>136.0</ele><time>2026-05-01T07:41:53Z</time></trkpt><trkpt lat="42.96221072358926" lon="9.427508598996571"><ele>136.0</ele><time>2026-05-01T07:41:54Z</time></trkpt><trkpt lat="42.962195557516935" lon="9.427308982894626"><ele>136.0</ele><time>2026-05-01T07:41:55Z</time></trkpt><trkpt lat="42.96216104840349" lon="9.427119251266769"><ele>136.0</ele><time>2026-05-01T07:41:56Z</time></trkpt><trkpt lat="42.96212509737427" lon="9.426923870692976"><ele>136.0</ele><time>2026-05-01T07:41:57Z</time></trkpt><trkpt lat="42.962087115444625" lon="9.42670482043645"><ele>137.33333333333334</ele><time>2026-05-01T07:41:58Z</time></trkpt><trkpt lat="42.96205476572024" lon="9.426489636339372"><ele>138.66666666666666</ele><time>2026-05-01T07:41:59Z</time></trkpt><trkpt lat="42.962015189009286" lon="9.426270171128644"><ele>140.0</ele><time>2026-05-01T07:42:00Z</time></trkpt><trkpt lat="42.96199291145791" lon="9.42604974260978"><ele>142.5</ele><time>2026-05-01T07:42:01Z</time></trkpt><trkpt lat="42.96202361492826" lon="9.425841580763727"><ele>145.0</ele><time>2026-05-01T07:42:02Z</time></trkpt><trkpt lat="42.962066109053275" lon="9.425650111069153"><ele>147.5</ele><time>2026-05-01T07:42:03Z</time></trkpt><trkpt lat="42.96208802681279" lon="9.425467563983144"><ele>150.0</ele><time>2026-05-01T07:42:04Z</time></trkpt><trkpt lat="42.96211568275368" lon="9.425322204573508"><ele>151.6</ele><time>2026-05-01T07:42:05Z</time></trkpt><trkpt lat="42.96216449063528" lon="9.425207962056037"><ele>153.2</ele><time>2026-05-01T07:42:06Z</time></trkpt><trkpt lat="42.962248431509565" lon="9.425153921925878"><ele>154.8</ele><time>2026-05-01T07:42:07Z</time></trkpt><trkpt lat="42.96234569486674" lon="9.425161659086418"><ele>156.4</ele><time>2026-05-01T07:42:08Z</time></trkpt><trkpt lat="42.962446367316396" lon="9.4252050596629"><ele>158.0</ele><time>2026-05-01T07:42:09Z</time></trkpt><trkpt lat="42.96254605799599" lon="9.425237750155762"><ele>158.0</ele><time>2026-05-01T07:42:10Z</time></trkpt><trkpt lat="42.96263123500209" lon="9.425203869789383"><ele>158.0</ele><time>2026-05-01T07:42:11Z</time></trkpt><trkpt lat="42.96269332653968" lon="9.425096056508073"><ele>158.0</ele><time>2026-05-01T07:42:12Z</time></trkpt><trkpt lat="42.962741807681226" lon="9.42494632043105"><ele>158.0</ele><time>2026-05-01T07:42:12.999Z</time></trkpt><trkpt lat="42.96276503396704" lon="9.42473655209585"><ele>162.66666666666666</ele><time>2026-05-01T07:42:13.999Z</time></trkpt><trkpt lat="42.96279517335369" lon="9.42451936962627"><ele>167.33333333333334</ele><time>2026-05-01T07:42:14.999Z</time></trkpt><trkpt lat="42.96281145056252" lon="9.424298917075365"><ele>172.0</ele><time>2026-05-01T07:42:15.999Z</time></trkpt><trkpt lat="42.96285000014329" lon="9.424088002966304"><ele>172.0</ele><time>2026-05-01T07:42:16.999Z</time></trkpt><trkpt lat="42.962880182267654" lon="9.423906114607362"><ele>172.0</ele><time>2026-05-01T07:42:17.999Z</time></trkpt><trkpt lat="42.96291601375777" lon="9.423757501404635"><ele>172.0</ele><time>2026-05-01T07:42:18.999Z</time></trkpt><trkpt lat="42.96303118688357" lon="9.423677154842855"><ele>172.0</ele><time>2026-05-01T07:42:20.999Z</time></trkpt><trkpt lat="42.96311806847333" lon="9.42370558748542"><ele>172.0</ele><time>2026-05-01T07:42:21.999Z</time></trkpt><trkpt lat="42.963207912468754" lon="9.423828921492818"><ele>172.0</ele><time>2026-05-01T07:42:22.999Z</time></trkpt><trkpt lat="42.96330958073674" lon="9.42399477286302"><ele>172.0</ele><time>2026-05-01T07:42:23.999Z</time></trkpt><trkpt lat="42.9634405911144" lon="9.424196093889801"><ele>170.66666666666669</ele><time>2026-05-01T07:42:24.999Z</time></trkpt><trkpt lat="42.96357914933719" lon="9.424397868787581"><ele>169.33333333333334</ele><time>2026-05-01T07:42:25.999Z</time></trkpt><trkpt lat="42.963704661276054" lon="9.424573267161295"><ele>168.0</ele><time>2026-05-01T07:42:26.999Z</time></trkpt><trkpt lat="42.963841352355665" lon="9.42469564489158"><ele>168.0</ele><time>2026-05-01T07:42:27.999Z</time></trkpt><trkpt lat="42.96401269515959" lon="9.42478467131388"><ele>168.0</ele><time>2026-05-01T07:42:28.999Z</time></trkpt><trkpt lat="42.96417610309203" lon="9.424831911247713"><ele>168.0</ele><time>2026-05-01T07:42:29.999Z</time></trkpt><trkpt lat="42.964302692612684" lon="9.424794781037667"><ele>169.33333333333334</ele><time>2026-05-01T07:42:30.999Z</time></trkpt><trkpt lat="42.964402601998174" lon="9.42468565506255"><ele>170.66666666666669</ele><time>2026-05-01T07:42:31.999Z</time></trkpt><trkpt lat="42.96447022454106" lon="9.424492004756896"><ele>172.0</ele><time>2026-05-01T07:42:32.999Z</time></trkpt><trkpt lat="42.96452434392837" lon="9.424256761819434"><ele>176.0</ele><time>2026-05-01T07:42:33.999Z</time></trkpt><trkpt lat="42.964608067211444" lon="9.424040773256689"><ele>180.0</ele><time>2026-05-01T07:42:34.999Z</time></trkpt><trkpt lat="42.96472228875262" lon="9.423899884833359"><ele>184.0</ele><time>2026-05-01T07:42:35.999Z</time></trkpt><trkpt lat="42.964852520498994" lon="9.423851982048753"><ele>184.0</ele><time>2026-05-01T07:42:36.999Z</time></trkpt><trkpt lat="42.9649683560899" lon="9.42393662344366"><ele>184.0</ele><time>2026-05-01T07:42:37.999Z</time></trkpt><trkpt lat="42.96507891902087" lon="9.424039342255114"><ele>184.0</ele><time>2026-05-01T07:42:38.999Z</time></trkpt><trkpt lat="42.965152453388924" lon="9.424216661933908"><ele>184.0</ele><time>2026-05-01T07:42:39.999Z</time></trkpt><trkpt lat="42.9652742475471" lon="9.424378997868182"><ele>186.66666666666669</ele><time>2026-05-01T07:42:40.999Z</time></trkpt><trkpt lat="42.96538102807951" lon="9.424472821278007"><ele>189.33333333333334</ele><time>2026-05-01T07:42:41.999Z</time></trkpt><trkpt lat="42.96554106801702" lon="9.4244598837574"><ele>192.0</ele><time>2026-05-01T07:42:42.999Z</time></trkpt><trkpt lat="42.96572853302288" lon="9.424396177542777"><ele>191.66666666666666</ele><time>2026-05-01T07:42:43.999Z</time></trkpt><trkpt lat="42.96592642627031" lon="9.424371223439389"><ele>191.33333333333331</ele><time>2026-05-01T07:42:44.999Z</time></trkpt><trkpt lat="42.966120868727096" lon="9.42435277396486"><ele>191.0</ele><time>2026-05-01T07:42:45.999Z</time></trkpt><trkpt lat="42.966272031646405" lon="9.424403454929616"><ele>191.0</ele><time>2026-05-01T07:42:46.999Z</time></trkpt><trkpt lat="42.96640213425345" lon="9.424516918197758"><ele>191.0</ele><time>2026-05-01T07:42:47.999Z</time></trkpt><trkpt lat="42.96653357403303" lon="9.42458316985775"><ele>191.0</ele><time>2026-05-01T07:42:48.999Z</time></trkpt><trkpt lat="42.96666680787629" lon="9.4246139767193"><ele>191.0</ele><time>2026-05-01T07:42:49.999Z</time></trkpt><trkpt lat="42.96679431464742" lon="9.424518194821875"><ele>187.33333333333331</ele><time>2026-05-01T07:42:50.999Z</time></trkpt><trkpt lat="42.96692481723117" lon="9.42438332843412"><ele>183.66666666666666</ele><time>2026-05-01T07:42:51.999Z</time></trkpt><trkpt lat="42.96701660278901" lon="9.42417996113292"><ele>180.0</ele><time>2026-05-01T07:42:52.999Z</time></trkpt><trkpt lat="42.96704014804244" lon="9.423956318646598"><ele>184.66666666666669</ele><time>2026-05-01T07:42:53.999Z</time></trkpt><trkpt lat="42.96700944917055" lon="9.42373659821596"><ele>189.33333333333334</ele><time>2026-05-01T07:42:54.999Z</time></trkpt><trkpt lat="42.96703905490338" lon="9.423548063189173"><ele>194.0</ele><time>2026-05-01T07:42:55.999Z</time></trkpt><trkpt lat="42.9671790622182" lon="9.423438788460547"><ele>194.0</ele><time>2026-05-01T07:42:56.999Z</time></trkpt><trkpt lat="42.967285944991325" lon="9.42328064755332"><ele>194.0</ele><time>2026-05-01T07:42:57.999Z</time></trkpt><trkpt lat="42.96733048146406" lon="9.42308296342775"><ele>194.0</ele><time>2026-05-01T07:42:58.999Z</time></trkpt><trkpt lat="42.967336696799876" lon="9.422834456495542"><ele>196.0</ele><time>2026-05-01T07:42:59.999Z</time></trkpt><trkpt lat="42.96736825087846" lon="9.422576499311344"><ele>198.0</ele><time>2026-05-01T07:43:00.999Z</time></trkpt><trkpt lat="42.96744154360315" lon="9.42236653402779"><ele>200.0</ele><time>2026-05-01T07:43:01.999Z</time></trkpt><trkpt lat="42.96748312464739" lon="9.42217815250744"><ele>201.75</ele><time>2026-05-01T07:43:02.999Z</time></trkpt><trkpt lat="42.967458887999186" lon="9.422006558874726"><ele>203.5</ele><time>2026-05-01T07:43:03.999Z</time></trkpt><trkpt lat="42.967376754429324" lon="9.421848075494909"><ele>205.25</ele><time>2026-05-01T07:43:04.999Z</time></trkpt><trkpt lat="42.96732373121429" lon="9.421708407736636"><ele>207.0</ele><time>2026-05-01T07:43:05.999Z</time></trkpt><trkpt lat="42.967349780261195" lon="9.421562947445656"><ele>207.0</ele><time>2026-05-01T07:43:06.999Z</time></trkpt><trkpt lat="42.967442008907796" lon="9.421449805830992"><ele>207.0</ele><time>2026-05-01T07:43:07.999Z</time></trkpt><trkpt lat="42.96758283414387" lon="9.421353851921086"><ele>207.0</ele><time>2026-05-01T07:43:08.999Z</time></trkpt><trkpt lat="42.967747606628166" lon="9.42124306873392"><ele>207.33333333333331</ele><time>2026-05-01T07:43:09.999Z</time></trkpt><trkpt lat="42.9678925824571" lon="9.421106259657055"><ele>207.66666666666666</ele><time>2026-05-01T07:43:10.999Z</time></trkpt><trkpt lat="42.96801584245495" lon="9.420948339911972"><ele>208.0</ele><time>2026-05-01T07:43:11.999Z</time></trkpt><trkpt lat="42.96809262568863" lon="9.420749507350573"><ele>208.0</ele><time>2026-05-01T07:43:13Z</time></trkpt><trkpt lat="42.9681123347566" lon="9.420518046062416"><ele>208.0</ele><time>2026-05-01T07:43:14Z</time></trkpt><trkpt lat="42.968095531051105" lon="9.420260964463528"><ele>208.0</ele><time>2026-05-01T07:43:15Z</time></trkpt><trkpt lat="42.96809813976403" lon="9.420012626289875"><ele>207.0</ele><time>2026-05-01T07:43:16Z</time></trkpt><trkpt lat="42.96815442750934" lon="9.419795049910588"><ele>206.0</ele><time>2026-05-01T07:43:17Z</time></trkpt><trkpt lat="42.96827451198241" lon="9.419633709035482"><ele>205.0</ele><time>2026-05-01T07:43:18Z</time></trkpt><trkpt lat="42.968418495779844" lon="9.419545465711643"><ele>205.0</ele><time>2026-05-01T07:43:19Z</time></trkpt><trkpt lat="42.96852172937692" lon="9.419423316804451"><ele>205.0</ele><time>2026-05-01T07:43:20Z</time></trkpt><trkpt lat="42.96857737469109" lon="9.41922956783708"><ele>205.0</ele><time>2026-05-01T07:43:21Z</time></trkpt><trkpt lat="42.968588431405905" lon="9.418979779042802"><ele>207.33333333333331</ele><time>2026-05-01T07:43:22Z</time></trkpt><trkpt lat="42.968568184108804" lon="9.418679586269771"><ele>209.66666666666669</ele><time>2026-05-01T07:43:23Z</time></trkpt><trkpt lat="42.96853711897765" lon="9.41838335380547"><ele>212.0</ele><time>2026-05-01T07:43:24Z</time></trkpt><trkpt lat="42.968494903859515" lon="9.418081185883244"><ele>215.0</ele><time>2026-05-01T07:43:25Z</time></trkpt><trkpt lat="42.968456721818804" lon="9.417798714211452"><ele>218.0</ele><time>2026-05-01T07:43:26Z</time></trkpt><trkpt lat="42.96849795114981" lon="9.417530957370358"><ele>221.0</ele><time>2026-05-01T07:43:27Z</time></trkpt><trkpt lat="42.96849695989287" lon="9.417337267843346"><ele>223.0</ele><time>2026-05-01T07:43:28Z</time></trkpt><trkpt lat="42.96842636428526" lon="9.417126853984872"><ele>225.0</ele><time>2026-05-01T07:43:29Z</time></trkpt><trkpt lat="42.968293445197595" lon="9.416954200498658"><ele>227.0</ele><time>2026-05-01T07:43:30Z</time></trkpt><trkpt lat="42.96818331948551" lon="9.416743161947633"><ele>228.33333333333334</ele><time>2026-05-01T07:43:31Z</time></trkpt><trkpt lat="42.968143572007946" lon="9.416471093809664"><ele>229.66666666666669</ele><time>2026-05-01T07:43:32Z</time></trkpt><trkpt lat="42.9680830144245" lon="9.416161609251544"><ele>231.0</ele><time>2026-05-01T07:43:33Z</time></trkpt><trkpt lat="42.96804108032835" lon="9.415833735112756"><ele>231.0</ele><time>2026-05-01T07:43:34Z</time></trkpt><trkpt lat="42.968001652774305" lon="9.41549758926613"><ele>231.0</ele><time>2026-05-01T07:43:35Z</time></trkpt><trkpt lat="42.967969591135635" lon="9.415207993216939"><ele>232.33333333333331</ele><time>2026-05-01T07:43:36Z</time></trkpt><trkpt lat="42.96798012006412" lon="9.414975589613109"><ele>233.66666666666666</ele><time>2026-05-01T07:43:37Z</time></trkpt><trkpt lat="42.968020132546364" lon="9.41475563350453"><ele>235.0</ele><time>2026-05-01T07:43:38Z</time></trkpt><trkpt lat="42.96809098702816" lon="9.414543366784711"><ele>237.33333333333331</ele><time>2026-05-01T07:43:39Z</time></trkpt><trkpt lat="42.96818744678181" lon="9.414326519128938"><ele>239.66666666666669</ele><time>2026-05-01T07:43:40Z</time></trkpt><trkpt lat="42.968275571094836" lon="9.414109190075637"><ele>242.0</ele><time>2026-05-01T07:43:41Z</time></trkpt><trkpt lat="42.968359287496725" lon="9.413927940614915"><ele>242.0</ele><time>2026-05-01T07:43:42Z</time></trkpt><trkpt lat="42.968392059614786" lon="9.413741352336135"><ele>242.0</ele><time>2026-05-01T07:43:43Z</time></trkpt><trkpt lat="42.96836957331641" lon="9.413534963006416"><ele>242.0</ele><time>2026-05-01T07:43:44Z</time></trkpt><trkpt lat="42.96828665043196" lon="9.413340899115909"><ele>242.0</ele><time>2026-05-01T07:43:45Z</time></trkpt><trkpt lat="42.96816328351806" lon="9.413188878715031"><ele>242.0</ele><time>2026-05-01T07:43:46Z</time></trkpt><trkpt lat="42.96801774331187" lon="9.413034654815405"><ele>242.0</ele><time>2026-05-01T07:43:47Z</time></trkpt><trkpt lat="42.96788809369435" lon="9.412865548146485"><ele>243.66666666666669</ele><time>2026-05-01T07:43:48Z</time></trkpt><trkpt lat="42.96775809073364" lon="9.412709519703517"><ele>245.33333333333331</ele><time>2026-05-01T07:43:49Z</time></trkpt><trkpt lat="42.9676305169161" lon="9.412585997763028"><ele>247.0</ele><time>2026-05-01T07:43:50Z</time></trkpt><trkpt lat="42.967492662452585" lon="9.412512875763035"><ele>247.0</ele><time>2026-05-01T07:43:51Z</time></trkpt><trkpt lat="42.967358507707885" lon="9.412470658891454"><ele>247.0</ele><time>2026-05-01T07:43:52Z</time></trkpt><trkpt lat="42.967243710411324" lon="9.412460429648561"><ele>247.0</ele><time>2026-05-01T07:43:53Z</time></trkpt><trkpt lat="42.96716795009983" lon="9.412398750475166"><ele>247.0</ele><time>2026-05-01T07:43:54Z</time></trkpt><trkpt lat="42.967106623345614" lon="9.41225469647252"><ele>246.99999999999997</ele><time>2026-05-01T07:43:56Z</time></trkpt><trkpt lat="42.96711611739591" lon="9.412164779542628"><ele>247.0</ele><time>2026-05-01T07:43:57Z</time></trkpt><trkpt lat="42.967126699625034" lon="9.412064588466997"><ele>247.0</ele><time>2026-05-01T07:43:58Z</time></trkpt><trkpt lat="42.96720345405557" lon="9.411997201513143"><ele>247.0</ele><time>2026-05-01T07:43:59Z</time></trkpt><trkpt lat="42.96726561104593" lon="9.411910860399493"><ele>246.99999999999997</ele><time>2026-05-01T07:44:00Z</time></trkpt><trkpt lat="42.96731323083755" lon="9.411809989743858"><ele>247.0</ele><time>2026-05-01T07:44:01Z</time></trkpt><trkpt lat="42.96737237764718" lon="9.411718146951648"><ele>246.8</ele><time>2026-05-01T07:44:02Z</time></trkpt><trkpt lat="42.967424739883526" lon="9.411608303783602"><ele>246.6</ele><time>2026-05-01T07:44:03Z</time></trkpt><trkpt lat="42.96746203222914" lon="9.411483908021475"><ele>246.40000000000003</ele><time>2026-05-01T07:44:04Z</time></trkpt><trkpt lat="42.96748203669268" lon="9.411338922505642"><ele>246.20000000000002</ele><time>2026-05-01T07:44:05Z</time></trkpt><trkpt lat="42.967477890940245" lon="9.411192880402162"><ele>246.0</ele><time>2026-05-01T07:44:06Z</time></trkpt><trkpt lat="42.967449623527244" lon="9.411042989391522"><ele>246.0</ele><time>2026-05-01T07:44:07Z</time></trkpt><trkpt lat="42.96740233469442" lon="9.410900742721118"><ele>246.00000000000003</ele><time>2026-05-01T07:44:08Z</time></trkpt><trkpt lat="42.967341661966344" lon="9.410768746331987"><ele>246.00000000000003</ele><time>2026-05-01T07:44:09Z</time></trkpt><trkpt lat="42.96729046890014" lon="9.410655774188722"><ele>246.0</ele><time>2026-05-01T07:44:10Z</time></trkpt><trkpt lat="42.967240501194595" lon="9.410553848589633"><ele>246.0</ele><time>2026-05-01T07:44:11Z</time></trkpt><trkpt lat="42.967193873592855" lon="9.410447835284373"><ele>245.4</ele><time>2026-05-01T07:44:12Z</time></trkpt><trkpt lat="42.96714288969086" lon="9.410335671232"><ele>244.8</ele><time>2026-05-01T07:44:13Z</time></trkpt><trkpt lat="42.967088664427244" lon="9.41021538945846"><ele>244.20000000000002</ele><time>2026-05-01T07:44:14Z</time></trkpt><trkpt lat="42.967030541515896" lon="9.410084250448724"><ele>243.60000000000002</ele><time>2026-05-01T07:44:15Z</time></trkpt><trkpt lat="42.96697805905305" lon="9.409941294828087"><ele>243.0</ele><time>2026-05-01T07:44:16Z</time></trkpt><trkpt lat="42.96693989139952" lon="9.409784569407577"><ele>241.8</ele><time>2026-05-01T07:44:17Z</time></trkpt><trkpt lat="42.96688877529675" lon="9.409642229787167"><ele>240.60000000000002</ele><time>2026-05-01T07:44:18Z</time></trkpt><trkpt lat="42.966854315287534" lon="9.409503056530763"><ele>239.39999999999998</ele><time>2026-05-01T07:44:19Z</time></trkpt><trkpt lat="42.96682140806712" lon="9.409370664471547"><ele>238.2</ele><time>2026-05-01T07:44:20Z</time></trkpt><trkpt lat="42.96677962803072" lon="9.409248201243594"><ele>237.0</ele><time>2026-05-01T07:44:21Z</time></trkpt><trkpt lat="42.96672227611417" lon="9.40915200472157"><ele>238.6</ele><time>2026-05-01T07:44:22Z</time></trkpt><trkpt lat="42.966635323454746" lon="9.409077526714812"><ele>240.2</ele><time>2026-05-01T07:44:23Z</time></trkpt><trkpt lat="42.96653229472422" lon="9.409039071128994"><ele>241.8</ele><time>2026-05-01T07:44:24Z</time></trkpt><trkpt lat="42.966431593137735" lon="9.409001650371646"><ele>243.4</ele><time>2026-05-01T07:44:25Z</time></trkpt><trkpt lat="42.96632187267" lon="9.408954727715539"><ele>245.0</ele><time>2026-05-01T07:44:26Z</time></trkpt><trkpt lat="42.966217191543485" lon="9.408916498487548"><ele>245.0</ele><time>2026-05-01T07:44:27Z</time></trkpt><trkpt lat="42.96611481794957" lon="9.408877428126969"><ele>245.0</ele><time>2026-05-01T07:44:28Z</time></trkpt><trkpt lat="42.966015101230724" lon="9.408816480917404"><ele>245.0</ele><time>2026-05-01T07:44:29Z</time></trkpt><trkpt lat="42.96592181843059" lon="9.408722464423267"><ele>245.0</ele><time>2026-05-01T07:44:30Z</time></trkpt><trkpt lat="42.965829802364254" lon="9.408618546078253"><ele>243.75</ele><time>2026-05-01T07:44:31Z</time></trkpt><trkpt lat="42.96573994054315" lon="9.40852733378638"><ele>242.5</ele><time>2026-05-01T07:44:32Z</time></trkpt><trkpt lat="42.96563783389564" lon="9.408457393533764"><ele>241.25</ele><time>2026-05-01T07:44:33Z</time></trkpt><trkpt lat="42.96552931309872" lon="9.408399068412576"><ele>240.0</ele><time>2026-05-01T07:44:34Z</time></trkpt><trkpt lat="42.96542868034815" lon="9.408341455571762"><ele>240.0</ele><time>2026-05-01T07:44:35Z</time></trkpt><trkpt lat="42.96533648294053" lon="9.408279238825438"><ele>240.0</ele><time>2026-05-01T07:44:36Z</time></trkpt><trkpt lat="42.96525381855958" lon="9.408202647893537"><ele>240.0</ele><time>2026-05-01T07:44:37Z</time></trkpt><trkpt lat="42.96517975628709" lon="9.408092295405613"><ele>240.0</ele><time>2026-05-01T07:44:38Z</time></trkpt><trkpt lat="42.96513400229211" lon="9.407932930323867"><ele>240.0</ele><time>2026-05-01T07:44:39Z</time></trkpt><trkpt lat="42.96506822873511" lon="9.407744752061149"><ele>240.0</ele><time>2026-05-01T07:44:40Z</time></trkpt><trkpt lat="42.964997899526786" lon="9.407541530562172"><ele>240.0</ele><time>2026-05-01T07:44:41Z</time></trkpt><trkpt lat="42.96492277002261" lon="9.407326483611438"><ele>240.0</ele><time>2026-05-01T07:44:42Z</time></trkpt><trkpt lat="42.964842519060994" lon="9.407108556513093"><ele>240.0</ele><time>2026-05-01T07:44:43Z</time></trkpt><trkpt lat="42.96473143746751" lon="9.406904110061584"><ele>240.0</ele><time>2026-05-01T07:44:44Z</time></trkpt><trkpt lat="42.96463160559804" lon="9.406688382444152"><ele>240.0</ele><time>2026-05-01T07:44:45Z</time></trkpt><trkpt lat="42.964536966854325" lon="9.406461125138861"><ele>236.66666666666669</ele><time>2026-05-01T07:44:46Z</time></trkpt><trkpt lat="42.964453195601344" lon="9.4062237806257"><ele>233.33333333333334</ele><time>2026-05-01T07:44:47Z</time></trkpt><trkpt lat="42.96436850606352" lon="9.405981740209752"><ele>230.0</ele><time>2026-05-01T07:44:48Z</time></trkpt><trkpt lat="42.96427880404144" lon="9.405736010351774"><ele>234.33333333333334</ele><time>2026-05-01T07:44:49Z</time></trkpt><trkpt lat="42.96419326048262" lon="9.405487203690777"><ele>238.66666666666669</ele><time>2026-05-01T07:44:50Z</time></trkpt><trkpt lat="42.9640981298569" lon="9.405249687009062"><ele>243.0</ele><time>2026-05-01T07:44:51Z</time></trkpt><trkpt lat="42.96397056205144" lon="9.405036706540063"><ele>243.0</ele><time>2026-05-01T07:44:52Z</time></trkpt><trkpt lat="42.96384022797567" lon="9.404823955966728"><ele>243.0</ele><time>2026-05-01T07:44:53Z</time></trkpt><trkpt lat="42.96373508264326" lon="9.404597218067819"><ele>243.0</ele><time>2026-05-01T07:44:54Z</time></trkpt><trkpt lat="42.963628270273546" lon="9.404404664503646"><ele>245.0</ele><time>2026-05-01T07:44:55Z</time></trkpt><trkpt lat="42.963486227494826" lon="9.404257555886272"><ele>247.0</ele><time>2026-05-01T07:44:55.999Z</time></trkpt><trkpt lat="42.963317328255414" lon="9.404146847253713"><ele>249.0</ele><time>2026-05-01T07:44:56.999Z</time></trkpt><trkpt lat="42.96313893026544" lon="9.404081181000713"><ele>249.0</ele><time>2026-05-01T07:44:57.999Z</time></trkpt><trkpt lat="42.96295449528775" lon="9.404048436415364"><ele>249.0</ele><time>2026-05-01T07:44:58.999Z</time></trkpt><trkpt lat="42.96278015062066" lon="9.404007221383266"><ele>249.0</ele><time>2026-05-01T07:44:59.999Z</time></trkpt><trkpt lat="42.96264457583976" lon="9.403876985749255"><ele>250.25</ele><time>2026-05-01T07:45:00.999Z</time></trkpt><trkpt lat="42.96254049145928" lon="9.403719404996217"><ele>251.5</ele><time>2026-05-01T07:45:01.999Z</time></trkpt><trkpt lat="42.96247208249456" lon="9.40357253707202"><ele>252.75</ele><time>2026-05-01T07:45:02.999Z</time></trkpt><trkpt lat="42.96250045219918" lon="9.403437152915004"><ele>254.0</ele><time>2026-05-01T07:45:03.999Z</time></trkpt><trkpt lat="42.9625769679763" lon="9.403328609711375"><ele>251.25</ele><time>2026-05-01T07:45:04.999Z</time></trkpt><trkpt lat="42.96260878128553" lon="9.403179790363135"><ele>248.5</ele><time>2026-05-01T07:45:05.999Z</time></trkpt><trkpt lat="42.962570358202576" lon="9.403019783125053"><ele>245.75</ele><time>2026-05-01T07:45:06.999Z</time></trkpt><trkpt lat="42.962478266926766" lon="9.402879339140483"><ele>243.0</ele><time>2026-05-01T07:45:07.999Z</time></trkpt><trkpt lat="42.962337933421374" lon="9.40275271429396"><ele>243.0</ele><time>2026-05-01T07:45:08.999Z</time></trkpt><trkpt lat="42.96221911753005" lon="9.402591011305276"><ele>243.0</ele><time>2026-05-01T07:45:09.999Z</time></trkpt><trkpt lat="42.96215147421111" lon="9.402357656330414"><ele>243.0</ele><time>2026-05-01T07:45:10.999Z</time></trkpt><trkpt lat="42.96205465670416" lon="9.402122246508185"><ele>240.33333333333331</ele><time>2026-05-01T07:45:11.999Z</time></trkpt><trkpt lat="42.96196663664679" lon="9.401866564684303"><ele>237.66666666666666</ele><time>2026-05-01T07:45:12.999Z</time></trkpt><trkpt lat="42.96187483665269" lon="9.401613629684507"><ele>235.0</ele><time>2026-05-01T07:45:13.999Z</time></trkpt><trkpt lat="42.961789019040886" lon="9.401342342856019"><ele>234.0</ele><time>2026-05-01T07:45:14.999Z</time></trkpt><trkpt lat="42.96173284606977" lon="9.401067870679432"><ele>233.0</ele><time>2026-05-01T07:45:15.999Z</time></trkpt><trkpt lat="42.96169381762618" lon="9.40080615256443"><ele>232.0</ele><time>2026-05-01T07:45:16.999Z</time></trkpt><trkpt lat="42.96164674561878" lon="9.400579966988623"><ele>234.66666666666666</ele><time>2026-05-01T07:45:17.999Z</time></trkpt><trkpt lat="42.961563170699236" lon="9.40040678604493"><ele>237.33333333333331</ele><time>2026-05-01T07:45:19Z</time></trkpt><trkpt lat="42.96144034665303" lon="9.40026122415055"><ele>240.0</ele><time>2026-05-01T07:45:20Z</time></trkpt><trkpt lat="42.96127425441057" lon="9.400167973168543"><ele>240.0</ele><time>2026-05-01T07:45:21Z</time></trkpt><trkpt lat="42.961097686485054" lon="9.40010809638638"><ele>240.0</ele><time>2026-05-01T07:45:22Z</time></trkpt><trkpt lat="42.96095491607071" lon="9.399992967800497"><ele>240.0</ele><time>2026-05-01T07:45:23Z</time></trkpt><trkpt lat="42.96086021707006" lon="9.399812360997876"><ele>244.33333333333331</ele><time>2026-05-01T07:45:24Z</time></trkpt><trkpt lat="42.96083486781116" lon="9.399571922099165"><ele>248.66666666666666</ele><time>2026-05-01T07:45:25Z</time></trkpt><trkpt lat="42.960778486017496" lon="9.39932424973363"><ele>253.0</ele><time>2026-05-01T07:45:26Z</time></trkpt><trkpt lat="42.96077723387608" lon="9.399076871703077"><ele>253.66666666666666</ele><time>2026-05-01T07:45:27Z</time></trkpt><trkpt lat="42.96081275656174" lon="9.3988293624717"><ele>254.33333333333331</ele><time>2026-05-01T07:45:28Z</time></trkpt><trkpt lat="42.96081880759443" lon="9.398591429037737"><ele>255.0</ele><time>2026-05-01T07:45:29Z</time></trkpt><trkpt lat="42.96076585467635" lon="9.398351291262372"><ele>255.0</ele><time>2026-05-01T07:45:30Z</time></trkpt><trkpt lat="42.96067850508354" lon="9.398094003746113"><ele>255.0</ele><time>2026-05-01T07:45:31Z</time></trkpt><trkpt lat="42.960595536720696" lon="9.397821049490478"><ele>255.0</ele><time>2026-05-01T07:45:32Z</time></trkpt><trkpt lat="42.960519767270384" lon="9.397553083068395"><ele>254.0</ele><time>2026-05-01T07:45:33Z</time></trkpt><trkpt lat="42.960447863609936" lon="9.39730293919111"><ele>253.0</ele><time>2026-05-01T07:45:34Z</time></trkpt><trkpt lat="42.960392823500676" lon="9.39709806039878"><ele>252.0</ele><time>2026-05-01T07:45:35Z</time></trkpt><trkpt lat="42.96036607936508" lon="9.396924903417764"><ele>250.5</ele><time>2026-05-01T07:45:36Z</time></trkpt><trkpt lat="42.9603750766419" lon="9.396758721961147"><ele>249.0</ele><time>2026-05-01T07:45:37Z</time></trkpt><trkpt lat="42.96047671586378" lon="9.396638740216465"><ele>247.5</ele><time>2026-05-01T07:45:38Z</time></trkpt><trkpt lat="42.96054926403927" lon="9.39647355141108"><ele>246.0</ele><time>2026-05-01T07:45:39Z</time></trkpt><trkpt lat="42.96057782784685" lon="9.396309513512582"><ele>245.0</ele><time>2026-05-01T07:45:40Z</time></trkpt><trkpt lat="42.96051339617137" lon="9.396145830572603"><ele>244.0</ele><time>2026-05-01T07:45:41Z</time></trkpt><trkpt lat="42.96040648842062" lon="9.396006861752756"><ele>243.0</ele><time>2026-05-01T07:45:42Z</time></trkpt><trkpt lat="42.960332265907084" lon="9.39585628815678"><ele>242.0</ele><time>2026-05-01T07:45:43Z</time></trkpt><trkpt lat="42.960390728115044" lon="9.395673115575224"><ele>244.0</ele><time>2026-05-01T07:45:44Z</time></trkpt><trkpt lat="42.960444794763085" lon="9.395466581540935"><ele>246.0</ele><time>2026-05-01T07:45:45Z</time></trkpt><trkpt lat="42.96046790010115" lon="9.395240637845939"><ele>248.0</ele><time>2026-05-01T07:45:46Z</time></trkpt><trkpt lat="42.960445435282416" lon="9.394999402764274"><ele>248.0</ele><time>2026-05-01T07:45:47Z</time></trkpt><trkpt lat="42.96044607835739" lon="9.394780639164802"><ele>248.0</ele><time>2026-05-01T07:45:48Z</time></trkpt><trkpt lat="42.96050886335307" lon="9.394605389652853"><ele>248.0</ele><time>2026-05-01T07:45:49Z</time></trkpt><trkpt lat="42.96064763179896" lon="9.394527580365448"><ele>244.66666666666669</ele><time>2026-05-01T07:45:50Z</time></trkpt><trkpt lat="42.960795104639224" lon="9.39444672911276"><ele>241.33333333333331</ele><time>2026-05-01T07:45:51Z</time></trkpt><trkpt lat="42.960961994782" lon="9.394343764992199"><ele>238.0</ele><time>2026-05-01T07:45:52Z</time></trkpt><trkpt lat="42.96111737563752" lon="9.39425942654476"><ele>238.0</ele><time>2026-05-01T07:45:53Z</time></trkpt><trkpt lat="42.961232199559554" lon="9.394169692035339"><ele>238.0</ele><time>2026-05-01T07:45:54Z</time></trkpt><trkpt lat="42.961293616086515" lon="9.394044918447996"><ele>238.0</ele><time>2026-05-01T07:45:55Z</time></trkpt><trkpt lat="42.96128546885814" lon="9.393883472492076"><ele>238.0</ele><time>2026-05-01T07:45:56Z</time></trkpt><trkpt lat="42.96122246802874" lon="9.393738264522195"><ele>233.0</ele><time>2026-05-01T07:45:57Z</time></trkpt><trkpt lat="42.96109473289743" lon="9.39360204036161"><ele>228.0</ele><time>2026-05-01T07:45:58Z</time></trkpt><trkpt lat="42.9609503319814" lon="9.393449477062713"><ele>223.0</ele><time>2026-05-01T07:45:59Z</time></trkpt><trkpt lat="42.96080670940787" lon="9.393256483204423"><ele>228.33333333333331</ele><time>2026-05-01T07:46:00Z</time></trkpt><trkpt lat="42.960669793623396" lon="9.39305710446213"><ele>233.66666666666669</ele><time>2026-05-01T07:46:01Z</time></trkpt><trkpt lat="42.9605213546798" lon="9.392863517757172"><ele>239.0</ele><time>2026-05-01T07:46:02Z</time></trkpt><trkpt lat="42.96036755486415" lon="9.392667197915927"><ele>239.0</ele><time>2026-05-01T07:46:03Z</time></trkpt><trkpt lat="42.960213201538906" lon="9.392467032753686"><ele>239.0</ele><time>2026-05-01T07:46:04Z</time></trkpt><trkpt lat="42.96007100457624" lon="9.392283375259447"><ele>239.0</ele><time>2026-05-01T07:46:05Z</time></trkpt><trkpt lat="42.959927544946055" lon="9.392130717497812"><ele>238.66666666666669</ele><time>2026-05-01T07:46:06Z</time></trkpt><trkpt lat="42.9597605383653" lon="9.392053532031243"><ele>238.33333333333331</ele><time>2026-05-01T07:46:07Z</time></trkpt><trkpt lat="42.95957868145247" lon="9.392054491398856"><ele>238.0</ele><time>2026-05-01T07:46:08Z</time></trkpt><trkpt lat="42.95939689824596" lon="9.392035215691191"><ele>238.0</ele><time>2026-05-01T07:46:09Z</time></trkpt><trkpt lat="42.95926301429888" lon="9.391860287551275"><ele>238.0</ele><time>2026-05-01T07:46:10Z</time></trkpt><trkpt lat="42.959081537202806" lon="9.3918070844076"><ele>238.0</ele><time>2026-05-01T07:46:11Z</time></trkpt><trkpt lat="42.95889195733218" lon="9.391763143639594"><ele>242.33333333333331</ele><time>2026-05-01T07:46:12Z</time></trkpt><trkpt lat="42.95868662715029" lon="9.391700030444948"><ele>246.66666666666669</ele><time>2026-05-01T07:46:13Z</time></trkpt><trkpt lat="42.958517015865084" lon="9.391613339170947"><ele>251.0</ele><time>2026-05-01T07:46:14Z</time></trkpt><trkpt lat="42.95839114943744" lon="9.39146574297092"><ele>250.66666666666669</ele><time>2026-05-01T07:46:15Z</time></trkpt><trkpt lat="42.9582727725722" lon="9.39127491778031"><ele>250.33333333333331</ele><time>2026-05-01T07:46:16Z</time></trkpt><trkpt lat="42.95813702712039" lon="9.391081460166301"><ele>250.0</ele><time>2026-05-01T07:46:17Z</time></trkpt><trkpt lat="42.95802128095814" lon="9.390869884774048"><ele>250.0</ele><time>2026-05-01T07:46:18Z</time></trkpt><trkpt lat="42.95790673591492" lon="9.390685201440103"><ele>250.0</ele><time>2026-05-01T07:46:19Z</time></trkpt><trkpt lat="42.95782757076059" lon="9.390518685959234"><ele>250.0</ele><time>2026-05-01T07:46:20Z</time></trkpt><trkpt lat="42.95776167268015" lon="9.390387930992503"><ele>250.0</ele><time>2026-05-01T07:46:21Z</time></trkpt><trkpt lat="42.9577746288472" lon="9.390252098713004"><ele>251.5</ele><time>2026-05-01T07:46:22Z</time></trkpt><trkpt lat="42.95784887788668" lon="9.390137344245215"><ele>253.0</ele><time>2026-05-01T07:46:23Z</time></trkpt><trkpt lat="42.95797203402848" lon="9.390078706945085"><ele>254.5</ele><time>2026-05-01T07:46:24Z</time></trkpt><trkpt lat="42.95810339629262" lon="9.39001647305784"><ele>256.0</ele><time>2026-05-01T07:46:25Z</time></trkpt><trkpt lat="42.958236841058564" lon="9.38993567702064"><ele>254.66666666666666</ele><time>2026-05-01T07:46:26Z</time></trkpt><trkpt lat="42.958380638298266" lon="9.389872638119261"><ele>253.33333333333331</ele><time>2026-05-01T07:46:27Z</time></trkpt><trkpt lat="42.95852786066616" lon="9.389818036498133"><ele>252.0</ele><time>2026-05-01T07:46:28Z</time></trkpt><trkpt lat="42.95868073324136" lon="9.389786960460134"><ele>252.0</ele><time>2026-05-01T07:46:29Z</time></trkpt><trkpt lat="42.95883783080093" lon="9.389778636099942"><ele>252.0</ele><time>2026-05-01T07:46:30Z</time></trkpt><trkpt lat="42.95898792645981" lon="9.389756994647476"><ele>252.0</ele><time>2026-05-01T07:46:31Z</time></trkpt><trkpt lat="42.95913412100504" lon="9.389707532022182"><ele>256.25</ele><time>2026-05-01T07:46:32Z</time></trkpt><trkpt lat="42.959270014668434" lon="9.389630903901187"><ele>260.5</ele><time>2026-05-01T07:46:33Z</time></trkpt><trkpt lat="42.95940248099441" lon="9.389539668569341"><ele>264.75</ele><time>2026-05-01T07:46:34Z</time></trkpt><trkpt lat="42.95955178941671" lon="9.389537471969945"><ele>269.0</ele><time>2026-05-01T07:46:35Z</time></trkpt><trkpt lat="42.95970607593836" lon="9.389541047039687"><ele>269.0</ele><time>2026-05-01T07:46:36Z</time></trkpt><trkpt lat="42.959850484268074" lon="9.389502667562224"><ele>269.0</ele><time>2026-05-01T07:46:37Z</time></trkpt><trkpt lat="42.959974395842764" lon="9.389421370456764"><ele>269.0</ele><time>2026-05-01T07:46:38Z</time></trkpt><trkpt lat="42.96008642623088" lon="9.389343887373078"><ele>269.0</ele><time>2026-05-01T07:46:39Z</time></trkpt><trkpt lat="42.96019753077531" lon="9.389366284426986"><ele>268.25</ele><time>2026-05-01T07:46:40Z</time></trkpt><trkpt lat="42.960312650767904" lon="9.38939938893645"><ele>267.5</ele><time>2026-05-01T07:46:41Z</time></trkpt><trkpt lat="42.96042936970544" lon="9.389388731525505"><ele>266.75</ele><time>2026-05-01T07:46:42Z</time></trkpt><trkpt lat="42.96056767552412" lon="9.389352861895652"><ele>266.0</ele><time>2026-05-01T07:46:43Z</time></trkpt><trkpt lat="42.96073980240161" lon="9.389298695417153"><ele>273.0</ele><time>2026-05-01T07:46:44Z</time></trkpt><trkpt lat="42.960923203037076" lon="9.389241504712766"><ele>280.0</ele><time>2026-05-01T07:46:45Z</time></trkpt><trkpt lat="42.961106383687316" lon="9.389172735709424"><ele>287.0</ele><time>2026-05-01T07:46:46Z</time></trkpt><trkpt lat="42.961271231090244" lon="9.389138224629795"><ele>287.0</ele><time>2026-05-01T07:46:47Z</time></trkpt><trkpt lat="42.961405504521615" lon="9.389206746255722"><ele>287.0</ele><time>2026-05-01T07:46:48Z</time></trkpt><trkpt lat="42.96146626409638" lon="9.389363001912878"><ele>287.0</ele><time>2026-05-01T07:46:49Z</time></trkpt><trkpt lat="42.961571647766355" lon="9.389537394748611"><ele>287.0</ele><time>2026-05-01T07:46:50Z</time></trkpt><trkpt lat="42.961692799733584" lon="9.389735101922657"><ele>283.6666666666667</ele><time>2026-05-01T07:46:51Z</time></trkpt><trkpt lat="42.96182704970229" lon="9.389919439803007"><ele>280.3333333333333</ele><time>2026-05-01T07:46:52Z</time></trkpt><trkpt lat="42.961975838446016" lon="9.390088156070785"><ele>277.0</ele><time>2026-05-01T07:46:53Z</time></trkpt><trkpt lat="42.962143600735445" lon="9.390218498576425"><ele>277.0</ele><time>2026-05-01T07:46:54Z</time></trkpt><trkpt lat="42.96232303429591" lon="9.390296230566337"><ele>277.0</ele><time>2026-05-01T07:46:55Z</time></trkpt><trkpt lat="42.9625018780073" lon="9.390306343539862"><ele>277.0</ele><time>2026-05-01T07:46:56Z</time></trkpt><trkpt lat="42.962658637112746" lon="9.390258659392323"><ele>280.66666666666663</ele><time>2026-05-01T07:46:57Z</time></trkpt><trkpt lat="42.96279290719322" lon="9.39013987952452"><ele>284.3333333333333</ele><time>2026-05-01T07:46:58Z</time></trkpt><trkpt lat="42.96293559693742" lon="9.39001464658615"><ele>288.0</ele><time>2026-05-01T07:46:59Z</time></trkpt><trkpt lat="42.963078690643236" lon="9.390016271932636"><ele>288.0</ele><time>2026-05-01T07:47:00Z</time></trkpt><trkpt lat="42.96320357353941" lon="9.390130847740709"><ele>288.0</ele><time>2026-05-01T07:47:01Z</time></trkpt><trkpt lat="42.963355025485136" lon="9.39029043547628"><ele>288.0</ele><time>2026-05-01T07:47:02Z</time></trkpt><trkpt lat="42.96353039987738" lon="9.390469658565"><ele>286.5</ele><time>2026-05-01T07:47:03Z</time></trkpt><trkpt lat="42.96374052253788" lon="9.390655430182303"><ele>285.0</ele><time>2026-05-01T07:47:04Z</time></trkpt><trkpt lat="42.96395775283604" lon="9.390832249033394"><ele>297.5</ele><time>2026-05-01T07:47:05Z</time></trkpt><trkpt lat="42.96420043850256" lon="9.390977596488504"><ele>310.0</ele><time>2026-05-01T07:47:06Z</time></trkpt><trkpt lat="42.96441831393815" lon="9.391089837858388"><ele>310.0</ele><time>2026-05-01T07:47:07Z</time></trkpt><trkpt lat="42.96455888498121" lon="9.391283890457235"><ele>310.0</ele><time>2026-05-01T07:47:08Z</time></trkpt><trkpt lat="42.96469905030755" lon="9.39147797985879"><ele>310.0</ele><time>2026-05-01T07:47:09Z</time></trkpt><trkpt lat="42.96485329365564" lon="9.391590988279503"><ele>299.0</ele><time>2026-05-01T07:47:10Z</time></trkpt><trkpt lat="42.96505373383743" lon="9.391687479099948"><ele>288.0</ele><time>2026-05-01T07:47:11Z</time></trkpt><trkpt lat="42.96528197754962" lon="9.39178685477459"><ele>288.0</ele><time>2026-05-01T07:47:12Z</time></trkpt><trkpt lat="42.9655071249276" lon="9.391898447064245"><ele>288.0</ele><time>2026-05-01T07:47:13Z</time></trkpt><trkpt lat="42.96570023162828" lon="9.391988771244323"><ele>288.0</ele><time>2026-05-01T07:47:14Z</time></trkpt><trkpt lat="42.965861862478434" lon="9.392044348266076"><ele>285.25</ele><time>2026-05-01T07:47:15Z</time></trkpt><trkpt lat="42.96601225686732" lon="9.392043348427944"><ele>282.5</ele><time>2026-05-01T07:47:16Z</time></trkpt><trkpt lat="42.96613603536959" lon="9.391934208493312"><ele>279.75</ele><time>2026-05-01T07:47:17Z</time></trkpt><trkpt lat="42.96621253865042" lon="9.391768193764575"><ele>277.0</ele><time>2026-05-01T07:47:18Z</time></trkpt><trkpt lat="42.96627962501939" lon="9.39154775590207"><ele>285.3333333333333</ele><time>2026-05-01T07:47:19Z</time></trkpt><trkpt lat="42.96635169845885" lon="9.391274095845304"><ele>293.6666666666667</ele><time>2026-05-01T07:47:20Z</time></trkpt><trkpt lat="42.966442157984275" lon="9.391051167664594"><ele>302.0</ele><time>2026-05-01T07:47:21Z</time></trkpt><trkpt lat="42.966537537627076" lon="9.390926913733066"><ele>302.0</ele><time>2026-05-01T07:47:22Z</time></trkpt><trkpt lat="42.96664741939168" lon="9.390938701509329"><ele>302.0</ele><time>2026-05-01T07:47:23Z</time></trkpt><trkpt lat="42.96674805333331" lon="9.391006658073433"><ele>302.0</ele><time>2026-05-01T07:47:24Z</time></trkpt><trkpt lat="42.966820961422606" lon="9.391180314248484"><ele>302.0</ele><time>2026-05-01T07:47:25Z</time></trkpt><trkpt lat="42.966909019926504" lon="9.391384512669736"><ele>299.6666666666667</ele><time>2026-05-01T07:47:26Z</time></trkpt><trkpt lat="42.96699680262851" lon="9.391656117155126"><ele>297.3333333333333</ele><time>2026-05-01T07:47:27Z</time></trkpt><trkpt lat="42.96712177446475" lon="9.391898703740173"><ele>295.0</ele><time>2026-05-01T07:47:28Z</time></trkpt><trkpt lat="42.967229775969145" lon="9.392105391755614"><ele>291.25</ele><time>2026-05-01T07:47:29Z</time></trkpt><trkpt lat="42.96733287006966" lon="9.392236131150803"><ele>287.5</ele><time>2026-05-01T07:47:30Z</time></trkpt><trkpt lat="42.967464708822774" lon="9.392273506102427"><ele>283.75</ele><time>2026-05-01T07:47:31Z</time></trkpt><trkpt lat="42.96762916415929" lon="9.392260266568073"><ele>280.0</ele><time>2026-05-01T07:47:32Z</time></trkpt><trkpt lat="42.96781257646232" lon="9.392208615562911"><ele>284.0</ele><time>2026-05-01T07:47:33Z</time></trkpt><trkpt lat="42.967999673361604" lon="9.392082268475418"><ele>288.0</ele><time>2026-05-01T07:47:34Z</time></trkpt><trkpt lat="42.96818473298871" lon="9.391912625518463"><ele>292.0</ele><time>2026-05-01T07:47:35Z</time></trkpt><trkpt lat="42.968388156286416" lon="9.391795567306122"><ele>292.0</ele><time>2026-05-01T07:47:36Z</time></trkpt><trkpt lat="42.968554308039515" lon="9.391661425450804"><ele>292.0</ele><time>2026-05-01T07:47:37Z</time></trkpt><trkpt lat="42.968703686279" lon="9.391469815452137"><ele>292.0</ele><time>2026-05-01T07:47:38Z</time></trkpt><trkpt lat="42.968848611115206" lon="9.391197476156567"><ele>297.0</ele><time>2026-05-01T07:47:39Z</time></trkpt><trkpt lat="42.96899988873348" lon="9.39093562968789"><ele>302.0</ele><time>2026-05-01T07:47:40Z</time></trkpt><trkpt lat="42.969194869201324" lon="9.390778431693352"><ele>302.33333333333337</ele><time>2026-05-01T07:47:41Z</time></trkpt><trkpt lat="42.96939236070615" lon="9.390672996138594"><ele>302.6666666666667</ele><time>2026-05-01T07:47:42Z</time></trkpt><trkpt lat="42.969566506193594" lon="9.390557577058608"><ele>303.0</ele><time>2026-05-01T07:47:43Z</time></trkpt><trkpt lat="42.96971331880026" lon="9.390479850522121"><ele>302.3333333333333</ele><time>2026-05-01T07:47:44Z</time></trkpt><trkpt lat="42.969807792711144" lon="9.390328592766025"><ele>301.66666666666663</ele><time>2026-05-01T07:47:45Z</time></trkpt><trkpt lat="42.969850883768565" lon="9.390110134999215"><ele>301.0</ele><time>2026-05-01T07:47:46Z</time></trkpt><trkpt lat="42.96985918109407" lon="9.389861538991397"><ele>301.0</ele><time>2026-05-01T07:47:47Z</time></trkpt><trkpt lat="42.969865387223344" lon="9.389587336558842"><ele>301.0</ele><time>2026-05-01T07:47:48Z</time></trkpt><trkpt lat="42.969856025879835" lon="9.3892697319569"><ele>301.0</ele><time>2026-05-01T07:47:49Z</time></trkpt><trkpt lat="42.969807421484184" lon="9.388949443993297"><ele>302.5</ele><time>2026-05-01T07:47:50Z</time></trkpt><trkpt lat="42.969740754858776" lon="9.388609579317206"><ele>304.0</ele><time>2026-05-01T07:47:51Z</time></trkpt><trkpt lat="42.96967980662002" lon="9.38825924573486"><ele>306.66666666666663</ele><time>2026-05-01T07:47:52Z</time></trkpt><trkpt lat="42.96963659512714" lon="9.387960374188792"><ele>309.3333333333333</ele><time>2026-05-01T07:47:53Z</time></trkpt><trkpt lat="42.969628427131305" lon="9.387755174809735"><ele>312.0</ele><time>2026-05-01T07:47:54Z</time></trkpt><trkpt lat="42.96965687203454" lon="9.387624374561454"><ele>312.0</ele><time>2026-05-01T07:47:55Z</time></trkpt><trkpt lat="42.969747028530435" lon="9.387537756095139"><ele>312.0</ele><time>2026-05-01T07:47:56Z</time></trkpt><trkpt lat="42.969903817037654" lon="9.387574440046087"><ele>312.0</ele><time>2026-05-01T07:47:57Z</time></trkpt><trkpt lat="42.97009102260597" lon="9.387506031116288"><ele>308.6666666666667</ele><time>2026-05-01T07:47:58Z</time></trkpt><trkpt lat="42.97024098579438" lon="9.387387040722095"><ele>305.33333333333337</ele><time>2026-05-01T07:47:59Z</time></trkpt><trkpt lat="42.97043840260822" lon="9.387277198093328"><ele>302.0</ele><time>2026-05-01T07:48:00Z</time></trkpt><trkpt lat="42.9706396428426" lon="9.387194650068277"><ele>304.33333333333337</ele><time>2026-05-01T07:48:01Z</time></trkpt><trkpt lat="42.97080956011754" lon="9.387115044455149"><ele>306.6666666666667</ele><time>2026-05-01T07:48:02Z</time></trkpt><trkpt lat="42.97094326240548" lon="9.386984358036887"><ele>309.0</ele><time>2026-05-01T07:48:03Z</time></trkpt><trkpt lat="42.971010223839855" lon="9.386778975172431"><ele>309.0</ele><time>2026-05-01T07:48:04Z</time></trkpt><trkpt lat="42.97103166206205" lon="9.386554348249335"><ele>309.0</ele><time>2026-05-01T07:48:05Z</time></trkpt><trkpt lat="42.97109003432697" lon="9.38639382247084"><ele>309.0</ele><time>2026-05-01T07:48:06Z</time></trkpt><trkpt lat="42.971228621204126" lon="9.3863874569401"><ele>309.0</ele><time>2026-05-01T07:48:07Z</time></trkpt><trkpt lat="42.971378963236155" lon="9.386388982039724"><ele>309.0</ele><time>2026-05-01T07:48:08Z</time></trkpt><trkpt lat="42.97157195659723" lon="9.386454637752642"><ele>309.0</ele><time>2026-05-01T07:48:09Z</time></trkpt><trkpt lat="42.971788017083476" lon="9.386455498762365"><ele>309.0</ele><time>2026-05-01T07:48:10Z</time></trkpt><trkpt lat="42.97201487090243" lon="9.386458948335392"><ele>309.0</ele><time>2026-05-01T07:48:11Z</time></trkpt><trkpt lat="42.972264446672256" lon="9.386453833522717"><ele>309.0</ele><time>2026-05-01T07:48:12Z</time></trkpt><trkpt lat="42.972484323752155" lon="9.386453096395154"><ele>305.6666666666667</ele><time>2026-05-01T07:48:13Z</time></trkpt><trkpt lat="42.97267899116524" lon="9.386395142913422"><ele>302.33333333333337</ele><time>2026-05-01T07:48:14Z</time></trkpt><trkpt lat="42.97288161195387" lon="9.386262492285416"><ele>299.0</ele><time>2026-05-01T07:48:15Z</time></trkpt><trkpt lat="42.973091253668954" lon="9.386099687766748"><ele>303.5</ele><time>2026-05-01T07:48:16Z</time></trkpt><trkpt lat="42.973340312532066" lon="9.386049202565818"><ele>308.0</ele><time>2026-05-01T07:48:17Z</time></trkpt><trkpt lat="42.97359000327642" lon="9.385961484110092"><ele>308.0</ele><time>2026-05-01T07:48:18Z</time></trkpt><trkpt lat="42.973827114413965" lon="9.385857907645017"><ele>308.0</ele><time>2026-05-01T07:48:19Z</time></trkpt><trkpt lat="42.974063961722905" lon="9.38568914481768"><ele>311.0</ele><time>2026-05-01T07:48:20Z</time></trkpt><trkpt lat="42.974304604981064" lon="9.38547660880651"><ele>314.0</ele><time>2026-05-01T07:48:21Z</time></trkpt><trkpt lat="42.974533351141105" lon="9.385239545871283"><ele>314.0</ele><time>2026-05-01T07:48:22Z</time></trkpt><trkpt lat="42.974744063879854" lon="9.385024830024728"><ele>314.0</ele><time>2026-05-01T07:48:23Z</time></trkpt><trkpt lat="42.97493227248669" lon="9.384891958768229"><ele>307.5</ele><time>2026-05-01T07:48:24Z</time></trkpt><trkpt lat="42.9751430565785" lon="9.38487331897442"><ele>301.0</ele><time>2026-05-01T07:48:25Z</time></trkpt><trkpt lat="42.9753754156708" lon="9.38478663331083"><ele>301.0</ele><time>2026-05-01T07:48:26Z</time></trkpt><trkpt lat="42.975585977527466" lon="9.384696203816224"><ele>301.0</ele><time>2026-05-01T07:48:27Z</time></trkpt><trkpt lat="42.975764020984805" lon="9.38471662097824"><ele>301.0</ele><time>2026-05-01T07:48:28Z</time></trkpt><trkpt lat="42.97594692915798" lon="9.384761092261494"><ele>302.66666666666663</ele><time>2026-05-01T07:48:29Z</time></trkpt><trkpt lat="42.976108542764536" lon="9.384754000434265"><ele>304.3333333333333</ele><time>2026-05-01T07:48:30Z</time></trkpt><trkpt lat="42.976245092423575" lon="9.384661306433454"><ele>306.0</ele><time>2026-05-01T07:48:31Z</time></trkpt><trkpt lat="42.97637791612289" lon="9.384497104744316"><ele>306.0</ele><time>2026-05-01T07:48:32Z</time></trkpt><trkpt lat="42.976528796296186" lon="9.384308093056699"><ele>306.0</ele><time>2026-05-01T07:48:33Z</time></trkpt><trkpt lat="42.97664307154118" lon="9.384131963379899"><ele>306.0</ele><time>2026-05-01T07:48:34Z</time></trkpt><trkpt lat="42.976701800036686" lon="9.383938923832334"><ele>308.3333333333333</ele><time>2026-05-01T07:48:35Z</time></trkpt><trkpt lat="42.976706740133785" lon="9.38370872034938"><ele>310.66666666666663</ele><time>2026-05-01T07:48:36Z</time></trkpt><trkpt lat="42.976663128635536" lon="9.383445225123353"><ele>313.0</ele><time>2026-05-01T07:48:37Z</time></trkpt><trkpt lat="42.97661352497952" lon="9.383171540410364"><ele>311.66666666666663</ele><time>2026-05-01T07:48:38Z</time></trkpt><trkpt lat="42.976580372904785" lon="9.38292626945412"><ele>310.3333333333333</ele><time>2026-05-01T07:48:39Z</time></trkpt><trkpt lat="42.97655833291601" lon="9.38270652901623"><ele>309.0</ele><time>2026-05-01T07:48:40Z</time></trkpt><trkpt lat="42.976537774397045" lon="9.382503980121408"><ele>309.0</ele><time>2026-05-01T07:48:41Z</time></trkpt><trkpt lat="42.976519614533686" lon="9.382303018510475"><ele>309.0</ele><time>2026-05-01T07:48:42Z</time></trkpt><trkpt lat="42.9765258725842" lon="9.382182227603414"><ele>309.0</ele><time>2026-05-01T07:48:43Z</time></trkpt><trkpt lat="42.976544209481986" lon="9.382075668762313"><ele>309.0</ele><time>2026-05-01T07:48:44Z</time></trkpt><trkpt lat="42.97653158474026" lon="9.381938468344128"><ele>309.0</ele><time>2026-05-01T07:48:45Z</time></trkpt><trkpt lat="42.976514779555295" lon="9.38178846573297"><ele>309.0</ele><time>2026-05-01T07:48:46Z</time></trkpt><trkpt lat="42.976498804225294" lon="9.381641554299051"><ele>309.0</ele><time>2026-05-01T07:48:47Z</time></trkpt><trkpt lat="42.9764833641078" lon="9.381486755415716"><ele>309.0</ele><time>2026-05-01T07:48:48Z</time></trkpt><trkpt lat="42.97646660327074" lon="9.381333730936129"><ele>309.0</ele><time>2026-05-01T07:48:49Z</time></trkpt><trkpt lat="42.97644160782104" lon="9.381180378848931"><ele>308.0</ele><time>2026-05-01T07:48:50Z</time></trkpt><trkpt lat="42.97641457473864" lon="9.381038941714987"><ele>307.0</ele><time>2026-05-01T07:48:51Z</time></trkpt><trkpt lat="42.97638100944992" lon="9.380915240894804"><ele>306.0</ele><time>2026-05-01T07:48:52Z</time></trkpt><trkpt lat="42.97634142457585" lon="9.380785286949251"><ele>305.0</ele><time>2026-05-01T07:48:53Z</time></trkpt><trkpt lat="42.97629288192244" lon="9.380653640380784"><ele>304.0</ele><time>2026-05-01T07:48:54Z</time></trkpt><trkpt lat="42.97623072165713" lon="9.380526125033699"><ele>305.75</ele><time>2026-05-01T07:48:55Z</time></trkpt><trkpt lat="42.97614578914709" lon="9.380420343244833"><ele>307.5</ele><time>2026-05-01T07:48:56Z</time></trkpt><trkpt lat="42.97603591473397" lon="9.38034766900027"><ele>309.25</ele><time>2026-05-01T07:48:57Z</time></trkpt><trkpt lat="42.97592621001341" lon="9.38029775017592"><ele>311.0</ele><time>2026-05-01T07:48:58Z</time></trkpt><trkpt lat="42.97581561783666" lon="9.380255811277356"><ele>311.0</ele><time>2026-05-01T07:48:59Z</time></trkpt><trkpt lat="42.97570969484334" lon="9.380212884534489"><ele>311.0</ele><time>2026-05-01T07:49:00Z</time></trkpt><trkpt lat="42.97561725309323" lon="9.380155030409771"><ele>311.0</ele><time>2026-05-01T07:49:01Z</time></trkpt><trkpt lat="42.97552661413521" lon="9.380092224988033"><ele>311.0</ele><time>2026-05-01T07:49:02Z</time></trkpt><trkpt lat="42.97544774123184" lon="9.380003457506437"><ele>311.0</ele><time>2026-05-01T07:49:03Z</time></trkpt><trkpt lat="42.97536483565477" lon="9.379905443348557"><ele>311.0</ele><time>2026-05-01T07:49:04Z</time></trkpt><trkpt lat="42.975299758132515" lon="9.37978707522294"><ele>311.0</ele><time>2026-05-01T07:49:05Z</time></trkpt><trkpt lat="42.97525544886817" lon="9.379649774903065"><ele>311.0</ele><time>2026-05-01T07:49:06Z</time></trkpt><trkpt lat="42.97518890041362" lon="9.379520337198985"><ele>311.0</ele><time>2026-05-01T07:49:07Z</time></trkpt><trkpt lat="42.975143517666986" lon="9.379378912435204"><ele>311.0</ele><time>2026-05-01T07:49:08Z</time></trkpt><trkpt lat="42.97509907240497" lon="9.379254025892356"><ele>312.0</ele><time>2026-05-01T07:49:09Z</time></trkpt><trkpt lat="42.975046703248985" lon="9.379157829444823"><ele>313.0</ele><time>2026-05-01T07:49:10Z</time></trkpt><trkpt lat="42.974989117288004" lon="9.379080151071934"><ele>314.0</ele><time>2026-05-01T07:49:11Z</time></trkpt><trkpt lat="42.97492901799134" lon="9.379003549047823"><ele>315.0</ele><time>2026-05-01T07:49:12Z</time></trkpt><trkpt lat="42.97485716295833" lon="9.378914234072374"><ele>316.0</ele><time>2026-05-01T07:49:13Z</time></trkpt><trkpt lat="42.9747831594885" lon="9.3788187575445"><ele>316.0</ele><time>2026-05-01T07:49:14Z</time></trkpt><trkpt lat="42.974706935542294" lon="9.37871769297619"><ele>316.0</ele><time>2026-05-01T07:49:15Z</time></trkpt><trkpt lat="42.97464390641101" lon="9.37859748355342"><ele>316.0</ele><time>2026-05-01T07:49:16Z</time></trkpt><trkpt lat="42.97455939836952" lon="9.378513777179815"><ele>316.0</ele><time>2026-05-01T07:49:17Z</time></trkpt><trkpt lat="42.974485201827086" lon="9.378415621754876"><ele>316.0</ele><time>2026-05-01T07:49:18Z</time></trkpt><trkpt lat="42.97440806989129" lon="9.378332577103532"><ele>316.0</ele><time>2026-05-01T07:49:19Z</time></trkpt><trkpt lat="42.97432490132202" lon="9.378271742852833"><ele>316.0</ele><time>2026-05-01T07:49:20Z</time></trkpt><trkpt lat="42.974239568731676" lon="9.378214894424092"><ele>316.0</ele><time>2026-05-01T07:49:21Z</time></trkpt><trkpt lat="42.974170738931754" lon="9.378142982049962"><ele>316.0</ele><time>2026-05-01T07:49:22Z</time></trkpt><trkpt lat="42.974091585429186" lon="9.378066165567606"><ele>316.0</ele><time>2026-05-01T07:49:23Z</time></trkpt><trkpt lat="42.97400989201205" lon="9.377994568830399"><ele>318.0</ele><time>2026-05-01T07:49:24Z</time></trkpt><trkpt lat="42.973974011581774" lon="9.377864639784768"><ele>320.0</ele><time>2026-05-01T07:49:25Z</time></trkpt><trkpt lat="42.973931252214825" lon="9.377738539161832"><ele>322.0</ele><time>2026-05-01T07:49:26Z</time></trkpt><trkpt lat="42.97387421187313" lon="9.37762399159855"><ele>324.0</ele><time>2026-05-01T07:49:27Z</time></trkpt><trkpt lat="42.9738330171677" lon="9.377495008065855"><ele>326.0</ele><time>2026-05-01T07:49:28Z</time></trkpt><trkpt lat="42.97378511490828" lon="9.377366415492524"><ele>326.0</ele><time>2026-05-01T07:49:29Z</time></trkpt><trkpt lat="42.97376371921412" lon="9.377226173365019"><ele>326.0</ele><time>2026-05-01T07:49:30Z</time></trkpt><trkpt lat="42.97372316021127" lon="9.377096966291074"><ele>326.0</ele><time>2026-05-01T07:49:31Z</time></trkpt><trkpt lat="42.97371009175163" lon="9.376954463254721"><ele>326.0</ele><time>2026-05-01T07:49:32Z</time></trkpt><trkpt lat="42.97368574228364" lon="9.376817895214018"><ele>326.0</ele><time>2026-05-01T07:49:33Z</time></trkpt><trkpt lat="42.97366056403362" lon="9.376681201294927"><ele>324.40000000000003</ele><time>2026-05-01T07:49:34Z</time></trkpt><trkpt lat="42.973631079648854" lon="9.376547219127591"><ele>322.8</ele><time>2026-05-01T07:49:35Z</time></trkpt><trkpt lat="42.973601833598" lon="9.37640459701955"><ele>321.20000000000005</ele><time>2026-05-01T07:49:36Z</time></trkpt><trkpt lat="42.973583032519436" lon="9.376260179499452"><ele>319.6</ele><time>2026-05-01T07:49:37Z</time></trkpt><trkpt lat="42.97357679387173" lon="9.37610795353361"><ele>318.0</ele><time>2026-05-01T07:49:38Z</time></trkpt><trkpt lat="42.97357524150092" lon="9.375952641112468"><ele>317.5</ele><time>2026-05-01T07:49:39Z</time></trkpt><trkpt lat="42.973570595222256" lon="9.375806351339302"><ele>317.0</ele><time>2026-05-01T07:49:40Z</time></trkpt><trkpt lat="42.973545015092796" lon="9.37566020241393"><ele>316.5</ele><time>2026-05-01T07:49:41Z</time></trkpt><trkpt lat="42.97349305919858" lon="9.37551288791202"><ele>316.0</ele><time>2026-05-01T07:49:42Z</time></trkpt><trkpt lat="42.97342084053015" lon="9.37537504695623"><ele>323.25</ele><time>2026-05-01T07:49:43Z</time></trkpt><trkpt lat="42.97334462778777" lon="9.37523986671029"><ele>330.5</ele><time>2026-05-01T07:49:44Z</time></trkpt><trkpt lat="42.97326899660984" lon="9.375102217365422"><ele>337.75</ele><time>2026-05-01T07:49:45Z</time></trkpt><trkpt lat="42.97320099724233" lon="9.374955729384519"><ele>345.0</ele><time>2026-05-01T07:49:46Z</time></trkpt><trkpt lat="42.97314284431472" lon="9.374806044851331"><ele>345.0</ele><time>2026-05-01T07:49:47Z</time></trkpt><trkpt lat="42.9731058583548" lon="9.374645542834932"><ele>345.0</ele><time>2026-05-01T07:49:48Z</time></trkpt><trkpt lat="42.97308689916177" lon="9.374473922158877"><ele>345.0</ele><time>2026-05-01T07:49:49Z</time></trkpt><trkpt lat="42.97310004537893" lon="9.374293846758398"><ele>345.0</ele><time>2026-05-01T07:49:50Z</time></trkpt><trkpt lat="42.973147774810414" lon="9.374113778634916"><ele>345.0</ele><time>2026-05-01T07:49:51Z</time></trkpt><trkpt lat="42.9732124245789" lon="9.373942364551095"><ele>345.0</ele><time>2026-05-01T07:49:52Z</time></trkpt><trkpt lat="42.973294516351864" lon="9.373763663025949"><ele>345.0</ele><time>2026-05-01T07:49:53Z</time></trkpt><trkpt lat="42.973390048188804" lon="9.373584064972762"><ele>339.6666666666667</ele><time>2026-05-01T07:49:54Z</time></trkpt><trkpt lat="42.97349541589951" lon="9.373426039410871"><ele>334.33333333333337</ele><time>2026-05-01T07:49:55Z</time></trkpt><trkpt lat="42.97358951867981" lon="9.373257173275077"><ele>329.0</ele><time>2026-05-01T07:49:56Z</time></trkpt><trkpt lat="42.973653415742156" lon="9.373064435975568"><ele>330.6666666666667</ele><time>2026-05-01T07:49:57Z</time></trkpt><trkpt lat="42.97368445478864" lon="9.372838762375869"><ele>332.3333333333333</ele><time>2026-05-01T07:49:58Z</time></trkpt><trkpt lat="42.97367722301923" lon="9.372610657518289"><ele>334.0</ele><time>2026-05-01T07:49:59Z</time></trkpt><trkpt lat="42.9736341414064" lon="9.372383545639732"><ele>333.66666666666663</ele><time>2026-05-01T07:50:00Z</time></trkpt><trkpt lat="42.97358311098105" lon="9.372154322679869"><ele>333.3333333333333</ele><time>2026-05-01T07:50:01Z</time></trkpt><trkpt lat="42.973534171069105" lon="9.371912671808706"><ele>333.0</ele><time>2026-05-01T07:50:02Z</time></trkpt><trkpt lat="42.97348255986998" lon="9.371669658088488"><ele>333.0</ele><time>2026-05-01T07:50:03Z</time></trkpt><trkpt lat="42.97343145682092" lon="9.371429009254063"><ele>333.0</ele><time>2026-05-01T07:50:04Z</time></trkpt><trkpt lat="42.97336903031784" lon="9.371197087778933"><ele>333.0</ele><time>2026-05-01T07:50:05Z</time></trkpt><trkpt lat="42.97329675715986" lon="9.370974878656781"><ele>339.3333333333333</ele><time>2026-05-01T07:50:06Z</time></trkpt><trkpt lat="42.97322891715804" lon="9.370758377287464"><ele>345.66666666666663</ele><time>2026-05-01T07:50:07Z</time></trkpt><trkpt lat="42.97317738886206" lon="9.370553380059935"><ele>352.0</ele><time>2026-05-01T07:50:08Z</time></trkpt><trkpt lat="42.973136539915764" lon="9.37036029557306"><ele>352.0</ele><time>2026-05-01T07:50:09Z</time></trkpt><trkpt lat="42.9731023099157" lon="9.370166248758856"><ele>352.0</ele><time>2026-05-01T07:50:10Z</time></trkpt><trkpt lat="42.97308256529576" lon="9.369969689309182"><ele>352.0</ele><time>2026-05-01T07:50:11Z</time></trkpt><trkpt lat="42.97307970585851" lon="9.369778061799398"><ele>352.0</ele><time>2026-05-01T07:50:12Z</time></trkpt><trkpt lat="42.97307448472352" lon="9.369587935910817"><ele>352.5</ele><time>2026-05-01T07:50:13Z</time></trkpt><trkpt lat="42.97307361816398" lon="9.369398185043558"><ele>353.0</ele><time>2026-05-01T07:50:14Z</time></trkpt><trkpt lat="42.973092678712966" lon="9.369205556039178"><ele>353.5</ele><time>2026-05-01T07:50:15Z</time></trkpt><trkpt lat="42.973134026937664" lon="9.36901661853955"><ele>354.0</ele><time>2026-05-01T07:50:16Z</time></trkpt><trkpt lat="42.973179253414784" lon="9.368819708028324"><ele>356.3333333333333</ele><time>2026-05-01T07:50:17Z</time></trkpt><trkpt lat="42.97322102698949" lon="9.36862003048432"><ele>358.66666666666663</ele><time>2026-05-01T07:50:18Z</time></trkpt><trkpt lat="42.973263606628066" lon="9.36842308057997"><ele>361.0</ele><time>2026-05-01T07:50:19Z</time></trkpt><trkpt lat="42.97331429893801" lon="9.368231656303937"><ele>360.0</ele><time>2026-05-01T07:50:20Z</time></trkpt><trkpt lat="42.97336111233924" lon="9.368049339128623"><ele>359.0</ele><time>2026-05-01T07:50:21Z</time></trkpt><trkpt lat="42.97340288257231" lon="9.367877631713903"><ele>358.0</ele><time>2026-05-01T07:50:22Z</time></trkpt><trkpt lat="42.97344029872215" lon="9.367712033616819"><ele>357.0</ele><time>2026-05-01T07:50:23Z</time></trkpt><trkpt lat="42.973483436592204" lon="9.367560248611188"><ele>357.0</ele><time>2026-05-01T07:50:24Z</time></trkpt><trkpt lat="42.973518908189384" lon="9.367428132378254"><ele>357.0</ele><time>2026-05-01T07:50:25Z</time></trkpt><trkpt lat="42.97355417364587" lon="9.367328519252144"><ele>357.0</ele><time>2026-05-01T07:50:26Z</time></trkpt><trkpt lat="42.9735769151353" lon="9.367234542369316"><ele>357.0</ele><time>2026-05-01T07:50:27Z</time></trkpt><trkpt lat="42.9736207107186" lon="9.367089045932882"><ele>357.0</ele><time>2026-05-01T07:50:29Z</time></trkpt><trkpt lat="42.97363343732944" lon="9.366964266619599"><ele>360.20000000000005</ele><time>2026-05-01T07:50:31Z</time></trkpt><trkpt lat="42.973643156256145" lon="9.366853817489028"><ele>363.4</ele><time>2026-05-01T07:50:35Z</time></trkpt><trkpt lat="42.973631971144755" lon="9.366980928864145"><ele>366.6</ele><time>2026-05-01T07:50:38Z</time></trkpt><trkpt lat="42.97361301808947" lon="9.36708966105252"><ele>369.79999999999995</ele><time>2026-05-01T07:50:40Z</time></trkpt><trkpt lat="42.97359784690841" lon="9.367180533903793"><ele>373.0</ele><time>2026-05-01T07:50:44Z</time></trkpt><trkpt lat="42.973530099248045" lon="9.366780627917676"><ele>373.0</ele><time>2026-05-01T07:50:48Z</time></trkpt><trkpt lat="42.97346474592393" lon="9.366726494899181"><ele>373.0</ele><time>2026-05-01T07:50:50Z</time></trkpt><trkpt lat="42.97339936610521" lon="9.366672340133757"><ele>373.0</ele><time>2026-05-01T07:50:53Z</time></trkpt><trkpt lat="42.973328487870994" lon="9.366613631141604"><ele>373.0</ele><time>2026-05-01T07:50:57Z</time></trkpt><trkpt lat="42.973271928712634" lon="9.366566782753337"><ele>373.0</ele><time>2026-05-01T07:51:01Z</time></trkpt><trkpt lat="42.97320387390719" lon="9.366574954148687"><ele>373.0</ele><time>2026-05-01T07:51:04Z</time></trkpt><trkpt lat="42.97317360306752" lon="9.36648533885438"><ele>373.0</ele><time>2026-05-01T07:51:07Z</time></trkpt><trkpt lat="42.97304520623746" lon="9.366767735342602"><ele>371.2857142857143</ele><time>2026-05-01T07:54:40Z</time></trkpt><trkpt lat="42.97302243001317" lon="9.366861845953038"><ele>369.57142857142856</ele><time>2026-05-01T08:07:43.999Z</time></trkpt><trkpt lat="42.9730168952021" lon="9.36697026735758"><ele>367.8571428571429</ele><time>2026-05-01T08:07:46.999Z</time></trkpt><trkpt lat="42.97308672765882" lon="9.367009784237709"><ele>366.1428571428571</ele><time>2026-05-01T08:07:50.999Z</time></trkpt><trkpt lat="42.9731374131005" lon="9.366931160370326"><ele>364.4285714285714</ele><time>2026-05-01T08:07:53.999Z</time></trkpt><trkpt lat="42.973188964456845" lon="9.366879836898269"><ele>362.7142857142857</ele><time>2026-05-01T08:07:57.999Z</time></trkpt><trkpt lat="42.97311870428371" lon="9.36688183488663"><ele>361.0</ele><time>2026-05-01T08:08:01.999Z</time></trkpt><trkpt lat="42.97315844753158" lon="9.366982796294131"><ele>361.0</ele><time>2026-05-01T08:08:04.999Z</time></trkpt><trkpt lat="42.973179008906364" lon="9.36708614987347"><ele>361.0</ele><time>2026-05-01T08:08:07.999Z</time></trkpt><trkpt lat="42.97313382750152" lon="9.367205953384644"><ele>361.0</ele><time>2026-05-01T08:08:10.998Z</time></trkpt><trkpt lat="42.973030013284" lon="9.367291368169873"><ele>361.0</ele><time>2026-05-01T08:08:12.998Z</time></trkpt><trkpt lat="42.972960099646805" lon="9.367345259855135"><ele>361.0</ele><time>2026-05-01T08:08:14.998Z</time></trkpt><trkpt lat="42.972900757583275" lon="9.367403820023387"><ele>361.5</ele><time>2026-05-01T08:08:17.998Z</time></trkpt><trkpt lat="42.972850799390855" lon="9.367467917131606"><ele>362.0</ele><time>2026-05-01T08:08:20.998Z</time></trkpt><trkpt lat="42.9728037629026" lon="9.367563205438769"><ele>362.5</ele><time>2026-05-01T08:08:23.998Z</time></trkpt><trkpt lat="42.97273670206141" lon="9.367620301791305"><ele>363.0</ele><time>2026-05-01T08:08:48Z</time></trkpt><trkpt lat="42.97265703994631" lon="9.367733361004968"><ele>363.5</ele><time>2026-05-01T08:08:50Z</time></trkpt><trkpt lat="42.97260324596349" lon="9.36780866398939"><ele>364.0</ele><time>2026-05-01T08:08:51Z</time></trkpt><trkpt lat="42.97252522700393" lon="9.367853468815145"><ele>364.0</ele><time>2026-05-01T08:08:52Z</time></trkpt><trkpt lat="42.97245528844365" lon="9.367943329142987"><ele>364.0</ele><time>2026-05-01T08:08:53Z</time></trkpt><trkpt lat="42.972383195982054" lon="9.368043601617503"><ele>364.0</ele><time>2026-05-01T08:08:54Z</time></trkpt><trkpt lat="42.9722855603231" lon="9.368179435442498"><ele>364.0</ele><time>2026-05-01T08:08:55Z</time></trkpt><trkpt lat="42.97220598343416" lon="9.368287064797734"><ele>364.0</ele><time>2026-05-01T08:08:56Z</time></trkpt><trkpt lat="42.9721181021254" lon="9.368405926092324"><ele>364.0</ele><time>2026-05-01T08:08:57Z</time></trkpt><trkpt lat="42.97202532112639" lon="9.368531414296537"><ele>364.0</ele><time>2026-05-01T08:08:58Z</time></trkpt><trkpt lat="42.97194072752811" lon="9.368635865109256"><ele>364.0</ele><time>2026-05-01T08:08:59Z</time></trkpt><trkpt lat="42.971853133605194" lon="9.368703830334578"><ele>364.0</ele><time>2026-05-01T08:09:00Z</time></trkpt><trkpt lat="42.97174437648235" lon="9.368705620018181"><ele>364.0</ele><time>2026-05-01T08:09:01Z</time></trkpt><trkpt lat="42.97163789043484" lon="9.368637294779376"><ele>364.0</ele><time>2026-05-01T08:09:02Z</time></trkpt><trkpt lat="42.971519836131776" lon="9.368567433082557"><ele>364.0</ele><time>2026-05-01T08:09:03Z</time></trkpt><trkpt lat="42.97139545851706" lon="9.368525055416958"><ele>358.75</ele><time>2026-05-01T08:09:04Z</time></trkpt><trkpt lat="42.97127577727964" lon="9.368507922991078"><ele>353.5</ele><time>2026-05-01T08:09:05Z</time></trkpt><trkpt lat="42.97113855461545" lon="9.368555727850135"><ele>348.25</ele><time>2026-05-01T08:09:06Z</time></trkpt><trkpt lat="42.97099759046497" lon="9.36861491182412"><ele>343.0</ele><time>2026-05-01T08:09:07Z</time></trkpt><trkpt lat="42.970865863022226" lon="9.368695611992813"><ele>345.0</ele><time>2026-05-01T08:09:08Z</time></trkpt><trkpt lat="42.97072212320503" lon="9.368747961120835"><ele>347.0</ele><time>2026-05-01T08:09:08.999Z</time></trkpt><trkpt lat="42.97060762983258" lon="9.36887648536589"><ele>349.0</ele><time>2026-05-01T08:09:09.999Z</time></trkpt><trkpt lat="42.970508751452584" lon="9.36904624193905"><ele>349.0</ele><time>2026-05-01T08:09:10.999Z</time></trkpt><trkpt lat="42.97041257312445" lon="9.369245770272357"><ele>349.0</ele><time>2026-05-01T08:09:11.999Z</time></trkpt><trkpt lat="42.9703038376932" lon="9.369404092871449"><ele>349.0</ele><time>2026-05-01T08:09:12.999Z</time></trkpt><trkpt lat="42.97018781635974" lon="9.369596081732656"><ele>344.66666666666663</ele><time>2026-05-01T08:09:13.999Z</time></trkpt><trkpt lat="42.970077325065766" lon="9.369778919620492"><ele>340.3333333333333</ele><time>2026-05-01T08:09:14.999Z</time></trkpt><trkpt lat="42.96995414990127" lon="9.369992478858748"><ele>336.0</ele><time>2026-05-01T08:09:15.999Z</time></trkpt><trkpt lat="42.96984045587474" lon="9.370189824459494"><ele>336.0</ele><time>2026-05-01T08:09:16.999Z</time></trkpt><trkpt lat="42.96972664988644" lon="9.370385227525878"><ele>336.0</ele><time>2026-05-01T08:09:17.999Z</time></trkpt><trkpt lat="42.96960056969329" lon="9.370593321454457"><ele>336.0</ele><time>2026-05-01T08:09:18.999Z</time></trkpt><trkpt lat="42.969478846078424" lon="9.370792542662606"><ele>336.6666666666667</ele><time>2026-05-01T08:09:19.999Z</time></trkpt><trkpt lat="42.969360059691674" lon="9.370986941213896"><ele>337.33333333333337</ele><time>2026-05-01T08:09:20.999Z</time></trkpt><trkpt lat="42.969246517947916" lon="9.37117266002903"><ele>338.0</ele><time>2026-05-01T08:09:21.999Z</time></trkpt><trkpt lat="42.9691307512523" lon="9.371365106548986"><ele>338.0</ele><time>2026-05-01T08:09:22.999Z</time></trkpt><trkpt lat="42.96903513151569" lon="9.371545977006278"><ele>338.0</ele><time>2026-05-01T08:09:23.999Z</time></trkpt><trkpt lat="42.968947846596414" lon="9.371780506594291"><ele>338.0</ele><time>2026-05-01T08:09:24.999Z</time></trkpt><trkpt lat="42.96888811829234" lon="9.372025196645392"><ele>342.6666666666667</ele><time>2026-05-01T08:09:25.999Z</time></trkpt><trkpt lat="42.96883915936658" lon="9.372261532799437"><ele>347.3333333333333</ele><time>2026-05-01T08:09:26.999Z</time></trkpt><trkpt lat="42.96877028687105" lon="9.372449003762322"><ele>352.0</ele><time>2026-05-01T08:09:27.999Z</time></trkpt><trkpt lat="42.96866444849475" lon="9.37258039657153"><ele>352.0</ele><time>2026-05-01T08:09:28.999Z</time></trkpt><trkpt lat="42.96854247656831" lon="9.3727497756124"><ele>352.0</ele><time>2026-05-01T08:09:29.999Z</time></trkpt><trkpt lat="42.96845685756315" lon="9.372940273937765"><ele>352.0</ele><time>2026-05-01T08:09:30.999Z</time></trkpt><trkpt lat="42.96838726481664" lon="9.373147967601362"><ele>343.66666666666663</ele><time>2026-05-01T08:09:31.999Z</time></trkpt><trkpt lat="42.96831387763172" lon="9.373331630931526"><ele>335.3333333333333</ele><time>2026-05-01T08:09:32.999Z</time></trkpt><trkpt lat="42.968197266034785" lon="9.37345777032275"><ele>327.0</ele><time>2026-05-01T08:09:33.999Z</time></trkpt><trkpt lat="42.96804891884917" lon="9.373564388189102"><ele>327.0</ele><time>2026-05-01T08:09:34.999Z</time></trkpt><trkpt lat="42.96792484734877" lon="9.37368948003665"><ele>327.0</ele><time>2026-05-01T08:09:35.999Z</time></trkpt><trkpt lat="42.96784763505062" lon="9.373861452830957"><ele>327.0</ele><time>2026-05-01T08:09:36.999Z</time></trkpt><trkpt lat="42.967776210774204" lon="9.37403695285248"><ele>327.0</ele><time>2026-05-01T08:09:37.999Z</time></trkpt><trkpt lat="42.96767153967877" lon="9.374146015249396"><ele>324.25</ele><time>2026-05-01T08:09:38.999Z</time></trkpt><trkpt lat="42.96754609414767" lon="9.374233969002587"><ele>321.5</ele><time>2026-05-01T08:09:39.999Z</time></trkpt><trkpt lat="42.96740894290189" lon="9.374237824664078"><ele>318.75</ele><time>2026-05-01T08:09:40.999Z</time></trkpt><trkpt lat="42.967242609942915" lon="9.374221428108697"><ele>316.0</ele><time>2026-05-01T08:09:41.999Z</time></trkpt><trkpt lat="42.96710036790103" lon="9.374251589410608"><ele>316.0</ele><time>2026-05-01T08:09:42.999Z</time></trkpt><trkpt lat="42.966962589204925" lon="9.37432768337318"><ele>316.0</ele><time>2026-05-01T08:09:43.999Z</time></trkpt><trkpt lat="42.96682016185472" lon="9.3744518275111"><ele>316.0</ele><time>2026-05-01T08:09:44.999Z</time></trkpt><trkpt lat="42.96667117363776" lon="9.374526983908886"><ele>312.25</ele><time>2026-05-01T08:09:45.999Z</time></trkpt><trkpt lat="42.966543243927994" lon="9.374492095243774"><ele>308.5</ele><time>2026-05-01T08:09:46.999Z</time></trkpt><trkpt lat="42.96643411893949" lon="9.374382309443531"><ele>304.75</ele><time>2026-05-01T08:09:47.999Z</time></trkpt><trkpt lat="42.96628962798182" lon="9.37426956919523"><ele>301.0</ele><time>2026-05-01T08:09:48.999Z</time></trkpt><trkpt lat="42.96612858299224" lon="9.37421090107025"><ele>301.0</ele><time>2026-05-01T08:09:49.999Z</time></trkpt><trkpt lat="42.96596217875326" lon="9.374157673637361"><ele>301.0</ele><time>2026-05-01T08:09:50.999Z</time></trkpt><trkpt lat="42.96578900740564" lon="9.374083651282218"><ele>301.0</ele><time>2026-05-01T08:09:51.999Z</time></trkpt><trkpt lat="42.965641251763095" lon="9.373953505450917"><ele>295.3333333333333</ele><time>2026-05-01T08:09:52.999Z</time></trkpt><trkpt lat="42.96550486731745" lon="9.373837470427707"><ele>289.6666666666667</ele><time>2026-05-01T08:09:53.999Z</time></trkpt><trkpt lat="42.96535724065796" lon="9.37379382420628"><ele>284.0</ele><time>2026-05-01T08:09:54.999Z</time></trkpt><trkpt lat="42.96519129751827" lon="9.37380217896179"><ele>284.0</ele><time>2026-05-01T08:09:55.999Z</time></trkpt><trkpt lat="42.96503938458037" lon="9.373838820684982"><ele>284.0</ele><time>2026-05-01T08:09:56.999Z</time></trkpt><trkpt lat="42.96492462674164" lon="9.373948929004925"><ele>284.0</ele><time>2026-05-01T08:09:57.999Z</time></trkpt><trkpt lat="42.964840599157554" lon="9.37410095723966"><ele>284.0</ele><time>2026-05-01T08:09:58.999Z</time></trkpt><trkpt lat="42.96478389193476" lon="9.374298644913246"><ele>289.33333333333337</ele><time>2026-05-01T08:09:59.999Z</time></trkpt><trkpt lat="42.964700935530686" lon="9.37448401775282"><ele>294.6666666666667</ele><time>2026-05-01T08:10:00.999Z</time></trkpt><trkpt lat="42.96461925053691" lon="9.374669710809293"><ele>300.0</ele><time>2026-05-01T08:10:01.999Z</time></trkpt><trkpt lat="42.964516067077724" lon="9.374808193443418"><ele>301.5</ele><time>2026-05-01T08:10:02.998Z</time></trkpt><trkpt lat="42.96439978111552" lon="9.37489499326558"><ele>303.0</ele><time>2026-05-01T08:10:03.998Z</time></trkpt><trkpt lat="42.964276851294464" lon="9.374870257605016"><ele>304.5</ele><time>2026-05-01T08:10:04.998Z</time></trkpt><trkpt lat="42.96412080109952" lon="9.374834040623409"><ele>306.0</ele><time>2026-05-01T08:10:05.998Z</time></trkpt><trkpt lat="42.96395759329882" lon="9.374812505216552"><ele>306.0</ele><time>2026-05-01T08:10:06.998Z</time></trkpt><trkpt lat="42.96379462974836" lon="9.374752825424718"><ele>306.0</ele><time>2026-05-01T08:10:07.998Z</time></trkpt><trkpt lat="42.96364882830343" lon="9.3747209865283"><ele>306.0</ele><time>2026-05-01T08:10:08.998Z</time></trkpt><trkpt lat="42.96351112220201" lon="9.374744671772143"><ele>306.0</ele><time>2026-05-01T08:10:09.998Z</time></trkpt><trkpt lat="42.96336615236463" lon="9.37486580879111"><ele>306.0</ele><time>2026-05-01T08:10:10.998Z</time></trkpt><trkpt lat="42.963219186854296" lon="9.375019676265772"><ele>306.0</ele><time>2026-05-01T08:10:11.998Z</time></trkpt><trkpt lat="42.96307553659631" lon="9.375151548925617"><ele>301.0</ele><time>2026-05-01T08:10:12.998Z</time></trkpt><trkpt lat="42.962932389926365" lon="9.375269290171426"><ele>296.0</ele><time>2026-05-01T08:10:13.998Z</time></trkpt><trkpt lat="42.962784473365936" lon="9.375388312690085"><ele>291.0</ele><time>2026-05-01T08:10:14.998Z</time></trkpt><trkpt lat="42.962651833650206" lon="9.375482703943675"><ele>290.8</ele><time>2026-05-01T08:10:15.998Z</time></trkpt><trkpt lat="42.962543509913125" lon="9.375536946334519"><ele>290.6</ele><time>2026-05-01T08:10:16.998Z</time></trkpt><trkpt lat="42.96245035611415" lon="9.37551135866439"><ele>290.4</ele><time>2026-05-01T08:10:17.998Z</time></trkpt><trkpt lat="42.96238317954049" lon="9.375410667516148"><ele>290.2</ele><time>2026-05-01T08:10:18.998Z</time></trkpt><trkpt lat="42.96236160362986" lon="9.375263940524782"><ele>290.0</ele><time>2026-05-01T08:10:19.998Z</time></trkpt><trkpt lat="42.9623884532171" lon="9.37510054428349"><ele>290.0</ele><time>2026-05-01T08:10:20.998Z</time></trkpt><trkpt lat="42.962480507328664" lon="9.374947799362774"><ele>290.0</ele><time>2026-05-01T08:10:21.998Z</time></trkpt><trkpt lat="42.96255436389041" lon="9.374748253871665"><ele>290.0</ele><time>2026-05-01T08:10:22.998Z</time></trkpt><trkpt lat="42.96262074931442" lon="9.374540044701813"><ele>281.6666666666667</ele><time>2026-05-01T08:10:23.998Z</time></trkpt><trkpt lat="42.962673734067536" lon="9.374325167871952"><ele>273.3333333333333</ele><time>2026-05-01T08:10:24.998Z</time></trkpt><trkpt lat="42.9626861995385" lon="9.374075362503062"><ele>265.0</ele><time>2026-05-01T08:10:25.998Z</time></trkpt><trkpt lat="42.962652057134186" lon="9.373812548950564"><ele>259.66666666666663</ele><time>2026-05-01T08:10:26.998Z</time></trkpt><trkpt lat="42.962681718388275" lon="9.37356163225174"><ele>254.33333333333331</ele><time>2026-05-01T08:10:27.998Z</time></trkpt><trkpt lat="42.96273675499516" lon="9.37331114698209"><ele>249.0</ele><time>2026-05-01T08:10:28.998Z</time></trkpt><trkpt lat="42.962786890099494" lon="9.37304943564551"><ele>244.0</ele><time>2026-05-01T08:10:29.998Z</time></trkpt><trkpt lat="42.962851336298385" lon="9.372820652071542"><ele>239.0</ele><time>2026-05-01T08:10:31Z</time></trkpt><trkpt lat="42.96288018911305" lon="9.372594750132196"><ele>234.0</ele><time>2026-05-01T08:10:32Z</time></trkpt><trkpt lat="42.96285739210007" lon="9.3723840425852"><ele>234.0</ele><time>2026-05-01T08:10:33Z</time></trkpt><trkpt lat="42.96278224469499" lon="9.372196659044517"><ele>234.0</ele><time>2026-05-01T08:10:34Z</time></trkpt><trkpt lat="42.96265128982882" lon="9.372045345760036"><ele>234.0</ele><time>2026-05-01T08:10:35Z</time></trkpt><trkpt lat="42.96255475002392" lon="9.37186335942217"><ele>239.0</ele><time>2026-05-01T08:10:36Z</time></trkpt><trkpt lat="42.962511379627024" lon="9.371626831120825"><ele>244.0</ele><time>2026-05-01T08:10:37Z</time></trkpt><trkpt lat="42.962452231602526" lon="9.371383219379107"><ele>249.0</ele><time>2026-05-01T08:10:38Z</time></trkpt><trkpt lat="42.962410263955384" lon="9.37117476610151"><ele>249.0</ele><time>2026-05-01T08:10:39Z</time></trkpt><trkpt lat="42.962329146295026" lon="9.371013289917911"><ele>249.0</ele><time>2026-05-01T08:10:40Z</time></trkpt><trkpt lat="42.96220275042372" lon="9.370898990428072"><ele>249.0</ele><time>2026-05-01T08:10:41Z</time></trkpt><trkpt lat="42.96207179808027" lon="9.370785292116066"><ele>249.0</ele><time>2026-05-01T08:10:42Z</time></trkpt><trkpt lat="42.962028436606666" lon="9.370590466588405"><ele>249.0</ele><time>2026-05-01T08:10:43Z</time></trkpt><trkpt lat="42.9619671572512" lon="9.370393358079088"><ele>249.0</ele><time>2026-05-01T08:10:44Z</time></trkpt><trkpt lat="42.961905360433626" lon="9.370214986782472"><ele>248.0</ele><time>2026-05-01T08:10:45Z</time></trkpt><trkpt lat="42.961783875701386" lon="9.370086439321197"><ele>247.0</ele><time>2026-05-01T08:10:46Z</time></trkpt><trkpt lat="42.96162811923657" lon="9.370027155765737"><ele>246.0</ele><time>2026-05-01T08:10:47Z</time></trkpt><trkpt lat="42.96147389065694" lon="9.370015845281015"><ele>246.0</ele><time>2026-05-01T08:10:48Z</time></trkpt><trkpt lat="42.96131354443919" lon="9.370060548700796"><ele>246.0</ele><time>2026-05-01T08:10:49Z</time></trkpt><trkpt lat="42.961134534170135" lon="9.370069671740668"><ele>246.0</ele><time>2026-05-01T08:10:50Z</time></trkpt><trkpt lat="42.960961869211026" lon="9.370086772900624"><ele>247.25</ele><time>2026-05-01T08:10:51Z</time></trkpt><trkpt lat="42.960832549957225" lon="9.370102468040862"><ele>248.5</ele><time>2026-05-01T08:10:52Z</time></trkpt><trkpt lat="42.96072529527263" lon="9.370093873926404"><ele>249.75</ele><time>2026-05-01T08:10:53Z</time></trkpt><trkpt lat="42.96066117433944" lon="9.369947906295756"><ele>251.0</ele><time>2026-05-01T08:10:54Z</time></trkpt><trkpt lat="42.96057470803444" lon="9.369822325651016"><ele>247.0</ele><time>2026-05-01T08:10:55Z</time></trkpt><trkpt lat="42.960569738010655" lon="9.36963382619485"><ele>243.0</ele><time>2026-05-01T08:10:56Z</time></trkpt><trkpt lat="42.960635953087596" lon="9.36946160514781"><ele>239.0</ele><time>2026-05-01T08:10:57Z</time></trkpt><trkpt lat="42.96069302205452" lon="9.369260568782199"><ele>235.0</ele><time>2026-05-01T08:10:58Z</time></trkpt><trkpt lat="42.96070867349185" lon="9.369058895615105"><ele>233.0</ele><time>2026-05-01T08:10:59Z</time></trkpt><trkpt lat="42.960663618599504" lon="9.36883011315336"><ele>231.0</ele><time>2026-05-01T08:11:00Z</time></trkpt><trkpt lat="42.96060420160485" lon="9.36861312046528"><ele>229.0</ele><time>2026-05-01T08:11:01Z</time></trkpt><trkpt lat="42.96054125598189" lon="9.368419121869767"><ele>229.0</ele><time>2026-05-01T08:11:01.999Z</time></trkpt><trkpt lat="42.96044176904749" lon="9.368276410514865"><ele>229.0</ele><time>2026-05-01T08:11:02.999Z</time></trkpt><trkpt lat="42.96031053868069" lon="9.368146933942953"><ele>229.0</ele><time>2026-05-01T08:11:03.999Z</time></trkpt><trkpt lat="42.96017588357366" lon="9.36801119624342"><ele>227.25</ele><time>2026-05-01T08:11:04.999Z</time></trkpt><trkpt lat="42.96004965628401" lon="9.367878225113834"><ele>225.5</ele><time>2026-05-01T08:11:05.999Z</time></trkpt><trkpt lat="42.959921984867705" lon="9.36779495539131"><ele>223.75</ele><time>2026-05-01T08:11:06.999Z</time></trkpt><trkpt lat="42.959792547482955" lon="9.367791648360356"><ele>222.0</ele><time>2026-05-01T08:11:07.999Z</time></trkpt><trkpt lat="42.95966716979264" lon="9.36785207813245"><ele>222.0</ele><time>2026-05-01T08:11:08.999Z</time></trkpt><trkpt lat="42.95953771054839" lon="9.367942534153674"><ele>222.0</ele><time>2026-05-01T08:11:09.999Z</time></trkpt><trkpt lat="42.95940335193777" lon="9.368073530852357"><ele>222.0</ele><time>2026-05-01T08:11:10.999Z</time></trkpt><trkpt lat="42.95926352283357" lon="9.368224987538836"><ele>224.0</ele><time>2026-05-01T08:11:11.999Z</time></trkpt><trkpt lat="42.959121342252146" lon="9.368394095366204"><ele>226.0</ele><time>2026-05-01T08:11:12.999Z</time></trkpt><trkpt lat="42.958973792331456" lon="9.368569589718605"><ele>228.0</ele><time>2026-05-01T08:11:13.999Z</time></trkpt><trkpt lat="42.958822061171226" lon="9.368719788919584"><ele>228.0</ele><time>2026-05-01T08:11:14.999Z</time></trkpt><trkpt lat="42.958614496435494" lon="9.368812728733655"><ele>228.0</ele><time>2026-05-01T08:11:15.999Z</time></trkpt><trkpt lat="42.95845057414883" lon="9.368973654216866"><ele>228.0</ele><time>2026-05-01T08:11:16.999Z</time></trkpt><trkpt lat="42.958325142237484" lon="9.369151182953548"><ele>229.33333333333331</ele><time>2026-05-01T08:11:17.999Z</time></trkpt><trkpt lat="42.95814173552059" lon="9.369306974653826"><ele>230.66666666666666</ele><time>2026-05-01T08:11:18.999Z</time></trkpt><trkpt lat="42.95795763697463" lon="9.369462073249982"><ele>232.0</ele><time>2026-05-01T08:11:19.999Z</time></trkpt><trkpt lat="42.95778186458495" lon="9.36965900790718"><ele>231.33333333333331</ele><time>2026-05-01T08:11:20.999Z</time></trkpt><trkpt lat="42.95762496692657" lon="9.369846050498706"><ele>230.66666666666669</ele><time>2026-05-01T08:11:21.999Z</time></trkpt><trkpt lat="42.95746558332252" lon="9.369947020547778"><ele>230.0</ele><time>2026-05-01T08:11:22.999Z</time></trkpt><trkpt lat="42.95730796058917" lon="9.370042001090127"><ele>230.0</ele><time>2026-05-01T08:11:23.999Z</time></trkpt><trkpt lat="42.95721855430485" lon="9.370195647182943"><ele>230.0</ele><time>2026-05-01T08:11:24.999Z</time></trkpt><trkpt lat="42.957160209577474" lon="9.370379876683298"><ele>230.0</ele><time>2026-05-01T08:11:25.999Z</time></trkpt><trkpt lat="42.95707041589474" lon="9.37059001597342"><ele>239.66666666666669</ele><time>2026-05-01T08:11:26.999Z</time></trkpt><trkpt lat="42.95696395975274" lon="9.370804667649491"><ele>249.33333333333331</ele><time>2026-05-01T08:11:27.999Z</time></trkpt><trkpt lat="42.95691175871075" lon="9.371050914242675"><ele>259.0</ele><time>2026-05-01T08:11:28.999Z</time></trkpt><trkpt lat="42.95685747231419" lon="9.37131058966892"><ele>265.3333333333333</ele><time>2026-05-01T08:11:29.999Z</time></trkpt><trkpt lat="42.95678162532328" lon="9.371522607014471"><ele>271.6666666666667</ele><time>2026-05-01T08:11:30.999Z</time></trkpt><trkpt lat="42.95666565820395" lon="9.371664301858418"><ele>278.0</ele><time>2026-05-01T08:11:31.999Z</time></trkpt><trkpt lat="42.95651876173975" lon="9.371820299917932"><ele>272.0</ele><time>2026-05-01T08:11:32.999Z</time></trkpt><trkpt lat="42.95643935587354" lon="9.37202808153753"><ele>266.0</ele><time>2026-05-01T08:11:33.999Z</time></trkpt><trkpt lat="42.95635679746101" lon="9.372205520759938"><ele>260.0</ele><time>2026-05-01T08:11:34.999Z</time></trkpt><trkpt lat="42.95626198063882" lon="9.372273987967795"><ele>254.0</ele><time>2026-05-01T08:11:35.999Z</time></trkpt><trkpt lat="42.95616883509557" lon="9.372294198244992"><ele>254.0</ele><time>2026-05-01T08:11:36.999Z</time></trkpt><trkpt lat="42.95606238251491" lon="9.372193415875818"><ele>254.0</ele><time>2026-05-01T08:11:37.999Z</time></trkpt><trkpt lat="42.955986529377114" lon="9.372011171650902"><ele>254.0</ele><time>2026-05-01T08:11:38.999Z</time></trkpt><trkpt lat="42.95595886653352" lon="9.371761701852556"><ele>249.0</ele><time>2026-05-01T08:11:39.999Z</time></trkpt><trkpt lat="42.955882537611885" lon="9.371510544385524"><ele>244.0</ele><time>2026-05-01T08:11:40.999Z</time></trkpt><trkpt lat="42.95578848162565" lon="9.371292987711774"><ele>239.0</ele><time>2026-05-01T08:11:41.999Z</time></trkpt><trkpt lat="42.95568495487398" lon="9.371137349948336"><ele>231.5</ele><time>2026-05-01T08:11:42.999Z</time></trkpt><trkpt lat="42.95557042397388" lon="9.371079820786342"><ele>224.0</ele><time>2026-05-01T08:11:43.999Z</time></trkpt><trkpt lat="42.95544365291534" lon="9.371126889733551"><ele>216.5</ele><time>2026-05-01T08:11:44.999Z</time></trkpt><trkpt lat="42.955305232817935" lon="9.371227236204863"><ele>209.0</ele><time>2026-05-01T08:11:45.999Z</time></trkpt><trkpt lat="42.95514934775902" lon="9.37135156353555"><ele>211.33333333333334</ele><time>2026-05-01T08:11:46.999Z</time></trkpt><trkpt lat="42.95502199498437" lon="9.37150717224274"><ele>213.66666666666669</ele><time>2026-05-01T08:11:47.999Z</time></trkpt><trkpt lat="42.954921486012154" lon="9.371708790782595"><ele>216.0</ele><time>2026-05-01T08:11:48.999Z</time></trkpt><trkpt lat="42.95485727417164" lon="9.37195272531564"><ele>223.0</ele><time>2026-05-01T08:11:49.999Z</time></trkpt><trkpt lat="42.95481767150892" lon="9.372216353133414"><ele>230.0</ele><time>2026-05-01T08:11:50.999Z</time></trkpt><trkpt lat="42.9547188964341" lon="9.37244372499294"><ele>237.0</ele><time>2026-05-01T08:11:51.999Z</time></trkpt><trkpt lat="42.95457992907707" lon="9.372617255976827"><ele>237.0</ele><time>2026-05-01T08:11:52.999Z</time></trkpt><trkpt lat="42.954421057475756" lon="9.37279308579634"><ele>237.0</ele><time>2026-05-01T08:11:53.999Z</time></trkpt><trkpt lat="42.95430246138008" lon="9.372985477542825"><ele>237.0</ele><time>2026-05-01T08:11:54.999Z</time></trkpt><trkpt lat="42.95423946518148" lon="9.373229982827135"><ele>230.66666666666669</ele><time>2026-05-01T08:11:55.999Z</time></trkpt><trkpt lat="42.95415212956017" lon="9.373442252974073"><ele>224.33333333333334</ele><time>2026-05-01T08:11:56.999Z</time></trkpt><trkpt lat="42.95402068806728" lon="9.373577411453955"><ele>218.0</ele><time>2026-05-01T08:11:57.999Z</time></trkpt><trkpt lat="42.95387210433203" lon="9.373720502602167"><ele>218.0</ele><time>2026-05-01T08:11:58.999Z</time></trkpt><trkpt lat="42.95374642399453" lon="9.373834870606732"><ele>218.0</ele><time>2026-05-01T08:11:59.999Z</time></trkpt><trkpt lat="42.9536422592713" lon="9.373886822416264"><ele>218.0</ele><time>2026-05-01T08:12:00.999Z</time></trkpt><trkpt lat="42.95355006232123" lon="9.373864114148459"><ele>218.0</ele><time>2026-05-01T08:12:01.999Z</time></trkpt><trkpt lat="42.953469469365494" lon="9.373725278717947"><ele>218.0</ele><time>2026-05-01T08:12:02.998Z</time></trkpt><trkpt lat="42.953447321046994" lon="9.373508617452995"><ele>218.0</ele><time>2026-05-01T08:12:03.998Z</time></trkpt><trkpt lat="42.953433027963406" lon="9.373283071459111"><ele>218.0</ele><time>2026-05-01T08:12:04.998Z</time></trkpt><trkpt lat="42.95346263729415" lon="9.37303468046712"><ele>218.33333333333334</ele><time>2026-05-01T08:12:05.998Z</time></trkpt><trkpt lat="42.95343231137462" lon="9.372780029871304"><ele>218.66666666666669</ele><time>2026-05-01T08:12:06.998Z</time></trkpt><trkpt lat="42.9533415858553" lon="9.372521776568039"><ele>219.0</ele><time>2026-05-01T08:12:07.998Z</time></trkpt><trkpt lat="42.953248895129796" lon="9.372283495168707"><ele>213.0</ele><time>2026-05-01T08:12:08.998Z</time></trkpt><trkpt lat="42.9531226909621" lon="9.372102830621047"><ele>207.0</ele><time>2026-05-01T08:12:09.998Z</time></trkpt><trkpt lat="42.95296273993616" lon="9.371945059279929"><ele>201.0</ele><time>2026-05-01T08:12:10.998Z</time></trkpt><trkpt lat="42.95277403259058" lon="9.371808920335491"><ele>201.0</ele><time>2026-05-01T08:12:11.998Z</time></trkpt><trkpt lat="42.952610297992145" lon="9.371655896617302"><ele>201.0</ele><time>2026-05-01T08:12:12.998Z</time></trkpt><trkpt lat="42.95254747618972" lon="9.371451459899282"><ele>201.0</ele><time>2026-05-01T08:12:13.998Z</time></trkpt><trkpt lat="42.95248497139337" lon="9.371240249665247"><ele>202.0</ele><time>2026-05-01T08:12:14.998Z</time></trkpt><trkpt lat="42.95244797047141" lon="9.370969019984823"><ele>203.0</ele><time>2026-05-01T08:12:15.998Z</time></trkpt><trkpt lat="42.95239982612915" lon="9.370701743915491"><ele>204.0</ele><time>2026-05-01T08:12:16.998Z</time></trkpt><trkpt lat="42.95233427953863" lon="9.370483606969037"><ele>204.0</ele><time>2026-05-01T08:12:17.998Z</time></trkpt><trkpt lat="42.95223924096619" lon="9.370361713234065"><ele>204.0</ele><time>2026-05-01T08:12:18.998Z</time></trkpt><trkpt lat="42.95211893364167" lon="9.370315660419887"><ele>204.0</ele><time>2026-05-01T08:12:19.998Z</time></trkpt><trkpt lat="42.95200120889243" lon="9.370397188942631"><ele>204.0</ele><time>2026-05-01T08:12:20.998Z</time></trkpt><trkpt lat="42.951910458394885" lon="9.370545811911937"><ele>208.66666666666669</ele><time>2026-05-01T08:12:21.998Z</time></trkpt><trkpt lat="42.95183284623481" lon="9.370762565374736"><ele>213.33333333333334</ele><time>2026-05-01T08:12:22.998Z</time></trkpt><trkpt lat="42.95171038465779" lon="9.370951821001618"><ele>218.0</ele><time>2026-05-01T08:12:23.998Z</time></trkpt><trkpt lat="42.95156327014213" lon="9.37113167286149"><ele>218.0</ele><time>2026-05-01T08:12:24.998Z</time></trkpt><trkpt lat="42.95140764502792" lon="9.371277131583295"><ele>218.0</ele><time>2026-05-01T08:12:25.998Z</time></trkpt><trkpt lat="42.95128162685044" lon="9.371349415599045"><ele>218.0</ele><time>2026-05-01T08:12:26.998Z</time></trkpt><trkpt lat="42.951178295016966" lon="9.371292888300655"><ele>218.0</ele><time>2026-05-01T08:12:27.998Z</time></trkpt><trkpt lat="42.951113829627936" lon="9.371154491541947"><ele>218.0</ele><time>2026-05-01T08:12:28.998Z</time></trkpt><trkpt lat="42.95110431505607" lon="9.370981935220536"><ele>218.0</ele><time>2026-05-01T08:12:29.998Z</time></trkpt><trkpt lat="42.95120741352924" lon="9.370788853365411"><ele>218.0</ele><time>2026-05-01T08:12:30.998Z</time></trkpt><trkpt lat="42.951259702802375" lon="9.370559138709186"><ele>212.33333333333334</ele><time>2026-05-01T08:12:31.998Z</time></trkpt><trkpt lat="42.95127864631703" lon="9.370336177535323"><ele>206.66666666666669</ele><time>2026-05-01T08:12:32.998Z</time></trkpt><trkpt lat="42.951255460868275" lon="9.370070925618547"><ele>201.0</ele><time>2026-05-01T08:12:33.998Z</time></trkpt><trkpt lat="42.95115528947166" lon="9.369836020249243"><ele>196.66666666666666</ele><time>2026-05-01T08:12:34.998Z</time></trkpt><trkpt lat="42.951018829808255" lon="9.36961039652842"><ele>192.33333333333331</ele><time>2026-05-01T08:12:35.998Z</time></trkpt><trkpt lat="42.95088516061424" lon="9.369352729818043"><ele>188.0</ele><time>2026-05-01T08:12:36.999Z</time></trkpt><trkpt lat="42.95080637503373" lon="9.369095645938465"><ele>194.33333333333331</ele><time>2026-05-01T08:12:37.999Z</time></trkpt><trkpt lat="42.95083360749002" lon="9.368869403940792"><ele>200.66666666666666</ele><time>2026-05-01T08:12:38.999Z</time></trkpt><trkpt lat="42.95082943933921" lon="9.368643339054895"><ele>207.0</ele><time>2026-05-01T08:12:39.999Z</time></trkpt><trkpt lat="42.95080698270911" lon="9.368414900556182"><ele>207.0</ele><time>2026-05-01T08:12:40.999Z</time></trkpt><trkpt lat="42.950723301353" lon="9.368148830911627"><ele>207.0</ele><time>2026-05-01T08:12:41.999Z</time></trkpt><trkpt lat="42.95061970001391" lon="9.36788340151622"><ele>207.0</ele><time>2026-05-01T08:12:42.999Z</time></trkpt><trkpt lat="42.95054055501856" lon="9.36764457530854"><ele>204.0</ele><time>2026-05-01T08:12:44Z</time></trkpt><trkpt lat="42.95043544898956" lon="9.367467703885938"><ele>201.0</ele><time>2026-05-01T08:12:45Z</time></trkpt><trkpt lat="42.95030355713732" lon="9.367346098296329"><ele>198.0</ele><time>2026-05-01T08:12:46Z</time></trkpt><trkpt lat="42.95013705822256" lon="9.367290695671253"><ele>203.0</ele><time>2026-05-01T08:12:47Z</time></trkpt><trkpt lat="42.94994326271064" lon="9.367286321329496"><ele>208.0</ele><time>2026-05-01T08:12:48Z</time></trkpt><trkpt lat="42.94974988868082" lon="9.367270234657878"><ele>213.0</ele><time>2026-05-01T08:12:49Z</time></trkpt><trkpt lat="42.94956155432943" lon="9.367247179449517"><ele>205.0</ele><time>2026-05-01T08:12:50Z</time></trkpt><trkpt lat="42.94938460380211" lon="9.3671886920376"><ele>197.0</ele><time>2026-05-01T08:12:51Z</time></trkpt><trkpt lat="42.949190188121705" lon="9.367117170944992"><ele>189.0</ele><time>2026-05-01T08:12:52Z</time></trkpt><trkpt lat="42.948968935872735" lon="9.367060142069514"><ele>189.0</ele><time>2026-05-01T08:12:53Z</time></trkpt><trkpt lat="42.948769093355025" lon="9.367047021601895"><ele>189.0</ele><time>2026-05-01T08:12:54Z</time></trkpt><trkpt lat="42.94860248832156" lon="9.367044746092208"><ele>189.0</ele><time>2026-05-01T08:12:55Z</time></trkpt><trkpt lat="42.94847484967931" lon="9.367009900244403"><ele>189.0</ele><time>2026-05-01T08:12:56Z</time></trkpt><trkpt lat="42.9484381331709" lon="9.366886443573247"><ele>189.0</ele><time>2026-05-01T08:12:57Z</time></trkpt><trkpt lat="42.94837082479051" lon="9.366764905979466"><ele>189.0</ele><time>2026-05-01T08:12:58Z</time></trkpt><trkpt lat="42.94837940472276" lon="9.366514238452163"><ele>189.0</ele><time>2026-05-01T08:12:59Z</time></trkpt><trkpt lat="42.94845588022671" lon="9.366264577552167"><ele>192.0</ele><time>2026-05-01T08:13:00Z</time></trkpt><trkpt lat="42.94848469870195" lon="9.366059975323905"><ele>195.0</ele><time>2026-05-01T08:13:01Z</time></trkpt><trkpt lat="42.948457447605506" lon="9.365880894245585"><ele>198.0</ele><time>2026-05-01T08:13:02Z</time></trkpt><trkpt lat="42.94837162511086" lon="9.36572326613132"><ele>201.0</ele><time>2026-05-01T08:13:03Z</time></trkpt><trkpt lat="42.94823664992059" lon="9.36557038663214"><ele>198.0</ele><time>2026-05-01T08:13:03.999Z</time></trkpt><trkpt lat="42.94815317722068" lon="9.365365307090414"><ele>195.0</ele><time>2026-05-01T08:13:04.999Z</time></trkpt><trkpt lat="42.948070707076106" lon="9.365200082659758"><ele>192.0</ele><time>2026-05-01T08:13:05.999Z</time></trkpt><trkpt lat="42.947972402577754" lon="9.365095679676864"><ele>189.0</ele><time>2026-05-01T08:13:06.999Z</time></trkpt><trkpt lat="42.947832085187606" lon="9.365102803504765"><ele>189.0</ele><time>2026-05-01T08:13:07.999Z</time></trkpt><trkpt lat="42.94768142676696" lon="9.365171221608914"><ele>189.0</ele><time>2026-05-01T08:13:08.999Z</time></trkpt><trkpt lat="42.94754794375109" lon="9.365239988746684"><ele>189.0</ele><time>2026-05-01T08:13:09.999Z</time></trkpt><trkpt lat="42.94744067806178" lon="9.365290506639269"><ele>189.0</ele><time>2026-05-01T08:13:10.999Z</time></trkpt><trkpt lat="42.94732960994444" lon="9.365342416745001"><ele>188.75</ele><time>2026-05-01T08:13:11.999Z</time></trkpt><trkpt lat="42.94720781982788" lon="9.365398836895139"><ele>188.5</ele><time>2026-05-01T08:13:12.999Z</time></trkpt><trkpt lat="42.947075911039626" lon="9.365454375263257"><ele>188.25</ele><time>2026-05-01T08:13:13.999Z</time></trkpt><trkpt lat="42.94694883363196" lon="9.365487610713792"><ele>188.0</ele><time>2026-05-01T08:13:14.999Z</time></trkpt><trkpt lat="42.946855549762795" lon="9.36541589158792"><ele>188.0</ele><time>2026-05-01T08:13:15.999Z</time></trkpt><trkpt lat="42.94680389293053" lon="9.365261681128498"><ele>188.0</ele><time>2026-05-01T08:13:16.999Z</time></trkpt><trkpt lat="42.94671019981442" lon="9.365152474315387"><ele>188.0</ele><time>2026-05-01T08:13:17.999Z</time></trkpt><trkpt lat="42.9466072281013" lon="9.365098483687422"><ele>188.0</ele><time>2026-05-01T08:13:18.999Z</time></trkpt><trkpt lat="42.94648015219559" lon="9.365100739757157"><ele>187.25</ele><time>2026-05-01T08:13:19.999Z</time></trkpt><trkpt lat="42.94634622514759" lon="9.365162248658171"><ele>186.5</ele><time>2026-05-01T08:13:20.999Z</time></trkpt><trkpt lat="42.94623776999654" lon="9.365156919326651"><ele>185.75</ele><time>2026-05-01T08:13:21.999Z</time></trkpt><trkpt lat="42.94613879945655" lon="9.365109674952848"><ele>185.0</ele><time>2026-05-01T08:13:22.999Z</time></trkpt><trkpt lat="42.946023868486314" lon="9.365063570530111"><ele>185.0</ele><time>2026-05-01T08:13:23.999Z</time></trkpt><trkpt lat="42.94591401660895" lon="9.365004313617284"><ele>185.0</ele><time>2026-05-01T08:13:24.999Z</time></trkpt><trkpt lat="42.94580336226459" lon="9.36495152766112"><ele>185.0</ele><time>2026-05-01T08:13:25.999Z</time></trkpt><trkpt lat="42.945682711277335" lon="9.364895230581713"><ele>185.0</ele><time>2026-05-01T08:13:26.999Z</time></trkpt><trkpt lat="42.9455696524315" lon="9.364852587047167"><ele>186.8</ele><time>2026-05-01T08:13:27.999Z</time></trkpt><trkpt lat="42.94545907325291" lon="9.364811839198946"><ele>188.6</ele><time>2026-05-01T08:13:28.999Z</time></trkpt><trkpt lat="42.94535735857754" lon="9.364769484097696"><ele>190.39999999999998</ele><time>2026-05-01T08:13:29.999Z</time></trkpt><trkpt lat="42.94524632586387" lon="9.364738450308932"><ele>192.2</ele><time>2026-05-01T08:13:30.999Z</time></trkpt><trkpt lat="42.94514515512098" lon="9.364775164690053"><ele>194.0</ele><time>2026-05-01T08:13:31.999Z</time></trkpt><trkpt lat="42.945047387283545" lon="9.36483160845832"><ele>193.2</ele><time>2026-05-01T08:13:32.999Z</time></trkpt><trkpt lat="42.944968795256635" lon="9.364921451696564"><ele>192.39999999999998</ele><time>2026-05-01T08:13:33.999Z</time></trkpt><trkpt lat="42.94491516862015" lon="9.365004549177444"><ele>191.6</ele><time>2026-05-01T08:13:34.999Z</time></trkpt><trkpt lat="42.94483490094743" lon="9.365068486838151"><ele>190.8</ele><time>2026-05-01T08:13:35.999Z</time></trkpt><trkpt lat="42.944754408139154" lon="9.365159302026978"><ele>190.0</ele><time>2026-05-01T08:13:36.999Z</time></trkpt><trkpt lat="42.94467120542175" lon="9.365257182974933"><ele>190.0</ele><time>2026-05-01T08:13:37.999Z</time></trkpt><trkpt lat="42.944603467643354" lon="9.365341357075021"><ele>190.0</ele><time>2026-05-01T08:13:38.999Z</time></trkpt><trkpt lat="42.94457230241505" lon="9.365469883817383"><ele>190.0</ele><time>2026-05-01T08:13:39.999Z</time></trkpt><trkpt lat="42.94458679208031" lon="9.365638942376341"><ele>190.0</ele><time>2026-05-01T08:13:40.999Z</time></trkpt><trkpt lat="42.944629675391084" lon="9.365752495459647"><ele>190.0</ele><time>2026-05-01T08:13:41.999Z</time></trkpt><trkpt lat="42.94465462687921" lon="9.36586936528886"><ele>191.83333333333334</ele><time>2026-05-01T08:13:42.999Z</time></trkpt><trkpt lat="42.94465544268878" lon="9.365979912970479"><ele>193.66666666666669</ele><time>2026-05-01T08:13:43.999Z</time></trkpt><trkpt lat="42.944669031740624" lon="9.366067359698055"><ele>195.5</ele><time>2026-05-01T08:13:44.999Z</time></trkpt><trkpt lat="42.94461603593545" lon="9.366173342599586"><ele>197.33333333333334</ele><time>2026-05-01T08:13:45.999Z</time></trkpt><trkpt lat="42.94458046710059" lon="9.366284783868199"><ele>199.16666666666666</ele><time>2026-05-01T08:13:46.999Z</time></trkpt><trkpt lat="42.94453315905011" lon="9.366400633255003"><ele>201.0</ele><time>2026-05-01T08:13:47.999Z</time></trkpt><trkpt lat="42.94447897372911" lon="9.36650824846014"><ele>202.75</ele><time>2026-05-01T08:13:48.999Z</time></trkpt><trkpt lat="42.944390511153756" lon="9.36661594435858"><ele>204.5</ele><time>2026-05-01T08:13:49.999Z</time></trkpt><trkpt lat="42.944334673977686" lon="9.366765070703641"><ele>206.25</ele><time>2026-05-01T08:13:50.999Z</time></trkpt><trkpt lat="42.94423297518309" lon="9.366887995335958"><ele>208.0</ele><time>2026-05-01T08:13:51.999Z</time></trkpt><trkpt lat="42.944129501995945" lon="9.366980428164576"><ele>208.0</ele><time>2026-05-01T08:13:52.999Z</time></trkpt><trkpt lat="42.944020058112294" lon="9.367095671595557"><ele>208.0</ele><time>2026-05-01T08:13:53.999Z</time></trkpt><trkpt lat="42.94391257346112" lon="9.367188833290754"><ele>208.0</ele><time>2026-05-01T08:13:54.999Z</time></trkpt><trkpt lat="42.94377897713212" lon="9.367236274194312"><ele>208.0</ele><time>2026-05-01T08:13:55.999Z</time></trkpt><trkpt lat="42.94366358771421" lon="9.367365361173231"><ele>208.0</ele><time>2026-05-01T08:13:56.999Z</time></trkpt><trkpt lat="42.94355579217423" lon="9.367480797456643"><ele>208.0</ele><time>2026-05-01T08:13:57.999Z</time></trkpt><trkpt lat="42.94349798099713" lon="9.367635125440868"><ele>208.0</ele><time>2026-05-01T08:13:58.999Z</time></trkpt><trkpt lat="42.94344058898014" lon="9.367799876793317"><ele>208.0</ele><time>2026-05-01T08:13:59.999Z</time></trkpt><trkpt lat="42.94339822620949" lon="9.367946049483757"><ele>204.0</ele><time>2026-05-01T08:14:00.999Z</time></trkpt><trkpt lat="42.94341171068116" lon="9.36808563135123"><ele>200.0</ele><time>2026-05-01T08:14:01.999Z</time></trkpt><trkpt lat="42.94343527117617" lon="9.368236134938988"><ele>196.0</ele><time>2026-05-01T08:14:02.999Z</time></trkpt><trkpt lat="42.943424783367774" lon="9.368419682633625"><ele>192.0</ele><time>2026-05-01T08:14:03.999Z</time></trkpt><trkpt lat="42.943359571789756" lon="9.368576693438298"><ele>192.0</ele><time>2026-05-01T08:14:04.999Z</time></trkpt><trkpt lat="42.94329928345855" lon="9.3687234321462"><ele>192.0</ele><time>2026-05-01T08:14:05.999Z</time></trkpt><trkpt lat="42.94323403692583" lon="9.36888223911551"><ele>192.0</ele><time>2026-05-01T08:14:06.999Z</time></trkpt><trkpt lat="42.94318914567587" lon="9.369034377447992"><ele>192.0</ele><time>2026-05-01T08:14:07.999Z</time></trkpt><trkpt lat="42.943100419364825" lon="9.369205722735716"><ele>196.75</ele><time>2026-05-01T08:14:08.999Z</time></trkpt><trkpt lat="42.943013791237846" lon="9.369365791410118"><ele>201.5</ele><time>2026-05-01T08:14:09.999Z</time></trkpt><trkpt lat="42.942912998500034" lon="9.369521620590822"><ele>206.25</ele><time>2026-05-01T08:14:10.999Z</time></trkpt><trkpt lat="42.94282159331143" lon="9.369635352727727"><ele>211.0</ele><time>2026-05-01T08:14:11.999Z</time></trkpt><trkpt lat="42.94270840810308" lon="9.369747854162574"><ele>207.5</ele><time>2026-05-01T08:14:12.998Z</time></trkpt><trkpt lat="42.94259115712289" lon="9.36986182372727"><ele>204.0</ele><time>2026-05-01T08:14:13.998Z</time></trkpt><trkpt lat="42.942476171802205" lon="9.369975583161409"><ele>200.5</ele><time>2026-05-01T08:14:14.998Z</time></trkpt><trkpt lat="42.94238613267373" lon="9.370129420443646"><ele>197.0</ele><time>2026-05-01T08:14:15.998Z</time></trkpt><trkpt lat="42.94228739089114" lon="9.3702784016371"><ele>197.0</ele><time>2026-05-01T08:14:16.998Z</time></trkpt><trkpt lat="42.94220880190916" lon="9.370419790961659"><ele>197.0</ele><time>2026-05-01T08:14:17.998Z</time></trkpt><trkpt lat="42.94212878393866" lon="9.370573254543805"><ele>197.0</ele><time>2026-05-01T08:14:18.998Z</time></trkpt><trkpt lat="42.94204460672891" lon="9.370710730424923"><ele>197.0</ele><time>2026-05-01T08:14:19.998Z</time></trkpt><trkpt lat="42.94197171584536" lon="9.370856821911913"><ele>196.8</ele><time>2026-05-01T08:14:20.998Z</time></trkpt><trkpt lat="42.94190869621251" lon="9.370979823925213"><ele>196.6</ele><time>2026-05-01T08:14:21.998Z</time></trkpt><trkpt lat="42.941819029588004" lon="9.37107080321944"><ele>196.4</ele><time>2026-05-01T08:14:22.998Z</time></trkpt><trkpt lat="42.941724836329215" lon="9.371068884975687"><ele>196.20000000000002</ele><time>2026-05-01T08:14:23.998Z</time></trkpt><trkpt lat="42.94162657937857" lon="9.371057151432058"><ele>196.0</ele><time>2026-05-01T08:14:24.998Z</time></trkpt><trkpt lat="42.941551239574764" lon="9.370977500007642"><ele>196.0</ele><time>2026-05-01T08:14:25.998Z</time></trkpt><trkpt lat="42.94150546453375" lon="9.370855705451024"><ele>196.0</ele><time>2026-05-01T08:14:26.998Z</time></trkpt><trkpt lat="42.94150625153919" lon="9.370714614205292"><ele>196.0</ele><time>2026-05-01T08:14:27.998Z</time></trkpt><trkpt lat="42.94152202445645" lon="9.370566302590936"><ele>196.0</ele><time>2026-05-01T08:14:28.998Z</time></trkpt><trkpt lat="42.94153437259835" lon="9.370415928175117"><ele>196.0</ele><time>2026-05-01T08:14:29.998Z</time></trkpt><trkpt lat="42.94154755399618" lon="9.370251058066673"><ele>196.75</ele><time>2026-05-01T08:14:30.998Z</time></trkpt><trkpt lat="42.94156828832955" lon="9.370069695792886"><ele>197.5</ele><time>2026-05-01T08:14:31.998Z</time></trkpt><trkpt lat="42.94160236276387" lon="9.369881057010657"><ele>198.25</ele><time>2026-05-01T08:14:32.998Z</time></trkpt><trkpt lat="42.94164963095655" lon="9.36969659083527"><ele>199.0</ele><time>2026-05-01T08:14:33.998Z</time></trkpt><trkpt lat="42.94171293455104" lon="9.369521287843824"><ele>195.75</ele><time>2026-05-01T08:14:34.998Z</time></trkpt><trkpt lat="42.94178995403149" lon="9.369354863885802"><ele>192.5</ele><time>2026-05-01T08:14:35.998Z</time></trkpt><trkpt lat="42.94187180712074" lon="9.369191411758854"><ele>189.25</ele><time>2026-05-01T08:14:36.998Z</time></trkpt><trkpt lat="42.94193045067995" lon="9.369029115393465"><ele>186.0</ele><time>2026-05-01T08:14:37.998Z</time></trkpt><trkpt lat="42.94194805264179" lon="9.368847683025704"><ele>183.75</ele><time>2026-05-01T08:14:38.998Z</time></trkpt><trkpt lat="42.94192960895358" lon="9.368657885983115"><ele>181.5</ele><time>2026-05-01T08:14:39.998Z</time></trkpt><trkpt lat="42.94192379225131" lon="9.368465633348903"><ele>179.25</ele><time>2026-05-01T08:14:40.998Z</time></trkpt><trkpt lat="42.94190760990733" lon="9.368248562686432"><ele>177.0</ele><time>2026-05-01T08:14:41.998Z</time></trkpt><trkpt lat="42.941880366823526" lon="9.36804205246258"><ele>174.0</ele><time>2026-05-01T08:14:43Z</time></trkpt><trkpt lat="42.94185390733356" lon="9.367828984653142"><ele>171.0</ele><time>2026-05-01T08:14:44Z</time></trkpt><trkpt lat="42.94181008826351" lon="9.367626409110828"><ele>168.0</ele><time>2026-05-01T08:14:45Z</time></trkpt><trkpt lat="42.94175729257526" lon="9.367451035440483"><ele>170.25</ele><time>2026-05-01T08:14:46Z</time></trkpt><trkpt lat="42.94170194049626" lon="9.36730074535004"><ele>172.5</ele><time>2026-05-01T08:14:47Z</time></trkpt><trkpt lat="42.94165072404624" lon="9.367158318343742"><ele>174.75</ele><time>2026-05-01T08:14:48Z</time></trkpt><trkpt lat="42.94157768949499" lon="9.367049578303337"><ele>177.0</ele><time>2026-05-01T08:14:49Z</time></trkpt><trkpt lat="42.941474667097474" lon="9.366989232971243"><ele>177.0</ele><time>2026-05-01T08:14:50Z</time></trkpt><trkpt lat="42.941365782525324" lon="9.366957361623513"><ele>177.0</ele><time>2026-05-01T08:14:51Z</time></trkpt><trkpt lat="42.94125983311124" lon="9.36691020762743"><ele>177.0</ele><time>2026-05-01T08:14:52Z</time></trkpt><trkpt lat="42.94119125815977" lon="9.36678710040455"><ele>177.0</ele><time>2026-05-01T08:14:53Z</time></trkpt><trkpt lat="42.94111799103542" lon="9.366675793104955"><ele>177.0</ele><time>2026-05-01T08:14:54Z</time></trkpt><trkpt lat="42.94103750413764" lon="9.366575312180824"><ele>177.0</ele><time>2026-05-01T08:14:55Z</time></trkpt><trkpt lat="42.94098624607437" lon="9.366460479963225"><ele>177.0</ele><time>2026-05-01T08:14:56Z</time></trkpt><trkpt lat="42.94094372613361" lon="9.36636409487708"><ele>177.0</ele><time>2026-05-01T08:14:57Z</time></trkpt><trkpt lat="42.940916715484036" lon="9.366248241922722"><ele>177.0</ele><time>2026-05-01T08:14:58Z</time></trkpt><trkpt lat="42.940912745573236" lon="9.36612078563494"><ele>177.0</ele><time>2026-05-01T08:14:59Z</time></trkpt><trkpt lat="42.940934443304485" lon="9.365976161050082"><ele>175.6</ele><time>2026-05-01T08:15:00Z</time></trkpt><trkpt lat="42.94094532313283" lon="9.365832117084272"><ele>174.2</ele><time>2026-05-01T08:15:01Z</time></trkpt><trkpt lat="42.940951617828034" lon="9.36567950901876"><ele>172.8</ele><time>2026-05-01T08:15:02Z</time></trkpt><trkpt lat="42.94096097420554" lon="9.365528723294625"><ele>171.4</ele><time>2026-05-01T08:15:03Z</time></trkpt><trkpt lat="42.94097238867975" lon="9.365373232037584"><ele>170.0</ele><time>2026-05-01T08:15:04Z</time></trkpt><trkpt lat="42.94098573652954" lon="9.36522099785981"><ele>170.4</ele><time>2026-05-01T08:15:05Z</time></trkpt><trkpt lat="42.94100239962456" lon="9.365078094776157"><ele>170.8</ele><time>2026-05-01T08:15:06Z</time></trkpt><trkpt lat="42.94101805523442" lon="9.364935574145324"><ele>171.2</ele><time>2026-05-01T08:15:07Z</time></trkpt><trkpt lat="42.94100969986198" lon="9.364812646535803"><ele>171.6</ele><time>2026-05-01T08:15:08Z</time></trkpt><trkpt lat="42.94094968365869" lon="9.364707484282048"><ele>172.0</ele><time>2026-05-01T08:15:09Z</time></trkpt><trkpt lat="42.940874750465674" lon="9.364601122446146"><ele>172.0</ele><time>2026-05-01T08:15:10Z</time></trkpt><trkpt lat="42.940798015492206" lon="9.364507348799256"><ele>172.0</ele><time>2026-05-01T08:15:11Z</time></trkpt><trkpt lat="42.94071952049375" lon="9.364414050733117"><ele>172.0</ele><time>2026-05-01T08:15:12Z</time></trkpt><trkpt lat="42.94063965577484" lon="9.364329867517116"><ele>172.0</ele><time>2026-05-01T08:15:13Z</time></trkpt><trkpt lat="42.94054637699616" lon="9.364269844171291"><ele>172.0</ele><time>2026-05-01T08:15:14Z</time></trkpt><trkpt lat="42.940434887411406" lon="9.364265680645552"><ele>172.0</ele><time>2026-05-01T08:15:14.999Z</time></trkpt><trkpt lat="42.94032722574245" lon="9.364285244996438"><ele>172.0</ele><time>2026-05-01T08:15:15.999Z</time></trkpt><trkpt lat="42.940214761634785" lon="9.364285941977096"><ele>172.0</ele><time>2026-05-01T08:15:16.999Z</time></trkpt><trkpt lat="42.94012002241679" lon="9.36421679273933"><ele>172.0</ele><time>2026-05-01T08:15:17.999Z</time></trkpt><trkpt lat="42.94006023464807" lon="9.364094343655463"><ele>172.0</ele><time>2026-05-01T08:15:18.999Z</time></trkpt><trkpt lat="42.94000395961827" lon="9.363979957027462"><ele>170.6</ele><time>2026-05-01T08:15:19.999Z</time></trkpt><trkpt lat="42.94003473417517" lon="9.3638387428945"><ele>169.2</ele><time>2026-05-01T08:15:20.999Z</time></trkpt><trkpt lat="42.9400836929145" lon="9.363717298201225"><ele>167.8</ele><time>2026-05-01T08:15:21.999Z</time></trkpt><trkpt lat="42.94013312500562" lon="9.363571068401804"><ele>166.4</ele><time>2026-05-01T08:15:22.999Z</time></trkpt><trkpt lat="42.940179610033525" lon="9.363421771284086"><ele>165.0</ele><time>2026-05-01T08:15:23.999Z</time></trkpt><trkpt lat="42.94022319714419" lon="9.363278120698066"><ele>165.0</ele><time>2026-05-01T08:15:24.999Z</time></trkpt><trkpt lat="42.94025901817913" lon="9.363130189356632"><ele>165.0</ele><time>2026-05-01T08:15:25.999Z</time></trkpt><trkpt lat="42.94026343187679" lon="9.362977295569213"><ele>165.0</ele><time>2026-05-01T08:15:26.999Z</time></trkpt><trkpt lat="42.94022593410731" lon="9.36282862898454"><ele>165.0</ele><time>2026-05-01T08:15:27.999Z</time></trkpt><trkpt lat="42.94014512451698" lon="9.36270405206784"><ele>167.0</ele><time>2026-05-01T08:15:28.999Z</time></trkpt><trkpt lat="42.9400550481539" lon="9.362585375952177"><ele>169.0</ele><time>2026-05-01T08:15:29.999Z</time></trkpt><trkpt lat="42.93997261483925" lon="9.362463597271846"><ele>171.0</ele><time>2026-05-01T08:15:30.999Z</time></trkpt><trkpt lat="42.93989549027327" lon="9.362353156941886"><ele>173.0</ele><time>2026-05-01T08:15:31.999Z</time></trkpt><trkpt lat="42.93980333656144" lon="9.362264294824993"><ele>173.0</ele><time>2026-05-01T08:15:32.999Z</time></trkpt><trkpt lat="42.93970600311321" lon="9.362201299094068"><ele>173.0</ele><time>2026-05-01T08:15:33.999Z</time></trkpt><trkpt lat="42.93960292642872" lon="9.362172478107585"><ele>173.0</ele><time>2026-05-01T08:15:34.999Z</time></trkpt><trkpt lat="42.93949099598894" lon="9.362201607431247"><ele>173.0</ele><time>2026-05-01T08:15:35.999Z</time></trkpt><trkpt lat="42.93937280324618" lon="9.362260009964553"><ele>173.0</ele><time>2026-05-01T08:15:36.999Z</time></trkpt><trkpt lat="42.93925410810516" lon="9.362296387727124"><ele>173.0</ele><time>2026-05-01T08:15:37.999Z</time></trkpt><trkpt lat="42.93913327904358" lon="9.36230212775062"><ele>173.0</ele><time>2026-05-01T08:15:38.999Z</time></trkpt><trkpt lat="42.93901670308661" lon="9.362258123002846"><ele>173.0</ele><time>2026-05-01T08:15:39.999Z</time></trkpt><trkpt lat="42.93889636479533" lon="9.3622022452416"><ele>175.0</ele><time>2026-05-01T08:15:40.999Z</time></trkpt><trkpt lat="42.93877158765799" lon="9.362163152177294"><ele>177.0</ele><time>2026-05-01T08:15:41.999Z</time></trkpt><trkpt lat="42.93865500179711" lon="9.36213588989165"><ele>179.0</ele><time>2026-05-01T08:15:42.999Z</time></trkpt><trkpt lat="42.938535497247635" lon="9.362163782897714"><ele>181.0</ele><time>2026-05-01T08:15:43.999Z</time></trkpt><trkpt lat="42.93841953658396" lon="9.362229454424828"><ele>181.75</ele><time>2026-05-01T08:15:44.999Z</time></trkpt><trkpt lat="42.93830658803055" lon="9.36231551590471"><ele>182.5</ele><time>2026-05-01T08:15:45.999Z</time></trkpt><trkpt lat="42.938189505152586" lon="9.36235357365083"><ele>183.25</ele><time>2026-05-01T08:15:46.999Z</time></trkpt><trkpt lat="42.93807965797597" lon="9.36238615459926"><ele>184.0</ele><time>2026-05-01T08:15:47.999Z</time></trkpt><trkpt lat="42.93799445889883" lon="9.362341212377576"><ele>184.0</ele><time>2026-05-01T08:15:48.999Z</time></trkpt><trkpt lat="42.93794551151504" lon="9.362228486467231"><ele>184.0</ele><time>2026-05-01T08:15:49.999Z</time></trkpt><trkpt lat="42.93792289790986" lon="9.362081478959968"><ele>184.0</ele><time>2026-05-01T08:15:50.999Z</time></trkpt><trkpt lat="42.93788877263599" lon="9.361914935777829"><ele>184.0</ele><time>2026-05-01T08:15:51.999Z</time></trkpt><trkpt lat="42.93786823069451" lon="9.361735919886694"><ele>175.75</ele><time>2026-05-01T08:15:52.999Z</time></trkpt><trkpt lat="42.93783870733118" lon="9.361558735718013"><ele>167.5</ele><time>2026-05-01T08:15:53.999Z</time></trkpt><trkpt lat="42.93780567221117" lon="9.361384814877608"><ele>159.25</ele><time>2026-05-01T08:15:54.999Z</time></trkpt><trkpt lat="42.93776873531472" lon="9.361215471757989"><ele>151.0</ele><time>2026-05-01T08:15:55.999Z</time></trkpt><trkpt lat="42.937756972963655" lon="9.361058521718427"><ele>150.75</ele><time>2026-05-01T08:15:56.999Z</time></trkpt><trkpt lat="42.93778459489337" lon="9.360912507795636"><ele>150.5</ele><time>2026-05-01T08:15:57.999Z</time></trkpt><trkpt lat="42.937886487625754" lon="9.360819216192459"><ele>150.25</ele><time>2026-05-01T08:15:58.999Z</time></trkpt><trkpt lat="42.937979735990375" lon="9.360694937424304"><ele>150.0</ele><time>2026-05-01T08:15:59.999Z</time></trkpt><trkpt lat="42.938090011010416" lon="9.36061532756254"><ele>150.0</ele><time>2026-05-01T08:16:00.999Z</time></trkpt><trkpt lat="42.93822081443762" lon="9.360539022193212"><ele>150.0</ele><time>2026-05-01T08:16:01.999Z</time></trkpt><trkpt lat="42.938332977984054" lon="9.360424934854544"><ele>150.0</ele><time>2026-05-01T08:16:02.999Z</time></trkpt><trkpt lat="42.938436106295406" lon="9.360293292553278"><ele>150.0</ele><time>2026-05-01T08:16:03.999Z</time></trkpt><trkpt lat="42.93850891552726" lon="9.360144056121817"><ele>146.0</ele><time>2026-05-01T08:16:04.999Z</time></trkpt><trkpt lat="42.9385373291359" lon="9.359999087932882"><ele>142.0</ele><time>2026-05-01T08:16:05.999Z</time></trkpt><trkpt lat="42.938500504494165" lon="9.359840763562294"><ele>138.0</ele><time>2026-05-01T08:16:06.999Z</time></trkpt><trkpt lat="42.938442260194286" lon="9.359699777271993"><ele>134.0</ele><time>2026-05-01T08:16:07.999Z</time></trkpt><trkpt lat="42.93834181788461" lon="9.35956513388452"><ele>134.0</ele><time>2026-05-01T08:16:08.999Z</time></trkpt><trkpt lat="42.938222441565756" lon="9.359458865137926"><ele>134.0</ele><time>2026-05-01T08:16:09.999Z</time></trkpt><trkpt lat="42.938087381721274" lon="9.359374994818737"><ele>134.0</ele><time>2026-05-01T08:16:10.999Z</time></trkpt><trkpt lat="42.93795298076854" lon="9.359280096629655"><ele>134.0</ele><time>2026-05-01T08:16:11.999Z</time></trkpt><trkpt lat="42.93783474715602" lon="9.359160848729053"><ele>134.0</ele><time>2026-05-01T08:16:12.999Z</time></trkpt><trkpt lat="42.93772646243798" lon="9.359029642335445"><ele>134.0</ele><time>2026-05-01T08:16:13.999Z</time></trkpt><trkpt lat="42.937622549356696" lon="9.358883725443466"><ele>134.0</ele><time>2026-05-01T08:16:14.999Z</time></trkpt><trkpt lat="42.93753604051455" lon="9.358733557118473"><ele>134.0</ele><time>2026-05-01T08:16:15.999Z</time></trkpt><trkpt lat="42.937467940799166" lon="9.358578396912177"><ele>137.25</ele><time>2026-05-01T08:16:16.999Z</time></trkpt><trkpt lat="42.937465096838714" lon="9.35839872624979"><ele>140.5</ele><time>2026-05-01T08:16:17.999Z</time></trkpt><trkpt lat="42.93744899699851" lon="9.35822028879646"><ele>143.75</ele><time>2026-05-01T08:16:18.999Z</time></trkpt><trkpt lat="42.93741207484971" lon="9.35805138921637"><ele>147.0</ele><time>2026-05-01T08:16:19.999Z</time></trkpt><trkpt lat="42.93734127772088" lon="9.357894729916378"><ele>137.0</ele><time>2026-05-01T08:16:20.999Z</time></trkpt><trkpt lat="42.93722638257988" lon="9.35776158017402"><ele>127.0</ele><time>2026-05-01T08:16:21.999Z</time></trkpt><trkpt lat="42.93710842381661" lon="9.357633437892668"><ele>117.0</ele><time>2026-05-01T08:16:22.999Z</time></trkpt><trkpt lat="42.93700434996977" lon="9.357489113732393"><ele>117.0</ele><time>2026-05-01T08:16:23.998Z</time></trkpt><trkpt lat="42.936881035081036" lon="9.357391291578596"><ele>117.0</ele><time>2026-05-01T08:16:24.998Z</time></trkpt><trkpt lat="42.936765142301155" lon="9.357271451406353"><ele>117.0</ele><time>2026-05-01T08:16:25.998Z</time></trkpt><trkpt lat="42.93665282789919" lon="9.35714993335974"><ele>117.0</ele><time>2026-05-01T08:16:26.998Z</time></trkpt><trkpt lat="42.93656150982958" lon="9.356997873275008"><ele>118.5</ele><time>2026-05-01T08:16:27.998Z</time></trkpt><trkpt lat="42.936454263663016" lon="9.356865119861236"><ele>120.0</ele><time>2026-05-01T08:16:28.998Z</time></trkpt><trkpt lat="42.936364232897255" lon="9.356717878663357"><ele>121.5</ele><time>2026-05-01T08:16:29.998Z</time></trkpt><trkpt lat="42.93627544197637" lon="9.356568202985336"><ele>123.0</ele><time>2026-05-01T08:16:30.998Z</time></trkpt><trkpt lat="42.936208159761634" lon="9.356393446587049"><ele>126.0</ele><time>2026-05-01T08:16:31.998Z</time></trkpt><trkpt lat="42.936127888195244" lon="9.356234239852602"><ele>129.0</ele><time>2026-05-01T08:16:32.998Z</time></trkpt><trkpt lat="42.93602726492956" lon="9.356103252290051"><ele>132.0</ele><time>2026-05-01T08:16:33.998Z</time></trkpt><trkpt lat="42.935932766119045" lon="9.355972007339382"><ele>135.0</ele><time>2026-05-01T08:16:34.998Z</time></trkpt><trkpt lat="42.93583938964155" lon="9.35583612147621"><ele>135.0</ele><time>2026-05-01T08:16:35.998Z</time></trkpt><trkpt lat="42.93578134140476" lon="9.35567392975091"><ele>135.0</ele><time>2026-05-01T08:16:36.998Z</time></trkpt><trkpt lat="42.935715601031156" lon="9.35551342471594"><ele>135.0</ele><time>2026-05-01T08:16:37.998Z</time></trkpt><trkpt lat="42.93562481883381" lon="9.355382271598204"><ele>135.0</ele><time>2026-05-01T08:16:38.998Z</time></trkpt><trkpt lat="42.93553356168989" lon="9.355253560439824"><ele>127.25</ele><time>2026-05-01T08:16:39.998Z</time></trkpt><trkpt lat="42.93543514302375" lon="9.355132691452498"><ele>119.5</ele><time>2026-05-01T08:16:40.998Z</time></trkpt><trkpt lat="42.93534484971866" lon="9.35499855429296"><ele>111.75</ele><time>2026-05-01T08:16:41.998Z</time></trkpt><trkpt lat="42.93528000270504" lon="9.354843344019041"><ele>104.0</ele><time>2026-05-01T08:16:42.998Z</time></trkpt><trkpt lat="42.935198358626934" lon="9.35471625682227"><ele>104.5</ele><time>2026-05-01T08:16:43.998Z</time></trkpt><trkpt lat="42.93512246528564" lon="9.35459761317002"><ele>105.0</ele><time>2026-05-01T08:16:44.998Z</time></trkpt><trkpt lat="42.935020301675614" lon="9.354519516699945"><ele>105.5</ele><time>2026-05-01T08:16:45.998Z</time></trkpt><trkpt lat="42.93489309630293" lon="9.354486496086647"><ele>106.0</ele><time>2026-05-01T08:16:46.998Z</time></trkpt><trkpt lat="42.93476790747894" lon="9.354437014344825"><ele>106.0</ele><time>2026-05-01T08:16:47.998Z</time></trkpt><trkpt lat="42.93462791539472" lon="9.354433355231706"><ele>106.0</ele><time>2026-05-01T08:16:49Z</time></trkpt><trkpt lat="42.934494321887954" lon="9.354405577985808"><ele>106.0</ele><time>2026-05-01T08:16:50Z</time></trkpt><trkpt lat="42.93436378162606" lon="9.354366114498083"><ele>106.0</ele><time>2026-05-01T08:16:51Z</time></trkpt><trkpt lat="42.93423199427844" lon="9.35432517655318"><ele>110.5</ele><time>2026-05-01T08:16:52Z</time></trkpt><trkpt lat="42.934103674352734" lon="9.354275205467362"><ele>115.0</ele><time>2026-05-01T08:16:53Z</time></trkpt><trkpt lat="42.93398260745199" lon="9.354207439098989"><ele>119.5</ele><time>2026-05-01T08:16:54Z</time></trkpt><trkpt lat="42.93389339898441" lon="9.354078904380373"><ele>124.0</ele><time>2026-05-01T08:16:55Z</time></trkpt><trkpt lat="42.93379240322643" lon="9.35396927282207"><ele>113.75</ele><time>2026-05-01T08:16:56Z</time></trkpt><trkpt lat="42.933695133783466" lon="9.353854029150387"><ele>103.5</ele><time>2026-05-01T08:16:57Z</time></trkpt><trkpt lat="42.9336087114013" lon="9.353714270809927"><ele>93.25</ele><time>2026-05-01T08:16:58Z</time></trkpt><trkpt lat="42.93353383590267" lon="9.353563645515452"><ele>83.0</ele><time>2026-05-01T08:16:59Z</time></trkpt><trkpt lat="42.933454606107404" lon="9.353416856247216"><ele>88.0</ele><time>2026-05-01T08:17:00Z</time></trkpt><trkpt lat="42.93337755858407" lon="9.353269600777322"><ele>93.0</ele><time>2026-05-01T08:17:01Z</time></trkpt><trkpt lat="42.93330158009003" lon="9.353117559427874"><ele>98.0</ele><time>2026-05-01T08:17:02Z</time></trkpt><trkpt lat="42.93322884356557" lon="9.352974140498537"><ele>103.0</ele><time>2026-05-01T08:17:03Z</time></trkpt><trkpt lat="42.93317144855241" lon="9.352828236557276"><ele>103.0</ele><time>2026-05-01T08:17:04Z</time></trkpt><trkpt lat="42.933129311480926" lon="9.352677929697679"><ele>103.0</ele><time>2026-05-01T08:17:05Z</time></trkpt><trkpt lat="42.93310787330382" lon="9.352524107218406"><ele>103.0</ele><time>2026-05-01T08:17:06Z</time></trkpt><trkpt lat="42.933099711697785" lon="9.352374960646308"><ele>103.0</ele><time>2026-05-01T08:17:07Z</time></trkpt><trkpt lat="42.93305886855103" lon="9.352228902830886"><ele>90.25</ele><time>2026-05-01T08:17:08Z</time></trkpt><trkpt lat="42.9329810456858" lon="9.352103054739512"><ele>77.5</ele><time>2026-05-01T08:17:09Z</time></trkpt><trkpt lat="42.93289102724438" lon="9.351993278045503"><ele>64.75</ele><time>2026-05-01T08:17:10Z</time></trkpt><trkpt lat="42.93277604171566" lon="9.35192627992611"><ele>52.0</ele><time>2026-05-01T08:17:11Z</time></trkpt><trkpt lat="42.932651525192924" lon="9.351887366106139"><ele>61.25</ele><time>2026-05-01T08:17:12Z</time></trkpt><trkpt lat="42.932526183917396" lon="9.351882664532376"><ele>70.5</ele><time>2026-05-01T08:17:13Z</time></trkpt><trkpt lat="42.93240958567891" lon="9.351857157369196"><ele>79.75</ele><time>2026-05-01T08:17:14Z</time></trkpt><trkpt lat="42.9323005893536" lon="9.351842097214998"><ele>89.0</ele><time>2026-05-01T08:17:15Z</time></trkpt><trkpt lat="42.93220065768422" lon="9.351809572016858"><ele>89.0</ele><time>2026-05-01T08:17:16Z</time></trkpt><trkpt lat="42.932103943357625" lon="9.351777839649355"><ele>89.0</ele><time>2026-05-01T08:17:17Z</time></trkpt><trkpt lat="42.932009317208234" lon="9.35175504171605"><ele>89.0</ele><time>2026-05-01T08:17:18Z</time></trkpt><trkpt lat="42.93191880348556" lon="9.351733461241668"><ele>89.0</ele><time>2026-05-01T08:17:19Z</time></trkpt><trkpt lat="42.931835737434085" lon="9.351708810635133"><ele>89.0</ele><time>2026-05-01T08:17:20Z</time></trkpt><trkpt lat="42.93174984415316" lon="9.351693933917582"><ele>90.83333333333334</ele><time>2026-05-01T08:17:21Z</time></trkpt><trkpt lat="42.93167189268462" lon="9.351686159239007"><ele>92.66666666666667</ele><time>2026-05-01T08:17:22Z</time></trkpt><trkpt lat="42.93159039997066" lon="9.351690665758712"><ele>94.5</ele><time>2026-05-01T08:17:23Z</time></trkpt><trkpt lat="42.931509962529084" lon="9.351702823872284"><ele>96.33333333333334</ele><time>2026-05-01T08:17:24Z</time></trkpt><trkpt lat="42.931425653932706" lon="9.351718665064757"><ele>98.16666666666667</ele><time>2026-05-01T08:17:25Z</time></trkpt><trkpt lat="42.93133381527367" lon="9.351725624115247"><ele>100.0</ele><time>2026-05-01T08:17:26Z</time></trkpt><trkpt lat="42.931252114950446" lon="9.351710901429906"><ele>100.0</ele><time>2026-05-01T08:17:27Z</time></trkpt><trkpt lat="42.931175498473664" lon="9.351664811770002"><ele>100.0</ele><time>2026-05-01T08:17:27.999Z</time></trkpt><trkpt lat="42.93109527462927" lon="9.35161691426045"><ele>100.0</ele><time>2026-05-01T08:17:28.999Z</time></trkpt><trkpt lat="42.93100684289983" lon="9.351595901339024"><ele>100.0</ele><time>2026-05-01T08:17:29.999Z</time></trkpt><trkpt lat="42.930916532957134" lon="9.351644772078405"><ele>100.0</ele><time>2026-05-01T08:17:30.999Z</time></trkpt><trkpt lat="42.93086660152437" lon="9.351766034581225"><ele>100.0</ele><time>2026-05-01T08:17:31.999Z</time></trkpt><trkpt lat="42.930863099027675" lon="9.351911689085023"><ele>100.0</ele><time>2026-05-01T08:17:32.999Z</time></trkpt><trkpt lat="42.930900362539646" lon="9.352047296301553"><ele>100.0</ele><time>2026-05-01T08:17:33.999Z</time></trkpt><trkpt lat="42.93096060359164" lon="9.352182756415768"><ele>100.0</ele><time>2026-05-01T08:17:34.999Z</time></trkpt><trkpt lat="42.93100466354348" lon="9.352324060615901"><ele>100.0</ele><time>2026-05-01T08:17:35.999Z</time></trkpt><trkpt lat="42.93097650596673" lon="9.352485373441283"><ele>108.25</ele><time>2026-05-01T08:17:36.999Z</time></trkpt><trkpt lat="42.93097898198542" lon="9.352660004833616"><ele>116.5</ele><time>2026-05-01T08:17:37.999Z</time></trkpt><trkpt lat="42.93096340059073" lon="9.352836571739884"><ele>124.75</ele><time>2026-05-01T08:17:38.999Z</time></trkpt><trkpt lat="42.93094429739278" lon="9.353018328439898"><ele>133.0</ele><time>2026-05-01T08:17:39.999Z</time></trkpt><trkpt lat="42.9309160895697" lon="9.353198225371472"><ele>124.0</ele><time>2026-05-01T08:17:40.999Z</time></trkpt><trkpt lat="42.93085016476486" lon="9.353354479943176"><ele>115.0</ele><time>2026-05-01T08:17:41.999Z</time></trkpt><trkpt lat="42.93079865715933" lon="9.353511275111412"><ele>106.0</ele><time>2026-05-01T08:17:42.999Z</time></trkpt><trkpt lat="42.930771548194976" lon="9.35368235403343"><ele>97.0</ele><time>2026-05-01T08:17:43.999Z</time></trkpt><trkpt lat="42.93077831217836" lon="9.35385602837486"><ele>97.25</ele><time>2026-05-01T08:17:44.999Z</time></trkpt><trkpt lat="42.93078941294567" lon="9.354023120844692"><ele>97.5</ele><time>2026-05-01T08:17:45.999Z</time></trkpt><trkpt lat="42.93081609935355" lon="9.354182807868218"><ele>97.75</ele><time>2026-05-01T08:17:46.999Z</time></trkpt><trkpt lat="42.93081407379684" lon="9.35435082976165"><ele>98.0</ele><time>2026-05-01T08:17:47.999Z</time></trkpt><trkpt lat="42.93079175321815" lon="9.354516796306584"><ele>98.0</ele><time>2026-05-01T08:17:48.999Z</time></trkpt><trkpt lat="42.93071504371882" lon="9.354647055574503"><ele>98.0</ele><time>2026-05-01T08:17:49.999Z</time></trkpt><trkpt lat="42.93064808157928" lon="9.354796605456741"><ele>98.0</ele><time>2026-05-01T08:17:50.999Z</time></trkpt><trkpt lat="42.93059675156367" lon="9.35495888820545"><ele>98.0</ele><time>2026-05-01T08:17:51.999Z</time></trkpt><trkpt lat="42.930527993612216" lon="9.355113680975085"><ele>99.5</ele><time>2026-05-01T08:17:52.999Z</time></trkpt><trkpt lat="42.93047877887316" lon="9.355284911179762"><ele>101.0</ele><time>2026-05-01T08:17:53.999Z</time></trkpt><trkpt lat="42.93043326506749" lon="9.355447384196122"><ele>102.5</ele><time>2026-05-01T08:17:54.999Z</time></trkpt><trkpt lat="42.93039757819982" lon="9.355603827000646"><ele>104.0</ele><time>2026-05-01T08:17:55.999Z</time></trkpt><trkpt lat="42.93034704679121" lon="9.355742636853591"><ele>104.80000000000001</ele><time>2026-05-01T08:17:56.999Z</time></trkpt><trkpt lat="42.93028756396522" lon="9.355864055930315"><ele>105.60000000000001</ele><time>2026-05-01T08:17:57.999Z</time></trkpt><trkpt lat="42.93020364603624" lon="9.355942064865044"><ele>106.4</ele><time>2026-05-01T08:17:58.999Z</time></trkpt><trkpt lat="42.93010782000779" lon="9.355955783625594"><ele>107.2</ele><time>2026-05-01T08:17:59.999Z</time></trkpt><trkpt lat="42.930022327604924" lon="9.355854732360102"><ele>108.0</ele><time>2026-05-01T08:18:00.999Z</time></trkpt><trkpt lat="42.92993522031569" lon="9.355807636496479"><ele>102.0</ele><time>2026-05-01T08:18:01.999Z</time></trkpt><trkpt lat="42.929852158269426" lon="9.355790170235663"><ele>96.0</ele><time>2026-05-01T08:18:02.999Z</time></trkpt><trkpt lat="42.92977451339857" lon="9.355847599421487"><ele>90.0</ele><time>2026-05-01T08:18:03.999Z</time></trkpt><trkpt lat="42.92974469098956" lon="9.356031799096757"><ele>84.0</ele><time>2026-05-01T08:18:04.999Z</time></trkpt><trkpt lat="42.92974838772387" lon="9.356268638349471"><ele>87.0</ele><time>2026-05-01T08:18:05.999Z</time></trkpt><trkpt lat="42.92973856741365" lon="9.356499180022615"><ele>90.0</ele><time>2026-05-01T08:18:06.999Z</time></trkpt><trkpt lat="42.92964481980519" lon="9.356682471387618"><ele>93.0</ele><time>2026-05-01T08:18:07.999Z</time></trkpt><trkpt lat="42.92962986058412" lon="9.356858066233054"><ele>93.0</ele><time>2026-05-01T08:18:08.999Z</time></trkpt><trkpt lat="42.92966053595247" lon="9.35702506425755"><ele>93.0</ele><time>2026-05-01T08:18:09.999Z</time></trkpt><trkpt lat="42.92974805777152" lon="9.357194284843283"><ele>93.0</ele><time>2026-05-01T08:18:10.999Z</time></trkpt><trkpt lat="42.929835041851575" lon="9.357366777342106"><ele>93.0</ele><time>2026-05-01T08:18:11.999Z</time></trkpt><trkpt lat="42.92983593731934" lon="9.357530340908252"><ele>92.75</ele><time>2026-05-01T08:18:12.999Z</time></trkpt><trkpt lat="42.92978062858759" lon="9.357661883585287"><ele>92.5</ele><time>2026-05-01T08:18:13.999Z</time></trkpt><trkpt lat="42.92965967046745" lon="9.35769959207029"><ele>92.25</ele><time>2026-05-01T08:18:14.999Z</time></trkpt><trkpt lat="42.9295314085265" lon="9.357678042230727"><ele>92.0</ele><time>2026-05-01T08:18:15.999Z</time></trkpt><trkpt lat="42.92934730225465" lon="9.357682554981904"><ele>84.33333333333334</ele><time>2026-05-01T08:18:16.999Z</time></trkpt><trkpt lat="42.92913767201187" lon="9.35769910452073"><ele>76.66666666666667</ele><time>2026-05-01T08:18:17.999Z</time></trkpt><trkpt lat="42.928916354327804" lon="9.357783778651902"><ele>69.0</ele><time>2026-05-01T08:18:18.999Z</time></trkpt><trkpt lat="42.92868502988305" lon="9.357886471172717"><ele>69.0</ele><time>2026-05-01T08:18:19.999Z</time></trkpt><trkpt lat="42.92847883408423" lon="9.357872178314445"><ele>69.0</ele><time>2026-05-01T08:18:20.999Z</time></trkpt><trkpt lat="42.92831376422026" lon="9.357895468227243"><ele>69.0</ele><time>2026-05-01T08:18:21.999Z</time></trkpt><trkpt lat="42.92818663907199" lon="9.357928028764565"><ele>67.0</ele><time>2026-05-01T08:18:22.999Z</time></trkpt><trkpt lat="42.92811510742497" lon="9.3580221425279"><ele>65.0</ele><time>2026-05-01T08:18:23.999Z</time></trkpt><trkpt lat="42.928114621211044" lon="9.358163009433833"><ele>63.0</ele><time>2026-05-01T08:18:24.999Z</time></trkpt><trkpt lat="42.92818462569949" lon="9.358306181682229"><ele>61.0</ele><time>2026-05-01T08:18:25.999Z</time></trkpt><trkpt lat="42.928335071339454" lon="9.358416908156979"><ele>68.66666666666666</ele><time>2026-05-01T08:18:26.999Z</time></trkpt><trkpt lat="42.92851117099801" lon="9.3584948189839"><ele>76.33333333333333</ele><time>2026-05-01T08:18:27.999Z</time></trkpt><trkpt lat="42.928689837047926" lon="9.35861006579495"><ele>84.0</ele><time>2026-05-01T08:18:28.999Z</time></trkpt><trkpt lat="42.92879336375244" lon="9.358804922231693"><ele>80.33333333333333</ele><time>2026-05-01T08:18:29.999Z</time></trkpt><trkpt lat="42.928852504291875" lon="9.359051430713299"><ele>76.66666666666666</ele><time>2026-05-01T08:18:30.999Z</time></trkpt><trkpt lat="42.92894957281127" lon="9.35923380842993"><ele>73.0</ele><time>2026-05-01T08:18:31.999Z</time></trkpt><trkpt lat="42.929117618480745" lon="9.359352432489294"><ele>77.0</ele><time>2026-05-01T08:18:32.999Z</time></trkpt><trkpt lat="42.92931308755943" lon="9.3594251200563"><ele>81.0</ele><time>2026-05-01T08:18:33.999Z</time></trkpt><trkpt lat="42.9294296946728" lon="9.359555762042607"><ele>85.0</ele><time>2026-05-01T08:18:34.999Z</time></trkpt><trkpt lat="42.9294688867763" lon="9.359763203974941"><ele>85.0</ele><time>2026-05-01T08:18:35.999Z</time></trkpt><trkpt lat="42.9294505819662" lon="9.359987763697642"><ele>85.0</ele><time>2026-05-01T08:18:36.999Z</time></trkpt><trkpt lat="42.92950297033337" lon="9.36019900132942"><ele>85.0</ele><time>2026-05-01T08:18:37.999Z</time></trkpt><trkpt lat="42.929634196627404" lon="9.360360977801493"><ele>85.0</ele><time>2026-05-01T08:18:38.999Z</time></trkpt><trkpt lat="42.92974345231658" lon="9.36051835075258"><ele>85.0</ele><time>2026-05-01T08:18:39.998Z</time></trkpt><trkpt lat="42.92976120382613" lon="9.360703683780036"><ele>85.0</ele><time>2026-05-01T08:18:40.998Z</time></trkpt><trkpt lat="42.92971511127798" lon="9.360873710286805"><ele>85.0</ele><time>2026-05-01T08:18:41.998Z</time></trkpt><trkpt lat="42.92960500182665" lon="9.360984897506619"><ele>79.66666666666666</ele><time>2026-05-01T08:18:42.998Z</time></trkpt><trkpt lat="42.92945446006769" lon="9.361021524623537"><ele>74.33333333333333</ele><time>2026-05-01T08:18:43.998Z</time></trkpt><trkpt lat="42.92926813648521" lon="9.361009866794252"><ele>69.0</ele><time>2026-05-01T08:18:44.998Z</time></trkpt><trkpt lat="42.92909953369173" lon="9.361071523584505"><ele>65.0</ele><time>2026-05-01T08:18:45.998Z</time></trkpt><trkpt lat="42.92896926909776" lon="9.361211460383721"><ele>61.0</ele><time>2026-05-01T08:18:46.998Z</time></trkpt><trkpt lat="42.92887641963663" lon="9.36141878324806"><ele>57.0</ele><time>2026-05-01T08:18:47.998Z</time></trkpt><trkpt lat="42.928827499916174" lon="9.361650864478818"><ele>57.0</ele><time>2026-05-01T08:18:48.998Z</time></trkpt><trkpt lat="42.92884215942994" lon="9.361885080351177"><ele>57.0</ele><time>2026-05-01T08:18:49.998Z</time></trkpt><trkpt lat="42.92892375072303" lon="9.362066340724521"><ele>57.0</ele><time>2026-05-01T08:18:50.998Z</time></trkpt><trkpt lat="42.92905666778216" lon="9.36219806289746"><ele>55.75</ele><time>2026-05-01T08:18:51.998Z</time></trkpt><trkpt lat="42.92916646988066" lon="9.362327439477806"><ele>54.5</ele><time>2026-05-01T08:18:52.998Z</time></trkpt><trkpt lat="42.92918250834891" lon="9.362476006959978"><ele>53.25</ele><time>2026-05-01T08:18:53.998Z</time></trkpt><trkpt lat="42.9291018036551" lon="9.36260302096168"><ele>52.0</ele><time>2026-05-01T08:18:55Z</time></trkpt><trkpt lat="42.929004802437994" lon="9.362803033365518"><ele>52.0</ele><time>2026-05-01T08:18:56Z</time></trkpt><trkpt lat="42.928903911501784" lon="9.362954467426455"><ele>52.0</ele><time>2026-05-01T08:18:57Z</time></trkpt><trkpt lat="42.92879462444346" lon="9.36300930029988"><ele>52.0</ele><time>2026-05-01T08:18:58Z</time></trkpt><trkpt lat="42.928678261382615" lon="9.362947842983775"><ele>52.0</ele><time>2026-05-01T08:18:59Z</time></trkpt><trkpt lat="42.928574542599435" lon="9.362799439971443"><ele>52.0</ele><time>2026-05-01T08:19:00Z</time></trkpt><trkpt lat="42.92843869025662" lon="9.362578845528649"><ele>52.0</ele><time>2026-05-01T08:19:01Z</time></trkpt><trkpt lat="42.92825621248777" lon="9.362328698605173"><ele>44.5</ele><time>2026-05-01T08:19:02Z</time></trkpt><trkpt lat="42.928043344501056" lon="9.362066401957094"><ele>37.0</ele><time>2026-05-01T08:19:03Z</time></trkpt><trkpt lat="42.927815526041464" lon="9.361790591119343"><ele>37.0</ele><time>2026-05-01T08:19:04Z</time></trkpt><trkpt lat="42.927611266233484" lon="9.361478335658516"><ele>37.0</ele><time>2026-05-01T08:19:05Z</time></trkpt><trkpt lat="42.92744485128613" lon="9.361197023397299"><ele>33.0</ele><time>2026-05-01T08:19:06Z</time></trkpt><trkpt lat="42.92730707485461" lon="9.360983666088703"><ele>29.0</ele><time>2026-05-01T08:19:07Z</time></trkpt><trkpt lat="42.92717652940161" lon="9.360844579052486"><ele>25.0</ele><time>2026-05-01T08:19:08Z</time></trkpt><trkpt lat="42.92701259185935" lon="9.360751552847578"><ele>25.0</ele><time>2026-05-01T08:19:09Z</time></trkpt><trkpt lat="42.926813177362064" lon="9.360723221886932"><ele>25.0</ele><time>2026-05-01T08:19:10Z</time></trkpt><trkpt lat="42.92661474633237" lon="9.36076547894687"><ele>25.0</ele><time>2026-05-01T08:19:11Z</time></trkpt><trkpt lat="42.92644324293397" lon="9.360833816516022"><ele>24.25</ele><time>2026-05-01T08:19:12Z</time></trkpt><trkpt lat="42.92634113523076" lon="9.36091994023516"><ele>23.5</ele><time>2026-05-01T08:19:13Z</time></trkpt><trkpt lat="42.92628418380772" lon="9.36104691639281"><ele>22.75</ele><time>2026-05-01T08:19:14Z</time></trkpt><trkpt lat="42.92626651143086" lon="9.361245668416107"><ele>22.0</ele><time>2026-05-01T08:19:15Z</time></trkpt><trkpt lat="42.92626514815802" lon="9.361507234983309"><ele>27.666666666666664</ele><time>2026-05-01T08:19:16Z</time></trkpt><trkpt lat="42.926265888851994" lon="9.361789009439606"><ele>33.333333333333336</ele><time>2026-05-01T08:19:17Z</time></trkpt><trkpt lat="42.92623333674265" lon="9.362004375800302"><ele>39.0</ele><time>2026-05-01T08:19:18Z</time></trkpt><trkpt lat="42.92618327693196" lon="9.362119798739867"><ele>39.0</ele><time>2026-05-01T08:19:19Z</time></trkpt><trkpt lat="42.926097631805064" lon="9.362151362369799"><ele>39.0</ele><time>2026-05-01T08:19:20Z</time></trkpt><trkpt lat="42.92596670681403" lon="9.362124447237012"><ele>39.0</ele><time>2026-05-01T08:19:21Z</time></trkpt><trkpt lat="42.92582298636628" lon="9.362157380279516"><ele>39.0</ele><time>2026-05-01T08:19:22Z</time></trkpt><trkpt lat="42.92572275714278" lon="9.362209155672135"><ele>33.0</ele><time>2026-05-01T08:19:23Z</time></trkpt><trkpt lat="42.92569453986839" lon="9.362406349998144"><ele>27.0</ele><time>2026-05-01T08:19:24Z</time></trkpt><trkpt lat="42.92570294869929" lon="9.362653065713355"><ele>21.0</ele><time>2026-05-01T08:19:25Z</time></trkpt><trkpt lat="42.92571911272743" lon="9.362964941611315"><ele>22.0</ele><time>2026-05-01T08:19:26Z</time></trkpt><trkpt lat="42.92567161247621" lon="9.363308407755595"><ele>23.0</ele><time>2026-05-01T08:19:27Z</time></trkpt><trkpt lat="42.92560776399382" lon="9.363696345948963"><ele>24.0</ele><time>2026-05-01T08:19:28Z</time></trkpt><trkpt lat="42.92558155651091" lon="9.36411582110671"><ele>25.0</ele><time>2026-05-01T08:19:29Z</time></trkpt><trkpt lat="42.92552032940046" lon="9.364537180473272"><ele>25.5</ele><time>2026-05-01T08:19:30Z</time></trkpt><trkpt lat="42.92544678190205" lon="9.364897567295523"><ele>26.0</ele><time>2026-05-01T08:19:31Z</time></trkpt><trkpt lat="42.92539672385878" lon="9.365147890849244"><ele>26.0</ele><time>2026-05-01T08:19:32Z</time></trkpt><trkpt lat="42.925330327725604" lon="9.365309610940704"><ele>26.0</ele><time>2026-05-01T08:19:33Z</time></trkpt><trkpt lat="42.92528187449449" lon="9.365418488008881"><ele>26.0</ele><time>2026-05-01T08:19:33.999Z</time></trkpt><trkpt lat="42.925160713958235" lon="9.36540348125925"><ele>26.0</ele><time>2026-05-01T08:19:34.999Z</time></trkpt><trkpt lat="42.92504956984431" lon="9.3654208530249"><ele>23.5</ele><time>2026-05-01T08:19:35.999Z</time></trkpt><trkpt lat="42.92494639345775" lon="9.365399636999822"><ele>21.0</ele><time>2026-05-01T08:19:36.999Z</time></trkpt><trkpt lat="42.92485545007333" lon="9.365349829730727"><ele>18.5</ele><time>2026-05-01T08:19:37.999Z</time></trkpt><trkpt lat="42.92481442934174" lon="9.365191843924963"><ele>16.0</ele><time>2026-05-01T08:19:38.999Z</time></trkpt><trkpt lat="42.924755117469545" lon="9.365025240221323"><ele>16.0</ele><time>2026-05-01T08:19:39.999Z</time></trkpt><trkpt lat="42.92468556625082" lon="9.364852573423684"><ele>16.0</ele><time>2026-05-01T08:19:40.999Z</time></trkpt><trkpt lat="42.924642566565865" lon="9.364646420603771"><ele>16.0</ele><time>2026-05-01T08:19:41.999Z</time></trkpt><trkpt lat="42.92461347629796" lon="9.364434816213809"><ele>14.0</ele><time>2026-05-01T08:19:42.999Z</time></trkpt><trkpt lat="42.924599850984144" lon="9.36421183944643"><ele>12.0</ele><time>2026-05-01T08:19:43.999Z</time></trkpt><trkpt lat="42.92460865386394" lon="9.363963176515396"><ele>10.0</ele><time>2026-05-01T08:19:44.999Z</time></trkpt><trkpt lat="42.924624687067" lon="9.363698031174259"><ele>9.5</ele><time>2026-05-01T08:19:45.999Z</time></trkpt><trkpt lat="42.924632048698875" lon="9.36346625890349"><ele>9.0</ele><time>2026-05-01T08:19:46.999Z</time></trkpt><trkpt lat="42.92459152383025" lon="9.363291416341719"><ele>8.5</ele><time>2026-05-01T08:19:47.999Z</time></trkpt><trkpt lat="42.92448433851424" lon="9.363198633618548"><ele>8.0</ele><time>2026-05-01T08:19:48.999Z</time></trkpt><trkpt lat="42.92435435586882" lon="9.363162279094373"><ele>11.333333333333332</ele><time>2026-05-01T08:19:49.999Z</time></trkpt><trkpt lat="42.92421880872507" lon="9.363238580378807"><ele>14.666666666666666</ele><time>2026-05-01T08:19:50.999Z</time></trkpt><trkpt lat="42.92408045225608" lon="9.363387419870952"><ele>18.0</ele><time>2026-05-01T08:19:51.999Z</time></trkpt><trkpt lat="42.92391316847032" lon="9.363570310444732"><ele>18.0</ele><time>2026-05-01T08:19:52.999Z</time></trkpt><trkpt lat="42.923710742270096" lon="9.363690007004715"><ele>18.0</ele><time>2026-05-01T08:19:53.999Z</time></trkpt><trkpt lat="42.923468913194235" lon="9.363797533997236"><ele>20.75</ele><time>2026-05-01T08:19:54.999Z</time></trkpt><trkpt lat="42.92326811249471" lon="9.363867641650371"><ele>23.5</ele><time>2026-05-01T08:19:55.999Z</time></trkpt><trkpt lat="42.923129818383224" lon="9.363872539696047"><ele>26.25</ele><time>2026-05-01T08:19:56.999Z</time></trkpt><trkpt lat="42.92305927268183" lon="9.363793997376005"><ele>29.0</ele><time>2026-05-01T08:19:57.999Z</time></trkpt><trkpt lat="42.92304174684666" lon="9.36369824358358"><ele>29.0</ele><time>2026-05-01T08:19:58.999Z</time></trkpt><trkpt lat="42.923057131407205" lon="9.363553731415148"><ele>29.0</ele><time>2026-05-01T08:19:59.999Z</time></trkpt><trkpt lat="42.92317440952619" lon="9.363444494080616"><ele>29.0</ele><time>2026-05-01T08:20:00.999Z</time></trkpt><trkpt lat="42.92331759852681" lon="9.363294772062597"><ele>29.0</ele><time>2026-05-01T08:20:01.999Z</time></trkpt><trkpt lat="42.923486186599455" lon="9.363164788011881"><ele>22.333333333333332</ele><time>2026-05-01T08:20:02.999Z</time></trkpt><trkpt lat="42.92362916959586" lon="9.362990680359944"><ele>15.666666666666666</ele><time>2026-05-01T08:20:03.999Z</time></trkpt><trkpt lat="42.923705496044356" lon="9.362802325307605"><ele>9.0</ele><time>2026-05-01T08:20:04.999Z</time></trkpt><trkpt lat="42.923712138277835" lon="9.36261559051255"><ele>9.0</ele><time>2026-05-01T08:20:05.999Z</time></trkpt><trkpt lat="42.92364797958458" lon="9.3624095890588"><ele>9.0</ele><time>2026-05-01T08:20:06.999Z</time></trkpt><trkpt lat="42.923528976941746" lon="9.362167271345825"><ele>9.0</ele><time>2026-05-01T08:20:07.999Z</time></trkpt><trkpt lat="42.92345330189415" lon="9.361860898221593"><ele>7.0</ele><time>2026-05-01T08:20:08.999Z</time></trkpt><trkpt lat="42.92342435440048" lon="9.361520162588414"><ele>5.0</ele><time>2026-05-01T08:20:09.999Z</time></trkpt><trkpt lat="42.9233896768901" lon="9.361231796738139"><ele>10.333333333333334</ele><time>2026-05-01T08:20:10.999Z</time></trkpt><trkpt lat="42.92330167630235" lon="9.360999627393758"><ele>15.666666666666666</ele><time>2026-05-01T08:20:11.999Z</time></trkpt><trkpt lat="42.92317573798379" lon="9.36080336866701"><ele>21.0</ele><time>2026-05-01T08:20:12.999Z</time></trkpt><trkpt lat="42.92303786261814" lon="9.360714950607083"><ele>21.0</ele><time>2026-05-01T08:20:13.999Z</time></trkpt><trkpt lat="42.922842960609586" lon="9.360745345365887"><ele>21.0</ele><time>2026-05-01T08:20:14.999Z</time></trkpt><trkpt lat="42.922621817210384" lon="9.360830143840113"><ele>21.0</ele><time>2026-05-01T08:20:15.999Z</time></trkpt><trkpt lat="42.922377574254476" lon="9.360917576128498"><ele>25.0</ele><time>2026-05-01T08:20:16.999Z</time></trkpt><trkpt lat="42.92211407782524" lon="9.360985584592006"><ele>29.0</ele><time>2026-05-01T08:20:17.999Z</time></trkpt><trkpt lat="42.92187539635898" lon="9.361034543151455"><ele>30.333333333333332</ele><time>2026-05-01T08:20:18.999Z</time></trkpt><trkpt lat="42.92169635235447" lon="9.361135840752139"><ele>31.666666666666664</ele><time>2026-05-01T08:20:19.999Z</time></trkpt><trkpt lat="42.921575416927915" lon="9.361271688895298"><ele>33.0</ele><time>2026-05-01T08:20:20.999Z</time></trkpt><trkpt lat="42.921491879060866" lon="9.361379084967584"><ele>33.0</ele><time>2026-05-01T08:20:21.999Z</time></trkpt><trkpt lat="42.92141363361086" lon="9.361391542253594"><ele>33.0</ele><time>2026-05-01T08:20:22.999Z</time></trkpt><trkpt lat="42.921303791264535" lon="9.36135205215129"><ele>33.0</ele><time>2026-05-01T08:20:24.999Z</time></trkpt><trkpt lat="42.92125786552156" lon="9.361282587533756"><ele>33.0</ele><time>2026-05-01T08:20:25.999Z</time></trkpt><trkpt lat="42.921225014181225" lon="9.36118691335919"><ele>33.0</ele><time>2026-05-01T08:20:26.999Z</time></trkpt><trkpt lat="42.92121983492522" lon="9.361064525596756"><ele>33.0</ele><time>2026-05-01T08:20:27.999Z</time></trkpt><trkpt lat="42.92123570746104" lon="9.360935588721846"><ele>33.0</ele><time>2026-05-01T08:20:28.999Z</time></trkpt><trkpt lat="42.921261202335735" lon="9.360807175205855"><ele>33.0</ele><time>2026-05-01T08:20:29.999Z</time></trkpt><trkpt lat="42.92128811440496" lon="9.360677762113102"><ele>33.0</ele><time>2026-05-01T08:20:30.999Z</time></trkpt><trkpt lat="42.921320170004684" lon="9.360554791822228"><ele>33.0</ele><time>2026-05-01T08:20:31.999Z</time></trkpt><trkpt lat="42.92135055657689" lon="9.360446039449133"><ele>33.0</ele><time>2026-05-01T08:20:32.999Z</time></trkpt><trkpt lat="42.92137493553542" lon="9.360359131817102"><ele>33.0</ele><time>2026-05-01T08:20:33.999Z</time></trkpt><trkpt lat="42.92138041390203" lon="9.360262191740622"><ele>32.0</ele><time>2026-05-01T08:20:34.999Z</time></trkpt><trkpt lat="42.921349025027425" lon="9.360174109191018"><ele>31.0</ele><time>2026-05-01T08:20:35.999Z</time></trkpt><trkpt lat="42.92129569130509" lon="9.360107763879672"><ele>30.0</ele><time>2026-05-01T08:20:36.999Z</time></trkpt><trkpt lat="42.921225679453094" lon="9.360068365084349"><ele>29.0</ele><time>2026-05-01T08:20:37.999Z</time></trkpt><trkpt lat="42.92114660047362" lon="9.360048238994676"><ele>28.0</ele><time>2026-05-01T08:20:38.999Z</time></trkpt><trkpt lat="42.92107040923187" lon="9.360029885954631"><ele>27.0</ele><time>2026-05-01T08:20:39.999Z</time></trkpt><trkpt lat="42.92098979692046" lon="9.360016690843297"><ele>27.0</ele><time>2026-05-01T08:20:40.999Z</time></trkpt><trkpt lat="42.92090125914241" lon="9.36001367923973"><ele>27.000000000000004</ele><time>2026-05-01T08:20:41.999Z</time></trkpt><trkpt lat="42.92081011356821" lon="9.360032719295416"><ele>27.000000000000004</ele><time>2026-05-01T08:20:42.999Z</time></trkpt><trkpt lat="42.92071516169838" lon="9.360063213685924"><ele>27.0</ele><time>2026-05-01T08:20:43.999Z</time></trkpt><trkpt lat="42.92061936426274" lon="9.36009850738506"><ele>27.0</ele><time>2026-05-01T08:20:44.999Z</time></trkpt><trkpt lat="42.92051705583791" lon="9.360125194038424"><ele>30.8</ele><time>2026-05-01T08:20:45.999Z</time></trkpt><trkpt lat="42.920417254752515" lon="9.360143267986604"><ele>34.6</ele><time>2026-05-01T08:20:46.999Z</time></trkpt><trkpt lat="42.920326392802934" lon="9.3601624799459"><ele>38.4</ele><time>2026-05-01T08:20:47.999Z</time></trkpt><trkpt lat="42.920238832952975" lon="9.36016233354228"><ele>42.199999999999996</ele><time>2026-05-01T08:20:48.998Z</time></trkpt><trkpt lat="42.92017108150381" lon="9.360149544881887"><ele>46.0</ele><time>2026-05-01T08:20:49.998Z</time></trkpt><trkpt lat="42.92007839143839" lon="9.360041193322997"><ele>46.0</ele><time>2026-05-01T08:20:51.998Z</time></trkpt><trkpt lat="42.920067908876646" lon="9.359952013876343"><ele>46.0</ele><time>2026-05-01T08:20:52.998Z</time></trkpt><trkpt lat="42.9200907882916" lon="9.359852601236176"><ele>46.0</ele><time>2026-05-01T08:20:53.998Z</time></trkpt><trkpt lat="42.92013910602363" lon="9.359761601541868"><ele>46.0</ele><time>2026-05-01T08:20:54.998Z</time></trkpt><trkpt lat="42.92019926123055" lon="9.359682241680234"><ele>46.0</ele><time>2026-05-01T08:20:55.998Z</time></trkpt><trkpt lat="42.92027867737942" lon="9.359610162428439"><ele>46.0</ele><time>2026-05-01T08:20:56.998Z</time></trkpt><trkpt lat="42.92036647476114" lon="9.359523374166606"><ele>47.0</ele><time>2026-05-01T08:20:57.998Z</time></trkpt><trkpt lat="42.92046941034387" lon="9.359404026794607"><ele>48.0</ele><time>2026-05-01T08:20:58.998Z</time></trkpt><trkpt lat="42.92059420279589" lon="9.359267762273543"><ele>49.0</ele><time>2026-05-01T08:20:59.998Z</time></trkpt><trkpt lat="42.92072973327148" lon="9.359124736840617"><ele>49.0</ele><time>2026-05-01T08:21:01Z</time></trkpt><trkpt lat="42.92086410072251" lon="9.359002202681813"><ele>49.0</ele><time>2026-05-01T08:21:02Z</time></trkpt><trkpt lat="42.92098780540325" lon="9.35891276920157"><ele>49.0</ele><time>2026-05-01T08:21:03Z</time></trkpt><trkpt lat="42.92109940650517" lon="9.358842302229203"><ele>49.0</ele><time>2026-05-01T08:21:04Z</time></trkpt><trkpt lat="42.921210804060436" lon="9.358774653087023"><ele>48.5</ele><time>2026-05-01T08:21:05Z</time></trkpt><trkpt lat="42.921333653231024" lon="9.358698560571801"><ele>48.0</ele><time>2026-05-01T08:21:06Z</time></trkpt><trkpt lat="42.921468899853956" lon="9.35861006997897"><ele>47.5</ele><time>2026-05-01T08:21:07Z</time></trkpt><trkpt lat="42.921620061401505" lon="9.358542211851386"><ele>47.0</ele><time>2026-05-01T08:21:08Z</time></trkpt><trkpt lat="42.921771471655866" lon="9.3584617850534"><ele>44.6</ele><time>2026-05-01T08:21:09Z</time></trkpt><trkpt lat="42.92189808934164" lon="9.358400369841519"><ele>42.2</ele><time>2026-05-01T08:21:10Z</time></trkpt><trkpt lat="42.92197814533575" lon="9.35830392751868"><ele>39.8</ele><time>2026-05-01T08:21:11Z</time></trkpt><trkpt lat="42.92200299743664" lon="9.358177369221805"><ele>37.4</ele><time>2026-05-01T08:21:12Z</time></trkpt><trkpt lat="42.921982556367446" lon="9.358059459156188"><ele>35.0</ele><time>2026-05-01T08:21:13Z</time></trkpt><trkpt lat="42.92191096446024" lon="9.357961704914102"><ele>34.4</ele><time>2026-05-01T08:21:14Z</time></trkpt><trkpt lat="42.92181937624481" lon="9.357872277015186"><ele>33.8</ele><time>2026-05-01T08:21:15Z</time></trkpt><trkpt lat="42.92173419708348" lon="9.357806664183073"><ele>33.2</ele><time>2026-05-01T08:21:16Z</time></trkpt><trkpt lat="42.92165786835331" lon="9.35775125338632"><ele>32.6</ele><time>2026-05-01T08:21:17Z</time></trkpt><trkpt lat="42.92158068270112" lon="9.357709254067425"><ele>32.0</ele><time>2026-05-01T08:21:18Z</time></trkpt><trkpt lat="42.921493363536044" lon="9.35768030137192"><ele>32.0</ele><time>2026-05-01T08:21:19Z</time></trkpt><trkpt lat="42.92140626010214" lon="9.357638342826975"><ele>32.0</ele><time>2026-05-01T08:21:20Z</time></trkpt><trkpt lat="42.92130583243558" lon="9.357640901366924"><ele>32.0</ele><time>2026-05-01T08:21:21Z</time></trkpt><trkpt lat="42.92120234247328" lon="9.35765457482289"><ele>32.0</ele><time>2026-05-01T08:21:22Z</time></trkpt><trkpt lat="42.92110607322437" lon="9.357669917311194"><ele>32.0</ele><time>2026-05-01T08:21:23Z</time></trkpt><trkpt lat="42.92100369655262" lon="9.357684423461569"><ele>32.0</ele><time>2026-05-01T08:21:24Z</time></trkpt><trkpt lat="42.920902279751104" lon="9.357690639789388"><ele>32.0</ele><time>2026-05-01T08:21:25Z</time></trkpt><trkpt lat="42.92079692473859" lon="9.357689389198427"><ele>32.0</ele><time>2026-05-01T08:21:26Z</time></trkpt><trkpt lat="42.920696812153345" lon="9.357680550320213"><ele>32.0</ele><time>2026-05-01T08:21:27Z</time></trkpt><trkpt lat="42.92059653435155" lon="9.357663555653328"><ele>32.0</ele><time>2026-05-01T08:21:28Z</time></trkpt><trkpt lat="42.92049723142783" lon="9.357625606446044"><ele>31.0</ele><time>2026-05-01T08:21:29Z</time></trkpt><trkpt lat="42.92040790566965" lon="9.35755955788273"><ele>30.000000000000004</ele><time>2026-05-01T08:21:30Z</time></trkpt><trkpt lat="42.92032125655091" lon="9.35747316889888"><ele>29.000000000000004</ele><time>2026-05-01T08:21:31Z</time></trkpt><trkpt lat="42.920286687498596" lon="9.35732873692266"><ele>28.0</ele><time>2026-05-01T08:21:32Z</time></trkpt><trkpt lat="42.920275147623464" lon="9.35716863916074"><ele>27.0</ele><time>2026-05-01T08:21:33Z</time></trkpt><trkpt lat="42.92023601832328" lon="9.35701579538767"><ele>27.0</ele><time>2026-05-01T08:21:34Z</time></trkpt><trkpt lat="42.920176971612996" lon="9.35686587693656"><ele>27.0</ele><time>2026-05-01T08:21:35Z</time></trkpt><trkpt lat="42.92011066677445" lon="9.356723113704822"><ele>27.0</ele><time>2026-05-01T08:21:36Z</time></trkpt><trkpt lat="42.92003387052268" lon="9.35659752621272"><ele>27.0</ele><time>2026-05-01T08:21:37Z</time></trkpt><trkpt lat="42.919935690860136" lon="9.356487353985557"><ele>31.25</ele><time>2026-05-01T08:21:38Z</time></trkpt><trkpt lat="42.91981509845819" lon="9.356426171348543"><ele>35.5</ele><time>2026-05-01T08:21:39Z</time></trkpt><trkpt lat="42.919684033720685" lon="9.356426114973345"><ele>39.75</ele><time>2026-05-01T08:21:40Z</time></trkpt><trkpt lat="42.919560759676315" lon="9.3564615538321"><ele>44.0</ele><time>2026-05-01T08:21:41Z</time></trkpt><trkpt lat="42.9194443651429" lon="9.356527716565523"><ele>44.0</ele><time>2026-05-01T08:21:42Z</time></trkpt><trkpt lat="42.91931961186978" lon="9.356526431535439"><ele>44.0</ele><time>2026-05-01T08:21:43Z</time></trkpt><trkpt lat="42.91920061052866" lon="9.356506631762167"><ele>44.0</ele><time>2026-05-01T08:21:44Z</time></trkpt><trkpt lat="42.91907440314663" lon="9.356483158143057"><ele>44.0</ele><time>2026-05-01T08:21:44.999Z</time></trkpt><trkpt lat="42.918944924311475" lon="9.356461143861788"><ele>47.75</ele><time>2026-05-01T08:21:45.999Z</time></trkpt><trkpt lat="42.91880712043319" lon="9.356466651722029"><ele>51.5</ele><time>2026-05-01T08:21:46.999Z</time></trkpt><trkpt lat="42.91867528351378" lon="9.356516369867718"><ele>55.25</ele><time>2026-05-01T08:21:47.999Z</time></trkpt><trkpt lat="42.91854333595671" lon="9.356572765260779"><ele>59.0</ele><time>2026-05-01T08:21:48.999Z</time></trkpt><trkpt lat="42.91841726531295" lon="9.356630317459526"><ele>56.5</ele><time>2026-05-01T08:21:49.999Z</time></trkpt><trkpt lat="42.918297027928936" lon="9.356698296424227"><ele>54.0</ele><time>2026-05-01T08:21:50.999Z</time></trkpt><trkpt lat="42.91819484835115" lon="9.356816904598805"><ele>51.5</ele><time>2026-05-01T08:21:51.999Z</time></trkpt><trkpt lat="42.918116410666336" lon="9.356968686970001"><ele>49.0</ele><time>2026-05-01T08:21:52.999Z</time></trkpt><trkpt lat="42.91803114947602" lon="9.357083085990103"><ele>49.0</ele><time>2026-05-01T08:21:53.999Z</time></trkpt><trkpt lat="42.91791255836887" lon="9.357145193559298"><ele>49.0</ele><time>2026-05-01T08:21:54.999Z</time></trkpt><trkpt lat="42.9177938186135" lon="9.35722195838805"><ele>49.0</ele><time>2026-05-01T08:21:55.999Z</time></trkpt><trkpt lat="42.91771043475348" lon="9.357357389386454"><ele>49.0</ele><time>2026-05-01T08:21:56.999Z</time></trkpt><trkpt lat="42.917688187792734" lon="9.357559431831417"><ele>49.25</ele><time>2026-05-01T08:21:57.999Z</time></trkpt><trkpt lat="42.917632142912375" lon="9.357722307838579"><ele>49.5</ele><time>2026-05-01T08:21:58.999Z</time></trkpt><trkpt lat="42.91751578957583" lon="9.35780841443463"><ele>49.75</ele><time>2026-05-01T08:21:59.999Z</time></trkpt><trkpt lat="42.917408370302056" lon="9.357917009976264"><ele>50.0</ele><time>2026-05-01T08:22:00.999Z</time></trkpt><trkpt lat="42.91730722044674" lon="9.358037278711025"><ele>55.25</ele><time>2026-05-01T08:22:01.999Z</time></trkpt><trkpt lat="42.917224377833385" lon="9.35819000542333"><ele>60.5</ele><time>2026-05-01T08:22:02.999Z</time></trkpt><trkpt lat="42.917159639468615" lon="9.358360093176485"><ele>65.75</ele><time>2026-05-01T08:22:03.999Z</time></trkpt><trkpt lat="42.91712543680516" lon="9.358543141067335"><ele>71.0</ele><time>2026-05-01T08:22:04.999Z</time></trkpt><trkpt lat="42.91712914212717" lon="9.358727621677767"><ele>77.0</ele><time>2026-05-01T08:22:05.999Z</time></trkpt><trkpt lat="42.917120449372796" lon="9.35888723667649"><ele>83.0</ele><time>2026-05-01T08:22:06.999Z</time></trkpt><trkpt lat="42.917038514182934" lon="9.359006143630602"><ele>89.0</ele><time>2026-05-01T08:22:07.999Z</time></trkpt><trkpt lat="42.91695041770817" lon="9.359142089181825"><ele>95.0</ele><time>2026-05-01T08:22:08.999Z</time></trkpt><trkpt lat="42.91687218609823" lon="9.359290307754863"><ele>95.0</ele><time>2026-05-01T08:22:09.999Z</time></trkpt><trkpt lat="42.91675830786902" lon="9.359387294853226"><ele>95.0</ele><time>2026-05-01T08:22:10.999Z</time></trkpt><trkpt lat="42.91663319183225" lon="9.359426226519226"><ele>95.0</ele><time>2026-05-01T08:22:11.999Z</time></trkpt><trkpt lat="42.91650525719216" lon="9.359492954767475"><ele>95.0</ele><time>2026-05-01T08:22:12.999Z</time></trkpt><trkpt lat="42.91640252023549" lon="9.359604568988152"><ele>92.2</ele><time>2026-05-01T08:22:13.999Z</time></trkpt><trkpt lat="42.916318566291274" lon="9.359715316991618"><ele>89.4</ele><time>2026-05-01T08:22:14.999Z</time></trkpt><trkpt lat="42.91622719769572" lon="9.35974006754354"><ele>86.6</ele><time>2026-05-01T08:22:15.999Z</time></trkpt><trkpt lat="42.916125857153105" lon="9.359672725650304"><ele>83.8</ele><time>2026-05-01T08:22:16.999Z</time></trkpt><trkpt lat="42.916068136925155" lon="9.35954463627973"><ele>81.0</ele><time>2026-05-01T08:22:17.999Z</time></trkpt><trkpt lat="42.916072358166666" lon="9.359395098100368"><ele>78.0</ele><time>2026-05-01T08:22:18.999Z</time></trkpt><trkpt lat="42.91615305854449" lon="9.35925633886719"><ele>75.0</ele><time>2026-05-01T08:22:19.999Z</time></trkpt><trkpt lat="42.916206661983885" lon="9.359103999935925"><ele>72.0</ele><time>2026-05-01T08:22:20.999Z</time></trkpt><trkpt lat="42.91629222189645" lon="9.358958582806121"><ele>69.0</ele><time>2026-05-01T08:22:21.999Z</time></trkpt><trkpt lat="42.916385071697995" lon="9.358822176571177"><ele>67.25</ele><time>2026-05-01T08:22:22.999Z</time></trkpt><trkpt lat="42.91645154225331" lon="9.358671519406208"><ele>65.5</ele><time>2026-05-01T08:22:23.999Z</time></trkpt><trkpt lat="42.91646928657616" lon="9.358491106494595"><ele>63.75</ele><time>2026-05-01T08:22:24.999Z</time></trkpt><trkpt lat="42.91643354419893" lon="9.358303782214739"><ele>62.0</ele><time>2026-05-01T08:22:25.999Z</time></trkpt><trkpt lat="42.91640232701123" lon="9.358121248769875"><ele>60.75</ele><time>2026-05-01T08:22:26.999Z</time></trkpt><trkpt lat="42.91637339886818" lon="9.357965383232479"><ele>59.5</ele><time>2026-05-01T08:22:27.999Z</time></trkpt><trkpt lat="42.91630882258645" lon="9.357854261685537"><ele>58.25</ele><time>2026-05-01T08:22:28.999Z</time></trkpt><trkpt lat="42.91621660086378" lon="9.357788028382375"><ele>57.0</ele><time>2026-05-01T08:22:29.999Z</time></trkpt><trkpt lat="42.91608566346034" lon="9.357864511156844"><ele>57.0</ele><time>2026-05-01T08:22:30.999Z</time></trkpt><trkpt lat="42.91597761011662" lon="9.357959567202904"><ele>57.0</ele><time>2026-05-01T08:22:31.999Z</time></trkpt><trkpt lat="42.9158811409472" lon="9.358082046479984"><ele>57.0</ele><time>2026-05-01T08:22:32.999Z</time></trkpt><trkpt lat="42.91580975450715" lon="9.35823130017286"><ele>57.0</ele><time>2026-05-01T08:22:33.999Z</time></trkpt><trkpt lat="42.915777328857125" lon="9.358411300274568"><ele>60.0</ele><time>2026-05-01T08:22:34.999Z</time></trkpt><trkpt lat="42.915722268696946" lon="9.358580358892944"><ele>63.0</ele><time>2026-05-01T08:22:35.999Z</time></trkpt><trkpt lat="42.915658793256135" lon="9.358725002025439"><ele>66.0</ele><time>2026-05-01T08:22:36.999Z</time></trkpt><trkpt lat="42.915573615538115" lon="9.358834676883575"><ele>69.0</ele><time>2026-05-01T08:22:37.999Z</time></trkpt><trkpt lat="42.91545841727506" lon="9.358904432989936"><ele>71.0</ele><time>2026-05-01T08:22:38.999Z</time></trkpt><trkpt lat="42.915347014942164" lon="9.359011195594489"><ele>73.0</ele><time>2026-05-01T08:22:39.999Z</time></trkpt><trkpt lat="42.915256540202634" lon="9.359141092819067"><ele>75.0</ele><time>2026-05-01T08:22:40.999Z</time></trkpt><trkpt lat="42.91515598254305" lon="9.359266285362423"><ele>77.0</ele><time>2026-05-01T08:22:41.999Z</time></trkpt><trkpt lat="42.91505530179734" lon="9.359394882036538"><ele>77.0</ele><time>2026-05-01T08:22:42.999Z</time></trkpt><trkpt lat="42.914952980889915" lon="9.359511792321367"><ele>77.0</ele><time>2026-05-01T08:22:43.999Z</time></trkpt><trkpt lat="42.914849450861965" lon="9.35962931206734"><ele>77.0</ele><time>2026-05-01T08:22:44.999Z</time></trkpt><trkpt lat="42.914745312739555" lon="9.35973245674197"><ele>77.0</ele><time>2026-05-01T08:22:45.999Z</time></trkpt><trkpt lat="42.914624785471155" lon="9.359806093141932"><ele>81.5</ele><time>2026-05-01T08:22:46.999Z</time></trkpt><trkpt lat="42.91450287784852" lon="9.359889755030885"><ele>86.0</ele><time>2026-05-01T08:22:47.999Z</time></trkpt><trkpt lat="42.914381145406935" lon="9.359927360349925"><ele>90.5</ele><time>2026-05-01T08:22:48.999Z</time></trkpt><trkpt lat="42.91424851985661" lon="9.359966200190962"><ele>95.0</ele><time>2026-05-01T08:22:49.999Z</time></trkpt><trkpt lat="42.91413399583479" lon="9.3600478470418"><ele>95.0</ele><time>2026-05-01T08:22:50.999Z</time></trkpt><trkpt lat="42.91402474061183" lon="9.360145426498509"><ele>95.0</ele><time>2026-05-01T08:22:51.999Z</time></trkpt><trkpt lat="42.91392036902542" lon="9.360256121054572"><ele>95.0</ele><time>2026-05-01T08:22:52.999Z</time></trkpt><trkpt lat="42.91381489506186" lon="9.36035454871185"><ele>95.0</ele><time>2026-05-01T08:22:53.999Z</time></trkpt><trkpt lat="42.91371416930635" lon="9.360440187272797"><ele>95.0</ele><time>2026-05-01T08:22:54.999Z</time></trkpt><trkpt lat="42.91361641540802" lon="9.360472323299733"><ele>95.0</ele><time>2026-05-01T08:22:55.999Z</time></trkpt><trkpt lat="42.91353505298028" lon="9.36043745423227"><ele>95.0</ele><time>2026-05-01T08:22:56.999Z</time></trkpt><trkpt lat="42.913476645498726" lon="9.360342291842061"><ele>95.0</ele><time>2026-05-01T08:22:57.999Z</time></trkpt><trkpt lat="42.913457205780325" lon="9.360213403233828"><ele>95.0</ele><time>2026-05-01T08:22:58.999Z</time></trkpt><trkpt lat="42.91349048479255" lon="9.36007458447564"><ele>95.0</ele><time>2026-05-01T08:22:59.999Z</time></trkpt><trkpt lat="42.91355779571778" lon="9.359940071256421"><ele>95.0</ele><time>2026-05-01T08:23:00.998Z</time></trkpt><trkpt lat="42.91363989067241" lon="9.359823083435609"><ele>95.0</ele><time>2026-05-01T08:23:01.998Z</time></trkpt><trkpt lat="42.9137281493839" lon="9.359708936975881"><ele>95.0</ele><time>2026-05-01T08:23:02.998Z</time></trkpt><trkpt lat="42.91381607486172" lon="9.359593396476457"><ele>95.75</ele><time>2026-05-01T08:23:03.998Z</time></trkpt><trkpt lat="42.91389943267537" lon="9.359468176384931"><ele>96.5</ele><time>2026-05-01T08:23:04.998Z</time></trkpt><trkpt lat="42.913977404165415" lon="9.359339259986271"><ele>97.25</ele><time>2026-05-01T08:23:05.998Z</time></trkpt><trkpt lat="42.91404291069383" lon="9.359195980359782"><ele>98.0</ele><time>2026-05-01T08:23:06.999Z</time></trkpt><trkpt lat="42.91410195690564" lon="9.359044142040116"><ele>98.0</ele><time>2026-05-01T08:23:07.999Z</time></trkpt><trkpt lat="42.91417747290066" lon="9.358898894525694"><ele>98.0</ele><time>2026-05-01T08:23:08.999Z</time></trkpt><trkpt lat="42.91425675617089" lon="9.358748520082566"><ele>98.0</ele><time>2026-05-01T08:23:09.999Z</time></trkpt><trkpt lat="42.9143238539284" lon="9.358590439396282"><ele>98.0</ele><time>2026-05-01T08:23:10.999Z</time></trkpt><trkpt lat="42.91440102422962" lon="9.358446141738527"><ele>92.5</ele><time>2026-05-01T08:23:11.999Z</time></trkpt><trkpt lat="42.91447886852738" lon="9.358320949866975"><ele>87.0</ele><time>2026-05-01T08:23:12.999Z</time></trkpt><trkpt lat="42.914535999936675" lon="9.35819826428372"><ele>81.5</ele><time>2026-05-01T08:23:13.999Z</time></trkpt><trkpt lat="42.914558642701486" lon="9.358038938487674"><ele>76.0</ele><time>2026-05-01T08:23:14.999Z</time></trkpt><trkpt lat="42.914566169545076" lon="9.357859948726261"><ele>76.0</ele><time>2026-05-01T08:23:15.999Z</time></trkpt><trkpt lat="42.914554748171206" lon="9.357689613532242"><ele>76.0</ele><time>2026-05-01T08:23:16.999Z</time></trkpt><trkpt lat="42.91453620677177" lon="9.357510135637595"><ele>76.0</ele><time>2026-05-01T08:23:17.999Z</time></trkpt><trkpt lat="42.914523379685214" lon="9.357330427481129"><ele>76.0</ele><time>2026-05-01T08:23:18.999Z</time></trkpt><trkpt lat="42.91453825774377" lon="9.357148302968703"><ele>78.0</ele><time>2026-05-01T08:23:20Z</time></trkpt><trkpt lat="42.91457447917206" lon="9.356971195206292"><ele>80.0</ele><time>2026-05-01T08:23:21Z</time></trkpt><trkpt lat="42.91461908841225" lon="9.35680241638167"><ele>82.0</ele><time>2026-05-01T08:23:22Z</time></trkpt><trkpt lat="42.914654535077204" lon="9.356631549457227"><ele>84.0</ele><time>2026-05-01T08:23:23Z</time></trkpt><trkpt lat="42.91466884882224" lon="9.35644957428572"><ele>83.0</ele><time>2026-05-01T08:23:24Z</time></trkpt><trkpt lat="42.91465786924561" lon="9.35626517729296"><ele>82.0</ele><time>2026-05-01T08:23:25Z</time></trkpt><trkpt lat="42.914617371470015" lon="9.356093004014824"><ele>81.0</ele><time>2026-05-01T08:23:26Z</time></trkpt><trkpt lat="42.91453652862878" lon="9.355951878650867"><ele>80.0</ele><time>2026-05-01T08:23:27Z</time></trkpt><trkpt lat="42.91443312073351" lon="9.35585237575772"><ele>80.0</ele><time>2026-05-01T08:23:28Z</time></trkpt><trkpt lat="42.91432046023033" lon="9.355759889008104"><ele>80.0</ele><time>2026-05-01T08:23:28.999Z</time></trkpt><trkpt lat="42.91421400554441" lon="9.355663251595669"><ele>80.0</ele><time>2026-05-01T08:23:29.999Z</time></trkpt><trkpt lat="42.91412324625144" lon="9.355546339833987"><ele>80.0</ele><time>2026-05-01T08:23:30.999Z</time></trkpt><trkpt lat="42.91404185973823" lon="9.355415106282766"><ele>89.25</ele><time>2026-05-01T08:23:31.999Z</time></trkpt><trkpt lat="42.91399344120221" lon="9.355263103219665"><ele>98.5</ele><time>2026-05-01T08:23:32.999Z</time></trkpt><trkpt lat="42.91400163012741" lon="9.35510774983802"><ele>107.75</ele><time>2026-05-01T08:23:33.999Z</time></trkpt><trkpt lat="42.91406729603642" lon="9.354966173549313"><ele>117.0</ele><time>2026-05-01T08:23:34.999Z</time></trkpt><trkpt lat="42.91415310947298" lon="9.354847728375551"><ele>113.5</ele><time>2026-05-01T08:23:35.999Z</time></trkpt><trkpt lat="42.91425192420009" lon="9.354724153755026"><ele>110.0</ele><time>2026-05-01T08:23:36.999Z</time></trkpt><trkpt lat="42.91434505717469" lon="9.354591532464076"><ele>106.5</ele><time>2026-05-01T08:23:37.999Z</time></trkpt><trkpt lat="42.914450926804" lon="9.35446462877324"><ele>103.0</ele><time>2026-05-01T08:23:38.999Z</time></trkpt><trkpt lat="42.9145518237412" lon="9.35433265324298"><ele>103.0</ele><time>2026-05-01T08:23:39.999Z</time></trkpt><trkpt lat="42.914645978630666" lon="9.354190593105766"><ele>103.0</ele><time>2026-05-01T08:23:40.999Z</time></trkpt><trkpt lat="42.91473672632571" lon="9.35404633585534"><ele>103.0</ele><time>2026-05-01T08:23:41.999Z</time></trkpt><trkpt lat="42.914818254344056" lon="9.353892392297414"><ele>103.0</ele><time>2026-05-01T08:23:42.999Z</time></trkpt><trkpt lat="42.91489619312721" lon="9.35373636952274"><ele>107.5</ele><time>2026-05-01T08:23:43.999Z</time></trkpt><trkpt lat="42.91497089283599" lon="9.353575494931864"><ele>112.0</ele><time>2026-05-01T08:23:44.999Z</time></trkpt><trkpt lat="42.91504033656332" lon="9.353413902893463"><ele>116.5</ele><time>2026-05-01T08:23:45.999Z</time></trkpt><trkpt lat="42.91509141040994" lon="9.35323884018896"><ele>121.0</ele><time>2026-05-01T08:23:46.999Z</time></trkpt><trkpt lat="42.915128093497444" lon="9.353057386923238"><ele>119.25</ele><time>2026-05-01T08:23:47.999Z</time></trkpt><trkpt lat="42.91514134881297" lon="9.35287542706336"><ele>117.5</ele><time>2026-05-01T08:23:48.999Z</time></trkpt><trkpt lat="42.915096423822966" lon="9.352721458144549"><ele>115.75</ele><time>2026-05-01T08:23:49.999Z</time></trkpt><trkpt lat="42.91499923299925" lon="9.352626449801837"><ele>114.0</ele><time>2026-05-01T08:23:50.999Z</time></trkpt><trkpt lat="42.91488207765771" lon="9.352566535696244"><ele>114.0</ele><time>2026-05-01T08:23:51.999Z</time></trkpt><trkpt lat="42.91474406832287" lon="9.352542709816586"><ele>114.0</ele><time>2026-05-01T08:23:52.999Z</time></trkpt><trkpt lat="42.914605973727866" lon="9.352510640378238"><ele>114.0</ele><time>2026-05-01T08:23:53.999Z</time></trkpt><trkpt lat="42.914467261382136" lon="9.352523718433725"><ele>114.0</ele><time>2026-05-01T08:23:54.999Z</time></trkpt><trkpt lat="42.914329092707995" lon="9.352500363308241"><ele>109.5</ele><time>2026-05-01T08:23:55.999Z</time></trkpt><trkpt lat="42.91419388321543" lon="9.352446816766793"><ele>105.0</ele><time>2026-05-01T08:23:56.999Z</time></trkpt><trkpt lat="42.91406720486313" lon="9.352351621321882"><ele>100.5</ele><time>2026-05-01T08:23:57.999Z</time></trkpt><trkpt lat="42.91394428348946" lon="9.35224278888038"><ele>96.0</ele><time>2026-05-01T08:23:58.999Z</time></trkpt><trkpt lat="42.913822373702395" lon="9.352134100220953"><ele>96.0</ele><time>2026-05-01T08:23:59.999Z</time></trkpt><trkpt lat="42.913689306502725" lon="9.35203695722409"><ele>96.0</ele><time>2026-05-01T08:24:00.999Z</time></trkpt><trkpt lat="42.91355775158869" lon="9.351956747525872"><ele>96.0</ele><time>2026-05-01T08:24:01.999Z</time></trkpt><trkpt lat="42.91342151456866" lon="9.351901536139962"><ele>96.0</ele><time>2026-05-01T08:24:02.999Z</time></trkpt><trkpt lat="42.91328122256783" lon="9.351882892699255"><ele>102.0</ele><time>2026-05-01T08:24:03.999Z</time></trkpt><trkpt lat="42.91314560626246" lon="9.351895995297062"><ele>108.0</ele><time>2026-05-01T08:24:04.999Z</time></trkpt><trkpt lat="42.91303910975739" lon="9.351966091336864"><ele>114.0</ele><time>2026-05-01T08:24:05.999Z</time></trkpt><trkpt lat="42.91295286934441" lon="9.352108075312792"><ele>120.0</ele><time>2026-05-01T08:24:06.999Z</time></trkpt><trkpt lat="42.91286240425991" lon="9.352250686950596"><ele>121.0</ele><time>2026-05-01T08:24:07.999Z</time></trkpt><trkpt lat="42.912730099399305" lon="9.352300215580577"><ele>122.0</ele><time>2026-05-01T08:24:08.999Z</time></trkpt><trkpt lat="42.91259819812427" lon="9.352386904958294"><ele>123.0</ele><time>2026-05-01T08:24:09.999Z</time></trkpt><trkpt lat="42.912470457226235" lon="9.35247528724666"><ele>124.0</ele><time>2026-05-01T08:24:10.999Z</time></trkpt><trkpt lat="42.91236385337923" lon="9.352607397846107"><ele>124.0</ele><time>2026-05-01T08:24:11.999Z</time></trkpt><trkpt lat="42.91228349557559" lon="9.352771234030511"><ele>124.0</ele><time>2026-05-01T08:24:12.999Z</time></trkpt><trkpt lat="42.91221549793845" lon="9.352949532235607"><ele>124.0</ele><time>2026-05-01T08:24:13.999Z</time></trkpt><trkpt lat="42.91214988428724" lon="9.353113162710885"><ele>124.0</ele><time>2026-05-01T08:24:14.999Z</time></trkpt><trkpt lat="42.91206930779573" lon="9.35322075757648"><ele>126.25</ele><time>2026-05-01T08:24:15.999Z</time></trkpt><trkpt lat="42.91194978856799" lon="9.353213155004372"><ele>128.5</ele><time>2026-05-01T08:24:16.999Z</time></trkpt><trkpt lat="42.91183418869297" lon="9.35318194508502"><ele>130.75</ele><time>2026-05-01T08:24:17.999Z</time></trkpt><trkpt lat="42.91169305601298" lon="9.353184839419969"><ele>133.0</ele><time>2026-05-01T08:24:18.999Z</time></trkpt><trkpt lat="42.91156533537859" lon="9.353180353690767"><ele>133.0</ele><time>2026-05-01T08:24:19.999Z</time></trkpt><trkpt lat="42.91144623264907" lon="9.353251094351107"><ele>133.0</ele><time>2026-05-01T08:24:20.999Z</time></trkpt><trkpt lat="42.911333721598474" lon="9.353351727498534"><ele>133.0</ele><time>2026-05-01T08:24:21.999Z</time></trkpt><trkpt lat="42.91122242512514" lon="9.353419686927655"><ele>133.0</ele><time>2026-05-01T08:24:22.999Z</time></trkpt><trkpt lat="42.91111611105444" lon="9.353442580449906"><ele>133.0</ele><time>2026-05-01T08:24:23.999Z</time></trkpt><trkpt lat="42.91101688559491" lon="9.353391735404053"><ele>133.0</ele><time>2026-05-01T08:24:24.999Z</time></trkpt><trkpt lat="42.91093931250103" lon="9.353322461518841"><ele>133.0</ele><time>2026-05-01T08:24:25.999Z</time></trkpt><trkpt lat="42.91086549564795" lon="9.353264048924173"><ele>133.0</ele><time>2026-05-01T08:24:26.999Z</time></trkpt><trkpt lat="42.91079706750686" lon="9.353215609920804"><ele>133.0</ele><time>2026-05-01T08:24:27.999Z</time></trkpt><trkpt lat="42.91073528655396" lon="9.353164120044111"><ele>133.0</ele><time>2026-05-01T08:24:28.999Z</time></trkpt><trkpt lat="42.91065982469532" lon="9.353108677865157"><ele>134.5</ele><time>2026-05-01T08:24:29.999Z</time></trkpt><trkpt lat="42.91060365142416" lon="9.353056156251805"><ele>136.0</ele><time>2026-05-01T08:24:30.999Z</time></trkpt><trkpt lat="42.91055116862312" lon="9.353008413026847"><ele>137.5</ele><time>2026-05-01T08:24:31.999Z</time></trkpt><trkpt lat="42.91048571160589" lon="9.352953663849908"><ele>139.0</ele><time>2026-05-01T08:24:32.999Z</time></trkpt><trkpt lat="42.910425108209026" lon="9.352911705439988"><ele>140.5</ele><time>2026-05-01T08:24:33.999Z</time></trkpt><trkpt lat="42.910298837569904" lon="9.352879935396128"><ele>142.0</ele><time>2026-05-01T08:24:35.999Z</time></trkpt><trkpt lat="42.91022723422361" lon="9.352887976851628"><ele>144.0</ele><time>2026-05-01T08:24:36.999Z</time></trkpt><trkpt lat="42.910150757626745" lon="9.35290461178803"><ele>146.0</ele><time>2026-05-01T08:24:37.999Z</time></trkpt><trkpt lat="42.91006234642111" lon="9.352920575686342"><ele>148.0</ele><time>2026-05-01T08:24:38.999Z</time></trkpt><trkpt lat="42.909950075276015" lon="9.3529914877606"><ele>150.0</ele><time>2026-05-01T08:24:39.999Z</time></trkpt><trkpt lat="42.909836846194764" lon="9.353108935566596"><ele>152.0</ele><time>2026-05-01T08:24:40.999Z</time></trkpt><trkpt lat="42.90970414036738" lon="9.353195225330103"><ele>152.0</ele><time>2026-05-01T08:24:41.999Z</time></trkpt><trkpt lat="42.9095686691441" lon="9.353232867698958"><ele>152.0</ele><time>2026-05-01T08:24:42.999Z</time></trkpt><trkpt lat="42.90944786512403" lon="9.353262782237383"><ele>152.0</ele><time>2026-05-01T08:24:43.999Z</time></trkpt><trkpt lat="42.90931205365994" lon="9.35324584226114"><ele>152.0</ele><time>2026-05-01T08:24:44.999Z</time></trkpt><trkpt lat="42.909186774292834" lon="9.353306627792014"><ele>150.75</ele><time>2026-05-01T08:24:45.999Z</time></trkpt><trkpt lat="42.909057656100345" lon="9.353361347123936"><ele>149.5</ele><time>2026-05-01T08:24:46.999Z</time></trkpt><trkpt lat="42.90893509351851" lon="9.353409413059957"><ele>148.25</ele><time>2026-05-01T08:24:47.999Z</time></trkpt><trkpt lat="42.908811531535264" lon="9.353445759672567"><ele>147.0</ele><time>2026-05-01T08:24:48.999Z</time></trkpt><trkpt lat="42.90870081554028" lon="9.353405488636934"><ele>147.0</ele><time>2026-05-01T08:24:49.999Z</time></trkpt><trkpt lat="42.90861106273716" lon="9.353345781769253"><ele>147.0</ele><time>2026-05-01T08:24:50.999Z</time></trkpt><trkpt lat="42.908541114382565" lon="9.353277804447636"><ele>147.0</ele><time>2026-05-01T08:24:51.999Z</time></trkpt><trkpt lat="42.90852803123283" lon="9.353173892849998"><ele>147.0</ele><time>2026-05-01T08:24:52.999Z</time></trkpt><trkpt lat="42.90860794965722" lon="9.352884410746046"><ele>143.75</ele><time>2026-05-01T08:24:54.999Z</time></trkpt><trkpt lat="42.90864111789182" lon="9.35274396143915"><ele>140.5</ele><time>2026-05-01T08:24:55.999Z</time></trkpt><trkpt lat="42.90866824746211" lon="9.352589680620985"><ele>137.25</ele><time>2026-05-01T08:24:56.999Z</time></trkpt><trkpt lat="42.90869983385004" lon="9.352433567222358"><ele>134.0</ele><time>2026-05-01T08:24:57.999Z</time></trkpt><trkpt lat="42.90872435667883" lon="9.35227602796533"><ele>134.2</ele><time>2026-05-01T08:24:58.999Z</time></trkpt><trkpt lat="42.908732891582005" lon="9.352117219494543"><ele>134.4</ele><time>2026-05-01T08:24:59.999Z</time></trkpt><trkpt lat="42.908727884646524" lon="9.351965050653282"><ele>134.6</ele><time>2026-05-01T08:25:00.999Z</time></trkpt><trkpt lat="42.90870997589746" lon="9.35183220859632"><ele>134.8</ele><time>2026-05-01T08:25:01.999Z</time></trkpt><trkpt lat="42.90867665853267" lon="9.35171305940762"><ele>135.0</ele><time>2026-05-01T08:25:02.999Z</time></trkpt><trkpt lat="42.9086012419933" lon="9.351602188054827"><ele>135.0</ele><time>2026-05-01T08:25:03.999Z</time></trkpt><trkpt lat="42.90852838053696" lon="9.351501294015037"><ele>135.0</ele><time>2026-05-01T08:25:04.999Z</time></trkpt><trkpt lat="42.90845407136402" lon="9.35140037885216"><ele>135.0</ele><time>2026-05-01T08:25:05.999Z</time></trkpt><trkpt lat="42.908389415860995" lon="9.351284900274523"><ele>135.0</ele><time>2026-05-01T08:25:06.998Z</time></trkpt><trkpt lat="42.90832030991125" lon="9.351183581723012"><ele>135.0</ele><time>2026-05-01T08:25:07.998Z</time></trkpt><trkpt lat="42.90824097777963" lon="9.351086815076497"><ele>136.2</ele><time>2026-05-01T08:25:08.998Z</time></trkpt><trkpt lat="42.90815926583047" lon="9.350990543938462"><ele>137.4</ele><time>2026-05-01T08:25:09.998Z</time></trkpt><trkpt lat="42.908091233908735" lon="9.350891326217313"><ele>138.6</ele><time>2026-05-01T08:25:10.998Z</time></trkpt><trkpt lat="42.908032505576806" lon="9.350820759596777"><ele>139.8</ele><time>2026-05-01T08:25:11.998Z</time></trkpt><trkpt lat="42.907980841752625" lon="9.350758681526646"><ele>141.0</ele><time>2026-05-01T08:25:12.999Z</time></trkpt><trkpt lat="42.90777389569452" lon="9.351011182409493"><ele>141.0</ele><time>2026-05-01T08:25:13.999Z</time></trkpt><trkpt lat="42.90769287059898" lon="9.351059304506816"><ele>141.0</ele><time>2026-05-01T08:25:14.999Z</time></trkpt><trkpt lat="42.907610748068066" lon="9.351071709643811"><ele>141.0</ele><time>2026-05-01T08:25:15.999Z</time></trkpt><trkpt lat="42.90754512216759" lon="9.351050594318059"><ele>141.0</ele><time>2026-05-01T08:25:16.999Z</time></trkpt><trkpt lat="42.90748754367553" lon="9.350987167142527"><ele>141.0</ele><time>2026-05-01T08:25:17.999Z</time></trkpt><trkpt lat="42.90745478337798" lon="9.350887445531763"><ele>141.0</ele><time>2026-05-01T08:25:18.999Z</time></trkpt><trkpt lat="42.90748342535802" lon="9.350701173605962"><ele>141.66666666666666</ele><time>2026-05-01T08:25:20.999Z</time></trkpt><trkpt lat="42.90750691363716" lon="9.350593886446523"><ele>142.33333333333334</ele><time>2026-05-01T08:25:21.999Z</time></trkpt><trkpt lat="42.90753340417326" lon="9.350487578264122"><ele>143.0</ele><time>2026-05-01T08:25:22.999Z</time></trkpt><trkpt lat="42.90754874417406" lon="9.350382258534957"><ele>143.66666666666669</ele><time>2026-05-01T08:25:23.999Z</time></trkpt><trkpt lat="42.90757164048741" lon="9.35026931549827"><ele>144.33333333333334</ele><time>2026-05-01T08:25:24.999Z</time></trkpt><trkpt lat="42.90759018076045" lon="9.350164337467769"><ele>145.0</ele><time>2026-05-01T08:25:25.999Z</time></trkpt><trkpt lat="42.90759195041982" lon="9.350052208513162"><ele>145.0</ele><time>2026-05-01T08:25:26.999Z</time></trkpt><trkpt lat="42.90756432361712" lon="9.349952501106307"><ele>145.0</ele><time>2026-05-01T08:25:27.999Z</time></trkpt><trkpt lat="42.90751318240748" lon="9.349860313240429"><ele>145.0</ele><time>2026-05-01T08:25:28.999Z</time></trkpt><trkpt lat="42.907445439210626" lon="9.349781238886159"><ele>145.0</ele><time>2026-05-01T08:25:29.999Z</time></trkpt><trkpt lat="42.90736660588707" lon="9.349727540488548"><ele>145.0</ele><time>2026-05-01T08:25:30.999Z</time></trkpt><trkpt lat="42.907285396395004" lon="9.349667658616907"><ele>145.0</ele><time>2026-05-01T08:25:31.999Z</time></trkpt><trkpt lat="42.907223110140016" lon="9.349562953062737"><ele>142.8</ele><time>2026-05-01T08:25:32.999Z</time></trkpt><trkpt lat="42.90718492568202" lon="9.349444220585386"><ele>140.6</ele><time>2026-05-01T08:25:33.999Z</time></trkpt><trkpt lat="42.90715519248807" lon="9.3493214680126"><ele>138.4</ele><time>2026-05-01T08:25:34.999Z</time></trkpt><trkpt lat="42.907135455575634" lon="9.349198449588638"><ele>136.2</ele><time>2026-05-01T08:25:35.999Z</time></trkpt><trkpt lat="42.907093323919035" lon="9.349074944138918"><ele>134.0</ele><time>2026-05-01T08:25:37Z</time></trkpt><trkpt lat="42.90702198089135" lon="9.348968307803469"><ele>134.8</ele><time>2026-05-01T08:25:38Z</time></trkpt><trkpt lat="42.9069373838476" lon="9.348875975454785"><ele>135.60000000000002</ele><time>2026-05-01T08:25:38.999Z</time></trkpt><trkpt lat="42.90684115246059" lon="9.348812576373783"><ele>136.4</ele><time>2026-05-01T08:25:39.999Z</time></trkpt><trkpt lat="42.90673103926535" lon="9.348803334310732"><ele>137.20000000000002</ele><time>2026-05-01T08:25:40.999Z</time></trkpt><trkpt lat="42.90662406463253" lon="9.348831879776716"><ele>138.0</ele><time>2026-05-01T08:25:41.999Z</time></trkpt><trkpt lat="42.90652057000206" lon="9.34888745876896"><ele>140.33333333333334</ele><time>2026-05-01T08:25:42.999Z</time></trkpt><trkpt lat="42.90641415713788" lon="9.348936545099816"><ele>142.66666666666666</ele><time>2026-05-01T08:25:43.999Z</time></trkpt><trkpt lat="42.90632968769806" lon="9.348954920564841"><ele>145.0</ele><time>2026-05-01T08:25:44.999Z</time></trkpt><trkpt lat="42.90623595813562" lon="9.348975636216158"><ele>147.33333333333331</ele><time>2026-05-01T08:25:45.999Z</time></trkpt><trkpt lat="42.90615985748839" lon="9.349000060907874"><ele>149.66666666666666</ele><time>2026-05-01T08:25:46.999Z</time></trkpt><trkpt lat="42.90608444301666" lon="9.34900097218021"><ele>152.0</ele><time>2026-05-01T08:25:47.999Z</time></trkpt><trkpt lat="42.905999234498" lon="9.349003143788096"><ele>153.16666666666666</ele><time>2026-05-01T08:25:48.999Z</time></trkpt><trkpt lat="42.9059040173844" lon="9.348981441073185"><ele>154.33333333333331</ele><time>2026-05-01T08:25:49.999Z</time></trkpt><trkpt lat="42.90581139172885" lon="9.348951957100066"><ele>155.5</ele><time>2026-05-01T08:25:50.999Z</time></trkpt><trkpt lat="42.90574524193235" lon="9.348876583822971"><ele>156.66666666666666</ele><time>2026-05-01T08:25:51.999Z</time></trkpt><trkpt lat="42.90569682184256" lon="9.348788798332592"><ele>157.83333333333334</ele><time>2026-05-01T08:25:52.999Z</time></trkpt><trkpt lat="42.90568478802796" lon="9.34867819868214"><ele>159.0</ele><time>2026-05-01T08:25:53.999Z</time></trkpt><trkpt lat="42.90569243529669" lon="9.348569824445814"><ele>159.0</ele><time>2026-05-01T08:25:54.999Z</time></trkpt><trkpt lat="42.905713305055876" lon="9.348466439174981"><ele>159.0</ele><time>2026-05-01T08:25:55.999Z</time></trkpt><trkpt lat="42.905771016899756" lon="9.348378034325098"><ele>159.0</ele><time>2026-05-01T08:25:56.999Z</time></trkpt><trkpt lat="42.90585935807461" lon="9.34831893564287"><ele>159.0</ele><time>2026-05-01T08:25:57.999Z</time></trkpt><trkpt lat="42.90593727595537" lon="9.348276178449376"><ele>159.0</ele><time>2026-05-01T08:25:58.999Z</time></trkpt><trkpt lat="42.90601935626096" lon="9.34823479766797"><ele>159.0</ele><time>2026-05-01T08:25:59.999Z</time></trkpt><trkpt lat="42.90610375834946" lon="9.348181412275032"><ele>155.2</ele><time>2026-05-01T08:26:00.999Z</time></trkpt><trkpt lat="42.90618875217848" lon="9.348121296361876"><ele>151.4</ele><time>2026-05-01T08:26:01.999Z</time></trkpt><trkpt lat="42.906270590057105" lon="9.348055457949657"><ele>147.6</ele><time>2026-05-01T08:26:02.999Z</time></trkpt><trkpt lat="42.90634593766688" lon="9.34797169604906"><ele>143.8</ele><time>2026-05-01T08:26:03.999Z</time></trkpt><trkpt lat="42.90641309563337" lon="9.347877652518015"><ele>140.0</ele><time>2026-05-01T08:26:04.999Z</time></trkpt><trkpt lat="42.90646794242446" lon="9.347771045164247"><ele>140.0</ele><time>2026-05-01T08:26:05.999Z</time></trkpt><trkpt lat="42.906505897562695" lon="9.347640156780319"><ele>140.0</ele><time>2026-05-01T08:26:06.999Z</time></trkpt><trkpt lat="42.90653316958489" lon="9.347427519600915"><ele>140.0</ele><time>2026-05-01T08:26:07.999Z</time></trkpt><trkpt lat="42.90657987807339" lon="9.347190246828058"><ele>140.0</ele><time>2026-05-01T08:26:08.999Z</time></trkpt><trkpt lat="42.906638490980846" lon="9.34690820406526"><ele>143.66666666666666</ele><time>2026-05-01T08:26:09.999Z</time></trkpt><trkpt lat="42.90669832377811" lon="9.346672804969408"><ele>147.33333333333334</ele><time>2026-05-01T08:26:10.999Z</time></trkpt><trkpt lat="42.90677898338262" lon="9.346455400478153"><ele>151.0</ele><time>2026-05-01T08:26:11.999Z</time></trkpt><trkpt lat="42.90687754707582" lon="9.346272897426486"><ele>142.66666666666669</ele><time>2026-05-01T08:26:12.999Z</time></trkpt><trkpt lat="42.906958654017615" lon="9.346080639536572"><ele>134.33333333333334</ele><time>2026-05-01T08:26:13.999Z</time></trkpt><trkpt lat="42.90702302640971" lon="9.345868503288653"><ele>126.0</ele><time>2026-05-01T08:26:14.999Z</time></trkpt><trkpt lat="42.90705734825107" lon="9.345640162326449"><ele>129.5</ele><time>2026-05-01T08:26:15.999Z</time></trkpt><trkpt lat="42.90710709631118" lon="9.345442567536272"><ele>133.0</ele><time>2026-05-01T08:26:16.999Z</time></trkpt><trkpt lat="42.90717790635211" lon="9.345267619877443"><ele>136.5</ele><time>2026-05-01T08:26:17.999Z</time></trkpt><trkpt lat="42.90726137128062" lon="9.34511334220514"><ele>140.0</ele><time>2026-05-01T08:26:18.999Z</time></trkpt><trkpt lat="42.90736206399156" lon="9.344964561307659"><ele>140.0</ele><time>2026-05-01T08:26:19.999Z</time></trkpt><trkpt lat="42.907463523846864" lon="9.344816833228622"><ele>140.0</ele><time>2026-05-01T08:26:20.999Z</time></trkpt><trkpt lat="42.907555433351256" lon="9.344676877794807"><ele>140.0</ele><time>2026-05-01T08:26:21.999Z</time></trkpt><trkpt lat="42.907626617007146" lon="9.344550292634446"><ele>140.0</ele><time>2026-05-01T08:26:22.999Z</time></trkpt><trkpt lat="42.90769845361134" lon="9.344415006836615"><ele>133.25</ele><time>2026-05-01T08:26:23.999Z</time></trkpt><trkpt lat="42.90774942303614" lon="9.344243409519551"><ele>126.5</ele><time>2026-05-01T08:26:24.999Z</time></trkpt><trkpt lat="42.90777905301991" lon="9.34404935709334"><ele>119.75</ele><time>2026-05-01T08:26:25.999Z</time></trkpt><trkpt lat="42.90777863686123" lon="9.3438443736961"><ele>113.0</ele><time>2026-05-01T08:26:26.999Z</time></trkpt><trkpt lat="42.907757305975124" lon="9.343659668874693"><ele>112.25</ele><time>2026-05-01T08:26:27.999Z</time></trkpt><trkpt lat="42.907693507379676" lon="9.343506590804594"><ele>111.5</ele><time>2026-05-01T08:26:28.999Z</time></trkpt><trkpt lat="42.90757746164506" lon="9.343398872038836"><ele>110.75</ele><time>2026-05-01T08:26:29.999Z</time></trkpt><trkpt lat="42.907442180440945" lon="9.343333559110365"><ele>110.0</ele><time>2026-05-01T08:26:30.999Z</time></trkpt><trkpt lat="42.907287902431385" lon="9.343313882211904"><ele>119.0</ele><time>2026-05-01T08:26:31.999Z</time></trkpt><trkpt lat="42.90712580014676" lon="9.343299953075576"><ele>128.0</ele><time>2026-05-01T08:26:32.999Z</time></trkpt><trkpt lat="42.90696765667361" lon="9.343260171733125"><ele>137.0</ele><time>2026-05-01T08:26:33.999Z</time></trkpt><trkpt lat="42.906811448542676" lon="9.343192763707133"><ele>141.66666666666666</ele><time>2026-05-01T08:26:34.999Z</time></trkpt><trkpt lat="42.90665231849701" lon="9.343178442097049"><ele>146.33333333333334</ele><time>2026-05-01T08:26:35.999Z</time></trkpt><trkpt lat="42.90649421987377" lon="9.343170772088051"><ele>151.0</ele><time>2026-05-01T08:26:36.999Z</time></trkpt><trkpt lat="42.90634658700778" lon="9.343162366559367"><ele>151.0</ele><time>2026-05-01T08:26:37.999Z</time></trkpt><trkpt lat="42.906217102315075" lon="9.343143917980514"><ele>151.0</ele><time>2026-05-01T08:26:38.999Z</time></trkpt><trkpt lat="42.90610926180416" lon="9.343084938807317"><ele>151.0</ele><time>2026-05-01T08:26:39.999Z</time></trkpt><trkpt lat="42.90602184764518" lon="9.342994267527798"><ele>151.0</ele><time>2026-05-01T08:26:40.999Z</time></trkpt><trkpt lat="42.906010452804566" lon="9.342824973227632"><ele>145.0</ele><time>2026-05-01T08:26:41.999Z</time></trkpt><trkpt lat="42.90598960697691" lon="9.34267415519304"><ele>139.0</ele><time>2026-05-01T08:26:42.999Z</time></trkpt><trkpt lat="42.90600552808317" lon="9.342499863258944"><ele>133.0</ele><time>2026-05-01T08:26:43.999Z</time></trkpt><trkpt lat="42.9060250124676" lon="9.34232119928108"><ele>127.0</ele><time>2026-05-01T08:26:44.999Z</time></trkpt><trkpt lat="42.90604239417351" lon="9.342132490624769"><ele>128.0</ele><time>2026-05-01T08:26:45.999Z</time></trkpt><trkpt lat="42.90606075051177" lon="9.341944478907786"><ele>129.0</ele><time>2026-05-01T08:26:46.999Z</time></trkpt><trkpt lat="42.906078079678686" lon="9.341752327195426"><ele>130.0</ele><time>2026-05-01T08:26:47.999Z</time></trkpt><trkpt lat="42.90611633924962" lon="9.34154939451117"><ele>131.0</ele><time>2026-05-01T08:26:48.999Z</time></trkpt><trkpt lat="42.90616769529305" lon="9.341354738552564"><ele>131.0</ele><time>2026-05-01T08:26:49.999Z</time></trkpt><trkpt lat="42.90622608741101" lon="9.341166258082353"><ele>131.0</ele><time>2026-05-01T08:26:50.999Z</time></trkpt><trkpt lat="42.9062829031066" lon="9.34097850016082"><ele>131.0</ele><time>2026-05-01T08:26:51.999Z</time></trkpt><trkpt lat="42.906336947476504" lon="9.340780421551738"><ele>131.0</ele><time>2026-05-01T08:26:52.999Z</time></trkpt><trkpt lat="42.90639509026967" lon="9.340592295027955"><ele>131.0</ele><time>2026-05-01T08:26:53.999Z</time></trkpt><trkpt lat="42.90645171680402" lon="9.34041651364551"><ele>131.0</ele><time>2026-05-01T08:26:54.999Z</time></trkpt><trkpt lat="42.906496896403475" lon="9.34024735518456"><ele>131.0</ele><time>2026-05-01T08:26:55.999Z</time></trkpt><trkpt lat="42.9065069474955" lon="9.340094278613162"><ele>129.0</ele><time>2026-05-01T08:26:56.999Z</time></trkpt><trkpt lat="42.90645374701003" lon="9.33997268430393"><ele>127.0</ele><time>2026-05-01T08:26:57.999Z</time></trkpt><trkpt lat="42.9063516660947" lon="9.3398913421584"><ele>125.0</ele><time>2026-05-01T08:26:58.999Z</time></trkpt><trkpt lat="42.90623071453565" lon="9.33986104395722"><ele>123.0</ele><time>2026-05-01T08:26:59.999Z</time></trkpt><trkpt lat="42.906102374471324" lon="9.339883680924222"><ele>123.0</ele><time>2026-05-01T08:27:00.999Z</time></trkpt><trkpt lat="42.90598106462535" lon="9.339869433131454"><ele>123.0</ele><time>2026-05-01T08:27:01.999Z</time></trkpt><trkpt lat="42.90588176943605" lon="9.339752072594578"><ele>123.0</ele><time>2026-05-01T08:27:02.999Z</time></trkpt><trkpt lat="42.90578255740899" lon="9.339634020976746"><ele>123.0</ele><time>2026-05-01T08:27:03.999Z</time></trkpt><trkpt lat="42.905665456468846" lon="9.339561194660172"><ele>120.75</ele><time>2026-05-01T08:27:04.999Z</time></trkpt><trkpt lat="42.905541143542294" lon="9.339546527742364"><ele>118.5</ele><time>2026-05-01T08:27:05.999Z</time></trkpt><trkpt lat="42.90540533169552" lon="9.339563466886887"><ele>116.25</ele><time>2026-05-01T08:27:06.999Z</time></trkpt><trkpt lat="42.905278834228035" lon="9.339606798101661"><ele>114.0</ele><time>2026-05-01T08:27:07.999Z</time></trkpt><trkpt lat="42.905163138019184" lon="9.339559676877657"><ele>119.25</ele><time>2026-05-01T08:27:08.999Z</time></trkpt><trkpt lat="42.90507138744544" lon="9.339424228480887"><ele>124.5</ele><time>2026-05-01T08:27:09.999Z</time></trkpt><trkpt lat="42.904949649688845" lon="9.339324963669432"><ele>129.75</ele><time>2026-05-01T08:27:10.999Z</time></trkpt><trkpt lat="42.904841515271144" lon="9.339202537323267"><ele>135.0</ele><time>2026-05-01T08:27:11.999Z</time></trkpt><trkpt lat="42.90472761743014" lon="9.33910201606689"><ele>135.0</ele><time>2026-05-01T08:27:12.999Z</time></trkpt><trkpt lat="42.904600596097424" lon="9.339048319830871"><ele>135.0</ele><time>2026-05-01T08:27:13.999Z</time></trkpt><trkpt lat="42.90447115015984" lon="9.339073009223597"><ele>135.0</ele><time>2026-05-01T08:27:14.999Z</time></trkpt><trkpt lat="42.90439193157669" lon="9.339160078260209"><ele>135.0</ele><time>2026-05-01T08:27:15.999Z</time></trkpt><trkpt lat="42.90425528467103" lon="9.339299569219131"><ele>136.5</ele><time>2026-05-01T08:27:16.999Z</time></trkpt><trkpt lat="42.904161978875784" lon="9.339437705696714"><ele>138.0</ele><time>2026-05-01T08:27:17.999Z</time></trkpt><trkpt lat="42.90407473258863" lon="9.339550996171187"><ele>139.5</ele><time>2026-05-01T08:27:19Z</time></trkpt><trkpt lat="42.90396763581133" lon="9.339603847047444"><ele>141.0</ele><time>2026-05-01T08:27:20Z</time></trkpt><trkpt lat="42.90384950693778" lon="9.339599062764568"><ele>141.0</ele><time>2026-05-01T08:27:21Z</time></trkpt><trkpt lat="42.90375271956294" lon="9.339541638339433"><ele>141.0</ele><time>2026-05-01T08:27:22Z</time></trkpt><trkpt lat="42.90368726815751" lon="9.339469931765002"><ele>141.0</ele><time>2026-05-01T08:27:23Z</time></trkpt><trkpt lat="42.903700220661726" lon="9.339327487351127"><ele>141.0</ele><time>2026-05-01T08:27:24Z</time></trkpt><trkpt lat="42.90379955083437" lon="9.339215391737042"><ele>141.0</ele><time>2026-05-01T08:27:25Z</time></trkpt><trkpt lat="42.90386030423142" lon="9.339067693743429"><ele>141.0</ele><time>2026-05-01T08:27:26Z</time></trkpt><trkpt lat="42.90392402378223" lon="9.338917153483106"><ele>141.0</ele><time>2026-05-01T08:27:27Z</time></trkpt><trkpt lat="42.903943880794536" lon="9.338726165324376"><ele>141.0</ele><time>2026-05-01T08:27:28Z</time></trkpt><trkpt lat="42.90394929996098" lon="9.33853246313768"><ele>141.0</ele><time>2026-05-01T08:27:29Z</time></trkpt><trkpt lat="42.90398120121495" lon="9.338344280274988"><ele>139.0</ele><time>2026-05-01T08:27:30Z</time></trkpt><trkpt lat="42.904015564798264" lon="9.338142518481629"><ele>137.0</ele><time>2026-05-01T08:27:31Z</time></trkpt><trkpt lat="42.904057511955145" lon="9.337978564176554"><ele>135.0</ele><time>2026-05-01T08:27:32Z</time></trkpt><trkpt lat="42.904047293281295" lon="9.33781467506497"><ele>133.0</ele><time>2026-05-01T08:27:33Z</time></trkpt><trkpt lat="42.90395920390969" lon="9.337678530216774"><ele>132.5</ele><time>2026-05-01T08:27:34Z</time></trkpt><trkpt lat="42.9038215794956" lon="9.337583235189893"><ele>132.0</ele><time>2026-05-01T08:27:35Z</time></trkpt><trkpt lat="42.903694711169486" lon="9.337476144407537"><ele>131.5</ele><time>2026-05-01T08:27:36Z</time></trkpt><trkpt lat="42.90359619947634" lon="9.337347375858236"><ele>131.0</ele><time>2026-05-01T08:27:37Z</time></trkpt><trkpt lat="42.9035489216775" lon="9.337189308807158"><ele>129.5</ele><time>2026-05-01T08:27:38Z</time></trkpt><trkpt lat="42.903569980219594" lon="9.337023692053654"><ele>128.0</ele><time>2026-05-01T08:27:39Z</time></trkpt><trkpt lat="42.903653851206734" lon="9.336890722355168"><ele>126.5</ele><time>2026-05-01T08:27:40Z</time></trkpt><trkpt lat="42.90377806207481" lon="9.33681244575388"><ele>125.0</ele><time>2026-05-01T08:27:41Z</time></trkpt><trkpt lat="42.90389448246383" lon="9.336741774581915"><ele>125.0</ele><time>2026-05-01T08:27:42Z</time></trkpt><trkpt lat="42.90396186509812" lon="9.336630910202938"><ele>125.0</ele><time>2026-05-01T08:27:43Z</time></trkpt><trkpt lat="42.903942412448856" lon="9.336471982267868"><ele>125.0</ele><time>2026-05-01T08:27:44Z</time></trkpt><trkpt lat="42.90386886671733" lon="9.336315318893687"><ele>125.0</ele><time>2026-05-01T08:27:45Z</time></trkpt><trkpt lat="42.90375489227323" lon="9.336184294195155"><ele>122.75</ele><time>2026-05-01T08:27:46Z</time></trkpt><trkpt lat="42.90362998293556" lon="9.336070851075611"><ele>120.5</ele><time>2026-05-01T08:27:47Z</time></trkpt><trkpt lat="42.90352305799349" lon="9.335942258045714"><ele>118.25</ele><time>2026-05-01T08:27:48Z</time></trkpt><trkpt lat="42.903435385400236" lon="9.335807450154151"><ele>116.0</ele><time>2026-05-01T08:27:49Z</time></trkpt><trkpt lat="42.903371916396075" lon="9.335667664653974"><ele>114.0</ele><time>2026-05-01T08:27:50Z</time></trkpt><trkpt lat="42.903374801102444" lon="9.335526078984413"><ele>112.0</ele><time>2026-05-01T08:27:51Z</time></trkpt><trkpt lat="42.903437015474864" lon="9.335383130400283"><ele>110.0</ele><time>2026-05-01T08:27:52Z</time></trkpt><trkpt lat="42.90349939253449" lon="9.335256211686497"><ele>108.0</ele><time>2026-05-01T08:27:53Z</time></trkpt><trkpt lat="42.90353253597859" lon="9.33513035509333"><ele>106.0</ele><time>2026-05-01T08:27:54Z</time></trkpt><trkpt lat="42.90354381958165" lon="9.335010826604517"><ele>106.00000000000001</ele><time>2026-05-01T08:27:55Z</time></trkpt><trkpt lat="42.90355126207723" lon="9.334887036525478"><ele>106.0</ele><time>2026-05-01T08:27:56Z</time></trkpt><trkpt lat="42.90355834326249" lon="9.334766343237803"><ele>106.0</ele><time>2026-05-01T08:27:57Z</time></trkpt><trkpt lat="42.90355581791364" lon="9.334645760463603"><ele>106.0</ele><time>2026-05-01T08:27:58Z</time></trkpt><trkpt lat="42.90353047834538" lon="9.334545545650801"><ele>106.00000000000001</ele><time>2026-05-01T08:27:59Z</time></trkpt><trkpt lat="42.90348809055315" lon="9.33445637447887"><ele>106.0</ele><time>2026-05-01T08:28:00Z</time></trkpt><trkpt lat="42.90342826405" lon="9.334359612015156"><ele>112.0</ele><time>2026-05-01T08:28:01Z</time></trkpt><trkpt lat="42.903394325889984" lon="9.334254624411882"><ele>118.0</ele><time>2026-05-01T08:28:02Z</time></trkpt><trkpt lat="42.90336834384306" lon="9.33413535375019"><ele>124.0</ele><time>2026-05-01T08:28:03Z</time></trkpt><trkpt lat="42.903357063174276" lon="9.334004272956719"><ele>130.0</ele><time>2026-05-01T08:28:04Z</time></trkpt><trkpt lat="42.90334670042109" lon="9.333875047687696"><ele>136.0</ele><time>2026-05-01T08:28:05Z</time></trkpt><trkpt lat="42.90333552637513" lon="9.333735389464714"><ele>136.0</ele><time>2026-05-01T08:28:06Z</time></trkpt><trkpt lat="42.90332570707469" lon="9.333594010101738"><ele>136.0</ele><time>2026-05-01T08:28:07Z</time></trkpt><trkpt lat="42.90331549756366" lon="9.333445039042617"><ele>136.0</ele><time>2026-05-01T08:28:08Z</time></trkpt><trkpt lat="42.90329770748224" lon="9.33328943296721"><ele>136.0</ele><time>2026-05-01T08:28:09Z</time></trkpt><trkpt lat="42.90325343478026" lon="9.333105657334185"><ele>131.0</ele><time>2026-05-01T08:28:09.999Z</time></trkpt><trkpt lat="42.90318489318464" lon="9.33289544275667"><ele>126.0</ele><time>2026-05-01T08:28:10.999Z</time></trkpt><trkpt lat="42.903110544862926" lon="9.332673730906093"><ele>121.0</ele><time>2026-05-01T08:28:11.999Z</time></trkpt><trkpt lat="42.903056869693415" lon="9.332428945791584"><ele>113.0</ele><time>2026-05-01T08:28:12.999Z</time></trkpt><trkpt lat="42.90300049764923" lon="9.332179296101094"><ele>105.0</ele><time>2026-05-01T08:28:13.999Z</time></trkpt><trkpt lat="42.90293870162965" lon="9.331958050779354"><ele>97.0</ele><time>2026-05-01T08:28:14.999Z</time></trkpt><trkpt lat="42.9028638845477" lon="9.331757522913444"><ele>97.0</ele><time>2026-05-01T08:28:15.999Z</time></trkpt><trkpt lat="42.90275973350989" lon="9.331594571600377"><ele>97.0</ele><time>2026-05-01T08:28:16.999Z</time></trkpt><trkpt lat="42.90264366254453" lon="9.331442615284374"><ele>97.0</ele><time>2026-05-01T08:28:17.999Z</time></trkpt><trkpt lat="42.902538523704216" lon="9.331274765624949"><ele>105.33333333333334</ele><time>2026-05-01T08:28:18.999Z</time></trkpt><trkpt lat="42.90243667770694" lon="9.33109645008253"><ele>113.66666666666666</ele><time>2026-05-01T08:28:19.999Z</time></trkpt><trkpt lat="42.9023312244956" lon="9.330926475646034"><ele>122.0</ele><time>2026-05-01T08:28:20.999Z</time></trkpt><trkpt lat="42.90222291740063" lon="9.330755270203307"><ele>122.0</ele><time>2026-05-01T08:28:21.999Z</time></trkpt><trkpt lat="42.90210451495748" lon="9.33059059987619"><ele>122.0</ele><time>2026-05-01T08:28:22.999Z</time></trkpt><trkpt lat="42.901986202368505" lon="9.330433077765996"><ele>122.0</ele><time>2026-05-01T08:28:23.999Z</time></trkpt><trkpt lat="42.90186344427112" lon="9.330281228099516"><ele>126.0</ele><time>2026-05-01T08:28:24.999Z</time></trkpt><trkpt lat="42.90174094766358" lon="9.330127073683041"><ele>130.0</ele><time>2026-05-01T08:28:25.999Z</time></trkpt><trkpt lat="42.901620906992136" lon="9.329976956628052"><ele>134.0</ele><time>2026-05-01T08:28:26.999Z</time></trkpt><trkpt lat="42.901505317919764" lon="9.329833529607393"><ele>122.66666666666666</ele><time>2026-05-01T08:28:27.999Z</time></trkpt><trkpt lat="42.901383468870264" lon="9.329711818735733"><ele>111.33333333333334</ele><time>2026-05-01T08:28:28.999Z</time></trkpt><trkpt lat="42.901247106942016" lon="9.329618380120731"><ele>100.0</ele><time>2026-05-01T08:28:29.999Z</time></trkpt><trkpt lat="42.901101023805694" lon="9.329563474622892"><ele>100.0</ele><time>2026-05-01T08:28:30.999Z</time></trkpt><trkpt lat="42.90095039452082" lon="9.329504031602296"><ele>100.0</ele><time>2026-05-01T08:28:31.999Z</time></trkpt><trkpt lat="42.900790943769415" lon="9.329489568499172"><ele>100.0</ele><time>2026-05-01T08:28:32.999Z</time></trkpt><trkpt lat="42.90063299020552" lon="9.329495478726557"><ele>104.0</ele><time>2026-05-01T08:28:33.999Z</time></trkpt><trkpt lat="42.90048999090404" lon="9.32950360930303"><ele>108.0</ele><time>2026-05-01T08:28:34.999Z</time></trkpt><trkpt lat="42.90036579884548" lon="9.32951570423747"><ele>112.0</ele><time>2026-05-01T08:28:35.999Z</time></trkpt><trkpt lat="42.90024355594594" lon="9.329603007800364"><ele>116.0</ele><time>2026-05-01T08:28:36.999Z</time></trkpt><trkpt lat="42.9001770668709" lon="9.32976861459987"><ele>121.5</ele><time>2026-05-01T08:28:37.999Z</time></trkpt><trkpt lat="42.90009992747511" lon="9.329904955290617"><ele>127.0</ele><time>2026-05-01T08:28:38.999Z</time></trkpt><trkpt lat="42.90000383786965" lon="9.330002947295007"><ele>132.5</ele><time>2026-05-01T08:28:39.999Z</time></trkpt><trkpt lat="42.89987851692443" lon="9.330016973076244"><ele>138.0</ele><time>2026-05-01T08:28:40.999Z</time></trkpt><trkpt lat="42.8997513085962" lon="9.329950359184316"><ele>138.0</ele><time>2026-05-01T08:28:41.999Z</time></trkpt><trkpt lat="42.899603670566535" lon="9.329902117344373"><ele>138.0</ele><time>2026-05-01T08:28:42.999Z</time></trkpt><trkpt lat="42.899460688172056" lon="9.329981069147909"><ele>138.0</ele><time>2026-05-01T08:28:43.999Z</time></trkpt><trkpt lat="42.89932428278348" lon="9.3300391369672"><ele>138.0</ele><time>2026-05-01T08:28:44.999Z</time></trkpt><trkpt lat="42.89920806971165" lon="9.330054629837296"><ele>138.5</ele><time>2026-05-01T08:28:45.999Z</time></trkpt><trkpt lat="42.89910673421764" lon="9.330026278065676"><ele>139.0</ele><time>2026-05-01T08:28:46.999Z</time></trkpt><trkpt lat="42.89902252309264" lon="9.329957732528625"><ele>139.5</ele><time>2026-05-01T08:28:47.999Z</time></trkpt><trkpt lat="42.89902280627774" lon="9.329788567640554"><ele>140.0</ele><time>2026-05-01T08:28:48.999Z</time></trkpt><trkpt lat="42.89902845527043" lon="9.329613055912457"><ele>136.75</ele><time>2026-05-01T08:28:49.999Z</time></trkpt><trkpt lat="42.899004455729816" lon="9.329428099832889"><ele>133.5</ele><time>2026-05-01T08:28:50.999Z</time></trkpt><trkpt lat="42.89895297395768" lon="9.329226807840326"><ele>130.25</ele><time>2026-05-01T08:28:51.999Z</time></trkpt><trkpt lat="42.8989213309282" lon="9.329019673515928"><ele>127.0</ele><time>2026-05-01T08:28:52.999Z</time></trkpt><trkpt lat="42.89889483503271" lon="9.328799575740215"><ele>123.66666666666667</ele><time>2026-05-01T08:28:53.999Z</time></trkpt><trkpt lat="42.89885709166873" lon="9.328574170612276"><ele>120.33333333333334</ele><time>2026-05-01T08:28:54.999Z</time></trkpt><trkpt lat="42.89881596367265" lon="9.328371146781041"><ele>117.0</ele><time>2026-05-01T08:28:55.999Z</time></trkpt><trkpt lat="42.898796294894936" lon="9.32812941893719"><ele>113.33333333333334</ele><time>2026-05-01T08:28:56.999Z</time></trkpt><trkpt lat="42.8987599370527" lon="9.327914603772534"><ele>109.66666666666667</ele><time>2026-05-01T08:28:57.999Z</time></trkpt><trkpt lat="42.898713109683136" lon="9.327702925057269"><ele>106.0</ele><time>2026-05-01T08:28:58.999Z</time></trkpt><trkpt lat="42.89863548814493" lon="9.327519889362472"><ele>106.0</ele><time>2026-05-01T08:28:59.999Z</time></trkpt><trkpt lat="42.898549136693084" lon="9.327343050708988"><ele>106.0</ele><time>2026-05-01T08:29:00.999Z</time></trkpt><trkpt lat="42.89851263169829" lon="9.327163770165836"><ele>106.0</ele><time>2026-05-01T08:29:01.999Z</time></trkpt><trkpt lat="42.89856673327272" lon="9.326957237809475"><ele>103.66666666666667</ele><time>2026-05-01T08:29:02.999Z</time></trkpt><trkpt lat="42.89858760732492" lon="9.326730872760512"><ele>101.33333333333334</ele><time>2026-05-01T08:29:03.999Z</time></trkpt><trkpt lat="42.89862450401786" lon="9.326527500870062"><ele>99.0</ele><time>2026-05-01T08:29:04.999Z</time></trkpt><trkpt lat="42.898652574871576" lon="9.326318179604671"><ele>99.0</ele><time>2026-05-01T08:29:05.999Z</time></trkpt><trkpt lat="42.89863773575015" lon="9.326114530490083"><ele>99.0</ele><time>2026-05-01T08:29:06.999Z</time></trkpt><trkpt lat="42.89859541015075" lon="9.325909734850303"><ele>99.0</ele><time>2026-05-01T08:29:07.999Z</time></trkpt><trkpt lat="42.898617711740606" lon="9.32570183289582"><ele>98.66666666666666</ele><time>2026-05-01T08:29:08.999Z</time></trkpt><trkpt lat="42.8986548021601" lon="9.32549589889101"><ele>98.33333333333333</ele><time>2026-05-01T08:29:09.999Z</time></trkpt><trkpt lat="42.89866674013086" lon="9.325277524475284"><ele>98.0</ele><time>2026-05-01T08:29:10.999Z</time></trkpt><trkpt lat="42.89865131910346" lon="9.325065188161156"><ele>98.0</ele><time>2026-05-01T08:29:11.999Z</time></trkpt><trkpt lat="42.898618335042435" lon="9.324872231200969"><ele>98.0</ele><time>2026-05-01T08:29:12.999Z</time></trkpt><trkpt lat="42.89863372332852" lon="9.324698962087675"><ele>98.0</ele><time>2026-05-01T08:29:13.999Z</time></trkpt><trkpt lat="42.898599226202656" lon="9.324568193981198"><ele>98.0</ele><time>2026-05-01T08:29:14.999Z</time></trkpt><trkpt lat="42.898538906765026" lon="9.324466749770306"><ele>99.60000000000001</ele><time>2026-05-01T08:29:15.999Z</time></trkpt><trkpt lat="42.89844767757777" lon="9.324379764533841"><ele>101.2</ele><time>2026-05-01T08:29:16.999Z</time></trkpt><trkpt lat="42.898338822943586" lon="9.324338137395303"><ele>102.8</ele><time>2026-05-01T08:29:17.999Z</time></trkpt><trkpt lat="42.89822647781102" lon="9.324314041327506"><ele>104.4</ele><time>2026-05-01T08:29:18.999Z</time></trkpt><trkpt lat="42.898119612632776" lon="9.32429069859194"><ele>106.0</ele><time>2026-05-01T08:29:19.999Z</time></trkpt><trkpt lat="42.898018622555554" lon="9.324282232312923"><ele>106.0</ele><time>2026-05-01T08:29:20.999Z</time></trkpt><trkpt lat="42.89791741309383" lon="9.324292640872324"><ele>106.0</ele><time>2026-05-01T08:29:21.999Z</time></trkpt><trkpt lat="42.89781466855929" lon="9.324333911726843"><ele>106.0</ele><time>2026-05-01T08:29:22.999Z</time></trkpt><trkpt lat="42.89771830692393" lon="9.32437429551036"><ele>106.0</ele><time>2026-05-01T08:29:23.999Z</time></trkpt><trkpt lat="42.89761544107269" lon="9.324388546504547"><ele>106.0</ele><time>2026-05-01T08:29:25Z</time></trkpt><trkpt lat="42.89752763127252" lon="9.324340637441379"><ele>110.5</ele><time>2026-05-01T08:29:26Z</time></trkpt><trkpt lat="42.897423992206676" lon="9.324276855888916"><ele>115.0</ele><time>2026-05-01T08:29:27Z</time></trkpt><trkpt lat="42.89732633520425" lon="9.32419136424733"><ele>119.5</ele><time>2026-05-01T08:29:28Z</time></trkpt><trkpt lat="42.897231991371406" lon="9.324099934958491"><ele>124.0</ele><time>2026-05-01T08:29:29Z</time></trkpt><trkpt lat="42.897139424125974" lon="9.32401757692035"><ele>124.0</ele><time>2026-05-01T08:29:30Z</time></trkpt><trkpt lat="42.89702820678811" lon="9.323963822458985"><ele>124.0</ele><time>2026-05-01T08:29:31Z</time></trkpt><trkpt lat="42.896910180668876" lon="9.32393070079445"><ele>124.0</ele><time>2026-05-01T08:29:32Z</time></trkpt><trkpt lat="42.89678748898037" lon="9.32390587717298"><ele>124.0</ele><time>2026-05-01T08:29:33Z</time></trkpt><trkpt lat="42.896658881572726" lon="9.323884653205111"><ele>114.5</ele><time>2026-05-01T08:29:34Z</time></trkpt><trkpt lat="42.89654074623676" lon="9.323837829178009"><ele>105.0</ele><time>2026-05-01T08:29:35Z</time></trkpt><trkpt lat="42.8964255004941" lon="9.323752470222628"><ele>95.5</ele><time>2026-05-01T08:29:36Z</time></trkpt><trkpt lat="42.89629054505165" lon="9.323677666790887"><ele>86.0</ele><time>2026-05-01T08:29:37Z</time></trkpt><trkpt lat="42.896151031114115" lon="9.323620971099878"><ele>86.0</ele><time>2026-05-01T08:29:38Z</time></trkpt><trkpt lat="42.89600545980755" lon="9.323578472251427"><ele>86.0</ele><time>2026-05-01T08:29:39Z</time></trkpt><trkpt lat="42.89586413612847" lon="9.323559007527868"><ele>86.0</ele><time>2026-05-01T08:29:40Z</time></trkpt><trkpt lat="42.89574522143869" lon="9.323548950060406"><ele>86.0</ele><time>2026-05-01T08:29:41Z</time></trkpt><trkpt lat="42.895646775920625" lon="9.323513461978626"><ele>91.8</ele><time>2026-05-01T08:29:42Z</time></trkpt><trkpt lat="42.895565236177475" lon="9.323446505945912"><ele>97.6</ele><time>2026-05-01T08:29:43Z</time></trkpt><trkpt lat="42.89550420838456" lon="9.323352914801626"><ele>103.4</ele><time>2026-05-01T08:29:44Z</time></trkpt><trkpt lat="42.89542967751735" lon="9.323273858390026"><ele>109.2</ele><time>2026-05-01T08:29:45Z</time></trkpt><trkpt lat="42.89535221501556" lon="9.323216284738216"><ele>115.0</ele><time>2026-05-01T08:29:46Z</time></trkpt><trkpt lat="42.89523897477317" lon="9.32319908278343"><ele>115.0</ele><time>2026-05-01T08:29:47Z</time></trkpt><trkpt lat="42.895124018958164" lon="9.32319002751119"><ele>115.0</ele><time>2026-05-01T08:29:48Z</time></trkpt><trkpt lat="42.89501046542159" lon="9.323190636687444"><ele>115.0</ele><time>2026-05-01T08:29:49Z</time></trkpt><trkpt lat="42.8948996200967" lon="9.323195260180052"><ele>115.0</ele><time>2026-05-01T08:29:50Z</time></trkpt><trkpt lat="42.894798125473386" lon="9.323165498632337"><ele>115.0</ele><time>2026-05-01T08:29:51Z</time></trkpt><trkpt lat="42.89471207346505" lon="9.323103624304304"><ele>118.83333333333334</ele><time>2026-05-01T08:29:52Z</time></trkpt><trkpt lat="42.89462524258059" lon="9.323040040343896"><ele>122.66666666666667</ele><time>2026-05-01T08:29:53Z</time></trkpt><trkpt lat="42.89455009509935" lon="9.322992705336322"><ele>126.5</ele><time>2026-05-01T08:29:54Z</time></trkpt><trkpt lat="42.894478346671875" lon="9.322965436776983"><ele>130.33333333333334</ele><time>2026-05-01T08:29:55Z</time></trkpt><trkpt lat="42.89439487783347" lon="9.322971950867453"><ele>134.16666666666666</ele><time>2026-05-01T08:29:56Z</time></trkpt><trkpt lat="42.89431933188047" lon="9.323025012363653"><ele>138.0</ele><time>2026-05-01T08:29:57Z</time></trkpt><trkpt lat="42.894265717610324" lon="9.323148404896607"><ele>136.0</ele><time>2026-05-01T08:29:58Z</time></trkpt><trkpt lat="42.89424840231733" lon="9.323286500391385"><ele>134.0</ele><time>2026-05-01T08:29:59Z</time></trkpt><trkpt lat="42.894223714183234" lon="9.323426645331153"><ele>132.0</ele><time>2026-05-01T08:30:00Z</time></trkpt><trkpt lat="42.89415722488412" lon="9.323549919320817"><ele>130.0</ele><time>2026-05-01T08:30:01Z</time></trkpt><trkpt lat="42.89404767851644" lon="9.323632761229607"><ele>128.0</ele><time>2026-05-01T08:30:02Z</time></trkpt><trkpt lat="42.8939669466393" lon="9.323779907984413"><ele>137.75</ele><time>2026-05-01T08:30:03Z</time></trkpt><trkpt lat="42.89389283315948" lon="9.323927531618581"><ele>147.5</ele><time>2026-05-01T08:30:04Z</time></trkpt><trkpt lat="42.89381370728888" lon="9.324045146395653"><ele>157.25</ele><time>2026-05-01T08:30:05Z</time></trkpt><trkpt lat="42.893721153396186" lon="9.324125624648648"><ele>167.0</ele><time>2026-05-01T08:30:06Z</time></trkpt><trkpt lat="42.89364781347297" lon="9.32421563589308"><ele>167.0</ele><time>2026-05-01T08:30:07Z</time></trkpt><trkpt lat="42.89360698422089" lon="9.324310571054129"><ele>167.0</ele><time>2026-05-01T08:30:08Z</time></trkpt><trkpt lat="42.8936054616164" lon="9.324418698000603"><ele>167.0</ele><time>2026-05-01T08:30:09Z</time></trkpt><trkpt lat="42.89365217429183" lon="9.324544227728808"><ele>167.0</ele><time>2026-05-01T08:30:10Z</time></trkpt><trkpt lat="42.89362633138906" lon="9.324675449480601"><ele>167.0</ele><time>2026-05-01T08:30:11Z</time></trkpt><trkpt lat="42.89358690105604" lon="9.32478800125607"><ele>175.25</ele><time>2026-05-01T08:30:12Z</time></trkpt><trkpt lat="42.8935047650706" lon="9.32487877161266"><ele>183.5</ele><time>2026-05-01T08:30:13Z</time></trkpt><trkpt lat="42.893431235753766" lon="9.325012056337524"><ele>191.75</ele><time>2026-05-01T08:30:14Z</time></trkpt><trkpt lat="42.89337125436686" lon="9.325160492963"><ele>200.0</ele><time>2026-05-01T08:30:15Z</time></trkpt><trkpt lat="42.89335895567005" lon="9.325329398797253"><ele>188.25</ele><time>2026-05-01T08:30:16Z</time></trkpt><trkpt lat="42.89330609736651" lon="9.325478148153609"><ele>176.5</ele><time>2026-05-01T08:30:17Z</time></trkpt><trkpt lat="42.89325553023732" lon="9.32563828301861"><ele>164.75</ele><time>2026-05-01T08:30:18Z</time></trkpt><trkpt lat="42.89322270457341" lon="9.325867632332956"><ele>153.0</ele><time>2026-05-01T08:30:19Z</time></trkpt><trkpt lat="42.89320398954292" lon="9.326156897245832"><ele>158.0</ele><time>2026-05-01T08:30:20Z</time></trkpt><trkpt lat="42.89315666879446" lon="9.326474371099838"><ele>163.0</ele><time>2026-05-01T08:30:21Z</time></trkpt><trkpt lat="42.893118842068496" lon="9.326836639228015"><ele>163.0</ele><time>2026-05-01T08:30:22Z</time></trkpt><trkpt lat="42.89309268111306" lon="9.327130913681737"><ele>163.0</ele><time>2026-05-01T08:30:23Z</time></trkpt><trkpt lat="42.89304904461052" lon="9.327329215864982"><ele>163.0</ele><time>2026-05-01T08:30:24Z</time></trkpt><trkpt lat="42.892968364443696" lon="9.327471993505725"><ele>169.0</ele><time>2026-05-01T08:30:25Z</time></trkpt><trkpt lat="42.892835650320066" lon="9.32769734980943"><ele>175.0</ele><time>2026-05-01T08:30:26Z</time></trkpt><trkpt lat="42.89269838571466" lon="9.327915185790742"><ele>181.0</ele><time>2026-05-01T08:30:27Z</time></trkpt><trkpt lat="42.89253305541268" lon="9.328015853814783"><ele>176.0</ele><time>2026-05-01T08:30:28Z</time></trkpt><trkpt lat="42.89237525246208" lon="9.328151042984127"><ele>171.0</ele><time>2026-05-01T08:30:28.999Z</time></trkpt><trkpt lat="42.892260809603904" lon="9.328322476751227"><ele>166.0</ele><time>2026-05-01T08:30:29.999Z</time></trkpt><trkpt lat="42.89215125223571" lon="9.328517678172888"><ele>166.0</ele><time>2026-05-01T08:30:30.999Z</time></trkpt><trkpt lat="42.89207081608601" lon="9.328737072341978"><ele>166.0</ele><time>2026-05-01T08:30:31.999Z</time></trkpt><trkpt lat="42.89198406506567" lon="9.328956457987534"><ele>166.0</ele><time>2026-05-01T08:30:32.999Z</time></trkpt><trkpt lat="42.891928948173685" lon="9.32919764501575"><ele>166.33333333333334</ele><time>2026-05-01T08:30:33.999Z</time></trkpt><trkpt lat="42.891893868044384" lon="9.329440184686229"><ele>166.66666666666666</ele><time>2026-05-01T08:30:34.999Z</time></trkpt><trkpt lat="42.89183772844018" lon="9.329658412360155"><ele>167.0</ele><time>2026-05-01T08:30:35.999Z</time></trkpt><trkpt lat="42.891733516913995" lon="9.329830094793863"><ele>167.0</ele><time>2026-05-01T08:30:36.999Z</time></trkpt><trkpt lat="42.89161277705184" lon="9.329976526709624"><ele>167.0</ele><time>2026-05-01T08:30:37.999Z</time></trkpt><trkpt lat="42.891530343571034" lon="9.33014877914667"><ele>167.0</ele><time>2026-05-01T08:30:38.999Z</time></trkpt><trkpt lat="42.89151557204277" lon="9.330343205912234"><ele>167.0</ele><time>2026-05-01T08:30:39.999Z</time></trkpt><trkpt lat="42.891536399385906" lon="9.330539938968855"><ele>167.0</ele><time>2026-05-01T08:30:40.999Z</time></trkpt><trkpt lat="42.89158266330207" lon="9.330732842047784"><ele>167.0</ele><time>2026-05-01T08:30:41.999Z</time></trkpt><trkpt lat="42.891569947405344" lon="9.33090166419613"><ele>167.0</ele><time>2026-05-01T08:30:42.999Z</time></trkpt><trkpt lat="42.89149030138882" lon="9.330991702663848"><ele>170.25</ele><time>2026-05-01T08:30:43.999Z</time></trkpt><trkpt lat="42.89137764750653" lon="9.331014572599672"><ele>173.5</ele><time>2026-05-01T08:30:44.999Z</time></trkpt><trkpt lat="42.89127502827496" lon="9.331119369536934"><ele>176.75</ele><time>2026-05-01T08:30:45.999Z</time></trkpt><trkpt lat="42.89121693160627" lon="9.331314172824523"><ele>180.0</ele><time>2026-05-01T08:30:46.999Z</time></trkpt><trkpt lat="42.891159902085" lon="9.331518514049263"><ele>182.25</ele><time>2026-05-01T08:30:47.999Z</time></trkpt><trkpt lat="42.89110607832188" lon="9.331703981145974"><ele>184.5</ele><time>2026-05-01T08:30:48.999Z</time></trkpt><trkpt lat="42.891140732153666" lon="9.331863685047459"><ele>186.75</ele><time>2026-05-01T08:30:49.999Z</time></trkpt><trkpt lat="42.89121438482486" lon="9.331988783465924"><ele>189.0</ele><time>2026-05-01T08:30:50.999Z</time></trkpt><trkpt lat="42.89130618462131" lon="9.332102709832354"><ele>191.25</ele><time>2026-05-01T08:30:51.999Z</time></trkpt><trkpt lat="42.89134787621365" lon="9.332232170683225"><ele>193.5</ele><time>2026-05-01T08:30:52.999Z</time></trkpt><trkpt lat="42.89127682702839" lon="9.332355973244155"><ele>195.75</ele><time>2026-05-01T08:30:53.999Z</time></trkpt><trkpt lat="42.89115921135232" lon="9.33240445358978"><ele>198.0</ele><time>2026-05-01T08:30:54.999Z</time></trkpt><trkpt lat="42.891042504943414" lon="9.332462740392597"><ele>198.0</ele><time>2026-05-01T08:30:55.999Z</time></trkpt><trkpt lat="42.89093512857537" lon="9.332553956855197"><ele>198.0</ele><time>2026-05-01T08:30:56.999Z</time></trkpt><trkpt lat="42.8908572769517" lon="9.3326751067599"><ele>198.0</ele><time>2026-05-01T08:30:57.999Z</time></trkpt><trkpt lat="42.89076599897219" lon="9.33276859224246"><ele>198.0</ele><time>2026-05-01T08:30:58.999Z</time></trkpt><trkpt lat="42.89069141322467" lon="9.332900215297109"><ele>195.75</ele><time>2026-05-01T08:30:59.999Z</time></trkpt><trkpt lat="42.89066150080669" lon="9.333067757901437"><ele>193.5</ele><time>2026-05-01T08:31:00.999Z</time></trkpt><trkpt lat="42.89065632914456" lon="9.333239496278333"><ele>191.25</ele><time>2026-05-01T08:31:01.999Z</time></trkpt><trkpt lat="42.890659344011" lon="9.333428940778143"><ele>189.0</ele><time>2026-05-01T08:31:02.999Z</time></trkpt><trkpt lat="42.89060742533832" lon="9.333610954730794"><ele>189.0</ele><time>2026-05-01T08:31:03.999Z</time></trkpt><trkpt lat="42.89055728016749" lon="9.333824027791835"><ele>189.0</ele><time>2026-05-01T08:31:04.999Z</time></trkpt><trkpt lat="42.89051622294328" lon="9.334014405421593"><ele>189.0</ele><time>2026-05-01T08:31:05.999Z</time></trkpt><trkpt lat="42.8904467152865" lon="9.334145077869001"><ele>189.0</ele><time>2026-05-01T08:31:06.999Z</time></trkpt><trkpt lat="42.89036180036427" lon="9.334198933487007"><ele>189.0</ele><time>2026-05-01T08:31:07.999Z</time></trkpt><trkpt lat="42.89027141648812" lon="9.334179073548365"><ele>189.0</ele><time>2026-05-01T08:31:08.999Z</time></trkpt><trkpt lat="42.89016925577023" lon="9.33409257700798"><ele>189.0</ele><time>2026-05-01T08:31:09.999Z</time></trkpt><trkpt lat="42.89003671836098" lon="9.334048662283177"><ele>189.0</ele><time>2026-05-01T08:31:10.999Z</time></trkpt><trkpt lat="42.88990276398287" lon="9.334047315931837"><ele>189.0</ele><time>2026-05-01T08:31:11.999Z</time></trkpt><trkpt lat="42.889772658415794" lon="9.33408103782649"><ele>189.0</ele><time>2026-05-01T08:31:12.999Z</time></trkpt><trkpt lat="42.88965878748317" lon="9.334144961387466"><ele>189.0</ele><time>2026-05-01T08:31:13.999Z</time></trkpt><trkpt lat="42.88953716212964" lon="9.334226505788724"><ele>189.0</ele><time>2026-05-01T08:31:14.999Z</time></trkpt><trkpt lat="42.88941308548285" lon="9.334331816885513"><ele>189.0</ele><time>2026-05-01T08:31:15.999Z</time></trkpt><trkpt lat="42.88929389335234" lon="9.334409026006828"><ele>189.0</ele><time>2026-05-01T08:31:16.999Z</time></trkpt><trkpt lat="42.88918125690288" lon="9.334499442847218"><ele>189.0</ele><time>2026-05-01T08:31:17.999Z</time></trkpt><trkpt lat="42.88905022632872" lon="9.334551611784466"><ele>189.0</ele><time>2026-05-01T08:31:18.999Z</time></trkpt><trkpt lat="42.888928246673345" lon="9.334607194287416"><ele>188.25</ele><time>2026-05-01T08:31:19.999Z</time></trkpt><trkpt lat="42.88881895294844" lon="9.334657855764055"><ele>187.5</ele><time>2026-05-01T08:31:20.999Z</time></trkpt><trkpt lat="42.88871286027035" lon="9.334657888021763"><ele>186.75</ele><time>2026-05-01T08:31:21.999Z</time></trkpt><trkpt lat="42.88860730401529" lon="9.334587363099004"><ele>186.0</ele><time>2026-05-01T08:31:22.999Z</time></trkpt><trkpt lat="42.88851006926471" lon="9.334510274704513"><ele>187.66666666666666</ele><time>2026-05-01T08:31:23.999Z</time></trkpt><trkpt lat="42.888413815831406" lon="9.334462274709765"><ele>189.33333333333331</ele><time>2026-05-01T08:31:24.999Z</time></trkpt><trkpt lat="42.88833899645246" lon="9.334394561567276"><ele>191.0</ele><time>2026-05-01T08:31:25.999Z</time></trkpt><trkpt lat="42.88827336491801" lon="9.334349527927994"><ele>192.66666666666666</ele><time>2026-05-01T08:31:26.999Z</time></trkpt><trkpt lat="42.88819574859211" lon="9.334307524934797"><ele>194.33333333333331</ele><time>2026-05-01T08:31:27.999Z</time></trkpt><trkpt lat="42.888103435358076" lon="9.334266426123634"><ele>196.0</ele><time>2026-05-01T08:31:28.999Z</time></trkpt><trkpt lat="42.88800319190568" lon="9.33425805969038"><ele>196.0</ele><time>2026-05-01T08:31:29.999Z</time></trkpt><trkpt lat="42.88789917276321" lon="9.334278505461938"><ele>196.0</ele><time>2026-05-01T08:31:31Z</time></trkpt><trkpt lat="42.88779679039337" lon="9.334339830098065"><ele>196.0</ele><time>2026-05-01T08:31:32Z</time></trkpt><trkpt lat="42.88770361310163" lon="9.33445606772001"><ele>196.0</ele><time>2026-05-01T08:31:33Z</time></trkpt><trkpt lat="42.88760755181423" lon="9.334573559951433"><ele>194.20000000000002</ele><time>2026-05-01T08:31:34Z</time></trkpt><trkpt lat="42.88751764542481" lon="9.334692925744413"><ele>192.4</ele><time>2026-05-01T08:31:35Z</time></trkpt><trkpt lat="42.88742918645331" lon="9.334789026690027"><ele>190.6</ele><time>2026-05-01T08:31:36Z</time></trkpt><trkpt lat="42.88735606688622" lon="9.334885975051163"><ele>188.8</ele><time>2026-05-01T08:31:37Z</time></trkpt><trkpt lat="42.88729196893143" lon="9.334960214129206"><ele>187.0</ele><time>2026-05-01T08:31:38Z</time></trkpt><trkpt lat="42.88723089965867" lon="9.335028505783024"><ele>190.8</ele><time>2026-05-01T08:31:39Z</time></trkpt><trkpt lat="42.88715249387734" lon="9.33510134583399"><ele>194.6</ele><time>2026-05-01T08:31:40Z</time></trkpt><trkpt lat="42.887069033894235" lon="9.3351934837484"><ele>198.4</ele><time>2026-05-01T08:31:41Z</time></trkpt><trkpt lat="42.886971332007334" lon="9.335269628383843"><ele>202.20000000000002</ele><time>2026-05-01T08:31:42Z</time></trkpt><trkpt lat="42.8868737944394" lon="9.335327616648064"><ele>206.0</ele><time>2026-05-01T08:31:43Z</time></trkpt><trkpt lat="42.886787478486916" lon="9.335378617898034"><ele>204.20000000000002</ele><time>2026-05-01T08:31:44Z</time></trkpt><trkpt lat="42.886695544384594" lon="9.335350450538492"><ele>202.4</ele><time>2026-05-01T08:31:45Z</time></trkpt><trkpt lat="42.886624443690444" lon="9.335269191558057"><ele>200.6</ele><time>2026-05-01T08:31:46Z</time></trkpt><trkpt lat="42.88657305360866" lon="9.335139567297826"><ele>198.8</ele><time>2026-05-01T08:31:47Z</time></trkpt><trkpt lat="42.88654844719646" lon="9.334992335729114"><ele>197.0</ele><time>2026-05-01T08:31:48Z</time></trkpt><trkpt lat="42.88650685304942" lon="9.334873322164007"><ele>197.0</ele><time>2026-05-01T08:31:49Z</time></trkpt><trkpt lat="42.88642611967152" lon="9.334766221913979"><ele>197.0</ele><time>2026-05-01T08:31:50Z</time></trkpt><trkpt lat="42.88632454866807" lon="9.334690293578742"><ele>197.0</ele><time>2026-05-01T08:31:51Z</time></trkpt><trkpt lat="42.88622575482959" lon="9.33460907894035"><ele>197.0</ele><time>2026-05-01T08:31:52Z</time></trkpt><trkpt lat="42.88616129938732" lon="9.33448834477816"><ele>196.39999999999998</ele><time>2026-05-01T08:31:53Z</time></trkpt><trkpt lat="42.886087799752154" lon="9.33436913541784"><ele>195.79999999999998</ele><time>2026-05-01T08:31:54Z</time></trkpt><trkpt lat="42.8860293086257" lon="9.334248640750019"><ele>195.2</ele><time>2026-05-01T08:31:55Z</time></trkpt><trkpt lat="42.885942834505634" lon="9.33416432376777"><ele>194.6</ele><time>2026-05-01T08:31:56Z</time></trkpt><trkpt lat="42.88583542656584" lon="9.334123575284963"><ele>194.0</ele><time>2026-05-01T08:31:57Z</time></trkpt><trkpt lat="42.88572349349729" lon="9.334083882312665"><ele>194.0</ele><time>2026-05-01T08:31:58Z</time></trkpt><trkpt lat="42.88562184727494" lon="9.334008329219948"><ele>194.0</ele><time>2026-05-01T08:31:59Z</time></trkpt><trkpt lat="42.8855745096778" lon="9.333856211178311"><ele>194.0</ele><time>2026-05-01T08:32:00Z</time></trkpt><trkpt lat="42.8854992740829" lon="9.333730389554598"><ele>194.0</ele><time>2026-05-01T08:32:01Z</time></trkpt><trkpt lat="42.88541711896187" lon="9.33361810180886"><ele>192.0</ele><time>2026-05-01T08:32:02Z</time></trkpt><trkpt lat="42.88530869464276" lon="9.33354265616083"><ele>190.0</ele><time>2026-05-01T08:32:03Z</time></trkpt><trkpt lat="42.885197827555366" lon="9.33346366692483"><ele>188.0</ele><time>2026-05-01T08:32:04Z</time></trkpt><trkpt lat="42.885113740972926" lon="9.333347401145087"><ele>186.0</ele><time>2026-05-01T08:32:05Z</time></trkpt><trkpt lat="42.88503704824203" lon="9.333220868781849"><ele>186.0</ele><time>2026-05-01T08:32:06Z</time></trkpt><trkpt lat="42.88494660845813" lon="9.3331514529566"><ele>186.0</ele><time>2026-05-01T08:32:07Z</time></trkpt><trkpt lat="42.88483964485126" lon="9.333148807597517"><ele>186.0</ele><time>2026-05-01T08:32:08Z</time></trkpt><trkpt lat="42.884733732436324" lon="9.333236401782766"><ele>186.0</ele><time>2026-05-01T08:32:09Z</time></trkpt><trkpt lat="42.88465379518004" lon="9.333372108310757"><ele>186.0</ele><time>2026-05-01T08:32:10Z</time></trkpt><trkpt lat="42.884593030410606" lon="9.333531812796272"><ele>186.0</ele><time>2026-05-01T08:32:11Z</time></trkpt><trkpt lat="42.88452977691646" lon="9.333674617629345"><ele>186.0</ele><time>2026-05-01T08:32:12Z</time></trkpt><trkpt lat="42.884438478560455" lon="9.33382853519358"><ele>186.0</ele><time>2026-05-01T08:32:13Z</time></trkpt><trkpt lat="42.884357282308244" lon="9.333981050374913"><ele>187.0</ele><time>2026-05-01T08:32:14Z</time></trkpt><trkpt lat="42.88426522196722" lon="9.334122710731021"><ele>188.0</ele><time>2026-05-01T08:32:15Z</time></trkpt><trkpt lat="42.88416302481404" lon="9.334236057212635"><ele>189.0</ele><time>2026-05-01T08:32:16Z</time></trkpt><trkpt lat="42.884065826413924" lon="9.334351587746829"><ele>190.0</ele><time>2026-05-01T08:32:17Z</time></trkpt><trkpt lat="42.88396468954071" lon="9.334458814650487"><ele>190.0</ele><time>2026-05-01T08:32:18Z</time></trkpt><trkpt lat="42.883853217182555" lon="9.334537489004893"><ele>190.0</ele><time>2026-05-01T08:32:19Z</time></trkpt><trkpt lat="42.88374454348951" lon="9.334609034576012"><ele>190.0</ele><time>2026-05-01T08:32:20Z</time></trkpt><trkpt lat="42.88364206343636" lon="9.334675519867703"><ele>190.0</ele><time>2026-05-01T08:32:21Z</time></trkpt><trkpt lat="42.88353981709388" lon="9.334657854349409"><ele>190.0</ele><time>2026-05-01T08:32:22Z</time></trkpt><trkpt lat="42.88345391348399" lon="9.334580109868936"><ele>190.0</ele><time>2026-05-01T08:32:23Z</time></trkpt><trkpt lat="42.88341605597652" lon="9.33443744788371"><ele>190.0</ele><time>2026-05-01T08:32:24Z</time></trkpt><trkpt lat="42.88339347558381" lon="9.33429802023157"><ele>190.0</ele><time>2026-05-01T08:32:25Z</time></trkpt><trkpt lat="42.88339130774782" lon="9.334138046173976"><ele>190.0</ele><time>2026-05-01T08:32:26Z</time></trkpt><trkpt lat="42.88339073881778" lon="9.333970540727995"><ele>189.0</ele><time>2026-05-01T08:32:27Z</time></trkpt><trkpt lat="42.883381932349785" lon="9.333789515217138"><ele>188.0</ele><time>2026-05-01T08:32:28Z</time></trkpt><trkpt lat="42.883377740195094" lon="9.333606717804273"><ele>187.0</ele><time>2026-05-01T08:32:29Z</time></trkpt><trkpt lat="42.88336558511415" lon="9.333428609262818"><ele>186.0</ele><time>2026-05-01T08:32:30Z</time></trkpt><trkpt lat="42.88333461941068" lon="9.333255860248892"><ele>186.0</ele><time>2026-05-01T08:32:31Z</time></trkpt><trkpt lat="42.88329128632734" lon="9.333088287876878"><ele>186.0</ele><time>2026-05-01T08:32:32Z</time></trkpt><trkpt lat="42.8832042318201" lon="9.332950957720678"><ele>186.0</ele><time>2026-05-01T08:32:33Z</time></trkpt><trkpt lat="42.88311466481831" lon="9.332821798133871"><ele>186.0</ele><time>2026-05-01T08:32:34Z</time></trkpt><trkpt lat="42.883004400524264" lon="9.332705265885787"><ele>182.5</ele><time>2026-05-01T08:32:35Z</time></trkpt><trkpt lat="42.88288678394628" lon="9.332609710725123"><ele>179.0</ele><time>2026-05-01T08:32:36Z</time></trkpt><trkpt lat="42.88277104292447" lon="9.332496214563784"><ele>175.5</ele><time>2026-05-01T08:32:37Z</time></trkpt><trkpt lat="42.88266176286662" lon="9.332364644061938"><ele>172.0</ele><time>2026-05-01T08:32:38Z</time></trkpt><trkpt lat="42.8825767039562" lon="9.332200041266274"><ele>171.5</ele><time>2026-05-01T08:32:39Z</time></trkpt><trkpt lat="42.88246738821299" lon="9.332076459271901"><ele>171.0</ele><time>2026-05-01T08:32:40Z</time></trkpt><trkpt lat="42.88237421617857" lon="9.33194950365835"><ele>170.5</ele><time>2026-05-01T08:32:41Z</time></trkpt><trkpt lat="42.88230262354684" lon="9.331825498288385"><ele>170.0</ele><time>2026-05-01T08:32:41.999Z</time></trkpt><trkpt lat="42.88223933121345" lon="9.331722290302839"><ele>170.0</ele><time>2026-05-01T08:32:42.999Z</time></trkpt><trkpt lat="42.882154925521796" lon="9.331666539255016"><ele>170.0</ele><time>2026-05-01T08:32:43.999Z</time></trkpt><trkpt lat="42.88204695087722" lon="9.331682622369197"><ele>170.0</ele><time>2026-05-01T08:32:44.999Z</time></trkpt><trkpt lat="42.88193139491988" lon="9.331747618027109"><ele>170.0</ele><time>2026-05-01T08:32:45.999Z</time></trkpt><trkpt lat="42.881810627462876" lon="9.331742454573517"><ele>170.0</ele><time>2026-05-01T08:32:46.999Z</time></trkpt><trkpt lat="42.88170017819719" lon="9.331703171871947"><ele>169.75</ele><time>2026-05-01T08:32:47.999Z</time></trkpt><trkpt lat="42.881596129504324" lon="9.331587884132091"><ele>169.5</ele><time>2026-05-01T08:32:48.999Z</time></trkpt><trkpt lat="42.88147736452534" lon="9.33150075348483"><ele>169.25</ele><time>2026-05-01T08:32:49.999Z</time></trkpt><trkpt lat="42.88135975305999" lon="9.331395325198692"><ele>169.0</ele><time>2026-05-01T08:32:50.999Z</time></trkpt><trkpt lat="42.88123029601026" lon="9.331315527051819"><ele>169.0</ele><time>2026-05-01T08:32:51.999Z</time></trkpt><trkpt lat="42.8810855473944" lon="9.33127167361629"><ele>169.0</ele><time>2026-05-01T08:32:52.999Z</time></trkpt><trkpt lat="42.88094820781322" lon="9.331248144582352"><ele>169.0</ele><time>2026-05-01T08:32:53.999Z</time></trkpt><trkpt lat="42.880826084406806" lon="9.331196833854353"><ele>169.0</ele><time>2026-05-01T08:32:54.999Z</time></trkpt><trkpt lat="42.88076211557936" lon="9.331057669875904"><ele>171.0</ele><time>2026-05-01T08:32:55.999Z</time></trkpt><trkpt lat="42.880663475481846" lon="9.330930662575996"><ele>173.0</ele><time>2026-05-01T08:32:56.999Z</time></trkpt><trkpt lat="42.8805788596593" lon="9.330780992475164"><ele>175.0</ele><time>2026-05-01T08:32:57.999Z</time></trkpt><trkpt lat="42.88048814036231" lon="9.330646928741771"><ele>177.0</ele><time>2026-05-01T08:32:58.999Z</time></trkpt><trkpt lat="42.88040442180589" lon="9.330533646477482"><ele>178.25</ele><time>2026-05-01T08:32:59.999Z</time></trkpt><trkpt lat="42.88031178310754" lon="9.330469996137564"><ele>179.5</ele><time>2026-05-01T08:33:00.999Z</time></trkpt><trkpt lat="42.8802020472611" lon="9.330458085270475"><ele>180.75</ele><time>2026-05-01T08:33:01.999Z</time></trkpt><trkpt lat="42.880090696498094" lon="9.330559154043033"><ele>182.0</ele><time>2026-05-01T08:33:02.999Z</time></trkpt><trkpt lat="42.8799892000209" lon="9.330668127337482"><ele>182.0</ele><time>2026-05-01T08:33:03.999Z</time></trkpt><trkpt lat="42.87987147699237" lon="9.330722048205818"><ele>182.0</ele><time>2026-05-01T08:33:04.999Z</time></trkpt><trkpt lat="42.87975474007655" lon="9.330713304475362"><ele>182.0</ele><time>2026-05-01T08:33:05.999Z</time></trkpt><trkpt lat="42.87966418895788" lon="9.330620428634566"><ele>182.0</ele><time>2026-05-01T08:33:06.999Z</time></trkpt><trkpt lat="42.8795682681181" lon="9.330516577710316"><ele>175.0</ele><time>2026-05-01T08:33:07.999Z</time></trkpt><trkpt lat="42.87945546153396" lon="9.330460647614894"><ele>168.0</ele><time>2026-05-01T08:33:08.999Z</time></trkpt><trkpt lat="42.87932913246741" lon="9.330472269079424"><ele>161.0</ele><time>2026-05-01T08:33:09.999Z</time></trkpt><trkpt lat="42.879204571189135" lon="9.330499484984616"><ele>154.0</ele><time>2026-05-01T08:33:10.999Z</time></trkpt><trkpt lat="42.879075593565744" lon="9.330482012624312"><ele>152.75</ele><time>2026-05-01T08:33:11.999Z</time></trkpt><trkpt lat="42.87894856726054" lon="9.330534594154226"><ele>151.5</ele><time>2026-05-01T08:33:12.999Z</time></trkpt><trkpt lat="42.87882762457794" lon="9.33059251451387"><ele>150.25</ele><time>2026-05-01T08:33:13.999Z</time></trkpt><trkpt lat="42.87870321600217" lon="9.330626228985722"><ele>149.0</ele><time>2026-05-01T08:33:14.999Z</time></trkpt><trkpt lat="42.87858972036306" lon="9.330525361128819"><ele>149.0</ele><time>2026-05-01T08:33:15.999Z</time></trkpt><trkpt lat="42.87845758260209" lon="9.33050451732833"><ele>149.0</ele><time>2026-05-01T08:33:16.999Z</time></trkpt><trkpt lat="42.8783485708745" lon="9.330571858985413"><ele>149.0</ele><time>2026-05-01T08:33:17.999Z</time></trkpt><trkpt lat="42.87824600357075" lon="9.330636795699226"><ele>149.0</ele><time>2026-05-01T08:33:18.999Z</time></trkpt><trkpt lat="42.8781647038367" lon="9.330627856294202"><ele>149.0</ele><time>2026-05-01T08:33:19.999Z</time></trkpt><trkpt lat="42.878103710771384" lon="9.330521098147113"><ele>147.8</ele><time>2026-05-01T08:33:20.999Z</time></trkpt><trkpt lat="42.8779999214372" lon="9.330442953735258"><ele>146.60000000000002</ele><time>2026-05-01T08:33:21.999Z</time></trkpt><trkpt lat="42.87788186676287" lon="9.330405844837628"><ele>145.4</ele><time>2026-05-01T08:33:22.999Z</time></trkpt><trkpt lat="42.877780991123466" lon="9.330384183197554"><ele>144.20000000000002</ele><time>2026-05-01T08:33:23.999Z</time></trkpt><trkpt lat="42.87769770066198" lon="9.330402072258234"><ele>143.0</ele><time>2026-05-01T08:33:24.999Z</time></trkpt><trkpt lat="42.87762742099972" lon="9.330505901728696"><ele>150.33333333333331</ele><time>2026-05-01T08:33:25.999Z</time></trkpt><trkpt lat="42.87758804657746" lon="9.33062237678388"><ele>157.66666666666666</ele><time>2026-05-01T08:33:26.999Z</time></trkpt><trkpt lat="42.877514526361175" lon="9.330686217675629"><ele>165.0</ele><time>2026-05-01T08:33:27.999Z</time></trkpt><trkpt lat="42.877436059119916" lon="9.330696536323513"><ele>172.33333333333334</ele><time>2026-05-01T08:33:28.999Z</time></trkpt><trkpt lat="42.877347646460166" lon="9.330672877205371"><ele>179.66666666666669</ele><time>2026-05-01T08:33:29.999Z</time></trkpt><trkpt lat="42.877268526605626" lon="9.330621439841686"><ele>187.0</ele><time>2026-05-01T08:33:30.999Z</time></trkpt><trkpt lat="42.87718193115242" lon="9.330605518648726"><ele>187.0</ele><time>2026-05-01T08:33:31.999Z</time></trkpt><trkpt lat="42.877081476166985" lon="9.330616887704926"><ele>187.0</ele><time>2026-05-01T08:33:32.999Z</time></trkpt><trkpt lat="42.876986695169016" lon="9.330620579657372"><ele>187.0</ele><time>2026-05-01T08:33:33.999Z</time></trkpt><trkpt lat="42.87690316004107" lon="9.330676439262179"><ele>187.0</ele><time>2026-05-01T08:33:34.999Z</time></trkpt><trkpt lat="42.87681755383779" lon="9.330765151349684"><ele>187.0</ele><time>2026-05-01T08:33:35.999Z</time></trkpt><trkpt lat="42.876754095604156" lon="9.330904793618966"><ele>189.0</ele><time>2026-05-01T08:33:37Z</time></trkpt><trkpt lat="42.876699339759526" lon="9.331042087859682"><ele>191.0</ele><time>2026-05-01T08:33:38Z</time></trkpt><trkpt lat="42.87665272580909" lon="9.3312081207388"><ele>193.0</ele><time>2026-05-01T08:33:39Z</time></trkpt><trkpt lat="42.87658184044598" lon="9.331350748996357"><ele>195.0</ele><time>2026-05-01T08:33:40Z</time></trkpt><trkpt lat="42.876513647976914" lon="9.331506339364614"><ele>195.0</ele><time>2026-05-01T08:33:41Z</time></trkpt><trkpt lat="42.87644414717028" lon="9.331660988379966"><ele>195.0</ele><time>2026-05-01T08:33:42Z</time></trkpt><trkpt lat="42.87636568160089" lon="9.331809443801022"><ele>195.0</ele><time>2026-05-01T08:33:43Z</time></trkpt><trkpt lat="42.87629711355247" lon="9.33195630613802"><ele>195.0</ele><time>2026-05-01T08:33:44Z</time></trkpt><trkpt lat="42.87620244058086" lon="9.332058697121553"><ele>195.0</ele><time>2026-05-01T08:33:45Z</time></trkpt><trkpt lat="42.87611158605046" lon="9.332128499683122"><ele>195.0</ele><time>2026-05-01T08:33:46Z</time></trkpt><trkpt lat="42.87599564204739" lon="9.332111606338323"><ele>195.0</ele><time>2026-05-01T08:33:47Z</time></trkpt><trkpt lat="42.87589455156354" lon="9.332155395620218"><ele>195.0</ele><time>2026-05-01T08:33:48Z</time></trkpt><trkpt lat="42.875793401036844" lon="9.332231195266809"><ele>195.0</ele><time>2026-05-01T08:33:49Z</time></trkpt><trkpt lat="42.875714368297196" lon="9.332377979860244"><ele>192.75</ele><time>2026-05-01T08:33:50Z</time></trkpt><trkpt lat="42.87559668366391" lon="9.332465324088085"><ele>190.5</ele><time>2026-05-01T08:33:51Z</time></trkpt><trkpt lat="42.87547849792635" lon="9.332560327699246"><ele>188.25</ele><time>2026-05-01T08:33:52Z</time></trkpt><trkpt lat="42.87535791210969" lon="9.33265726062655"><ele>186.0</ele><time>2026-05-01T08:33:53Z</time></trkpt><trkpt lat="42.87524549886263" lon="9.332745872101606"><ele>186.0</ele><time>2026-05-01T08:33:54Z</time></trkpt><trkpt lat="42.875147488928626" lon="9.33285008527373"><ele>186.0</ele><time>2026-05-01T08:33:55Z</time></trkpt><trkpt lat="42.875078080583904" lon="9.332976368218121"><ele>186.0</ele><time>2026-05-01T08:33:56Z</time></trkpt><trkpt lat="42.875003272290364" lon="9.333065585489573"><ele>186.0</ele><time>2026-05-01T08:33:57Z</time></trkpt><trkpt lat="42.87492457999442" lon="9.333105396496977"><ele>186.0</ele><time>2026-05-01T08:33:58Z</time></trkpt><trkpt lat="42.87484184177794" lon="9.333111044083816"><ele>181.66666666666666</ele><time>2026-05-01T08:33:59Z</time></trkpt><trkpt lat="42.87477404842793" lon="9.33301077303037"><ele>177.33333333333334</ele><time>2026-05-01T08:34:00Z</time></trkpt><trkpt lat="42.8747535042364" lon="9.332895764589448"><ele>173.0</ele><time>2026-05-01T08:34:01Z</time></trkpt><trkpt lat="42.87474708943336" lon="9.33279006045552"><ele>168.66666666666669</ele><time>2026-05-01T08:34:02Z</time></trkpt><trkpt lat="42.87471347554418" lon="9.33269740835109"><ele>164.33333333333334</ele><time>2026-05-01T08:34:03Z</time></trkpt><trkpt lat="42.87467289699177" lon="9.33257264539512"><ele>160.0</ele><time>2026-05-01T08:34:04Z</time></trkpt><trkpt lat="42.87456198697991" lon="9.332477683935474"><ele>160.0</ele><time>2026-05-01T08:34:05Z</time></trkpt><trkpt lat="42.8744560075854" lon="9.332364564131137"><ele>160.0</ele><time>2026-05-01T08:34:06Z</time></trkpt><trkpt lat="42.87434584124015" lon="9.332249579147373"><ele>160.0</ele><time>2026-05-01T08:34:07Z</time></trkpt><trkpt lat="42.874259504635184" lon="9.33213636676661"><ele>160.0</ele><time>2026-05-01T08:34:08Z</time></trkpt><trkpt lat="42.874177515105664" lon="9.332061440130563"><ele>153.83333333333334</ele><time>2026-05-01T08:34:09Z</time></trkpt><trkpt lat="42.874099299578845" lon="9.332012009906697"><ele>147.66666666666669</ele><time>2026-05-01T08:34:10Z</time></trkpt><trkpt lat="42.87402009342004" lon="9.331983427038871"><ele>141.5</ele><time>2026-05-01T08:34:11Z</time></trkpt><trkpt lat="42.87393285725996" lon="9.331983693314783"><ele>135.33333333333334</ele><time>2026-05-01T08:34:12Z</time></trkpt><trkpt lat="42.87385322935048" lon="9.33199203348908"><ele>129.16666666666666</ele><time>2026-05-01T08:34:13Z</time></trkpt><trkpt lat="42.873775150025" lon="9.332016263451976"><ele>123.0</ele><time>2026-05-01T08:34:14Z</time></trkpt><trkpt lat="42.87369173905366" lon="9.332078815494498"><ele>123.0</ele><time>2026-05-01T08:34:15Z</time></trkpt><trkpt lat="42.873590968527694" lon="9.332180409725567"><ele>123.0</ele><time>2026-05-01T08:34:16Z</time></trkpt><trkpt lat="42.87350111399734" lon="9.33230919810906"><ele>123.0</ele><time>2026-05-01T08:34:17Z</time></trkpt><trkpt lat="42.87338186258798" lon="9.332434061405458"><ele>123.0</ele><time>2026-05-01T08:34:18Z</time></trkpt><trkpt lat="42.873248081394614" lon="9.33254426977415"><ele>127.75</ele><time>2026-05-01T08:34:19Z</time></trkpt><trkpt lat="42.87314466345995" lon="9.332647281384686"><ele>132.5</ele><time>2026-05-01T08:34:20Z</time></trkpt><trkpt lat="42.87309905831862" lon="9.33278540453687"><ele>137.25</ele><time>2026-05-01T08:34:21Z</time></trkpt><trkpt lat="42.87308022439784" lon="9.332937170214915"><ele>142.0</ele><time>2026-05-01T08:34:22Z</time></trkpt><trkpt lat="42.87312171148614" lon="9.333107022867248"><ele>143.79999999999998</ele><time>2026-05-01T08:34:23Z</time></trkpt><trkpt lat="42.873162134747766" lon="9.333271469150723"><ele>145.6</ele><time>2026-05-01T08:34:24Z</time></trkpt><trkpt lat="42.8731699203666" lon="9.33341256772147"><ele>147.39999999999998</ele><time>2026-05-01T08:34:25Z</time></trkpt><trkpt lat="42.87312328954875" lon="9.333522859793767"><ele>149.2</ele><time>2026-05-01T08:34:26Z</time></trkpt><trkpt lat="42.87301997689875" lon="9.333548831526915"><ele>151.0</ele><time>2026-05-01T08:34:27Z</time></trkpt><trkpt lat="42.87292656368074" lon="9.333573081403989"><ele>151.0</ele><time>2026-05-01T08:34:28Z</time></trkpt><trkpt lat="42.872825847903606" lon="9.333507721726376"><ele>151.0</ele><time>2026-05-01T08:34:29Z</time></trkpt><trkpt lat="42.87275635496802" lon="9.33337294756767"><ele>151.0</ele><time>2026-05-01T08:34:30Z</time></trkpt><trkpt lat="42.87266554258787" lon="9.333291851457718"><ele>151.0</ele><time>2026-05-01T08:34:31Z</time></trkpt><trkpt lat="42.87253957221066" lon="9.333290530246671"><ele>148.0</ele><time>2026-05-01T08:34:32Z</time></trkpt><trkpt lat="42.8724167575622" lon="9.333314683603673"><ele>145.0</ele><time>2026-05-01T08:34:33Z</time></trkpt><trkpt lat="42.872300806966855" lon="9.333364393957241"><ele>142.0</ele><time>2026-05-01T08:34:34Z</time></trkpt><trkpt lat="42.872197675526415" lon="9.333411626583636"><ele>139.0</ele><time>2026-05-01T08:34:35Z</time></trkpt><trkpt lat="42.87213166385717" lon="9.333538427779564"><ele>139.0</ele><time>2026-05-01T08:34:36Z</time></trkpt><trkpt lat="42.87209766456446" lon="9.333667064153445"><ele>139.0</ele><time>2026-05-01T08:34:37Z</time></trkpt><trkpt lat="42.87212172537584" lon="9.333822053280983"><ele>139.0</ele><time>2026-05-01T08:34:38Z</time></trkpt><trkpt lat="42.87216065452544" lon="9.3339750919493"><ele>139.0</ele><time>2026-05-01T08:34:39Z</time></trkpt><trkpt lat="42.8721906903457" lon="9.334148185281105"><ele>140.0</ele><time>2026-05-01T08:34:40Z</time></trkpt><trkpt lat="42.87219742314651" lon="9.334325431692616"><ele>141.0</ele><time>2026-05-01T08:34:41Z</time></trkpt><trkpt lat="42.87221259903755" lon="9.334515268916636"><ele>142.0</ele><time>2026-05-01T08:34:42Z</time></trkpt><trkpt lat="42.87222148238121" lon="9.334707933772657"><ele>143.0</ele><time>2026-05-01T08:34:43Z</time></trkpt><trkpt lat="42.872220009748474" lon="9.33489888882369"><ele>143.0</ele><time>2026-05-01T08:34:44Z</time></trkpt><trkpt lat="42.87220518114617" lon="9.335082951163782"><ele>143.0</ele><time>2026-05-01T08:34:45Z</time></trkpt><trkpt lat="42.872185148617895" lon="9.335264452999418"><ele>143.0</ele><time>2026-05-01T08:34:46Z</time></trkpt><trkpt lat="42.87217799699961" lon="9.335440113821377"><ele>143.0</ele><time>2026-05-01T08:34:47Z</time></trkpt><trkpt lat="42.87220609519482" lon="9.335600469559905"><ele>142.8</ele><time>2026-05-01T08:34:48Z</time></trkpt><trkpt lat="42.872259188320044" lon="9.335744839497908"><ele>142.60000000000002</ele><time>2026-05-01T08:34:49Z</time></trkpt><trkpt lat="42.872294349033076" lon="9.335888993243282"><ele>142.39999999999998</ele><time>2026-05-01T08:34:50Z</time></trkpt><trkpt lat="42.87228613192289" lon="9.336030505158748"><ele>142.2</ele><time>2026-05-01T08:34:51Z</time></trkpt><trkpt lat="42.872226341007604" lon="9.336155435263784"><ele>142.0</ele><time>2026-05-01T08:34:52Z</time></trkpt><trkpt lat="42.87211145777435" lon="9.336224806515633"><ele>142.0</ele><time>2026-05-01T08:34:53Z</time></trkpt><trkpt lat="42.87202439528798" lon="9.336341624480685"><ele>142.0</ele><time>2026-05-01T08:34:54Z</time></trkpt><trkpt lat="42.871966571667706" lon="9.336499643860362"><ele>142.0</ele><time>2026-05-01T08:34:55Z</time></trkpt><trkpt lat="42.871928522185236" lon="9.336673624057088"><ele>142.0</ele><time>2026-05-01T08:34:56Z</time></trkpt><trkpt lat="42.87189593153024" lon="9.336836360799385"><ele>142.75</ele><time>2026-05-01T08:34:56.999Z</time></trkpt><trkpt lat="42.87181793130082" lon="9.336934554395816"><ele>143.5</ele><time>2026-05-01T08:34:57.999Z</time></trkpt><trkpt lat="42.87171965966646" lon="9.337015970678953"><ele>144.25</ele><time>2026-05-01T08:34:58.999Z</time></trkpt><trkpt lat="42.871576572604184" lon="9.337001266986096"><ele>145.0</ele><time>2026-05-01T08:34:59.999Z</time></trkpt><trkpt lat="42.8714617417078" lon="9.337088578847347"><ele>143.25</ele><time>2026-05-01T08:35:00.999Z</time></trkpt><trkpt lat="42.871357000061" lon="9.33720940836414"><ele>141.5</ele><time>2026-05-01T08:35:01.999Z</time></trkpt><trkpt lat="42.87126526130711" lon="9.337367971781335"><ele>139.75</ele><time>2026-05-01T08:35:02.999Z</time></trkpt><trkpt lat="42.871158321961204" lon="9.337504209246616"><ele>138.0</ele><time>2026-05-01T08:35:03.999Z</time></trkpt><trkpt lat="42.87102105425528" lon="9.337574931999514"><ele>133.5</ele><time>2026-05-01T08:35:04.999Z</time></trkpt><trkpt lat="42.87088367920796" lon="9.337654434875512"><ele>129.0</ele><time>2026-05-01T08:35:05.999Z</time></trkpt><trkpt lat="42.870771831960155" lon="9.337783236450253"><ele>124.5</ele><time>2026-05-01T08:35:06.999Z</time></trkpt><trkpt lat="42.87066840033678" lon="9.337917993195713"><ele>120.0</ele><time>2026-05-01T08:35:07.999Z</time></trkpt><trkpt lat="42.870564287279855" lon="9.338040512297557"><ele>121.0</ele><time>2026-05-01T08:35:08.999Z</time></trkpt><trkpt lat="42.87046460593278" lon="9.338148721917777"><ele>122.0</ele><time>2026-05-01T08:35:09.999Z</time></trkpt><trkpt lat="42.8704034503799" lon="9.33829081711473"><ele>123.0</ele><time>2026-05-01T08:35:10.999Z</time></trkpt><trkpt lat="42.870386449058316" lon="9.338476298799385"><ele>124.0</ele><time>2026-05-01T08:35:11.999Z</time></trkpt><trkpt lat="42.87038055755498" lon="9.338675046454103"><ele>124.0</ele><time>2026-05-01T08:35:12.999Z</time></trkpt><trkpt lat="42.87036296040395" lon="9.338877357812637"><ele>124.0</ele><time>2026-05-01T08:35:13.999Z</time></trkpt><trkpt lat="42.870335129361045" lon="9.33906750743137"><ele>124.0</ele><time>2026-05-01T08:35:14.999Z</time></trkpt><trkpt lat="42.8703072286955" lon="9.339251168527536"><ele>124.0</ele><time>2026-05-01T08:35:15.999Z</time></trkpt><trkpt lat="42.87030441937381" lon="9.339418728180423"><ele>123.2</ele><time>2026-05-01T08:35:16.999Z</time></trkpt><trkpt lat="42.87036081438305" lon="9.339554303424896"><ele>122.4</ele><time>2026-05-01T08:35:17.999Z</time></trkpt><trkpt lat="42.87045848577381" lon="9.339645795041438"><ele>121.6</ele><time>2026-05-01T08:35:18.999Z</time></trkpt><trkpt lat="42.87053160687432" lon="9.339751444800683"><ele>120.8</ele><time>2026-05-01T08:35:19.999Z</time></trkpt><trkpt lat="42.87057293679354" lon="9.33986364515637"><ele>120.0</ele><time>2026-05-01T08:35:20.999Z</time></trkpt><trkpt lat="42.87050007980311" lon="9.34000162520953"><ele>119.0</ele><time>2026-05-01T08:35:21.999Z</time></trkpt><trkpt lat="42.87043711394002" lon="9.340145399952219"><ele>118.0</ele><time>2026-05-01T08:35:22.999Z</time></trkpt><trkpt lat="42.87042017249486" lon="9.340293762940611"><ele>117.0</ele><time>2026-05-01T08:35:23.999Z</time></trkpt><trkpt lat="42.87045046718744" lon="9.340443170385706"><ele>116.0</ele><time>2026-05-01T08:35:24.999Z</time></trkpt><trkpt lat="42.870519038672946" lon="9.340584389753005"><ele>116.0</ele><time>2026-05-01T08:35:25.999Z</time></trkpt><trkpt lat="42.8705623794914" lon="9.3407434424069"><ele>116.0</ele><time>2026-05-01T08:35:26.999Z</time></trkpt><trkpt lat="42.87050908799885" lon="9.340908691405726"><ele>116.0</ele><time>2026-05-01T08:35:27.999Z</time></trkpt><trkpt lat="42.87048109474268" lon="9.341092351655027"><ele>116.0</ele><time>2026-05-01T08:35:28.999Z</time></trkpt><trkpt lat="42.87046066945684" lon="9.341285045448352"><ele>116.0</ele><time>2026-05-01T08:35:29.999Z</time></trkpt><trkpt lat="42.87044312394103" lon="9.34147648217394"><ele>116.0</ele><time>2026-05-01T08:35:30.999Z</time></trkpt><trkpt lat="42.870423181126036" lon="9.34165463599261"><ele>116.0</ele><time>2026-05-01T08:35:31.999Z</time></trkpt><trkpt lat="42.870438429947754" lon="9.34182557737205"><ele>116.0</ele><time>2026-05-01T08:35:32.999Z</time></trkpt><trkpt lat="42.87048655349956" lon="9.341983125918915"><ele>116.0</ele><time>2026-05-01T08:35:33.999Z</time></trkpt><trkpt lat="42.870508454592596" lon="9.342129574098621"><ele>116.0</ele><time>2026-05-01T08:35:34.999Z</time></trkpt><trkpt lat="42.87046214287686" lon="9.342262833851127"><ele>116.0</ele><time>2026-05-01T08:35:35.999Z</time></trkpt><trkpt lat="42.87036851744815" lon="9.342344798616766"><ele>116.0</ele><time>2026-05-01T08:35:36.999Z</time></trkpt><trkpt lat="42.87025235096" lon="9.34233462801696"><ele>116.0</ele><time>2026-05-01T08:35:37.999Z</time></trkpt><trkpt lat="42.87011646855235" lon="9.342379140455487"><ele>111.0</ele><time>2026-05-01T08:35:38.999Z</time></trkpt><trkpt lat="42.86998380142105" lon="9.342392583921297"><ele>106.0</ele><time>2026-05-01T08:35:39.999Z</time></trkpt><trkpt lat="42.86986920977715" lon="9.342437522466374"><ele>101.0</ele><time>2026-05-01T08:35:40.999Z</time></trkpt><trkpt lat="42.869782187207804" lon="9.342539076386362"><ele>96.0</ele><time>2026-05-01T08:35:41.999Z</time></trkpt><trkpt lat="42.86972122599941" lon="9.342682457581647"><ele>96.0</ele><time>2026-05-01T08:35:43Z</time></trkpt><trkpt lat="42.86969859552288" lon="9.342854306127773"><ele>96.0</ele><time>2026-05-01T08:35:44Z</time></trkpt><trkpt lat="42.86970134291592" lon="9.343023042749946"><ele>96.0</ele><time>2026-05-01T08:35:45Z</time></trkpt><trkpt lat="42.86973010175843" lon="9.343194387229286"><ele>96.0</ele><time>2026-05-01T08:35:46Z</time></trkpt><trkpt lat="42.86977045314969" lon="9.343353478908767"><ele>96.25</ele><time>2026-05-01T08:35:47Z</time></trkpt><trkpt lat="42.869792668838166" lon="9.34352080591368"><ele>96.5</ele><time>2026-05-01T08:35:48Z</time></trkpt><trkpt lat="42.869839166220494" lon="9.343679585257838"><ele>96.75</ele><time>2026-05-01T08:35:49Z</time></trkpt><trkpt lat="42.86989275535656" lon="9.34383301538133"><ele>97.0</ele><time>2026-05-01T08:35:50Z</time></trkpt><trkpt lat="42.869939353337294" lon="9.343987280966932"><ele>94.75</ele><time>2026-05-01T08:35:51Z</time></trkpt><trkpt lat="42.869993078846626" lon="9.344141586787988"><ele>92.5</ele><time>2026-05-01T08:35:52Z</time></trkpt><trkpt lat="42.87002853998896" lon="9.34430425156743"><ele>90.25</ele><time>2026-05-01T08:35:53Z</time></trkpt><trkpt lat="42.87004483348421" lon="9.344467602718089"><ele>88.0</ele><time>2026-05-01T08:35:54Z</time></trkpt><trkpt lat="42.87002443772933" lon="9.344616946091552"><ele>88.0</ele><time>2026-05-01T08:35:55Z</time></trkpt><trkpt lat="42.8699518941506" lon="9.344714863176055"><ele>88.0</ele><time>2026-05-01T08:35:56Z</time></trkpt><trkpt lat="42.869854786979225" lon="9.344740452101814"><ele>88.0</ele><time>2026-05-01T08:35:57Z</time></trkpt><trkpt lat="42.86974265540318" lon="9.344671229946206"><ele>88.0</ele><time>2026-05-01T08:35:58Z</time></trkpt><trkpt lat="42.869625768084774" lon="9.344590845954398"><ele>88.0</ele><time>2026-05-01T08:35:59Z</time></trkpt><trkpt lat="42.869528981767914" lon="9.344554942941249"><ele>88.0</ele><time>2026-05-01T08:36:00Z</time></trkpt><trkpt lat="42.86944535916341" lon="9.344608907576218"><ele>88.0</ele><time>2026-05-01T08:36:01Z</time></trkpt><trkpt lat="42.86939461266226" lon="9.34473940017235"><ele>88.0</ele><time>2026-05-01T08:36:02Z</time></trkpt><trkpt lat="42.86938465654035" lon="9.344880491406874"><ele>88.0</ele><time>2026-05-01T08:36:03Z</time></trkpt><trkpt lat="42.86942306210012" lon="9.345015411427733"><ele>88.25</ele><time>2026-05-01T08:36:04Z</time></trkpt><trkpt lat="42.86947267182711" lon="9.345142803413095"><ele>88.5</ele><time>2026-05-01T08:36:05Z</time></trkpt><trkpt lat="42.86950939320825" lon="9.345289569925823"><ele>88.75</ele><time>2026-05-01T08:36:06Z</time></trkpt><trkpt lat="42.86950107003524" lon="9.345456779928977"><ele>89.0</ele><time>2026-05-01T08:36:07Z</time></trkpt><trkpt lat="42.86955943612879" lon="9.34559836945507"><ele>87.6</ele><time>2026-05-01T08:36:08Z</time></trkpt><trkpt lat="42.86964244096802" lon="9.345718783445996"><ele>86.2</ele><time>2026-05-01T08:36:09Z</time></trkpt><trkpt lat="42.869734605888596" lon="9.345816965889595"><ele>84.8</ele><time>2026-05-01T08:36:10Z</time></trkpt><trkpt lat="42.86976334150721" lon="9.345953876956997"><ele>83.39999999999999</ele><time>2026-05-01T08:36:11Z</time></trkpt><trkpt lat="42.86971215386409" lon="9.346068199189443"><ele>82.0</ele><time>2026-05-01T08:36:12Z</time></trkpt><trkpt lat="42.869617115660695" lon="9.346189451284705"><ele>82.0</ele><time>2026-05-01T08:36:13Z</time></trkpt><trkpt lat="42.869567931448785" lon="9.346366903205288"><ele>82.0</ele><time>2026-05-01T08:36:14Z</time></trkpt><trkpt lat="42.86949178583608" lon="9.346556662840106"><ele>82.0</ele><time>2026-05-01T08:36:15Z</time></trkpt><trkpt lat="42.86941832522929" lon="9.346761749365063"><ele>83.0</ele><time>2026-05-01T08:36:16Z</time></trkpt><trkpt lat="42.86929127566593" lon="9.34687767796796"><ele>84.0</ele><time>2026-05-01T08:36:17Z</time></trkpt><trkpt lat="42.8691340618719" lon="9.346903793926934"><ele>85.0</ele><time>2026-05-01T08:36:18Z</time></trkpt><trkpt lat="42.86898359447615" lon="9.346945901910189"><ele>79.0</ele><time>2026-05-01T08:36:19Z</time></trkpt><trkpt lat="42.868889275711126" lon="9.34703356442233"><ele>73.0</ele><time>2026-05-01T08:36:20Z</time></trkpt><trkpt lat="42.86884610980251" lon="9.347144848635539"><ele>67.0</ele><time>2026-05-01T08:36:21Z</time></trkpt><trkpt lat="42.86890416569999" lon="9.347294245860061"><ele>61.0</ele><time>2026-05-01T08:36:22Z</time></trkpt><trkpt lat="42.86899820297216" lon="9.347406891957016"><ele>61.0</ele><time>2026-05-01T08:36:23Z</time></trkpt><trkpt lat="42.86914253740904" lon="9.347445124587303"><ele>61.0</ele><time>2026-05-01T08:36:24Z</time></trkpt><trkpt lat="42.86931238381437" lon="9.347431707288955"><ele>61.0</ele><time>2026-05-01T08:36:25Z</time></trkpt><trkpt lat="42.86943831106969" lon="9.347573668071506"><ele>66.0</ele><time>2026-05-01T08:36:26Z</time></trkpt><trkpt lat="42.86956494380764" lon="9.347759000747468"><ele>71.0</ele><time>2026-05-01T08:36:27Z</time></trkpt><trkpt lat="42.86965249938402" lon="9.347920815193715"><ele>76.0</ele><time>2026-05-01T08:36:28Z</time></trkpt><trkpt lat="42.86966043295682" lon="9.348044695124974"><ele>81.0</ele><time>2026-05-01T08:36:29Z</time></trkpt><trkpt lat="42.86959606048038" lon="9.348139168199129"><ele>81.25</ele><time>2026-05-01T08:36:30Z</time></trkpt><trkpt lat="42.869501396110735" lon="9.348194140780324"><ele>81.5</ele><time>2026-05-01T08:36:31Z</time></trkpt><trkpt lat="42.86937280967842" lon="9.348184163825698"><ele>81.75</ele><time>2026-05-01T08:36:32Z</time></trkpt><trkpt lat="42.86923095213952" lon="9.348046302014406"><ele>82.0</ele><time>2026-05-01T08:36:33Z</time></trkpt><trkpt lat="42.86910255521381" lon="9.348029303171925"><ele>76.66666666666666</ele><time>2026-05-01T08:36:34Z</time></trkpt><trkpt lat="42.868970544487475" lon="9.348100261522116"><ele>71.33333333333333</ele><time>2026-05-01T08:36:35Z</time></trkpt><trkpt lat="42.868837097960075" lon="9.348246790296988"><ele>66.0</ele><time>2026-05-01T08:36:36Z</time></trkpt><trkpt lat="42.86868026630352" lon="9.348486870368964"><ele>66.0</ele><time>2026-05-01T08:36:37Z</time></trkpt><trkpt lat="42.86845592439011" lon="9.348642876824414"><ele>66.0</ele><time>2026-05-01T08:36:38Z</time></trkpt><trkpt lat="42.86825877584727" lon="9.34871733410238"><ele>63.0</ele><time>2026-05-01T08:36:39Z</time></trkpt><trkpt lat="42.86809262538723" lon="9.348777716657894"><ele>60.0</ele><time>2026-05-01T08:36:40Z</time></trkpt><trkpt lat="42.86794729087048" lon="9.348872040467379"><ele>57.0</ele><time>2026-05-01T08:36:41Z</time></trkpt><trkpt lat="42.867820702944876" lon="9.348998589007492"><ele>57.0</ele><time>2026-05-01T08:36:42Z</time></trkpt><trkpt lat="42.86774799721653" lon="9.349178142725327"><ele>57.0</ele><time>2026-05-01T08:36:43Z</time></trkpt><trkpt lat="42.86773419045205" lon="9.349381449046799"><ele>57.0</ele><time>2026-05-01T08:36:44Z</time></trkpt><trkpt lat="42.86776087396356" lon="9.349620884554911"><ele>59.25</ele><time>2026-05-01T08:36:45Z</time></trkpt><trkpt lat="42.86777076455525" lon="9.349879753456579"><ele>61.5</ele><time>2026-05-01T08:36:46Z</time></trkpt><trkpt lat="42.86777262795505" lon="9.350093400340782"><ele>63.75</ele><time>2026-05-01T08:36:47Z</time></trkpt><trkpt lat="42.86774291746867" lon="9.350226042892736"><ele>66.0</ele><time>2026-05-01T08:36:48Z</time></trkpt><trkpt lat="42.86764436056817" lon="9.35026656707216"><ele>62.5</ele><time>2026-05-01T08:36:49Z</time></trkpt><trkpt lat="42.86752766810415" lon="9.350251364812197"><ele>59.0</ele><time>2026-05-01T08:36:50Z</time></trkpt><trkpt lat="42.867391926752084" lon="9.350252848002556"><ele>55.5</ele><time>2026-05-01T08:36:51Z</time></trkpt><trkpt lat="42.86730714409587" lon="9.350103919696705"><ele>52.0</ele><time>2026-05-01T08:36:52Z</time></trkpt><trkpt lat="42.867290284455464" lon="9.349907028054806"><ele>49.0</ele><time>2026-05-01T08:36:53Z</time></trkpt><trkpt lat="42.867317479466635" lon="9.34967441731303"><ele>46.0</ele><time>2026-05-01T08:36:54Z</time></trkpt><trkpt lat="42.867302157071755" lon="9.34941641551284"><ele>43.0</ele><time>2026-05-01T08:36:55Z</time></trkpt><trkpt lat="42.867262459541976" lon="9.34917040111654"><ele>43.0</ele><time>2026-05-01T08:36:56Z</time></trkpt><trkpt lat="42.867242821657705" lon="9.348942151741847"><ele>43.0</ele><time>2026-05-01T08:36:57Z</time></trkpt><trkpt lat="42.867285378833046" lon="9.348774971438578"><ele>43.0</ele><time>2026-05-01T08:36:58Z</time></trkpt><trkpt lat="42.86734154622362" lon="9.348650983835471"><ele>43.0</ele><time>2026-05-01T08:36:59Z</time></trkpt><trkpt lat="42.86740873478828" lon="9.348559278096783"><ele>41.333333333333336</ele><time>2026-05-01T08:37:00Z</time></trkpt><trkpt lat="42.86746144063567" lon="9.34844610171836"><ele>39.66666666666667</ele><time>2026-05-01T08:37:01Z</time></trkpt><trkpt lat="42.86750450613505" lon="9.348362857594775"><ele>38.0</ele><time>2026-05-01T08:37:02Z</time></trkpt><trkpt lat="42.867514034555114" lon="9.348273553734689"><ele>36.333333333333336</ele><time>2026-05-01T08:37:03Z</time></trkpt><trkpt lat="42.86748401052123" lon="9.348162111354027"><ele>34.666666666666664</ele><time>2026-05-01T08:37:04Z</time></trkpt><trkpt lat="42.86743378571803" lon="9.348048585939175"><ele>33.0</ele><time>2026-05-01T08:37:05Z</time></trkpt><trkpt lat="42.8673645460595" lon="9.347938946344643"><ele>31.799999999999997</ele><time>2026-05-01T08:37:06Z</time></trkpt><trkpt lat="42.86730031569406" lon="9.347841404307411"><ele>30.599999999999998</ele><time>2026-05-01T08:37:07Z</time></trkpt><trkpt lat="42.86724137340131" lon="9.347753608221527"><ele>29.400000000000002</ele><time>2026-05-01T08:37:08Z</time></trkpt><trkpt lat="42.86717208707547" lon="9.347678136111838"><ele>28.200000000000003</ele><time>2026-05-01T08:37:09Z</time></trkpt><trkpt lat="42.86709005303809" lon="9.34761252530858"><ele>27.0</ele><time>2026-05-01T08:37:10Z</time></trkpt><trkpt lat="42.866998124221276" lon="9.347573322207861"><ele>27.0</ele><time>2026-05-01T08:37:11Z</time></trkpt><trkpt lat="42.866889718383334" lon="9.347565946196882"><ele>27.000000000000004</ele><time>2026-05-01T08:37:12Z</time></trkpt><trkpt lat="42.86678455134674" lon="9.347569280720194"><ele>27.000000000000004</ele><time>2026-05-01T08:37:12.999Z</time></trkpt><trkpt lat="42.866687237181935" lon="9.347585311493813"><ele>27.0</ele><time>2026-05-01T08:37:13.999Z</time></trkpt><trkpt lat="42.866592675158714" lon="9.347604729608884"><ele>27.0</ele><time>2026-05-01T08:37:14.999Z</time></trkpt><trkpt lat="42.866499235216025" lon="9.347655055921427"><ele>26.400000000000002</ele><time>2026-05-01T08:37:15.999Z</time></trkpt><trkpt lat="42.866422313105275" lon="9.347744742723437"><ele>25.800000000000004</ele><time>2026-05-01T08:37:16.999Z</time></trkpt><trkpt lat="42.8663599897183" lon="9.347854652654712"><ele>25.2</ele><time>2026-05-01T08:37:17.999Z</time></trkpt><trkpt lat="42.86629552360661" lon="9.347968143022658"><ele>24.6</ele><time>2026-05-01T08:37:18.999Z</time></trkpt><trkpt lat="42.86621299129258" lon="9.348055406335122"><ele>24.0</ele><time>2026-05-01T08:37:19.999Z</time></trkpt><trkpt lat="42.86613221246406" lon="9.348136466548993"><ele>25.0</ele><time>2026-05-01T08:37:20.999Z</time></trkpt><trkpt lat="42.866043375565496" lon="9.348204770897192"><ele>26.0</ele><time>2026-05-01T08:37:21.999Z</time></trkpt><trkpt lat="42.865955473871274" lon="9.348260626659053"><ele>27.0</ele><time>2026-05-01T08:37:22.999Z</time></trkpt><trkpt lat="42.865871688351355" lon="9.34830664020679"><ele>28.0</ele><time>2026-05-01T08:37:23.999Z</time></trkpt><trkpt lat="42.865796896351746" lon="9.3483462985696"><ele>29.0</ele><time>2026-05-01T08:37:24.999Z</time></trkpt><trkpt lat="42.86572507916645" lon="9.348395883882386"><ele>29.0</ele><time>2026-05-01T08:37:25.999Z</time></trkpt><trkpt lat="42.86563328935065" lon="9.348392504083185"><ele>29.0</ele><time>2026-05-01T08:37:26.999Z</time></trkpt><trkpt lat="42.865532600064896" lon="9.34839104054982"><ele>29.0</ele><time>2026-05-01T08:37:27.999Z</time></trkpt><trkpt lat="42.86543345593256" lon="9.34838244845356"><ele>29.0</ele><time>2026-05-01T08:37:28.999Z</time></trkpt><trkpt lat="42.86533933024064" lon="9.348374097321654"><ele>29.0</ele><time>2026-05-01T08:37:29.999Z</time></trkpt><trkpt lat="42.86524618154707" lon="9.348397836012591"><ele>29.0</ele><time>2026-05-01T08:37:30.999Z</time></trkpt><trkpt lat="42.865153778398074" lon="9.348385388426243"><ele>29.0</ele><time>2026-05-01T08:37:31.999Z</time></trkpt><trkpt lat="42.86506456843779" lon="9.34837782827849"><ele>29.0</ele><time>2026-05-01T08:37:32.999Z</time></trkpt><trkpt lat="42.86497384413178" lon="9.348343350566067"><ele>29.0</ele><time>2026-05-01T08:37:33.999Z</time></trkpt><trkpt lat="42.864888510869186" lon="9.34828558449528"><ele>29.0</ele><time>2026-05-01T08:37:34.999Z</time></trkpt><trkpt lat="42.86482823352059" lon="9.348194373122709"><ele>28.6</ele><time>2026-05-01T08:37:35.999Z</time></trkpt><trkpt lat="42.86480398028585" lon="9.348080917985152"><ele>28.2</ele><time>2026-05-01T08:37:36.999Z</time></trkpt><trkpt lat="42.86483534148136" lon="9.34795894914605"><ele>27.800000000000004</ele><time>2026-05-01T08:37:37.999Z</time></trkpt><trkpt lat="42.86486592149235" lon="9.347841211002915"><ele>27.400000000000002</ele><time>2026-05-01T08:37:38.999Z</time></trkpt><trkpt lat="42.864912084778325" lon="9.347729162165543"><ele>27.0</ele><time>2026-05-01T08:37:39.999Z</time></trkpt><trkpt lat="42.864948867923275" lon="9.347589842619922"><ele>26.8</ele><time>2026-05-01T08:37:40.999Z</time></trkpt><trkpt lat="42.865004344167126" lon="9.347463854311114"><ele>26.6</ele><time>2026-05-01T08:37:41.999Z</time></trkpt><trkpt lat="42.865059631641664" lon="9.347333408504916"><ele>26.400000000000002</ele><time>2026-05-01T08:37:42.999Z</time></trkpt><trkpt lat="42.865108738341725" lon="9.347212477567421"><ele>26.200000000000003</ele><time>2026-05-01T08:37:43.999Z</time></trkpt><trkpt lat="42.86515871610219" lon="9.34709968604955"><ele>26.0</ele><time>2026-05-01T08:37:44.999Z</time></trkpt><trkpt lat="42.86521406346179" lon="9.346989086394247"><ele>27.75</ele><time>2026-05-01T08:37:45.999Z</time></trkpt><trkpt lat="42.865229707258" lon="9.346857819012191"><ele>29.5</ele><time>2026-05-01T08:37:46.999Z</time></trkpt><trkpt lat="42.86521845758559" lon="9.346730003894367"><ele>31.25</ele><time>2026-05-01T08:37:47.999Z</time></trkpt><trkpt lat="42.865167008944624" lon="9.3465654659563"><ele>33.0</ele><time>2026-05-01T08:37:49Z</time></trkpt><trkpt lat="42.8651052362873" lon="9.346347286920613"><ele>33.0</ele><time>2026-05-01T08:37:50Z</time></trkpt><trkpt lat="42.86504286899479" lon="9.346098725126156"><ele>33.0</ele><time>2026-05-01T08:37:51Z</time></trkpt><trkpt lat="42.865007783993626" lon="9.345803369763651"><ele>33.0</ele><time>2026-05-01T08:37:52Z</time></trkpt><trkpt lat="42.86497378455676" lon="9.345478248108975"><ele>35.0</ele><time>2026-05-01T08:37:53Z</time></trkpt><trkpt lat="42.864944468345854" lon="9.345150941348642"><ele>37.0</ele><time>2026-05-01T08:37:54Z</time></trkpt><trkpt lat="42.864945512341144" lon="9.344839872988558"><ele>36.0</ele><time>2026-05-01T08:37:55Z</time></trkpt><trkpt lat="42.86494128291453" lon="9.344565268028434"><ele>35.0</ele><time>2026-05-01T08:37:56Z</time></trkpt><trkpt lat="42.86493854549349" lon="9.344326829781046"><ele>34.0</ele><time>2026-05-01T08:37:57Z</time></trkpt><trkpt lat="42.86492121450084" lon="9.344119608324299"><ele>34.0</ele><time>2026-05-01T08:37:58Z</time></trkpt><trkpt lat="42.86487153577172" lon="9.343922465276625"><ele>34.0</ele><time>2026-05-01T08:37:59Z</time></trkpt><trkpt lat="42.86478400927568" lon="9.34373317173254"><ele>34.0</ele><time>2026-05-01T08:38:00Z</time></trkpt><trkpt lat="42.86476711194243" lon="9.343517033806995"><ele>31.5</ele><time>2026-05-01T08:38:01Z</time></trkpt><trkpt lat="42.86473020052732" lon="9.343310246163826"><ele>29.0</ele><time>2026-05-01T08:38:02Z</time></trkpt><trkpt lat="42.864667130388796" lon="9.343171821162697"><ele>26.5</ele><time>2026-05-01T08:38:03Z</time></trkpt><trkpt lat="42.864553781383535" lon="9.343097314313114"><ele>24.0</ele><time>2026-05-01T08:38:04Z</time></trkpt><trkpt lat="42.864399460519905" lon="9.34310091554309"><ele>29.5</ele><time>2026-05-01T08:38:05Z</time></trkpt><trkpt lat="42.86424020319802" lon="9.343140497933822"><ele>35.0</ele><time>2026-05-01T08:38:06Z</time></trkpt><trkpt lat="42.864106080036464" lon="9.343121716989963"><ele>40.5</ele><time>2026-05-01T08:38:07Z</time></trkpt><trkpt lat="42.8640277330785" lon="9.343007954941456"><ele>46.0</ele><time>2026-05-01T08:38:08Z</time></trkpt><trkpt lat="42.86403127690518" lon="9.342861802497708"><ele>46.0</ele><time>2026-05-01T08:38:09Z</time></trkpt><trkpt lat="42.864104974339206" lon="9.342718157093323"><ele>46.0</ele><time>2026-05-01T08:38:10Z</time></trkpt><trkpt lat="42.86411630283224" lon="9.34258147165541"><ele>46.0</ele><time>2026-05-01T08:38:11Z</time></trkpt><trkpt lat="42.86408146505767" lon="9.34247018449675"><ele>46.0</ele><time>2026-05-01T08:38:12Z</time></trkpt><trkpt lat="42.86400240053348" lon="9.342390958525508"><ele>46.0</ele><time>2026-05-01T08:38:13Z</time></trkpt><trkpt lat="42.863918750609855" lon="9.342276124958293"><ele>46.5</ele><time>2026-05-01T08:38:14Z</time></trkpt><trkpt lat="42.863840654992025" lon="9.342132926524485"><ele>47.0</ele><time>2026-05-01T08:38:15Z</time></trkpt><trkpt lat="42.863793284216555" lon="9.341961463281013"><ele>47.5</ele><time>2026-05-01T08:38:16Z</time></trkpt><trkpt lat="42.86378172983248" lon="9.341797458851072"><ele>48.0</ele><time>2026-05-01T08:38:17Z</time></trkpt><trkpt lat="42.863820438797504" lon="9.341659549186277"><ele>48.0</ele><time>2026-05-01T08:38:18Z</time></trkpt><trkpt lat="42.86393470110063" lon="9.34157547959665"><ele>48.0</ele><time>2026-05-01T08:38:19Z</time></trkpt><trkpt lat="42.86408547049379" lon="9.34149436204404"><ele>48.0</ele><time>2026-05-01T08:38:20Z</time></trkpt><trkpt lat="42.86424593221065" lon="9.341392605383737"><ele>43.75</ele><time>2026-05-01T08:38:21Z</time></trkpt><trkpt lat="42.86435438271974" lon="9.341295047608737"><ele>39.5</ele><time>2026-05-01T08:38:22Z</time></trkpt><trkpt lat="42.864424273836164" lon="9.341136644403777"><ele>35.25</ele><time>2026-05-01T08:38:23Z</time></trkpt><trkpt lat="42.86443271616245" lon="9.34094567780034"><ele>31.0</ele><time>2026-05-01T08:38:24Z</time></trkpt><trkpt lat="42.86439803044673" lon="9.340752133723138"><ele>30.0</ele><time>2026-05-01T08:38:25Z</time></trkpt><trkpt lat="42.8643643889218" lon="9.340547344834727"><ele>29.0</ele><time>2026-05-01T08:38:26Z</time></trkpt><trkpt lat="42.86443967366816" lon="9.340352624760222"><ele>28.0</ele><time>2026-05-01T08:38:27Z</time></trkpt><trkpt lat="42.86450297040065" lon="9.340136872808602"><ele>28.0</ele><time>2026-05-01T08:38:28Z</time></trkpt><trkpt lat="42.86451636145039" lon="9.339915400485783"><ele>28.0</ele><time>2026-05-01T08:38:29Z</time></trkpt><trkpt lat="42.86446571424275" lon="9.339687174299753"><ele>28.0</ele><time>2026-05-01T08:38:30Z</time></trkpt><trkpt lat="42.864388549396956" lon="9.33943728106493"><ele>24.666666666666668</ele><time>2026-05-01T08:38:31Z</time></trkpt><trkpt lat="42.86436045687387" lon="9.339171670895476"><ele>21.333333333333336</ele><time>2026-05-01T08:38:32Z</time></trkpt><trkpt lat="42.864385998588695" lon="9.338923284146945"><ele>18.0</ele><time>2026-05-01T08:38:33Z</time></trkpt><trkpt lat="42.86442455106697" lon="9.33871795549753"><ele>15.25</ele><time>2026-05-01T08:38:34Z</time></trkpt><trkpt lat="42.864417514449364" lon="9.3385431147686"><ele>12.5</ele><time>2026-05-01T08:38:35Z</time></trkpt><trkpt lat="42.86434691134382" lon="9.33841061812767"><ele>9.75</ele><time>2026-05-01T08:38:36Z</time></trkpt><trkpt lat="42.86423223643923" lon="9.338327195350283"><ele>7.0</ele><time>2026-05-01T08:38:37Z</time></trkpt><trkpt lat="42.86409241019665" lon="9.338296662699749"><ele>21.0</ele><time>2026-05-01T08:38:38Z</time></trkpt><trkpt lat="42.86394332460823" lon="9.338293805378225"><ele>35.0</ele><time>2026-05-01T08:38:39Z</time></trkpt><trkpt lat="42.863794166585926" lon="9.338371091252407"><ele>49.0</ele><time>2026-05-01T08:38:40Z</time></trkpt><trkpt lat="42.8636531516759" lon="9.338530005911425"><ele>49.0</ele><time>2026-05-01T08:38:41Z</time></trkpt><trkpt lat="42.863546163052646" lon="9.338578797744056"><ele>49.0</ele><time>2026-05-01T08:38:42Z</time></trkpt><trkpt lat="42.86344516580676" lon="9.338500507501667"><ele>49.0</ele><time>2026-05-01T08:38:43Z</time></trkpt><trkpt lat="42.86339654432974" lon="9.338354052190839"><ele>49.0</ele><time>2026-05-01T08:38:44Z</time></trkpt><trkpt lat="42.86339609834852" lon="9.338153666708704"><ele>59.33333333333333</ele><time>2026-05-01T08:38:45Z</time></trkpt><trkpt lat="42.863379244679244" lon="9.33792776653014"><ele>69.66666666666667</ele><time>2026-05-01T08:38:46Z</time></trkpt><trkpt lat="42.86338734919784" lon="9.33768328859489"><ele>80.0</ele><time>2026-05-01T08:38:47Z</time></trkpt><trkpt lat="42.86343171363445" lon="9.337491225801115"><ele>70.2</ele><time>2026-05-01T08:38:48Z</time></trkpt><trkpt lat="42.86352678280581" lon="9.337380537805602"><ele>60.4</ele><time>2026-05-01T08:38:49Z</time></trkpt><trkpt lat="42.86358803101784" lon="9.337289028843289"><ele>50.6</ele><time>2026-05-01T08:38:50Z</time></trkpt><trkpt lat="42.86365358393621" lon="9.337261254129468"><ele>40.8</ele><time>2026-05-01T08:38:52Z</time></trkpt><trkpt lat="42.86363359520012" lon="9.337115937628298"><ele>31.0</ele><time>2026-05-01T08:39:43.999Z</time></trkpt><trkpt lat="42.86362738303722" lon="9.337007050847564"><ele>29.25</ele><time>2026-05-01T08:39:44.999Z</time></trkpt><trkpt lat="42.863629063184746" lon="9.33685571800617"><ele>27.5</ele><time>2026-05-01T08:39:45.999Z</time></trkpt><trkpt lat="42.86361881304979" lon="9.336646452118277"><ele>25.75</ele><time>2026-05-01T08:39:46.999Z</time></trkpt><trkpt lat="42.86358308676106" lon="9.33650927218453"><ele>24.0</ele><time>2026-05-01T08:39:47.999Z</time></trkpt><trkpt lat="42.863504683224136" lon="9.336424091009746"><ele>31.4</ele><time>2026-05-01T08:39:48.999Z</time></trkpt><trkpt lat="42.86341796199715" lon="9.336347977588922"><ele>38.8</ele><time>2026-05-01T08:39:49.999Z</time></trkpt><trkpt lat="42.86338440925495" lon="9.336237899898551"><ele>46.199999999999996</ele><time>2026-05-01T08:39:50.999Z</time></trkpt><trkpt lat="42.8634266529377" lon="9.336101706013022"><ele>53.599999999999994</ele><time>2026-05-01T08:39:51.999Z</time></trkpt><trkpt lat="42.863407466496966" lon="9.33596910076804"><ele>61.0</ele><time>2026-05-01T08:39:52.999Z</time></trkpt><trkpt lat="42.86337889565371" lon="9.335824243391258"><ele>61.0</ele><time>2026-05-01T08:39:53.999Z</time></trkpt><trkpt lat="42.86331558088524" lon="9.335668951654002"><ele>61.0</ele><time>2026-05-01T08:39:54.999Z</time></trkpt><trkpt lat="42.863233839333205" lon="9.335528560016638"><ele>61.0</ele><time>2026-05-01T08:39:55.999Z</time></trkpt><trkpt lat="42.86312985082409" lon="9.335414128073374"><ele>61.0</ele><time>2026-05-01T08:39:56.999Z</time></trkpt><trkpt lat="42.8630106591923" lon="9.335338716037706"><ele>54.5</ele><time>2026-05-01T08:39:57.999Z</time></trkpt><trkpt lat="42.86289221469162" lon="9.33527236999189"><ele>48.0</ele><time>2026-05-01T08:39:58.999Z</time></trkpt><trkpt lat="42.862782079529744" lon="9.335185911382773"><ele>41.5</ele><time>2026-05-01T08:39:59.999Z</time></trkpt><trkpt lat="42.86269400283402" lon="9.335067288537394"><ele>35.0</ele><time>2026-05-01T08:40:00.999Z</time></trkpt><trkpt lat="42.86263856236194" lon="9.334931419393856"><ele>43.2</ele><time>2026-05-01T08:40:01.999Z</time></trkpt><trkpt lat="42.86256826253524" lon="9.334814763972227"><ele>51.4</ele><time>2026-05-01T08:40:02.999Z</time></trkpt><trkpt lat="42.862459571199814" lon="9.334772916449383"><ele>59.599999999999994</ele><time>2026-05-01T08:40:03.999Z</time></trkpt><trkpt lat="42.86235375622654" lon="9.334761043236593"><ele>67.8</ele><time>2026-05-01T08:40:04.999Z</time></trkpt><trkpt lat="42.86225633114526" lon="9.334836677903949"><ele>76.0</ele><time>2026-05-01T08:40:05.999Z</time></trkpt><trkpt lat="42.86216393624362" lon="9.33496601217599"><ele>76.0</ele><time>2026-05-01T08:40:06.999Z</time></trkpt><trkpt lat="42.86211604809136" lon="9.3351108054188"><ele>76.0</ele><time>2026-05-01T08:40:07.999Z</time></trkpt><trkpt lat="42.86205711499062" lon="9.335195477244168"><ele>76.0</ele><time>2026-05-01T08:40:08.999Z</time></trkpt><trkpt lat="42.86196606146364" lon="9.335231123505006"><ele>76.0</ele><time>2026-05-01T08:40:09.999Z</time></trkpt><trkpt lat="42.86186681655628" lon="9.335243775833916"><ele>76.0</ele><time>2026-05-01T08:40:10.999Z</time></trkpt><trkpt lat="42.86178020132924" lon="9.335274749959448"><ele>79.6</ele><time>2026-05-01T08:40:11.999Z</time></trkpt><trkpt lat="42.861691374918706" lon="9.335342451387477"><ele>83.19999999999999</ele><time>2026-05-01T08:40:12.999Z</time></trkpt><trkpt lat="42.86161256588905" lon="9.335433258140093"><ele>86.80000000000001</ele><time>2026-05-01T08:40:13.999Z</time></trkpt><trkpt lat="42.86154281759066" lon="9.33554156702976"><ele>90.4</ele><time>2026-05-01T08:40:14.999Z</time></trkpt><trkpt lat="42.861484724138904" lon="9.335666856371061"><ele>94.0</ele><time>2026-05-01T08:40:16Z</time></trkpt><trkpt lat="42.86144965613097" lon="9.335822247832658"><ele>94.0</ele><time>2026-05-01T08:40:17Z</time></trkpt><trkpt lat="42.86140265855796" lon="9.335970836377268"><ele>94.0</ele><time>2026-05-01T08:40:18Z</time></trkpt><trkpt lat="42.86131834668517" lon="9.336106076675433"><ele>94.0</ele><time>2026-05-01T08:40:19Z</time></trkpt><trkpt lat="42.86122507428954" lon="9.336264568357594"><ele>94.0</ele><time>2026-05-01T08:40:20Z</time></trkpt><trkpt lat="42.86114404985269" lon="9.336392623086953"><ele>94.6</ele><time>2026-05-01T08:40:21Z</time></trkpt><trkpt lat="42.86107704619462" lon="9.336513665781494"><ele>95.2</ele><time>2026-05-01T08:40:22Z</time></trkpt><trkpt lat="42.86101314839325" lon="9.33661846495789"><ele>95.8</ele><time>2026-05-01T08:40:23Z</time></trkpt><trkpt lat="42.86094006497232" lon="9.336703405476163"><ele>96.39999999999999</ele><time>2026-05-01T08:40:24Z</time></trkpt><trkpt lat="42.8608490511924" lon="9.33675963486817"><ele>97.0</ele><time>2026-05-01T08:40:25Z</time></trkpt><trkpt lat="42.86077361701243" lon="9.336774940721263"><ele>97.0</ele><time>2026-05-01T08:40:26Z</time></trkpt><trkpt lat="42.86068669805927" lon="9.336722851682275"><ele>97.0</ele><time>2026-05-01T08:40:27Z</time></trkpt><trkpt lat="42.860648365048704" lon="9.336580432528253"><ele>97.0</ele><time>2026-05-01T08:40:28Z</time></trkpt><trkpt lat="42.860627529512755" lon="9.336414090291779"><ele>97.0</ele><time>2026-05-01T08:40:29Z</time></trkpt><trkpt lat="42.860550454485626" lon="9.336264770454257"><ele>97.25</ele><time>2026-05-01T08:40:30Z</time></trkpt><trkpt lat="42.860478685752064" lon="9.336104526437433"><ele>97.5</ele><time>2026-05-01T08:40:31Z</time></trkpt><trkpt lat="42.860372789224186" lon="9.335990614513715"><ele>97.75</ele><time>2026-05-01T08:40:32Z</time></trkpt><trkpt lat="42.860245194007106" lon="9.335927521468033"><ele>98.0</ele><time>2026-05-01T08:40:33Z</time></trkpt><trkpt lat="42.86011082145654" lon="9.335896966375053"><ele>98.0</ele><time>2026-05-01T08:40:34Z</time></trkpt><trkpt lat="42.85999926323246" lon="9.335833453881177"><ele>98.0</ele><time>2026-05-01T08:40:35Z</time></trkpt><trkpt lat="42.85990556504787" lon="9.335787370574785"><ele>98.0</ele><time>2026-05-01T08:40:36Z</time></trkpt><trkpt lat="42.85982636032997" lon="9.335713365359803"><ele>98.0</ele><time>2026-05-01T08:40:37Z</time></trkpt><trkpt lat="42.85976140346809" lon="9.335601595690163"><ele>98.0</ele><time>2026-05-01T08:40:38Z</time></trkpt><trkpt lat="42.85970954109674" lon="9.33545218815208"><ele>88.75</ele><time>2026-05-01T08:40:39Z</time></trkpt><trkpt lat="42.85963424698404" lon="9.335328129557071"><ele>79.5</ele><time>2026-05-01T08:40:40Z</time></trkpt><trkpt lat="42.85953176464458" lon="9.335245440671644"><ele>70.25</ele><time>2026-05-01T08:40:41Z</time></trkpt><trkpt lat="42.8594079364497" lon="9.335167271324893"><ele>61.0</ele><time>2026-05-01T08:40:42Z</time></trkpt><trkpt lat="42.859296336801265" lon="9.335058546748478"><ele>61.666666666666664</ele><time>2026-05-01T08:40:43Z</time></trkpt><trkpt lat="42.859223331903195" lon="9.33493440137279"><ele>62.33333333333333</ele><time>2026-05-01T08:40:44Z</time></trkpt><trkpt lat="42.85915118219586" lon="9.334836547577513"><ele>63.0</ele><time>2026-05-01T08:40:45Z</time></trkpt><trkpt lat="42.8590891438573" lon="9.334772121084377"><ele>63.66666666666667</ele><time>2026-05-01T08:40:46Z</time></trkpt><trkpt lat="42.859036165019155" lon="9.334714616682998"><ele>64.33333333333334</ele><time>2026-05-01T08:40:47Z</time></trkpt><trkpt lat="42.858985643443646" lon="9.334650320280954"><ele>65.0</ele><time>2026-05-01T08:40:48Z</time></trkpt><trkpt lat="42.85889976767762" lon="9.334637284555015"><ele>65.0</ele><time>2026-05-01T08:40:49Z</time></trkpt><trkpt lat="42.85881109777155" lon="9.334671642534937"><ele>65.0</ele><time>2026-05-01T08:40:50Z</time></trkpt><trkpt lat="42.858737654592666" lon="9.33480909938468"><ele>65.0</ele><time>2026-05-01T08:40:51Z</time></trkpt><trkpt lat="42.85865027953461" lon="9.334908071968899"><ele>65.0</ele><time>2026-05-01T08:40:52Z</time></trkpt><trkpt lat="42.85855282552927" lon="9.334976766965964"><ele>65.0</ele><time>2026-05-01T08:40:53Z</time></trkpt><trkpt lat="42.858431737823054" lon="9.33499210305862"><ele>73.75</ele><time>2026-05-01T08:40:54Z</time></trkpt><trkpt lat="42.858304069996926" lon="9.33499720904356"><ele>82.5</ele><time>2026-05-01T08:40:55Z</time></trkpt><trkpt lat="42.858173159376996" lon="9.335025050285287"><ele>91.25</ele><time>2026-05-01T08:40:56Z</time></trkpt><trkpt lat="42.85806932505664" lon="9.335097433351958"><ele>100.0</ele><time>2026-05-01T08:40:57Z</time></trkpt><trkpt lat="42.857973429408304" lon="9.335139957133975"><ele>100.0</ele><time>2026-05-01T08:40:58Z</time></trkpt><trkpt lat="42.85787320619856" lon="9.335150362302658"><ele>100.0</ele><time>2026-05-01T08:40:59Z</time></trkpt><trkpt lat="42.85777145216209" lon="9.335110429335696"><ele>100.0</ele><time>2026-05-01T08:41:00Z</time></trkpt><trkpt lat="42.85767677767257" lon="9.335046186410418"><ele>100.0</ele><time>2026-05-01T08:41:01Z</time></trkpt><trkpt lat="42.85756571694729" lon="9.334984793178956"><ele>100.0</ele><time>2026-05-01T08:41:02Z</time></trkpt><trkpt lat="42.857472894906365" lon="9.334888101560171"><ele>99.5</ele><time>2026-05-01T08:41:03Z</time></trkpt><trkpt lat="42.85736195766399" lon="9.334808338285342"><ele>99.0</ele><time>2026-05-01T08:41:04Z</time></trkpt><trkpt lat="42.85725300448168" lon="9.334729216728462"><ele>98.5</ele><time>2026-05-01T08:41:05Z</time></trkpt><trkpt lat="42.857179835285905" lon="9.334609866541552"><ele>98.0</ele><time>2026-05-01T08:41:06Z</time></trkpt><trkpt lat="42.8571400925719" lon="9.334479733226996"><ele>98.0</ele><time>2026-05-01T08:41:07Z</time></trkpt><trkpt lat="42.85714108738347" lon="9.334331883371625"><ele>98.0</ele><time>2026-05-01T08:41:08Z</time></trkpt><trkpt lat="42.857181899056954" lon="9.334177255203594"><ele>98.0</ele><time>2026-05-01T08:41:09Z</time></trkpt><trkpt lat="42.85724748312542" lon="9.334045055401383"><ele>98.0</ele><time>2026-05-01T08:41:10Z</time></trkpt><trkpt lat="42.85729919331401" lon="9.33391802144467"><ele>95.0</ele><time>2026-05-01T08:41:11Z</time></trkpt><trkpt lat="42.857309973982645" lon="9.333776548450835"><ele>92.0</ele><time>2026-05-01T08:41:11.999Z</time></trkpt><trkpt lat="42.85728619626237" lon="9.333632541985986"><ele>89.0</ele><time>2026-05-01T08:41:12.999Z</time></trkpt><trkpt lat="42.85720949102218" lon="9.333497561090956"><ele>86.0</ele><time>2026-05-01T08:41:13.999Z</time></trkpt><trkpt lat="42.85710986301462" lon="9.333375336522574"><ele>86.0</ele><time>2026-05-01T08:41:14.999Z</time></trkpt><trkpt lat="42.85696917336861" lon="9.333253804926144"><ele>86.0</ele><time>2026-05-01T08:41:15.999Z</time></trkpt><trkpt lat="42.856795330861196" lon="9.333131282408793"><ele>86.0</ele><time>2026-05-01T08:41:16.999Z</time></trkpt><trkpt lat="42.856629524126575" lon="9.33301007162952"><ele>86.5</ele><time>2026-05-01T08:41:17.999Z</time></trkpt><trkpt lat="42.85649147445757" lon="9.332898779915148"><ele>87.0</ele><time>2026-05-01T08:41:18.999Z</time></trkpt><trkpt lat="42.85636611773283" lon="9.332799576973155"><ele>87.5</ele><time>2026-05-01T08:41:19.999Z</time></trkpt><trkpt lat="42.85625024091554" lon="9.332709844971353"><ele>88.0</ele><time>2026-05-01T08:41:20.999Z</time></trkpt><trkpt lat="42.856151686538325" lon="9.332634280344537"><ele>88.0</ele><time>2026-05-01T08:41:21.999Z</time></trkpt><trkpt lat="42.856056730462484" lon="9.332577993127012"><ele>88.0</ele><time>2026-05-01T08:41:22.999Z</time></trkpt><trkpt lat="42.855947030142175" lon="9.332565418254344"><ele>88.0</ele><time>2026-05-01T08:41:23.999Z</time></trkpt><trkpt lat="42.85580202191637" lon="9.33260042588497"><ele>88.0</ele><time>2026-05-01T08:41:24.999Z</time></trkpt><trkpt lat="42.85559923505025" lon="9.332654088638153"><ele>97.0</ele><time>2026-05-01T08:41:25.999Z</time></trkpt><trkpt lat="42.85537413975638" lon="9.332717947021345"><ele>106.0</ele><time>2026-05-01T08:41:26.999Z</time></trkpt><trkpt lat="42.85516344428975" lon="9.332813480559176"><ele>105.66666666666667</ele><time>2026-05-01T08:41:27.999Z</time></trkpt><trkpt lat="42.854989499316154" lon="9.332915599346814"><ele>105.33333333333334</ele><time>2026-05-01T08:41:28.999Z</time></trkpt><trkpt lat="42.85484003927643" lon="9.333013166588984"><ele>105.0</ele><time>2026-05-01T08:41:29.999Z</time></trkpt><trkpt lat="42.854720241119914" lon="9.332978556157878"><ele>105.0</ele><time>2026-05-01T08:41:30.999Z</time></trkpt><trkpt lat="42.854593916889115" lon="9.332913715523688"><ele>105.0</ele><time>2026-05-01T08:41:31.999Z</time></trkpt><trkpt lat="42.854427560334344" lon="9.332823190772045"><ele>105.0</ele><time>2026-05-01T08:41:32.999Z</time></trkpt><trkpt lat="42.85425940687099" lon="9.332704134721146"><ele>107.66666666666666</ele><time>2026-05-01T08:41:33.999Z</time></trkpt><trkpt lat="42.85409278184678" lon="9.332607286547187"><ele>110.33333333333333</ele><time>2026-05-01T08:41:34.999Z</time></trkpt><trkpt lat="42.85392923379762" lon="9.332543821198257"><ele>113.0</ele><time>2026-05-01T08:41:35.999Z</time></trkpt><trkpt lat="42.853759061647104" lon="9.332528086752468"><ele>113.0</ele><time>2026-05-01T08:41:36.999Z</time></trkpt><trkpt lat="42.85361056450139" lon="9.332493449643946"><ele>113.0</ele><time>2026-05-01T08:41:37.999Z</time></trkpt><trkpt lat="42.85347707409889" lon="9.332457231333578"><ele>113.0</ele><time>2026-05-01T08:41:38.999Z</time></trkpt><trkpt lat="42.85334755603903" lon="9.332408633499684"><ele>113.0</ele><time>2026-05-01T08:41:39.999Z</time></trkpt><trkpt lat="42.85322446397843" lon="9.332347512993085"><ele>117.0</ele><time>2026-05-01T08:41:40.999Z</time></trkpt><trkpt lat="42.85310636006654" lon="9.332256848093623"><ele>121.0</ele><time>2026-05-01T08:41:41.999Z</time></trkpt><trkpt lat="42.85299656752824" lon="9.33214574310303"><ele>125.0</ele><time>2026-05-01T08:41:42.999Z</time></trkpt><trkpt lat="42.85288791393182" lon="9.332037746700577"><ele>129.0</ele><time>2026-05-01T08:41:43.999Z</time></trkpt><trkpt lat="42.8527819414967" lon="9.331912348089928"><ele>130.75</ele><time>2026-05-01T08:41:44.999Z</time></trkpt><trkpt lat="42.85269681965119" lon="9.331777581402159"><ele>132.5</ele><time>2026-05-01T08:41:45.999Z</time></trkpt><trkpt lat="42.85265338883979" lon="9.331604781091338"><ele>134.25</ele><time>2026-05-01T08:41:46.999Z</time></trkpt><trkpt lat="42.852568086367484" lon="9.331498815535491"><ele>136.0</ele><time>2026-05-01T08:41:47.999Z</time></trkpt><trkpt lat="42.85247571224038" lon="9.33141992678487"><ele>127.75</ele><time>2026-05-01T08:41:48.999Z</time></trkpt><trkpt lat="42.852345226251" lon="9.331381149160968"><ele>119.5</ele><time>2026-05-01T08:41:49.999Z</time></trkpt><trkpt lat="42.85224681532068" lon="9.331259589108308"><ele>111.25</ele><time>2026-05-01T08:41:50.999Z</time></trkpt><trkpt lat="42.85216800051719" lon="9.331127559564733"><ele>103.0</ele><time>2026-05-01T08:41:51.999Z</time></trkpt><trkpt lat="42.852067431115955" lon="9.33102095872892"><ele>103.0</ele><time>2026-05-01T08:41:52.999Z</time></trkpt><trkpt lat="42.85198574682013" lon="9.33089679123443"><ele>103.0</ele><time>2026-05-01T08:41:53.999Z</time></trkpt><trkpt lat="42.85186375079977" lon="9.330837777408666"><ele>103.0</ele><time>2026-05-01T08:41:54.999Z</time></trkpt><trkpt lat="42.85175526897488" lon="9.330743471619115"><ele>103.0</ele><time>2026-05-01T08:41:55.999Z</time></trkpt><trkpt lat="42.85164264831553" lon="9.33067637433257"><ele>104.75</ele><time>2026-05-01T08:41:56.999Z</time></trkpt><trkpt lat="42.85152721968844" lon="9.33059878016847"><ele>106.5</ele><time>2026-05-01T08:41:57.999Z</time></trkpt><trkpt lat="42.85141685629579" lon="9.330460335604313"><ele>108.25</ele><time>2026-05-01T08:41:58.999Z</time></trkpt><trkpt lat="42.85137515958918" lon="9.330317075435673"><ele>110.0</ele><time>2026-05-01T08:41:59.999Z</time></trkpt><trkpt lat="42.85133122853541" lon="9.330165457843863"><ele>110.0</ele><time>2026-05-01T08:42:01Z</time></trkpt><trkpt lat="42.85128810831575" lon="9.33001042492158"><ele>110.0</ele><time>2026-05-01T08:42:02Z</time></trkpt><trkpt lat="42.85124224608832" lon="9.329875431343991"><ele>110.0</ele><time>2026-05-01T08:42:03Z</time></trkpt><trkpt lat="42.85115921948302" lon="9.329772913859921"><ele>110.0</ele><time>2026-05-01T08:42:04Z</time></trkpt><trkpt lat="42.85102877939641" lon="9.329712979556374"><ele>114.6</ele><time>2026-05-01T08:42:05Z</time></trkpt><trkpt lat="42.85091944648878" lon="9.32963777699627"><ele>119.2</ele><time>2026-05-01T08:42:06Z</time></trkpt><trkpt lat="42.85088948270286" lon="9.329521585264006"><ele>123.80000000000001</ele><time>2026-05-01T08:42:07Z</time></trkpt><trkpt lat="42.8508972465225" lon="9.329393530013713"><ele>128.4</ele><time>2026-05-01T08:42:08Z</time></trkpt><trkpt lat="42.85097527530895" lon="9.32924448194372"><ele>133.0</ele><time>2026-05-01T08:42:09Z</time></trkpt><trkpt lat="42.850981875791284" lon="9.329089069268678"><ele>133.0</ele><time>2026-05-01T08:42:10Z</time></trkpt><trkpt lat="42.850941432758106" lon="9.328958259345857"><ele>133.0</ele><time>2026-05-01T08:42:11Z</time></trkpt><trkpt lat="42.85084479131963" lon="9.328822211168774"><ele>133.0</ele><time>2026-05-01T08:42:12Z</time></trkpt><trkpt lat="42.850700351371046" lon="9.328678240466825"><ele>133.0</ele><time>2026-05-01T08:42:13Z</time></trkpt><trkpt lat="42.85055502156841" lon="9.32851225983206"><ele>134.66666666666669</ele><time>2026-05-01T08:42:14Z</time></trkpt><trkpt lat="42.85042177248393" lon="9.328386081337822"><ele>136.33333333333334</ele><time>2026-05-01T08:42:15Z</time></trkpt><trkpt lat="42.85025917096475" lon="9.328282119132542"><ele>138.0</ele><time>2026-05-01T08:42:16Z</time></trkpt><trkpt lat="42.85006212711346" lon="9.32819117149278"><ele>138.0</ele><time>2026-05-01T08:42:17Z</time></trkpt><trkpt lat="42.84989287987431" lon="9.328079262219113"><ele>138.0</ele><time>2026-05-01T08:42:18Z</time></trkpt><trkpt lat="42.84972422886466" lon="9.327981938586221"><ele>138.0</ele><time>2026-05-01T08:42:19Z</time></trkpt><trkpt lat="42.849578940635176" lon="9.327827079500054"><ele>136.75</ele><time>2026-05-01T08:42:20Z</time></trkpt><trkpt lat="42.84944382800359" lon="9.327698990051841"><ele>135.5</ele><time>2026-05-01T08:42:21Z</time></trkpt><trkpt lat="42.849357352071706" lon="9.327584813733106"><ele>134.25</ele><time>2026-05-01T08:42:22Z</time></trkpt><trkpt lat="42.8492766726034" lon="9.32750527397865"><ele>133.0</ele><time>2026-05-01T08:42:23Z</time></trkpt><trkpt lat="42.84921312479749" lon="9.32743636593331"><ele>133.0</ele><time>2026-05-01T08:42:24Z</time></trkpt><trkpt lat="42.849128787246705" lon="9.327372295946567"><ele>133.0</ele><time>2026-05-01T08:42:25Z</time></trkpt><trkpt lat="42.84903472762115" lon="9.327304665911937"><ele>133.0</ele><time>2026-05-01T08:42:26Z</time></trkpt><trkpt lat="42.8489696911341" lon="9.327206280796657"><ele>133.0</ele><time>2026-05-01T08:42:27Z</time></trkpt><trkpt lat="42.84894167569651" lon="9.32707143778509"><ele>133.0</ele><time>2026-05-01T08:42:28Z</time></trkpt><trkpt lat="42.848907811769294" lon="9.326917817544567"><ele>129.75</ele><time>2026-05-01T08:42:29Z</time></trkpt><trkpt lat="42.84888003208239" lon="9.326771607562863"><ele>126.5</ele><time>2026-05-01T08:42:30Z</time></trkpt><trkpt lat="42.848818603752896" lon="9.32665535318391"><ele>123.25</ele><time>2026-05-01T08:42:31Z</time></trkpt><trkpt lat="42.848716168471306" lon="9.326562833965056"><ele>120.0</ele><time>2026-05-01T08:42:32Z</time></trkpt><trkpt lat="42.84859837307828" lon="9.326500731018672"><ele>120.0</ele><time>2026-05-01T08:42:33Z</time></trkpt><trkpt lat="42.84848547889173" lon="9.326431186176963"><ele>120.0</ele><time>2026-05-01T08:42:34Z</time></trkpt><trkpt lat="42.848381611056325" lon="9.326366784600193"><ele>120.0</ele><time>2026-05-01T08:42:35Z</time></trkpt><trkpt lat="42.848292886273164" lon="9.32632810517603"><ele>120.0</ele><time>2026-05-01T08:42:36Z</time></trkpt><trkpt lat="42.848201541699275" lon="9.326274865525141"><ele>120.0</ele><time>2026-05-01T08:42:37Z</time></trkpt><trkpt lat="42.84811299057315" lon="9.326226696862374"><ele>120.0</ele><time>2026-05-01T08:42:38Z</time></trkpt><trkpt lat="42.84801557875217" lon="9.326164997263861"><ele>120.0</ele><time>2026-05-01T08:42:39Z</time></trkpt><trkpt lat="42.84793024336898" lon="9.326083638930077"><ele>120.0</ele><time>2026-05-01T08:42:40Z</time></trkpt><trkpt lat="42.84785340639206" lon="9.325987404658278"><ele>120.0</ele><time>2026-05-01T08:42:41Z</time></trkpt><trkpt lat="42.847782908583675" lon="9.32590734519435"><ele>120.0</ele><time>2026-05-01T08:42:42Z</time></trkpt><trkpt lat="42.847712127494525" lon="9.325842540103402"><ele>120.0</ele><time>2026-05-01T08:42:43Z</time></trkpt><trkpt lat="42.8476339137127" lon="9.325777019476462"><ele>120.0</ele><time>2026-05-01T08:42:44Z</time></trkpt><trkpt lat="42.84755119015017" lon="9.325702201430087"><ele>120.0</ele><time>2026-05-01T08:42:45Z</time></trkpt><trkpt lat="42.847445572692536" lon="9.325643148827496"><ele>120.0</ele><time>2026-05-01T08:42:46Z</time></trkpt><trkpt lat="42.84733344283467" lon="9.32559593685657"><ele>120.0</ele><time>2026-05-01T08:42:47Z</time></trkpt><trkpt lat="42.84720236831755" lon="9.325562447410931"><ele>116.75</ele><time>2026-05-01T08:42:48Z</time></trkpt><trkpt lat="42.84707515150746" lon="9.32555932447941"><ele>113.5</ele><time>2026-05-01T08:42:49Z</time></trkpt><trkpt lat="42.84693690384827" lon="9.32554328975206"><ele>110.25</ele><time>2026-05-01T08:42:50Z</time></trkpt><trkpt lat="42.846790497491824" lon="9.325541625440504"><ele>107.0</ele><time>2026-05-01T08:42:51Z</time></trkpt><trkpt lat="42.846653719547305" lon="9.32559348933243"><ele>107.0</ele><time>2026-05-01T08:42:52Z</time></trkpt><trkpt lat="42.84651788878961" lon="9.32566433505129"><ele>107.0</ele><time>2026-05-01T08:42:53Z</time></trkpt><trkpt lat="42.8464001185335" lon="9.325664969411866"><ele>107.0</ele><time>2026-05-01T08:42:54Z</time></trkpt><trkpt lat="42.846309747016164" lon="9.325600528400184"><ele>107.0</ele><time>2026-05-01T08:42:55Z</time></trkpt><trkpt lat="42.8462376546281" lon="9.325449540246943"><ele>107.0</ele><time>2026-05-01T08:42:56Z</time></trkpt><trkpt lat="42.84610524825289" lon="9.325283796756008"><ele>107.0</ele><time>2026-05-01T08:42:57Z</time></trkpt><trkpt lat="42.845941324398986" lon="9.325126018874212"><ele>107.0</ele><time>2026-05-01T08:42:58Z</time></trkpt><trkpt lat="42.84576752215787" lon="9.32497682870769"><ele>104.66666666666666</ele><time>2026-05-01T08:42:59Z</time></trkpt><trkpt lat="42.84563057826364" lon="9.324837061814396"><ele>102.33333333333334</ele><time>2026-05-01T08:43:00Z</time></trkpt><trkpt lat="42.84551332100808" lon="9.324708722319745"><ele>100.0</ele><time>2026-05-01T08:43:01Z</time></trkpt><trkpt lat="42.84543152270091" lon="9.324569881839452"><ele>100.0</ele><time>2026-05-01T08:43:02Z</time></trkpt><trkpt lat="42.84538356414949" lon="9.324403325080624"><ele>100.0</ele><time>2026-05-01T08:43:03Z</time></trkpt><trkpt lat="42.845323465574644" lon="9.324245445904976"><ele>100.0</ele><time>2026-05-01T08:43:04Z</time></trkpt><trkpt lat="42.845195541478006" lon="9.324112312958325"><ele>100.0</ele><time>2026-05-01T08:43:05Z</time></trkpt><trkpt lat="42.84501792533166" lon="9.323994646413073"><ele>99.66666666666667</ele><time>2026-05-01T08:43:06Z</time></trkpt><trkpt lat="42.84485187681272" lon="9.323839698503214"><ele>99.33333333333334</ele><time>2026-05-01T08:43:07Z</time></trkpt><trkpt lat="42.84471789202871" lon="9.323674202862081"><ele>99.0</ele><time>2026-05-01T08:43:08Z</time></trkpt><trkpt lat="42.84460876013537" lon="9.32353375641764"><ele>99.0</ele><time>2026-05-01T08:43:09Z</time></trkpt><trkpt lat="42.84448371380218" lon="9.323471030439642"><ele>99.0</ele><time>2026-05-01T08:43:10Z</time></trkpt><trkpt lat="42.844349904199056" lon="9.323458189071534"><ele>99.0</ele><time>2026-05-01T08:43:11Z</time></trkpt><trkpt lat="42.84422898559229" lon="9.323441862832091"><ele>99.0</ele><time>2026-05-01T08:43:12Z</time></trkpt><trkpt lat="42.84417829009365" lon="9.323314591141841"><ele>102.25</ele><time>2026-05-01T08:43:13Z</time></trkpt><trkpt lat="42.84424573797001" lon="9.32317296587068"><ele>105.5</ele><time>2026-05-01T08:43:14Z</time></trkpt><trkpt lat="42.84425361575683" lon="9.323004872271705"><ele>108.75</ele><time>2026-05-01T08:43:15Z</time></trkpt><trkpt lat="42.84426095755374" lon="9.322841907965778"><ele>112.0</ele><time>2026-05-01T08:43:16Z</time></trkpt><trkpt lat="42.84419825898006" lon="9.322666704968594"><ele>112.0</ele><time>2026-05-01T08:43:17Z</time></trkpt><trkpt lat="42.84409324438025" lon="9.322506483816225"><ele>112.0</ele><time>2026-05-01T08:43:18Z</time></trkpt><trkpt lat="42.84396909651686" lon="9.322336992486338"><ele>112.0</ele><time>2026-05-01T08:43:19Z</time></trkpt><trkpt lat="42.843851723520885" lon="9.322148189683908"><ele>103.0</ele><time>2026-05-01T08:43:20Z</time></trkpt><trkpt lat="42.84373141057809" lon="9.321930690656268"><ele>94.0</ele><time>2026-05-01T08:43:21Z</time></trkpt><trkpt lat="42.84364516824353" lon="9.321717769216498"><ele>85.0</ele><time>2026-05-01T08:43:22Z</time></trkpt><trkpt lat="42.84356655843366" lon="9.321518901344612"><ele>88.66666666666666</ele><time>2026-05-01T08:43:23Z</time></trkpt><trkpt lat="42.843464736983655" lon="9.321343591225569"><ele>92.33333333333333</ele><time>2026-05-01T08:43:24Z</time></trkpt><trkpt lat="42.84335122418794" lon="9.321199055449835"><ele>96.0</ele><time>2026-05-01T08:43:25Z</time></trkpt><trkpt lat="42.84322825725934" lon="9.321048431757658"><ele>96.0</ele><time>2026-05-01T08:43:26Z</time></trkpt><trkpt lat="42.843127136841176" lon="9.320885791744178"><ele>96.0</ele><time>2026-05-01T08:43:27Z</time></trkpt><trkpt lat="42.84302076665456" lon="9.320720697956514"><ele>96.0</ele><time>2026-05-01T08:43:28Z</time></trkpt><trkpt lat="42.84291346750964" lon="9.320569958055918"><ele>96.25</ele><time>2026-05-01T08:43:29Z</time></trkpt><trkpt lat="42.84280848236063" lon="9.320424644663783"><ele>96.5</ele><time>2026-05-01T08:43:30Z</time></trkpt><trkpt lat="42.84273096866314" lon="9.32026497550652"><ele>96.75</ele><time>2026-05-01T08:43:31Z</time></trkpt><trkpt lat="42.842653372125746" lon="9.320110769320744"><ele>97.0</ele><time>2026-05-01T08:43:32Z</time></trkpt><trkpt lat="42.84254242649459" lon="9.319981269590182"><ele>97.0</ele><time>2026-05-01T08:43:33Z</time></trkpt><trkpt lat="42.842404642251246" lon="9.31988641662787"><ele>97.0</ele><time>2026-05-01T08:43:34Z</time></trkpt><trkpt lat="42.84226989724154" lon="9.319809012819913"><ele>97.0</ele><time>2026-05-01T08:43:35Z</time></trkpt><trkpt lat="42.84212908414608" lon="9.319817849058483"><ele>97.0</ele><time>2026-05-01T08:43:36Z</time></trkpt><trkpt lat="42.842010481347025" lon="9.319886847716566"><ele>97.0</ele><time>2026-05-01T08:43:37Z</time></trkpt><trkpt lat="42.841917998580094" lon="9.320090773080057"><ele>97.0</ele><time>2026-05-01T08:43:38Z</time></trkpt><trkpt lat="42.84183183370511" lon="9.32028371307655"><ele>97.0</ele><time>2026-05-01T08:43:39Z</time></trkpt><trkpt lat="42.84174816086754" lon="9.320498064927248"><ele>100.33333333333334</ele><time>2026-05-01T08:43:40Z</time></trkpt><trkpt lat="42.841679539572496" lon="9.320720801810271"><ele>103.66666666666666</ele><time>2026-05-01T08:43:41Z</time></trkpt><trkpt lat="42.841607180352106" lon="9.320909477705763"><ele>107.0</ele><time>2026-05-01T08:43:42Z</time></trkpt><trkpt lat="42.84147008157113" lon="9.321002583242832"><ele>107.0</ele><time>2026-05-01T08:43:43Z</time></trkpt><trkpt lat="42.841343437643545" lon="9.321130399560607"><ele>107.0</ele><time>2026-05-01T08:43:44Z</time></trkpt><trkpt lat="42.84123305615118" lon="9.321205509998922"><ele>107.0</ele><time>2026-05-01T08:43:45Z</time></trkpt><trkpt lat="42.841139012526796" lon="9.321212872406798"><ele>107.0</ele><time>2026-05-01T08:43:46Z</time></trkpt><trkpt lat="42.84107251342772" lon="9.321156187797428"><ele>107.0</ele><time>2026-05-01T08:43:47Z</time></trkpt><trkpt lat="42.84104428951404" lon="9.321025981212163"><ele>107.0</ele><time>2026-05-01T08:43:48Z</time></trkpt><trkpt lat="42.84107777765758" lon="9.32085435348048"><ele>107.0</ele><time>2026-05-01T08:43:49Z</time></trkpt><trkpt lat="42.84107401585399" lon="9.320650538372584"><ele>107.0</ele><time>2026-05-01T08:43:50Z</time></trkpt><trkpt lat="42.841022710907225" lon="9.320454531297628"><ele>103.66666666666666</ele><time>2026-05-01T08:43:51Z</time></trkpt><trkpt lat="42.84091349272436" lon="9.320233790636985"><ele>100.33333333333334</ele><time>2026-05-01T08:43:52Z</time></trkpt><trkpt lat="42.84074974775868" lon="9.320020774282007"><ele>97.0</ele><time>2026-05-01T08:43:53Z</time></trkpt><trkpt lat="42.84059500365491" lon="9.319798433976489"><ele>90.0</ele><time>2026-05-01T08:43:54Z</time></trkpt><trkpt lat="42.84051062443801" lon="9.319573799881267"><ele>83.0</ele><time>2026-05-01T08:43:55Z</time></trkpt><trkpt lat="42.84052225755086" lon="9.31937304986996"><ele>76.0</ele><time>2026-05-01T08:43:56Z</time></trkpt><trkpt lat="42.84050578805944" lon="9.31915218554357"><ele>76.0</ele><time>2026-05-01T08:43:57Z</time></trkpt><trkpt lat="42.84047095101773" lon="9.318912594682994"><ele>76.0</ele><time>2026-05-01T08:43:58Z</time></trkpt><trkpt lat="42.84038942875803" lon="9.318663946668826"><ele>76.0</ele><time>2026-05-01T08:43:59Z</time></trkpt><trkpt lat="42.84028049773898" lon="9.318419796572453"><ele>77.66666666666666</ele><time>2026-05-01T08:44:00Z</time></trkpt><trkpt lat="42.84017107389952" lon="9.31818763762191"><ele>79.33333333333333</ele><time>2026-05-01T08:44:01Z</time></trkpt><trkpt lat="42.840031160903834" lon="9.31797532604667"><ele>81.0</ele><time>2026-05-01T08:44:02Z</time></trkpt><trkpt lat="42.83988973315673" lon="9.317796547659933"><ele>81.0</ele><time>2026-05-01T08:44:03Z</time></trkpt><trkpt lat="42.83977250632517" lon="9.317633538756416"><ele>81.0</ele><time>2026-05-01T08:44:04Z</time></trkpt><trkpt lat="42.839664019051746" lon="9.317493857382969"><ele>81.0</ele><time>2026-05-01T08:44:05Z</time></trkpt><trkpt lat="42.83954015219298" lon="9.317399226949897"><ele>81.0</ele><time>2026-05-01T08:44:06Z</time></trkpt><trkpt lat="42.83940970061607" lon="9.317360735226474"><ele>81.0</ele><time>2026-05-01T08:44:07Z</time></trkpt><trkpt lat="42.83928931766495" lon="9.317367699505079"><ele>81.0</ele><time>2026-05-01T08:44:08Z</time></trkpt><trkpt lat="42.839183384159995" lon="9.317430443169387"><ele>81.0</ele><time>2026-05-01T08:44:09Z</time></trkpt><trkpt lat="42.83910316485967" lon="9.317547256126378"><ele>83.4</ele><time>2026-05-01T08:44:10Z</time></trkpt><trkpt lat="42.839019653899456" lon="9.317662151870206"><ele>85.8</ele><time>2026-05-01T08:44:11Z</time></trkpt><trkpt lat="42.83893629043391" lon="9.317762816547413"><ele>88.2</ele><time>2026-05-01T08:44:12Z</time></trkpt><trkpt lat="42.83885103637971" lon="9.317854422851752"><ele>90.60000000000001</ele><time>2026-05-01T08:44:13Z</time></trkpt><trkpt lat="42.838771031014296" lon="9.317939577218675"><ele>93.0</ele><time>2026-05-01T08:44:14Z</time></trkpt><trkpt lat="42.83869013651678" lon="9.317987704271001"><ele>93.0</ele><time>2026-05-01T08:44:15Z</time></trkpt><trkpt lat="42.83860537256797" lon="9.318011990473511"><ele>93.0</ele><time>2026-05-01T08:44:16Z</time></trkpt><trkpt lat="42.838520500385684" lon="9.318029709791489"><ele>93.0</ele><time>2026-05-01T08:44:17Z</time></trkpt><trkpt lat="42.83843522511821" lon="9.31794361124996"><ele>93.0</ele><time>2026-05-01T08:44:18Z</time></trkpt><trkpt lat="42.838332478642386" lon="9.317879651900498"><ele>93.0</ele><time>2026-05-01T08:44:19Z</time></trkpt><trkpt lat="42.83821113663802" lon="9.317876630123676"><ele>92.0</ele><time>2026-05-01T08:44:20Z</time></trkpt><trkpt lat="42.838099897200216" lon="9.3178886225751"><ele>91.0</ele><time>2026-05-01T08:44:21Z</time></trkpt><trkpt lat="42.837976706286916" lon="9.317949624255087"><ele>90.0</ele><time>2026-05-01T08:44:22Z</time></trkpt><trkpt lat="42.83786041746598" lon="9.317948554044781"><ele>89.0</ele><time>2026-05-01T08:44:23Z</time></trkpt><trkpt lat="42.8377556846524" lon="9.317882934044084"><ele>89.0</ele><time>2026-05-01T08:44:24Z</time></trkpt><trkpt lat="42.83763888758531" lon="9.317808478934667"><ele>89.0</ele><time>2026-05-01T08:44:25Z</time></trkpt><trkpt lat="42.83750747906087" lon="9.317792188795359"><ele>89.0</ele><time>2026-05-01T08:44:26Z</time></trkpt><trkpt lat="42.837385852817604" lon="9.317777928745409"><ele>89.0</ele><time>2026-05-01T08:44:27Z</time></trkpt><trkpt lat="42.83726306152892" lon="9.31777511171853"><ele>89.80000000000001</ele><time>2026-05-01T08:44:28Z</time></trkpt><trkpt lat="42.837156344902326" lon="9.317738157330382"><ele>90.60000000000001</ele><time>2026-05-01T08:44:29Z</time></trkpt><trkpt lat="42.83706315360606" lon="9.31770536651437"><ele>91.4</ele><time>2026-05-01T08:44:30Z</time></trkpt><trkpt lat="42.83698153914893" lon="9.317646979402861"><ele>92.2</ele><time>2026-05-01T08:44:31Z</time></trkpt><trkpt lat="42.83690651802243" lon="9.317570331170105"><ele>93.0</ele><time>2026-05-01T08:44:32Z</time></trkpt><trkpt lat="42.836821323160926" lon="9.317482172905278"><ele>96.0</ele><time>2026-05-01T08:44:33Z</time></trkpt><trkpt lat="42.83671149774394" lon="9.317423668154763"><ele>99.0</ele><time>2026-05-01T08:44:34Z</time></trkpt><trkpt lat="42.83660956905229" lon="9.31734333142862"><ele>102.0</ele><time>2026-05-01T08:44:35Z</time></trkpt><trkpt lat="42.8365219092725" lon="9.317252314735034"><ele>105.0</ele><time>2026-05-01T08:44:36Z</time></trkpt><trkpt lat="42.83644540673242" lon="9.317120745922322"><ele>97.0</ele><time>2026-05-01T08:44:37Z</time></trkpt><trkpt lat="42.836358458749075" lon="9.316985072272487"><ele>89.0</ele><time>2026-05-01T08:44:38Z</time></trkpt><trkpt lat="42.83626979082288" lon="9.316843656350944"><ele>81.0</ele><time>2026-05-01T08:44:39Z</time></trkpt><trkpt lat="42.83617867848693" lon="9.3167164694331"><ele>73.0</ele><time>2026-05-01T08:44:40Z</time></trkpt><trkpt lat="42.83608693871418" lon="9.316615201688457"><ele>73.0</ele><time>2026-05-01T08:44:41Z</time></trkpt><trkpt lat="42.8359954739709" lon="9.316523096067742"><ele>73.0</ele><time>2026-05-01T08:44:42Z</time></trkpt><trkpt lat="42.835904449674985" lon="9.316435726429072"><ele>73.0</ele><time>2026-05-01T08:44:43Z</time></trkpt><trkpt lat="42.83582544708223" lon="9.316348956968145"><ele>73.0</ele><time>2026-05-01T08:44:44Z</time></trkpt><trkpt lat="42.835727677176536" lon="9.316314199313915"><ele>73.0</ele><time>2026-05-01T08:44:45Z</time></trkpt><trkpt lat="42.83564102871495" lon="9.316241831967954"><ele>73.5</ele><time>2026-05-01T08:44:46Z</time></trkpt><trkpt lat="42.83552419889575" lon="9.316214150729587"><ele>74.0</ele><time>2026-05-01T08:44:47Z</time></trkpt><trkpt lat="42.835412145037935" lon="9.316151174789407"><ele>74.5</ele><time>2026-05-01T08:44:48Z</time></trkpt><trkpt lat="42.835308320977624" lon="9.31604551305479"><ele>75.0</ele><time>2026-05-01T08:44:49Z</time></trkpt><trkpt lat="42.83520449545705" lon="9.315919186746594"><ele>72.25</ele><time>2026-05-01T08:44:50Z</time></trkpt><trkpt lat="42.83509872823489" lon="9.315803387991734"><ele>69.5</ele><time>2026-05-01T08:44:51Z</time></trkpt><trkpt lat="42.834996411587575" lon="9.315688619174603"><ele>66.75</ele><time>2026-05-01T08:44:52Z</time></trkpt><trkpt lat="42.83488419771171" lon="9.315600125866613"><ele>64.0</ele><time>2026-05-01T08:44:53Z</time></trkpt><trkpt lat="42.834768803709714" lon="9.315506697228328"><ele>64.0</ele><time>2026-05-01T08:44:54Z</time></trkpt><trkpt lat="42.83464657105855" lon="9.315415269698827"><ele>64.0</ele><time>2026-05-01T08:44:55Z</time></trkpt><trkpt lat="42.83452164042195" lon="9.315334560915645"><ele>64.0</ele><time>2026-05-01T08:44:56Z</time></trkpt><trkpt lat="42.83438956548676" lon="9.315251136174128"><ele>64.0</ele><time>2026-05-01T08:44:57Z</time></trkpt><trkpt lat="42.8342482275289" lon="9.315188774345108"><ele>68.5</ele><time>2026-05-01T08:44:58Z</time></trkpt><trkpt lat="42.83409930712858" lon="9.31515334107876"><ele>73.0</ele><time>2026-05-01T08:44:59Z</time></trkpt><trkpt lat="42.83395298231077" lon="9.315134222480737"><ele>77.5</ele><time>2026-05-01T08:45:00Z</time></trkpt><trkpt lat="42.83382780524674" lon="9.31509697130825"><ele>82.0</ele><time>2026-05-01T08:45:01Z</time></trkpt><trkpt lat="42.833715133733335" lon="9.315055527635444"><ele>82.0</ele><time>2026-05-01T08:45:02Z</time></trkpt><trkpt lat="42.83360644016425" lon="9.315010126451009"><ele>82.0</ele><time>2026-05-01T08:45:03Z</time></trkpt><trkpt lat="42.833496724113154" lon="9.314946186144908"><ele>82.0</ele><time>2026-05-01T08:45:04Z</time></trkpt><trkpt lat="42.83338206565793" lon="9.314855456781308"><ele>82.0</ele><time>2026-05-01T08:45:05Z</time></trkpt><trkpt lat="42.8332784470258" lon="9.31471336304764"><ele>83.0</ele><time>2026-05-01T08:45:06Z</time></trkpt><trkpt lat="42.83315816895484" lon="9.314607100660979"><ele>84.0</ele><time>2026-05-01T08:45:07Z</time></trkpt><trkpt lat="42.83303832332827" lon="9.314501946009726"><ele>85.0</ele><time>2026-05-01T08:45:08Z</time></trkpt><trkpt lat="42.83291519813637" lon="9.314424379438316"><ele>86.0</ele><time>2026-05-01T08:45:09Z</time></trkpt><trkpt lat="42.83280013831921" lon="9.314361903287312"><ele>86.0</ele><time>2026-05-01T08:45:10Z</time></trkpt><trkpt lat="42.83269220924907" lon="9.314305148258041"><ele>86.0</ele><time>2026-05-01T08:45:11Z</time></trkpt><trkpt lat="42.83257929404756" lon="9.314269028301613"><ele>86.0</ele><time>2026-05-01T08:45:12Z</time></trkpt><trkpt lat="42.83245854171676" lon="9.31425112384543"><ele>86.0</ele><time>2026-05-01T08:45:13Z</time></trkpt><trkpt lat="42.8323373740811" lon="9.314247035614303"><ele>87.4</ele><time>2026-05-01T08:45:14Z</time></trkpt><trkpt lat="42.832218683027556" lon="9.31426920218148"><ele>88.8</ele><time>2026-05-01T08:45:15Z</time></trkpt><trkpt lat="42.83210660981407" lon="9.314295281167706"><ele>90.2</ele><time>2026-05-01T08:45:16Z</time></trkpt><trkpt lat="42.83201672978409" lon="9.314335291158292"><ele>91.60000000000001</ele><time>2026-05-01T08:45:17Z</time></trkpt><trkpt lat="42.83193854857531" lon="9.31437628669773"><ele>93.0</ele><time>2026-05-01T08:45:18Z</time></trkpt><trkpt lat="42.83185765397748" lon="9.31442364434671"><ele>91.0</ele><time>2026-05-01T08:45:19Z</time></trkpt><trkpt lat="42.831787209512704" lon="9.314455967611174"><ele>89.0</ele><time>2026-05-01T08:45:20Z</time></trkpt><trkpt lat="42.83170562594365" lon="9.314466053123446"><ele>87.0</ele><time>2026-05-01T08:45:21Z</time></trkpt><trkpt lat="42.8316138523143" lon="9.31447913361456"><ele>85.0</ele><time>2026-05-01T08:45:22Z</time></trkpt><trkpt lat="42.83152194502642" lon="9.31449665711832"><ele>83.0</ele><time>2026-05-01T08:45:23Z</time></trkpt><trkpt lat="42.83143125028196" lon="9.314530829720038"><ele>81.0</ele><time>2026-05-01T08:45:24Z</time></trkpt><trkpt lat="42.831345657357105" lon="9.314595796372867"><ele>81.0</ele><time>2026-05-01T08:45:25Z</time></trkpt><trkpt lat="42.83127548356919" lon="9.314720709557013"><ele>81.0</ele><time>2026-05-01T08:45:26Z</time></trkpt><trkpt lat="42.83122915740645" lon="9.314863260087057"><ele>81.0</ele><time>2026-05-01T08:45:27Z</time></trkpt><trkpt lat="42.83117432408544" lon="9.315005577127023"><ele>81.0</ele><time>2026-05-01T08:45:28Z</time></trkpt><trkpt lat="42.83113117754483" lon="9.315149321539446"><ele>88.0</ele><time>2026-05-01T08:45:29Z</time></trkpt><trkpt lat="42.83109376922963" lon="9.315312314616952"><ele>95.0</ele><time>2026-05-01T08:45:30Z</time></trkpt><trkpt lat="42.83107519576867" lon="9.31548580927625"><ele>102.0</ele><time>2026-05-01T08:45:31Z</time></trkpt><trkpt lat="42.83103584462906" lon="9.315636603601863"><ele>109.0</ele><time>2026-05-01T08:45:32Z</time></trkpt><trkpt lat="42.83097738738511" lon="9.315743052731712"><ele>104.80000000000001</ele><time>2026-05-01T08:45:33Z</time></trkpt><trkpt lat="42.83090319945598" lon="9.315847874300475"><ele>100.60000000000001</ele><time>2026-05-01T08:45:34Z</time></trkpt><trkpt lat="42.83084754821381" lon="9.315970869212643"><ele>96.4</ele><time>2026-05-01T08:45:35Z</time></trkpt><trkpt lat="42.83077565692092" lon="9.316054099108207"><ele>92.2</ele><time>2026-05-01T08:45:36Z</time></trkpt><trkpt lat="42.83069338770555" lon="9.316094578528736"><ele>88.0</ele><time>2026-05-01T08:45:37Z</time></trkpt><trkpt lat="42.83060515369339" lon="9.316137661765794"><ele>88.0</ele><time>2026-05-01T08:45:38Z</time></trkpt><trkpt lat="42.83050524697234" lon="9.316198190974164"><ele>88.0</ele><time>2026-05-01T08:45:39Z</time></trkpt><trkpt lat="42.8304048732408" lon="9.316287756811608"><ele>88.0</ele><time>2026-05-01T08:45:40Z</time></trkpt><trkpt lat="42.8303029758577" lon="9.316412688396115"><ele>88.0</ele><time>2026-05-01T08:45:41Z</time></trkpt><trkpt lat="42.830209706718485" lon="9.316553452073384"><ele>88.2</ele><time>2026-05-01T08:45:42Z</time></trkpt><trkpt lat="42.83010592998325" lon="9.316652379487776"><ele>88.4</ele><time>2026-05-01T08:45:43Z</time></trkpt><trkpt lat="42.830013186913085" lon="9.316728523135591"><ele>88.60000000000001</ele><time>2026-05-01T08:45:44Z</time></trkpt><trkpt lat="42.82995726876476" lon="9.31677042838871"><ele>88.80000000000001</ele><time>2026-05-01T08:45:45Z</time></trkpt><trkpt lat="42.82987206630182" lon="9.316821753815917"><ele>89.0</ele><time>2026-05-01T08:45:47Z</time></trkpt><trkpt lat="42.82981230619012" lon="9.316855337496417"><ele>89.0</ele><time>2026-05-01T08:45:48Z</time></trkpt><trkpt lat="42.82974493245165" lon="9.316905282815682"><ele>89.0</ele><time>2026-05-01T08:45:49Z</time></trkpt><trkpt lat="42.82965432385611" lon="9.316983471035217"><ele>89.0</ele><time>2026-05-01T08:45:50Z</time></trkpt><trkpt lat="42.82958599693448" lon="9.317052976573029"><ele>89.0</ele><time>2026-05-01T08:45:51Z</time></trkpt><trkpt lat="42.82954411008502" lon="9.317159605006653"><ele>89.0</ele><time>2026-05-01T08:45:52Z</time></trkpt><trkpt lat="42.829477590303796" lon="9.317236435585114"><ele>89.0</ele><time>2026-05-01T08:45:53Z</time></trkpt><trkpt lat="42.82942783297518" lon="9.317331429921166"><ele>93.0</ele><time>2026-05-01T08:45:54Z</time></trkpt><trkpt lat="42.829410336591955" lon="9.317454159512023"><ele>97.0</ele><time>2026-05-01T08:45:55Z</time></trkpt><trkpt lat="42.82939306680685" lon="9.317554278714018"><ele>101.0</ele><time>2026-05-01T08:45:56Z</time></trkpt><trkpt lat="42.82945181975202" lon="9.317658958037521"><ele>105.0</ele><time>2026-05-01T08:45:57Z</time></trkpt><trkpt lat="42.82947006526327" lon="9.317746632443184"><ele>109.0</ele><time>2026-05-01T08:45:58Z</time></trkpt><trkpt lat="42.82952158716725" lon="9.317900869878908"><ele>109.0</ele><time>2026-05-01T08:46:00Z</time></trkpt><trkpt lat="42.829538707621815" lon="9.318057906444128"><ele>109.0</ele><time>2026-05-01T08:46:02Z</time></trkpt><trkpt lat="42.82953033174534" lon="9.31815677474342"><ele>109.0</ele><time>2026-05-01T08:46:03Z</time></trkpt><trkpt lat="42.829510316524626" lon="9.31831695619844"><ele>109.0</ele><time>2026-05-01T08:46:05Z</time></trkpt><trkpt lat="42.82948864276543" lon="9.318460516918392"><ele>109.0</ele><time>2026-05-01T08:46:07Z</time></trkpt><trkpt lat="42.82945737605456" lon="9.318601565867807"><ele>110.16666666666667</ele><time>2026-05-01T08:46:09Z</time></trkpt><trkpt lat="42.82940819666731" lon="9.318721983417081"><ele>111.33333333333334</ele><time>2026-05-01T08:46:11Z</time></trkpt><trkpt lat="42.8293504029572" lon="9.318779240317127"><ele>112.5</ele><time>2026-05-01T08:46:12Z</time></trkpt><trkpt lat="42.82929391274132" lon="9.318844343378993"><ele>113.66666666666666</ele><time>2026-05-01T08:46:13.001Z</time></trkpt><trkpt lat="42.829225325610444" lon="9.318906945159485"><ele>114.83333333333333</ele><time>2026-05-01T08:46:14.001Z</time></trkpt><trkpt lat="42.82914126658389" lon="9.318935543805816"><ele>116.0</ele><time>2026-05-01T08:46:15.001Z</time></trkpt><trkpt lat="42.829053139371425" lon="9.318971894296714"><ele>112.0</ele><time>2026-05-01T08:46:16.001Z</time></trkpt><trkpt lat="42.82894496185905" lon="9.31902010420924"><ele>108.0</ele><time>2026-05-01T08:46:17.001Z</time></trkpt><trkpt lat="42.828814698089445" lon="9.319040532982877"><ele>104.0</ele><time>2026-05-01T08:46:18Z</time></trkpt><trkpt lat="42.828723792692884" lon="9.319051806875146"><ele>100.0</ele><time>2026-05-01T08:46:19Z</time></trkpt><trkpt lat="42.82860814927231" lon="9.31906681435482"><ele>100.0</ele><time>2026-05-01T08:46:21Z</time></trkpt><trkpt lat="42.82847834819154" lon="9.319085382871553"><ele>100.0</ele><time>2026-05-01T08:46:23Z</time></trkpt><trkpt lat="42.828398625315224" lon="9.319077038397092"><ele>100.0</ele><time>2026-05-01T08:46:24Z</time></trkpt><trkpt lat="42.828312837915945" lon="9.31908470059729"><ele>100.0</ele><time>2026-05-01T08:46:25Z</time></trkpt><trkpt lat="42.82823811787644" lon="9.319107591239831"><ele>100.0</ele><time>2026-05-01T08:46:26Z</time></trkpt><trkpt lat="42.8281568269098" lon="9.31911722464478"><ele>97.6</ele><time>2026-05-01T08:46:27Z</time></trkpt><trkpt lat="42.828080896403975" lon="9.319132968556412"><ele>95.2</ele><time>2026-05-01T08:46:28Z</time></trkpt><trkpt lat="42.828003702853636" lon="9.319185252567115"><ele>92.80000000000001</ele><time>2026-05-01T08:46:29Z</time></trkpt><trkpt lat="42.82792266230409" lon="9.319277601233784"><ele>90.4</ele><time>2026-05-01T08:46:30Z</time></trkpt><trkpt lat="42.82785303345835" lon="9.319375924644552"><ele>88.0</ele><time>2026-05-01T08:46:31Z</time></trkpt><trkpt lat="42.82778906553232" lon="9.319506232867434"><ele>88.0</ele><time>2026-05-01T08:46:32Z</time></trkpt><trkpt lat="42.82770491113864" lon="9.319658724556396"><ele>88.0</ele><time>2026-05-01T08:46:33Z</time></trkpt><trkpt lat="42.82764104026211" lon="9.31984517512692"><ele>88.0</ele><time>2026-05-01T08:46:34Z</time></trkpt><trkpt lat="42.82758355392096" lon="9.32002841411594"><ele>88.0</ele><time>2026-05-01T08:46:35Z</time></trkpt><trkpt lat="42.82754083927961" lon="9.32016736998929"><ele>85.5</ele><time>2026-05-01T08:46:36Z</time></trkpt><trkpt lat="42.82749709283423" lon="9.320323068418437"><ele>83.0</ele><time>2026-05-01T08:46:37Z</time></trkpt><trkpt lat="42.82740402274968" lon="9.32044097183237"><ele>80.5</ele><time>2026-05-01T08:46:38Z</time></trkpt><trkpt lat="42.82730950853056" lon="9.320568442524975"><ele>78.0</ele><time>2026-05-01T08:46:39Z</time></trkpt><trkpt lat="42.827198177123776" lon="9.320633118807176"><ele>84.25</ele><time>2026-05-01T08:46:40Z</time></trkpt><trkpt lat="42.82711378221895" lon="9.320764676022593"><ele>90.5</ele><time>2026-05-01T08:46:41Z</time></trkpt><trkpt lat="42.82703779028568" lon="9.320923191855195"><ele>96.75</ele><time>2026-05-01T08:46:42Z</time></trkpt><trkpt lat="42.826954051023215" lon="9.321013438707089"><ele>103.0</ele><time>2026-05-01T08:46:43Z</time></trkpt><trkpt lat="42.82681922686141" lon="9.320999638851111"><ele>94.5</ele><time>2026-05-01T08:46:44Z</time></trkpt><trkpt lat="42.82669401412312" lon="9.321073671822779"><ele>86.0</ele><time>2026-05-01T08:46:45Z</time></trkpt><trkpt lat="42.82654984096566" lon="9.321113862587655"><ele>77.5</ele><time>2026-05-01T08:46:46Z</time></trkpt><trkpt lat="42.82641638256301" lon="9.321143748238544"><ele>69.0</ele><time>2026-05-01T08:46:47Z</time></trkpt><trkpt lat="42.82629287415206" lon="9.321118644652577"><ele>69.0</ele><time>2026-05-01T08:46:48Z</time></trkpt><trkpt lat="42.826176642100364" lon="9.321110536867044"><ele>69.0</ele><time>2026-05-01T08:46:49Z</time></trkpt><trkpt lat="42.82604282806064" lon="9.321176586210274"><ele>69.0</ele><time>2026-05-01T08:46:50Z</time></trkpt><trkpt lat="42.82590510786009" lon="9.32129512839368"><ele>69.0</ele><time>2026-05-01T08:46:51Z</time></trkpt><trkpt lat="42.825761432189545" lon="9.321438271484482"><ele>75.33333333333333</ele><time>2026-05-01T08:46:52Z</time></trkpt><trkpt lat="42.82561680541087" lon="9.321589935647683"><ele>81.66666666666666</ele><time>2026-05-01T08:46:53Z</time></trkpt><trkpt lat="42.82546508075744" lon="9.321759635561008"><ele>88.0</ele><time>2026-05-01T08:46:54Z</time></trkpt><trkpt lat="42.82530813776047" lon="9.32192969961592"><ele>88.0</ele><time>2026-05-01T08:46:55Z</time></trkpt><trkpt lat="42.82518357378455" lon="9.322120972101718"><ele>88.0</ele><time>2026-05-01T08:46:56Z</time></trkpt><trkpt lat="42.82507597774788" lon="9.32229467492179"><ele>88.0</ele><time>2026-05-01T08:46:57Z</time></trkpt><trkpt lat="42.82500278833178" lon="9.322488360787675"><ele>86.0</ele><time>2026-05-01T08:46:58Z</time></trkpt><trkpt lat="42.824937562001885" lon="9.322673560326427"><ele>84.0</ele><time>2026-05-01T08:46:59Z</time></trkpt><trkpt lat="42.82483630373712" lon="9.322801340169258"><ele>82.0</ele><time>2026-05-01T08:47:00Z</time></trkpt><trkpt lat="42.824701906067936" lon="9.322881948656654"><ele>80.0</ele><time>2026-05-01T08:47:01Z</time></trkpt><trkpt lat="42.824545630690004" lon="9.322884350175359"><ele>80.0</ele><time>2026-05-01T08:47:02Z</time></trkpt><trkpt lat="42.824392538507624" lon="9.322911404787124"><ele>80.0</ele><time>2026-05-01T08:47:03Z</time></trkpt><trkpt lat="42.82426374783879" lon="9.322913504700528"><ele>80.0</ele><time>2026-05-01T08:47:04Z</time></trkpt><trkpt lat="42.82415617561378" lon="9.323020638395075"><ele>80.0</ele><time>2026-05-01T08:47:05Z</time></trkpt><trkpt lat="42.82410149607285" lon="9.323169896750683"><ele>80.5</ele><time>2026-05-01T08:47:06Z</time></trkpt><trkpt lat="42.82408199908928" lon="9.323360888508752"><ele>81.0</ele><time>2026-05-01T08:47:07Z</time></trkpt><trkpt lat="42.824023093735306" lon="9.323523209860845"><ele>81.5</ele><time>2026-05-01T08:47:08Z</time></trkpt><trkpt lat="42.82389326682349" lon="9.323608079398229"><ele>82.0</ele><time>2026-05-01T08:47:09Z</time></trkpt><trkpt lat="42.823772018650224" lon="9.323640270895773"><ele>82.0</ele><time>2026-05-01T08:47:10Z</time></trkpt><trkpt lat="42.823660670837135" lon="9.323574256556938"><ele>82.0</ele><time>2026-05-01T08:47:11Z</time></trkpt><trkpt lat="42.8235289260258" lon="9.323468962345185"><ele>82.0</ele><time>2026-05-01T08:47:12Z</time></trkpt><trkpt lat="42.8233842905892" lon="9.323312905465729"><ele>80.66666666666666</ele><time>2026-05-01T08:47:13Z</time></trkpt><trkpt lat="42.8232283945065" lon="9.32315526074239"><ele>79.33333333333333</ele><time>2026-05-01T08:47:14Z</time></trkpt><trkpt lat="42.823054718886" lon="9.323008593642152"><ele>78.0</ele><time>2026-05-01T08:47:15Z</time></trkpt><trkpt lat="42.82289859677021" lon="9.322892617215874"><ele>70.5</ele><time>2026-05-01T08:47:16Z</time></trkpt><trkpt lat="42.822762326629686" lon="9.322801052808696"><ele>63.0</ele><time>2026-05-01T08:47:17Z</time></trkpt><trkpt lat="42.822634807661224" lon="9.322750074398606"><ele>55.5</ele><time>2026-05-01T08:47:18Z</time></trkpt><trkpt lat="42.82248355718666" lon="9.322754395163296"><ele>48.0</ele><time>2026-05-01T08:47:19Z</time></trkpt><trkpt lat="42.8223184587484" lon="9.322787682366243"><ele>47.333333333333336</ele><time>2026-05-01T08:47:20Z</time></trkpt><trkpt lat="42.82215409846952" lon="9.32287743007154"><ele>46.66666666666667</ele><time>2026-05-01T08:47:21Z</time></trkpt><trkpt lat="42.82201089613043" lon="9.322996826575954"><ele>46.0</ele><time>2026-05-01T08:47:22Z</time></trkpt><trkpt lat="42.821901662656686" lon="9.323076677646345"><ele>52.0</ele><time>2026-05-01T08:47:23Z</time></trkpt><trkpt lat="42.82181961376737" lon="9.323130234490714"><ele>58.0</ele><time>2026-05-01T08:47:24Z</time></trkpt><trkpt lat="42.82175938371822" lon="9.323164510147771"><ele>63.99999999999999</ele><time>2026-05-01T08:47:25Z</time></trkpt><trkpt lat="42.82167409357854" lon="9.323210185114975"><ele>70.0</ele><time>2026-05-01T08:49:50Z</time></trkpt><trkpt lat="42.8215552961039" lon="9.32328897738598"><ele>76.0</ele><time>2026-05-01T08:49:52Z</time></trkpt><trkpt lat="42.8214745771494" lon="9.32333898887855"><ele>76.0</ele><time>2026-05-01T08:49:53Z</time></trkpt><trkpt lat="42.82138086061049" lon="9.323396326636654"><ele>76.0</ele><time>2026-05-01T08:49:54Z</time></trkpt><trkpt lat="42.82127985502142" lon="9.323476102953277"><ele>76.0</ele><time>2026-05-01T08:49:55Z</time></trkpt><trkpt lat="42.82115934262753" lon="9.323513997870881"><ele>76.0</ele><time>2026-05-01T08:49:56Z</time></trkpt><trkpt lat="42.82103862327283" lon="9.323533425026792"><ele>70.75</ele><time>2026-05-01T08:49:57Z</time></trkpt><trkpt lat="42.82091590562519" lon="9.323532717755347"><ele>65.5</ele><time>2026-05-01T08:49:58Z</time></trkpt><trkpt lat="42.820817209101776" lon="9.323524702756119"><ele>60.25</ele><time>2026-05-01T08:49:59Z</time></trkpt><trkpt lat="42.82068133815827" lon="9.32358819510673"><ele>55.0</ele><time>2026-05-01T08:50:00Z</time></trkpt><trkpt lat="42.8205448881429" lon="9.323634343073692"><ele>55.0</ele><time>2026-05-01T08:50:01Z</time></trkpt><trkpt lat="42.82040309107784" lon="9.323634462193652"><ele>55.0</ele><time>2026-05-01T08:50:02Z</time></trkpt><trkpt lat="42.820251758150555" lon="9.323610567952652"><ele>55.0</ele><time>2026-05-01T08:50:03Z</time></trkpt><trkpt lat="42.82010159530522" lon="9.323578238332319"><ele>55.0</ele><time>2026-05-01T08:50:04Z</time></trkpt><trkpt lat="42.819959167656364" lon="9.323539141853768"><ele>50.5</ele><time>2026-05-01T08:50:05Z</time></trkpt><trkpt lat="42.81982835592448" lon="9.323505830115112"><ele>46.0</ele><time>2026-05-01T08:50:06Z</time></trkpt><trkpt lat="42.81970449082731" lon="9.323483130912578"><ele>41.5</ele><time>2026-05-01T08:50:07Z</time></trkpt><trkpt lat="42.81958969025303" lon="9.323477490898991"><ele>37.0</ele><time>2026-05-01T08:50:08Z</time></trkpt><trkpt lat="42.819477181788564" lon="9.323504506422326"><ele>37.0</ele><time>2026-05-01T08:50:09Z</time></trkpt><trkpt lat="42.81936194188281" lon="9.32355809030368"><ele>37.0</ele><time>2026-05-01T08:50:10Z</time></trkpt><trkpt lat="42.819269364378044" lon="9.323631688057532"><ele>37.0</ele><time>2026-05-01T08:50:11Z</time></trkpt><trkpt lat="42.81918085020657" lon="9.323727443195859"><ele>37.0</ele><time>2026-05-01T08:50:12Z</time></trkpt><trkpt lat="42.81908986817272" lon="9.32385184473014"><ele>48.66666666666667</ele><time>2026-05-01T08:50:13Z</time></trkpt><trkpt lat="42.81898501293298" lon="9.323985337742979"><ele>60.333333333333336</ele><time>2026-05-01T08:50:14Z</time></trkpt><trkpt lat="42.818860583048775" lon="9.324108733497015"><ele>72.0</ele><time>2026-05-01T08:50:15Z</time></trkpt><trkpt lat="42.818725467243446" lon="9.324227015393259"><ele>72.0</ele><time>2026-05-01T08:50:16Z</time></trkpt><trkpt lat="42.81857652969491" lon="9.324356632326833"><ele>72.0</ele><time>2026-05-01T08:50:17Z</time></trkpt><trkpt lat="42.8184228620558" lon="9.324490269045137"><ele>72.0</ele><time>2026-05-01T08:50:18Z</time></trkpt><trkpt lat="42.818254454842105" lon="9.324616322932936"><ele>80.33333333333334</ele><time>2026-05-01T08:50:19Z</time></trkpt><trkpt lat="42.81807961692248" lon="9.324717147458825"><ele>88.66666666666667</ele><time>2026-05-01T08:50:20Z</time></trkpt><trkpt lat="42.817893096747724" lon="9.324746659938581"><ele>97.0</ele><time>2026-05-01T08:50:21Z</time></trkpt><trkpt lat="42.81770564339621" lon="9.324773193025074"><ele>88.33333333333334</ele><time>2026-05-01T08:50:22Z</time></trkpt><trkpt lat="42.8175186152324" lon="9.32485593274486"><ele>79.66666666666667</ele><time>2026-05-01T08:50:23Z</time></trkpt><trkpt lat="42.81733126097133" lon="9.324925840559269"><ele>71.0</ele><time>2026-05-01T08:50:24Z</time></trkpt><trkpt lat="42.81714503338734" lon="9.325005780898737"><ele>71.0</ele><time>2026-05-01T08:50:25.001Z</time></trkpt><trkpt lat="42.816956823548146" lon="9.325083601395475"><ele>71.0</ele><time>2026-05-01T08:50:26.001Z</time></trkpt><trkpt lat="42.81677101926243" lon="9.325158692830069"><ele>71.0</ele><time>2026-05-01T08:50:27.001Z</time></trkpt><trkpt lat="42.81658348098758" lon="9.325260824465333"><ele>83.0</ele><time>2026-05-01T08:50:28.001Z</time></trkpt><trkpt lat="42.81640632852695" lon="9.325393537807443"><ele>95.0</ele><time>2026-05-01T08:50:29.001Z</time></trkpt><trkpt lat="42.81623029464586" lon="9.325531812539065"><ele>107.0</ele><time>2026-05-01T08:50:30.001Z</time></trkpt><trkpt lat="42.816038358024315" lon="9.325618522882717"><ele>92.33333333333333</ele><time>2026-05-01T08:50:31.001Z</time></trkpt><trkpt lat="42.815854898549574" lon="9.32572392704085"><ele>77.66666666666666</ele><time>2026-05-01T08:50:32.001Z</time></trkpt><trkpt lat="42.815690402360055" lon="9.325853916739115"><ele>63.0</ele><time>2026-05-01T08:50:33.001Z</time></trkpt><trkpt lat="42.815548733239545" lon="9.325990497080276"><ele>63.0</ele><time>2026-05-01T08:50:34.001Z</time></trkpt><trkpt lat="42.81537895766323" lon="9.326006729212146"><ele>63.0</ele><time>2026-05-01T08:50:35.001Z</time></trkpt><trkpt lat="42.81521674613831" lon="9.325999486363425"><ele>63.0</ele><time>2026-05-01T08:50:36.001Z</time></trkpt><trkpt lat="42.81506069277976" lon="9.325960785728707"><ele>60.25</ele><time>2026-05-01T08:50:37.001Z</time></trkpt><trkpt lat="42.81492497848807" lon="9.325910533186875"><ele>57.5</ele><time>2026-05-01T08:50:38.001Z</time></trkpt><trkpt lat="42.81478328449174" lon="9.32590609335344"><ele>54.75</ele><time>2026-05-01T08:50:39.001Z</time></trkpt><trkpt lat="42.81464040367541" lon="9.325980851573224"><ele>52.0</ele><time>2026-05-01T08:50:40.001Z</time></trkpt><trkpt lat="42.814483538494784" lon="9.326043478722621"><ele>46.666666666666664</ele><time>2026-05-01T08:50:41.001Z</time></trkpt><trkpt lat="42.81430216015438" lon="9.326053816693294"><ele>41.33333333333333</ele><time>2026-05-01T08:50:42.001Z</time></trkpt><trkpt lat="42.81413444644375" lon="9.326155097786947"><ele>36.0</ele><time>2026-05-01T08:50:43.001Z</time></trkpt><trkpt lat="42.813962543609534" lon="9.326255816906126"><ele>36.0</ele><time>2026-05-01T08:50:44.001Z</time></trkpt><trkpt lat="42.813809217007524" lon="9.326285281111042"><ele>36.0</ele><time>2026-05-01T08:50:45.001Z</time></trkpt><trkpt lat="42.81366902974445" lon="9.326269297172919"><ele>36.0</ele><time>2026-05-01T08:50:46.001Z</time></trkpt><trkpt lat="42.81355291249177" lon="9.326156573815188"><ele>36.0</ele><time>2026-05-01T08:50:47.001Z</time></trkpt><trkpt lat="42.81343399805274" lon="9.326156804738144"><ele>31.0</ele><time>2026-05-01T08:50:48.001Z</time></trkpt><trkpt lat="42.81332133996531" lon="9.32621122857025"><ele>26.0</ele><time>2026-05-01T08:50:49.001Z</time></trkpt><trkpt lat="42.813209352298244" lon="9.326336550247936"><ele>21.0</ele><time>2026-05-01T08:50:50Z</time></trkpt><trkpt lat="42.81306494808224" lon="9.32635288170021"><ele>16.0</ele><time>2026-05-01T08:50:51Z</time></trkpt><trkpt lat="42.81289061317734" lon="9.326399200878413"><ele>17.0</ele><time>2026-05-01T08:50:52Z</time></trkpt><trkpt lat="42.812744207626096" lon="9.326483499705445"><ele>18.0</ele><time>2026-05-01T08:50:53Z</time></trkpt><trkpt lat="42.81261625192015" lon="9.326495338390943"><ele>19.0</ele><time>2026-05-01T08:50:54Z</time></trkpt><trkpt lat="42.81252046741444" lon="9.326541776841317"><ele>20.0</ele><time>2026-05-01T08:50:55Z</time></trkpt><trkpt lat="42.81245625139987" lon="9.326679704539623"><ele>20.0</ele><time>2026-05-01T08:50:56Z</time></trkpt><trkpt lat="42.81241724024842" lon="9.326851212996047"><ele>20.0</ele><time>2026-05-01T08:50:57Z</time></trkpt><trkpt lat="42.81237922376947" lon="9.327052834434514"><ele>20.0</ele><time>2026-05-01T08:50:58Z</time></trkpt><trkpt lat="42.81235448895996" lon="9.327296342222976"><ele>29.666666666666664</ele><time>2026-05-01T08:50:59Z</time></trkpt><trkpt lat="42.81232852404705" lon="9.32753966563091"><ele>39.33333333333333</ele><time>2026-05-01T08:51:00Z</time></trkpt><trkpt lat="42.812338810207294" lon="9.327751043669052"><ele>49.0</ele><time>2026-05-01T08:51:01Z</time></trkpt><trkpt lat="42.812397135819396" lon="9.327949203001697"><ele>48.33333333333333</ele><time>2026-05-01T08:51:02Z</time></trkpt><trkpt lat="42.812511773545474" lon="9.328158570215836"><ele>47.666666666666664</ele><time>2026-05-01T08:51:03Z</time></trkpt><trkpt lat="42.81260581970663" lon="9.328363104545776"><ele>47.0</ele><time>2026-05-01T08:51:04Z</time></trkpt><trkpt lat="42.812683900996966" lon="9.328578307868879"><ele>44.0</ele><time>2026-05-01T08:51:05Z</time></trkpt><trkpt lat="42.81270250768409" lon="9.328813352330897"><ele>41.0</ele><time>2026-05-01T08:51:06Z</time></trkpt><trkpt lat="42.812686397569266" lon="9.32905980521049"><ele>38.0</ele><time>2026-05-01T08:51:07Z</time></trkpt><trkpt lat="42.81264586980573" lon="9.329307175073597"><ele>38.0</ele><time>2026-05-01T08:51:08Z</time></trkpt><trkpt lat="42.81257189943252" lon="9.329546395541302"><ele>38.0</ele><time>2026-05-01T08:51:09Z</time></trkpt><trkpt lat="42.812488281960746" lon="9.329755407383566"><ele>38.0</ele><time>2026-05-01T08:51:10Z</time></trkpt><trkpt lat="42.812443794708216" lon="9.329962720356747"><ele>40.666666666666664</ele><time>2026-05-01T08:51:11Z</time></trkpt><trkpt lat="42.81233690947325" lon="9.330113584105195"><ele>43.333333333333336</ele><time>2026-05-01T08:51:12Z</time></trkpt><trkpt lat="42.81223438780486" lon="9.330271241365162"><ele>46.0</ele><time>2026-05-01T08:51:13Z</time></trkpt><trkpt lat="42.81213002813513" lon="9.330416035861006"><ele>48.66666666666667</ele><time>2026-05-01T08:51:14Z</time></trkpt><trkpt lat="42.812065013826256" lon="9.330605685036904"><ele>51.333333333333336</ele><time>2026-05-01T08:51:15Z</time></trkpt><trkpt lat="42.812032333803145" lon="9.33084310421346"><ele>54.0</ele><time>2026-05-01T08:51:16Z</time></trkpt><trkpt lat="42.81202180579481" lon="9.331091538864587"><ele>54.0</ele><time>2026-05-01T08:51:17Z</time></trkpt><trkpt lat="42.81203360204141" lon="9.331349450507549"><ele>54.0</ele><time>2026-05-01T08:51:18Z</time></trkpt><trkpt lat="42.811997396415656" lon="9.331611994263145"><ele>54.0</ele><time>2026-05-01T08:51:19Z</time></trkpt><trkpt lat="42.81194672107995" lon="9.331848136267858"><ele>55.0</ele><time>2026-05-01T08:51:20Z</time></trkpt><trkpt lat="42.81194083201335" lon="9.332078156811873"><ele>56.0</ele><time>2026-05-01T08:51:21Z</time></trkpt><trkpt lat="42.81194490592132" lon="9.332328462406084"><ele>57.0</ele><time>2026-05-01T08:51:22Z</time></trkpt><trkpt lat="42.81195921766775" lon="9.332591519003726"><ele>55.0</ele><time>2026-05-01T08:51:23Z</time></trkpt><trkpt lat="42.8119793587249" lon="9.33284585472324"><ele>53.0</ele><time>2026-05-01T08:51:24Z</time></trkpt><trkpt lat="42.812013046922495" lon="9.333086151258676"><ele>51.0</ele><time>2026-05-01T08:51:25Z</time></trkpt><trkpt lat="42.81206530889047" lon="9.33331395876486"><ele>48.25</ele><time>2026-05-01T08:51:26Z</time></trkpt><trkpt lat="42.81212740594664" lon="9.333523175949257"><ele>45.5</ele><time>2026-05-01T08:51:27Z</time></trkpt><trkpt lat="42.81220241180812" lon="9.333687507256824"><ele>42.75</ele><time>2026-05-01T08:51:28Z</time></trkpt><trkpt lat="42.812293356178564" lon="9.333808851741455"><ele>40.0</ele><time>2026-05-01T08:51:29Z</time></trkpt><trkpt lat="42.812376004408044" lon="9.333914746745092"><ele>37.75</ele><time>2026-05-01T08:51:30Z</time></trkpt><trkpt lat="42.8124214163041" lon="9.33403873166909"><ele>35.5</ele><time>2026-05-01T08:51:31Z</time></trkpt><trkpt lat="42.81240602657356" lon="9.33417871230515"><ele>33.25</ele><time>2026-05-01T08:51:32Z</time></trkpt><trkpt lat="42.81232754297947" lon="9.334310990139613"><ele>31.0</ele><time>2026-05-01T08:51:33Z</time></trkpt><trkpt lat="42.81223954164263" lon="9.334443448173722"><ele>31.0</ele><time>2026-05-01T08:51:34Z</time></trkpt><trkpt lat="42.81219036962414" lon="9.334612514750331"><ele>31.0</ele><time>2026-05-01T08:51:35Z</time></trkpt><trkpt lat="42.8121972357383" lon="9.334815800844785"><ele>31.0</ele><time>2026-05-01T08:51:36Z</time></trkpt><trkpt lat="42.81224832181474" lon="9.335017866273576"><ele>31.0</ele><time>2026-05-01T08:51:37Z</time></trkpt><trkpt lat="42.812338632893834" lon="9.335214220039362"><ele>29.333333333333336</ele><time>2026-05-01T08:51:38Z</time></trkpt><trkpt lat="42.812442219294276" lon="9.335401067969185"><ele>27.666666666666664</ele><time>2026-05-01T08:51:39Z</time></trkpt><trkpt lat="42.812528542854146" lon="9.335602604101894"><ele>26.0</ele><time>2026-05-01T08:51:40Z</time></trkpt><trkpt lat="42.812551177470944" lon="9.335836408041006"><ele>23.333333333333332</ele><time>2026-05-01T08:51:41Z</time></trkpt><trkpt lat="42.81258531837298" lon="9.33607403115812"><ele>20.666666666666664</ele><time>2026-05-01T08:51:42Z</time></trkpt><trkpt lat="42.81263832041164" lon="9.336303376501379"><ele>18.0</ele><time>2026-05-01T08:51:43Z</time></trkpt><trkpt lat="42.81269992770339" lon="9.336529290293509"><ele>25.0</ele><time>2026-05-01T08:51:44Z</time></trkpt><trkpt lat="42.81278652237753" lon="9.336734414048143"><ele>32.0</ele><time>2026-05-01T08:51:45Z</time></trkpt><trkpt lat="42.812879154849526" lon="9.336915993948558"><ele>39.0</ele><time>2026-05-01T08:51:46Z</time></trkpt><trkpt lat="42.81292915965318" lon="9.337104761149957"><ele>34.6</ele><time>2026-05-01T08:51:47Z</time></trkpt><trkpt lat="42.812942976886774" lon="9.337281025947135"><ele>30.2</ele><time>2026-05-01T08:51:48Z</time></trkpt><trkpt lat="42.81291148711932" lon="9.337420570527152"><ele>25.799999999999997</ele><time>2026-05-01T08:51:49Z</time></trkpt><trkpt lat="42.812884586048625" lon="9.337535883740042"><ele>21.4</ele><time>2026-05-01T08:51:50Z</time></trkpt><trkpt lat="42.812829052360954" lon="9.337659170197943"><ele>17.0</ele><time>2026-05-01T08:51:52Z</time></trkpt><trkpt lat="42.81278183515142" lon="9.33779868763597"><ele>17.0</ele><time>2026-05-01T08:51:54Z</time></trkpt><trkpt lat="42.812750967120934" lon="9.337889354868176"><ele>17.0</ele><time>2026-05-01T08:51:55Z</time></trkpt><trkpt lat="42.81271967959055" lon="9.337980145869015"><ele>17.0</ele><time>2026-05-01T08:51:56Z</time></trkpt><trkpt lat="42.812689792530605" lon="9.338064941349769"><ele>17.0</ele><time>2026-05-01T08:51:57Z</time></trkpt><trkpt lat="42.812614220751335" lon="9.33820440175038"><ele>17.0</ele><time>2026-05-01T08:51:59Z</time></trkpt><trkpt lat="42.812505644313404" lon="9.338273082528389"><ele>15.25</ele><time>2026-05-01T08:52:00Z</time></trkpt><trkpt lat="42.81238402645627" lon="9.338300448967992"><ele>13.5</ele><time>2026-05-01T08:52:01Z</time></trkpt><trkpt lat="42.81223393568822" lon="9.338287992726238"><ele>11.75</ele><time>2026-05-01T08:52:02Z</time></trkpt><trkpt lat="42.81208518487371" lon="9.338166153952084"><ele>10.0</ele><time>2026-05-01T08:52:03Z</time></trkpt><trkpt lat="42.81191225952123" lon="9.338073614510984"><ele>9.666666666666668</ele><time>2026-05-01T08:52:04Z</time></trkpt><trkpt lat="42.81173954673797" lon="9.33797301951323"><ele>9.333333333333334</ele><time>2026-05-01T08:52:05Z</time></trkpt><trkpt lat="42.811550864862824" lon="9.33790078300459"><ele>9.0</ele><time>2026-05-01T08:52:05.999Z</time></trkpt><trkpt lat="42.8113792082711" lon="9.337773962352678"><ele>9.0</ele><time>2026-05-01T08:52:06.999Z</time></trkpt><trkpt lat="42.81120714417375" lon="9.337652968688069"><ele>9.0</ele><time>2026-05-01T08:52:07.999Z</time></trkpt><trkpt lat="42.81104224008486" lon="9.337526107404834"><ele>9.0</ele><time>2026-05-01T08:52:08.999Z</time></trkpt><trkpt lat="42.81087455437711" lon="9.337422474707951"><ele>12.0</ele><time>2026-05-01T08:52:09.999Z</time></trkpt><trkpt lat="42.810705176655524" lon="9.33733932356653"><ele>15.0</ele><time>2026-05-01T08:52:10.999Z</time></trkpt><trkpt lat="42.810550046151675" lon="9.337277697683765"><ele>18.0</ele><time>2026-05-01T08:52:11.999Z</time></trkpt><trkpt lat="42.8103937093882" lon="9.337236948855178"><ele>18.0</ele><time>2026-05-01T08:52:12.999Z</time></trkpt><trkpt lat="42.810235787330974" lon="9.337244745431608"><ele>18.0</ele><time>2026-05-01T08:52:13.999Z</time></trkpt><trkpt lat="42.81009817586055" lon="9.337288501932512"><ele>18.0</ele><time>2026-05-01T08:52:14.999Z</time></trkpt><trkpt lat="42.809991176079755" lon="9.337327682951454"><ele>18.0</ele><time>2026-05-01T08:52:15.999Z</time></trkpt><trkpt lat="42.8098936999061" lon="9.33735597948375"><ele>18.8</ele><time>2026-05-01T08:52:16.999Z</time></trkpt><trkpt lat="42.8097919518366" lon="9.337393568900287"><ele>19.6</ele><time>2026-05-01T08:52:17.999Z</time></trkpt><trkpt lat="42.80969946414125" lon="9.337465275687588"><ele>20.400000000000002</ele><time>2026-05-01T08:52:18.999Z</time></trkpt><trkpt lat="42.809624997364914" lon="9.337581781365513"><ele>21.200000000000003</ele><time>2026-05-01T08:52:19.999Z</time></trkpt><trkpt lat="42.8095803683089" lon="9.337716640554106"><ele>22.0</ele><time>2026-05-01T08:52:20.999Z</time></trkpt><trkpt lat="42.809523466639796" lon="9.337808243039534"><ele>22.0</ele><time>2026-05-01T08:52:21.999Z</time></trkpt><trkpt lat="42.80943906679999" lon="9.337829625105453"><ele>22.0</ele><time>2026-05-01T08:52:22.999Z</time></trkpt><trkpt lat="42.80935244034598" lon="9.337762139888659"><ele>22.0</ele><time>2026-05-01T08:52:23.999Z</time></trkpt><trkpt lat="42.809315132710424" lon="9.337629768907995"><ele>22.0</ele><time>2026-05-01T08:52:24.999Z</time></trkpt><trkpt lat="42.80933548776431" lon="9.337457312885762"><ele>22.0</ele><time>2026-05-01T08:52:25.999Z</time></trkpt><trkpt lat="42.809394007402204" lon="9.33727313658538"><ele>19.5</ele><time>2026-05-01T08:52:26.999Z</time></trkpt><trkpt lat="42.80944767676442" lon="9.337098478463494"><ele>17.0</ele><time>2026-05-01T08:52:27.999Z</time></trkpt><trkpt lat="42.809470866179616" lon="9.336954449491541"><ele>14.5</ele><time>2026-05-01T08:52:28.999Z</time></trkpt><trkpt lat="42.80944070549275" lon="9.33682893942925"><ele>12.0</ele><time>2026-05-01T08:52:29.999Z</time></trkpt><trkpt lat="42.809355974041" lon="9.336714623801756"><ele>15.5</ele><time>2026-05-01T08:52:31Z</time></trkpt><trkpt lat="42.80925313471366" lon="9.336588568822501"><ele>19.0</ele><time>2026-05-01T08:52:32Z</time></trkpt><trkpt lat="42.80920337702115" lon="9.336398777078799"><ele>22.5</ele><time>2026-05-01T08:52:33Z</time></trkpt><trkpt lat="42.80916016754207" lon="9.336215782101835"><ele>26.0</ele><time>2026-05-01T08:52:34Z</time></trkpt><trkpt lat="42.80913874540767" lon="9.336077048827018"><ele>26.0</ele><time>2026-05-01T08:52:35Z</time></trkpt><trkpt lat="42.80912515202612" lon="9.335970268927236"><ele>26.0</ele><time>2026-05-01T08:52:36Z</time></trkpt><trkpt lat="42.80909716127896" lon="9.335836915706789"><ele>26.0</ele><time>2026-05-01T08:52:37Z</time></trkpt><trkpt lat="42.80905939214335" lon="9.335698851991644"><ele>26.0</ele><time>2026-05-01T08:52:38Z</time></trkpt><trkpt lat="42.808985416856174" lon="9.335566364829921"><ele>26.0</ele><time>2026-05-01T08:52:39Z</time></trkpt><trkpt lat="42.808881051754675" lon="9.33547457878469"><ele>25.5</ele><time>2026-05-01T08:52:40Z</time></trkpt><trkpt lat="42.808754149155355" lon="9.335439144615782"><ele>25.0</ele><time>2026-05-01T08:52:41Z</time></trkpt><trkpt lat="42.80862241747035" lon="9.335429021532445"><ele>24.5</ele><time>2026-05-01T08:52:42Z</time></trkpt><trkpt lat="42.808498484731786" lon="9.3353919891993"><ele>24.0</ele><time>2026-05-01T08:52:43Z</time></trkpt><trkpt lat="42.80841921175867" lon="9.335263489612824"><ele>24.0</ele><time>2026-05-01T08:52:44Z</time></trkpt><trkpt lat="42.80833795443416" lon="9.33512440834846"><ele>24.0</ele><time>2026-05-01T08:52:45Z</time></trkpt><trkpt lat="42.808258178418754" lon="9.334970916558301"><ele>24.0</ele><time>2026-05-01T08:52:46Z</time></trkpt><trkpt lat="42.8081694450603" lon="9.334828595055857"><ele>24.0</ele><time>2026-05-01T08:52:47Z</time></trkpt><trkpt lat="42.80808368171547" lon="9.334698250037224"><ele>24.0</ele><time>2026-05-01T08:52:48Z</time></trkpt><trkpt lat="42.808003743881315" lon="9.334589909096845"><ele>24.0</ele><time>2026-05-01T08:52:49Z</time></trkpt><trkpt lat="42.80792636954021" lon="9.334523432880676"><ele>24.0</ele><time>2026-05-01T08:52:50Z</time></trkpt><trkpt lat="42.80783280324488" lon="9.334526256653158"><ele>24.0</ele><time>2026-05-01T08:52:51Z</time></trkpt><trkpt lat="42.80775013702833" lon="9.334610105747382"><ele>24.0</ele><time>2026-05-01T08:52:52Z</time></trkpt><trkpt lat="42.8076983677703" lon="9.33475500284632"><ele>24.0</ele><time>2026-05-01T08:52:53Z</time></trkpt><trkpt lat="42.807664441940474" lon="9.334917888662545"><ele>24.0</ele><time>2026-05-01T08:52:54Z</time></trkpt><trkpt lat="42.807596094394064" lon="9.335073153109716"><ele>24.0</ele><time>2026-05-01T08:52:55Z</time></trkpt><trkpt lat="42.80752399917235" lon="9.33523612422973"><ele>24.0</ele><time>2026-05-01T08:52:56Z</time></trkpt><trkpt lat="42.807441766429925" lon="9.335383732315213"><ele>21.333333333333332</ele><time>2026-05-01T08:52:57Z</time></trkpt><trkpt lat="42.80733518987885" lon="9.335553014871271"><ele>18.666666666666664</ele><time>2026-05-01T08:52:58Z</time></trkpt><trkpt lat="42.807191263712504" lon="9.33563144225119"><ele>16.0</ele><time>2026-05-01T08:52:59Z</time></trkpt><trkpt lat="42.80710509518816" lon="9.335780691287553"><ele>22.666666666666664</ele><time>2026-05-01T08:53:00Z</time></trkpt><trkpt lat="42.80701478207288" lon="9.335993003662812"><ele>29.333333333333332</ele><time>2026-05-01T08:53:01Z</time></trkpt><trkpt lat="42.80696046748796" lon="9.33625887287829"><ele>36.0</ele><time>2026-05-01T08:53:02Z</time></trkpt><trkpt lat="42.80690193364367" lon="9.336491246761694"><ele>34.25</ele><time>2026-05-01T08:53:03Z</time></trkpt><trkpt lat="42.80687119654637" lon="9.336694293004658"><ele>32.5</ele><time>2026-05-01T08:53:04Z</time></trkpt><trkpt lat="42.80679830015054" lon="9.336843635795024"><ele>30.75</ele><time>2026-05-01T08:53:05Z</time></trkpt><trkpt lat="42.80666940743117" lon="9.33690613533219"><ele>29.0</ele><time>2026-05-01T08:53:06Z</time></trkpt><trkpt lat="42.80654318409566" lon="9.337004747556515"><ele>29.0</ele><time>2026-05-01T08:53:07Z</time></trkpt><trkpt lat="42.806413717994445" lon="9.337077204957314"><ele>29.0</ele><time>2026-05-01T08:53:08Z</time></trkpt><trkpt lat="42.806302991405275" lon="9.337141673439799"><ele>29.0</ele><time>2026-05-01T08:53:09Z</time></trkpt><trkpt lat="42.80624367764619" lon="9.337268987382771"><ele>29.0</ele><time>2026-05-01T08:53:10Z</time></trkpt><trkpt lat="42.80621870263927" lon="9.337444395685887"><ele>33.666666666666664</ele><time>2026-05-01T08:53:11Z</time></trkpt><trkpt lat="42.80624001940785" lon="9.337647922036641"><ele>38.333333333333336</ele><time>2026-05-01T08:53:12Z</time></trkpt><trkpt lat="42.80632806937548" lon="9.33784815692462"><ele>43.0</ele><time>2026-05-01T08:53:13Z</time></trkpt><trkpt lat="42.806436892766875" lon="9.338029909526403"><ele>43.75</ele><time>2026-05-01T08:53:14Z</time></trkpt><trkpt lat="42.80650978308634" lon="9.338217533959455"><ele>44.5</ele><time>2026-05-01T08:53:15Z</time></trkpt><trkpt lat="42.806549181646744" lon="9.338397163636607"><ele>45.25</ele><time>2026-05-01T08:53:16Z</time></trkpt><trkpt lat="42.80652554665783" lon="9.338596338037442"><ele>46.0</ele><time>2026-05-01T08:53:17Z</time></trkpt><trkpt lat="42.80647431804653" lon="9.338804092554433"><ele>48.25</ele><time>2026-05-01T08:53:18Z</time></trkpt><trkpt lat="42.806416627460045" lon="9.339008082947514"><ele>50.5</ele><time>2026-05-01T08:53:19Z</time></trkpt><trkpt lat="42.806369779203436" lon="9.339184836512963"><ele>52.75</ele><time>2026-05-01T08:53:20Z</time></trkpt><trkpt lat="42.806322143443026" lon="9.339307622338957"><ele>55.0</ele><time>2026-05-01T08:53:21Z</time></trkpt><trkpt lat="42.806239981752974" lon="9.339366534842917"><ele>55.0</ele><time>2026-05-01T08:53:22Z</time></trkpt><trkpt lat="42.806138263215885" lon="9.339377403285978"><ele>55.0</ele><time>2026-05-01T08:53:23Z</time></trkpt><trkpt lat="42.80601773852251" lon="9.339302127284132"><ele>55.0</ele><time>2026-05-01T08:53:24Z</time></trkpt><trkpt lat="42.80589457769617" lon="9.339189961268898"><ele>55.0</ele><time>2026-05-01T08:53:25Z</time></trkpt><trkpt lat="42.80577981528338" lon="9.33911002524771"><ele>51.5</ele><time>2026-05-01T08:53:26Z</time></trkpt><trkpt lat="42.80565579671068" lon="9.339118335383692"><ele>48.0</ele><time>2026-05-01T08:53:27Z</time></trkpt><trkpt lat="42.80551684045053" lon="9.339201477740264"><ele>44.5</ele><time>2026-05-01T08:53:28Z</time></trkpt><trkpt lat="42.80536973121979" lon="9.339322527632019"><ele>41.0</ele><time>2026-05-01T08:53:29Z</time></trkpt><trkpt lat="42.80521713029999" lon="9.339439039249681"><ele>37.666666666666664</ele><time>2026-05-01T08:53:30Z</time></trkpt><trkpt lat="42.8050587766646" lon="9.339554374459032"><ele>34.333333333333336</ele><time>2026-05-01T08:53:31Z</time></trkpt><trkpt lat="42.804884686974795" lon="9.339661193501689"><ele>31.0</ele><time>2026-05-01T08:53:32Z</time></trkpt><trkpt lat="42.80468930849225" lon="9.339715022625548"><ele>36.66666666666667</ele><time>2026-05-01T08:53:33Z</time></trkpt><trkpt lat="42.80449358137602" lon="9.339796064302728"><ele>42.333333333333336</ele><time>2026-05-01T08:53:34Z</time></trkpt><trkpt lat="42.80430642373298" lon="9.339830385178903"><ele>48.0</ele><time>2026-05-01T08:53:35Z</time></trkpt><trkpt lat="42.80415034774669" lon="9.339851486290948"><ele>48.0</ele><time>2026-05-01T08:53:36Z</time></trkpt><trkpt lat="42.804012825192856" lon="9.339906052099279"><ele>48.0</ele><time>2026-05-01T08:53:37Z</time></trkpt><trkpt lat="42.803892933319204" lon="9.340029424275958"><ele>48.0</ele><time>2026-05-01T08:53:38Z</time></trkpt><trkpt lat="42.80375389117195" lon="9.340105901079102"><ele>48.0</ele><time>2026-05-01T08:53:39Z</time></trkpt><trkpt lat="42.803604086036806" lon="9.340199974924673"><ele>45.666666666666664</ele><time>2026-05-01T08:53:39.999Z</time></trkpt><trkpt lat="42.80345396561441" lon="9.34028620948189"><ele>43.33333333333333</ele><time>2026-05-01T08:53:40.999Z</time></trkpt><trkpt lat="42.80332385144781" lon="9.340440126503436"><ele>41.0</ele><time>2026-05-01T08:53:41.999Z</time></trkpt><trkpt lat="42.80322018571708" lon="9.340607226922925"><ele>44.75</ele><time>2026-05-01T08:53:42.999Z</time></trkpt><trkpt lat="42.803147256699134" lon="9.340755946743247"><ele>48.5</ele><time>2026-05-01T08:53:43.999Z</time></trkpt><trkpt lat="42.803123442460006" lon="9.340930012135097"><ele>52.25</ele><time>2026-05-01T08:53:44.999Z</time></trkpt><trkpt lat="42.80313388667336" lon="9.3411491938492"><ele>56.0</ele><time>2026-05-01T08:53:45.999Z</time></trkpt><trkpt lat="42.80314878792904" lon="9.34138734915417"><ele>58.66666666666667</ele><time>2026-05-01T08:53:46.999Z</time></trkpt><trkpt lat="42.80313468581002" lon="9.341628828761767"><ele>61.33333333333333</ele><time>2026-05-01T08:53:47.999Z</time></trkpt><trkpt lat="42.80313280195027" lon="9.341883758156332"><ele>64.0</ele><time>2026-05-01T08:53:48.999Z</time></trkpt><trkpt lat="42.80312506049336" lon="9.342137514363905"><ele>66.25</ele><time>2026-05-01T08:53:49.999Z</time></trkpt><trkpt lat="42.80308296790764" lon="9.342370809989465"><ele>68.5</ele><time>2026-05-01T08:53:50.999Z</time></trkpt><trkpt lat="42.80301243927528" lon="9.342551985034175"><ele>70.75</ele><time>2026-05-01T08:53:51.999Z</time></trkpt><trkpt lat="42.802942938180564" lon="9.342666861741701"><ele>73.0</ele><time>2026-05-01T08:53:52.999Z</time></trkpt><trkpt lat="42.80285839056608" lon="9.342728753531222"><ele>73.0</ele><time>2026-05-01T08:53:53.999Z</time></trkpt><trkpt lat="42.802737101336746" lon="9.342670762751931"><ele>73.0</ele><time>2026-05-01T08:53:54.999Z</time></trkpt><trkpt lat="42.802600106349644" lon="9.342610918094968"><ele>73.0</ele><time>2026-05-01T08:53:55.999Z</time></trkpt><trkpt lat="42.80244484067677" lon="9.342544045922445"><ele>73.0</ele><time>2026-05-01T08:53:56.999Z</time></trkpt><trkpt lat="42.80231436852181" lon="9.342459481666925"><ele>69.5</ele><time>2026-05-01T08:53:57.999Z</time></trkpt><trkpt lat="42.802204300982424" lon="9.342437910133631"><ele>66.0</ele><time>2026-05-01T08:53:58.999Z</time></trkpt><trkpt lat="42.80210610517594" lon="9.342525569744735"><ele>62.5</ele><time>2026-05-01T08:53:59.999Z</time></trkpt><trkpt lat="42.802034133332604" lon="9.342671146205422"><ele>59.0</ele><time>2026-05-01T08:54:00.999Z</time></trkpt><trkpt lat="42.801997985452736" lon="9.342871978737962"><ele>63.0</ele><time>2026-05-01T08:54:01.999Z</time></trkpt><trkpt lat="42.80201429384193" lon="9.34310432909591"><ele>67.0</ele><time>2026-05-01T08:54:02.999Z</time></trkpt><trkpt lat="42.802001860594395" lon="9.343321883386835"><ele>71.0</ele><time>2026-05-01T08:54:03.999Z</time></trkpt><trkpt lat="42.80194779600432" lon="9.343469734578797"><ele>71.0</ele><time>2026-05-01T08:54:04.999Z</time></trkpt><trkpt lat="42.80188257828146" lon="9.343550559481178"><ele>71.0</ele><time>2026-05-01T08:54:05.999Z</time></trkpt><trkpt lat="42.80176026369978" lon="9.343535773585636"><ele>71.0</ele><time>2026-05-01T08:54:06.999Z</time></trkpt><trkpt lat="42.80160195074896" lon="9.343591669127159"><ele>71.0</ele><time>2026-05-01T08:54:07.999Z</time></trkpt><trkpt lat="42.80144026407601" lon="9.343639785537473"><ele>69.25</ele><time>2026-05-01T08:54:08.999Z</time></trkpt><trkpt lat="42.801301093017166" lon="9.343551652156519"><ele>67.5</ele><time>2026-05-01T08:54:09.999Z</time></trkpt><trkpt lat="42.80118508714416" lon="9.343515900670402"><ele>65.75</ele><time>2026-05-01T08:54:10.999Z</time></trkpt><trkpt lat="42.80107393588708" lon="9.343514987469606"><ele>64.0</ele><time>2026-05-01T08:54:11.999Z</time></trkpt><trkpt lat="42.8009529698789" lon="9.343595857390886"><ele>62.33333333333333</ele><time>2026-05-01T08:54:12.999Z</time></trkpt><trkpt lat="42.80081558183645" lon="9.343720004391212"><ele>60.66666666666667</ele><time>2026-05-01T08:54:13.999Z</time></trkpt><trkpt lat="42.80066995328535" lon="9.343815026031459"><ele>59.0</ele><time>2026-05-01T08:54:14.999Z</time></trkpt><trkpt lat="42.80055134516636" lon="9.343920580061907"><ele>62.25</ele><time>2026-05-01T08:54:15.999Z</time></trkpt><trkpt lat="42.8004604225075" lon="9.344072560170256"><ele>65.5</ele><time>2026-05-01T08:54:16.999Z</time></trkpt><trkpt lat="42.800406562245826" lon="9.344266846155731"><ele>68.75</ele><time>2026-05-01T08:54:17.999Z</time></trkpt><trkpt lat="42.80038511813979" lon="9.344468764529779"><ele>72.0</ele><time>2026-05-01T08:54:18.999Z</time></trkpt><trkpt lat="42.80041395635352" lon="9.344667962412423"><ele>75.0</ele><time>2026-05-01T08:54:19.999Z</time></trkpt><trkpt lat="42.80039919538317" lon="9.34487440051661"><ele>78.0</ele><time>2026-05-01T08:54:20.999Z</time></trkpt><trkpt lat="42.80033088256949" lon="9.345058776186988"><ele>81.0</ele><time>2026-05-01T08:54:21.999Z</time></trkpt><trkpt lat="42.8002463985656" lon="9.345271752259803"><ele>81.0</ele><time>2026-05-01T08:54:22.999Z</time></trkpt><trkpt lat="42.80017612271779" lon="9.34548782957848"><ele>81.0</ele><time>2026-05-01T08:54:23.999Z</time></trkpt><trkpt lat="42.800095976696085" lon="9.345701268014148"><ele>81.0</ele><time>2026-05-01T08:54:24.999Z</time></trkpt><trkpt lat="42.80001823779567" lon="9.34588665010412"><ele>77.75</ele><time>2026-05-01T08:54:25.999Z</time></trkpt><trkpt lat="42.7999718009852" lon="9.346051035531984"><ele>74.5</ele><time>2026-05-01T08:54:26.999Z</time></trkpt><trkpt lat="42.800024871773466" lon="9.346195572148764"><ele>71.25</ele><time>2026-05-01T08:54:27.999Z</time></trkpt><trkpt lat="42.80010249426664" lon="9.346345537112246"><ele>68.0</ele><time>2026-05-01T08:54:28.999Z</time></trkpt><trkpt lat="42.800165341957026" lon="9.346535530822443"><ele>76.66666666666667</ele><time>2026-05-01T08:54:29.999Z</time></trkpt><trkpt lat="42.800213195034715" lon="9.34674660852695"><ele>85.33333333333333</ele><time>2026-05-01T08:54:30.999Z</time></trkpt><trkpt lat="42.800237241905656" lon="9.346958093594342"><ele>94.0</ele><time>2026-05-01T08:54:31.999Z</time></trkpt><trkpt lat="42.80025144972424" lon="9.347141906054942"><ele>95.5</ele><time>2026-05-01T08:54:32.999Z</time></trkpt><trkpt lat="42.80022443962161" lon="9.347302939792446"><ele>97.0</ele><time>2026-05-01T08:54:33.999Z</time></trkpt><trkpt lat="42.80013377404101" lon="9.347406817901756"><ele>98.5</ele><time>2026-05-01T08:54:34.999Z</time></trkpt><trkpt lat="42.80003786629819" lon="9.347578661098538"><ele>100.0</ele><time>2026-05-01T08:54:35.999Z</time></trkpt><trkpt lat="42.79995199315954" lon="9.347756061212642"><ele>95.25</ele><time>2026-05-01T08:54:37Z</time></trkpt><trkpt lat="42.799884323998754" lon="9.347944591201339"><ele>90.5</ele><time>2026-05-01T08:54:38Z</time></trkpt><trkpt lat="42.799864539383236" lon="9.348135645672079"><ele>85.75</ele><time>2026-05-01T08:54:39Z</time></trkpt><trkpt lat="42.799886674415404" lon="9.34831502141095"><ele>81.0</ele><time>2026-05-01T08:54:40Z</time></trkpt><trkpt lat="42.79995406543524" lon="9.34852047703036"><ele>81.0</ele><time>2026-05-01T08:54:41Z</time></trkpt><trkpt lat="42.799982798527026" lon="9.348747084599317"><ele>81.0</ele><time>2026-05-01T08:54:42Z</time></trkpt><trkpt lat="42.800014794082564" lon="9.34897482072088"><ele>81.0</ele><time>2026-05-01T08:54:43Z</time></trkpt><trkpt lat="42.80003516019444" lon="9.349153259187744"><ele>81.6</ele><time>2026-05-01T08:54:44Z</time></trkpt><trkpt lat="42.80003714688" lon="9.349288965073315"><ele>82.19999999999999</ele><time>2026-05-01T08:54:45Z</time></trkpt><trkpt lat="42.80000428607553" lon="9.349384398512424"><ele>82.80000000000001</ele><time>2026-05-01T08:54:46Z</time></trkpt><trkpt lat="42.799928443737436" lon="9.349411182670766"><ele>83.4</ele><time>2026-05-01T08:54:47Z</time></trkpt><trkpt lat="42.799829148685" lon="9.349378188060562"><ele>84.0</ele><time>2026-05-01T08:54:48Z</time></trkpt><trkpt lat="42.799723592264634" lon="9.34934107911679"><ele>84.0</ele><time>2026-05-01T08:54:49Z</time></trkpt><trkpt lat="42.79969280416147" lon="9.349158099460443"><ele>84.0</ele><time>2026-05-01T08:54:50Z</time></trkpt><trkpt lat="42.79960070162673" lon="9.348975757893536"><ele>84.0</ele><time>2026-05-01T08:54:51Z</time></trkpt><trkpt lat="42.799505434643116" lon="9.348789041630695"><ele>83.0</ele><time>2026-05-01T08:54:52Z</time></trkpt><trkpt lat="42.79936409205562" lon="9.348599939482266"><ele>82.0</ele><time>2026-05-01T08:54:53Z</time></trkpt><trkpt lat="42.79922404514006" lon="9.348451301032949"><ele>81.0</ele><time>2026-05-01T08:54:54Z</time></trkpt><trkpt lat="42.799117459858905" lon="9.34830842254673"><ele>80.75</ele><time>2026-05-01T08:54:55Z</time></trkpt><trkpt lat="42.79904815872817" lon="9.348200456263104"><ele>80.5</ele><time>2026-05-01T08:54:56Z</time></trkpt><trkpt lat="42.79896775290591" lon="9.348159575782503"><ele>80.25</ele><time>2026-05-01T08:54:57Z</time></trkpt><trkpt lat="42.79885730114256" lon="9.348202648444241"><ele>80.0</ele><time>2026-05-01T08:54:58Z</time></trkpt><trkpt lat="42.79872620232703" lon="9.348292947691737"><ele>80.0</ele><time>2026-05-01T08:54:59Z</time></trkpt><trkpt lat="42.79859392081166" lon="9.348273084336995"><ele>80.0</ele><time>2026-05-01T08:55:00Z</time></trkpt><trkpt lat="42.79845749943661" lon="9.348195680332138"><ele>80.0</ele><time>2026-05-01T08:55:01Z</time></trkpt><trkpt lat="42.79833370557331" lon="9.348070448299175"><ele>80.0</ele><time>2026-05-01T08:55:02Z</time></trkpt><trkpt lat="42.79823101621078" lon="9.347901624194796"><ele>77.66666666666667</ele><time>2026-05-01T08:55:03Z</time></trkpt><trkpt lat="42.79810682646464" lon="9.347712313971813"><ele>75.33333333333333</ele><time>2026-05-01T08:55:04Z</time></trkpt><trkpt lat="42.79799026956722" lon="9.347503944867634"><ele>73.0</ele><time>2026-05-01T08:55:05Z</time></trkpt><trkpt lat="42.797867354391535" lon="9.347280996441897"><ele>80.33333333333333</ele><time>2026-05-01T08:55:06Z</time></trkpt><trkpt lat="42.797772561544704" lon="9.347016588981186"><ele>87.66666666666667</ele><time>2026-05-01T08:55:07Z</time></trkpt><trkpt lat="42.79767617660792" lon="9.346755290439873"><ele>95.0</ele><time>2026-05-01T08:55:08Z</time></trkpt><trkpt lat="42.797598987941" lon="9.346474644037096"><ele>88.33333333333334</ele><time>2026-05-01T08:55:09Z</time></trkpt><trkpt lat="42.79752671704385" lon="9.346228188301742"><ele>81.66666666666667</ele><time>2026-05-01T08:55:10Z</time></trkpt><trkpt lat="42.797455291473476" lon="9.346005824990078"><ele>75.0</ele><time>2026-05-01T08:55:11Z</time></trkpt><trkpt lat="42.79738463884586" lon="9.34581910447873"><ele>75.0</ele><time>2026-05-01T08:55:12Z</time></trkpt><trkpt lat="42.79731990428386" lon="9.34568190743613"><ele>75.0</ele><time>2026-05-01T08:55:13Z</time></trkpt><trkpt lat="42.79724360665906" lon="9.345600939097778"><ele>75.0</ele><time>2026-05-01T08:55:14Z</time></trkpt><trkpt lat="42.79714468851854" lon="9.34562509703571"><ele>75.0</ele><time>2026-05-01T08:55:15Z</time></trkpt><trkpt lat="42.79705970825835" lon="9.345726032379536"><ele>75.0</ele><time>2026-05-01T08:55:16Z</time></trkpt><trkpt lat="42.7970015820483" lon="9.345876368012538"><ele>75.0</ele><time>2026-05-01T08:55:17Z</time></trkpt><trkpt lat="42.7969596494358" lon="9.346069698481287"><ele>75.0</ele><time>2026-05-01T08:55:18Z</time></trkpt><trkpt lat="42.796876392067205" lon="9.3462357268591"><ele>75.0</ele><time>2026-05-01T08:55:19Z</time></trkpt><trkpt lat="42.796736565790106" lon="9.346314248763115"><ele>75.0</ele><time>2026-05-01T08:55:20Z</time></trkpt><trkpt lat="42.79658139374704" lon="9.346417984251387"><ele>81.66666666666667</ele><time>2026-05-01T08:55:21Z</time></trkpt><trkpt lat="42.796419944624795" lon="9.346528853972362"><ele>88.33333333333334</ele><time>2026-05-01T08:55:22Z</time></trkpt><trkpt lat="42.79625085469999" lon="9.346645982959142"><ele>95.0</ele><time>2026-05-01T08:55:23Z</time></trkpt><trkpt lat="42.79606765389147" lon="9.346745118738388"><ele>91.33333333333334</ele><time>2026-05-01T08:55:24Z</time></trkpt><trkpt lat="42.79587576474604" lon="9.346842659038645"><ele>87.66666666666667</ele><time>2026-05-01T08:55:25Z</time></trkpt><trkpt lat="42.79567770429698" lon="9.346839866472452"><ele>84.0</ele><time>2026-05-01T08:55:26Z</time></trkpt><trkpt lat="42.79549589386" lon="9.34683476811243"><ele>84.0</ele><time>2026-05-01T08:55:27Z</time></trkpt><trkpt lat="42.79533918586924" lon="9.346876903665686"><ele>84.0</ele><time>2026-05-01T08:55:28Z</time></trkpt><trkpt lat="42.795198288524304" lon="9.346933897738737"><ele>84.0</ele><time>2026-05-01T08:55:29Z</time></trkpt><trkpt lat="42.79506886784449" lon="9.347045759833948"><ele>82.25</ele><time>2026-05-01T08:55:29.999Z</time></trkpt><trkpt lat="42.7949619396032" lon="9.347199964782483"><ele>80.5</ele><time>2026-05-01T08:55:30.999Z</time></trkpt><trkpt lat="42.79486336846326" lon="9.347334338931432"><ele>78.75</ele><time>2026-05-01T08:55:31.999Z</time></trkpt><trkpt lat="42.794778467392334" lon="9.347434356102454"><ele>77.0</ele><time>2026-05-01T08:55:32.999Z</time></trkpt><trkpt lat="42.79465962269678" lon="9.347405613644503"><ele>77.0</ele><time>2026-05-01T08:55:33.999Z</time></trkpt><trkpt lat="42.79454194858912" lon="9.347386866151298"><ele>77.0</ele><time>2026-05-01T08:55:34.999Z</time></trkpt><trkpt lat="42.7944445202067" lon="9.34728735983744"><ele>77.0</ele><time>2026-05-01T08:55:35.999Z</time></trkpt><trkpt lat="42.79439107325121" lon="9.34712152797794"><ele>77.0</ele><time>2026-05-01T08:55:36.999Z</time></trkpt><trkpt lat="42.7942872451727" lon="9.347019255631817"><ele>78.33333333333334</ele><time>2026-05-01T08:55:37.999Z</time></trkpt><trkpt lat="42.7941567145214" lon="9.346929063657587"><ele>79.66666666666667</ele><time>2026-05-01T08:55:38.999Z</time></trkpt><trkpt lat="42.79400089914137" lon="9.346865243489933"><ele>81.0</ele><time>2026-05-01T08:55:39.999Z</time></trkpt><trkpt lat="42.79384370746982" lon="9.346813434147814"><ele>81.0</ele><time>2026-05-01T08:55:40.999Z</time></trkpt><trkpt lat="42.79368033001657" lon="9.346811177480136"><ele>81.0</ele><time>2026-05-01T08:55:41.999Z</time></trkpt><trkpt lat="42.79355256054424" lon="9.346837623946591"><ele>81.0</ele><time>2026-05-01T08:55:42.999Z</time></trkpt><trkpt lat="42.79344929120391" lon="9.346911547790299"><ele>81.0</ele><time>2026-05-01T08:55:43.999Z</time></trkpt><trkpt lat="42.793370851191746" lon="9.34704169177237"><ele>79.5</ele><time>2026-05-01T08:55:44.999Z</time></trkpt><trkpt lat="42.793295507203304" lon="9.347177492857451"><ele>78.0</ele><time>2026-05-01T08:55:45.999Z</time></trkpt><trkpt lat="42.79317079090242" lon="9.347232382365055"><ele>76.5</ele><time>2026-05-01T08:55:46.999Z</time></trkpt><trkpt lat="42.79304117500721" lon="9.347298272192823"><ele>75.0</ele><time>2026-05-01T08:55:47.999Z</time></trkpt><trkpt lat="42.79292978985118" lon="9.347422458797395"><ele>75.25</ele><time>2026-05-01T08:55:48.999Z</time></trkpt><trkpt lat="42.79283258030415" lon="9.347573667634851"><ele>75.5</ele><time>2026-05-01T08:55:49.999Z</time></trkpt><trkpt lat="42.792732191025735" lon="9.347716381625515"><ele>75.75</ele><time>2026-05-01T08:55:50.999Z</time></trkpt><trkpt lat="42.79261680069055" lon="9.34777730409684"><ele>76.0</ele><time>2026-05-01T08:55:51.999Z</time></trkpt><trkpt lat="42.79251593640661" lon="9.347832896711488"><ele>76.0</ele><time>2026-05-01T08:55:52.999Z</time></trkpt><trkpt lat="42.79245068198418" lon="9.34792034025946"><ele>76.0</ele><time>2026-05-01T08:55:53.999Z</time></trkpt><trkpt lat="42.792416419253804" lon="9.348059716832681"><ele>76.0</ele><time>2026-05-01T08:55:54.999Z</time></trkpt><trkpt lat="42.792370106932786" lon="9.34819716205305"><ele>76.0</ele><time>2026-05-01T08:55:55.999Z</time></trkpt><trkpt lat="42.79228121748946" lon="9.348315078708723"><ele>76.0</ele><time>2026-05-01T08:55:56.999Z</time></trkpt><trkpt lat="42.792173414416354" lon="9.348418584393706"><ele>85.0</ele><time>2026-05-01T08:55:57.999Z</time></trkpt><trkpt lat="42.79211109547075" lon="9.348580716150583"><ele>94.0</ele><time>2026-05-01T08:55:58.999Z</time></trkpt><trkpt lat="42.792061600859455" lon="9.348761310553712"><ele>103.0</ele><time>2026-05-01T08:55:59.999Z</time></trkpt><trkpt lat="42.792007721943456" lon="9.348955975565348"><ele>112.0</ele><time>2026-05-01T08:56:00.999Z</time></trkpt><trkpt lat="42.791933965320126" lon="9.34915975244654"><ele>112.66666666666667</ele><time>2026-05-01T08:56:01.999Z</time></trkpt><trkpt lat="42.79189194481084" lon="9.349382739393555"><ele>113.33333333333334</ele><time>2026-05-01T08:56:02.999Z</time></trkpt><trkpt lat="42.79185096112489" lon="9.349612417705902"><ele>114.0</ele><time>2026-05-01T08:56:03.999Z</time></trkpt><trkpt lat="42.791793224996134" lon="9.349816474468518"><ele>114.0</ele><time>2026-05-01T08:56:04.999Z</time></trkpt><trkpt lat="42.79172460553411" lon="9.350007223657894"><ele>114.0</ele><time>2026-05-01T08:56:05.999Z</time></trkpt><trkpt lat="42.791669300789955" lon="9.350166616872247"><ele>114.0</ele><time>2026-05-01T08:56:06.999Z</time></trkpt><trkpt lat="42.79161713525264" lon="9.35029259174411"><ele>114.0</ele><time>2026-05-01T08:56:07.999Z</time></trkpt><trkpt lat="42.79153940520148" lon="9.350325288671469"><ele>114.0</ele><time>2026-05-01T08:56:08.999Z</time></trkpt><trkpt lat="42.79146603054065" lon="9.35029016752775"><ele>114.0</ele><time>2026-05-01T08:56:09.999Z</time></trkpt><trkpt lat="42.79137299665558" lon="9.350250308955887"><ele>114.0</ele><time>2026-05-01T08:56:10.999Z</time></trkpt><trkpt lat="42.79126825458341" lon="9.350254703982063"><ele>114.0</ele><time>2026-05-01T08:56:11.999Z</time></trkpt><trkpt lat="42.7911700040008" lon="9.350297813263428"><ele>114.0</ele><time>2026-05-01T08:56:12.999Z</time></trkpt><trkpt lat="42.791062072120596" lon="9.350403664258991"><ele>113.75</ele><time>2026-05-01T08:56:13.999Z</time></trkpt><trkpt lat="42.790973101853616" lon="9.350546865957162"><ele>113.5</ele><time>2026-05-01T08:56:14.999Z</time></trkpt><trkpt lat="42.79094221773179" lon="9.350726413429772"><ele>113.25</ele><time>2026-05-01T08:56:15.999Z</time></trkpt><trkpt lat="42.790849338230885" lon="9.350850017917642"><ele>113.0</ele><time>2026-05-01T08:56:16.999Z</time></trkpt><trkpt lat="42.79074861397768" lon="9.350953802805568"><ele>113.0</ele><time>2026-05-01T08:56:17.999Z</time></trkpt><trkpt lat="42.79063636461904" lon="9.351061341218628"><ele>113.0</ele><time>2026-05-01T08:56:18.999Z</time></trkpt><trkpt lat="42.790505535586085" lon="9.351118084592823"><ele>113.0</ele><time>2026-05-01T08:56:19.999Z</time></trkpt><trkpt lat="42.79037109534321" lon="9.351105129704413"><ele>113.0</ele><time>2026-05-01T08:56:20.999Z</time></trkpt><trkpt lat="42.79024519838546" lon="9.3511111949173"><ele>114.0</ele><time>2026-05-01T08:56:21.999Z</time></trkpt><trkpt lat="42.790126454717" lon="9.351069087081259"><ele>115.0</ele><time>2026-05-01T08:56:22.999Z</time></trkpt><trkpt lat="42.79001602106974" lon="9.350964683465945"><ele>116.0</ele><time>2026-05-01T08:56:23.999Z</time></trkpt><trkpt lat="42.78989393124317" lon="9.350888951879268"><ele>117.0</ele><time>2026-05-01T08:56:24.999Z</time></trkpt><trkpt lat="42.78980653607807" lon="9.350772677937107"><ele>117.0</ele><time>2026-05-01T08:56:25.999Z</time></trkpt><trkpt lat="42.7897706378428" lon="9.35064218630727"><ele>116.99999999999999</ele><time>2026-05-01T08:56:26.999Z</time></trkpt><trkpt lat="42.78987790627137" lon="9.350501037782422"><ele>116.99999999999999</ele><time>2026-05-01T08:56:27.999Z</time></trkpt><trkpt lat="42.789864419476146" lon="9.350387391400684"><ele>117.0</ele><time>2026-05-01T08:56:28.999Z</time></trkpt><trkpt lat="42.789866583828235" lon="9.350236937236366"><ele>117.0</ele><time>2026-05-01T08:56:29.999Z</time></trkpt><trkpt lat="42.789811623806884" lon="9.350136994840547"><ele>115.0</ele><time>2026-05-01T08:56:30.999Z</time></trkpt><trkpt lat="42.78971321719558" lon="9.350029862449013"><ele>113.0</ele><time>2026-05-01T08:56:31.999Z</time></trkpt><trkpt lat="42.78960053985974" lon="9.349914454004631"><ele>111.0</ele><time>2026-05-01T08:56:32.999Z</time></trkpt><trkpt lat="42.78948516564951" lon="9.349777810465513"><ele>109.0</ele><time>2026-05-01T08:56:33.999Z</time></trkpt><trkpt lat="42.789364459652795" lon="9.349634753123077"><ele>111.0</ele><time>2026-05-01T08:56:34.999Z</time></trkpt><trkpt lat="42.78924322872594" lon="9.349471760656098"><ele>113.0</ele><time>2026-05-01T08:56:35.999Z</time></trkpt><trkpt lat="42.789114553728936" lon="9.349300668706576"><ele>115.0</ele><time>2026-05-01T08:56:36.999Z</time></trkpt><trkpt lat="42.78900378936313" lon="9.349137819273952"><ele>115.0</ele><time>2026-05-01T08:56:37.999Z</time></trkpt><trkpt lat="42.78889592919379" lon="9.349016884106991"><ele>115.0</ele><time>2026-05-01T08:56:38.999Z</time></trkpt><trkpt lat="42.788777966966826" lon="9.34894484081151"><ele>115.0</ele><time>2026-05-01T08:56:39.999Z</time></trkpt><trkpt lat="42.78861579385089" lon="9.348917851034479"><ele>115.0</ele><time>2026-05-01T08:56:40.999Z</time></trkpt><trkpt lat="42.788439978658694" lon="9.348882410320874"><ele>109.0</ele><time>2026-05-01T08:56:41.999Z</time></trkpt><trkpt lat="42.78826793428088" lon="9.34884835507553"><ele>103.0</ele><time>2026-05-01T08:56:42.999Z</time></trkpt><trkpt lat="42.7880919861691" lon="9.348808669489074"><ele>97.0</ele><time>2026-05-01T08:56:43.999Z</time></trkpt><trkpt lat="42.787932292422596" lon="9.34874499734225"><ele>97.0</ele><time>2026-05-01T08:56:44.999Z</time></trkpt><trkpt lat="42.787783491416725" lon="9.348619624839111"><ele>97.0</ele><time>2026-05-01T08:56:45.999Z</time></trkpt><trkpt lat="42.787651941565855" lon="9.348541568554582"><ele>97.0</ele><time>2026-05-01T08:56:46.999Z</time></trkpt><trkpt lat="42.78756039069911" lon="9.34846256254339"><ele>97.0</ele><time>2026-05-01T08:56:47.999Z</time></trkpt><trkpt lat="42.78749508110374" lon="9.348389186476313"><ele>100.83333333333334</ele><time>2026-05-01T08:56:48.999Z</time></trkpt><trkpt lat="42.78743844010553" lon="9.34831218318253"><ele>104.66666666666667</ele><time>2026-05-01T08:56:49.999Z</time></trkpt><trkpt lat="42.78737246457338" lon="9.348246013135734"><ele>108.5</ele><time>2026-05-01T08:56:50.999Z</time></trkpt><trkpt lat="42.7873038107618" lon="9.34819321322923"><ele>112.33333333333334</ele><time>2026-05-01T08:56:52Z</time></trkpt><trkpt lat="42.78722260322886" lon="9.348171236791561"><ele>116.16666666666667</ele><time>2026-05-01T08:56:53Z</time></trkpt><trkpt lat="42.787105889478994" lon="9.348233909905794"><ele>120.0</ele><time>2026-05-01T08:56:54Z</time></trkpt><trkpt lat="42.78699637787192" lon="9.348271432691101"><ele>120.0</ele><time>2026-05-01T08:56:55Z</time></trkpt><trkpt lat="42.7868885279334" lon="9.348219878651593"><ele>120.0</ele><time>2026-05-01T08:56:56Z</time></trkpt><trkpt lat="42.786771940529185" lon="9.348138265881978"><ele>120.0</ele><time>2026-05-01T08:56:57Z</time></trkpt><trkpt lat="42.78664429149371" lon="9.348101112190303"><ele>120.0</ele><time>2026-05-01T08:56:58Z</time></trkpt><trkpt lat="42.78651911496919" lon="9.348060925736132"><ele>117.33333333333333</ele><time>2026-05-01T08:56:59Z</time></trkpt><trkpt lat="42.78640976712498" lon="9.348034756179542"><ele>114.66666666666666</ele><time>2026-05-01T08:57:00Z</time></trkpt><trkpt lat="42.78632465153819" lon="9.348022519569932"><ele>112.0</ele><time>2026-05-01T08:57:01Z</time></trkpt><trkpt lat="42.786246260488106" lon="9.348036628843142"><ele>109.33333333333333</ele><time>2026-05-01T08:57:02Z</time></trkpt><trkpt lat="42.786178491172095" lon="9.348036312213297"><ele>106.66666666666666</ele><time>2026-05-01T08:57:03Z</time></trkpt><trkpt lat="42.78610415786454" lon="9.34800876921647"><ele>104.0</ele><time>2026-05-01T08:57:04Z</time></trkpt><trkpt lat="42.78601506275942" lon="9.348002036556903"><ele>107.2</ele><time>2026-05-01T08:57:05Z</time></trkpt><trkpt lat="42.78592479904743" lon="9.347953587566213"><ele>110.4</ele><time>2026-05-01T08:57:06Z</time></trkpt><trkpt lat="42.78582153257754" lon="9.347899357079578"><ele>113.6</ele><time>2026-05-01T08:57:07Z</time></trkpt><trkpt lat="42.78573284837764" lon="9.347805550873794"><ele>116.8</ele><time>2026-05-01T08:57:08Z</time></trkpt><trkpt lat="42.78563959699915" lon="9.347726904774452"><ele>120.0</ele><time>2026-05-01T08:57:09Z</time></trkpt><trkpt lat="42.7855524959475" lon="9.347660470285325"><ele>120.0</ele><time>2026-05-01T08:57:10Z</time></trkpt><trkpt lat="42.78550687871387" lon="9.347551964623953"><ele>120.0</ele><time>2026-05-01T08:57:11Z</time></trkpt><trkpt lat="42.78548386618635" lon="9.347393976104653"><ele>120.0</ele><time>2026-05-01T08:57:12Z</time></trkpt><trkpt lat="42.78546053803397" lon="9.347233216088949"><ele>120.0</ele><time>2026-05-01T08:57:13Z</time></trkpt><trkpt lat="42.785438676139684" lon="9.347109468862358"><ele>120.0</ele><time>2026-05-01T08:57:14Z</time></trkpt><trkpt lat="42.7854217773188" lon="9.34701570139555"><ele>116.66666666666667</ele><time>2026-05-01T08:57:15Z</time></trkpt><trkpt lat="42.7854072751386" lon="9.346929925564153"><ele>113.33333333333334</ele><time>2026-05-01T08:57:16Z</time></trkpt><trkpt lat="42.78539534009293" lon="9.346840992750684"><ele>110.0</ele><time>2026-05-01T08:57:17Z</time></trkpt><trkpt lat="42.785375368154234" lon="9.346737452958664"><ele>106.66666666666667</ele><time>2026-05-01T08:57:18Z</time></trkpt><trkpt lat="42.78534319077099" lon="9.346626101819295"><ele>103.33333333333334</ele><time>2026-05-01T08:57:19Z</time></trkpt><trkpt lat="42.785305840436685" lon="9.34650861934948"><ele>100.0</ele><time>2026-05-01T08:57:20Z</time></trkpt><trkpt lat="42.78526599261338" lon="9.346381497790402"><ele>97.50000000000001</ele><time>2026-05-01T08:57:21Z</time></trkpt><trkpt lat="42.785239114272315" lon="9.346249884543552"><ele>95.0</ele><time>2026-05-01T08:57:22Z</time></trkpt><trkpt lat="42.785219948120876" lon="9.346127160329123"><ele>92.5</ele><time>2026-05-01T08:57:23Z</time></trkpt><trkpt lat="42.785208512144244" lon="9.346028852320067"><ele>90.0</ele><time>2026-05-01T08:57:23.999Z</time></trkpt><trkpt lat="42.785202716690314" lon="9.345939249071067"><ele>87.5</ele><time>2026-05-01T08:57:24.999Z</time></trkpt><trkpt lat="42.785179379157825" lon="9.345800667605614"><ele>85.0</ele><time>2026-05-01T08:57:26.999Z</time></trkpt><trkpt lat="42.7851699612031" lon="9.345667743901869"><ele>93.33333333333333</ele><time>2026-05-01T08:57:28.999Z</time></trkpt><trkpt lat="42.78516257145408" lon="9.345567770232128"><ele>101.66666666666666</ele><time>2026-05-01T08:57:29.999Z</time></trkpt><trkpt lat="42.78514366661302" lon="9.345472551751723"><ele>110.0</ele><time>2026-05-01T08:57:30.999Z</time></trkpt><trkpt lat="42.78512849985842" lon="9.345324005178295"><ele>118.33333333333333</ele><time>2026-05-01T08:57:32.999Z</time></trkpt><trkpt lat="42.78510574670402" lon="9.345182324615928"><ele>126.66666666666667</ele><time>2026-05-01T08:57:34.999Z</time></trkpt><trkpt lat="42.78509269733659" lon="9.345068853395714"><ele>135.0</ele><time>2026-05-01T08:57:36.999Z</time></trkpt><trkpt lat="42.785066196064925" lon="9.344952828297233"><ele>135.0</ele><time>2026-05-01T08:57:38.999Z</time></trkpt><trkpt lat="42.785015143833924" lon="9.34486715420016"><ele>135.0</ele><time>2026-05-01T08:57:40.999Z</time></trkpt><trkpt lat="42.78495263348587" lon="9.344856936163554"><ele>135.0</ele><time>2026-05-01T08:57:41.999Z</time></trkpt><trkpt lat="42.7848787617053" lon="9.344836406730186"><ele>135.0</ele><time>2026-05-01T08:57:42.999Z</time></trkpt><trkpt lat="42.784807243199275" lon="9.344792675514478"><ele>135.0</ele><time>2026-05-01T08:57:43.999Z</time></trkpt><trkpt lat="42.78473101359051" lon="9.344763704883972"><ele>135.0</ele><time>2026-05-01T08:57:44.999Z</time></trkpt><trkpt lat="42.784652614492444" lon="9.344761476350579"><ele>135.0</ele><time>2026-05-01T08:57:45.999Z</time></trkpt><trkpt lat="42.78458670535747" lon="9.344749519265761"><ele>135.0</ele><time>2026-05-01T08:57:46.999Z</time></trkpt><trkpt lat="42.78447817606708" lon="9.344743202831298"><ele>135.0</ele><time>2026-05-01T08:57:48.999Z</time></trkpt><trkpt lat="42.78436239239387" lon="9.344781767915205"><ele>135.0</ele><time>2026-05-01T08:57:50.999Z</time></trkpt><trkpt lat="42.78429912224602" lon="9.344802423850604"><ele>135.0</ele><time>2026-05-01T08:57:51.999Z</time></trkpt><trkpt lat="42.784233094312206" lon="9.344817154991603"><ele>135.0</ele><time>2026-05-01T08:57:52.999Z</time></trkpt><trkpt lat="42.78416233579092" lon="9.344828943428094"><ele>135.8</ele><time>2026-05-01T08:57:53.999Z</time></trkpt><trkpt lat="42.784076403104834" lon="9.344808628112663"><ele>136.6</ele><time>2026-05-01T08:57:54.999Z</time></trkpt><trkpt lat="42.783990844260124" lon="9.344756350462388"><ele>137.4</ele><time>2026-05-01T08:57:55.999Z</time></trkpt><trkpt lat="42.78390216452582" lon="9.34469132912865"><ele>138.2</ele><time>2026-05-01T08:57:56.999Z</time></trkpt><trkpt lat="42.78381417315336" lon="9.344614255606292"><ele>139.0</ele><time>2026-05-01T08:57:57.999Z</time></trkpt><trkpt lat="42.78373349078849" lon="9.344552390213249"><ele>138.16666666666669</ele><time>2026-05-01T08:57:58.999Z</time></trkpt><trkpt lat="42.78367152674181" lon="9.344485825989898"><ele>137.33333333333334</ele><time>2026-05-01T08:57:59.999Z</time></trkpt><trkpt lat="42.78360222966918" lon="9.344431780495109"><ele>136.5</ele><time>2026-05-01T08:58:00.999Z</time></trkpt><trkpt lat="42.78353886063105" lon="9.34438310652481"><ele>135.66666666666666</ele><time>2026-05-01T08:58:01.999Z</time></trkpt><trkpt lat="42.783466517410595" lon="9.344319375747897"><ele>134.83333333333331</ele><time>2026-05-01T08:58:02.999Z</time></trkpt><trkpt lat="42.783389674984406" lon="9.344224810732623"><ele>134.0</ele><time>2026-05-01T08:58:03.999Z</time></trkpt><trkpt lat="42.78331296305505" lon="9.344110305913121"><ele>134.0</ele><time>2026-05-01T08:58:04.999Z</time></trkpt><trkpt lat="42.78324359186439" lon="9.34396165092842"><ele>134.0</ele><time>2026-05-01T08:58:05.999Z</time></trkpt><trkpt lat="42.78317658429426" lon="9.343796874254409"><ele>134.0</ele><time>2026-05-01T08:58:06.999Z</time></trkpt><trkpt lat="42.783118668929724" lon="9.343652338345853"><ele>134.0</ele><time>2026-05-01T08:58:07.999Z</time></trkpt><trkpt lat="42.78307122489731" lon="9.343505774552932"><ele>129.6</ele><time>2026-05-01T08:58:08.999Z</time></trkpt><trkpt lat="42.78304634426814" lon="9.343347051850886"><ele>125.2</ele><time>2026-05-01T08:58:09.999Z</time></trkpt><trkpt lat="42.78303648280689" lon="9.343200584707994"><ele>120.79999999999998</ele><time>2026-05-01T08:58:10.999Z</time></trkpt><trkpt lat="42.78302789680094" lon="9.343068296640384"><ele>116.39999999999999</ele><time>2026-05-01T08:58:11.999Z</time></trkpt><trkpt lat="42.78301594690966" lon="9.342935240488746"><ele>112.0</ele><time>2026-05-01T08:58:12.999Z</time></trkpt><trkpt lat="42.782979164942574" lon="9.342783990083792"><ele>106.5</ele><time>2026-05-01T08:58:13.999Z</time></trkpt><trkpt lat="42.782918537556625" lon="9.342636747355028"><ele>101.0</ele><time>2026-05-01T08:58:14.999Z</time></trkpt><trkpt lat="42.78285578286474" lon="9.342511024597474"><ele>95.5</ele><time>2026-05-01T08:58:15.999Z</time></trkpt><trkpt lat="42.78278989525585" lon="9.34238649845766"><ele>90.0</ele><time>2026-05-01T08:58:16.999Z</time></trkpt><trkpt lat="42.782734712877556" lon="9.342265275739551"><ele>84.8</ele><time>2026-05-01T08:58:17.999Z</time></trkpt><trkpt lat="42.78268553895507" lon="9.342161777484685"><ele>79.6</ele><time>2026-05-01T08:58:18.999Z</time></trkpt><trkpt lat="42.78262735996867" lon="9.342082063083001"><ele>74.4</ele><time>2026-05-01T08:58:19.999Z</time></trkpt><trkpt lat="42.78254758481479" lon="9.342037150351931"><ele>69.2</ele><time>2026-05-01T08:58:20.999Z</time></trkpt><trkpt lat="42.78244116669861" lon="9.342051863279883"><ele>64.0</ele><time>2026-05-01T08:58:21.999Z</time></trkpt><trkpt lat="42.782324195637756" lon="9.34212596959396"><ele>79.75</ele><time>2026-05-01T08:58:22.999Z</time></trkpt><trkpt lat="42.78220798723605" lon="9.342228764384567"><ele>95.5</ele><time>2026-05-01T08:58:23.999Z</time></trkpt><trkpt lat="42.78209604453004" lon="9.342331563408209"><ele>111.25</ele><time>2026-05-01T08:58:24.999Z</time></trkpt><trkpt lat="42.78198701879936" lon="9.342361471"><ele>127.0</ele><time>2026-05-01T08:58:25.999Z</time></trkpt><trkpt lat="42.78188464358553" lon="9.342352550984996"><ele>125.75</ele><time>2026-05-01T08:58:26.999Z</time></trkpt><trkpt lat="42.78177419075362" lon="9.342285325284639"><ele>124.5</ele><time>2026-05-01T08:58:27.999Z</time></trkpt><trkpt lat="42.78166583684579" lon="9.342255764735508"><ele>123.25</ele><time>2026-05-01T08:58:28.999Z</time></trkpt><trkpt lat="42.78154807464774" lon="9.342298231535437"><ele>122.0</ele><time>2026-05-01T08:58:29.999Z</time></trkpt><trkpt lat="42.78140538380135" lon="9.34237484106181"><ele>122.0</ele><time>2026-05-01T08:58:30.999Z</time></trkpt><trkpt lat="42.78124722768421" lon="9.342470141381762"><ele>122.0</ele><time>2026-05-01T08:58:31.999Z</time></trkpt><trkpt lat="42.78106749619591" lon="9.342541342501468"><ele>122.0</ele><time>2026-05-01T08:58:32.999Z</time></trkpt><trkpt lat="42.780886896545404" lon="9.34263138141615"><ele>115.33333333333333</ele><time>2026-05-01T08:58:33.999Z</time></trkpt><trkpt lat="42.780703546750296" lon="9.342717718042318"><ele>108.66666666666666</ele><time>2026-05-01T08:58:34.999Z</time></trkpt><trkpt lat="42.7805134394462" lon="9.342806397362176"><ele>102.0</ele><time>2026-05-01T08:58:35.999Z</time></trkpt><trkpt lat="42.78032397284418" lon="9.342892298786092"><ele>94.66666666666667</ele><time>2026-05-01T08:58:36.999Z</time></trkpt><trkpt lat="42.7801268376419" lon="9.342974211306624"><ele>87.33333333333334</ele><time>2026-05-01T08:58:37.999Z</time></trkpt><trkpt lat="42.77993252855288" lon="9.343047246632848"><ele>80.0</ele><time>2026-05-01T08:58:38.999Z</time></trkpt><trkpt lat="42.77973488903808" lon="9.343101291079604"><ele>92.33333333333334</ele><time>2026-05-01T08:58:39.999Z</time></trkpt><trkpt lat="42.77953238120082" lon="9.343128503953455"><ele>104.66666666666667</ele><time>2026-05-01T08:58:40.999Z</time></trkpt><trkpt lat="42.779332190526766" lon="9.343129186850357"><ele>117.0</ele><time>2026-05-01T08:58:41.999Z</time></trkpt><trkpt lat="42.7791308078896" lon="9.343122062018033"><ele>117.0</ele><time>2026-05-01T08:58:42.999Z</time></trkpt><trkpt lat="42.77891955141432" lon="9.343105750440058"><ele>117.0</ele><time>2026-05-01T08:58:43.999Z</time></trkpt><trkpt lat="42.77872207658082" lon="9.343069434046571"><ele>117.0</ele><time>2026-05-01T08:58:44.999Z</time></trkpt><trkpt lat="42.77853730022956" lon="9.343015387599486"><ele>101.0</ele><time>2026-05-01T08:58:45.999Z</time></trkpt><trkpt lat="42.77836235728142" lon="9.342964906882917"><ele>85.0</ele><time>2026-05-01T08:58:46.999Z</time></trkpt><trkpt lat="42.77819573314641" lon="9.342931751739979"><ele>69.0</ele><time>2026-05-01T08:58:47.999Z</time></trkpt><trkpt lat="42.77803887899979" lon="9.342960349500075"><ele>82.66666666666666</ele><time>2026-05-01T08:58:49Z</time></trkpt><trkpt lat="42.77789781826768" lon="9.343051259510782"><ele>96.33333333333333</ele><time>2026-05-01T08:58:50Z</time></trkpt><trkpt lat="42.777757171316246" lon="9.343174338533027"><ele>110.0</ele><time>2026-05-01T08:58:51Z</time></trkpt><trkpt lat="42.77761921380143" lon="9.343248265317206"><ele>110.0</ele><time>2026-05-01T08:58:52Z</time></trkpt><trkpt lat="42.777469684799584" lon="9.343253913875564"><ele>110.0</ele><time>2026-05-01T08:58:53Z</time></trkpt><trkpt lat="42.77730721493506" lon="9.3432303042974"><ele>110.0</ele><time>2026-05-01T08:58:54Z</time></trkpt><trkpt lat="42.77714479578856" lon="9.343203225661416"><ele>110.0</ele><time>2026-05-01T08:58:55Z</time></trkpt><trkpt lat="42.776999197972415" lon="9.343174411436722"><ele>110.0</ele><time>2026-05-01T08:58:56Z</time></trkpt><trkpt lat="42.77686359063559" lon="9.343152867117404"><ele>110.0</ele><time>2026-05-01T08:58:57Z</time></trkpt><trkpt lat="42.776753661484" lon="9.343139059602448"><ele>110.0</ele><time>2026-05-01T08:58:58Z</time></trkpt><trkpt lat="42.776655104454456" lon="9.343124829836889"><ele>108.4</ele><time>2026-05-01T08:58:59Z</time></trkpt><trkpt lat="42.7765605616056" lon="9.343118751318618"><ele>106.8</ele><time>2026-05-01T08:59:00Z</time></trkpt><trkpt lat="42.77647709534255" lon="9.34312044888449"><ele>105.19999999999999</ele><time>2026-05-01T08:59:01Z</time></trkpt><trkpt lat="42.776398724964174" lon="9.34316595186941"><ele>103.6</ele><time>2026-05-01T08:59:02Z</time></trkpt><trkpt lat="42.7763240747007" lon="9.343272854254622"><ele>102.0</ele><time>2026-05-01T08:59:03Z</time></trkpt><trkpt lat="42.77627333602788" lon="9.343394619333017"><ele>102.0</ele><time>2026-05-01T08:59:04Z</time></trkpt><trkpt lat="42.776225213998046" lon="9.343506961838509"><ele>102.0</ele><time>2026-05-01T08:59:05Z</time></trkpt><trkpt lat="42.776190831864355" lon="9.343604480676442"><ele>102.0</ele><time>2026-05-01T08:59:06Z</time></trkpt><trkpt lat="42.77616242453398" lon="9.343695112581864"><ele>102.0</ele><time>2026-05-01T08:59:07Z</time></trkpt><trkpt lat="42.776144946330625" lon="9.34378805207913"><ele>102.0</ele><time>2026-05-01T08:59:08Z</time></trkpt><trkpt lat="42.77613362937728" lon="9.34388935342936"><ele>102.0</ele><time>2026-05-01T08:59:09Z</time></trkpt><trkpt lat="42.77613163579481" lon="9.343995385028538"><ele>103.8</ele><time>2026-05-01T08:59:10Z</time></trkpt><trkpt lat="42.77613076596894" lon="9.344115475263198"><ele>105.6</ele><time>2026-05-01T08:59:11Z</time></trkpt><trkpt lat="42.776189470252156" lon="9.34421534718901"><ele>107.39999999999999</ele><time>2026-05-01T08:59:12Z</time></trkpt><trkpt lat="42.77624205562136" lon="9.344291576146226"><ele>109.19999999999999</ele><time>2026-05-01T08:59:13Z</time></trkpt><trkpt lat="42.7762837309816" lon="9.344363301330848"><ele>111.0</ele><time>2026-05-01T08:59:14Z</time></trkpt><trkpt lat="42.77627374685373" lon="9.344553318153734"><ele>111.0</ele><time>2026-05-01T08:59:16Z</time></trkpt><trkpt lat="42.776231696990045" lon="9.344657963153557"><ele>111.0</ele><time>2026-05-01T08:59:17Z</time></trkpt><trkpt lat="42.77620789893887" lon="9.34477141987747"><ele>111.0</ele><time>2026-05-01T08:59:18Z</time></trkpt><trkpt lat="42.77615410827666" lon="9.344859502809514"><ele>111.0</ele><time>2026-05-01T08:59:19Z</time></trkpt><trkpt lat="42.776066652548984" lon="9.344907716591395"><ele>111.0</ele><time>2026-05-01T08:59:20Z</time></trkpt><trkpt lat="42.77596393303128" lon="9.344919942101166"><ele>110.66666666666666</ele><time>2026-05-01T08:59:21Z</time></trkpt><trkpt lat="42.77580727511033" lon="9.344864030782233"><ele>110.33333333333333</ele><time>2026-05-01T08:59:22Z</time></trkpt><trkpt lat="42.775605070195624" lon="9.344807018493723"><ele>110.0</ele><time>2026-05-01T08:59:23Z</time></trkpt><trkpt lat="42.77539432826104" lon="9.344671537224695"><ele>106.66666666666666</ele><time>2026-05-01T08:59:24Z</time></trkpt><trkpt lat="42.77522340488577" lon="9.344530517371204"><ele>103.33333333333334</ele><time>2026-05-01T08:59:25Z</time></trkpt><trkpt lat="42.77510149431104" lon="9.344396836392946"><ele>100.0</ele><time>2026-05-01T08:59:26Z</time></trkpt><trkpt lat="42.7750902478672" lon="9.344201094147063"><ele>100.0</ele><time>2026-05-01T08:59:27Z</time></trkpt><trkpt lat="42.77501186403809" lon="9.343992125419588"><ele>100.0</ele><time>2026-05-01T08:59:28Z</time></trkpt><trkpt lat="42.77492886687181" lon="9.343762402097298"><ele>100.0</ele><time>2026-05-01T08:59:29Z</time></trkpt><trkpt lat="42.77477932482549" lon="9.3435476134062"><ele>92.0</ele><time>2026-05-01T08:59:30Z</time></trkpt><trkpt lat="42.7746016667527" lon="9.34333637990395"><ele>84.0</ele><time>2026-05-01T08:59:31Z</time></trkpt><trkpt lat="42.774495391925356" lon="9.343098745139075"><ele>76.0</ele><time>2026-05-01T08:59:32Z</time></trkpt><trkpt lat="42.774485104992074" lon="9.34281379316582"><ele>70.0</ele><time>2026-05-01T08:59:33Z</time></trkpt><trkpt lat="42.77442497496882" lon="9.34251866429722"><ele>64.0</ele><time>2026-05-01T08:59:34Z</time></trkpt><trkpt lat="42.77436524461175" lon="9.342201759281615"><ele>73.5</ele><time>2026-05-01T08:59:35Z</time></trkpt><trkpt lat="42.77427156494494" lon="9.341891630006355"><ele>83.0</ele><time>2026-05-01T08:59:36Z</time></trkpt><trkpt lat="42.774169739554345" lon="9.341621971978231"><ele>83.0</ele><time>2026-05-01T08:59:37Z</time></trkpt><trkpt lat="42.77409028070492" lon="9.341409997305332"><ele>83.0</ele><time>2026-05-01T08:59:38Z</time></trkpt><trkpt lat="42.77401968859669" lon="9.341246242321201"><ele>83.0</ele><time>2026-05-01T08:59:39Z</time></trkpt><trkpt lat="42.773944482852656" lon="9.341139763824144"><ele>83.0</ele><time>2026-05-01T08:59:40Z</time></trkpt><trkpt lat="42.77384723700201" lon="9.341102244759895"><ele>86.66666666666667</ele><time>2026-05-01T08:59:41Z</time></trkpt><trkpt lat="42.773733701267965" lon="9.341145384441143"><ele>90.33333333333333</ele><time>2026-05-01T08:59:42Z</time></trkpt><trkpt lat="42.77358381139489" lon="9.341275153837259"><ele>94.0</ele><time>2026-05-01T08:59:43Z</time></trkpt><trkpt lat="42.773421516876574" lon="9.341434383330267"><ele>94.0</ele><time>2026-05-01T08:59:44Z</time></trkpt><trkpt lat="42.77320950843185" lon="9.34153904707445"><ele>94.0</ele><time>2026-05-01T08:59:45Z</time></trkpt><trkpt lat="42.77299442686394" lon="9.341624194117474"><ele>94.0</ele><time>2026-05-01T08:59:46Z</time></trkpt><trkpt lat="42.77278707349958" lon="9.341712983622891"><ele>87.66666666666666</ele><time>2026-05-01T08:59:47Z</time></trkpt><trkpt lat="42.77258311004319" lon="9.341698462179622"><ele>81.33333333333333</ele><time>2026-05-01T08:59:48Z</time></trkpt><trkpt lat="42.772400260992946" lon="9.34167559476922"><ele>75.0</ele><time>2026-05-01T08:59:49Z</time></trkpt><trkpt lat="42.772243288216416" lon="9.341685883442816"><ele>75.0</ele><time>2026-05-01T08:59:50Z</time></trkpt><trkpt lat="42.772088993148486" lon="9.341744730888262"><ele>75.0</ele><time>2026-05-01T08:59:51Z</time></trkpt><trkpt lat="42.77194626847875" lon="9.341884746597742"><ele>75.0</ele><time>2026-05-01T08:59:52Z</time></trkpt><trkpt lat="42.77181376547326" lon="9.342033285616512"><ele>68.33333333333333</ele><time>2026-05-01T08:59:53Z</time></trkpt><trkpt lat="42.77168004849763" lon="9.342158850699112"><ele>61.666666666666664</ele><time>2026-05-01T08:59:54Z</time></trkpt><trkpt lat="42.77152748483288" lon="9.342265135082883"><ele>55.0</ele><time>2026-05-01T08:59:55Z</time></trkpt><trkpt lat="42.77137924905428" lon="9.342297013637456"><ele>54.75</ele><time>2026-05-01T08:59:55.999Z</time></trkpt><trkpt lat="42.77126145120746" lon="9.342365542820014"><ele>54.5</ele><time>2026-05-01T08:59:56.999Z</time></trkpt><trkpt lat="42.77115719070685" lon="9.342457164050252"><ele>54.25</ele><time>2026-05-01T08:59:57.999Z</time></trkpt><trkpt lat="42.771073831797665" lon="9.342606799341238"><ele>54.0</ele><time>2026-05-01T08:59:58.999Z</time></trkpt><trkpt lat="42.771008508557166" lon="9.342771477450903"><ele>54.0</ele><time>2026-05-01T08:59:59.999Z</time></trkpt><trkpt lat="42.77099187149207" lon="9.342932331052252"><ele>54.0</ele><time>2026-05-01T09:00:00.999Z</time></trkpt><trkpt lat="42.77101573429455" lon="9.343091735757582"><ele>54.0</ele><time>2026-05-01T09:00:01.999Z</time></trkpt><trkpt lat="42.771023886654696" lon="9.343272775603925"><ele>54.0</ele><time>2026-05-01T09:00:02.999Z</time></trkpt><trkpt lat="42.77104109955042" lon="9.343460333734836"><ele>62.800000000000004</ele><time>2026-05-01T09:00:03.999Z</time></trkpt><trkpt lat="42.77105513809445" lon="9.343643840683985"><ele>71.60000000000001</ele><time>2026-05-01T09:00:04.999Z</time></trkpt><trkpt lat="42.77105118824716" lon="9.343798687143165"><ele>80.4</ele><time>2026-05-01T09:00:05.999Z</time></trkpt><trkpt lat="42.77101556777465" lon="9.343910836540923"><ele>89.2</ele><time>2026-05-01T09:00:06.999Z</time></trkpt><trkpt lat="42.7709657608164" lon="9.343990433416478"><ele>98.0</ele><time>2026-05-01T09:00:07.999Z</time></trkpt><trkpt lat="42.77086011311691" lon="9.3439974124484"><ele>98.0</ele><time>2026-05-01T09:00:08.999Z</time></trkpt><trkpt lat="42.77074719962932" lon="9.343932123688543"><ele>98.0</ele><time>2026-05-01T09:00:09.999Z</time></trkpt><trkpt lat="42.77067384619868" lon="9.343754195075686"><ele>98.0</ele><time>2026-05-01T09:00:10.999Z</time></trkpt><trkpt lat="42.77057995678623" lon="9.343608590136553"><ele>98.0</ele><time>2026-05-01T09:00:11.999Z</time></trkpt><trkpt lat="42.770486546366506" lon="9.343495224098378"><ele>91.66666666666666</ele><time>2026-05-01T09:00:12.999Z</time></trkpt><trkpt lat="42.77036019088277" lon="9.343421539104318"><ele>85.33333333333333</ele><time>2026-05-01T09:00:13.999Z</time></trkpt><trkpt lat="42.77019689808018" lon="9.34340113657968"><ele>79.0</ele><time>2026-05-01T09:00:14.999Z</time></trkpt><trkpt lat="42.77003193878617" lon="9.343421003398964"><ele>76.66666666666666</ele><time>2026-05-01T09:00:15.999Z</time></trkpt><trkpt lat="42.769862381712365" lon="9.343501281340245"><ele>74.33333333333333</ele><time>2026-05-01T09:00:16.999Z</time></trkpt><trkpt lat="42.76971069735576" lon="9.343578867004945"><ele>72.0</ele><time>2026-05-01T09:00:17.999Z</time></trkpt><trkpt lat="42.76956810963642" lon="9.343585913677195"><ele>72.0</ele><time>2026-05-01T09:00:18.999Z</time></trkpt><trkpt lat="42.76942667127482" lon="9.343526986616961"><ele>72.0</ele><time>2026-05-01T09:00:19.999Z</time></trkpt><trkpt lat="42.769315638078005" lon="9.34338160209494"><ele>72.0</ele><time>2026-05-01T09:00:20.999Z</time></trkpt><trkpt lat="42.769219015851434" lon="9.34315737406357"><ele>66.33333333333333</ele><time>2026-05-01T09:00:21.999Z</time></trkpt><trkpt lat="42.76907299747433" lon="9.34298075541182"><ele>60.666666666666664</ele><time>2026-05-01T09:00:22.999Z</time></trkpt><trkpt lat="42.768930143541226" lon="9.342770700062943"><ele>55.0</ele><time>2026-05-01T09:00:23.999Z</time></trkpt><trkpt lat="42.76876486207901" lon="9.342555390278184"><ele>55.0</ele><time>2026-05-01T09:00:24.999Z</time></trkpt><trkpt lat="42.7686090562001" lon="9.342329359301235"><ele>55.0</ele><time>2026-05-01T09:00:25.999Z</time></trkpt><trkpt lat="42.768486964920925" lon="9.342070085048048"><ele>58.0</ele><time>2026-05-01T09:00:26.999Z</time></trkpt><trkpt lat="42.768361214793586" lon="9.341802914494217"><ele>61.0</ele><time>2026-05-01T09:00:27.999Z</time></trkpt><trkpt lat="42.768223787827424" lon="9.341568941079348"><ele>51.25</ele><time>2026-05-01T09:00:28.999Z</time></trkpt><trkpt lat="42.76810952938564" lon="9.34133676551483"><ele>41.5</ele><time>2026-05-01T09:00:29.999Z</time></trkpt><trkpt lat="42.76801507024401" lon="9.341164288276799"><ele>31.75</ele><time>2026-05-01T09:00:30.999Z</time></trkpt><trkpt lat="42.76796460390248" lon="9.341088173293707"><ele>22.0</ele><time>2026-05-01T09:00:31.999Z</time></trkpt><trkpt lat="42.76791000124687" lon="9.341015442914063"><ele>22.0</ele><time>2026-05-01T09:00:32.999Z</time></trkpt><trkpt lat="42.76782522175006" lon="9.340943622038377"><ele>22.0</ele><time>2026-05-01T09:00:33.999Z</time></trkpt><trkpt lat="42.767713109793505" lon="9.340896374076845"><ele>22.0</ele><time>2026-05-01T09:00:34.999Z</time></trkpt><trkpt lat="42.76758371456482" lon="9.34090705260085"><ele>22.0</ele><time>2026-05-01T09:00:35.999Z</time></trkpt><trkpt lat="42.76745388329903" lon="9.34092875930356"><ele>20.75</ele><time>2026-05-01T09:00:36.999Z</time></trkpt><trkpt lat="42.76735313328874" lon="9.340855650126626"><ele>19.5</ele><time>2026-05-01T09:00:37.999Z</time></trkpt><trkpt lat="42.76729139143603" lon="9.340708181558623"><ele>18.25</ele><time>2026-05-01T09:00:38.999Z</time></trkpt><trkpt lat="42.76724939404886" lon="9.340512978479822"><ele>17.0</ele><time>2026-05-01T09:00:39.999Z</time></trkpt><trkpt lat="42.76719693714989" lon="9.340323432184299"><ele>17.0</ele><time>2026-05-01T09:00:40.999Z</time></trkpt><trkpt lat="42.76709130531874" lon="9.340166360207288"><ele>17.0</ele><time>2026-05-01T09:00:41.999Z</time></trkpt><trkpt lat="42.7669352171006" lon="9.340016710914893"><ele>17.0</ele><time>2026-05-01T09:00:42.999Z</time></trkpt><trkpt lat="42.76675356123434" lon="9.339871260270417"><ele>16.333333333333336</ele><time>2026-05-01T09:00:43.999Z</time></trkpt><trkpt lat="42.766572533814305" lon="9.33972723540219"><ele>15.666666666666668</ele><time>2026-05-01T09:00:44.999Z</time></trkpt><trkpt lat="42.766397323465625" lon="9.33957097126582"><ele>15.0</ele><time>2026-05-01T09:00:45.999Z</time></trkpt><trkpt lat="42.76621812215618" lon="9.339427708288733"><ele>24.0</ele><time>2026-05-01T09:00:46.999Z</time></trkpt><trkpt lat="42.76602351782657" lon="9.339300823846894"><ele>33.0</ele><time>2026-05-01T09:00:47.999Z</time></trkpt><trkpt lat="42.765826501620204" lon="9.339180926898132"><ele>42.0</ele><time>2026-05-01T09:00:48.999Z</time></trkpt><trkpt lat="42.765640740593255" lon="9.339061227555076"><ele>42.0</ele><time>2026-05-01T09:00:49.999Z</time></trkpt><trkpt lat="42.765481447118106" lon="9.338942095661466"><ele>42.0</ele><time>2026-05-01T09:00:50.999Z</time></trkpt><trkpt lat="42.765357950129676" lon="9.338811439038295"><ele>42.0</ele><time>2026-05-01T09:00:51.999Z</time></trkpt><trkpt lat="42.76525301888382" lon="9.338667978236025"><ele>40.25</ele><time>2026-05-01T09:00:52.999Z</time></trkpt><trkpt lat="42.76513977747148" lon="9.338547681318417"><ele>38.5</ele><time>2026-05-01T09:00:53.999Z</time></trkpt><trkpt lat="42.76500970908284" lon="9.338466676364654"><ele>36.75</ele><time>2026-05-01T09:00:55Z</time></trkpt><trkpt lat="42.76492430737324" lon="9.338329099849693"><ele>35.0</ele><time>2026-05-01T09:00:56Z</time></trkpt><trkpt lat="42.76484146667328" lon="9.338191695903957"><ele>35.0</ele><time>2026-05-01T09:00:57Z</time></trkpt><trkpt lat="42.764747512720575" lon="9.33806850376057"><ele>35.0</ele><time>2026-05-01T09:00:58Z</time></trkpt><trkpt lat="42.76461848648618" lon="9.337972111325474"><ele>35.0</ele><time>2026-05-01T09:00:59Z</time></trkpt><trkpt lat="42.764485248733436" lon="9.337910589006574"><ele>35.0</ele><time>2026-05-01T09:01:00Z</time></trkpt><trkpt lat="42.76436369464169" lon="9.337881037163624"><ele>27.75</ele><time>2026-05-01T09:01:01Z</time></trkpt><trkpt lat="42.7642239665908" lon="9.337881098000594"><ele>20.5</ele><time>2026-05-01T09:01:02Z</time></trkpt><trkpt lat="42.764072258388886" lon="9.337909691984798"><ele>13.25</ele><time>2026-05-01T09:01:03Z</time></trkpt><trkpt lat="42.76392935395603" lon="9.337931710822128"><ele>6.0</ele><time>2026-05-01T09:01:04Z</time></trkpt><trkpt lat="42.76379457604296" lon="9.337980908747863"><ele>8.0</ele><time>2026-05-01T09:01:05Z</time></trkpt><trkpt lat="42.76366497920158" lon="9.33807179599931"><ele>10.0</ele><time>2026-05-01T09:01:06Z</time></trkpt><trkpt lat="42.763548483333366" lon="9.338162179465778"><ele>12.0</ele><time>2026-05-01T09:01:07Z</time></trkpt><trkpt lat="42.76345278195464" lon="9.338245020411799"><ele>14.0</ele><time>2026-05-01T09:01:08Z</time></trkpt><trkpt lat="42.76337224072245" lon="9.338331932773283"><ele>14.0</ele><time>2026-05-01T09:01:09Z</time></trkpt><trkpt lat="42.76334968174313" lon="9.338497729580029"><ele>14.0</ele><time>2026-05-01T09:01:10Z</time></trkpt><trkpt lat="42.763309417310076" lon="9.338667174791272"><ele>14.0</ele><time>2026-05-01T09:01:11Z</time></trkpt><trkpt lat="42.76325957223763" lon="9.338804255289073"><ele>14.0</ele><time>2026-05-01T09:01:12Z</time></trkpt><trkpt lat="42.76319253104797" lon="9.338941609966989"><ele>26.4</ele><time>2026-05-01T09:01:13Z</time></trkpt><trkpt lat="42.76311523651082" lon="9.339049106463278"><ele>38.8</ele><time>2026-05-01T09:01:14Z</time></trkpt><trkpt lat="42.76302060328738" lon="9.339126783564126"><ele>51.199999999999996</ele><time>2026-05-01T09:01:15Z</time></trkpt><trkpt lat="42.76292748399791" lon="9.33915028744035"><ele>63.599999999999994</ele><time>2026-05-01T09:01:16Z</time></trkpt><trkpt lat="42.76283920775189" lon="9.339149062682356"><ele>76.0</ele><time>2026-05-01T09:01:17Z</time></trkpt><trkpt lat="42.762753431099796" lon="9.339092598902642"><ele>64.5</ele><time>2026-05-01T09:01:18Z</time></trkpt><trkpt lat="42.76268162962474" lon="9.33900293421191"><ele>53.0</ele><time>2026-05-01T09:01:19Z</time></trkpt><trkpt lat="42.762589344231266" lon="9.338866867778544"><ele>41.5</ele><time>2026-05-01T09:01:20Z</time></trkpt><trkpt lat="42.76250532838058" lon="9.338731309567125"><ele>30.0</ele><time>2026-05-01T09:01:21Z</time></trkpt><trkpt lat="42.762420728999906" lon="9.338636227904763"><ele>30.0</ele><time>2026-05-01T09:01:22Z</time></trkpt><trkpt lat="42.76232667694244" lon="9.33858886479751"><ele>30.0</ele><time>2026-05-01T09:01:23Z</time></trkpt><trkpt lat="42.76222541407314" lon="9.338598542629898"><ele>30.0</ele><time>2026-05-01T09:01:24Z</time></trkpt><trkpt lat="42.76214452223057" lon="9.338670887539061"><ele>30.0</ele><time>2026-05-01T09:01:25Z</time></trkpt><trkpt lat="42.76207861755244" lon="9.33881048545557"><ele>30.0</ele><time>2026-05-01T09:01:26Z</time></trkpt><trkpt lat="42.76202562901348" lon="9.338966196176052"><ele>30.0</ele><time>2026-05-01T09:01:27Z</time></trkpt><trkpt lat="42.762000499039736" lon="9.33915335212989"><ele>30.0</ele><time>2026-05-01T09:01:28Z</time></trkpt><trkpt lat="42.762024709375964" lon="9.339335682608363"><ele>30.0</ele><time>2026-05-01T09:01:29Z</time></trkpt><trkpt lat="42.762032448100086" lon="9.339491437499277"><ele>30.0</ele><time>2026-05-01T09:01:30Z</time></trkpt><trkpt lat="42.76199702694997" lon="9.339615434490003"><ele>30.0</ele><time>2026-05-01T09:01:31Z</time></trkpt><trkpt lat="42.76192526662147" lon="9.339691426159156"><ele>30.0</ele><time>2026-05-01T09:01:32Z</time></trkpt><trkpt lat="42.76182088495332" lon="9.339725978026369"><ele>30.0</ele><time>2026-05-01T09:01:33Z</time></trkpt><trkpt lat="42.76171035084293" lon="9.339821305894962"><ele>30.0</ele><time>2026-05-01T09:01:34Z</time></trkpt><trkpt lat="42.76161183351245" lon="9.339928947798088"><ele>29.75</ele><time>2026-05-01T09:01:35Z</time></trkpt><trkpt lat="42.761500592965696" lon="9.340080662916144"><ele>29.5</ele><time>2026-05-01T09:01:36Z</time></trkpt><trkpt lat="42.76140943936637" lon="9.34022692035338"><ele>29.25</ele><time>2026-05-01T09:01:37Z</time></trkpt><trkpt lat="42.76134987305632" lon="9.340395820753502"><ele>29.0</ele><time>2026-05-01T09:01:38Z</time></trkpt><trkpt lat="42.76129897081756" lon="9.340585488550962"><ele>33.666666666666664</ele><time>2026-05-01T09:01:39Z</time></trkpt><trkpt lat="42.76126746708408" lon="9.340789494111325"><ele>38.333333333333336</ele><time>2026-05-01T09:01:40Z</time></trkpt><trkpt lat="42.76126006591026" lon="9.341013563468577"><ele>43.0</ele><time>2026-05-01T09:01:41Z</time></trkpt><trkpt lat="42.76122908995223" lon="9.341232079373539"><ele>45.66666666666667</ele><time>2026-05-01T09:01:42Z</time></trkpt><trkpt lat="42.76121335778572" lon="9.341449563082783"><ele>48.333333333333336</ele><time>2026-05-01T09:01:43Z</time></trkpt><trkpt lat="42.76124767068283" lon="9.341665222929656"><ele>51.0</ele><time>2026-05-01T09:01:44Z</time></trkpt><trkpt lat="42.76129676219721" lon="9.341898042080986"><ele>51.0</ele><time>2026-05-01T09:01:45Z</time></trkpt><trkpt lat="42.76129659459842" lon="9.34214522658843"><ele>51.0</ele><time>2026-05-01T09:01:46Z</time></trkpt><trkpt lat="42.7613359638128" lon="9.342395700111569"><ele>51.0</ele><time>2026-05-01T09:01:47Z</time></trkpt><trkpt lat="42.76136307887777" lon="9.34262680042019"><ele>50.66666666666667</ele><time>2026-05-01T09:01:48Z</time></trkpt><trkpt lat="42.7613425559462" lon="9.342843675235047"><ele>50.333333333333336</ele><time>2026-05-01T09:01:49Z</time></trkpt><trkpt lat="42.761302189050575" lon="9.343076032276985"><ele>50.0</ele><time>2026-05-01T09:01:50Z</time></trkpt><trkpt lat="42.76128419123012" lon="9.343301638039414"><ele>48.333333333333336</ele><time>2026-05-01T09:01:51Z</time></trkpt><trkpt lat="42.76131609138766" lon="9.343506332639718"><ele>46.66666666666667</ele><time>2026-05-01T09:01:52Z</time></trkpt><trkpt lat="42.76136792752938" lon="9.343710746158449"><ele>45.0</ele><time>2026-05-01T09:01:53Z</time></trkpt><trkpt lat="42.76143643746382" lon="9.343903815378066"><ele>42.75</ele><time>2026-05-01T09:01:54Z</time></trkpt><trkpt lat="42.76151505028094" lon="9.344061368662977"><ele>40.5</ele><time>2026-05-01T09:01:55Z</time></trkpt><trkpt lat="42.76161193923969" lon="9.344171393701492"><ele>38.25</ele><time>2026-05-01T09:01:56Z</time></trkpt><trkpt lat="42.76166774564519" lon="9.34430533059457"><ele>36.0</ele><time>2026-05-01T09:01:57Z</time></trkpt><trkpt lat="42.76165383550465" lon="9.344443378078235"><ele>36.0</ele><time>2026-05-01T09:01:58Z</time></trkpt><trkpt lat="42.761631373673985" lon="9.344600988424476"><ele>36.0</ele><time>2026-05-01T09:01:59Z</time></trkpt><trkpt lat="42.76160806119055" lon="9.344765441730267"><ele>36.0</ele><time>2026-05-01T09:02:00Z</time></trkpt><trkpt lat="42.761562909321675" lon="9.344915363719023"><ele>36.0</ele><time>2026-05-01T09:02:01Z</time></trkpt><trkpt lat="42.7615050399611" lon="9.345074363149575"><ele>36.0</ele><time>2026-05-01T09:02:02Z</time></trkpt><trkpt lat="42.76142281519691" lon="9.345221370038995"><ele>36.0</ele><time>2026-05-01T09:02:03Z</time></trkpt><trkpt lat="42.76132957092313" lon="9.34537336556159"><ele>36.0</ele><time>2026-05-01T09:02:04Z</time></trkpt><trkpt lat="42.76124452630427" lon="9.3455374340664"><ele>36.0</ele><time>2026-05-01T09:02:05Z</time></trkpt><trkpt lat="42.76115420704466" lon="9.345697200371061"><ele>38.75</ele><time>2026-05-01T09:02:06Z</time></trkpt><trkpt lat="42.76105416920342" lon="9.345828943662076"><ele>41.5</ele><time>2026-05-01T09:02:07Z</time></trkpt><trkpt lat="42.760998358801174" lon="9.345983318886185"><ele>44.25</ele><time>2026-05-01T09:02:08Z</time></trkpt><trkpt lat="42.76093836163771" lon="9.346145319585442"><ele>47.0</ele><time>2026-05-01T09:02:09Z</time></trkpt><trkpt lat="42.760888638132876" lon="9.346291720305599"><ele>42.4</ele><time>2026-05-01T09:02:10Z</time></trkpt><trkpt lat="42.76086658379231" lon="9.346430414822791"><ele>37.800000000000004</ele><time>2026-05-01T09:02:11Z</time></trkpt><trkpt lat="42.760801306242435" lon="9.346514103850826"><ele>33.2</ele><time>2026-05-01T09:02:12Z</time></trkpt><trkpt lat="42.76069378870203" lon="9.346541336428125"><ele>28.6</ele><time>2026-05-01T09:02:13Z</time></trkpt><trkpt lat="42.76057370371993" lon="9.346590407933185"><ele>24.0</ele><time>2026-05-01T09:02:14Z</time></trkpt><trkpt lat="42.76046649145237" lon="9.346652105821752"><ele>24.0</ele><time>2026-05-01T09:02:15Z</time></trkpt><trkpt lat="42.76037168473935" lon="9.346630382939665"><ele>24.0</ele><time>2026-05-01T09:02:16Z</time></trkpt><trkpt lat="42.76029215523329" lon="9.346547577717793"><ele>24.0</ele><time>2026-05-01T09:02:17Z</time></trkpt><trkpt lat="42.76024275185287" lon="9.346413271587485"><ele>24.0</ele><time>2026-05-01T09:02:18Z</time></trkpt><trkpt lat="42.76024316646648" lon="9.346236262298113"><ele>24.0</ele><time>2026-05-01T09:02:18.999Z</time></trkpt><trkpt lat="42.76022297649529" lon="9.346048596837555"><ele>22.666666666666668</ele><time>2026-05-01T09:02:19.999Z</time></trkpt><trkpt lat="42.76021090220654" lon="9.34584167708735"><ele>21.333333333333336</ele><time>2026-05-01T09:02:20.999Z</time></trkpt><trkpt lat="42.760248762986336" lon="9.34562682643209"><ele>20.0</ele><time>2026-05-01T09:02:21.999Z</time></trkpt><trkpt lat="42.76031102361483" lon="9.345403454703627"><ele>19.75</ele><time>2026-05-01T09:02:22.999Z</time></trkpt><trkpt lat="42.76036839291798" lon="9.345189666431862"><ele>19.5</ele><time>2026-05-01T09:02:23.999Z</time></trkpt><trkpt lat="42.76043890700248" lon="9.345019111339493"><ele>19.25</ele><time>2026-05-01T09:02:24.999Z</time></trkpt><trkpt lat="42.76047742970029" lon="9.344868863495355"><ele>19.0</ele><time>2026-05-01T09:02:25.999Z</time></trkpt><trkpt lat="42.760471034369274" lon="9.344728815491019"><ele>17.333333333333332</ele><time>2026-05-01T09:02:26.999Z</time></trkpt><trkpt lat="42.760438615860586" lon="9.344561474027694"><ele>15.666666666666668</ele><time>2026-05-01T09:02:27.999Z</time></trkpt><trkpt lat="42.760312359876956" lon="9.34437234094731"><ele>14.0</ele><time>2026-05-01T09:02:28.999Z</time></trkpt><trkpt lat="42.760191688398194" lon="9.344156852858013"><ele>29.5</ele><time>2026-05-01T09:02:29.999Z</time></trkpt><trkpt lat="42.76017541934095" lon="9.343863635167713"><ele>45.0</ele><time>2026-05-01T09:02:30.999Z</time></trkpt><trkpt lat="42.760152417023725" lon="9.34353420863857"><ele>45.0</ele><time>2026-05-01T09:02:31.999Z</time></trkpt><trkpt lat="42.76011701555696" lon="9.343185002346774"><ele>45.0</ele><time>2026-05-01T09:02:32.999Z</time></trkpt><trkpt lat="42.76007187365506" lon="9.342823282393542"><ele>43.0</ele><time>2026-05-01T09:02:33.999Z</time></trkpt><trkpt lat="42.76002122583086" lon="9.342466815608569"><ele>41.0</ele><time>2026-05-01T09:02:34.999Z</time></trkpt><trkpt lat="42.75998425520346" lon="9.342150817978432"><ele>40.0</ele><time>2026-05-01T09:02:35.999Z</time></trkpt><trkpt lat="42.75994036149253" lon="9.341859924541978"><ele>39.0</ele><time>2026-05-01T09:02:36.999Z</time></trkpt><trkpt lat="42.75989506808185" lon="9.341568868659602"><ele>38.0</ele><time>2026-05-01T09:02:37.999Z</time></trkpt><trkpt lat="42.75985317101674" lon="9.341295226570303"><ele>34.0</ele><time>2026-05-01T09:02:38.999Z</time></trkpt><trkpt lat="42.75981976259618" lon="9.341029874500745"><ele>30.0</ele><time>2026-05-01T09:02:39.999Z</time></trkpt><trkpt lat="42.75975693366039" lon="9.340772948410121"><ele>26.0</ele><time>2026-05-01T09:02:40.999Z</time></trkpt><trkpt lat="42.75966504120371" lon="9.340537727352485"><ele>20.0</ele><time>2026-05-01T09:02:41.999Z</time></trkpt><trkpt lat="42.759547132992324" lon="9.340324182640732"><ele>14.0</ele><time>2026-05-01T09:02:42.999Z</time></trkpt><trkpt lat="42.75941623281225" lon="9.34012275519851"><ele>8.0</ele><time>2026-05-01T09:02:43.999Z</time></trkpt><trkpt lat="42.759277722686825" lon="9.339939803754687"><ele>8.666666666666666</ele><time>2026-05-01T09:02:44.999Z</time></trkpt><trkpt lat="42.7591326198197" lon="9.339779793016271"><ele>9.333333333333334</ele><time>2026-05-01T09:02:45.999Z</time></trkpt><trkpt lat="42.759002193685475" lon="9.339635002370548"><ele>10.0</ele><time>2026-05-01T09:02:46.999Z</time></trkpt><trkpt lat="42.75890245820353" lon="9.339478360013544"><ele>10.0</ele><time>2026-05-01T09:02:47.999Z</time></trkpt><trkpt lat="42.758797084863296" lon="9.339349569749626"><ele>10.0</ele><time>2026-05-01T09:02:48.999Z</time></trkpt><trkpt lat="42.75868259537308" lon="9.339282980592095"><ele>10.0</ele><time>2026-05-01T09:02:49.999Z</time></trkpt><trkpt lat="42.75856257514113" lon="9.339293125800806"><ele>10.0</ele><time>2026-05-01T09:02:50.999Z</time></trkpt><trkpt lat="42.75841147560151" lon="9.339395690158561"><ele>13.333333333333334</ele><time>2026-05-01T09:02:51.999Z</time></trkpt><trkpt lat="42.7582481148269" lon="9.33952824561293"><ele>16.666666666666668</ele><time>2026-05-01T09:02:52.999Z</time></trkpt><trkpt lat="42.75807825650501" lon="9.339659498889477"><ele>20.0</ele><time>2026-05-01T09:02:53.999Z</time></trkpt><trkpt lat="42.75788805912312" lon="9.33976341729995"><ele>27.0</ele><time>2026-05-01T09:02:54.999Z</time></trkpt><trkpt lat="42.757692698294065" lon="9.339880409320664"><ele>34.0</ele><time>2026-05-01T09:02:55.999Z</time></trkpt><trkpt lat="42.75750289240548" lon="9.339940527121056"><ele>41.0</ele><time>2026-05-01T09:02:56.999Z</time></trkpt><trkpt lat="42.75730285787889" lon="9.33998931134532"><ele>41.0</ele><time>2026-05-01T09:02:57.999Z</time></trkpt><trkpt lat="42.757111661733475" lon="9.340040098007025"><ele>41.0</ele><time>2026-05-01T09:02:58.999Z</time></trkpt><trkpt lat="42.75695156769757" lon="9.340116265928874"><ele>41.0</ele><time>2026-05-01T09:02:59.999Z</time></trkpt><trkpt lat="42.75679866797431" lon="9.340215606044694"><ele>43.33333333333333</ele><time>2026-05-01T09:03:01Z</time></trkpt><trkpt lat="42.75667121832566" lon="9.340372131198588"><ele>45.666666666666664</ele><time>2026-05-01T09:03:02Z</time></trkpt><trkpt lat="42.75656749474466" lon="9.340557885882758"><ele>48.0</ele><time>2026-05-01T09:03:03Z</time></trkpt><trkpt lat="42.75650465585881" lon="9.34076570799012"><ele>48.0</ele><time>2026-05-01T09:03:04Z</time></trkpt><trkpt lat="42.75648368591957" lon="9.340977124222245"><ele>48.0</ele><time>2026-05-01T09:03:05Z</time></trkpt><trkpt lat="42.75647790483354" lon="9.34116941063019"><ele>48.0</ele><time>2026-05-01T09:03:06Z</time></trkpt><trkpt lat="42.75646303103238" lon="9.34131826556031"><ele>48.0</ele><time>2026-05-01T09:03:07Z</time></trkpt><trkpt lat="42.75642622743275" lon="9.3414251151256"><ele>54.25</ele><time>2026-05-01T09:03:08Z</time></trkpt><trkpt lat="42.75636596075598" lon="9.341512253781204"><ele>60.5</ele><time>2026-05-01T09:03:09Z</time></trkpt><trkpt lat="42.75625261761265" lon="9.341512658011377"><ele>66.75</ele><time>2026-05-01T09:03:10Z</time></trkpt><trkpt lat="42.75613221621784" lon="9.341440241335972"><ele>73.0</ele><time>2026-05-01T09:03:11Z</time></trkpt><trkpt lat="42.755967748309786" lon="9.341399846703098"><ele>59.33333333333333</ele><time>2026-05-01T09:03:12Z</time></trkpt><trkpt lat="42.75578700991646" lon="9.341310492262968"><ele>45.666666666666664</ele><time>2026-05-01T09:03:13Z</time></trkpt><trkpt lat="42.755587869666" lon="9.341257702175866"><ele>32.0</ele><time>2026-05-01T09:03:14Z</time></trkpt><trkpt lat="42.75537813432506" lon="9.341250924933329"><ele>27.333333333333332</ele><time>2026-05-01T09:03:15Z</time></trkpt><trkpt lat="42.7551547292894" lon="9.341296573977944"><ele>22.666666666666664</ele><time>2026-05-01T09:03:16Z</time></trkpt><trkpt lat="42.75494784138557" lon="9.34134584555469"><ele>18.0</ele><time>2026-05-01T09:03:17Z</time></trkpt><trkpt lat="42.75476077584923" lon="9.341382124593421"><ele>23.0</ele><time>2026-05-01T09:03:18Z</time></trkpt><trkpt lat="42.75458977725576" lon="9.341451364263644"><ele>28.0</ele><time>2026-05-01T09:03:19Z</time></trkpt><trkpt lat="42.754430699972104" lon="9.341568560939963"><ele>33.0</ele><time>2026-05-01T09:03:20Z</time></trkpt><trkpt lat="42.7542925262315" lon="9.341714352210511"><ele>33.0</ele><time>2026-05-01T09:03:21Z</time></trkpt><trkpt lat="42.75417931463222" lon="9.341913510804131"><ele>33.0</ele><time>2026-05-01T09:03:22Z</time></trkpt><trkpt lat="42.75404461981904" lon="9.34206194974577"><ele>33.0</ele><time>2026-05-01T09:03:23Z</time></trkpt><trkpt lat="42.75388328128721" lon="9.342238738253734"><ele>39.0</ele><time>2026-05-01T09:03:24Z</time></trkpt><trkpt lat="42.75371642350831" lon="9.34239868823654"><ele>45.0</ele><time>2026-05-01T09:03:25Z</time></trkpt><trkpt lat="42.753549378228776" lon="9.342544499910368"><ele>51.0</ele><time>2026-05-01T09:03:26Z</time></trkpt><trkpt lat="42.75337547131488" lon="9.342667868348814"><ele>51.0</ele><time>2026-05-01T09:03:27Z</time></trkpt><trkpt lat="42.753206774861695" lon="9.342772506948476"><ele>51.0</ele><time>2026-05-01T09:03:28Z</time></trkpt><trkpt lat="42.75306986691487" lon="9.34289261936138"><ele>51.0</ele><time>2026-05-01T09:03:29Z</time></trkpt><trkpt lat="42.752941406974315" lon="9.342999099830093"><ele>57.5</ele><time>2026-05-01T09:03:30Z</time></trkpt><trkpt lat="42.75284064267903" lon="9.343138920485847"><ele>64.0</ele><time>2026-05-01T09:03:31Z</time></trkpt><trkpt lat="42.752756733152914" lon="9.343279521109388"><ele>70.5</ele><time>2026-05-01T09:03:32Z</time></trkpt><trkpt lat="42.75273099007441" lon="9.343445431173445"><ele>77.0</ele><time>2026-05-01T09:03:33Z</time></trkpt><trkpt lat="42.75266713852195" lon="9.343548641437131"><ele>77.0</ele><time>2026-05-01T09:03:34Z</time></trkpt><trkpt lat="42.75261409590407" lon="9.343607840318414"><ele>77.0</ele><time>2026-05-01T09:03:35Z</time></trkpt><trkpt lat="42.752547737085486" lon="9.343608780619384"><ele>77.0</ele><time>2026-05-01T09:03:36Z</time></trkpt><trkpt lat="42.75245652314036" lon="9.343553084749955"><ele>77.0</ele><time>2026-05-01T09:03:37Z</time></trkpt><trkpt lat="42.75236841876777" lon="9.343359062821467"><ele>77.0</ele><time>2026-05-01T09:03:38Z</time></trkpt><trkpt lat="42.75230443629276" lon="9.34320277151108"><ele>77.0</ele><time>2026-05-01T09:03:39Z</time></trkpt><trkpt lat="42.7522033352194" lon="9.343069871353874"><ele>77.0</ele><time>2026-05-01T09:03:40Z</time></trkpt><trkpt lat="42.75206733933172" lon="9.342975301502516"><ele>77.0</ele><time>2026-05-01T09:03:41Z</time></trkpt><trkpt lat="42.75193397747672" lon="9.342895152241667"><ele>77.0</ele><time>2026-05-01T09:03:42Z</time></trkpt><trkpt lat="42.751790599864016" lon="9.342823621739766"><ele>67.66666666666667</ele><time>2026-05-01T09:03:43Z</time></trkpt><trkpt lat="42.75163964759111" lon="9.342779804142673"><ele>58.33333333333333</ele><time>2026-05-01T09:03:44Z</time></trkpt><trkpt lat="42.75148606068159" lon="9.342763031104237"><ele>49.0</ele><time>2026-05-01T09:03:45Z</time></trkpt><trkpt lat="42.75133383231408" lon="9.342781452494538"><ele>49.0</ele><time>2026-05-01T09:03:46Z</time></trkpt><trkpt lat="42.7511907668056" lon="9.342828467833515"><ele>49.0</ele><time>2026-05-01T09:03:47Z</time></trkpt><trkpt lat="42.75105294968538" lon="9.342892003433402"><ele>49.0</ele><time>2026-05-01T09:03:48Z</time></trkpt><trkpt lat="42.750921358750716" lon="9.342965484594226"><ele>49.0</ele><time>2026-05-01T09:03:49Z</time></trkpt><trkpt lat="42.75081006005454" lon="9.343056382540912"><ele>59.0</ele><time>2026-05-01T09:03:50Z</time></trkpt><trkpt lat="42.75072765937624" lon="9.343161266585716"><ele>69.0</ele><time>2026-05-01T09:03:51Z</time></trkpt><trkpt lat="42.750666285418305" lon="9.343291589285288"><ele>79.0</ele><time>2026-05-01T09:03:52Z</time></trkpt><trkpt lat="42.75057017157941" lon="9.343379167800514"><ele>89.0</ele><time>2026-05-01T09:03:53Z</time></trkpt><trkpt lat="42.75046453189938" lon="9.343456385650946"><ele>89.0</ele><time>2026-05-01T09:03:54Z</time></trkpt><trkpt lat="42.750348882731764" lon="9.343505751287513"><ele>89.0</ele><time>2026-05-01T09:03:55Z</time></trkpt><trkpt lat="42.75022753989184" lon="9.343520717576911"><ele>89.0</ele><time>2026-05-01T09:03:56Z</time></trkpt><trkpt lat="42.75011378038347" lon="9.34357171383093"><ele>89.0</ele><time>2026-05-01T09:03:57Z</time></trkpt><trkpt lat="42.75003883667811" lon="9.34366433882165"><ele>82.60000000000001</ele><time>2026-05-01T09:03:58Z</time></trkpt><trkpt lat="42.749949210585875" lon="9.34372176058678"><ele>76.2</ele><time>2026-05-01T09:03:59Z</time></trkpt><trkpt lat="42.749858577554306" lon="9.34376350327472"><ele>69.80000000000001</ele><time>2026-05-01T09:04:00Z</time></trkpt><trkpt lat="42.7497507658739" lon="9.343774799542294"><ele>63.400000000000006</ele><time>2026-05-01T09:04:01Z</time></trkpt><trkpt lat="42.74963465844428" lon="9.343749586033146"><ele>57.0</ele><time>2026-05-01T09:04:02Z</time></trkpt><trkpt lat="42.74951050673005" lon="9.343745379133168"><ele>57.0</ele><time>2026-05-01T09:04:03Z</time></trkpt><trkpt lat="42.74940195027654" lon="9.343711930502085"><ele>57.0</ele><time>2026-05-01T09:04:04Z</time></trkpt><trkpt lat="42.749302261759595" lon="9.343693499756712"><ele>57.0</ele><time>2026-05-01T09:04:05Z</time></trkpt><trkpt lat="42.749204694119214" lon="9.343669868674047"><ele>57.0</ele><time>2026-05-01T09:04:06Z</time></trkpt><trkpt lat="42.74911202795432" lon="9.343652406918007"><ele>57.0</ele><time>2026-05-01T09:04:07Z</time></trkpt><trkpt lat="42.7490226835554" lon="9.343636323674383"><ele>50.5</ele><time>2026-05-01T09:04:08Z</time></trkpt><trkpt lat="42.74891747805045" lon="9.343656768141363"><ele>44.0</ele><time>2026-05-01T09:04:09Z</time></trkpt><trkpt lat="42.74881938421795" lon="9.34372000127993"><ele>37.5</ele><time>2026-05-01T09:04:10Z</time></trkpt><trkpt lat="42.74872144433271" lon="9.343818416557742"><ele>31.0</ele><time>2026-05-01T09:04:11Z</time></trkpt><trkpt lat="42.74861185733125" lon="9.343922275553597"><ele>43.0</ele><time>2026-05-01T09:04:12Z</time></trkpt><trkpt lat="42.74849719110085" lon="9.344029708587401"><ele>55.0</ele><time>2026-05-01T09:04:13Z</time></trkpt><trkpt lat="42.74836365049491" lon="9.344109726317631"><ele>67.0</ele><time>2026-05-01T09:04:14Z</time></trkpt><trkpt lat="42.74821053255815" lon="9.344202313482583"><ele>67.0</ele><time>2026-05-01T09:04:15Z</time></trkpt><trkpt lat="42.74806780040976" lon="9.344321086512943"><ele>67.0</ele><time>2026-05-01T09:04:16Z</time></trkpt><trkpt lat="42.74792418156316" lon="9.344417108817217"><ele>67.0</ele><time>2026-05-01T09:04:17Z</time></trkpt><trkpt lat="42.7477776700438" lon="9.344504069394851"><ele>66.0</ele><time>2026-05-01T09:04:18Z</time></trkpt><trkpt lat="42.747644787135386" lon="9.344580971424056"><ele>65.0</ele><time>2026-05-01T09:04:19Z</time></trkpt><trkpt lat="42.74752292600778" lon="9.344666694718363"><ele>64.0</ele><time>2026-05-01T09:04:20Z</time></trkpt><trkpt lat="42.74743855934178" lon="9.34480047838113"><ele>63.0</ele><time>2026-05-01T09:04:21Z</time></trkpt><trkpt lat="42.747390478725045" lon="9.344971076261876"><ele>63.0</ele><time>2026-05-01T09:04:21.999Z</time></trkpt><trkpt lat="42.74739760491796" lon="9.345161831116013"><ele>63.0</ele><time>2026-05-01T09:04:22.999Z</time></trkpt><trkpt lat="42.74743264224596" lon="9.345352703814669"><ele>63.0</ele><time>2026-05-01T09:04:23.999Z</time></trkpt><trkpt lat="42.74748987647933" lon="9.34552254254541"><ele>63.0</ele><time>2026-05-01T09:04:24.999Z</time></trkpt><trkpt lat="42.74749758232301" lon="9.34567769800987"><ele>67.4</ele><time>2026-05-01T09:04:25.999Z</time></trkpt><trkpt lat="42.74749441481631" lon="9.345803495615714"><ele>71.8</ele><time>2026-05-01T09:04:26.999Z</time></trkpt><trkpt lat="42.74740283584786" lon="9.345858270036883"><ele>76.2</ele><time>2026-05-01T09:04:27.999Z</time></trkpt><trkpt lat="42.74729807677149" lon="9.345846351311131"><ele>80.6</ele><time>2026-05-01T09:04:28.999Z</time></trkpt><trkpt lat="42.74718730578162" lon="9.345772034927437"><ele>85.0</ele><time>2026-05-01T09:04:29.999Z</time></trkpt><trkpt lat="42.747074612063585" lon="9.345625120664257"><ele>79.5</ele><time>2026-05-01T09:04:30.999Z</time></trkpt><trkpt lat="42.74694454901935" lon="9.345490465951176"><ele>74.0</ele><time>2026-05-01T09:04:31.999Z</time></trkpt><trkpt lat="42.74684002331134" lon="9.345351475013516"><ele>68.5</ele><time>2026-05-01T09:04:32.999Z</time></trkpt><trkpt lat="42.746725828578874" lon="9.345276931295667"><ele>63.0</ele><time>2026-05-01T09:04:33.999Z</time></trkpt><trkpt lat="42.74660220906978" lon="9.34524412741142"><ele>56.75</ele><time>2026-05-01T09:04:34.999Z</time></trkpt><trkpt lat="42.74646851707904" lon="9.345267619032056"><ele>50.5</ele><time>2026-05-01T09:04:35.999Z</time></trkpt><trkpt lat="42.746315995802625" lon="9.345338011081852"><ele>44.25</ele><time>2026-05-01T09:04:36.999Z</time></trkpt><trkpt lat="42.746165741324084" lon="9.345364995268094"><ele>38.0</ele><time>2026-05-01T09:04:37.999Z</time></trkpt><trkpt lat="42.74603299282754" lon="9.345427925276628"><ele>42.5</ele><time>2026-05-01T09:04:38.999Z</time></trkpt><trkpt lat="42.74591105045837" lon="9.345479633946242"><ele>47.0</ele><time>2026-05-01T09:04:39.999Z</time></trkpt><trkpt lat="42.7458072244958" lon="9.3455585062651"><ele>51.5</ele><time>2026-05-01T09:04:40.999Z</time></trkpt><trkpt lat="42.745719724990316" lon="9.345649326672968"><ele>56.0</ele><time>2026-05-01T09:04:41.999Z</time></trkpt><trkpt lat="42.74563354267868" lon="9.345725116097102"><ele>56.0</ele><time>2026-05-01T09:04:42.999Z</time></trkpt><trkpt lat="42.745578508119095" lon="9.345829941011461"><ele>55.99999999999999</ele><time>2026-05-01T09:04:43.999Z</time></trkpt><trkpt lat="42.74553697907116" lon="9.345962074527499"><ele>55.99999999999999</ele><time>2026-05-01T09:04:44.999Z</time></trkpt><trkpt lat="42.745541649728324" lon="9.346112152939003"><ele>56.0</ele><time>2026-05-01T09:04:45.999Z</time></trkpt><trkpt lat="42.745512315419305" lon="9.346222054582833"><ele>56.0</ele><time>2026-05-01T09:04:46.999Z</time></trkpt><trkpt lat="42.745475382518094" lon="9.346312245913632"><ele>56.0</ele><time>2026-05-01T09:04:47.999Z</time></trkpt><trkpt lat="42.7454096015408" lon="9.346361893232856"><ele>55.99999999999999</ele><time>2026-05-01T09:04:48.999Z</time></trkpt><trkpt lat="42.745318602467606" lon="9.346362269295762"><ele>55.99999999999999</ele><time>2026-05-01T09:04:49.999Z</time></trkpt><trkpt lat="42.74523927145321" lon="9.346288060610968"><ele>56.0</ele><time>2026-05-01T09:04:50.999Z</time></trkpt><trkpt lat="42.74515322986137" lon="9.346132570988235"><ele>56.0</ele><time>2026-05-01T09:04:51.999Z</time></trkpt><trkpt lat="42.74505326004512" lon="9.346020461305436"><ele>52.25</ele><time>2026-05-01T09:04:52.999Z</time></trkpt><trkpt lat="42.74493660786693" lon="9.345923761822803"><ele>48.5</ele><time>2026-05-01T09:04:53.999Z</time></trkpt><trkpt lat="42.74479499130907" lon="9.345848815644255"><ele>44.75</ele><time>2026-05-01T09:04:54.999Z</time></trkpt><trkpt lat="42.74466297391963" lon="9.34579216992837"><ele>41.0</ele><time>2026-05-01T09:04:55.999Z</time></trkpt><trkpt lat="42.74452080470073" lon="9.345758625161924"><ele>38.25</ele><time>2026-05-01T09:04:56.999Z</time></trkpt><trkpt lat="42.74436852101435" lon="9.3457561411271"><ele>35.5</ele><time>2026-05-01T09:04:57.999Z</time></trkpt><trkpt lat="42.744231411828906" lon="9.34577272155726"><ele>32.75</ele><time>2026-05-01T09:04:58.999Z</time></trkpt><trkpt lat="42.74411162782592" lon="9.34579884733674"><ele>30.0</ele><time>2026-05-01T09:04:59.999Z</time></trkpt><trkpt lat="42.74400287653163" lon="9.345834514169047"><ele>30.0</ele><time>2026-05-01T09:05:00.999Z</time></trkpt><trkpt lat="42.74390533218851" lon="9.345918394697957"><ele>30.0</ele><time>2026-05-01T09:05:01.999Z</time></trkpt><trkpt lat="42.74380672862647" lon="9.34605089269832"><ele>30.0</ele><time>2026-05-01T09:05:02.999Z</time></trkpt><trkpt lat="42.7436803043391" lon="9.346174597330313"><ele>30.0</ele><time>2026-05-01T09:05:03.999Z</time></trkpt><trkpt lat="42.74356241696663" lon="9.34628716422763"><ele>36.5</ele><time>2026-05-01T09:05:04.999Z</time></trkpt><trkpt lat="42.743438168833556" lon="9.346383268593554"><ele>43.0</ele><time>2026-05-01T09:05:05.999Z</time></trkpt><trkpt lat="42.74330315441678" lon="9.346447849716746"><ele>49.5</ele><time>2026-05-01T09:05:07Z</time></trkpt><trkpt lat="42.74316948071781" lon="9.346502349553225"><ele>56.0</ele><time>2026-05-01T09:05:08Z</time></trkpt><trkpt lat="42.74304137975433" lon="9.34655770948298"><ele>56.0</ele><time>2026-05-01T09:05:09Z</time></trkpt><trkpt lat="42.742925371649534" lon="9.34663062849016"><ele>56.0</ele><time>2026-05-01T09:05:10Z</time></trkpt><trkpt lat="42.74283741658042" lon="9.346751572924697"><ele>56.0</ele><time>2026-05-01T09:05:11Z</time></trkpt><trkpt lat="42.74271968721307" lon="9.346817154027507"><ele>56.0</ele><time>2026-05-01T09:05:12Z</time></trkpt><trkpt lat="42.74259529271194" lon="9.346780121092573"><ele>50.333333333333336</ele><time>2026-05-01T09:05:13Z</time></trkpt><trkpt lat="42.742449775419836" lon="9.346706700776734"><ele>44.66666666666667</ele><time>2026-05-01T09:05:14Z</time></trkpt><trkpt lat="42.74228412052318" lon="9.346690065126742"><ele>39.0</ele><time>2026-05-01T09:05:15Z</time></trkpt><trkpt lat="42.74206778010522" lon="9.346703575913432"><ele>37.0</ele><time>2026-05-01T09:05:16Z</time></trkpt><trkpt lat="42.74184123162855" lon="9.346718677455318"><ele>35.0</ele><time>2026-05-01T09:05:17Z</time></trkpt><trkpt lat="42.741612695012634" lon="9.346745306937002"><ele>35.0</ele><time>2026-05-01T09:05:18Z</time></trkpt><trkpt lat="42.74136400686264" lon="9.346796926927073"><ele>35.0</ele><time>2026-05-01T09:05:19Z</time></trkpt><trkpt lat="42.74117129874946" lon="9.34687525893731"><ele>33.33333333333333</ele><time>2026-05-01T09:05:20Z</time></trkpt><trkpt lat="42.74101387999521" lon="9.34692423472704"><ele>31.666666666666664</ele><time>2026-05-01T09:05:21Z</time></trkpt><trkpt lat="42.74087873385455" lon="9.346988207338546"><ele>30.0</ele><time>2026-05-01T09:05:22Z</time></trkpt><trkpt lat="42.740733645664946" lon="9.347093332887509"><ele>36.66666666666667</ele><time>2026-05-01T09:05:23Z</time></trkpt><trkpt lat="42.74058606189098" lon="9.347242881936372"><ele>43.333333333333336</ele><time>2026-05-01T09:05:24Z</time></trkpt><trkpt lat="42.7404421315165" lon="9.347376165331"><ele>50.0</ele><time>2026-05-01T09:05:25Z</time></trkpt><trkpt lat="42.740320046867446" lon="9.347497410457706"><ele>50.0</ele><time>2026-05-01T09:05:26Z</time></trkpt><trkpt lat="42.74022023986546" lon="9.34765113401101"><ele>50.0</ele><time>2026-05-01T09:05:27Z</time></trkpt><trkpt lat="42.74014797771905" lon="9.347847388928416"><ele>50.0</ele><time>2026-05-01T09:05:28Z</time></trkpt><trkpt lat="42.74004578200239" lon="9.34799741944236"><ele>48.5</ele><time>2026-05-01T09:05:29Z</time></trkpt><trkpt lat="42.73993642435618" lon="9.34809146123866"><ele>47.0</ele><time>2026-05-01T09:05:30Z</time></trkpt><trkpt lat="42.73980443895515" lon="9.348097065611793"><ele>45.5</ele><time>2026-05-01T09:05:31Z</time></trkpt><trkpt lat="42.73965151516212" lon="9.348145334852912"><ele>44.0</ele><time>2026-05-01T09:05:32Z</time></trkpt><trkpt lat="42.739537970123784" lon="9.348242743731394"><ele>44.0</ele><time>2026-05-01T09:05:33Z</time></trkpt><trkpt lat="42.73943395838684" lon="9.348394910444561"><ele>44.0</ele><time>2026-05-01T09:05:34Z</time></trkpt><trkpt lat="42.739363346328965" lon="9.34857942934251"><ele>44.0</ele><time>2026-05-01T09:05:35Z</time></trkpt><trkpt lat="42.73926869767767" lon="9.348723383625053"><ele>44.0</ele><time>2026-05-01T09:05:36Z</time></trkpt><trkpt lat="42.73915446477681" lon="9.3487962631309"><ele>41.6</ele><time>2026-05-01T09:05:37Z</time></trkpt><trkpt lat="42.73902543049261" lon="9.348809187613828"><ele>39.2</ele><time>2026-05-01T09:05:38Z</time></trkpt><trkpt lat="42.73890786950631" lon="9.34883358869855"><ele>36.800000000000004</ele><time>2026-05-01T09:05:39Z</time></trkpt><trkpt lat="42.738827450537634" lon="9.348803229835628"><ele>34.400000000000006</ele><time>2026-05-01T09:05:40Z</time></trkpt><trkpt lat="42.73876529030547" lon="9.348679382677206"><ele>32.0</ele><time>2026-05-01T09:05:41Z</time></trkpt><trkpt lat="42.73873971815817" lon="9.348494057373456"><ele>32.0</ele><time>2026-05-01T09:05:42Z</time></trkpt><trkpt lat="42.738764471734655" lon="9.34827668050975"><ele>32.0</ele><time>2026-05-01T09:05:43Z</time></trkpt><trkpt lat="42.738804323093696" lon="9.348028212058317"><ele>32.0</ele><time>2026-05-01T09:05:44Z</time></trkpt><trkpt lat="42.73880251517002" lon="9.347756779899443"><ele>30.666666666666664</ele><time>2026-05-01T09:05:45Z</time></trkpt><trkpt lat="42.738770754251924" lon="9.347467689608715"><ele>29.333333333333336</ele><time>2026-05-01T09:05:46Z</time></trkpt><trkpt lat="42.73873855928087" lon="9.347160579904758"><ele>28.0</ele><time>2026-05-01T09:05:47Z</time></trkpt><trkpt lat="42.738703946416926" lon="9.346859885973865"><ele>26.333333333333336</ele><time>2026-05-01T09:05:48Z</time></trkpt><trkpt lat="42.738653347506194" lon="9.346576394706688"><ele>24.666666666666668</ele><time>2026-05-01T09:05:49Z</time></trkpt><trkpt lat="42.73861342340417" lon="9.346320691687168"><ele>23.0</ele><time>2026-05-01T09:05:50Z</time></trkpt><trkpt lat="42.73862329615562" lon="9.346077443369916"><ele>21.666666666666668</ele><time>2026-05-01T09:05:51Z</time></trkpt><trkpt lat="42.73864631100548" lon="9.345831488978263"><ele>20.333333333333332</ele><time>2026-05-01T09:05:52Z</time></trkpt><trkpt lat="42.738701796459225" lon="9.34562478151114"><ele>19.0</ele><time>2026-05-01T09:05:53Z</time></trkpt><trkpt lat="42.73872304491844" lon="9.345436975023057"><ele>17.25</ele><time>2026-05-01T09:05:54Z</time></trkpt><trkpt lat="42.73870235993985" lon="9.345287604774846"><ele>15.5</ele><time>2026-05-01T09:05:55Z</time></trkpt><trkpt lat="42.738647042739565" lon="9.345164145269914"><ele>13.75</ele><time>2026-05-01T09:05:56Z</time></trkpt><trkpt lat="42.738543974169225" lon="9.345083829180968"><ele>12.0</ele><time>2026-05-01T09:05:57Z</time></trkpt><trkpt lat="42.73840185142309" lon="9.34505449403544"><ele>11.666666666666666</ele><time>2026-05-01T09:05:58Z</time></trkpt><trkpt lat="42.73822031229282" lon="9.345102459128757"><ele>11.333333333333332</ele><time>2026-05-01T09:05:59Z</time></trkpt><trkpt lat="42.73804385286882" lon="9.345173996306006"><ele>11.0</ele><time>2026-05-01T09:06:00Z</time></trkpt><trkpt lat="42.737849786688756" lon="9.345201578204433"><ele>10.200000000000001</ele><time>2026-05-01T09:06:01Z</time></trkpt><trkpt lat="42.737694229344164" lon="9.345155579906596"><ele>9.4</ele><time>2026-05-01T09:06:02Z</time></trkpt><trkpt lat="42.737576728893444" lon="9.345127586625182"><ele>8.6</ele><time>2026-05-01T09:06:03Z</time></trkpt><trkpt lat="42.737498446903174" lon="9.345105753800343"><ele>7.8</ele><time>2026-05-01T09:06:04Z</time></trkpt><trkpt lat="42.73741707363929" lon="9.34510365604734"><ele>7.0</ele><time>2026-05-01T09:06:05Z</time></trkpt><trkpt lat="42.73731694225201" lon="9.345081305383754"><ele>7.0</ele><time>2026-05-01T09:06:06Z</time></trkpt><trkpt lat="42.73719994100455" lon="9.345095738787679"><ele>7.0</ele><time>2026-05-01T09:06:07Z</time></trkpt><trkpt lat="42.73707164059926" lon="9.34516307424321"><ele>7.0</ele><time>2026-05-01T09:06:08Z</time></trkpt><trkpt lat="42.7369639719214" lon="9.34528651585931"><ele>7.0</ele><time>2026-05-01T09:06:09Z</time></trkpt><trkpt lat="42.736848304152474" lon="9.345403607073202"><ele>8.25</ele><time>2026-05-01T09:06:10Z</time></trkpt><trkpt lat="42.73678200174184" lon="9.345598305063586"><ele>9.5</ele><time>2026-05-01T09:06:11Z</time></trkpt><trkpt lat="42.73668399537197" lon="9.345710326626453"><ele>10.75</ele><time>2026-05-01T09:06:12Z</time></trkpt><trkpt lat="42.73659196909189" lon="9.345787211318278"><ele>12.0</ele><time>2026-05-01T09:06:13Z</time></trkpt><trkpt lat="42.73651504078745" lon="9.345843235998862"><ele>12.0</ele><time>2026-05-01T09:06:14Z</time></trkpt><trkpt lat="42.73644118060241" lon="9.345931956377116"><ele>12.0</ele><time>2026-05-01T09:06:16Z</time></trkpt><trkpt lat="42.73636276715913" lon="9.345973796285973"><ele>12.0</ele><time>2026-05-01T09:06:17Z</time></trkpt><trkpt lat="42.7363045906156" lon="9.346070998072417"><ele>12.0</ele><time>2026-05-01T09:06:18Z</time></trkpt><trkpt lat="42.736259594398874" lon="9.34617318572251"><ele>12.0</ele><time>2026-05-01T09:06:19Z</time></trkpt><trkpt lat="42.73621972960343" lon="9.346247642329297"><ele>12.0</ele><time>2026-05-01T09:06:20Z</time></trkpt><trkpt lat="42.73617934192711" lon="9.346362036647646"><ele>10.2</ele><time>2026-05-01T09:06:22Z</time></trkpt><trkpt lat="42.7361145448244" lon="9.346446809673234"><ele>8.399999999999999</ele><time>2026-05-01T09:06:24Z</time></trkpt><trkpt lat="42.73605455339944" lon="9.346548159828785"><ele>6.6</ele><time>2026-05-01T09:06:26Z</time></trkpt><trkpt lat="42.735962708899166" lon="9.34663334446784"><ele>4.8</ele><time>2026-05-01T09:06:28Z</time></trkpt><trkpt lat="42.735857368090585" lon="9.34669569297514"><ele>3.0</ele><time>2026-05-01T09:06:29.999Z</time></trkpt><trkpt lat="42.735776730115475" lon="9.346713633511493"><ele>3.0</ele><time>2026-05-01T09:06:30.999Z</time></trkpt><trkpt lat="42.73569277303539" lon="9.346733642588239"><ele>3.0</ele><time>2026-05-01T09:06:31.999Z</time></trkpt><trkpt lat="42.73560561167759" lon="9.346731009140857"><ele>3.0</ele><time>2026-05-01T09:06:32.999Z</time></trkpt><trkpt lat="42.73551365395621" lon="9.346753580319238"><ele>3.0</ele><time>2026-05-01T09:06:33.999Z</time></trkpt><trkpt lat="42.73539757133515" lon="9.34678113091046"><ele>3.0</ele><time>2026-05-01T09:06:34.999Z</time></trkpt><trkpt lat="42.73523780665357" lon="9.346796811447057"><ele>3.5999999999999996</ele><time>2026-05-01T09:06:35.999Z</time></trkpt><trkpt lat="42.735114348965325" lon="9.346740124202151"><ele>4.199999999999999</ele><time>2026-05-01T09:06:36.999Z</time></trkpt><trkpt lat="42.73502394080475" lon="9.346670526083841"><ele>4.8</ele><time>2026-05-01T09:06:37.999Z</time></trkpt><trkpt lat="42.73495375907522" lon="9.346575760166834"><ele>5.3999999999999995</ele><time>2026-05-01T09:06:38.999Z</time></trkpt><trkpt lat="42.73490337469844" lon="9.346451762122664"><ele>6.0</ele><time>2026-05-01T09:06:39.999Z</time></trkpt><trkpt lat="42.73490659696538" lon="9.34629428033465"><ele>6.0</ele><time>2026-05-01T09:06:40.999Z</time></trkpt><trkpt lat="42.73489696004347" lon="9.346117434856072"><ele>6.0</ele><time>2026-05-01T09:06:41.999Z</time></trkpt><trkpt lat="42.73488953927746" lon="9.345901865654376"><ele>6.0</ele><time>2026-05-01T09:06:42.999Z</time></trkpt><trkpt lat="42.73485736606453" lon="9.345696248071912"><ele>6.0</ele><time>2026-05-01T09:06:43.999Z</time></trkpt><trkpt lat="42.734813862323" lon="9.345483232805877"><ele>6.0</ele><time>2026-05-01T09:06:44.999Z</time></trkpt><trkpt lat="42.73476460928624" lon="9.345287547586327"><ele>6.0</ele><time>2026-05-01T09:06:45.999Z</time></trkpt><trkpt lat="42.73471667968028" lon="9.345120895492148"><ele>6.0</ele><time>2026-05-01T09:06:46.999Z</time></trkpt><trkpt lat="42.73467243193941" lon="9.344967304819923"><ele>6.0</ele><time>2026-05-01T09:06:47.999Z</time></trkpt><trkpt lat="42.734620098073584" lon="9.344831421405486"><ele>6.0</ele><time>2026-05-01T09:06:48.999Z</time></trkpt><trkpt lat="42.73453773123034" lon="9.344716469041915"><ele>6.0</ele><time>2026-05-01T09:06:49.999Z</time></trkpt><trkpt lat="42.73442550084264" lon="9.344648971671942"><ele>6.0</ele><time>2026-05-01T09:06:50.999Z</time></trkpt><trkpt lat="42.73428803144583" lon="9.34465721017589"><ele>6.0</ele><time>2026-05-01T09:06:51.999Z</time></trkpt><trkpt lat="42.73415434913328" lon="9.344669488373754"><ele>6.333333333333334</ele><time>2026-05-01T09:06:52.999Z</time></trkpt><trkpt lat="42.73401012458285" lon="9.344634446553844"><ele>6.666666666666667</ele><time>2026-05-01T09:06:53.999Z</time></trkpt><trkpt lat="42.73388684623839" lon="9.34452369481068"><ele>7.0</ele><time>2026-05-01T09:06:54.999Z</time></trkpt><trkpt lat="42.73376399018977" lon="9.344388181588538"><ele>7.0</ele><time>2026-05-01T09:06:55.999Z</time></trkpt><trkpt lat="42.73364869120483" lon="9.344261616025193"><ele>7.0</ele><time>2026-05-01T09:06:56.999Z</time></trkpt><trkpt lat="42.73353929321371" lon="9.344142741765"><ele>7.0</ele><time>2026-05-01T09:06:57.999Z</time></trkpt><trkpt lat="42.733426961364735" lon="9.344085031587868"><ele>7.0</ele><time>2026-05-01T09:06:58.999Z</time></trkpt><trkpt lat="42.73331958965349" lon="9.344088713926794"><ele>8.75</ele><time>2026-05-01T09:06:59.999Z</time></trkpt><trkpt lat="42.733207421703476" lon="9.344159885764444"><ele>10.5</ele><time>2026-05-01T09:07:00.999Z</time></trkpt><trkpt lat="42.73310405610754" lon="9.344283046793054"><ele>12.25</ele><time>2026-05-01T09:07:01.999Z</time></trkpt><trkpt lat="42.73298894119562" lon="9.344403436579256"><ele>14.0</ele><time>2026-05-01T09:07:02.999Z</time></trkpt><trkpt lat="42.73285595202114" lon="9.344484177606532"><ele>13.333333333333334</ele><time>2026-05-01T09:07:03.999Z</time></trkpt><trkpt lat="42.732697275312816" lon="9.34452630724469"><ele>12.666666666666668</ele><time>2026-05-01T09:07:04.999Z</time></trkpt><trkpt lat="42.73252852069755" lon="9.344609735407335"><ele>12.0</ele><time>2026-05-01T09:07:05.999Z</time></trkpt><trkpt lat="42.732385368108446" lon="9.344707115146441"><ele>15.5</ele><time>2026-05-01T09:07:06.999Z</time></trkpt><trkpt lat="42.73225712408401" lon="9.344822034099332"><ele>19.0</ele><time>2026-05-01T09:07:07.999Z</time></trkpt><trkpt lat="42.73214203104811" lon="9.344911929157119"><ele>22.5</ele><time>2026-05-01T09:07:08.999Z</time></trkpt><trkpt lat="42.7320376394693" lon="9.34498208680157"><ele>26.0</ele><time>2026-05-01T09:07:09.999Z</time></trkpt><trkpt lat="42.731917972104114" lon="9.34499337275062"><ele>25.0</ele><time>2026-05-01T09:07:10.999Z</time></trkpt><trkpt lat="42.73181207356003" lon="9.344927994204333"><ele>24.0</ele><time>2026-05-01T09:07:11.999Z</time></trkpt><trkpt lat="42.73171786505721" lon="9.344805541582796"><ele>23.0</ele><time>2026-05-01T09:07:13Z</time></trkpt><trkpt lat="42.73163536050991" lon="9.344663480755186"><ele>22.0</ele><time>2026-05-01T09:07:14Z</time></trkpt><trkpt lat="42.731549032197755" lon="9.344557212066839"><ele>22.0</ele><time>2026-05-01T09:07:15Z</time></trkpt><trkpt lat="42.73144989914852" lon="9.344519306644504"><ele>22.0</ele><time>2026-05-01T09:07:16Z</time></trkpt><trkpt lat="42.731330227049206" lon="9.344523628719543"><ele>22.0</ele><time>2026-05-01T09:07:17Z</time></trkpt><trkpt lat="42.73121943842646" lon="9.344643700174302"><ele>22.0</ele><time>2026-05-01T09:07:18Z</time></trkpt><trkpt lat="42.73111806164675" lon="9.34480054753374"><ele>20.0</ele><time>2026-05-01T09:07:19Z</time></trkpt><trkpt lat="42.73099533970542" lon="9.344931160298051"><ele>18.0</ele><time>2026-05-01T09:07:20Z</time></trkpt><trkpt lat="42.73086758627073" lon="9.345076843190853"><ele>16.0</ele><time>2026-05-01T09:07:21Z</time></trkpt><trkpt lat="42.73073888079918" lon="9.345227041789427"><ele>16.0</ele><time>2026-05-01T09:07:22Z</time></trkpt><trkpt lat="42.730603476139564" lon="9.345382307015463"><ele>16.0</ele><time>2026-05-01T09:07:23Z</time></trkpt><trkpt lat="42.730476682837796" lon="9.34556099793659"><ele>16.0</ele><time>2026-05-01T09:07:24Z</time></trkpt><trkpt lat="42.73034260549298" lon="9.345712702910056"><ele>15.5</ele><time>2026-05-01T09:07:25Z</time></trkpt><trkpt lat="42.73021566987804" lon="9.345825172856136"><ele>15.0</ele><time>2026-05-01T09:07:26Z</time></trkpt><trkpt lat="42.73008915029583" lon="9.345819859527708"><ele>14.5</ele><time>2026-05-01T09:07:27Z</time></trkpt><trkpt lat="42.729956172143154" lon="9.34579975515379"><ele>14.0</ele><time>2026-05-01T09:07:28Z</time></trkpt><trkpt lat="42.72980621411581" lon="9.34575910775283"><ele>14.0</ele><time>2026-05-01T09:07:29Z</time></trkpt><trkpt lat="42.729655469952256" lon="9.345735501231943"><ele>14.0</ele><time>2026-05-01T09:07:30Z</time></trkpt><trkpt lat="42.72952272045461" lon="9.345682350658894"><ele>14.0</ele><time>2026-05-01T09:07:31Z</time></trkpt><trkpt lat="42.729402249637765" lon="9.345636428629495"><ele>14.0</ele><time>2026-05-01T09:07:32Z</time></trkpt><trkpt lat="42.72931459626955" lon="9.345542398076832"><ele>17.0</ele><time>2026-05-01T09:07:33Z</time></trkpt><trkpt lat="42.72926355266999" lon="9.345410918099804"><ele>20.0</ele><time>2026-05-01T09:07:34Z</time></trkpt><trkpt lat="42.72928450223487" lon="9.34523641331076"><ele>23.0</ele><time>2026-05-01T09:07:35Z</time></trkpt><trkpt lat="42.72927889685087" lon="9.345066781968178"><ele>26.0</ele><time>2026-05-01T09:07:36Z</time></trkpt><trkpt lat="42.72930219374653" lon="9.34489473985182"><ele>26.0</ele><time>2026-05-01T09:07:37Z</time></trkpt><trkpt lat="42.72931299816007" lon="9.344720020607603"><ele>26.0</ele><time>2026-05-01T09:07:38Z</time></trkpt><trkpt lat="42.72932087734381" lon="9.344539252082171"><ele>26.0</ele><time>2026-05-01T09:07:39Z</time></trkpt><trkpt lat="42.72932579828387" lon="9.344347483684345"><ele>26.0</ele><time>2026-05-01T09:07:40Z</time></trkpt><trkpt lat="42.72932931590751" lon="9.344151136548511"><ele>25.666666666666664</ele><time>2026-05-01T09:07:41Z</time></trkpt><trkpt lat="42.72933197137797" lon="9.343953175115386"><ele>25.333333333333336</ele><time>2026-05-01T09:07:42Z</time></trkpt><trkpt lat="42.729332535763966" lon="9.343742700940878"><ele>25.0</ele><time>2026-05-01T09:07:43Z</time></trkpt><trkpt lat="42.72932603883318" lon="9.34352814231522"><ele>24.75</ele><time>2026-05-01T09:07:44Z</time></trkpt><trkpt lat="42.72930513015114" lon="9.343326095796677"><ele>24.5</ele><time>2026-05-01T09:07:45Z</time></trkpt><trkpt lat="42.72928839887001" lon="9.343133450404112"><ele>24.25</ele><time>2026-05-01T09:07:46Z</time></trkpt><trkpt lat="42.72927205404442" lon="9.342950344167896"><ele>24.0</ele><time>2026-05-01T09:07:47Z</time></trkpt><trkpt lat="42.72925766300989" lon="9.342785661825438"><ele>23.5</ele><time>2026-05-01T09:07:48Z</time></trkpt><trkpt lat="42.72922413060602" lon="9.342627153429408"><ele>23.0</ele><time>2026-05-01T09:07:49Z</time></trkpt><trkpt lat="42.72916254408011" lon="9.3424622826706"><ele>22.5</ele><time>2026-05-01T09:07:50Z</time></trkpt><trkpt lat="42.729088763365596" lon="9.342299678241018"><ele>22.0</ele><time>2026-05-01T09:07:51Z</time></trkpt><trkpt lat="42.72903043226274" lon="9.342123584184847"><ele>20.75</ele><time>2026-05-01T09:07:52Z</time></trkpt><trkpt lat="42.728979462176426" lon="9.341924769015838"><ele>19.5</ele><time>2026-05-01T09:07:53Z</time></trkpt><trkpt lat="42.72892813176337" lon="9.341747595957152"><ele>18.25</ele><time>2026-05-01T09:07:54Z</time></trkpt><trkpt lat="42.72888137702896" lon="9.34156847939181"><ele>17.0</ele><time>2026-05-01T09:07:55Z</time></trkpt><trkpt lat="42.72884916385713" lon="9.341390489757492"><ele>16.4</ele><time>2026-05-01T09:07:56Z</time></trkpt><trkpt lat="42.72882373229352" lon="9.341222813913202"><ele>15.799999999999999</ele><time>2026-05-01T09:07:57Z</time></trkpt><trkpt lat="42.728804881048546" lon="9.341069111445924"><ele>15.2</ele><time>2026-05-01T09:07:58Z</time></trkpt><trkpt lat="42.72879678475703" lon="9.340927758949494"><ele>14.6</ele><time>2026-05-01T09:07:59Z</time></trkpt><trkpt lat="42.72879090896376" lon="9.34079770076836"><ele>14.0</ele><time>2026-05-01T09:08:00Z</time></trkpt><trkpt lat="42.7287584401249" lon="9.34069004816549"><ele>14.0</ele><time>2026-05-01T09:08:01Z</time></trkpt><trkpt lat="42.72869316038264" lon="9.340616731470533"><ele>13.999999999999998</ele><time>2026-05-01T09:08:02Z</time></trkpt><trkpt lat="42.728610483184" lon="9.340578300112288"><ele>13.999999999999998</ele><time>2026-05-01T09:08:03Z</time></trkpt><trkpt lat="42.72851538891542" lon="9.340583538812158"><ele>14.0</ele><time>2026-05-01T09:08:04Z</time></trkpt><trkpt lat="42.728426394648366" lon="9.3406377657099"><ele>14.0</ele><time>2026-05-01T09:08:05Z</time></trkpt><trkpt lat="42.728343594139965" lon="9.340741245855996"><ele>17.0</ele><time>2026-05-01T09:08:06Z</time></trkpt><trkpt lat="42.72824656365016" lon="9.340816287569451"><ele>20.0</ele><time>2026-05-01T09:08:07Z</time></trkpt><trkpt lat="42.72815486664511" lon="9.34087925795529"><ele>23.0</ele><time>2026-05-01T09:08:08Z</time></trkpt><trkpt lat="42.72807010858147" lon="9.340932959238282"><ele>26.0</ele><time>2026-05-01T09:08:09Z</time></trkpt><trkpt lat="42.727995336514496" lon="9.340903226378742"><ele>29.0</ele><time>2026-05-01T09:08:10Z</time></trkpt><trkpt lat="42.72791494296323" lon="9.340883494046908"><ele>29.0</ele><time>2026-05-01T09:08:11Z</time></trkpt><trkpt lat="42.72784852709253" lon="9.34078131723121"><ele>29.0</ele><time>2026-05-01T09:08:12Z</time></trkpt><trkpt lat="42.727807798044005" lon="9.34065835581882"><ele>29.0</ele><time>2026-05-01T09:08:13Z</time></trkpt><trkpt lat="42.72779877493821" lon="9.340519647275073"><ele>29.0</ele><time>2026-05-01T09:08:14Z</time></trkpt><trkpt lat="42.72780743302178" lon="9.340367191920247"><ele>29.0</ele><time>2026-05-01T09:08:15Z</time></trkpt><trkpt lat="42.72780618484463" lon="9.340209182909808"><ele>25.333333333333332</ele><time>2026-05-01T09:08:16Z</time></trkpt><trkpt lat="42.727779701982435" lon="9.340039484120013"><ele>21.666666666666664</ele><time>2026-05-01T09:08:17Z</time></trkpt><trkpt lat="42.7277510082504" lon="9.339797615303048"><ele>18.0</ele><time>2026-05-01T09:08:18Z</time></trkpt><trkpt lat="42.727702706737" lon="9.339509490417738"><ele>13.666666666666666</ele><time>2026-05-01T09:08:19Z</time></trkpt><trkpt lat="42.72765528577889" lon="9.339213735406679"><ele>9.333333333333334</ele><time>2026-05-01T09:08:20Z</time></trkpt><trkpt lat="42.72770520829203" lon="9.338946500294318"><ele>5.0</ele><time>2026-05-01T09:08:21Z</time></trkpt><trkpt lat="42.727769921705146" lon="9.33870222066765"><ele>5.0</ele><time>2026-05-01T09:08:22Z</time></trkpt><trkpt lat="42.72782628475685" lon="9.33847659412494"><ele>5.0</ele><time>2026-05-01T09:08:23Z</time></trkpt><trkpt lat="42.72786882311874" lon="9.338298573787693"><ele>5.0</ele><time>2026-05-01T09:08:24Z</time></trkpt><trkpt lat="42.7278492383962" lon="9.338116156122515"><ele>5.0</ele><time>2026-05-01T09:08:25Z</time></trkpt><trkpt lat="42.72776274235183" lon="9.337925505592185"><ele>10.333333333333334</ele><time>2026-05-01T09:08:26Z</time></trkpt><trkpt lat="42.72765712839394" lon="9.337718692953885"><ele>15.666666666666666</ele><time>2026-05-01T09:08:27Z</time></trkpt><trkpt lat="42.72755777335271" lon="9.337526122098973"><ele>21.0</ele><time>2026-05-01T09:08:27.999Z</time></trkpt><trkpt lat="42.72746105677878" lon="9.337419012457756"><ele>21.0</ele><time>2026-05-01T09:08:28.999Z</time></trkpt><trkpt lat="42.727362793411466" lon="9.337400403881995"><ele>21.0</ele><time>2026-05-01T09:08:29.999Z</time></trkpt><trkpt lat="42.727263907007206" lon="9.337446970212842"><ele>21.0</ele><time>2026-05-01T09:08:30.999Z</time></trkpt><trkpt lat="42.72716189742329" lon="9.337550400269576"><ele>21.0</ele><time>2026-05-01T09:08:31.999Z</time></trkpt><trkpt lat="42.72707084081658" lon="9.337743161159558"><ele>21.0</ele><time>2026-05-01T09:08:32.999Z</time></trkpt><trkpt lat="42.72694446028637" lon="9.337887448702766"><ele>21.0</ele><time>2026-05-01T09:08:33.999Z</time></trkpt><trkpt lat="42.726848550912855" lon="9.337957207816642"><ele>21.0</ele><time>2026-05-01T09:08:34.999Z</time></trkpt><trkpt lat="42.72676488151576" lon="9.3379334142534"><ele>21.0</ele><time>2026-05-01T09:08:35.999Z</time></trkpt><trkpt lat="42.72669283064448" lon="9.33779970264179"><ele>24.666666666666664</ele><time>2026-05-01T09:08:36.999Z</time></trkpt><trkpt lat="42.726685592938644" lon="9.337603077060418"><ele>28.333333333333332</ele><time>2026-05-01T09:08:37.999Z</time></trkpt><trkpt lat="42.72667105586294" lon="9.337366973659739"><ele>32.0</ele><time>2026-05-01T09:08:38.999Z</time></trkpt><trkpt lat="42.726693730933405" lon="9.337061638175031"><ele>32.0</ele><time>2026-05-01T09:08:39.999Z</time></trkpt><trkpt lat="42.7267519432047" lon="9.336765236874156"><ele>32.0</ele><time>2026-05-01T09:08:40.999Z</time></trkpt><trkpt lat="42.72676749417106" lon="9.336489092973812"><ele>32.0</ele><time>2026-05-01T09:08:41.999Z</time></trkpt><trkpt lat="42.726702778855575" lon="9.336230817616986"><ele>26.0</ele><time>2026-05-01T09:08:42.999Z</time></trkpt><trkpt lat="42.72658417643647" lon="9.335948875752008"><ele>20.0</ele><time>2026-05-01T09:08:43.999Z</time></trkpt><trkpt lat="42.72645819643746" lon="9.33565774783652"><ele>15.333333333333334</ele><time>2026-05-01T09:08:44.999Z</time></trkpt><trkpt lat="42.72634215473646" lon="9.335373817859029"><ele>10.666666666666668</ele><time>2026-05-01T09:08:45.999Z</time></trkpt><trkpt lat="42.72625015205887" lon="9.335169542857141"><ele>6.0</ele><time>2026-05-01T09:08:46.999Z</time></trkpt><trkpt lat="42.72616377654052" lon="9.335032185522165"><ele>6.0</ele><time>2026-05-01T09:08:47.999Z</time></trkpt><trkpt lat="42.726072580086104" lon="9.334960861369147"><ele>6.0</ele><time>2026-05-01T09:08:48.999Z</time></trkpt><trkpt lat="42.72592741166737" lon="9.3349747040787"><ele>6.0</ele><time>2026-05-01T09:08:49.999Z</time></trkpt><trkpt lat="42.72575510734841" lon="9.335010555612062"><ele>6.0</ele><time>2026-05-01T09:08:50.999Z</time></trkpt><trkpt lat="42.72562442855584" lon="9.334945540049102"><ele>6.5</ele><time>2026-05-01T09:08:51.999Z</time></trkpt><trkpt lat="42.725556281148116" lon="9.334819095912277"><ele>7.0</ele><time>2026-05-01T09:08:52.999Z</time></trkpt><trkpt lat="42.72550056011542" lon="9.334629079924023"><ele>7.5</ele><time>2026-05-01T09:08:53.999Z</time></trkpt><trkpt lat="42.725453713995044" lon="9.334443295868008"><ele>8.0</ele><time>2026-05-01T09:08:54.999Z</time></trkpt><trkpt lat="42.72533708114585" lon="9.334338492510108"><ele>9.0</ele><time>2026-05-01T09:08:55.999Z</time></trkpt><trkpt lat="42.725171511088185" lon="9.334306367541037"><ele>10.0</ele><time>2026-05-01T09:08:56.999Z</time></trkpt><trkpt lat="42.72501209970632" lon="9.334323147359534"><ele>11.0</ele><time>2026-05-01T09:08:57.999Z</time></trkpt><trkpt lat="42.72487645642821" lon="9.334438202074725"><ele>11.0</ele><time>2026-05-01T09:08:58.999Z</time></trkpt><trkpt lat="42.72477703932755" lon="9.3346225377509"><ele>11.0</ele><time>2026-05-01T09:08:59.999Z</time></trkpt><trkpt lat="42.724673559925975" lon="9.334883085499946"><ele>11.0</ele><time>2026-05-01T09:09:00.999Z</time></trkpt><trkpt lat="42.72453983047302" lon="9.33518158004163"><ele>13.5</ele><time>2026-05-01T09:09:01.999Z</time></trkpt><trkpt lat="42.72440004175318" lon="9.335522997636913"><ele>16.0</ele><time>2026-05-01T09:09:02.999Z</time></trkpt><trkpt lat="42.72427366916336" lon="9.335883122806557"><ele>16.0</ele><time>2026-05-01T09:09:03.999Z</time></trkpt><trkpt lat="42.724137730052945" lon="9.336240362734152"><ele>16.0</ele><time>2026-05-01T09:09:04.999Z</time></trkpt><trkpt lat="42.724025939615586" lon="9.33653001297064"><ele>22.666666666666664</ele><time>2026-05-01T09:09:05.999Z</time></trkpt><trkpt lat="42.72393285067294" lon="9.336767284877718"><ele>29.333333333333332</ele><time>2026-05-01T09:09:06.999Z</time></trkpt><trkpt lat="42.72385317232159" lon="9.33695959258792"><ele>36.0</ele><time>2026-05-01T09:09:07.999Z</time></trkpt><trkpt lat="42.72375875999624" lon="9.33706361886096"><ele>36.0</ele><time>2026-05-01T09:09:08.999Z</time></trkpt><trkpt lat="42.72362376955501" lon="9.337097975641763"><ele>36.0</ele><time>2026-05-01T09:09:09.999Z</time></trkpt><trkpt lat="42.723433710112694" lon="9.337215753361038"><ele>36.0</ele><time>2026-05-01T09:09:10.999Z</time></trkpt><trkpt lat="42.72325148047632" lon="9.337368880896607"><ele>31.0</ele><time>2026-05-01T09:09:11.999Z</time></trkpt><trkpt lat="42.72305877347751" lon="9.337582370647672"><ele>26.0</ele><time>2026-05-01T09:09:12.999Z</time></trkpt><trkpt lat="42.722870216030344" lon="9.33784881264255"><ele>22.0</ele><time>2026-05-01T09:09:13.999Z</time></trkpt><trkpt lat="42.722695637521035" lon="9.338121144334142"><ele>18.0</ele><time>2026-05-01T09:09:14.999Z</time></trkpt><trkpt lat="42.72254071881132" lon="9.338311864615443"><ele>18.0</ele><time>2026-05-01T09:09:15.999Z</time></trkpt><trkpt lat="42.722397566078044" lon="9.33845030750997"><ele>18.0</ele><time>2026-05-01T09:09:16.999Z</time></trkpt><trkpt lat="42.72222867708228" lon="9.338532104144033"><ele>18.0</ele><time>2026-05-01T09:09:17.999Z</time></trkpt><trkpt lat="42.72201623998766" lon="9.33860898591318"><ele>15.0</ele><time>2026-05-01T09:09:19Z</time></trkpt><trkpt lat="42.721757220512316" lon="9.33871720015015"><ele>12.0</ele><time>2026-05-01T09:09:20Z</time></trkpt><trkpt lat="42.72151495835638" lon="9.338813750837787"><ele>12.0</ele><time>2026-05-01T09:09:21Z</time></trkpt><trkpt lat="42.72132035103531" lon="9.338865098500976"><ele>12.0</ele><time>2026-05-01T09:09:22Z</time></trkpt><trkpt lat="42.72115376247294" lon="9.338871136058478"><ele>12.0</ele><time>2026-05-01T09:09:23Z</time></trkpt><trkpt lat="42.721032699043526" lon="9.338781264596385"><ele>12.0</ele><time>2026-05-01T09:09:24Z</time></trkpt><trkpt lat="42.72085429350298" lon="9.338672085144399"><ele>12.0</ele><time>2026-05-01T09:09:25Z</time></trkpt><trkpt lat="42.720656895439895" lon="9.338537114583495"><ele>12.0</ele><time>2026-05-01T09:09:26Z</time></trkpt><trkpt lat="42.72047112626114" lon="9.338390531723107"><ele>12.0</ele><time>2026-05-01T09:09:27Z</time></trkpt><trkpt lat="42.72033386307394" lon="9.338230638930055"><ele>12.0</ele><time>2026-05-01T09:09:28Z</time></trkpt><trkpt lat="42.72023222496827" lon="9.338028241342473"><ele>12.0</ele><time>2026-05-01T09:09:29Z</time></trkpt><trkpt lat="42.720166064758324" lon="9.337787586728568"><ele>14.666666666666668</ele><time>2026-05-01T09:09:30Z</time></trkpt><trkpt lat="42.72009214358627" lon="9.33750126924966"><ele>17.333333333333336</ele><time>2026-05-01T09:09:31Z</time></trkpt><trkpt lat="42.72007605884395" lon="9.337234577894533"><ele>20.0</ele><time>2026-05-01T09:09:32Z</time></trkpt><trkpt lat="42.720112403402744" lon="9.33699326878628"><ele>20.333333333333336</ele><time>2026-05-01T09:09:33Z</time></trkpt><trkpt lat="42.72017779555762" lon="9.336760641992402"><ele>20.666666666666668</ele><time>2026-05-01T09:09:34Z</time></trkpt><trkpt lat="42.720226440625275" lon="9.33652274440837"><ele>21.0</ele><time>2026-05-01T09:09:35Z</time></trkpt><trkpt lat="42.72021869019282" lon="9.336291473075883"><ele>20.0</ele><time>2026-05-01T09:09:36Z</time></trkpt><trkpt lat="42.72016445533089" lon="9.336090145014902"><ele>19.0</ele><time>2026-05-01T09:09:37Z</time></trkpt><trkpt lat="42.7200675442887" lon="9.335949851469827"><ele>18.0</ele><time>2026-05-01T09:09:38Z</time></trkpt><trkpt lat="42.71992488537871" lon="9.335843439512928"><ele>18.0</ele><time>2026-05-01T09:09:39Z</time></trkpt><trkpt lat="42.71974695114695" lon="9.335759683410718"><ele>18.0</ele><time>2026-05-01T09:09:40Z</time></trkpt><trkpt lat="42.71952686125195" lon="9.335688591594932"><ele>18.0</ele><time>2026-05-01T09:09:41Z</time></trkpt><trkpt lat="42.71931749477296" lon="9.335586366810888"><ele>15.0</ele><time>2026-05-01T09:09:42Z</time></trkpt><trkpt lat="42.7190941871918" lon="9.335467856264348"><ele>12.0</ele><time>2026-05-01T09:09:43Z</time></trkpt><trkpt lat="42.71885515198892" lon="9.335352573537458"><ele>12.0</ele><time>2026-05-01T09:09:44Z</time></trkpt><trkpt lat="42.71860073988034" lon="9.335253275440783"><ele>12.0</ele><time>2026-05-01T09:09:45Z</time></trkpt><trkpt lat="42.71833177461962" lon="9.335175229459564"><ele>14.5</ele><time>2026-05-01T09:09:46Z</time></trkpt><trkpt lat="42.71807392265981" lon="9.335101301048525"><ele>17.0</ele><time>2026-05-01T09:09:47Z</time></trkpt><trkpt lat="42.71786319957824" lon="9.335062454543536"><ele>16.333333333333336</ele><time>2026-05-01T09:09:48Z</time></trkpt><trkpt lat="42.71766809335701" lon="9.335060732930751"><ele>15.666666666666668</ele><time>2026-05-01T09:09:49Z</time></trkpt><trkpt lat="42.717433956213654" lon="9.335124614837534"><ele>15.0</ele><time>2026-05-01T09:09:50Z</time></trkpt><trkpt lat="42.71718543037379" lon="9.335245463203046"><ele>15.0</ele><time>2026-05-01T09:09:51Z</time></trkpt><trkpt lat="42.71691397425032" lon="9.335329329381594"><ele>15.0</ele><time>2026-05-01T09:09:52Z</time></trkpt><trkpt lat="42.71663632706862" lon="9.335430965152373"><ele>14.5</ele><time>2026-05-01T09:09:53Z</time></trkpt><trkpt lat="42.71637399015806" lon="9.33552615740907"><ele>14.0</ele><time>2026-05-01T09:09:54Z</time></trkpt><trkpt lat="42.71613442724051" lon="9.335679482301712"><ele>18.5</ele><time>2026-05-01T09:09:55Z</time></trkpt><trkpt lat="42.715881273303225" lon="9.335838285388649"><ele>23.0</ele><time>2026-05-01T09:09:56Z</time></trkpt><trkpt lat="42.715621592574095" lon="9.336003812434452"><ele>23.0</ele><time>2026-05-01T09:09:57Z</time></trkpt><trkpt lat="42.7153509973633" lon="9.336169784462216"><ele>23.0</ele><time>2026-05-01T09:09:58Z</time></trkpt><trkpt lat="42.71508308576448" lon="9.336313567550276"><ele>24.0</ele><time>2026-05-01T09:09:59Z</time></trkpt><trkpt lat="42.71485137969447" lon="9.336485267396649"><ele>25.0</ele><time>2026-05-01T09:10:00Z</time></trkpt><trkpt lat="42.714634586236" lon="9.33662780258549"><ele>25.0</ele><time>2026-05-01T09:10:01Z</time></trkpt><trkpt lat="42.714427891317904" lon="9.3367779572377"><ele>25.0</ele><time>2026-05-01T09:10:02Z</time></trkpt><trkpt lat="42.71421833809989" lon="9.336898601311352"><ele>25.0</ele><time>2026-05-01T09:10:03Z</time></trkpt><trkpt lat="42.714039668170436" lon="9.337081333273137"><ele>25.0</ele><time>2026-05-01T09:10:04Z</time></trkpt><trkpt lat="42.713848617816765" lon="9.33722466110734"><ele>25.0</ele><time>2026-05-01T09:10:05Z</time></trkpt><trkpt lat="42.71366476572535" lon="9.337345805593342"><ele>24.666666666666668</ele><time>2026-05-01T09:10:06Z</time></trkpt><trkpt lat="42.71348012244246" lon="9.337472716241047"><ele>24.333333333333336</ele><time>2026-05-01T09:10:07Z</time></trkpt><trkpt lat="42.71330315780232" lon="9.337603361531379"><ele>24.0</ele><time>2026-05-01T09:10:08Z</time></trkpt><trkpt lat="42.713128954467045" lon="9.337735270334147"><ele>24.0</ele><time>2026-05-01T09:10:09Z</time></trkpt><trkpt lat="42.7129543082561" lon="9.337863696328325"><ele>24.0</ele><time>2026-05-01T09:10:10Z</time></trkpt><trkpt lat="42.712779243123904" lon="9.337997341398507"><ele>24.0</ele><time>2026-05-01T09:10:11Z</time></trkpt><trkpt lat="42.71260271797571" lon="9.338133599271494"><ele>25.0</ele><time>2026-05-01T09:10:12Z</time></trkpt><trkpt lat="42.712420875469675" lon="9.338260400847862"><ele>26.0</ele><time>2026-05-01T09:10:13Z</time></trkpt><trkpt lat="42.7122405461557" lon="9.338395836179295"><ele>27.0</ele><time>2026-05-01T09:10:14Z</time></trkpt><trkpt lat="42.712062690162206" lon="9.338530848494763"><ele>27.0</ele><time>2026-05-01T09:10:15Z</time></trkpt><trkpt lat="42.71188881649547" lon="9.338658915542531"><ele>27.0</ele><time>2026-05-01T09:10:16Z</time></trkpt><trkpt lat="42.71171766225843" lon="9.33878668110945"><ele>27.0</ele><time>2026-05-01T09:10:17Z</time></trkpt><trkpt lat="42.711549068518266" lon="9.338917187364842"><ele>27.666666666666664</ele><time>2026-05-01T09:10:18Z</time></trkpt><trkpt lat="42.71137090594976" lon="9.339050354144106"><ele>28.333333333333332</ele><time>2026-05-01T09:10:19Z</time></trkpt><trkpt lat="42.71119210675259" lon="9.339184194717848"><ele>29.0</ele><time>2026-05-01T09:10:20Z</time></trkpt><trkpt lat="42.711003559400055" lon="9.339327138446569"><ele>29.0</ele><time>2026-05-01T09:10:21Z</time></trkpt><trkpt lat="42.7108035889057" lon="9.339476233439639"><ele>29.0</ele><time>2026-05-01T09:10:22Z</time></trkpt><trkpt lat="42.710601567435056" lon="9.339622548724275"><ele>30.0</ele><time>2026-05-01T09:10:23Z</time></trkpt><trkpt lat="42.71040528233742" lon="9.339768963705305"><ele>31.0</ele><time>2026-05-01T09:10:24Z</time></trkpt><trkpt lat="42.71021974632238" lon="9.339906902434768"><ele>32.0</ele><time>2026-05-01T09:10:25Z</time></trkpt><trkpt lat="42.71004203073407" lon="9.34004685407753"><ele>32.0</ele><time>2026-05-01T09:10:26Z</time></trkpt><trkpt lat="42.70986662131044" lon="9.340178241733069"><ele>32.0</ele><time>2026-05-01T09:10:27Z</time></trkpt><trkpt lat="42.7096935684492" lon="9.34030366736936"><ele>32.0</ele><time>2026-05-01T09:10:28Z</time></trkpt><trkpt lat="42.70952964813571" lon="9.340442235231242"><ele>32.0</ele><time>2026-05-01T09:10:29Z</time></trkpt><trkpt lat="42.70938109258442" lon="9.340605596114024"><ele>32.0</ele><time>2026-05-01T09:10:30Z</time></trkpt><trkpt lat="42.7092383802299" lon="9.340785943975858"><ele>32.0</ele><time>2026-05-01T09:10:30.999Z</time></trkpt><trkpt lat="42.7091096784733" lon="9.340983822169116"><ele>32.0</ele><time>2026-05-01T09:10:31.999Z</time></trkpt><trkpt lat="42.708999186677175" lon="9.341195872073108"><ele>32.0</ele><time>2026-05-01T09:10:32.999Z</time></trkpt><trkpt lat="42.708927227429534" lon="9.341415189343657"><ele>32.0</ele><time>2026-05-01T09:10:33.999Z</time></trkpt><trkpt lat="42.708867519661815" lon="9.34162054100849"><ele>33.5</ele><time>2026-05-01T09:10:34.999Z</time></trkpt><trkpt lat="42.7087872678939" lon="9.341776097605411"><ele>35.0</ele><time>2026-05-01T09:10:35.999Z</time></trkpt><trkpt lat="42.70867640789569" lon="9.341872931219227"><ele>36.5</ele><time>2026-05-01T09:10:36.999Z</time></trkpt><trkpt lat="42.70854377443091" lon="9.341917920160716"><ele>38.0</ele><time>2026-05-01T09:10:37.999Z</time></trkpt><trkpt lat="42.70839448205176" lon="9.341915881999357"><ele>38.0</ele><time>2026-05-01T09:10:38.999Z</time></trkpt><trkpt lat="42.70823179811605" lon="9.341874994803812"><ele>38.0</ele><time>2026-05-01T09:10:39.999Z</time></trkpt><trkpt lat="42.70808404746759" lon="9.34186691386931"><ele>38.0</ele><time>2026-05-01T09:10:40.999Z</time></trkpt><trkpt lat="42.70795371386353" lon="9.341897571265047"><ele>38.0</ele><time>2026-05-01T09:10:41.999Z</time></trkpt><trkpt lat="42.707841917363424" lon="9.341961945816443"><ele>38.599999999999994</ele><time>2026-05-01T09:10:42.999Z</time></trkpt><trkpt lat="42.707734556250664" lon="9.342023893515846"><ele>39.199999999999996</ele><time>2026-05-01T09:10:43.999Z</time></trkpt><trkpt lat="42.70764191046025" lon="9.3420821455931"><ele>39.8</ele><time>2026-05-01T09:10:44.999Z</time></trkpt><trkpt lat="42.70757759934085" lon="9.342124339720545"><ele>40.4</ele><time>2026-05-01T09:10:45.999Z</time></trkpt><trkpt lat="42.7075096805285" lon="9.342155628602166"><ele>41.0</ele><time>2026-05-01T09:10:48.999Z</time></trkpt><trkpt lat="42.70741552573731" lon="9.342156361018297"><ele>41.0</ele><time>2026-05-01T09:11:38.999Z</time></trkpt><trkpt lat="42.70731804516773" lon="9.342140484378769"><ele>41.0</ele><time>2026-05-01T09:11:39.999Z</time></trkpt><trkpt lat="42.70720986583039" lon="9.34218171316572"><ele>41.0</ele><time>2026-05-01T09:11:40.999Z</time></trkpt><trkpt lat="42.7070467826691" lon="9.342243850371206"><ele>41.0</ele><time>2026-05-01T09:11:41.999Z</time></trkpt><trkpt lat="42.70685106885711" lon="9.342318406097318"><ele>43.5</ele><time>2026-05-01T09:11:42.999Z</time></trkpt><trkpt lat="42.70663586842376" lon="9.342400030824878"><ele>46.0</ele><time>2026-05-01T09:11:43.999Z</time></trkpt><trkpt lat="42.706420017606746" lon="9.342513755164317"><ele>46.0</ele><time>2026-05-01T09:11:44.999Z</time></trkpt><trkpt lat="42.70619667062645" lon="9.342661408301579"><ele>46.0</ele><time>2026-05-01T09:11:45.999Z</time></trkpt><trkpt lat="42.7059873792762" lon="9.342825215093578"><ele>47.5</ele><time>2026-05-01T09:11:46.999Z</time></trkpt><trkpt lat="42.70577967945116" lon="9.343001024290205"><ele>49.0</ele><time>2026-05-01T09:11:47.999Z</time></trkpt><trkpt lat="42.70557413709984" lon="9.343174283163766"><ele>49.0</ele><time>2026-05-01T09:11:48.999Z</time></trkpt><trkpt lat="42.7053798494183" lon="9.343332647266596"><ele>49.0</ele><time>2026-05-01T09:11:49.999Z</time></trkpt><trkpt lat="42.70518962041386" lon="9.343490204439776"><ele>49.0</ele><time>2026-05-01T09:11:50.999Z</time></trkpt><trkpt lat="42.70501441814015" lon="9.34360103879964"><ele>50.0</ele><time>2026-05-01T09:11:51.999Z</time></trkpt><trkpt lat="42.70487487695383" lon="9.343750049290716"><ele>51.0</ele><time>2026-05-01T09:11:53Z</time></trkpt><trkpt lat="42.70474577394585" lon="9.343889396663874"><ele>52.0</ele><time>2026-05-01T09:11:54Z</time></trkpt><trkpt lat="42.70465121538549" lon="9.344115526252777"><ele>52.0</ele><time>2026-05-01T09:11:55Z</time></trkpt><trkpt lat="42.70454850661109" lon="9.344385288028304"><ele>52.0</ele><time>2026-05-01T09:11:56Z</time></trkpt><trkpt lat="42.704436641560704" lon="9.344668904810245"><ele>54.5</ele><time>2026-05-01T09:11:57Z</time></trkpt><trkpt lat="42.70431506418636" lon="9.344966822811806"><ele>57.0</ele><time>2026-05-01T09:11:58Z</time></trkpt><trkpt lat="42.704189752604144" lon="9.345268662641017"><ele>56.0</ele><time>2026-05-01T09:11:59Z</time></trkpt><trkpt lat="42.70406206977746" lon="9.345583735621856"><ele>55.0</ele><time>2026-05-01T09:12:00Z</time></trkpt><trkpt lat="42.703933180366526" lon="9.345901182711648"><ele>55.0</ele><time>2026-05-01T09:12:01Z</time></trkpt><trkpt lat="42.703789638686686" lon="9.346212938894778"><ele>55.0</ele><time>2026-05-01T09:12:02Z</time></trkpt><trkpt lat="42.70365931517014" lon="9.346526030785624"><ele>58.5</ele><time>2026-05-01T09:12:03Z</time></trkpt><trkpt lat="42.7035288846067" lon="9.346842551484286"><ele>62.0</ele><time>2026-05-01T09:12:04Z</time></trkpt><trkpt lat="42.70339572517513" lon="9.347165936175701"><ele>63.0</ele><time>2026-05-01T09:12:05Z</time></trkpt><trkpt lat="42.703287804043676" lon="9.347468809742281"><ele>64.0</ele><time>2026-05-01T09:12:06Z</time></trkpt><trkpt lat="42.70315343643562" lon="9.347755299461094"><ele>64.5</ele><time>2026-05-01T09:12:07Z</time></trkpt><trkpt lat="42.70303134147807" lon="9.348052982174046"><ele>65.0</ele><time>2026-05-01T09:12:08Z</time></trkpt><trkpt lat="42.70290913570242" lon="9.34835093508629"><ele>65.0</ele><time>2026-05-01T09:12:09Z</time></trkpt><trkpt lat="42.70279111828159" lon="9.348638677634778"><ele>65.0</ele><time>2026-05-01T09:12:10Z</time></trkpt><trkpt lat="42.7026710683709" lon="9.348929397256324"><ele>66.0</ele><time>2026-05-01T09:12:11Z</time></trkpt><trkpt lat="42.70255714565135" lon="9.349213982264741"><ele>67.0</ele><time>2026-05-01T09:12:12Z</time></trkpt><trkpt lat="42.70243934844887" lon="9.349506872861618"><ele>68.0</ele><time>2026-05-01T09:12:13Z</time></trkpt><trkpt lat="42.70231168666231" lon="9.349769746857001"><ele>69.0</ele><time>2026-05-01T09:12:14Z</time></trkpt><trkpt lat="42.70216685025894" lon="9.349989968610418"><ele>70.0</ele><time>2026-05-01T09:12:14.999Z</time></trkpt><trkpt lat="42.70201326677455" lon="9.350182868306135"><ele>71.33333333333333</ele><time>2026-05-01T09:12:15.999Z</time></trkpt><trkpt lat="42.70183356548297" lon="9.350356465144841"><ele>72.66666666666667</ele><time>2026-05-01T09:12:16.999Z</time></trkpt><trkpt lat="42.701652481994905" lon="9.350520349441037"><ele>74.0</ele><time>2026-05-01T09:12:17.999Z</time></trkpt><trkpt lat="42.701463932398056" lon="9.35065320467512"><ele>74.0</ele><time>2026-05-01T09:12:18.999Z</time></trkpt><trkpt lat="42.70128034492643" lon="9.3507601159858"><ele>74.0</ele><time>2026-05-01T09:12:19.999Z</time></trkpt><trkpt lat="42.701109728324155" lon="9.350848965129467"><ele>74.0</ele><time>2026-05-01T09:12:20.999Z</time></trkpt><trkpt lat="42.70095354185125" lon="9.35094435179458"><ele>73.33333333333334</ele><time>2026-05-01T09:12:21.999Z</time></trkpt><trkpt lat="42.700792826349776" lon="9.350931320815327"><ele>72.66666666666667</ele><time>2026-05-01T09:12:22.999Z</time></trkpt><trkpt lat="42.700620489010326" lon="9.350919247683455"><ele>72.0</ele><time>2026-05-01T09:12:23.999Z</time></trkpt><trkpt lat="42.70044176082665" lon="9.35085989130478"><ele>72.0</ele><time>2026-05-01T09:12:24.999Z</time></trkpt><trkpt lat="42.70029090966725" lon="9.350841026148604"><ele>72.0</ele><time>2026-05-01T09:12:25.999Z</time></trkpt><trkpt lat="42.70016703349623" lon="9.350922794734736"><ele>72.0</ele><time>2026-05-01T09:12:26.999Z</time></trkpt><trkpt lat="42.70005970092842" lon="9.351053541259347"><ele>72.0</ele><time>2026-05-01T09:12:27.999Z</time></trkpt><trkpt lat="42.69999241255145" lon="9.351234698086614"><ele>71.75</ele><time>2026-05-01T09:12:28.999Z</time></trkpt><trkpt lat="42.69991676452211" lon="9.351388396097267"><ele>71.5</ele><time>2026-05-01T09:12:29.999Z</time></trkpt><trkpt lat="42.699795083742146" lon="9.351473694331403"><ele>71.25</ele><time>2026-05-01T09:12:30.999Z</time></trkpt><trkpt lat="42.69962455912282" lon="9.35147362232791"><ele>71.0</ele><time>2026-05-01T09:12:31.999Z</time></trkpt><trkpt lat="42.69941498331343" lon="9.351445601766782"><ele>69.0</ele><time>2026-05-01T09:12:32.999Z</time></trkpt><trkpt lat="42.69916071636369" lon="9.351409096990949"><ele>67.0</ele><time>2026-05-01T09:12:33.999Z</time></trkpt><trkpt lat="42.69889142989217" lon="9.351381224059523"><ele>64.0</ele><time>2026-05-01T09:12:34.999Z</time></trkpt><trkpt lat="42.69860449349691" lon="9.351355506966831"><ele>61.0</ele><time>2026-05-01T09:12:35.999Z</time></trkpt><trkpt lat="42.6983477078675" lon="9.351334267777954"><ele>59.33333333333333</ele><time>2026-05-01T09:12:36.999Z</time></trkpt><trkpt lat="42.69815775652445" lon="9.351322744702504"><ele>57.66666666666667</ele><time>2026-05-01T09:12:37.999Z</time></trkpt><trkpt lat="42.698004240555775" lon="9.351307059274484"><ele>56.0</ele><time>2026-05-01T09:12:38.999Z</time></trkpt><trkpt lat="42.69788175824435" lon="9.35126454594925"><ele>56.0</ele><time>2026-05-01T09:12:39.999Z</time></trkpt><trkpt lat="42.697802331089925" lon="9.351197220141286"><ele>55.99999999999999</ele><time>2026-05-01T09:12:40.999Z</time></trkpt><trkpt lat="42.69775398036681" lon="9.351071461473284"><ele>55.99999999999999</ele><time>2026-05-01T09:12:41.999Z</time></trkpt><trkpt lat="42.69770326380089" lon="9.350924801028022"><ele>56.0</ele><time>2026-05-01T09:12:42.999Z</time></trkpt><trkpt lat="42.69760289207548" lon="9.350854511823584"><ele>56.0</ele><time>2026-05-01T09:12:43.999Z</time></trkpt><trkpt lat="42.697513272488926" lon="9.350850749071622"><ele>55.0</ele><time>2026-05-01T09:12:44.999Z</time></trkpt><trkpt lat="42.697381887615386" lon="9.350882746318867"><ele>54.0</ele><time>2026-05-01T09:12:45.999Z</time></trkpt><trkpt lat="42.69724332627339" lon="9.350801723746294"><ele>53.0</ele><time>2026-05-01T09:12:46.999Z</time></trkpt><trkpt lat="42.69707351956303" lon="9.350659560775972"><ele>53.5</ele><time>2026-05-01T09:12:47.999Z</time></trkpt><trkpt lat="42.696860260121944" lon="9.350518298546197"><ele>54.0</ele><time>2026-05-01T09:12:48.999Z</time></trkpt><trkpt lat="42.696627730072784" lon="9.350390179232948"><ele>54.0</ele><time>2026-05-01T09:12:49.999Z</time></trkpt><trkpt lat="42.69640476449084" lon="9.350255643240372"><ele>54.0</ele><time>2026-05-01T09:12:50.999Z</time></trkpt><trkpt lat="42.696222002391245" lon="9.350124733944297"><ele>52.33333333333333</ele><time>2026-05-01T09:12:51.999Z</time></trkpt><trkpt lat="42.69607485712215" lon="9.349993681036961"><ele>50.666666666666664</ele><time>2026-05-01T09:12:52.999Z</time></trkpt><trkpt lat="42.695954429695824" lon="9.34982766328032"><ele>49.0</ele><time>2026-05-01T09:12:53.999Z</time></trkpt><trkpt lat="42.69583325446459" lon="9.3496096711646"><ele>49.0</ele><time>2026-05-01T09:12:54.999Z</time></trkpt><trkpt lat="42.69572293259933" lon="9.34932079281217"><ele>49.0</ele><time>2026-05-01T09:12:55.999Z</time></trkpt><trkpt lat="42.69560919139051" lon="9.348988345608229"><ele>49.0</ele><time>2026-05-01T09:12:56.999Z</time></trkpt><trkpt lat="42.69547263902935" lon="9.348663269418697"><ele>49.0</ele><time>2026-05-01T09:12:57.999Z</time></trkpt><trkpt lat="42.695329710488146" lon="9.348318060228529"><ele>46.5</ele><time>2026-05-01T09:12:58.999Z</time></trkpt><trkpt lat="42.69519588219002" lon="9.34798959817858"><ele>44.0</ele><time>2026-05-01T09:12:59.999Z</time></trkpt><trkpt lat="42.695069943476284" lon="9.347674925963766"><ele>44.0</ele><time>2026-05-01T09:13:00.999Z</time></trkpt><trkpt lat="42.694969491316655" lon="9.347369908343335"><ele>44.0</ele><time>2026-05-01T09:13:01.999Z</time></trkpt><trkpt lat="42.694900972867494" lon="9.347073392783022"><ele>43.5</ele><time>2026-05-01T09:13:02.999Z</time></trkpt><trkpt lat="42.6948741019434" lon="9.346761354046247"><ele>43.0</ele><time>2026-05-01T09:13:03.999Z</time></trkpt><trkpt lat="42.69485461289675" lon="9.346410898088994"><ele>40.5</ele><time>2026-05-01T09:13:04.999Z</time></trkpt><trkpt lat="42.69484029074969" lon="9.346041278051036"><ele>38.0</ele><time>2026-05-01T09:13:05.999Z</time></trkpt><trkpt lat="42.69482707442536" lon="9.34565525197472"><ele>37.5</ele><time>2026-05-01T09:13:06.999Z</time></trkpt><trkpt lat="42.69480490145259" lon="9.345253421029932"><ele>37.0</ele><time>2026-05-01T09:13:07.999Z</time></trkpt><trkpt lat="42.69478010784902" lon="9.344836700916787"><ele>36.0</ele><time>2026-05-01T09:13:08.999Z</time></trkpt><trkpt lat="42.6947568537804" lon="9.34441723691395"><ele>35.0</ele><time>2026-05-01T09:13:09.999Z</time></trkpt><trkpt lat="42.694731870969406" lon="9.344002357302106"><ele>34.0</ele><time>2026-05-01T09:13:10.999Z</time></trkpt><trkpt lat="42.69470789802739" lon="9.34360466824012"><ele>33.0</ele><time>2026-05-01T09:13:11.999Z</time></trkpt><trkpt lat="42.69469284457385" lon="9.34321260704112"><ele>33.5</ele><time>2026-05-01T09:13:12.999Z</time></trkpt><trkpt lat="42.69466809999594" lon="9.3427758961283"><ele>34.0</ele><time>2026-05-01T09:13:13.999Z</time></trkpt><trkpt lat="42.69464403850542" lon="9.342365895739453"><ele>33.0</ele><time>2026-05-01T09:13:14.999Z</time></trkpt><trkpt lat="42.69462263840913" lon="9.341961691411093"><ele>32.0</ele><time>2026-05-01T09:13:15.999Z</time></trkpt><trkpt lat="42.69460617974098" lon="9.341554350708375"><ele>32.5</ele><time>2026-05-01T09:13:16.999Z</time></trkpt><trkpt lat="42.694580069588106" lon="9.341155978104782"><ele>33.0</ele><time>2026-05-01T09:13:17.999Z</time></trkpt><trkpt lat="42.69456261114861" lon="9.340756664619523"><ele>35.5</ele><time>2026-05-01T09:13:18.999Z</time></trkpt><trkpt lat="42.69453967039663" lon="9.340359623853345"><ele>38.0</ele><time>2026-05-01T09:13:19.999Z</time></trkpt><trkpt lat="42.69452338127517" lon="9.339958175262561"><ele>39.5</ele><time>2026-05-01T09:13:20.999Z</time></trkpt><trkpt lat="42.69449930170194" lon="9.339550829603626"><ele>41.0</ele><time>2026-05-01T09:13:21.999Z</time></trkpt><trkpt lat="42.69447862077972" lon="9.339135727248902"><ele>41.5</ele><time>2026-05-01T09:13:22.999Z</time></trkpt><trkpt lat="42.69446916792795" lon="9.338706838614884"><ele>42.0</ele><time>2026-05-01T09:13:23.999Z</time></trkpt><trkpt lat="42.69447118582941" lon="9.338245427125134"><ele>45.5</ele><time>2026-05-01T09:13:24.999Z</time></trkpt><trkpt lat="42.69447552625619" lon="9.33780711445701"><ele>49.0</ele><time>2026-05-01T09:13:25.999Z</time></trkpt><trkpt lat="42.694472933760125" lon="9.337360501825204"><ele>53.0</ele><time>2026-05-01T09:13:26.999Z</time></trkpt><trkpt lat="42.694464874931526" lon="9.336933969964862"><ele>57.0</ele><time>2026-05-01T09:13:27.999Z</time></trkpt><trkpt lat="42.69445977304098" lon="9.336537941731105"><ele>51.0</ele><time>2026-05-01T09:13:28.999Z</time></trkpt><trkpt lat="42.69446030413154" lon="9.336165929034928"><ele>45.0</ele><time>2026-05-01T09:13:29.999Z</time></trkpt><trkpt lat="42.694459583525465" lon="9.335814184778863"><ele>37.5</ele><time>2026-05-01T09:13:31Z</time></trkpt><trkpt lat="42.69446851825223" lon="9.33548933620748"><ele>30.0</ele><time>2026-05-01T09:13:32Z</time></trkpt><trkpt lat="42.69450564783897" lon="9.335185986612881"><ele>30.0</ele><time>2026-05-01T09:13:33Z</time></trkpt><trkpt lat="42.69457168853463" lon="9.334896930939511"><ele>30.0</ele><time>2026-05-01T09:13:34Z</time></trkpt><trkpt lat="42.69466643140503" lon="9.334626043767186"><ele>30.0</ele><time>2026-05-01T09:13:35Z</time></trkpt><trkpt lat="42.69479574510254" lon="9.334373966266122"><ele>24.0</ele><time>2026-05-01T09:13:36Z</time></trkpt><trkpt lat="42.69495920851553" lon="9.334103568728828"><ele>18.0</ele><time>2026-05-01T09:13:37Z</time></trkpt><trkpt lat="42.69512469885988" lon="9.333883386996423"><ele>23.0</ele><time>2026-05-01T09:13:38Z</time></trkpt><trkpt lat="42.69530110046407" lon="9.333662916149178"><ele>28.0</ele><time>2026-05-01T09:13:39Z</time></trkpt><trkpt lat="42.69545556773985" lon="9.333468153203944"><ele>28.0</ele><time>2026-05-01T09:13:40Z</time></trkpt><trkpt lat="42.69557624560689" lon="9.333281979965163"><ele>28.0</ele><time>2026-05-01T09:13:41Z</time></trkpt><trkpt lat="42.69564980900722" lon="9.333088640597161"><ele>28.0</ele><time>2026-05-01T09:13:42Z</time></trkpt><trkpt lat="42.69567912705249" lon="9.33288694848341"><ele>29.0</ele><time>2026-05-01T09:13:43Z</time></trkpt><trkpt lat="42.69567996910499" lon="9.33266541232475"><ele>30.0</ele><time>2026-05-01T09:13:44Z</time></trkpt><trkpt lat="42.69563009000886" lon="9.332452433799665"><ele>31.0</ele><time>2026-05-01T09:13:45Z</time></trkpt><trkpt lat="42.69555209941027" lon="9.332284728507107"><ele>32.0</ele><time>2026-05-01T09:13:46Z</time></trkpt><trkpt lat="42.695454174720226" lon="9.332129145679252"><ele>33.0</ele><time>2026-05-01T09:13:47Z</time></trkpt><trkpt lat="42.69534345926456" lon="9.331965202276354"><ele>34.0</ele><time>2026-05-01T09:13:48Z</time></trkpt><trkpt lat="42.69522846875422" lon="9.331797350885365"><ele>34.333333333333336</ele><time>2026-05-01T09:13:49Z</time></trkpt><trkpt lat="42.69511728576395" lon="9.331629225456648"><ele>34.666666666666664</ele><time>2026-05-01T09:13:50Z</time></trkpt><trkpt lat="42.695003905723475" lon="9.331469027186625"><ele>35.0</ele><time>2026-05-01T09:13:51Z</time></trkpt><trkpt lat="42.69490407590569" lon="9.331329039410598"><ele>35.0</ele><time>2026-05-01T09:13:52Z</time></trkpt><trkpt lat="42.694816610640295" lon="9.331198670268545"><ele>35.0</ele><time>2026-05-01T09:13:53Z</time></trkpt><trkpt lat="42.69471984574453" lon="9.331075353767892"><ele>35.0</ele><time>2026-05-01T09:13:54Z</time></trkpt><trkpt lat="42.694623694157336" lon="9.330928337313903"><ele>35.0</ele><time>2026-05-01T09:13:55Z</time></trkpt><trkpt lat="42.6945363077653" lon="9.330755363030214"><ele>35.0</ele><time>2026-05-01T09:13:56Z</time></trkpt><trkpt lat="42.69445684377517" lon="9.330566928607926"><ele>35.0</ele><time>2026-05-01T09:13:57Z</time></trkpt><trkpt lat="42.69438304602263" lon="9.330373475958702"><ele>35.0</ele><time>2026-05-01T09:13:58Z</time></trkpt><trkpt lat="42.69431266153404" lon="9.33018185813232"><ele>31.25</ele><time>2026-05-01T09:13:59Z</time></trkpt><trkpt lat="42.694240693448286" lon="9.330017041359527"><ele>27.5</ele><time>2026-05-01T09:14:00Z</time></trkpt><trkpt lat="42.69417105998956" lon="9.329853053835665"><ele>23.75</ele><time>2026-05-01T09:14:01Z</time></trkpt><trkpt lat="42.69410571546305" lon="9.32970659417701"><ele>20.0</ele><time>2026-05-01T09:14:02Z</time></trkpt><trkpt lat="42.694030614020114" lon="9.329563149611634"><ele>20.0</ele><time>2026-05-01T09:14:03Z</time></trkpt><trkpt lat="42.69395186783203" lon="9.329400086084725"><ele>20.0</ele><time>2026-05-01T09:14:04Z</time></trkpt><trkpt lat="42.69385267999422" lon="9.32924782567787"><ele>20.0</ele><time>2026-05-01T09:14:05Z</time></trkpt><trkpt lat="42.693741783018545" lon="9.329126298329669"><ele>20.0</ele><time>2026-05-01T09:14:06Z</time></trkpt><trkpt lat="42.693621842582345" lon="9.329024780309695"><ele>19.0</ele><time>2026-05-01T09:14:07Z</time></trkpt><trkpt lat="42.693495023383434" lon="9.328944082394319"><ele>18.0</ele><time>2026-05-01T09:14:08Z</time></trkpt><trkpt lat="42.693394336995695" lon="9.328864811159104"><ele>17.0</ele><time>2026-05-01T09:14:09Z</time></trkpt><trkpt lat="42.6933145391604" lon="9.328778655296166"><ele>16.0</ele><time>2026-05-01T09:14:10Z</time></trkpt><trkpt lat="42.69324233564524" lon="9.3286800213801"><ele>15.25</ele><time>2026-05-01T09:14:11Z</time></trkpt><trkpt lat="42.69319458141405" lon="9.32854586608987"><ele>14.5</ele><time>2026-05-01T09:14:12Z</time></trkpt><trkpt lat="42.69317832283501" lon="9.328380693535756"><ele>13.75</ele><time>2026-05-01T09:14:13Z</time></trkpt><trkpt lat="42.69317603369697" lon="9.32819557660304"><ele>13.0</ele><time>2026-05-01T09:14:14Z</time></trkpt><trkpt lat="42.693184922899384" lon="9.32800214541651"><ele>12.5</ele><time>2026-05-01T09:14:15Z</time></trkpt><trkpt lat="42.693210606611416" lon="9.327813621809696"><ele>12.0</ele><time>2026-05-01T09:14:16Z</time></trkpt><trkpt lat="42.69325205144395" lon="9.32765273287158"><ele>11.5</ele><time>2026-05-01T09:14:17Z</time></trkpt><trkpt lat="42.69328635938021" lon="9.327481007849922"><ele>11.0</ele><time>2026-05-01T09:14:18Z</time></trkpt><trkpt lat="42.693292503151255" lon="9.32730170323798"><ele>10.75</ele><time>2026-05-01T09:14:19Z</time></trkpt><trkpt lat="42.69326682277397" lon="9.327118035270233"><ele>10.5</ele><time>2026-05-01T09:14:20Z</time></trkpt><trkpt lat="42.693237771189914" lon="9.32692754342999"><ele>10.25</ele><time>2026-05-01T09:14:21Z</time></trkpt><trkpt lat="42.693210371045275" lon="9.326718500968454"><ele>10.0</ele><time>2026-05-01T09:14:22Z</time></trkpt><trkpt lat="42.69318746553926" lon="9.326489589493095"><ele>9.333333333333334</ele><time>2026-05-01T09:14:23Z</time></trkpt><trkpt lat="42.69316050198143" lon="9.326261550771214"><ele>8.666666666666666</ele><time>2026-05-01T09:14:24Z</time></trkpt><trkpt lat="42.69314234059965" lon="9.326045118683977"><ele>8.0</ele><time>2026-05-01T09:14:25Z</time></trkpt><trkpt lat="42.693131847712486" lon="9.32585376833734"><ele>8.0</ele><time>2026-05-01T09:14:26Z</time></trkpt><trkpt lat="42.693144119611325" lon="9.325677290658383"><ele>8.0</ele><time>2026-05-01T09:14:27Z</time></trkpt><trkpt lat="42.69317839620092" lon="9.32551173281013"><ele>8.0</ele><time>2026-05-01T09:14:28Z</time></trkpt><trkpt lat="42.693213397906725" lon="9.325374994156391"><ele>8.0</ele><time>2026-05-01T09:14:29Z</time></trkpt><trkpt lat="42.69323844086607" lon="9.325259702217625"><ele>8.200000000000001</ele><time>2026-05-01T09:14:30Z</time></trkpt><trkpt lat="42.69325436446471" lon="9.325148321376366"><ele>8.4</ele><time>2026-05-01T09:14:31Z</time></trkpt><trkpt lat="42.693266676102084" lon="9.325027932722765"><ele>8.600000000000001</ele><time>2026-05-01T09:14:32Z</time></trkpt><trkpt lat="42.69328251058323" lon="9.324871077927389"><ele>8.8</ele><time>2026-05-01T09:14:33Z</time></trkpt><trkpt lat="42.69329149004904" lon="9.324735276039528"><ele>9.0</ele><time>2026-05-01T09:14:34Z</time></trkpt><trkpt lat="42.69329059060116" lon="9.324602890626842"><ele>8.5</ele><time>2026-05-01T09:14:35Z</time></trkpt><trkpt lat="42.69328301068384" lon="9.324456551097253"><ele>8.0</ele><time>2026-05-01T09:14:36Z</time></trkpt><trkpt lat="42.69326296718977" lon="9.32431802987088"><ele>7.5</ele><time>2026-05-01T09:14:37Z</time></trkpt><trkpt lat="42.693225772649356" lon="9.324168534699025"><ele>7.0</ele><time>2026-05-01T09:14:38Z</time></trkpt><trkpt lat="42.69317826713046" lon="9.324006812123837"><ele>6.666666666666667</ele><time>2026-05-01T09:14:39Z</time></trkpt><trkpt lat="42.69312111418283" lon="9.32382323139914"><ele>6.333333333333334</ele><time>2026-05-01T09:14:40Z</time></trkpt><trkpt lat="42.69305903216665" lon="9.323639731167699"><ele>6.0</ele><time>2026-05-01T09:14:41Z</time></trkpt><trkpt lat="42.692973332171555" lon="9.323440543433783"><ele>6.0</ele><time>2026-05-01T09:14:42Z</time></trkpt><trkpt lat="42.692870799180945" lon="9.323214411136783"><ele>6.0</ele><time>2026-05-01T09:14:43Z</time></trkpt><trkpt lat="42.692766101954675" lon="9.322958948058249"><ele>6.0</ele><time>2026-05-01T09:14:44Z</time></trkpt><trkpt lat="42.692674475527284" lon="9.322735328989708"><ele>7.25</ele><time>2026-05-01T09:14:45Z</time></trkpt><trkpt lat="42.69258580714652" lon="9.322559376916022"><ele>8.5</ele><time>2026-05-01T09:14:46Z</time></trkpt><trkpt lat="42.69250855879367" lon="9.322382182399883"><ele>9.75</ele><time>2026-05-01T09:14:47Z</time></trkpt><trkpt lat="42.692438393744766" lon="9.322233635807809"><ele>11.0</ele><time>2026-05-01T09:14:48Z</time></trkpt><trkpt lat="42.69239031091522" lon="9.322107435648533"><ele>11.0</ele><time>2026-05-01T09:14:49Z</time></trkpt><trkpt lat="42.69234917867005" lon="9.321996302988865"><ele>11.0</ele><time>2026-05-01T09:14:50Z</time></trkpt><trkpt lat="42.69233265229115" lon="9.321880236880684"><ele>11.0</ele><time>2026-05-01T09:14:51Z</time></trkpt><trkpt lat="42.692295714169326" lon="9.321783704054187"><ele>11.0</ele><time>2026-05-01T09:14:52Z</time></trkpt><trkpt lat="42.69220853635537" lon="9.321696279388794"><ele>11.0</ele><time>2026-05-01T09:14:53Z</time></trkpt><trkpt lat="42.69211548885655" lon="9.321579942597399"><ele>11.0</ele><time>2026-05-01T09:14:54Z</time></trkpt><trkpt lat="42.692026913865604" lon="9.3213998624412"><ele>11.0</ele><time>2026-05-01T09:14:55Z</time></trkpt><trkpt lat="42.69194230204861" lon="9.321223595069094"><ele>11.0</ele><time>2026-05-01T09:14:56Z</time></trkpt><trkpt lat="42.69186121192899" lon="9.321059593530553"><ele>11.666666666666666</ele><time>2026-05-01T09:14:57Z</time></trkpt><trkpt lat="42.691779814498446" lon="9.320900240552284"><ele>12.333333333333332</ele><time>2026-05-01T09:14:58Z</time></trkpt><trkpt lat="42.69169350830448" lon="9.320720415124896"><ele>13.0</ele><time>2026-05-01T09:14:59Z</time></trkpt><trkpt lat="42.69160610299927" lon="9.320529812826239"><ele>13.0</ele><time>2026-05-01T09:15:00Z</time></trkpt><trkpt lat="42.69151454363456" lon="9.320344817498638"><ele>13.0</ele><time>2026-05-01T09:15:01Z</time></trkpt><trkpt lat="42.691422504630886" lon="9.320163936489717"><ele>13.0</ele><time>2026-05-01T09:15:02Z</time></trkpt><trkpt lat="42.69134641938694" lon="9.319993197424823"><ele>13.0</ele><time>2026-05-01T09:15:03Z</time></trkpt><trkpt lat="42.69127299705235" lon="9.319835286255355"><ele>13.0</ele><time>2026-05-01T09:15:04Z</time></trkpt><trkpt lat="42.691195052710576" lon="9.319694613006936"><ele>13.0</ele><time>2026-05-01T09:15:05Z</time></trkpt><trkpt lat="42.691121982139066" lon="9.319542029751549"><ele>13.0</ele><time>2026-05-01T09:15:06Z</time></trkpt><trkpt lat="42.69105109551435" lon="9.319391346199764"><ele>12.75</ele><time>2026-05-01T09:15:07Z</time></trkpt><trkpt lat="42.690978457266006" lon="9.319230518648084"><ele>12.5</ele><time>2026-05-01T09:15:08Z</time></trkpt><trkpt lat="42.69090146639588" lon="9.319066968357944"><ele>12.25</ele><time>2026-05-01T09:15:09Z</time></trkpt><trkpt lat="42.690825217137665" lon="9.318900638780686"><ele>12.0</ele><time>2026-05-01T09:15:10Z</time></trkpt><trkpt lat="42.69075203381159" lon="9.318728143011608"><ele>11.0</ele><time>2026-05-01T09:15:11Z</time></trkpt><trkpt lat="42.690671983029375" lon="9.318559761187066"><ele>10.0</ele><time>2026-05-01T09:15:12Z</time></trkpt><trkpt lat="42.69059335409782" lon="9.318383646613563"><ele>9.0</ele><time>2026-05-01T09:15:13Z</time></trkpt><trkpt lat="42.690500591819045" lon="9.318232132494028"><ele>8.0</ele><time>2026-05-01T09:15:13.999Z</time></trkpt><trkpt lat="42.69041531666023" lon="9.318078298139461"><ele>7.75</ele><time>2026-05-01T09:15:14.999Z</time></trkpt><trkpt lat="42.69034198680224" lon="9.317920783262638"><ele>7.5</ele><time>2026-05-01T09:15:15.999Z</time></trkpt><trkpt lat="42.69026980433492" lon="9.317769403119767"><ele>7.25</ele><time>2026-05-01T09:15:16.999Z</time></trkpt><trkpt lat="42.69020402138559" lon="9.317630591080736"><ele>7.0</ele><time>2026-05-01T09:15:17.999Z</time></trkpt><trkpt lat="42.69013795177595" lon="9.317496903424225"><ele>7.0</ele><time>2026-05-01T09:15:18.999Z</time></trkpt><trkpt lat="42.690075255110116" lon="9.317359758297"><ele>7.0</ele><time>2026-05-01T09:15:19.999Z</time></trkpt><trkpt lat="42.6900124566187" lon="9.317230356294365"><ele>7.0</ele><time>2026-05-01T09:15:20.999Z</time></trkpt><trkpt lat="42.68994221728914" lon="9.317083078880056"><ele>7.0</ele><time>2026-05-01T09:15:21.999Z</time></trkpt><trkpt lat="42.68987308620442" lon="9.3169463184003"><ele>6.5</ele><time>2026-05-01T09:15:22.999Z</time></trkpt><trkpt lat="42.68980229876661" lon="9.316809097075687"><ele>6.0</ele><time>2026-05-01T09:15:23.999Z</time></trkpt><trkpt lat="42.68973013995926" lon="9.316664313475211"><ele>5.5</ele><time>2026-05-01T09:15:24.999Z</time></trkpt><trkpt lat="42.68966382182518" lon="9.316524585251662"><ele>5.0</ele><time>2026-05-01T09:15:25.999Z</time></trkpt><trkpt lat="42.689593990556894" lon="9.316392023146273"><ele>4.5</ele><time>2026-05-01T09:15:26.999Z</time></trkpt><trkpt lat="42.68952144964434" lon="9.316240909229135"><ele>4.0</ele><time>2026-05-01T09:15:27.999Z</time></trkpt><trkpt lat="42.689444871995505" lon="9.316080511130018"><ele>3.5</ele><time>2026-05-01T09:15:28.999Z</time></trkpt><trkpt lat="42.68936525037212" lon="9.31591395089627"><ele>3.0</ele><time>2026-05-01T09:15:29.999Z</time></trkpt><trkpt lat="42.68928307118533" lon="9.315754388441068"><ele>3.0</ele><time>2026-05-01T09:15:30.999Z</time></trkpt><trkpt lat="42.68920637909862" lon="9.315591733970088"><ele>3.0</ele><time>2026-05-01T09:15:31.999Z</time></trkpt><trkpt lat="42.689127635121224" lon="9.315439154128466"><ele>3.0</ele><time>2026-05-01T09:15:32.999Z</time></trkpt><trkpt lat="42.68905291028761" lon="9.315285088373153"><ele>3.0</ele><time>2026-05-01T09:15:33.999Z</time></trkpt><trkpt lat="42.68897990306249" lon="9.315132192920245"><ele>2.75</ele><time>2026-05-01T09:15:34.999Z</time></trkpt><trkpt lat="42.68890592770481" lon="9.31499066871334"><ele>2.5</ele><time>2026-05-01T09:15:35.999Z</time></trkpt><trkpt lat="42.688836909592645" lon="9.314857620787054"><ele>2.25</ele><time>2026-05-01T09:15:37Z</time></trkpt><trkpt lat="42.68877407054604" lon="9.314730522622709"><ele>2.0</ele><time>2026-05-01T09:15:38Z</time></trkpt><trkpt lat="42.68871827887461" lon="9.314607810384963"><ele>2.0</ele><time>2026-05-01T09:15:39Z</time></trkpt><trkpt lat="42.688661150331356" lon="9.314475251547265"><ele>2.0</ele><time>2026-05-01T09:15:40Z</time></trkpt><trkpt lat="42.68859029626845" lon="9.314346382544333"><ele>2.0</ele><time>2026-05-01T09:15:41Z</time></trkpt><trkpt lat="42.6885275304298" lon="9.314210792153233"><ele>2.0</ele><time>2026-05-01T09:15:42Z</time></trkpt><trkpt lat="42.68846828016694" lon="9.314085840945056"><ele>2.0</ele><time>2026-05-01T09:15:43Z</time></trkpt><trkpt lat="42.68841208675652" lon="9.313968180758819"><ele>2.0</ele><time>2026-05-01T09:15:44Z</time></trkpt><trkpt lat="42.68836275594664" lon="9.313851584229372"><ele>2.0</ele><time>2026-05-01T09:15:45Z</time></trkpt><trkpt lat="42.68831150897212" lon="9.31373847855746"><ele>2.0</ele><time>2026-05-01T09:15:46Z</time></trkpt><trkpt lat="42.688265714775284" lon="9.313621348722684"><ele>2.0</ele><time>2026-05-01T09:15:47Z</time></trkpt><trkpt lat="42.68822164783069" lon="9.313502889660324"><ele>2.2</ele><time>2026-05-01T09:15:48Z</time></trkpt><trkpt lat="42.6881692522073" lon="9.31340882831604"><ele>2.4000000000000004</ele><time>2026-05-01T09:15:49Z</time></trkpt><trkpt lat="42.688111489917624" lon="9.313332867478028"><ele>2.5999999999999996</ele><time>2026-05-01T09:15:50Z</time></trkpt><trkpt lat="42.6880676540822" lon="9.313261187213502"><ele>2.8</ele><time>2026-05-01T09:15:51Z</time></trkpt><trkpt lat="42.68798869547197" lon="9.313104126569199"><ele>3.0</ele><time>2026-05-01T09:15:53Z</time></trkpt><trkpt lat="42.68794128045793" lon="9.313010703122663"><ele>2.8</ele><time>2026-05-01T09:15:54Z</time></trkpt><trkpt lat="42.68788765006163" lon="9.312899051376018"><ele>2.5999999999999996</ele><time>2026-05-01T09:15:55Z</time></trkpt><trkpt lat="42.687834035328905" lon="9.312783331563937"><ele>2.4000000000000004</ele><time>2026-05-01T09:15:56Z</time></trkpt><trkpt lat="42.68777426845779" lon="9.312673087288276"><ele>2.2</ele><time>2026-05-01T09:15:57Z</time></trkpt><trkpt lat="42.687715765443166" lon="9.312552069105415"><ele>2.0</ele><time>2026-05-01T09:15:58Z</time></trkpt><trkpt lat="42.687665708688726" lon="9.312424031205458"><ele>2.0</ele><time>2026-05-01T09:15:59Z</time></trkpt><trkpt lat="42.68760774457288" lon="9.312303277457492"><ele>2.0</ele><time>2026-05-01T09:16:00Z</time></trkpt><trkpt lat="42.687545902391115" lon="9.312183992131574"><ele>2.0</ele><time>2026-05-01T09:16:01Z</time></trkpt><trkpt lat="42.68748727300206" lon="9.312056366998442"><ele>2.0</ele><time>2026-05-01T09:16:02Z</time></trkpt><trkpt lat="42.68742244502243" lon="9.311920330551311"><ele>2.0</ele><time>2026-05-01T09:16:03Z</time></trkpt><trkpt lat="42.68735713246146" lon="9.311784656186413"><ele>1.75</ele><time>2026-05-01T09:16:04Z</time></trkpt><trkpt lat="42.68728286736187" lon="9.311634424103064"><ele>1.5</ele><time>2026-05-01T09:16:05Z</time></trkpt><trkpt lat="42.687202144140336" lon="9.311479033443657"><ele>1.25</ele><time>2026-05-01T09:16:06Z</time></trkpt><trkpt lat="42.68712130762618" lon="9.311312214657987"><ele>1.0</ele><time>2026-05-01T09:16:07Z</time></trkpt><trkpt lat="42.6870397613867" lon="9.311145940195455"><ele>1.0</ele><time>2026-05-01T09:16:08Z</time></trkpt><trkpt lat="42.6869566510807" lon="9.310980097648105"><ele>1.0</ele><time>2026-05-01T09:16:09Z</time></trkpt><trkpt lat="42.68686574018697" lon="9.31078655410927"><ele>1.0</ele><time>2026-05-01T09:16:10Z</time></trkpt><trkpt lat="42.6867788126635" lon="9.310608969866891"><ele>1.0</ele><time>2026-05-01T09:16:11Z</time></trkpt><trkpt lat="42.68669585712043" lon="9.310417639713991"><ele>1.0</ele><time>2026-05-01T09:16:12Z</time></trkpt><trkpt lat="42.68660362132012" lon="9.310233133149666"><ele>1.0</ele><time>2026-05-01T09:16:13Z</time></trkpt><trkpt lat="42.68652143156445" lon="9.310067345143493"><ele>1.0</ele><time>2026-05-01T09:16:14Z</time></trkpt><trkpt lat="42.68645144601564" lon="9.309911597967282"><ele>1.0</ele><time>2026-05-01T09:16:15Z</time></trkpt><trkpt lat="42.68638349818578" lon="9.309777215136217"><ele>1.0</ele><time>2026-05-01T09:16:16Z</time></trkpt><trkpt lat="42.6863224100818" lon="9.30966032006965"><ele>1.0</ele><time>2026-05-01T09:16:17Z</time></trkpt><trkpt lat="42.686270001589506" lon="9.309550438006143"><ele>0.75</ele><time>2026-05-01T09:16:18Z</time></trkpt><trkpt lat="42.6862131884073" lon="9.309422901538039"><ele>0.5</ele><time>2026-05-01T09:16:19Z</time></trkpt><trkpt lat="42.68615673577143" lon="9.309298135287934"><ele>0.25</ele><time>2026-05-01T09:16:20Z</time></trkpt><trkpt lat="42.68609312607047" lon="9.309165621045906"><ele>0.0</ele><time>2026-05-01T09:16:21Z</time></trkpt><trkpt lat="42.68602597187616" lon="9.309031815898008"><ele>0.5</ele><time>2026-05-01T09:16:22Z</time></trkpt><trkpt lat="42.68596232687711" lon="9.308888293026005"><ele>1.0</ele><time>2026-05-01T09:16:23Z</time></trkpt><trkpt lat="42.685892871314216" lon="9.308748304841615"><ele>1.5</ele><time>2026-05-01T09:16:24Z</time></trkpt><trkpt lat="42.685821126897835" lon="9.308603617068192"><ele>2.0</ele><time>2026-05-01T09:16:25Z</time></trkpt><trkpt lat="42.68574819710086" lon="9.30845420697264"><ele>2.0</ele><time>2026-05-01T09:16:26Z</time></trkpt><trkpt lat="42.6856709405834" lon="9.308292700691045"><ele>2.0</ele><time>2026-05-01T09:16:27Z</time></trkpt><trkpt lat="42.68558569586473" lon="9.308117706049048"><ele>2.0</ele><time>2026-05-01T09:16:28Z</time></trkpt><trkpt lat="42.68549799073047" lon="9.307941742996444"><ele>2.0</ele><time>2026-05-01T09:16:29Z</time></trkpt><trkpt lat="42.68540797386603" lon="9.307757772232433"><ele>2.0</ele><time>2026-05-01T09:16:30Z</time></trkpt><trkpt lat="42.685314994918826" lon="9.307581242564114"><ele>2.0</ele><time>2026-05-01T09:16:31Z</time></trkpt><trkpt lat="42.68521179533473" lon="9.307407007243325"><ele>3.0</ele><time>2026-05-01T09:16:32Z</time></trkpt><trkpt lat="42.6850985895748" lon="9.307246341543813"><ele>4.0</ele><time>2026-05-01T09:16:33Z</time></trkpt><trkpt lat="42.68498128541638" lon="9.307090067843069"><ele>5.0</ele><time>2026-05-01T09:16:34Z</time></trkpt><trkpt lat="42.68487256418242" lon="9.306953124694525"><ele>5.0</ele><time>2026-05-01T09:16:35Z</time></trkpt><trkpt lat="42.68477264121578" lon="9.306830011072725"><ele>5.0</ele><time>2026-05-01T09:16:36Z</time></trkpt><trkpt lat="42.68467496621378" lon="9.306706505165362"><ele>5.0</ele><time>2026-05-01T09:16:37Z</time></trkpt><trkpt lat="42.684579022445476" lon="9.306586561908903"><ele>5.0</ele><time>2026-05-01T09:16:38Z</time></trkpt><trkpt lat="42.684482163802215" lon="9.30646102694705"><ele>6.75</ele><time>2026-05-01T09:16:39Z</time></trkpt><trkpt lat="42.68438887789482" lon="9.30633388054508"><ele>8.5</ele><time>2026-05-01T09:16:40Z</time></trkpt><trkpt lat="42.684293540046625" lon="9.306200039239501"><ele>10.25</ele><time>2026-05-01T09:16:41Z</time></trkpt><trkpt lat="42.68419741685151" lon="9.306057423341061"><ele>12.0</ele><time>2026-05-01T09:16:42Z</time></trkpt><trkpt lat="42.684093179874544" lon="9.30591207640137"><ele>12.0</ele><time>2026-05-01T09:16:43Z</time></trkpt><trkpt lat="42.68397940049349" lon="9.30578034207223"><ele>12.0</ele><time>2026-05-01T09:16:44Z</time></trkpt><trkpt lat="42.68386605550992" lon="9.305653946292518"><ele>12.0</ele><time>2026-05-01T09:16:45Z</time></trkpt><trkpt lat="42.68376575401456" lon="9.305523698849386"><ele>12.0</ele><time>2026-05-01T09:16:46Z</time></trkpt><trkpt lat="42.68358387782319" lon="9.305530966161006"><ele>12.8</ele><time>2026-05-01T09:16:47Z</time></trkpt><trkpt lat="42.68345268682659" lon="9.305491516237947"><ele>13.6</ele><time>2026-05-01T09:16:48Z</time></trkpt><trkpt lat="42.68334063476586" lon="9.30547085026316"><ele>14.400000000000002</ele><time>2026-05-01T09:16:49Z</time></trkpt><trkpt lat="42.6832401448318" lon="9.305449314015142"><ele>15.200000000000001</ele><time>2026-05-01T09:16:50Z</time></trkpt><trkpt lat="42.683153672578676" lon="9.305426547729228"><ele>16.0</ele><time>2026-05-01T09:16:51Z</time></trkpt><trkpt lat="42.683074113985754" lon="9.305404862619339"><ele>16.0</ele><time>2026-05-01T09:16:52Z</time></trkpt><trkpt lat="42.68298566598723" lon="9.305374062872678"><ele>16.0</ele><time>2026-05-01T09:16:53Z</time></trkpt><trkpt lat="42.68288827140065" lon="9.305344522640317"><ele>16.0</ele><time>2026-05-01T09:16:54Z</time></trkpt><trkpt lat="42.68278937728434" lon="9.30530690293067"><ele>16.0</ele><time>2026-05-01T09:16:55Z</time></trkpt><trkpt lat="42.68270371655892" lon="9.30525509371835"><ele>16.0</ele><time>2026-05-01T09:16:56Z</time></trkpt><trkpt lat="42.68262057911013" lon="9.3051862936212"><ele>16.0</ele><time>2026-05-01T09:16:57Z</time></trkpt><trkpt lat="42.682539429925654" lon="9.305104827098232"><ele>16.0</ele><time>2026-05-01T09:16:58Z</time></trkpt><trkpt lat="42.68246294778195" lon="9.305003764504706"><ele>16.0</ele><time>2026-05-01T09:16:59Z</time></trkpt><trkpt lat="42.68240066753444" lon="9.304894890472834"><ele>16.0</ele><time>2026-05-01T09:17:00Z</time></trkpt><trkpt lat="42.682330156726614" lon="9.304804146201715"><ele>16.0</ele><time>2026-05-01T09:17:01Z</time></trkpt><trkpt lat="42.68226798818259" lon="9.304707447564208"><ele>16.0</ele><time>2026-05-01T09:17:02Z</time></trkpt><trkpt lat="42.68220346533729" lon="9.304612226779803"><ele>16.0</ele><time>2026-05-01T09:17:03Z</time></trkpt><trkpt lat="42.68214093005139" lon="9.304520798417421"><ele>16.0</ele><time>2026-05-01T09:17:04Z</time></trkpt><trkpt lat="42.68207011094679" lon="9.304441030130555"><ele>16.0</ele><time>2026-05-01T09:17:05Z</time></trkpt><trkpt lat="42.68200434710693" lon="9.30435486776767"><ele>16.0</ele><time>2026-05-01T09:17:06Z</time></trkpt><trkpt lat="42.6819456642051" lon="9.304275490366436"><ele>14.666666666666666</ele><time>2026-05-01T09:17:07Z</time></trkpt><trkpt lat="42.68189266838742" lon="9.304186842710296"><ele>13.333333333333332</ele><time>2026-05-01T09:17:08Z</time></trkpt><trkpt lat="42.68183546414028" lon="9.304101750202793"><ele>12.0</ele><time>2026-05-01T09:17:09Z</time></trkpt><trkpt lat="42.681779699397055" lon="9.304017919193848"><ele>10.666666666666666</ele><time>2026-05-01T09:17:10Z</time></trkpt><trkpt lat="42.681724921204484" lon="9.303935389015654"><ele>9.333333333333332</ele><time>2026-05-01T09:17:11Z</time></trkpt><trkpt lat="42.6816751824897" lon="9.303855353288588"><ele>8.0</ele><time>2026-05-01T09:17:12Z</time></trkpt><trkpt lat="42.68161462840747" lon="9.303785928151314"><ele>7.999999999999999</ele><time>2026-05-01T09:17:13Z</time></trkpt><trkpt lat="42.68155906945014" lon="9.303719447381235"><ele>8.0</ele><time>2026-05-01T09:17:14Z</time></trkpt><trkpt lat="42.68151960781488" lon="9.303635340027201"><ele>8.0</ele><time>2026-05-01T09:17:15Z</time></trkpt><trkpt lat="42.68146189696643" lon="9.303571552929663"><ele>8.0</ele><time>2026-05-01T09:17:16Z</time></trkpt><trkpt lat="42.681402143549086" lon="9.303471144102474"><ele>7.999999999999999</ele><time>2026-05-01T09:17:24Z</time></trkpt><trkpt lat="42.68131218455497" lon="9.303354309042662"><ele>8.0</ele><time>2026-05-01T09:17:26Z</time></trkpt><trkpt lat="42.68126026841053" lon="9.303281333448178"><ele>8.0</ele><time>2026-05-01T09:17:27Z</time></trkpt><trkpt lat="42.681209431705874" lon="9.303206651870394"><ele>8.0</ele><time>2026-05-01T09:17:28Z</time></trkpt><trkpt lat="42.681120025997906" lon="9.303105150734387"><ele>8.0</ele><time>2026-05-01T09:17:30Z</time></trkpt><trkpt lat="42.68102281459752" lon="9.303014179813667"><ele>8.0</ele><time>2026-05-01T09:17:32Z</time></trkpt><trkpt lat="42.680957971194985" lon="9.302955898452865"><ele>8.0</ele><time>2026-05-01T09:17:33Z</time></trkpt><trkpt lat="42.68089274039794" lon="9.302892340632132"><ele>7.833333333333333</ele><time>2026-05-01T09:17:34Z</time></trkpt><trkpt lat="42.68082952001051" lon="9.302824634518508"><ele>7.666666666666666</ele><time>2026-05-01T09:17:35Z</time></trkpt><trkpt lat="42.68076250603889" lon="9.302764551332519"><ele>7.5</ele><time>2026-05-01T09:17:36Z</time></trkpt><trkpt lat="42.68070553186912" lon="9.302711033717536"><ele>7.333333333333334</ele><time>2026-05-01T09:17:37Z</time></trkpt><trkpt lat="42.68066372380085" lon="9.30262844657734"><ele>7.166666666666667</ele><time>2026-05-01T09:17:39Z</time></trkpt><trkpt lat="42.68061026201257" lon="9.302572371934673"><ele>7.0</ele><time>2026-05-01T09:17:42Z</time></trkpt><trkpt lat="42.68058788393531" lon="9.3024429771875"><ele>7.0</ele><time>2026-05-01T09:17:44Z</time></trkpt><trkpt lat="42.68054206274827" lon="9.30235434650776"><ele>7.0</ele><time>2026-05-01T09:17:53Z</time></trkpt><trkpt lat="42.68050812536726" lon="9.302267431230897"><ele>7.0</ele><time>2026-05-01T09:17:57Z</time></trkpt><trkpt lat="42.68044566530789" lon="9.302212442469042"><ele>9.0</ele><time>2026-05-01T09:17:59Z</time></trkpt><trkpt lat="42.68037948503837" lon="9.302143159732292"><ele>9.0</ele><time>2026-05-01T09:18:01Z</time></trkpt></trkseg><trkseg><trkpt lat="42.68025247925976" lon="9.302155173191974"><ele>1.0</ele><time>2026-05-01T09:42:27Z</time></trkpt><trkpt lat="42.68020490700549" lon="9.302081635499798"><ele>1.0</ele><time>2026-05-01T09:42:29Z</time></trkpt><trkpt lat="42.680202080576464" lon="9.301972396489335"><ele>1.0</ele><time>2026-05-01T09:42:31Z</time></trkpt><trkpt lat="42.68020365873655" lon="9.301736216901444"><ele>1.0</ele><time>2026-05-01T09:42:35Z</time></trkpt><trkpt lat="42.68021485348611" lon="9.30162169697928"><ele>1.0</ele><time>2026-05-01T09:42:37Z</time></trkpt><trkpt lat="42.680212488570476" lon="9.301503131565063"><ele>0.8333333333333333</ele><time>2026-05-01T09:42:39Z</time></trkpt><trkpt lat="42.68016417791887" lon="9.301402209693745"><ele>0.6666666666666666</ele><time>2026-05-01T09:42:41Z</time></trkpt><trkpt lat="42.68008842537626" lon="9.301340921728299"><ele>0.5</ele><time>2026-05-01T09:42:43Z</time></trkpt><trkpt lat="42.680028257522665" lon="9.301307994357119"><ele>0.3333333333333333</ele><time>2026-05-01T09:42:45Z</time></trkpt><trkpt lat="42.67995424335302" lon="9.301268125518911"><ele>0.16666666666666666</ele><time>2026-05-01T09:42:47Z</time></trkpt><trkpt lat="42.67984708830128" lon="9.301248889570505"><ele>0.0</ele><time>2026-05-01T09:42:49Z</time></trkpt><trkpt lat="42.67974860110598" lon="9.301224592595135"><ele>0.0</ele><time>2026-05-01T09:42:51Z</time></trkpt><trkpt lat="42.67965235295268" lon="9.30124053454093"><ele>0.0</ele><time>2026-05-01T09:42:53Z</time></trkpt><trkpt lat="42.679611349842006" lon="9.301514431287183"><ele>0.0</ele><time>2026-05-01T09:42:56.999Z</time></trkpt><trkpt lat="42.67959834843504" lon="9.301658022132564"><ele>0.0</ele><time>2026-05-01T09:42:58.999Z</time></trkpt><trkpt lat="42.679595334536295" lon="9.30180207459733"><ele>0.2</ele><time>2026-05-01T09:43:00.999Z</time></trkpt><trkpt lat="42.67957883946674" lon="9.301944566984535"><ele>0.4</ele><time>2026-05-01T09:43:02.999Z</time></trkpt><trkpt lat="42.67956085086453" lon="9.302069051391573"><ele>0.6000000000000001</ele><time>2026-05-01T09:43:04.999Z</time></trkpt><trkpt lat="42.67956233206736" lon="9.302200408180322"><ele>0.8</ele><time>2026-05-01T09:43:06.999Z</time></trkpt><trkpt lat="42.67952723201025" lon="9.302347950546787"><ele>1.0</ele><time>2026-05-01T09:43:08.999Z</time></trkpt><trkpt lat="42.679459665532846" lon="9.302419453131382"><ele>0.25</ele><time>2026-05-01T09:43:10.999Z</time></trkpt><trkpt lat="42.679358718413695" lon="9.302425606176783"><ele>-0.5</ele><time>2026-05-01T09:43:12.999Z</time></trkpt><trkpt lat="42.67924853346305" lon="9.302452458786389"><ele>-1.25</ele><time>2026-05-01T09:43:14.999Z</time></trkpt><trkpt lat="42.67907960291743" lon="9.302491583232193"><ele>-2.0</ele><time>2026-05-01T09:43:18.999Z</time></trkpt><trkpt lat="42.67899035591272" lon="9.302502163928658"><ele>-2.0</ele><time>2026-05-01T09:43:20.999Z</time></trkpt><trkpt lat="42.67888927870008" lon="9.302527164683456"><ele>-2.0</ele><time>2026-05-01T09:43:22.999Z</time></trkpt><trkpt lat="42.678781123921695" lon="9.302547935989208"><ele>-2.0</ele><time>2026-05-01T09:43:24.999Z</time></trkpt><trkpt lat="42.67865987722396" lon="9.302571319953977"><ele>-2.0</ele><time>2026-05-01T09:43:26.999Z</time></trkpt><trkpt lat="42.678573054527114" lon="9.302569625387056"><ele>-2.0</ele><time>2026-05-01T09:43:27.999Z</time></trkpt><trkpt lat="42.67846236052325" lon="9.302607253804446"><ele>-1.4999999999999998</ele><time>2026-05-01T09:43:29.999Z</time></trkpt><trkpt lat="42.67839593258559" lon="9.302616771577583"><ele>-1.0</ele><time>2026-05-01T09:43:30.999Z</time></trkpt><trkpt lat="42.67827179231508" lon="9.302642667207003"><ele>-0.5</ele><time>2026-05-01T09:43:32.999Z</time></trkpt><trkpt lat="42.67820591223832" lon="9.302652985682391"><ele>0.0</ele><time>2026-05-01T09:43:33.999Z</time></trkpt><trkpt lat="42.67813529794883" lon="9.302660096162237"><ele>0.49999999999999994</ele><time>2026-05-01T09:43:34.999Z</time></trkpt><trkpt lat="42.678068110084546" lon="9.302671145871258"><ele>1.0</ele><time>2026-05-01T09:43:35.999Z</time></trkpt><trkpt lat="42.67792675485076" lon="9.302698451813319"><ele>1.0</ele><time>2026-05-01T09:43:37.999Z</time></trkpt><trkpt lat="42.67785589402582" lon="9.302713665802239"><ele>0.9999999999999999</ele><time>2026-05-01T09:43:38.999Z</time></trkpt><trkpt lat="42.67778341641203" lon="9.302725376010239"><ele>1.0</ele><time>2026-05-01T09:43:39.999Z</time></trkpt><trkpt lat="42.67770761743806" lon="9.302737424084029"><ele>1.0</ele><time>2026-05-01T09:43:40.999Z</time></trkpt><trkpt lat="42.677637441830626" lon="9.302748077361958"><ele>0.9999999999999999</ele><time>2026-05-01T09:43:41.999Z</time></trkpt><trkpt lat="42.677561678989555" lon="9.302763158898275"><ele>1.0</ele><time>2026-05-01T09:43:42.999Z</time></trkpt><trkpt lat="42.677481534597014" lon="9.30278129497139"><ele>1.0</ele><time>2026-05-01T09:43:43.999Z</time></trkpt><trkpt lat="42.677409062851524" lon="9.302790136800603"><ele>1.1666666666666665</ele><time>2026-05-01T09:43:44.999Z</time></trkpt><trkpt lat="42.67733387188896" lon="9.302802702531176"><ele>1.3333333333333333</ele><time>2026-05-01T09:43:45.999Z</time></trkpt><trkpt lat="42.677257484947106" lon="9.30281535441146"><ele>1.5</ele><time>2026-05-01T09:43:46.999Z</time></trkpt><trkpt lat="42.677182484314464" lon="9.30282429569659"><ele>1.6666666666666665</ele><time>2026-05-01T09:43:47.999Z</time></trkpt><trkpt lat="42.67710943874544" lon="9.302838637821258"><ele>1.8333333333333333</ele><time>2026-05-01T09:43:48.999Z</time></trkpt><trkpt lat="42.67703486038193" lon="9.302848082052066"><ele>2.0</ele><time>2026-05-01T09:43:49.999Z</time></trkpt><trkpt lat="42.6769612712375" lon="9.30286234023515"><ele>1.9999999999999998</ele><time>2026-05-01T09:43:50.999Z</time></trkpt><trkpt lat="42.67689062517293" lon="9.302877058008319"><ele>2.0</ele><time>2026-05-01T09:43:51.999Z</time></trkpt><trkpt lat="42.67681913688885" lon="9.302891295389722"><ele>2.0</ele><time>2026-05-01T09:43:52.999Z</time></trkpt><trkpt lat="42.67673868452339" lon="9.302902452812235"><ele>2.0</ele><time>2026-05-01T09:43:53.999Z</time></trkpt><trkpt lat="42.67665766113863" lon="9.302915463133218"><ele>1.9999999999999998</ele><time>2026-05-01T09:43:54.998Z</time></trkpt><trkpt lat="42.676578687704" lon="9.302928229400992"><ele>2.0</ele><time>2026-05-01T09:43:55.998Z</time></trkpt><trkpt lat="42.67650122839841" lon="9.30294198779821"><ele>2.0</ele><time>2026-05-01T09:43:56.998Z</time></trkpt><trkpt lat="42.67633708930245" lon="9.302972644469731"><ele>2.0</ele><time>2026-05-01T09:43:58.998Z</time></trkpt><trkpt lat="42.67625921731551" lon="9.30298536245148"><ele>2.0</ele><time>2026-05-01T09:43:59.998Z</time></trkpt><trkpt lat="42.67618094522346" lon="9.302999239663047"><ele>2.0</ele><time>2026-05-01T09:44:00.998Z</time></trkpt><trkpt lat="42.676101013642054" lon="9.30301305094898"><ele>2.0</ele><time>2026-05-01T09:44:01.998Z</time></trkpt><trkpt lat="42.6760217478313" lon="9.303030483818297"><ele>1.8333333333333333</ele><time>2026-05-01T09:44:02.998Z</time></trkpt><trkpt lat="42.67594845391556" lon="9.30303513079599"><ele>1.6666666666666665</ele><time>2026-05-01T09:44:03.998Z</time></trkpt><trkpt lat="42.67587200968361" lon="9.303035003346139"><ele>1.5</ele><time>2026-05-01T09:44:04.998Z</time></trkpt><trkpt lat="42.67578293563104" lon="9.303033524226882"><ele>1.3333333333333333</ele><time>2026-05-01T09:44:05.998Z</time></trkpt><trkpt lat="42.6757050814091" lon="9.303015903868127"><ele>1.1666666666666665</ele><time>2026-05-01T09:44:06.998Z</time></trkpt><trkpt lat="42.67562096506869" lon="9.30299014510964"><ele>1.0</ele><time>2026-05-01T09:44:07.998Z</time></trkpt><trkpt lat="42.67553758206176" lon="9.302960228945027"><ele>1.0</ele><time>2026-05-01T09:44:08.998Z</time></trkpt><trkpt lat="42.67545512981013" lon="9.30293083037958"><ele>1.0</ele><time>2026-05-01T09:44:09.998Z</time></trkpt><trkpt lat="42.67537122871384" lon="9.302890251437548"><ele>1.0</ele><time>2026-05-01T09:44:10.998Z</time></trkpt><trkpt lat="42.67528543559417" lon="9.302847203178437"><ele>1.0</ele><time>2026-05-01T09:44:11.998Z</time></trkpt><trkpt lat="42.67519749671731" lon="9.302801244743165"><ele>1.0</ele><time>2026-05-01T09:44:12.998Z</time></trkpt><trkpt lat="42.67510827551136" lon="9.302765210114353"><ele>0.6000000000000001</ele><time>2026-05-01T09:44:13.998Z</time></trkpt><trkpt lat="42.67502043065956" lon="9.302714346503972"><ele>0.20000000000000007</ele><time>2026-05-01T09:44:14.998Z</time></trkpt><trkpt lat="42.67493401508875" lon="9.302667643965798"><ele>-0.20000000000000007</ele><time>2026-05-01T09:44:15.998Z</time></trkpt><trkpt lat="42.67484390106608" lon="9.302620992349201"><ele>-0.6000000000000001</ele><time>2026-05-01T09:44:16.998Z</time></trkpt><trkpt lat="42.67475891028038" lon="9.302576846550092"><ele>-1.0</ele><time>2026-05-01T09:44:17.998Z</time></trkpt><trkpt lat="42.67458834959279" lon="9.302492074135154"><ele>-0.9999999999999999</ele><time>2026-05-01T09:44:19.998Z</time></trkpt><trkpt lat="42.674504931227126" lon="9.302451546445168"><ele>-1.0</ele><time>2026-05-01T09:44:20.998Z</time></trkpt><trkpt lat="42.67442094972707" lon="9.302414493231122"><ele>-1.0</ele><time>2026-05-01T09:44:21.998Z</time></trkpt><trkpt lat="42.67433945221631" lon="9.302370242857045"><ele>-1.0</ele><time>2026-05-01T09:44:22.998Z</time></trkpt><trkpt lat="42.67425206068679" lon="9.302329810585286"><ele>-0.9999999999999999</ele><time>2026-05-01T09:44:23.998Z</time></trkpt><trkpt lat="42.674173774845066" lon="9.302283183052836"><ele>-1.0</ele><time>2026-05-01T09:44:24.998Z</time></trkpt><trkpt lat="42.67409048391312" lon="9.302240154047482"><ele>-1.4</ele><time>2026-05-01T09:44:25.999Z</time></trkpt><trkpt lat="42.674007250554105" lon="9.302199339387672"><ele>-1.8</ele><time>2026-05-01T09:44:26.999Z</time></trkpt><trkpt lat="42.67392006027647" lon="9.302155650271368"><ele>-2.1999999999999997</ele><time>2026-05-01T09:44:27.999Z</time></trkpt><trkpt lat="42.673833373312654" lon="9.30211205481967"><ele>-2.6</ele><time>2026-05-01T09:44:28.999Z</time></trkpt><trkpt lat="42.67374771679418" lon="9.302068482288401"><ele>-3.0</ele><time>2026-05-01T09:44:29.999Z</time></trkpt><trkpt lat="42.67366081665985" lon="9.302025166891143"><ele>-2.4</ele><time>2026-05-01T09:44:30.999Z</time></trkpt><trkpt lat="42.673570437396094" lon="9.301982192865308"><ele>-1.7999999999999998</ele><time>2026-05-01T09:44:31.999Z</time></trkpt><trkpt lat="42.673482073074666" lon="9.301937640904256"><ele>-1.2</ele><time>2026-05-01T09:44:32.999Z</time></trkpt><trkpt lat="42.673393759540545" lon="9.301891267238279"><ele>-0.6</ele><time>2026-05-01T09:44:33.999Z</time></trkpt><trkpt lat="42.6733058893928" lon="9.301846616548717"><ele>0.0</ele><time>2026-05-01T09:44:34.999Z</time></trkpt><trkpt lat="42.673216633675914" lon="9.301798628280748"><ele>0.0</ele><time>2026-05-01T09:44:35.999Z</time></trkpt><trkpt lat="42.67312539480543" lon="9.301760158327074"><ele>0.0</ele><time>2026-05-01T09:44:36.999Z</time></trkpt><trkpt lat="42.673038194464226" lon="9.301715926272964"><ele>0.0</ele><time>2026-05-01T09:44:37.999Z</time></trkpt><trkpt lat="42.67294965126613" lon="9.301672373065335"><ele>0.0</ele><time>2026-05-01T09:44:38.999Z</time></trkpt><trkpt lat="42.672777949751314" lon="9.301586028562786"><ele>-0.2</ele><time>2026-05-01T09:44:40.999Z</time></trkpt><trkpt lat="42.67268995741984" lon="9.301542070653348"><ele>-0.4</ele><time>2026-05-01T09:44:41.999Z</time></trkpt><trkpt lat="42.67260749777515" lon="9.301499083497802"><ele>-0.6000000000000001</ele><time>2026-05-01T09:44:42.999Z</time></trkpt><trkpt lat="42.67252212229351" lon="9.30145507998311"><ele>-0.8</ele><time>2026-05-01T09:44:43.999Z</time></trkpt><trkpt lat="42.67243639992505" lon="9.301413578185867"><ele>-1.0</ele><time>2026-05-01T09:44:44.999Z</time></trkpt><trkpt lat="42.67234969990929" lon="9.30137054452772"><ele>-1.3333333333333333</ele><time>2026-05-01T09:44:45.999Z</time></trkpt><trkpt lat="42.67226206425392" lon="9.301338137615804"><ele>-1.6666666666666665</ele><time>2026-05-01T09:44:46.999Z</time></trkpt><trkpt lat="42.67217231347171" lon="9.301324703413776"><ele>-2.0</ele><time>2026-05-01T09:44:47.999Z</time></trkpt><trkpt lat="42.67207832720639" lon="9.301320418124595"><ele>-2.3333333333333335</ele><time>2026-05-01T09:44:48.999Z</time></trkpt><trkpt lat="42.672006429410374" lon="9.301307121216462"><ele>-2.6666666666666665</ele><time>2026-05-01T09:44:49.999Z</time></trkpt><trkpt lat="42.67194389514283" lon="9.301277003024687"><ele>-3.0</ele><time>2026-05-01T09:44:50.999Z</time></trkpt><trkpt lat="42.671892285116044" lon="9.301212988344473"><ele>-3.0</ele><time>2026-05-01T09:44:51.999Z</time></trkpt><trkpt lat="42.67184840930788" lon="9.301143604908974"><ele>-3.0</ele><time>2026-05-01T09:44:52.999Z</time></trkpt><trkpt lat="42.67183069292281" lon="9.301036389681883"><ele>-3.0</ele><time>2026-05-01T09:44:53.999Z</time></trkpt><trkpt lat="42.6718166923147" lon="9.300926187792452"><ele>-3.0</ele><time>2026-05-01T09:44:54.999Z</time></trkpt><trkpt lat="42.67179846279204" lon="9.300816132703813"><ele>-3.0</ele><time>2026-05-01T09:44:55.999Z</time></trkpt><trkpt lat="42.67178022005853" lon="9.300701256012841"><ele>-3.0</ele><time>2026-05-01T09:44:56.999Z</time></trkpt><trkpt lat="42.6717704209326" lon="9.3005857911608"><ele>-0.25</ele><time>2026-05-01T09:44:57.999Z</time></trkpt><trkpt lat="42.6717602805435" lon="9.30045734092799"><ele>2.5</ele><time>2026-05-01T09:44:58.999Z</time></trkpt><trkpt lat="42.671743850715416" lon="9.300324237047585"><ele>5.25</ele><time>2026-05-01T09:44:59.999Z</time></trkpt><trkpt lat="42.67172517417415" lon="9.300055347912801"><ele>8.0</ele><time>2026-05-01T09:45:01.999Z</time></trkpt><trkpt lat="42.67175624859957" lon="9.299924341123468"><ele>8.0</ele><time>2026-05-01T09:45:02.999Z</time></trkpt><trkpt lat="42.671813302189165" lon="9.299806780306609"><ele>8.0</ele><time>2026-05-01T09:45:03.999Z</time></trkpt><trkpt lat="42.67187996982302" lon="9.299696996487123"><ele>8.0</ele><time>2026-05-01T09:45:04.999Z</time></trkpt><trkpt lat="42.671954962810304" lon="9.299597122493363"><ele>8.0</ele><time>2026-05-01T09:45:05.999Z</time></trkpt><trkpt lat="42.67203665195895" lon="9.299496596623403"><ele>8.0</ele><time>2026-05-01T09:45:06.999Z</time></trkpt><trkpt lat="42.672110344764896" lon="9.299381733503802"><ele>7.0</ele><time>2026-05-01T09:45:07.999Z</time></trkpt><trkpt lat="42.67216713005031" lon="9.299240486770909"><ele>6.0</ele><time>2026-05-01T09:45:08.999Z</time></trkpt><trkpt lat="42.672201173532905" lon="9.299076039687339"><ele>5.0</ele><time>2026-05-01T09:45:09.999Z</time></trkpt><trkpt lat="42.672226361060744" lon="9.298903409075672"><ele>4.0</ele><time>2026-05-01T09:45:10.999Z</time></trkpt><trkpt lat="42.67225607606526" lon="9.2987300371378"><ele>4.0</ele><time>2026-05-01T09:45:11.999Z</time></trkpt><trkpt lat="42.67229249513318" lon="9.298554969188048"><ele>4.0</ele><time>2026-05-01T09:45:12.999Z</time></trkpt><trkpt lat="42.672332232754684" lon="9.298378421654856"><ele>4.0</ele><time>2026-05-01T09:45:13.999Z</time></trkpt><trkpt lat="42.67237115185841" lon="9.298195620328782"><ele>4.0</ele><time>2026-05-01T09:45:14.999Z</time></trkpt><trkpt lat="42.67240430804587" lon="9.298006253370737"><ele>5.25</ele><time>2026-05-01T09:45:15.999Z</time></trkpt><trkpt lat="42.67242772309045" lon="9.297814161640327"><ele>6.5</ele><time>2026-05-01T09:45:16.999Z</time></trkpt><trkpt lat="42.67243199728867" lon="9.297619450672288"><ele>7.75</ele><time>2026-05-01T09:45:17.999Z</time></trkpt><trkpt lat="42.67242923762451" lon="9.297415925006064"><ele>9.0</ele><time>2026-05-01T09:45:18.999Z</time></trkpt><trkpt lat="42.67242097004393" lon="9.29721208582461"><ele>9.0</ele><time>2026-05-01T09:45:19.999Z</time></trkpt><trkpt lat="42.67240306604156" lon="9.297006042964457"><ele>9.0</ele><time>2026-05-01T09:45:20.999Z</time></trkpt><trkpt lat="42.672349514590614" lon="9.296568680216142"><ele>9.666666666666666</ele><time>2026-05-01T09:45:22.999Z</time></trkpt><trkpt lat="42.67232156315127" lon="9.296333232381347"><ele>10.333333333333332</ele><time>2026-05-01T09:45:23.999Z</time></trkpt><trkpt lat="42.67230133980129" lon="9.296094475243432"><ele>11.0</ele><time>2026-05-01T09:45:24.999Z</time></trkpt><trkpt lat="42.67228365929038" lon="9.29584673635619"><ele>11.0</ele><time>2026-05-01T09:45:25.999Z</time></trkpt><trkpt lat="42.672255067818966" lon="9.29560394183572"><ele>11.0</ele><time>2026-05-01T09:45:26.999Z</time></trkpt><trkpt lat="42.672204952559696" lon="9.295379546973933"><ele>11.0</ele><time>2026-05-01T09:45:27.999Z</time></trkpt><trkpt lat="42.67216522827337" lon="9.295187534498524"><ele>13.5</ele><time>2026-05-01T09:45:28.999Z</time></trkpt><trkpt lat="42.67218004843525" lon="9.295028099112061"><ele>16.0</ele><time>2026-05-01T09:45:29.999Z</time></trkpt><trkpt lat="42.672240712067726" lon="9.294899182002704"><ele>18.5</ele><time>2026-05-01T09:45:30.999Z</time></trkpt><trkpt lat="42.672341886191134" lon="9.294807109789318"><ele>21.0</ele><time>2026-05-01T09:45:31.999Z</time></trkpt><trkpt lat="42.67247207619706" lon="9.294773977774486"><ele>21.0</ele><time>2026-05-01T09:45:32.999Z</time></trkpt><trkpt lat="42.672619414150134" lon="9.294782079080134"><ele>21.0</ele><time>2026-05-01T09:45:33.999Z</time></trkpt><trkpt lat="42.672771967981035" lon="9.29479161383801"><ele>21.0</ele><time>2026-05-01T09:45:34.999Z</time></trkpt><trkpt lat="42.67291196983188" lon="9.294766561907986"><ele>21.0</ele><time>2026-05-01T09:45:35.999Z</time></trkpt><trkpt lat="42.673027340299726" lon="9.294668990313376"><ele>19.666666666666668</ele><time>2026-05-01T09:45:36.999Z</time></trkpt><trkpt lat="42.67310242536082" lon="9.294510065468826"><ele>18.333333333333336</ele><time>2026-05-01T09:45:37.999Z</time></trkpt><trkpt lat="42.67312463723368" lon="9.294299283069902"><ele>17.0</ele><time>2026-05-01T09:45:38.999Z</time></trkpt><trkpt lat="42.67310429103155" lon="9.294065407585396"><ele>16.333333333333336</ele><time>2026-05-01T09:45:39.999Z</time></trkpt><trkpt lat="42.673054495036475" lon="9.293827286440957"><ele>15.666666666666668</ele><time>2026-05-01T09:45:40.999Z</time></trkpt><trkpt lat="42.67300431327797" lon="9.293573911932711"><ele>15.0</ele><time>2026-05-01T09:45:41.999Z</time></trkpt><trkpt lat="42.672896830475906" lon="9.293137425665266"><ele>14.0</ele><time>2026-05-01T09:45:43.999Z</time></trkpt><trkpt lat="42.67278086668044" lon="9.29298385212946"><ele>13.0</ele><time>2026-05-01T09:45:44.999Z</time></trkpt><trkpt lat="42.672619316913945" lon="9.292843950609477"><ele>12.0</ele><time>2026-05-01T09:45:45.999Z</time></trkpt><trkpt lat="42.672458159588885" lon="9.292684283213136"><ele>13.333333333333332</ele><time>2026-05-01T09:45:46.999Z</time></trkpt><trkpt lat="42.672317874347335" lon="9.292522807538193"><ele>14.666666666666666</ele><time>2026-05-01T09:45:47.999Z</time></trkpt><trkpt lat="42.672202649310904" lon="9.292344275439163"><ele>16.0</ele><time>2026-05-01T09:45:48.999Z</time></trkpt><trkpt lat="42.67212538627555" lon="9.29211351198201"><ele>16.0</ele><time>2026-05-01T09:45:49.999Z</time></trkpt><trkpt lat="42.672042976312156" lon="9.291866192511833"><ele>16.0</ele><time>2026-05-01T09:45:50.999Z</time></trkpt><trkpt lat="42.67191582348362" lon="9.291651575969022"><ele>16.0</ele><time>2026-05-01T09:45:51.999Z</time></trkpt><trkpt lat="42.671797562746704" lon="9.291447289434913"><ele>25.333333333333332</ele><time>2026-05-01T09:45:52.999Z</time></trkpt><trkpt lat="42.67173093766127" lon="9.29121818942243"><ele>34.666666666666664</ele><time>2026-05-01T09:45:53.999Z</time></trkpt><trkpt lat="42.67172292228016" lon="9.290959723639773"><ele>44.0</ele><time>2026-05-01T09:45:54.999Z</time></trkpt><trkpt lat="42.671718470151994" lon="9.290680146662373"><ele>41.0</ele><time>2026-05-01T09:45:55.999Z</time></trkpt><trkpt lat="42.67166620779587" lon="9.290406765161311"><ele>38.0</ele><time>2026-05-01T09:45:56.998Z</time></trkpt><trkpt lat="42.67157267075762" lon="9.29013974742037"><ele>35.0</ele><time>2026-05-01T09:45:57.998Z</time></trkpt><trkpt lat="42.67147799029874" lon="9.289868481350993"><ele>31.666666666666664</ele><time>2026-05-01T09:45:58.998Z</time></trkpt><trkpt lat="42.67138886980764" lon="9.289599207295067"><ele>28.333333333333336</ele><time>2026-05-01T09:45:59.998Z</time></trkpt><trkpt lat="42.67131421184385" lon="9.289378034427331"><ele>25.0</ele><time>2026-05-01T09:46:00.998Z</time></trkpt><trkpt lat="42.67124799194484" lon="9.289216891085813"><ele>25.0</ele><time>2026-05-01T09:46:01.998Z</time></trkpt><trkpt lat="42.67114745438311" lon="9.289099593631233"><ele>25.0</ele><time>2026-05-01T09:46:02.998Z</time></trkpt><trkpt lat="42.670823602346374" lon="9.289007350945447"><ele>30.0</ele><time>2026-05-01T09:46:04.998Z</time></trkpt><trkpt lat="42.67068946385734" lon="9.288882210952655"><ele>35.0</ele><time>2026-05-01T09:46:05.998Z</time></trkpt><trkpt lat="42.67056850811107" lon="9.288692947723607"><ele>40.0</ele><time>2026-05-01T09:46:06.998Z</time></trkpt><trkpt lat="42.67042724460689" lon="9.2884945922598"><ele>39.66666666666667</ele><time>2026-05-01T09:46:07.998Z</time></trkpt><trkpt lat="42.67026947067954" lon="9.288313692380983"><ele>39.333333333333336</ele><time>2026-05-01T09:46:08.998Z</time></trkpt><trkpt lat="42.67011477430093" lon="9.288134504290745"><ele>39.0</ele><time>2026-05-01T09:46:09.998Z</time></trkpt><trkpt lat="42.66994997665047" lon="9.287968805324827"><ele>39.0</ele><time>2026-05-01T09:46:10.998Z</time></trkpt><trkpt lat="42.669758085771754" lon="9.287825768861161"><ele>39.0</ele><time>2026-05-01T09:46:11.998Z</time></trkpt><trkpt lat="42.66955514717631" lon="9.287715028969922"><ele>39.0</ele><time>2026-05-01T09:46:12.998Z</time></trkpt><trkpt lat="42.66935757675474" lon="9.287594553071992"><ele>39.333333333333336</ele><time>2026-05-01T09:46:13.998Z</time></trkpt><trkpt lat="42.66917707083654" lon="9.287467929321087"><ele>39.66666666666667</ele><time>2026-05-01T09:46:14.998Z</time></trkpt><trkpt lat="42.669035929476976" lon="9.28732446345276"><ele>40.0</ele><time>2026-05-01T09:46:15.998Z</time></trkpt><trkpt lat="42.668928758882586" lon="9.28713567493986"><ele>40.0</ele><time>2026-05-01T09:46:16.998Z</time></trkpt><trkpt lat="42.668823075165804" lon="9.286926834631842"><ele>40.0</ele><time>2026-05-01T09:46:17.998Z</time></trkpt><trkpt lat="42.66868169180879" lon="9.28674065478626"><ele>40.0</ele><time>2026-05-01T09:46:18.998Z</time></trkpt><trkpt lat="42.66850343040374" lon="9.286589524652063"><ele>41.0</ele><time>2026-05-01T09:46:19.998Z</time></trkpt><trkpt lat="42.668307004518525" lon="9.286469063233309"><ele>42.0</ele><time>2026-05-01T09:46:20.998Z</time></trkpt><trkpt lat="42.66810575971775" lon="9.286341454262573"><ele>43.0</ele><time>2026-05-01T09:46:21.998Z</time></trkpt><trkpt lat="42.66790323895312" lon="9.28620295295023"><ele>53.5</ele><time>2026-05-01T09:46:22.998Z</time></trkpt><trkpt lat="42.667701438774785" lon="9.286066346959831"><ele>64.0</ele><time>2026-05-01T09:46:23.998Z</time></trkpt><trkpt lat="42.667354254952116" lon="9.285719027061914"><ele>66.0</ele><time>2026-05-01T09:46:25.998Z</time></trkpt><trkpt lat="42.66722639527732" lon="9.285518774907757"><ele>68.0</ele><time>2026-05-01T09:46:26.998Z</time></trkpt><trkpt lat="42.66709107112736" lon="9.285383818119113"><ele>70.0</ele><time>2026-05-01T09:46:27.998Z</time></trkpt><trkpt lat="42.666916809124366" lon="9.28533129831255"><ele>70.0</ele><time>2026-05-01T09:46:28.998Z</time></trkpt><trkpt lat="42.66672840423326" lon="9.285270762317804"><ele>70.0</ele><time>2026-05-01T09:46:29.998Z</time></trkpt><trkpt lat="42.666584560423196" lon="9.285113931145068"><ele>70.0</ele><time>2026-05-01T09:46:30.998Z</time></trkpt><trkpt lat="42.66646814725263" lon="9.284867949156695"><ele>67.33333333333333</ele><time>2026-05-01T09:46:31.999Z</time></trkpt><trkpt lat="42.66635175634608" lon="9.2845993309675"><ele>64.66666666666667</ele><time>2026-05-01T09:46:32.999Z</time></trkpt><trkpt lat="42.66625655171852" lon="9.28434723649149"><ele>62.0</ele><time>2026-05-01T09:46:33.999Z</time></trkpt><trkpt lat="42.66616246178258" lon="9.284147507079302"><ele>62.333333333333336</ele><time>2026-05-01T09:46:34.999Z</time></trkpt><trkpt lat="42.666020398642765" lon="9.284008654754976"><ele>62.66666666666667</ele><time>2026-05-01T09:46:35.999Z</time></trkpt><trkpt lat="42.66582575024769" lon="9.283932539839956"><ele>63.0</ele><time>2026-05-01T09:46:36.999Z</time></trkpt><trkpt lat="42.665607181668534" lon="9.283857426019454"><ele>63.0</ele><time>2026-05-01T09:46:37.999Z</time></trkpt><trkpt lat="42.6654045357092" lon="9.283776853773656"><ele>63.0</ele><time>2026-05-01T09:46:38.999Z</time></trkpt><trkpt lat="42.66524627211674" lon="9.283662248645735"><ele>63.0</ele><time>2026-05-01T09:46:39.999Z</time></trkpt><trkpt lat="42.66514655792626" lon="9.283484411031553"><ele>65.33333333333333</ele><time>2026-05-01T09:46:40.999Z</time></trkpt><trkpt lat="42.665081132547336" lon="9.28324671418857"><ele>67.66666666666666</ele><time>2026-05-01T09:46:41.999Z</time></trkpt><trkpt lat="42.66500841193104" lon="9.282983454059842"><ele>70.0</ele><time>2026-05-01T09:46:42.999Z</time></trkpt><trkpt lat="42.664904865807884" lon="9.282731933822529"><ele>70.0</ele><time>2026-05-01T09:46:43.999Z</time></trkpt><trkpt lat="42.66475014175593" lon="9.282510429737604"><ele>70.0</ele><time>2026-05-01T09:46:44.999Z</time></trkpt><trkpt lat="42.664336720475774" lon="9.282182005156885"><ele>74.0</ele><time>2026-05-01T09:46:46.999Z</time></trkpt><trkpt lat="42.664140546092725" lon="9.282032790975064"><ele>78.0</ele><time>2026-05-01T09:46:47.999Z</time></trkpt><trkpt lat="42.66401072050966" lon="9.281875146329188"><ele>82.0</ele><time>2026-05-01T09:46:48.999Z</time></trkpt><trkpt lat="42.66395949375573" lon="9.281685932725358"><ele>82.0</ele><time>2026-05-01T09:46:49.999Z</time></trkpt><trkpt lat="42.663954753842376" lon="9.281449483513727"><ele>82.0</ele><time>2026-05-01T09:46:50.999Z</time></trkpt><trkpt lat="42.66394520121692" lon="9.281193224741235"><ele>82.0</ele><time>2026-05-01T09:46:51.999Z</time></trkpt><trkpt lat="42.66387243045375" lon="9.280986123327317"><ele>82.0</ele><time>2026-05-01T09:46:52.999Z</time></trkpt><trkpt lat="42.66374425823484" lon="9.280840770376363"><ele>82.0</ele><time>2026-05-01T09:46:53.999Z</time></trkpt><trkpt lat="42.66357211761335" lon="9.28072538044776"><ele>82.0</ele><time>2026-05-01T09:46:54.999Z</time></trkpt><trkpt lat="42.663383513892434" lon="9.280598603048189"><ele>85.66666666666666</ele><time>2026-05-01T09:46:55.999Z</time></trkpt><trkpt lat="42.66322137017093" lon="9.28045221852355"><ele>89.33333333333333</ele><time>2026-05-01T09:46:56.999Z</time></trkpt><trkpt lat="42.66309683518591" lon="9.280277321968429"><ele>93.0</ele><time>2026-05-01T09:46:57.999Z</time></trkpt><trkpt lat="42.66299304347842" lon="9.280040311404854"><ele>93.0</ele><time>2026-05-01T09:46:58.999Z</time></trkpt><trkpt lat="42.66288818527473" lon="9.279771007983609"><ele>93.0</ele><time>2026-05-01T09:46:59.999Z</time></trkpt><trkpt lat="42.66278527045904" lon="9.27954152500488"><ele>93.0</ele><time>2026-05-01T09:47:00.999Z</time></trkpt><trkpt lat="42.66273039709677" lon="9.279329298570996"><ele>92.33333333333333</ele><time>2026-05-01T09:47:01.999Z</time></trkpt><trkpt lat="42.66272178841029" lon="9.279119145583254"><ele>91.66666666666666</ele><time>2026-05-01T09:47:02.999Z</time></trkpt><trkpt lat="42.662787557415214" lon="9.278906874961852"><ele>91.0</ele><time>2026-05-01T09:47:03.999Z</time></trkpt><trkpt lat="42.66289451919882" lon="9.278670255127821"><ele>91.0</ele><time>2026-05-01T09:47:04.999Z</time></trkpt><trkpt lat="42.66294362897098" lon="9.278418878542809"><ele>91.0</ele><time>2026-05-01T09:47:05.999Z</time></trkpt><trkpt lat="42.66284498640571" lon="9.27793750769501"><ele>94.0</ele><time>2026-05-01T09:47:07.999Z</time></trkpt><trkpt lat="42.66270757833252" lon="9.277667730047796"><ele>97.0</ele><time>2026-05-01T09:47:08.999Z</time></trkpt><trkpt lat="42.66256192706003" lon="9.277373600078752"><ele>99.5</ele><time>2026-05-01T09:47:09.999Z</time></trkpt><trkpt lat="42.662432046660854" lon="9.277025966548266"><ele>102.0</ele><time>2026-05-01T09:47:10.999Z</time></trkpt><trkpt lat="42.66229937072641" lon="9.276656406990917"><ele>101.5</ele><time>2026-05-01T09:47:11.999Z</time></trkpt><trkpt lat="42.66217047265725" lon="9.276320547358303"><ele>101.0</ele><time>2026-05-01T09:47:12.999Z</time></trkpt><trkpt lat="42.6620630290924" lon="9.276063713488123"><ele>101.0</ele><time>2026-05-01T09:47:13.999Z</time></trkpt><trkpt lat="42.66197028609555" lon="9.275887208732367"><ele>101.0</ele><time>2026-05-01T09:47:14.999Z</time></trkpt><trkpt lat="42.66186065437407" lon="9.275783941669514"><ele>101.0</ele><time>2026-05-01T09:47:15.999Z</time></trkpt><trkpt lat="42.66172689764886" lon="9.275791035993594"><ele>101.0</ele><time>2026-05-01T09:47:16.999Z</time></trkpt><trkpt lat="42.66156939089332" lon="9.275864791895739"><ele>103.66666666666666</ele><time>2026-05-01T09:47:17.999Z</time></trkpt><trkpt lat="42.66141412453142" lon="9.276002658547014"><ele>106.33333333333334</ele><time>2026-05-01T09:47:18.999Z</time></trkpt><trkpt lat="42.66126575108695" lon="9.276119268808074"><ele>109.0</ele><time>2026-05-01T09:47:19.999Z</time></trkpt><trkpt lat="42.661115721948065" lon="9.276118172734215"><ele>109.0</ele><time>2026-05-01T09:47:20.999Z</time></trkpt><trkpt lat="42.66096360906167" lon="9.276030263256647"><ele>109.0</ele><time>2026-05-01T09:47:21.999Z</time></trkpt><trkpt lat="42.660815726327115" lon="9.275869751783164"><ele>109.0</ele><time>2026-05-01T09:47:22.999Z</time></trkpt><trkpt lat="42.660698180571906" lon="9.275667301292941"><ele>113.66666666666667</ele><time>2026-05-01T09:47:23.999Z</time></trkpt><trkpt lat="42.660632353224536" lon="9.275394835837558"><ele>118.33333333333334</ele><time>2026-05-01T09:47:24.999Z</time></trkpt><trkpt lat="42.660565867854956" lon="9.275083286084088"><ele>123.0</ele><time>2026-05-01T09:47:25.999Z</time></trkpt><trkpt lat="42.66049096951418" lon="9.2747530709615"><ele>125.5</ele><time>2026-05-01T09:47:26.999Z</time></trkpt><trkpt lat="42.66050686767669" lon="9.27418383817281"><ele>128.0</ele><time>2026-05-01T09:47:28.999Z</time></trkpt><trkpt lat="42.660581817941285" lon="9.273951918478632"><ele>128.0</ele><time>2026-05-01T09:47:29.999Z</time></trkpt><trkpt lat="42.66065802892006" lon="9.27374252009906"><ele>128.0</ele><time>2026-05-01T09:47:30.999Z</time></trkpt><trkpt lat="42.66065726445403" lon="9.273570182214474"><ele>128.0</ele><time>2026-05-01T09:47:31.999Z</time></trkpt><trkpt lat="42.66059193483247" lon="9.273400539219566"><ele>128.0</ele><time>2026-05-01T09:47:32.999Z</time></trkpt><trkpt lat="42.660468513872814" lon="9.273280985367268"><ele>128.0</ele><time>2026-05-01T09:47:33.999Z</time></trkpt><trkpt lat="42.660296829802775" lon="9.273244061536284"><ele>128.0</ele><time>2026-05-01T09:47:34.999Z</time></trkpt><trkpt lat="42.66008356723339" lon="9.273240718315746"><ele>128.0</ele><time>2026-05-01T09:47:35.999Z</time></trkpt><trkpt lat="42.65985391830432" lon="9.273255054185896"><ele>127.66666666666666</ele><time>2026-05-01T09:47:36.999Z</time></trkpt><trkpt lat="42.65961644216719" lon="9.273291573109965"><ele>127.33333333333334</ele><time>2026-05-01T09:47:37.999Z</time></trkpt><trkpt lat="42.6594234231847" lon="9.273313709654712"><ele>127.0</ele><time>2026-05-01T09:47:38.999Z</time></trkpt><trkpt lat="42.65925992248813" lon="9.27330582976804"><ele>126.5</ele><time>2026-05-01T09:47:39.999Z</time></trkpt><trkpt lat="42.65912967460271" lon="9.273245594126939"><ele>126.0</ele><time>2026-05-01T09:47:40.999Z</time></trkpt><trkpt lat="42.65905117431182" lon="9.273100818225997"><ele>125.5</ele><time>2026-05-01T09:47:41.999Z</time></trkpt><trkpt lat="42.65897730433962" lon="9.272923992097454"><ele>125.0</ele><time>2026-05-01T09:47:42.999Z</time></trkpt><trkpt lat="42.65887967154677" lon="9.272827246908543"><ele>126.8</ele><time>2026-05-01T09:47:43.999Z</time></trkpt><trkpt lat="42.65875543719349" lon="9.272824111622315"><ele>128.6</ele><time>2026-05-01T09:47:44.999Z</time></trkpt><trkpt lat="42.65865679209602" lon="9.272824491452305"><ele>130.4</ele><time>2026-05-01T09:47:45.999Z</time></trkpt><trkpt lat="42.65859327675231" lon="9.272796737028138"><ele>132.2</ele><time>2026-05-01T09:47:46.999Z</time></trkpt><trkpt lat="42.65854662474883" lon="9.272724944758023"><ele>134.0</ele><time>2026-05-01T09:47:47.999Z</time></trkpt><trkpt lat="42.658535021455435" lon="9.272486554641853"><ele>134.0</ele><time>2026-05-01T09:47:49.999Z</time></trkpt><trkpt lat="42.65854815334071" lon="9.272350870759333"><ele>134.0</ele><time>2026-05-01T09:47:50.999Z</time></trkpt><trkpt lat="42.658547314839865" lon="9.27222135659697"><ele>134.0</ele><time>2026-05-01T09:47:51.999Z</time></trkpt><trkpt lat="42.65851630360353" lon="9.272116338750433"><ele>134.0</ele><time>2026-05-01T09:47:52.999Z</time></trkpt><trkpt lat="42.658460260363185" lon="9.272028495806646"><ele>134.0</ele><time>2026-05-01T09:47:53.999Z</time></trkpt><trkpt lat="42.65837242352198" lon="9.27196167308309"><ele>137.0</ele><time>2026-05-01T09:47:54.999Z</time></trkpt><trkpt lat="42.65827118645979" lon="9.271926910367087"><ele>140.0</ele><time>2026-05-01T09:47:55.999Z</time></trkpt><trkpt lat="42.658156477105194" lon="9.271929524968515"><ele>143.0</ele><time>2026-05-01T09:47:56.999Z</time></trkpt><trkpt lat="42.658046344655816" lon="9.271966993049164"><ele>146.0</ele><time>2026-05-01T09:47:57.999Z</time></trkpt><trkpt lat="42.65796342075387" lon="9.272072402079464"><ele>149.0</ele><time>2026-05-01T09:47:58.999Z</time></trkpt><trkpt lat="42.657913262161166" lon="9.27221658041611"><ele>147.6</ele><time>2026-05-01T09:47:59.999Z</time></trkpt><trkpt lat="42.65787880100631" lon="9.272357754254786"><ele>146.2</ele><time>2026-05-01T09:48:00.999Z</time></trkpt><trkpt lat="42.65783676423682" lon="9.272477115831"><ele>144.79999999999998</ele><time>2026-05-01T09:48:01.999Z</time></trkpt><trkpt lat="42.65778982430474" lon="9.272596351297475"><ele>143.4</ele><time>2026-05-01T09:48:02.999Z</time></trkpt><trkpt lat="42.657732509291534" lon="9.272696199358125"><ele>142.0</ele><time>2026-05-01T09:48:03.999Z</time></trkpt><trkpt lat="42.65765243546951" lon="9.27276610910356"><ele>142.0</ele><time>2026-05-01T09:48:04.999Z</time></trkpt><trkpt lat="42.65755437161177" lon="9.27278689805464"><ele>142.0</ele><time>2026-05-01T09:48:05.999Z</time></trkpt><trkpt lat="42.657457088484136" lon="9.2727488370655"><ele>142.0</ele><time>2026-05-01T09:48:06.999Z</time></trkpt><trkpt lat="42.65737965991104" lon="9.272650837280445"><ele>142.0</ele><time>2026-05-01T09:48:07.999Z</time></trkpt><trkpt lat="42.65731372387928" lon="9.272528606434449"><ele>142.0</ele><time>2026-05-01T09:48:08.999Z</time></trkpt><trkpt lat="42.65717931116077" lon="9.27234738087955"><ele>142.0</ele><time>2026-05-01T09:48:10.999Z</time></trkpt><trkpt lat="42.657105657808216" lon="9.272299338736477"><ele>142.0</ele><time>2026-05-01T09:48:11.999Z</time></trkpt><trkpt lat="42.65702221709534" lon="9.272287959062277"><ele>142.0</ele><time>2026-05-01T09:48:12.999Z</time></trkpt><trkpt lat="42.656940684708275" lon="9.272320254721052"><ele>142.0</ele><time>2026-05-01T09:48:13.999Z</time></trkpt><trkpt lat="42.656867079457335" lon="9.272380239932668"><ele>142.0</ele><time>2026-05-01T09:48:14.999Z</time></trkpt><trkpt lat="42.65679383154861" lon="9.272446209087697"><ele>142.0</ele><time>2026-05-01T09:48:15.999Z</time></trkpt><trkpt lat="42.65670991778728" lon="9.272502406273475"><ele>142.4</ele><time>2026-05-01T09:48:16.998Z</time></trkpt><trkpt lat="42.65661901239133" lon="9.272528827465194"><ele>142.79999999999998</ele><time>2026-05-01T09:48:17.998Z</time></trkpt><trkpt lat="42.65651379019736" lon="9.272499725515988"><ele>143.2</ele><time>2026-05-01T09:48:18.998Z</time></trkpt><trkpt lat="42.656409886215734" lon="9.272466381635553"><ele>143.6</ele><time>2026-05-01T09:48:19.998Z</time></trkpt><trkpt lat="42.656278159575024" lon="9.272397817871946"><ele>144.0</ele><time>2026-05-01T09:48:20.998Z</time></trkpt><trkpt lat="42.65613642378866" lon="9.272283708378737"><ele>149.66666666666666</ele><time>2026-05-01T09:48:21.998Z</time></trkpt><trkpt lat="42.65599200378324" lon="9.27214222113847"><ele>155.33333333333331</ele><time>2026-05-01T09:48:22.998Z</time></trkpt><trkpt lat="42.65583502721371" lon="9.2719981739674"><ele>161.0</ele><time>2026-05-01T09:48:23.998Z</time></trkpt><trkpt lat="42.65568888494632" lon="9.271844523032243"><ele>161.0</ele><time>2026-05-01T09:48:24.998Z</time></trkpt><trkpt lat="42.65556512114993" lon="9.27163483880071"><ele>161.0</ele><time>2026-05-01T09:48:25.998Z</time></trkpt><trkpt lat="42.65543282619681" lon="9.271454771631586"><ele>161.0</ele><time>2026-05-01T09:48:26.998Z</time></trkpt><trkpt lat="42.65531534145019" lon="9.271233231509704"><ele>161.33333333333331</ele><time>2026-05-01T09:48:27.998Z</time></trkpt><trkpt lat="42.65521399346566" lon="9.27104029629858"><ele>161.66666666666666</ele><time>2026-05-01T09:48:28.998Z</time></trkpt><trkpt lat="42.65513720995644" lon="9.270832515459643"><ele>162.0</ele><time>2026-05-01T09:48:29.998Z</time></trkpt><trkpt lat="42.65506613104765" lon="9.270264623138674"><ele>162.0</ele><time>2026-05-01T09:48:31.998Z</time></trkpt><trkpt lat="42.65501365233758" lon="9.269969846255222"><ele>162.0</ele><time>2026-05-01T09:48:32.998Z</time></trkpt><trkpt lat="42.65495908406991" lon="9.269696076019628"><ele>162.0</ele><time>2026-05-01T09:48:33.998Z</time></trkpt><trkpt lat="42.654912937141404" lon="9.269452180486164"><ele>164.0</ele><time>2026-05-01T09:48:34.998Z</time></trkpt><trkpt lat="42.65490260990429" lon="9.269217679324104"><ele>166.0</ele><time>2026-05-01T09:48:35.998Z</time></trkpt><trkpt lat="42.65492898549682" lon="9.268964585881912"><ele>168.0</ele><time>2026-05-01T09:48:36.998Z</time></trkpt><trkpt lat="42.65498191928346" lon="9.268701806759058"><ele>169.0</ele><time>2026-05-01T09:48:37.999Z</time></trkpt><trkpt lat="42.65501684946502" lon="9.268424234023177"><ele>170.0</ele><time>2026-05-01T09:48:38.999Z</time></trkpt><trkpt lat="42.655009320309674" lon="9.268142777306792"><ele>171.0</ele><time>2026-05-01T09:48:39.999Z</time></trkpt><trkpt lat="42.65497132968102" lon="9.267863542871563"><ele>173.0</ele><time>2026-05-01T09:48:40.999Z</time></trkpt><trkpt lat="42.65493122677208" lon="9.267626014071713"><ele>175.0</ele><time>2026-05-01T09:48:41.999Z</time></trkpt><trkpt lat="42.65487294200996" lon="9.267476532917147"><ele>177.0</ele><time>2026-05-01T09:48:42.999Z</time></trkpt><trkpt lat="42.65478281098321" lon="9.267393054029025"><ele>179.0</ele><time>2026-05-01T09:48:43.999Z</time></trkpt><trkpt lat="42.654657408632886" lon="9.267366302692409"><ele>179.0</ele><time>2026-05-01T09:48:44.999Z</time></trkpt><trkpt lat="42.65448132194875" lon="9.267389473543275"><ele>179.0</ele><time>2026-05-01T09:48:45.999Z</time></trkpt><trkpt lat="42.65427614744505" lon="9.26746655041125"><ele>179.0</ele><time>2026-05-01T09:48:46.999Z</time></trkpt><trkpt lat="42.654054041036616" lon="9.2675112893107"><ele>179.5</ele><time>2026-05-01T09:48:47.999Z</time></trkpt><trkpt lat="42.65381360522882" lon="9.267486967136795"><ele>180.0</ele><time>2026-05-01T09:48:48.999Z</time></trkpt><trkpt lat="42.653564788210204" lon="9.267433492192671"><ele>180.0</ele><time>2026-05-01T09:48:49.999Z</time></trkpt><trkpt lat="42.65331070666666" lon="9.267413845596838"><ele>180.0</ele><time>2026-05-01T09:48:50.999Z</time></trkpt><trkpt lat="42.65285407347221" lon="9.267550282804491"><ele>181.66666666666666</ele><time>2026-05-01T09:48:52.999Z</time></trkpt><trkpt lat="42.652670705888966" lon="9.267577943439063"><ele>183.33333333333331</ele><time>2026-05-01T09:48:53.999Z</time></trkpt><trkpt lat="42.65246046417753" lon="9.267544584746279"><ele>185.0</ele><time>2026-05-01T09:48:54.999Z</time></trkpt><trkpt lat="42.652223635189735" lon="9.267459689791572"><ele>185.0</ele><time>2026-05-01T09:48:55.999Z</time></trkpt><trkpt lat="42.65198091530174" lon="9.267374312965828"><ele>185.0</ele><time>2026-05-01T09:48:56.999Z</time></trkpt><trkpt lat="42.651732581141445" lon="9.26732942798754"><ele>182.66666666666666</ele><time>2026-05-01T09:48:57.999Z</time></trkpt><trkpt lat="42.65149807701371" lon="9.267348544130497"><ele>180.33333333333334</ele><time>2026-05-01T09:48:58.999Z</time></trkpt><trkpt lat="42.65129226238818" lon="9.267376743932504"><ele>178.0</ele><time>2026-05-01T09:48:59.999Z</time></trkpt><trkpt lat="42.651118110919995" lon="9.2673419595734"><ele>184.33333333333334</ele><time>2026-05-01T09:49:00.999Z</time></trkpt><trkpt lat="42.65096733304499" lon="9.267219823215125"><ele>190.66666666666669</ele><time>2026-05-01T09:49:01.999Z</time></trkpt><trkpt lat="42.65082094470462" lon="9.267033855856338"><ele>197.0</ele><time>2026-05-01T09:49:02.999Z</time></trkpt><trkpt lat="42.650669660606255" lon="9.266852229093953"><ele>197.0</ele><time>2026-05-01T09:49:03.999Z</time></trkpt><trkpt lat="42.65049552703139" lon="9.266737399661446"><ele>197.0</ele><time>2026-05-01T09:49:04.999Z</time></trkpt><trkpt lat="42.650303346340785" lon="9.266698716683152"><ele>197.0</ele><time>2026-05-01T09:49:05.999Z</time></trkpt><trkpt lat="42.65013784693655" lon="9.266709374862424"><ele>195.75</ele><time>2026-05-01T09:49:06.999Z</time></trkpt><trkpt lat="42.650001200315494" lon="9.266703595299596"><ele>194.5</ele><time>2026-05-01T09:49:07.999Z</time></trkpt><trkpt lat="42.64988778911625" lon="9.266620707584913"><ele>193.25</ele><time>2026-05-01T09:49:08.999Z</time></trkpt><trkpt lat="42.64981891243636" lon="9.266463172790028"><ele>192.0</ele><time>2026-05-01T09:49:09.999Z</time></trkpt><trkpt lat="42.649813088746555" lon="9.266254465092556"><ele>192.0</ele><time>2026-05-01T09:49:10.999Z</time></trkpt><trkpt lat="42.64986696883082" lon="9.26601726475321"><ele>192.0</ele><time>2026-05-01T09:49:11.999Z</time></trkpt><trkpt lat="42.64998550558491" lon="9.265445185426922"><ele>191.0</ele><time>2026-05-01T09:49:13.999Z</time></trkpt><trkpt lat="42.65007877903246" lon="9.265146937720894"><ele>190.0</ele><time>2026-05-01T09:49:14.999Z</time></trkpt><trkpt lat="42.65016941994514" lon="9.264842916128014"><ele>191.66666666666669</ele><time>2026-05-01T09:49:15.999Z</time></trkpt><trkpt lat="42.6502303937074" lon="9.264548492343245"><ele>193.33333333333334</ele><time>2026-05-01T09:49:16.999Z</time></trkpt><trkpt lat="42.65026631991525" lon="9.26432997930155"><ele>195.0</ele><time>2026-05-01T09:49:17.999Z</time></trkpt><trkpt lat="42.650244570106246" lon="9.26416204136912"><ele>195.0</ele><time>2026-05-01T09:49:18.999Z</time></trkpt><trkpt lat="42.65018285661193" lon="9.263978063132397"><ele>195.0</ele><time>2026-05-01T09:49:19.999Z</time></trkpt><trkpt lat="42.65017605768391" lon="9.263800084493136"><ele>195.0</ele><time>2026-05-01T09:49:20.999Z</time></trkpt><trkpt lat="42.650263898014614" lon="9.26369115129031"><ele>195.0</ele><time>2026-05-01T09:49:21.999Z</time></trkpt><trkpt lat="42.65039491633382" lon="9.263557001580255"><ele>200.33333333333331</ele><time>2026-05-01T09:49:22.999Z</time></trkpt><trkpt lat="42.65048958159098" lon="9.263354105605385"><ele>205.66666666666666</ele><time>2026-05-01T09:49:23.999Z</time></trkpt><trkpt lat="42.65052641860198" lon="9.26310563133132"><ele>211.0</ele><time>2026-05-01T09:49:24.999Z</time></trkpt><trkpt lat="42.65057670257684" lon="9.262868133487752"><ele>211.0</ele><time>2026-05-01T09:49:25.999Z</time></trkpt><trkpt lat="42.65062920452324" lon="9.262688817480935"><ele>211.0</ele><time>2026-05-01T09:49:26.999Z</time></trkpt><trkpt lat="42.65068992621451" lon="9.262549632068405"><ele>211.0</ele><time>2026-05-01T09:49:27.999Z</time></trkpt><trkpt lat="42.65076966790163" lon="9.262441871420721"><ele>211.0</ele><time>2026-05-01T09:49:28.999Z</time></trkpt><trkpt lat="42.65086177441331" lon="9.262356123333552"><ele>211.75</ele><time>2026-05-01T09:49:29.999Z</time></trkpt><trkpt lat="42.650973007755596" lon="9.26227786526906"><ele>212.5</ele><time>2026-05-01T09:49:30.999Z</time></trkpt><trkpt lat="42.651101929718294" lon="9.262210459217231"><ele>213.25</ele><time>2026-05-01T09:49:31.999Z</time></trkpt><trkpt lat="42.651256852863064" lon="9.262100757646344"><ele>214.0</ele><time>2026-05-01T09:49:32.999Z</time></trkpt><trkpt lat="42.65163479381734" lon="9.261746847657507"><ele>216.0</ele><time>2026-05-01T09:49:34.999Z</time></trkpt><trkpt lat="42.65183225801468" lon="9.261563957292113"><ele>218.0</ele><time>2026-05-01T09:49:35.999Z</time></trkpt><trkpt lat="42.651998344672045" lon="9.26134105126662"><ele>219.0</ele><time>2026-05-01T09:49:36.999Z</time></trkpt><trkpt lat="42.65215568326938" lon="9.261076067118829"><ele>220.0</ele><time>2026-05-01T09:49:37.999Z</time></trkpt><trkpt lat="42.652308392441434" lon="9.260796998775028"><ele>220.0</ele><time>2026-05-01T09:49:38.999Z</time></trkpt><trkpt lat="42.652451834861" lon="9.26055584161418"><ele>220.0</ele><time>2026-05-01T09:49:39.999Z</time></trkpt><trkpt lat="42.65259387180206" lon="9.2603367388278"><ele>220.0</ele><time>2026-05-01T09:49:40.999Z</time></trkpt><trkpt lat="42.65275268961816" lon="9.260125887548702"><ele>220.0</ele><time>2026-05-01T09:49:41.999Z</time></trkpt><trkpt lat="42.652929596428066" lon="9.259923520471434"><ele>220.0</ele><time>2026-05-01T09:49:42.999Z</time></trkpt><trkpt lat="42.65311816386181" lon="9.259717901217343"><ele>220.0</ele><time>2026-05-01T09:49:43.999Z</time></trkpt><trkpt lat="42.65330049154279" lon="9.2594989194307"><ele>220.0</ele><time>2026-05-01T09:49:44.999Z</time></trkpt><trkpt lat="42.65347192393374" lon="9.259261173539532"><ele>220.0</ele><time>2026-05-01T09:49:45.999Z</time></trkpt><trkpt lat="42.65365352499198" lon="9.259037059447605"><ele>220.0</ele><time>2026-05-01T09:49:46.999Z</time></trkpt><trkpt lat="42.653837354834934" lon="9.25881563776263"><ele>220.0</ele><time>2026-05-01T09:49:47.999Z</time></trkpt><trkpt lat="42.65402096367713" lon="9.258595950245617"><ele>220.0</ele><time>2026-05-01T09:49:48.999Z</time></trkpt><trkpt lat="42.65420268040457" lon="9.25837260920473"><ele>220.0</ele><time>2026-05-01T09:49:49.999Z</time></trkpt><trkpt lat="42.65438273011295" lon="9.258153548920617"><ele>220.0</ele><time>2026-05-01T09:49:50.999Z</time></trkpt><trkpt lat="42.65455255686214" lon="9.257950068111715"><ele>219.33333333333331</ele><time>2026-05-01T09:49:51.999Z</time></trkpt><trkpt lat="42.65470984905383" lon="9.257759558808791"><ele>218.66666666666669</ele><time>2026-05-01T09:49:52.999Z</time></trkpt><trkpt lat="42.65484069700616" lon="9.257573643543996"><ele>218.0</ele><time>2026-05-01T09:49:53.999Z</time></trkpt><trkpt lat="42.654961955867314" lon="9.257096271017728"><ele>218.0</ele><time>2026-05-01T09:49:55.999Z</time></trkpt><trkpt lat="42.654955730932464" lon="9.25681711367447"><ele>218.0</ele><time>2026-05-01T09:49:56.999Z</time></trkpt><trkpt lat="42.6548989931077" lon="9.256535485224125"><ele>218.0</ele><time>2026-05-01T09:49:57.999Z</time></trkpt><trkpt lat="42.65481281587526" lon="9.256253667649867"><ele>218.0</ele><time>2026-05-01T09:49:58.999Z</time></trkpt><trkpt lat="42.65474786228019" lon="9.2559950720305"><ele>218.0</ele><time>2026-05-01T09:49:59.999Z</time></trkpt><trkpt lat="42.654737559893476" lon="9.255766779503348"><ele>218.0</ele><time>2026-05-01T09:50:00.999Z</time></trkpt><trkpt lat="42.65479432122649" lon="9.255571034051584"><ele>219.33333333333334</ele><time>2026-05-01T09:50:01.999Z</time></trkpt><trkpt lat="42.654913689499836" lon="9.255378149471277"><ele>220.66666666666669</ele><time>2026-05-01T09:50:02.999Z</time></trkpt><trkpt lat="42.65507847102049" lon="9.255163146275805"><ele>222.0</ele><time>2026-05-01T09:50:03.999Z</time></trkpt><trkpt lat="42.65524215398307" lon="9.254906192045603"><ele>221.5</ele><time>2026-05-01T09:50:04.999Z</time></trkpt><trkpt lat="42.65539102688132" lon="9.254611271225366"><ele>221.0</ele><time>2026-05-01T09:50:05.999Z</time></trkpt><trkpt lat="42.65552482548843" lon="9.254292864465844"><ele>221.0</ele><time>2026-05-01T09:50:06.999Z</time></trkpt><trkpt lat="42.65567247992809" lon="9.254034520949496"><ele>221.0</ele><time>2026-05-01T09:50:07.999Z</time></trkpt><trkpt lat="42.65586698278042" lon="9.253805857662337"><ele>219.5</ele><time>2026-05-01T09:50:08.999Z</time></trkpt><trkpt lat="42.65607928698926" lon="9.253551753307498"><ele>218.0</ele><time>2026-05-01T09:50:09.999Z</time></trkpt><trkpt lat="42.65628144250198" lon="9.253283086387254"><ele>219.5</ele><time>2026-05-01T09:50:10.999Z</time></trkpt><trkpt lat="42.65645892107234" lon="9.25299997220028"><ele>221.0</ele><time>2026-05-01T09:50:11.999Z</time></trkpt><trkpt lat="42.65659436741912" lon="9.25270571474122"><ele>221.0</ele><time>2026-05-01T09:50:12.999Z</time></trkpt><trkpt lat="42.656686667859354" lon="9.252448565194214"><ele>221.0</ele><time>2026-05-01T09:50:13.999Z</time></trkpt><trkpt lat="42.6567159689111" lon="9.252217402834967"><ele>221.0</ele><time>2026-05-01T09:50:14.999Z</time></trkpt><trkpt lat="42.656716257786705" lon="9.251663871849347"><ele>222.0</ele><time>2026-05-01T09:50:16.999Z</time></trkpt><trkpt lat="42.656806768910805" lon="9.251390421958293"><ele>223.0</ele><time>2026-05-01T09:50:17.999Z</time></trkpt><trkpt lat="42.656894798039296" lon="9.251178058325843"><ele>224.0</ele><time>2026-05-01T09:50:18.999Z</time></trkpt><trkpt lat="42.65689829439038" lon="9.250994465166073"><ele>224.0</ele><time>2026-05-01T09:50:19.999Z</time></trkpt><trkpt lat="42.656809787472774" lon="9.250841867024311"><ele>224.0</ele><time>2026-05-01T09:50:20.999Z</time></trkpt><trkpt lat="42.656669922062896" lon="9.250691118899695"><ele>224.0</ele><time>2026-05-01T09:50:21.999Z</time></trkpt><trkpt lat="42.65657619352076" lon="9.250494483382285"><ele>223.33333333333334</ele><time>2026-05-01T09:50:22.999Z</time></trkpt><trkpt lat="42.656567855512854" lon="9.250236868815223"><ele>222.66666666666669</ele><time>2026-05-01T09:50:23.999Z</time></trkpt><trkpt lat="42.656597502801354" lon="9.249926284929973"><ele>222.0</ele><time>2026-05-01T09:50:24.999Z</time></trkpt><trkpt lat="42.656596122150845" lon="9.249574479186577"><ele>222.0</ele><time>2026-05-01T09:50:25.999Z</time></trkpt><trkpt lat="42.65657586020734" lon="9.249206051800654"><ele>222.0</ele><time>2026-05-01T09:50:26.999Z</time></trkpt><trkpt lat="42.65658782062077" lon="9.248874451684282"><ele>223.5</ele><time>2026-05-01T09:50:27.999Z</time></trkpt><trkpt lat="42.656658626715625" lon="9.248563538171908"><ele>225.0</ele><time>2026-05-01T09:50:28.999Z</time></trkpt><trkpt lat="42.65673755342008" lon="9.248240919116737"><ele>225.5</ele><time>2026-05-01T09:50:29.999Z</time></trkpt><trkpt lat="42.65675369428055" lon="9.247892249138458"><ele>226.0</ele><time>2026-05-01T09:50:30.999Z</time></trkpt><trkpt lat="42.65670891848909" lon="9.247551596523781"><ele>225.5</ele><time>2026-05-01T09:50:31.999Z</time></trkpt><trkpt lat="42.65661821888052" lon="9.247216498400311"><ele>225.0</ele><time>2026-05-01T09:50:32.999Z</time></trkpt><trkpt lat="42.656511979665765" lon="9.24691593748255"><ele>225.0</ele><time>2026-05-01T09:50:33.999Z</time></trkpt><trkpt lat="42.65641091572761" lon="9.24668415331141"><ele>225.0</ele><time>2026-05-01T09:50:34.999Z</time></trkpt><trkpt lat="42.656304831184585" lon="9.246519725449632"><ele>225.0</ele><time>2026-05-01T09:50:35.999Z</time></trkpt><trkpt lat="42.656220704495304" lon="9.246285791749914"><ele>227.0</ele><time>2026-05-01T09:50:37.999Z</time></trkpt><trkpt lat="42.65627003611021" lon="9.246171167783666"><ele>229.0</ele><time>2026-05-01T09:50:38.999Z</time></trkpt><trkpt lat="42.65635911965553" lon="9.24609690153935"><ele>231.0</ele><time>2026-05-01T09:50:39.999Z</time></trkpt><trkpt lat="42.65648454912622" lon="9.246079280687166"><ele>233.0</ele><time>2026-05-01T09:50:40.999Z</time></trkpt><trkpt lat="42.656646643001054" lon="9.246121980698154"><ele>233.0</ele><time>2026-05-01T09:50:41.999Z</time></trkpt><trkpt lat="42.65683531535502" lon="9.246142180472962"><ele>233.0</ele><time>2026-05-01T09:50:42.999Z</time></trkpt><trkpt lat="42.65705447232463" lon="9.246073955548884"><ele>233.0</ele><time>2026-05-01T09:50:43.999Z</time></trkpt><trkpt lat="42.657283463138455" lon="9.245968737203425"><ele>234.0</ele><time>2026-05-01T09:50:44.999Z</time></trkpt><trkpt lat="42.65747690330226" lon="9.2458784327946"><ele>235.0</ele><time>2026-05-01T09:50:45.999Z</time></trkpt><trkpt lat="42.65762864782888" lon="9.245760174018216"><ele>236.0</ele><time>2026-05-01T09:50:46.999Z</time></trkpt><trkpt lat="42.65776580657424" lon="9.245543431923805"><ele>232.5</ele><time>2026-05-01T09:50:47.999Z</time></trkpt><trkpt lat="42.65790762925981" lon="9.24525571084317"><ele>229.0</ele><time>2026-05-01T09:50:48.999Z</time></trkpt><trkpt lat="42.65807724577895" lon="9.244976512853338"><ele>234.0</ele><time>2026-05-01T09:50:49.999Z</time></trkpt><trkpt lat="42.65826887220237" lon="9.244743360018894"><ele>239.0</ele><time>2026-05-01T09:50:50.999Z</time></trkpt><trkpt lat="42.658439981004264" lon="9.244597786533802"><ele>239.0</ele><time>2026-05-01T09:50:51.999Z</time></trkpt><trkpt lat="42.65858657034609" lon="9.244551868383338"><ele>239.0</ele><time>2026-05-01T09:50:52.999Z</time></trkpt><trkpt lat="42.65873203343167" lon="9.244587476679904"><ele>239.0</ele><time>2026-05-01T09:50:54Z</time></trkpt><trkpt lat="42.65887916387584" lon="9.244612798168003"><ele>239.0</ele><time>2026-05-01T09:50:55Z</time></trkpt><trkpt lat="42.65901288342607" lon="9.244520277806254"><ele>237.5</ele><time>2026-05-01T09:50:56Z</time></trkpt><trkpt lat="42.659086933929174" lon="9.24434584993073"><ele>236.0</ele><time>2026-05-01T09:50:57Z</time></trkpt><trkpt lat="42.659161604938994" lon="9.243812841432511"><ele>236.0</ele><time>2026-05-01T09:50:59Z</time></trkpt><trkpt lat="42.659214212742" lon="9.24350951778106"><ele>236.0</ele><time>2026-05-01T09:51:00Z</time></trkpt><trkpt lat="42.65927679892302" lon="9.243263424078537"><ele>236.0</ele><time>2026-05-01T09:51:01Z</time></trkpt><trkpt lat="42.65935599968348" lon="9.243092809207235"><ele>236.0</ele><time>2026-05-01T09:51:02Z</time></trkpt><trkpt lat="42.65949198276929" lon="9.242973696114593"><ele>236.0</ele><time>2026-05-01T09:51:03Z</time></trkpt><trkpt lat="42.65964856447377" lon="9.24289960107709"><ele>236.0</ele><time>2026-05-01T09:51:04Z</time></trkpt><trkpt lat="42.65977592264148" lon="9.242834862563086"><ele>236.0</ele><time>2026-05-01T09:51:05Z</time></trkpt><trkpt lat="42.65987805547717" lon="9.242771210389604"><ele>236.00000000000003</ele><time>2026-05-01T09:51:06Z</time></trkpt><trkpt lat="42.65997027024429" lon="9.24271304998729"><ele>236.00000000000003</ele><time>2026-05-01T09:51:07Z</time></trkpt><trkpt lat="42.6600805732254" lon="9.242661817974012"><ele>236.0</ele><time>2026-05-01T09:51:08Z</time></trkpt><trkpt lat="42.660194277882326" lon="9.242642305245742"><ele>236.0</ele><time>2026-05-01T09:51:09Z</time></trkpt><trkpt lat="42.66029589288191" lon="9.242651732903527"><ele>234.8</ele><time>2026-05-01T09:51:10Z</time></trkpt><trkpt lat="42.66038536609731" lon="9.242671399542598"><ele>233.60000000000002</ele><time>2026-05-01T09:51:11Z</time></trkpt><trkpt lat="42.66047587164745" lon="9.24266227369586"><ele>232.4</ele><time>2026-05-01T09:51:12Z</time></trkpt><trkpt lat="42.66057236588023" lon="9.24262742330381"><ele>231.2</ele><time>2026-05-01T09:51:13Z</time></trkpt><trkpt lat="42.660662490319766" lon="9.242559115588348"><ele>230.0</ele><time>2026-05-01T09:51:14Z</time></trkpt><trkpt lat="42.66073727798687" lon="9.242459559048699"><ele>230.0</ele><time>2026-05-01T09:51:15Z</time></trkpt><trkpt lat="42.660792892017035" lon="9.242341897100344"><ele>230.0</ele><time>2026-05-01T09:51:16Z</time></trkpt><trkpt lat="42.66081802367449" lon="9.242237611043041"><ele>230.0</ele><time>2026-05-01T09:51:17Z</time></trkpt><trkpt lat="42.660836886043036" lon="9.24213625033884"><ele>230.0</ele><time>2026-05-01T09:51:19Z</time></trkpt><trkpt lat="42.66090317853204" lon="9.241893009092198"><ele>230.33333333333334</ele><time>2026-05-01T09:51:23Z</time></trkpt><trkpt lat="42.66090906124859" lon="9.241735559183224"><ele>230.66666666666669</ele><time>2026-05-01T09:51:25Z</time></trkpt><trkpt lat="42.66088971970087" lon="9.241579305404507"><ele>231.0</ele><time>2026-05-01T09:51:27Z</time></trkpt><trkpt lat="42.66086766491877" lon="9.241492292714467"><ele>231.33333333333331</ele><time>2026-05-01T09:51:28Z</time></trkpt><trkpt lat="42.66084742263538" lon="9.241404015459745"><ele>231.66666666666666</ele><time>2026-05-01T09:51:29Z</time></trkpt><trkpt lat="42.660826409009104" lon="9.241316143079564"><ele>232.0</ele><time>2026-05-01T09:51:30Z</time></trkpt><trkpt lat="42.660803500885685" lon="9.24121709744867"><ele>231.99999999999997</ele><time>2026-05-01T09:51:31Z</time></trkpt><trkpt lat="42.6607860652804" lon="9.241121232815715"><ele>232.0</ele><time>2026-05-01T09:51:32Z</time></trkpt><trkpt lat="42.66079138688338" lon="9.24098613875911"><ele>232.0</ele><time>2026-05-01T09:51:34Z</time></trkpt><trkpt lat="42.660796198301924" lon="9.240887087044658"><ele>232.0</ele><time>2026-05-01T09:51:35.999Z</time></trkpt><trkpt lat="42.66080332239267" lon="9.240793304317908"><ele>231.99999999999997</ele><time>2026-05-01T09:51:37.999Z</time></trkpt><trkpt lat="42.66081272084393" lon="9.240673552291247"><ele>232.0</ele><time>2026-05-01T09:51:39.999Z</time></trkpt><trkpt lat="42.660838026580876" lon="9.24039561056632"><ele>232.00000000000003</ele><time>2026-05-01T09:51:42.999Z</time></trkpt><trkpt lat="42.66084560658299" lon="9.24030287862678"><ele>232.0</ele><time>2026-05-01T09:51:43.999Z</time></trkpt><trkpt lat="42.66083960854794" lon="9.240199094086439"><ele>232.00000000000003</ele><time>2026-05-01T09:51:44.999Z</time></trkpt><trkpt lat="42.660822989681854" lon="9.240103767501331"><ele>232.00000000000003</ele><time>2026-05-01T09:51:45.999Z</time></trkpt><trkpt lat="42.66079096370499" lon="9.240015118910254"><ele>232.0</ele><time>2026-05-01T09:51:46.999Z</time></trkpt><trkpt lat="42.66074346337109" lon="9.239941881385562"><ele>232.00000000000003</ele><time>2026-05-01T09:51:47.999Z</time></trkpt><trkpt lat="42.66068448672618" lon="9.239890823370013"><ele>232.00000000000003</ele><time>2026-05-01T09:51:48.999Z</time></trkpt><trkpt lat="42.6606236716193" lon="9.239847786677714"><ele>231.99999999999997</ele><time>2026-05-01T09:51:49.999Z</time></trkpt><trkpt lat="42.66055560767855" lon="9.239805464770965"><ele>232.0</ele><time>2026-05-01T09:51:50.999Z</time></trkpt><trkpt lat="42.66049199563411" lon="9.239755283867094"><ele>232.0</ele><time>2026-05-01T09:51:51.999Z</time></trkpt><trkpt lat="42.66044356156239" lon="9.239673438139807"><ele>232.0</ele><time>2026-05-01T09:51:52.999Z</time></trkpt><trkpt lat="42.66041706659252" lon="9.239584894834971"><ele>231.99999999999997</ele><time>2026-05-01T09:51:53.999Z</time></trkpt><trkpt lat="42.66043478054137" lon="9.239416954285558"><ele>232.0</ele><time>2026-05-01T09:51:55.999Z</time></trkpt><trkpt lat="42.66051024535576" lon="9.239278618218888"><ele>232.2</ele><time>2026-05-01T09:51:57.999Z</time></trkpt><trkpt lat="42.66056569794528" lon="9.239214451793568"><ele>232.39999999999998</ele><time>2026-05-01T09:51:58.999Z</time></trkpt><trkpt lat="42.6606304782209" lon="9.239154874714465"><ele>232.60000000000002</ele><time>2026-05-01T09:51:59.999Z</time></trkpt><trkpt lat="42.66069116344509" lon="9.23909060584469"><ele>232.8</ele><time>2026-05-01T09:52:00.999Z</time></trkpt><trkpt lat="42.66081695681755" lon="9.238961434841594"><ele>233.0</ele><time>2026-05-01T09:52:02.999Z</time></trkpt><trkpt lat="42.66088252026919" lon="9.23888966265947"><ele>233.60000000000002</ele><time>2026-05-01T09:52:03.999Z</time></trkpt><trkpt lat="42.660952439043946" lon="9.238821186914496"><ele>234.20000000000002</ele><time>2026-05-01T09:52:04.999Z</time></trkpt><trkpt lat="42.661032581357794" lon="9.238756669739383"><ele>234.8</ele><time>2026-05-01T09:52:05.999Z</time></trkpt><trkpt lat="42.66111943364274" lon="9.238714511915742"><ele>235.4</ele><time>2026-05-01T09:52:06.999Z</time></trkpt><trkpt lat="42.66121072088511" lon="9.238686488021958"><ele>236.0</ele><time>2026-05-01T09:52:07.999Z</time></trkpt><trkpt lat="42.661300657112974" lon="9.238670526180522"><ele>236.00000000000003</ele><time>2026-05-01T09:52:08.999Z</time></trkpt><trkpt lat="42.66139256700582" lon="9.238672942794533"><ele>236.0</ele><time>2026-05-01T09:52:09.999Z</time></trkpt><trkpt lat="42.66148560130964" lon="9.238667181359341"><ele>236.0</ele><time>2026-05-01T09:52:10.999Z</time></trkpt><trkpt lat="42.6615730250974" lon="9.238642221746648"><ele>236.0</ele><time>2026-05-01T09:52:11.999Z</time></trkpt><trkpt lat="42.66165062710379" lon="9.238592244737"><ele>236.00000000000003</ele><time>2026-05-01T09:52:12.999Z</time></trkpt><trkpt lat="42.661700677009776" lon="9.238516490452882"><ele>236.0</ele><time>2026-05-01T09:52:13.999Z</time></trkpt><trkpt lat="42.661737006937386" lon="9.238426267608387"><ele>236.0</ele><time>2026-05-01T09:52:14.999Z</time></trkpt><trkpt lat="42.661759113883086" lon="9.238319441294337"><ele>236.00000000000003</ele><time>2026-05-01T09:52:15.999Z</time></trkpt><trkpt lat="42.66176808119644" lon="9.238218812939209"><ele>236.00000000000003</ele><time>2026-05-01T09:52:16.999Z</time></trkpt><trkpt lat="42.661778426626974" lon="9.238079381108603"><ele>236.0</ele><time>2026-05-01T09:52:18.999Z</time></trkpt><trkpt lat="42.66178953543082" lon="9.237961643314604"><ele>236.0</ele><time>2026-05-01T09:52:21.999Z</time></trkpt><trkpt lat="42.66181419452994" lon="9.237686516319322"><ele>236.33333333333334</ele><time>2026-05-01T09:52:26.999Z</time></trkpt><trkpt lat="42.661822014706246" lon="9.237596731919666"><ele>236.66666666666669</ele><time>2026-05-01T09:52:27.999Z</time></trkpt><trkpt lat="42.66181785689328" lon="9.237507825380359"><ele>237.0</ele><time>2026-05-01T09:52:28.999Z</time></trkpt><trkpt lat="42.66179624998" lon="9.237364925385526"><ele>237.33333333333331</ele><time>2026-05-01T09:52:30.999Z</time></trkpt><trkpt lat="42.66175489601013" lon="9.23723282639733"><ele>237.66666666666666</ele><time>2026-05-01T09:52:32.999Z</time></trkpt><trkpt lat="42.66171833003863" lon="9.237155084319191"><ele>238.0</ele><time>2026-05-01T09:52:33.999Z</time></trkpt><trkpt lat="42.66167272800264" lon="9.237072070681556"><ele>237.0</ele><time>2026-05-01T09:52:34.999Z</time></trkpt><trkpt lat="42.661615947777484" lon="9.23699004800631"><ele>236.0</ele><time>2026-05-01T09:52:35.999Z</time></trkpt><trkpt lat="42.661545376742076" lon="9.236908209326712"><ele>235.0</ele><time>2026-05-01T09:52:36.999Z</time></trkpt><trkpt lat="42.66146360904438" lon="9.236829544995226"><ele>234.0</ele><time>2026-05-01T09:52:37.999Z</time></trkpt><trkpt lat="42.661368774629125" lon="9.236754132621481"><ele>233.0</ele><time>2026-05-01T09:52:38.999Z</time></trkpt><trkpt lat="42.66127940114483" lon="9.236685173075962"><ele>233.0</ele><time>2026-05-01T09:52:39.999Z</time></trkpt><trkpt lat="42.66120418135452" lon="9.236621006610465"><ele>233.0</ele><time>2026-05-01T09:52:40.999Z</time></trkpt><trkpt lat="42.6611370249259" lon="9.236559801979585"><ele>233.0</ele><time>2026-05-01T09:52:41.999Z</time></trkpt><trkpt lat="42.66105397709211" lon="9.236500435603917"><ele>233.0</ele><time>2026-05-01T09:52:42.999Z</time></trkpt><trkpt lat="42.66082918879664" lon="9.236365281402533"><ele>231.5</ele><time>2026-05-01T09:52:44.999Z</time></trkpt><trkpt lat="42.66070791402266" lon="9.23629224492423"><ele>230.0</ele><time>2026-05-01T09:52:45.999Z</time></trkpt><trkpt lat="42.66057961756141" lon="9.236206958502702"><ele>228.5</ele><time>2026-05-01T09:52:46.999Z</time></trkpt><trkpt lat="42.66046159463819" lon="9.236087877734178"><ele>227.0</ele><time>2026-05-01T09:52:47.999Z</time></trkpt><trkpt lat="42.66036412913032" lon="9.235927759004033"><ele>228.33333333333334</ele><time>2026-05-01T09:52:48.999Z</time></trkpt><trkpt lat="42.66027556233531" lon="9.235750402316723"><ele>229.66666666666669</ele><time>2026-05-01T09:52:50Z</time></trkpt><trkpt lat="42.66018395841898" lon="9.235573091945582"><ele>231.0</ele><time>2026-05-01T09:52:51Z</time></trkpt><trkpt lat="42.660080343486854" lon="9.235399752631343"><ele>231.0</ele><time>2026-05-01T09:52:52Z</time></trkpt><trkpt lat="42.65996676176564" lon="9.235231204340566"><ele>231.0</ele><time>2026-05-01T09:52:53Z</time></trkpt><trkpt lat="42.659841449683974" lon="9.235075166909777"><ele>231.0</ele><time>2026-05-01T09:52:54Z</time></trkpt><trkpt lat="42.659705205428416" lon="9.234918980578229"><ele>228.66666666666669</ele><time>2026-05-01T09:52:55Z</time></trkpt><trkpt lat="42.65957441216904" lon="9.234769881976257"><ele>226.33333333333334</ele><time>2026-05-01T09:52:56Z</time></trkpt><trkpt lat="42.65945546447344" lon="9.2346235294307"><ele>224.0</ele><time>2026-05-01T09:52:57Z</time></trkpt><trkpt lat="42.65935556456344" lon="9.234473937930625"><ele>229.33333333333334</ele><time>2026-05-01T09:52:58Z</time></trkpt><trkpt lat="42.65926007400963" lon="9.234322352569361"><ele>234.66666666666669</ele><time>2026-05-01T09:52:59Z</time></trkpt><trkpt lat="42.65915959102429" lon="9.234166351712524"><ele>240.0</ele><time>2026-05-01T09:53:00Z</time></trkpt><trkpt lat="42.65905295937071" lon="9.234018143653367"><ele>238.5</ele><time>2026-05-01T09:53:01Z</time></trkpt><trkpt lat="42.65896279118302" lon="9.233869351925044"><ele>237.0</ele><time>2026-05-01T09:53:02Z</time></trkpt><trkpt lat="42.658886931704735" lon="9.233723380620452"><ele>235.5</ele><time>2026-05-01T09:53:03Z</time></trkpt><trkpt lat="42.658813257950285" lon="9.233578903066539"><ele>234.0</ele><time>2026-05-01T09:53:04Z</time></trkpt><trkpt lat="42.65870912858942" lon="9.233227117046448"><ele>235.75</ele><time>2026-05-01T09:53:06Z</time></trkpt><trkpt lat="42.65867079037894" lon="9.233039046599337"><ele>237.5</ele><time>2026-05-01T09:53:07Z</time></trkpt><trkpt lat="42.65863799357264" lon="9.23285554319096"><ele>239.25</ele><time>2026-05-01T09:53:08Z</time></trkpt><trkpt lat="42.65863612775766" lon="9.232678138837178"><ele>241.0</ele><time>2026-05-01T09:53:09Z</time></trkpt><trkpt lat="42.65866776715683" lon="9.232504019691433"><ele>241.0</ele><time>2026-05-01T09:53:10Z</time></trkpt><trkpt lat="42.65872995242242" lon="9.232354997286658"><ele>241.0</ele><time>2026-05-01T09:53:11Z</time></trkpt><trkpt lat="42.658826424502564" lon="9.232254730137704"><ele>241.0</ele><time>2026-05-01T09:53:12Z</time></trkpt><trkpt lat="42.65895053543408" lon="9.232180881509592"><ele>241.0</ele><time>2026-05-01T09:53:13Z</time></trkpt><trkpt lat="42.659085189270286" lon="9.232111773772417"><ele>244.66666666666666</ele><time>2026-05-01T09:53:14Z</time></trkpt><trkpt lat="42.659223772698176" lon="9.23203158455788"><ele>248.33333333333331</ele><time>2026-05-01T09:53:15Z</time></trkpt><trkpt lat="42.659363081142224" lon="9.231967691718207"><ele>252.0</ele><time>2026-05-01T09:53:16Z</time></trkpt><trkpt lat="42.65951782744721" lon="9.23195016490313"><ele>252.0</ele><time>2026-05-01T09:53:17Z</time></trkpt><trkpt lat="42.65967287502469" lon="9.231964218820215"><ele>252.0</ele><time>2026-05-01T09:53:18Z</time></trkpt><trkpt lat="42.659809271910575" lon="9.231966414708392"><ele>252.0</ele><time>2026-05-01T09:53:19Z</time></trkpt><trkpt lat="42.659921525615815" lon="9.231955073298057"><ele>252.0</ele><time>2026-05-01T09:53:20Z</time></trkpt><trkpt lat="42.6600020734773" lon="9.231941398641546"><ele>252.0</ele><time>2026-05-01T09:53:21Z</time></trkpt><trkpt lat="42.66006689617735" lon="9.231924090933205"><ele>252.0</ele><time>2026-05-01T09:53:22Z</time></trkpt><trkpt lat="42.660131147815974" lon="9.231903492969792"><ele>252.0</ele><time>2026-05-01T09:53:23Z</time></trkpt><trkpt lat="42.66022589242269" lon="9.2318682616422"><ele>252.0</ele><time>2026-05-01T09:53:25Z</time></trkpt><trkpt lat="42.66037987345516" lon="9.231750323209374"><ele>252.0</ele><time>2026-05-01T09:53:29Z</time></trkpt><trkpt lat="42.66045523051869" lon="9.231657157148616"><ele>250.8</ele><time>2026-05-01T09:53:31Z</time></trkpt><trkpt lat="42.660535153314356" lon="9.23150991656686"><ele>249.6</ele><time>2026-05-01T09:53:33Z</time></trkpt><trkpt lat="42.660565586074334" lon="9.231416888761299"><ele>248.40000000000003</ele><time>2026-05-01T09:53:34Z</time></trkpt><trkpt lat="42.6605869606145" lon="9.231304683833825"><ele>247.20000000000002</ele><time>2026-05-01T09:53:35Z</time></trkpt><trkpt lat="42.66060624287148" lon="9.23117620156268"><ele>246.0</ele><time>2026-05-01T09:53:36Z</time></trkpt><trkpt lat="42.66061495251639" lon="9.231032992886792"><ele>246.0</ele><time>2026-05-01T09:53:37Z</time></trkpt><trkpt lat="42.66062473003969" lon="9.230879024258774"><ele>246.00000000000003</ele><time>2026-05-01T09:53:38Z</time></trkpt><trkpt lat="42.660641287452975" lon="9.230724750252461"><ele>246.00000000000003</ele><time>2026-05-01T09:53:39Z</time></trkpt><trkpt lat="42.66066329172635" lon="9.230588209650138"><ele>246.0</ele><time>2026-05-01T09:53:40Z</time></trkpt><trkpt lat="42.66068716019382" lon="9.230457561295653"><ele>246.0</ele><time>2026-05-01T09:53:41Z</time></trkpt><trkpt lat="42.6607033282257" lon="9.230330363014533"><ele>248.20000000000002</ele><time>2026-05-01T09:53:42Z</time></trkpt><trkpt lat="42.660719208168054" lon="9.230209759314201"><ele>250.40000000000003</ele><time>2026-05-01T09:53:43Z</time></trkpt><trkpt lat="42.660735032759845" lon="9.230096014435428"><ele>252.6</ele><time>2026-05-01T09:53:44Z</time></trkpt><trkpt lat="42.660764656792615" lon="9.229981884493323"><ele>254.8</ele><time>2026-05-01T09:53:45Z</time></trkpt><trkpt lat="42.66079934654428" lon="9.229884868003301"><ele>257.0</ele><time>2026-05-01T09:53:46Z</time></trkpt><trkpt lat="42.66089969404119" lon="9.229758699778449"><ele>257.5</ele><time>2026-05-01T09:53:47.999Z</time></trkpt><trkpt lat="42.66097055138396" lon="9.229721103740063"><ele>258.0</ele><time>2026-05-01T09:53:48.999Z</time></trkpt><trkpt lat="42.66105428782799" lon="9.22971575697831"><ele>258.5</ele><time>2026-05-01T09:53:49.999Z</time></trkpt><trkpt lat="42.66114206001873" lon="9.229744495883391"><ele>259.0</ele><time>2026-05-01T09:53:50.999Z</time></trkpt><trkpt lat="42.66121561432468" lon="9.22980578232011"><ele>259.5</ele><time>2026-05-01T09:53:51.999Z</time></trkpt><trkpt lat="42.66126489684968" lon="9.229881321635265"><ele>260.0</ele><time>2026-05-01T09:53:52.999Z</time></trkpt><trkpt lat="42.66130564066631" lon="9.229959365649949"><ele>260.0</ele><time>2026-05-01T09:53:53.999Z</time></trkpt><trkpt lat="42.661336701633886" lon="9.230035020297052"><ele>260.0</ele><time>2026-05-01T09:53:54.999Z</time></trkpt><trkpt lat="42.661393029896395" lon="9.230161277227097"><ele>260.0</ele><time>2026-05-01T09:53:56.999Z</time></trkpt><trkpt lat="42.66146241540037" lon="9.230277935332301"><ele>260.0</ele><time>2026-05-01T09:53:58.999Z</time></trkpt><trkpt lat="42.66155839782908" lon="9.230371536387779"><ele>260.0</ele><time>2026-05-01T09:54:00.999Z</time></trkpt><trkpt lat="42.66162133868588" lon="9.230407327686718"><ele>260.0</ele><time>2026-05-01T09:54:01.999Z</time></trkpt><trkpt lat="42.66172266032714" lon="9.230443030901107"><ele>260.0</ele><time>2026-05-01T09:54:03.999Z</time></trkpt><trkpt lat="42.661824981181866" lon="9.230476294445884"><ele>260.0</ele><time>2026-05-01T09:54:05.999Z</time></trkpt><trkpt lat="42.661911948291724" lon="9.23050456395888"><ele>260.0</ele><time>2026-05-01T09:54:07.999Z</time></trkpt><trkpt lat="42.66212755574812" lon="9.23053705631814"><ele>261.33333333333337</ele><time>2026-05-01T09:54:11.999Z</time></trkpt><trkpt lat="42.662239287651865" lon="9.230501668674698"><ele>262.6666666666667</ele><time>2026-05-01T09:54:13.999Z</time></trkpt><trkpt lat="42.662321886030725" lon="9.230473125797163"><ele>264.0</ele><time>2026-05-01T09:54:15.999Z</time></trkpt><trkpt lat="42.662414136733524" lon="9.230448241804512"><ele>265.3333333333333</ele><time>2026-05-01T09:54:17.999Z</time></trkpt><trkpt lat="42.662476361515196" lon="9.230428293942015"><ele>266.66666666666663</ele><time>2026-05-01T09:54:18.999Z</time></trkpt><trkpt lat="42.66254994339527" lon="9.230413307630277"><ele>268.0</ele><time>2026-05-01T09:54:19.999Z</time></trkpt><trkpt lat="42.66266364051925" lon="9.230438758264885"><ele>268.0</ele><time>2026-05-01T09:54:21.999Z</time></trkpt><trkpt lat="42.66278191174751" lon="9.230474432076159"><ele>268.0</ele><time>2026-05-01T09:54:23.999Z</time></trkpt><trkpt lat="42.66290446612367" lon="9.230507101775304"><ele>268.0</ele><time>2026-05-01T09:54:25.999Z</time></trkpt><trkpt lat="42.66297748848251" lon="9.230507871156426"><ele>268.0</ele><time>2026-05-01T09:54:26.999Z</time></trkpt><trkpt lat="42.66305456139042" lon="9.230479829387008"><ele>268.0</ele><time>2026-05-01T09:54:27.999Z</time></trkpt><trkpt lat="42.66312861956932" lon="9.23043318700174"><ele>268.0</ele><time>2026-05-01T09:54:28.999Z</time></trkpt><trkpt lat="42.663271723692695" lon="9.230310318181132"><ele>268.0</ele><time>2026-05-01T09:54:30.999Z</time></trkpt><trkpt lat="42.66333832454819" lon="9.230258137477461"><ele>268.0</ele><time>2026-05-01T09:54:31.999Z</time></trkpt><trkpt lat="42.663405765796945" lon="9.230223423046887"><ele>268.0</ele><time>2026-05-01T09:54:32.999Z</time></trkpt><trkpt lat="42.66347257477017" lon="9.230195120050132"><ele>268.0</ele><time>2026-05-01T09:54:33.999Z</time></trkpt><trkpt lat="42.66353229076102" lon="9.230167448456301"><ele>268.0</ele><time>2026-05-01T09:54:34.999Z</time></trkpt><trkpt lat="42.66359487916945" lon="9.230134014454105"><ele>268.0</ele><time>2026-05-01T09:54:35.999Z</time></trkpt><trkpt lat="42.66365727143057" lon="9.230082375755254"><ele>268.0</ele><time>2026-05-01T09:54:36.999Z</time></trkpt><trkpt lat="42.663719626357626" lon="9.230026753896034"><ele>268.0</ele><time>2026-05-01T09:54:37.999Z</time></trkpt><trkpt lat="42.663775234661806" lon="9.22996226458077"><ele>268.0</ele><time>2026-05-01T09:54:38.999Z</time></trkpt><trkpt lat="42.66382656241079" lon="9.229885323179845"><ele>268.0</ele><time>2026-05-01T09:54:39.999Z</time></trkpt><trkpt lat="42.66387880217232" lon="9.229799267574405"><ele>268.0</ele><time>2026-05-01T09:54:40.999Z</time></trkpt><trkpt lat="42.66393471898846" lon="9.229698056095122"><ele>268.2</ele><time>2026-05-01T09:54:41.999Z</time></trkpt><trkpt lat="42.6639981683934" lon="9.229599903243766"><ele>268.4</ele><time>2026-05-01T09:54:42.999Z</time></trkpt><trkpt lat="42.66407291617266" lon="9.229489284734392"><ele>268.59999999999997</ele><time>2026-05-01T09:54:43.999Z</time></trkpt><trkpt lat="42.6641529164337" lon="9.229380498992889"><ele>268.8</ele><time>2026-05-01T09:54:44.999Z</time></trkpt><trkpt lat="42.66422947386293" lon="9.229267139299907"><ele>269.0</ele><time>2026-05-01T09:54:45.999Z</time></trkpt><trkpt lat="42.66429844380782" lon="9.229131450281487"><ele>271.25</ele><time>2026-05-01T09:54:46.999Z</time></trkpt><trkpt lat="42.66435674781566" lon="9.228975019607837"><ele>273.5</ele><time>2026-05-01T09:54:47.999Z</time></trkpt><trkpt lat="42.66441031434302" lon="9.228803230892826"><ele>275.75</ele><time>2026-05-01T09:54:48.999Z</time></trkpt><trkpt lat="42.664464626683355" lon="9.228627623024876"><ele>278.0</ele><time>2026-05-01T09:54:49.999Z</time></trkpt><trkpt lat="42.664570636161066" lon="9.228302377348683"><ele>274.75</ele><time>2026-05-01T09:54:51.999Z</time></trkpt><trkpt lat="42.66461866950898" lon="9.228154691414392"><ele>271.5</ele><time>2026-05-01T09:54:52.999Z</time></trkpt><trkpt lat="42.6646691021804" lon="9.22800374595715"><ele>268.25</ele><time>2026-05-01T09:54:53.999Z</time></trkpt><trkpt lat="42.66471058354964" lon="9.227842023800045"><ele>265.0</ele><time>2026-05-01T09:54:54.999Z</time></trkpt><trkpt lat="42.66474541883931" lon="9.227680675000546"><ele>265.0</ele><time>2026-05-01T09:54:55.999Z</time></trkpt><trkpt lat="42.66477695067325" lon="9.227525695355782"><ele>265.0</ele><time>2026-05-01T09:54:56.999Z</time></trkpt><trkpt lat="42.66479271613832" lon="9.227374337941551"><ele>265.0</ele><time>2026-05-01T09:54:57.999Z</time></trkpt><trkpt lat="42.664806556308854" lon="9.227231253137738"><ele>265.0</ele><time>2026-05-01T09:54:58.999Z</time></trkpt><trkpt lat="42.66482679568354" lon="9.227106458579934"><ele>265.0</ele><time>2026-05-01T09:54:59.999Z</time></trkpt><trkpt lat="42.6648398725797" lon="9.22698826469198"><ele>265.0</ele><time>2026-05-01T09:55:00.999Z</time></trkpt><trkpt lat="42.66485350337836" lon="9.226885348487855"><ele>265.0</ele><time>2026-05-01T09:55:01.999Z</time></trkpt><trkpt lat="42.66486165658971" lon="9.226786678876461"><ele>265.0</ele><time>2026-05-01T09:55:02.999Z</time></trkpt><trkpt lat="42.66487739333368" lon="9.226686716028862"><ele>265.0</ele><time>2026-05-01T09:55:03.999Z</time></trkpt><trkpt lat="42.664895067009866" lon="9.226581891878556"><ele>265.0</ele><time>2026-05-01T09:55:04.999Z</time></trkpt><trkpt lat="42.66490779245405" lon="9.226468354245673"><ele>265.0</ele><time>2026-05-01T09:55:05.999Z</time></trkpt><trkpt lat="42.66491120923792" lon="9.226347796920962"><ele>264.4</ele><time>2026-05-01T09:55:06.999Z</time></trkpt><trkpt lat="42.66490719156726" lon="9.226219638344908"><ele>263.8</ele><time>2026-05-01T09:55:07.999Z</time></trkpt><trkpt lat="42.664894012285906" lon="9.22607836527968"><ele>263.2</ele><time>2026-05-01T09:55:08.999Z</time></trkpt><trkpt lat="42.66486239015115" lon="9.225928930988744"><ele>262.6</ele><time>2026-05-01T09:55:10Z</time></trkpt><trkpt lat="42.66480703784629" lon="9.225784903045032"><ele>262.0</ele><time>2026-05-01T09:55:11Z</time></trkpt><trkpt lat="42.664656368159434" lon="9.225499343153702"><ele>259.5</ele><time>2026-05-01T09:55:13Z</time></trkpt><trkpt lat="42.6645807147054" lon="9.22534783241569"><ele>257.0</ele><time>2026-05-01T09:55:14Z</time></trkpt><trkpt lat="42.66450693624682" lon="9.225192229212853"><ele>254.5</ele><time>2026-05-01T09:55:15Z</time></trkpt><trkpt lat="42.664432860611" lon="9.225035856750983"><ele>252.0</ele><time>2026-05-01T09:55:16Z</time></trkpt><trkpt lat="42.66435752745409" lon="9.22487983217962"><ele>256.25</ele><time>2026-05-01T09:55:17Z</time></trkpt><trkpt lat="42.6642758925271" lon="9.22473155939898"><ele>260.5</ele><time>2026-05-01T09:55:18Z</time></trkpt><trkpt lat="42.66419099215066" lon="9.224594395734048"><ele>264.75</ele><time>2026-05-01T09:55:19Z</time></trkpt><trkpt lat="42.66410912270226" lon="9.224456874015106"><ele>269.0</ele><time>2026-05-01T09:55:20Z</time></trkpt><trkpt lat="42.6640316993329" lon="9.224318722193859"><ele>269.0</ele><time>2026-05-01T09:55:21Z</time></trkpt><trkpt lat="42.66396416574507" lon="9.224181043160387"><ele>269.0</ele><time>2026-05-01T09:55:22Z</time></trkpt><trkpt lat="42.66389504536893" lon="9.224033160751945"><ele>269.0</ele><time>2026-05-01T09:55:23Z</time></trkpt><trkpt lat="42.663820114104865" lon="9.223865084814781"><ele>269.0</ele><time>2026-05-01T09:55:24Z</time></trkpt><trkpt lat="42.663748261274655" lon="9.223677255238377"><ele>271.6666666666667</ele><time>2026-05-01T09:55:25Z</time></trkpt><trkpt lat="42.66368426241727" lon="9.223470500427615"><ele>274.3333333333333</ele><time>2026-05-01T09:55:26Z</time></trkpt><trkpt lat="42.66361941667839" lon="9.2232629060298"><ele>277.0</ele><time>2026-05-01T09:55:27Z</time></trkpt><trkpt lat="42.66354891530001" lon="9.223049484623822"><ele>277.0</ele><time>2026-05-01T09:55:28Z</time></trkpt><trkpt lat="42.66347488865146" lon="9.222846489364121"><ele>277.0</ele><time>2026-05-01T09:55:29Z</time></trkpt><trkpt lat="42.663398142597515" lon="9.222644200352972"><ele>277.0</ele><time>2026-05-01T09:55:30Z</time></trkpt><trkpt lat="42.66331675127034" lon="9.222451778493863"><ele>271.0</ele><time>2026-05-01T09:55:31Z</time></trkpt><trkpt lat="42.66323231784644" lon="9.22225971613284"><ele>265.0</ele><time>2026-05-01T09:55:32Z</time></trkpt><trkpt lat="42.66305851739855" lon="9.221892062783986"><ele>265.0</ele><time>2026-05-01T09:55:34Z</time></trkpt><trkpt lat="42.66296549288507" lon="9.221716885458548"><ele>265.0</ele><time>2026-05-01T09:55:35Z</time></trkpt><trkpt lat="42.66287637146777" lon="9.22154304869055"><ele>265.0</ele><time>2026-05-01T09:55:36Z</time></trkpt><trkpt lat="42.66279546660688" lon="9.221361563042048"><ele>270.0</ele><time>2026-05-01T09:55:37Z</time></trkpt><trkpt lat="42.66272412539011" lon="9.221176331122521"><ele>275.0</ele><time>2026-05-01T09:55:38Z</time></trkpt><trkpt lat="42.662675108427806" lon="9.22098887645296"><ele>280.0</ele><time>2026-05-01T09:55:39Z</time></trkpt><trkpt lat="42.662646511080865" lon="9.220831416799847"><ele>285.0</ele><time>2026-05-01T09:55:40Z</time></trkpt><trkpt lat="42.662621118654265" lon="9.220723926385348"><ele>285.1666666666667</ele><time>2026-05-01T09:55:41Z</time></trkpt><trkpt lat="42.66258419417645" lon="9.220635859114175"><ele>285.3333333333333</ele><time>2026-05-01T09:55:42Z</time></trkpt><trkpt lat="42.6625367567437" lon="9.220549602149298"><ele>285.5</ele><time>2026-05-01T09:55:43Z</time></trkpt><trkpt lat="42.662488008893796" lon="9.22048342805402"><ele>285.66666666666663</ele><time>2026-05-01T09:55:44Z</time></trkpt><trkpt lat="42.66242431002792" lon="9.22041286094105"><ele>285.8333333333333</ele><time>2026-05-01T09:55:46Z</time></trkpt><trkpt lat="42.66236617683486" lon="9.220304437788343"><ele>286.0</ele><time>2026-05-01T09:55:48Z</time></trkpt><trkpt lat="42.66233292198731" lon="9.220167991267077"><ele>286.0</ele><time>2026-05-01T09:55:50Z</time></trkpt><trkpt lat="42.66235452596198" lon="9.220027062605789"><ele>286.0</ele><time>2026-05-01T09:55:52Z</time></trkpt><trkpt lat="42.66241722099216" lon="9.219889291610233"><ele>286.0</ele><time>2026-05-01T09:55:54Z</time></trkpt><trkpt lat="42.66258214608747" lon="9.219797491527844"><ele>286.0</ele><time>2026-05-01T09:55:57Z</time></trkpt><trkpt lat="42.66267634269956" lon="9.219798370566592"><ele>286.66666666666663</ele><time>2026-05-01T09:55:59Z</time></trkpt><trkpt lat="42.66275254707076" lon="9.219795867181245"><ele>287.3333333333333</ele><time>2026-05-01T09:56:01Z</time></trkpt><trkpt lat="42.66283902851956" lon="9.219800290874524"><ele>288.0</ele><time>2026-05-01T09:56:03Z</time></trkpt><trkpt lat="42.66292475899737" lon="9.219804977250531"><ele>288.6666666666667</ele><time>2026-05-01T09:56:05Z</time></trkpt><trkpt lat="42.6629887027095" lon="9.219804079174853"><ele>289.33333333333337</ele><time>2026-05-01T09:56:06Z</time></trkpt><trkpt lat="42.663069633442" lon="9.219793636716597"><ele>290.0</ele><time>2026-05-01T09:56:07Z</time></trkpt><trkpt lat="42.66317339464443" lon="9.219763991753432"><ele>290.75</ele><time>2026-05-01T09:56:08Z</time></trkpt><trkpt lat="42.66328417539284" lon="9.219723682541986"><ele>291.5</ele><time>2026-05-01T09:56:09Z</time></trkpt><trkpt lat="42.663402896566076" lon="9.219682484141464"><ele>292.25</ele><time>2026-05-01T09:56:10Z</time></trkpt><trkpt lat="42.663522024916496" lon="9.219641955144352"><ele>293.0</ele><time>2026-05-01T09:56:11Z</time></trkpt><trkpt lat="42.66363025769813" lon="9.219604699759971"><ele>291.0</ele><time>2026-05-01T09:56:12Z</time></trkpt><trkpt lat="42.663729161407325" lon="9.219571350174649"><ele>289.0</ele><time>2026-05-01T09:56:13Z</time></trkpt><trkpt lat="42.66381556652706" lon="9.219543181834835"><ele>287.0</ele><time>2026-05-01T09:56:14Z</time></trkpt><trkpt lat="42.663897061659" lon="9.219510988974474"><ele>285.0</ele><time>2026-05-01T09:56:15Z</time></trkpt><trkpt lat="42.664102158629504" lon="9.21941493553341"><ele>285.0</ele><time>2026-05-01T09:56:16.999Z</time></trkpt><trkpt lat="42.664217891271534" lon="9.219343861676348"><ele>285.0</ele><time>2026-05-01T09:56:17.999Z</time></trkpt><trkpt lat="42.66433211801001" lon="9.219266684044634"><ele>285.0</ele><time>2026-05-01T09:56:18.999Z</time></trkpt><trkpt lat="42.66442350943434" lon="9.219190037367678"><ele>285.0</ele><time>2026-05-01T09:56:19.999Z</time></trkpt><trkpt lat="42.66449252353819" lon="9.219100501095362"><ele>283.0</ele><time>2026-05-01T09:56:20.999Z</time></trkpt><trkpt lat="42.66454995671335" lon="9.218977051898861"><ele>281.0</ele><time>2026-05-01T09:56:21.999Z</time></trkpt><trkpt lat="42.66459848826116" lon="9.2188403952084"><ele>279.0</ele><time>2026-05-01T09:56:22.999Z</time></trkpt><trkpt lat="42.66463545174164" lon="9.218696838943314"><ele>277.0</ele><time>2026-05-01T09:56:23.999Z</time></trkpt><trkpt lat="42.66467579562152" lon="9.218555125271525"><ele>275.0</ele><time>2026-05-01T09:56:24.999Z</time></trkpt><trkpt lat="42.66471991494124" lon="9.218426450344158"><ele>275.0</ele><time>2026-05-01T09:56:25.999Z</time></trkpt><trkpt lat="42.6647619725888" lon="9.218323625929864"><ele>275.0</ele><time>2026-05-01T09:56:26.999Z</time></trkpt><trkpt lat="42.66479060706325" lon="9.21822737815304"><ele>275.0</ele><time>2026-05-01T09:56:27.999Z</time></trkpt><trkpt lat="42.664801118582375" lon="9.218113392997948"><ele>275.0</ele><time>2026-05-01T09:56:28.999Z</time></trkpt><trkpt lat="42.66479389493586" lon="9.217989121120008"><ele>275.0</ele><time>2026-05-01T09:56:29.999Z</time></trkpt><trkpt lat="42.664776017567014" lon="9.21786757222584"><ele>275.0</ele><time>2026-05-01T09:56:30.999Z</time></trkpt><trkpt lat="42.66476445062981" lon="9.217747927235559"><ele>276.2</ele><time>2026-05-01T09:56:31.999Z</time></trkpt><trkpt lat="42.66476410413117" lon="9.217633306877149"><ele>277.4</ele><time>2026-05-01T09:56:32.999Z</time></trkpt><trkpt lat="42.66478559283786" lon="9.217543988076532"><ele>278.6</ele><time>2026-05-01T09:56:33.999Z</time></trkpt><trkpt lat="42.66483470478679" lon="9.217470815545717"><ele>279.8</ele><time>2026-05-01T09:56:34.999Z</time></trkpt><trkpt lat="42.66489976810352" lon="9.217405765739917"><ele>281.0</ele><time>2026-05-01T09:56:35.999Z</time></trkpt><trkpt lat="42.66502426870689" lon="9.217291392721892"><ele>280.40000000000003</ele><time>2026-05-01T09:56:37.999Z</time></trkpt><trkpt lat="42.665112252851614" lon="9.217226987165967"><ele>279.8</ele><time>2026-05-01T09:56:39.999Z</time></trkpt><trkpt lat="42.66519548989762" lon="9.217180132129588"><ele>279.20000000000005</ele><time>2026-05-01T09:56:41.999Z</time></trkpt><trkpt lat="42.66530554214393" lon="9.217125777152008"><ele>278.6</ele><time>2026-05-01T09:56:43.999Z</time></trkpt><trkpt lat="42.66541102434125" lon="9.217077174374898"><ele>278.0</ele><time>2026-05-01T09:56:45.999Z</time></trkpt><trkpt lat="42.66551910278104" lon="9.216995224283941"><ele>278.0</ele><time>2026-05-01T09:56:47.999Z</time></trkpt><trkpt lat="42.66559206582044" lon="9.216868500587204"><ele>278.0</ele><time>2026-05-01T09:56:49.999Z</time></trkpt><trkpt lat="42.66563014301137" lon="9.2167317079141"><ele>278.0</ele><time>2026-05-01T09:56:50.999Z</time></trkpt><trkpt lat="42.665682298456424" lon="9.216535521822745"><ele>278.0</ele><time>2026-05-01T09:56:51.999Z</time></trkpt><trkpt lat="42.665739510175996" lon="9.216323178588198"><ele>278.0</ele><time>2026-05-01T09:56:52.999Z</time></trkpt><trkpt lat="42.66578968493942" lon="9.216126014319542"><ele>278.0</ele><time>2026-05-01T09:56:53.999Z</time></trkpt><trkpt lat="42.66581564018362" lon="9.215951051222424"><ele>278.0</ele><time>2026-05-01T09:56:54.999Z</time></trkpt><trkpt lat="42.66581748879504" lon="9.215787010202417"><ele>278.0</ele><time>2026-05-01T09:56:55.999Z</time></trkpt><trkpt lat="42.66578599882531" lon="9.215645260388792"><ele>274.33333333333337</ele><time>2026-05-01T09:56:56.999Z</time></trkpt><trkpt lat="42.66557483978054" lon="9.215442317493423"><ele>270.6666666666667</ele><time>2026-05-01T09:56:58.999Z</time></trkpt><trkpt lat="42.66545388514884" lon="9.215324407748687"><ele>267.0</ele><time>2026-05-01T09:56:59.999Z</time></trkpt><trkpt lat="42.665331926344756" lon="9.215205174600868"><ele>271.3333333333333</ele><time>2026-05-01T09:57:00.999Z</time></trkpt><trkpt lat="42.66518943231243" lon="9.215111665358881"><ele>275.66666666666663</ele><time>2026-05-01T09:57:01.999Z</time></trkpt><trkpt lat="42.665040327392965" lon="9.215042951200834"><ele>280.0</ele><time>2026-05-01T09:57:02.999Z</time></trkpt><trkpt lat="42.66489473548445" lon="9.214971875199577"><ele>280.0</ele><time>2026-05-01T09:57:03.999Z</time></trkpt><trkpt lat="42.664758630393344" lon="9.214901697912019"><ele>280.0</ele><time>2026-05-01T09:57:04.999Z</time></trkpt><trkpt lat="42.664633550079564" lon="9.2148454581837"><ele>280.0</ele><time>2026-05-01T09:57:05.999Z</time></trkpt><trkpt lat="42.664512841533536" lon="9.21479233871336"><ele>280.0</ele><time>2026-05-01T09:57:06.999Z</time></trkpt><trkpt lat="42.664386060934305" lon="9.214731088538821"><ele>280.25</ele><time>2026-05-01T09:57:07.999Z</time></trkpt><trkpt lat="42.66426690668328" lon="9.214658932308835"><ele>280.5</ele><time>2026-05-01T09:57:08.999Z</time></trkpt><trkpt lat="42.66416524524697" lon="9.214560325211412"><ele>280.75</ele><time>2026-05-01T09:57:09.999Z</time></trkpt><trkpt lat="42.66408764459211" lon="9.214421097192513"><ele>281.0</ele><time>2026-05-01T09:57:10.999Z</time></trkpt><trkpt lat="42.664040049149406" lon="9.214247873961838"><ele>281.0</ele><time>2026-05-01T09:57:11.999Z</time></trkpt><trkpt lat="42.6640310679857" lon="9.21406266282083"><ele>281.0</ele><time>2026-05-01T09:57:12.999Z</time></trkpt><trkpt lat="42.66406499133286" lon="9.213875640390732"><ele>281.0</ele><time>2026-05-01T09:57:13.999Z</time></trkpt><trkpt lat="42.664133869579814" lon="9.213695136570497"><ele>281.0</ele><time>2026-05-01T09:57:14.999Z</time></trkpt><trkpt lat="42.66419705347474" lon="9.213501393870867"><ele>282.0</ele><time>2026-05-01T09:57:15.999Z</time></trkpt><trkpt lat="42.6642255113598" lon="9.213293473934318"><ele>283.0</ele><time>2026-05-01T09:57:16.999Z</time></trkpt><trkpt lat="42.66423061754459" lon="9.213079437754805"><ele>284.0</ele><time>2026-05-01T09:57:18Z</time></trkpt><trkpt lat="42.66426376736462" lon="9.212665099725385"><ele>286.0</ele><time>2026-05-01T09:57:20Z</time></trkpt><trkpt lat="42.66431623743733" lon="9.212456371416451"><ele>288.0</ele><time>2026-05-01T09:57:21Z</time></trkpt><trkpt lat="42.66437777088683" lon="9.21224648039045"><ele>290.0</ele><time>2026-05-01T09:57:22Z</time></trkpt><trkpt lat="42.66443204725894" lon="9.212027922054599"><ele>283.6666666666667</ele><time>2026-05-01T09:57:23Z</time></trkpt><trkpt lat="42.664482645261316" lon="9.211811088061497"><ele>277.3333333333333</ele><time>2026-05-01T09:57:24Z</time></trkpt><trkpt lat="42.66453243815322" lon="9.211590868625413"><ele>271.0</ele><time>2026-05-01T09:57:25Z</time></trkpt><trkpt lat="42.664573439398445" lon="9.211360650330576"><ele>271.0</ele><time>2026-05-01T09:57:26Z</time></trkpt><trkpt lat="42.66460392183286" lon="9.211114561499405"><ele>271.0</ele><time>2026-05-01T09:57:27Z</time></trkpt><trkpt lat="42.66459962714096" lon="9.210880187796471"><ele>271.0</ele><time>2026-05-01T09:57:28Z</time></trkpt><trkpt lat="42.66459049376046" lon="9.210642493788358"><ele>271.66666666666663</ele><time>2026-05-01T09:57:29Z</time></trkpt><trkpt lat="42.66459191160882" lon="9.210410777563009"><ele>272.3333333333333</ele><time>2026-05-01T09:57:30Z</time></trkpt><trkpt lat="42.66459150155814" lon="9.210193935518548"><ele>273.0</ele><time>2026-05-01T09:57:31Z</time></trkpt><trkpt lat="42.66458103966182" lon="9.209972853380485"><ele>272.3333333333333</ele><time>2026-05-01T09:57:32Z</time></trkpt><trkpt lat="42.66455251340127" lon="9.209748764606449"><ele>271.66666666666663</ele><time>2026-05-01T09:57:33Z</time></trkpt><trkpt lat="42.664476445350054" lon="9.209552416883264"><ele>271.0</ele><time>2026-05-01T09:57:34Z</time></trkpt><trkpt lat="42.664366162645955" lon="9.209380692894758"><ele>276.3333333333333</ele><time>2026-05-01T09:57:35Z</time></trkpt><trkpt lat="42.6642295558233" lon="9.209260039061013"><ele>281.6666666666667</ele><time>2026-05-01T09:57:36Z</time></trkpt><trkpt lat="42.664064833302206" lon="9.209155920831767"><ele>287.0</ele><time>2026-05-01T09:57:37Z</time></trkpt><trkpt lat="42.663904566409364" lon="9.2090755697442"><ele>287.0</ele><time>2026-05-01T09:57:38Z</time></trkpt><trkpt lat="42.66373462415619" lon="9.209028604751717"><ele>287.0</ele><time>2026-05-01T09:57:39Z</time></trkpt><trkpt lat="42.66341481542587" lon="9.208870234094219"><ele>287.33333333333337</ele><time>2026-05-01T09:57:41Z</time></trkpt><trkpt lat="42.66328604525196" lon="9.208716742072227"><ele>287.6666666666667</ele><time>2026-05-01T09:57:42Z</time></trkpt><trkpt lat="42.663146588087955" lon="9.208588391000731"><ele>288.0</ele><time>2026-05-01T09:57:43Z</time></trkpt><trkpt lat="42.662981443647034" lon="9.208489476666058"><ele>288.0</ele><time>2026-05-01T09:57:44Z</time></trkpt><trkpt lat="42.662815711522896" lon="9.208403857011971"><ele>288.0</ele><time>2026-05-01T09:57:45Z</time></trkpt><trkpt lat="42.66264651217516" lon="9.208315391301806"><ele>288.0</ele><time>2026-05-01T09:57:46Z</time></trkpt><trkpt lat="42.66247274928514" lon="9.208254916871153"><ele>287.3333333333333</ele><time>2026-05-01T09:57:47Z</time></trkpt><trkpt lat="42.66228986867672" lon="9.208232609473894"><ele>286.66666666666663</ele><time>2026-05-01T09:57:48Z</time></trkpt><trkpt lat="42.662119067569954" lon="9.208192959633411"><ele>286.0</ele><time>2026-05-01T09:57:49Z</time></trkpt><trkpt lat="42.66196449439384" lon="9.208077391533358"><ele>288.3333333333333</ele><time>2026-05-01T09:57:50Z</time></trkpt><trkpt lat="42.661808582498864" lon="9.20793964045304"><ele>290.6666666666667</ele><time>2026-05-01T09:57:51Z</time></trkpt><trkpt lat="42.66164679010011" lon="9.207819262821008"><ele>293.0</ele><time>2026-05-01T09:57:52Z</time></trkpt><trkpt lat="42.66147365281289" lon="9.207748678594372"><ele>293.0</ele><time>2026-05-01T09:57:53Z</time></trkpt><trkpt lat="42.66129189565149" lon="9.207717824541545"><ele>293.0</ele><time>2026-05-01T09:57:54Z</time></trkpt><trkpt lat="42.66112979689131" lon="9.207680903030193"><ele>293.0</ele><time>2026-05-01T09:57:55Z</time></trkpt><trkpt lat="42.66099077749831" lon="9.207588536245295"><ele>294.25</ele><time>2026-05-01T09:57:56Z</time></trkpt><trkpt lat="42.66091832269758" lon="9.20744240926822"><ele>295.5</ele><time>2026-05-01T09:57:57Z</time></trkpt><trkpt lat="42.660905417406184" lon="9.207258039495812"><ele>296.75</ele><time>2026-05-01T09:57:58Z</time></trkpt><trkpt lat="42.66089898574273" lon="9.207056183384074"><ele>298.0</ele><time>2026-05-01T09:57:59Z</time></trkpt><trkpt lat="42.66083454899098" lon="9.206874981507772"><ele>298.0</ele><time>2026-05-01T09:58:00Z</time></trkpt><trkpt lat="42.66057875820245" lon="9.206596327747594"><ele>298.0</ele><time>2026-05-01T09:58:02Z</time></trkpt><trkpt lat="42.66042160878013" lon="9.206553128586691"><ele>300.0</ele><time>2026-05-01T09:58:03Z</time></trkpt><trkpt lat="42.66025995332112" lon="9.20659498002711"><ele>302.0</ele><time>2026-05-01T09:58:04Z</time></trkpt><trkpt lat="42.66011684245564" lon="9.206721166832088"><ele>304.0</ele><time>2026-05-01T09:58:05Z</time></trkpt><trkpt lat="42.65999030335318" lon="9.206880950149456"><ele>304.0</ele><time>2026-05-01T09:58:06Z</time></trkpt><trkpt lat="42.6598475622657" lon="9.206969845120414"><ele>304.0</ele><time>2026-05-01T09:58:07Z</time></trkpt><trkpt lat="42.659684162421726" lon="9.206958167788876"><ele>304.0</ele><time>2026-05-01T09:58:08Z</time></trkpt><trkpt lat="42.659512715629965" lon="9.206916945897266"><ele>307.0</ele><time>2026-05-01T09:58:09Z</time></trkpt><trkpt lat="42.65934868936111" lon="9.20685428893089"><ele>310.0</ele><time>2026-05-01T09:58:10Z</time></trkpt><trkpt lat="42.65921230147899" lon="9.206734302228085"><ele>313.0</ele><time>2026-05-01T09:58:11Z</time></trkpt><trkpt lat="42.659116055547095" lon="9.206556242061374"><ele>313.66666666666663</ele><time>2026-05-01T09:58:12Z</time></trkpt><trkpt lat="42.6590683921901" lon="9.206351983040406"><ele>314.3333333333333</ele><time>2026-05-01T09:58:13Z</time></trkpt><trkpt lat="42.659091049024894" lon="9.206150435344622"><ele>315.0</ele><time>2026-05-01T09:58:14Z</time></trkpt><trkpt lat="42.65917079253" lon="9.205964027612886"><ele>315.0</ele><time>2026-05-01T09:58:15Z</time></trkpt><trkpt lat="42.659273534218975" lon="9.205786691544715"><ele>315.0</ele><time>2026-05-01T09:58:16Z</time></trkpt><trkpt lat="42.65933851945824" lon="9.205580542910742"><ele>315.0</ele><time>2026-05-01T09:58:17Z</time></trkpt><trkpt lat="42.65933356884018" lon="9.205346112901298"><ele>315.6666666666667</ele><time>2026-05-01T09:58:18Z</time></trkpt><trkpt lat="42.659339274711826" lon="9.205096856688645"><ele>316.33333333333337</ele><time>2026-05-01T09:58:19Z</time></trkpt><trkpt lat="42.65940521253981" lon="9.204884439191527"><ele>317.0</ele><time>2026-05-01T09:58:20Z</time></trkpt><trkpt lat="42.659465542678426" lon="9.204695938529596"><ele>317.33333333333337</ele><time>2026-05-01T09:58:21Z</time></trkpt><trkpt lat="42.65934463029168" lon="9.204370626668151"><ele>317.6666666666667</ele><time>2026-05-01T09:58:23Z</time></trkpt><trkpt lat="42.659203279066226" lon="9.204277128331741"><ele>318.0</ele><time>2026-05-01T09:58:24Z</time></trkpt><trkpt lat="42.659029462880994" lon="9.204211116151601"><ele>318.0</ele><time>2026-05-01T09:58:25Z</time></trkpt><trkpt lat="42.658851589458486" lon="9.204134462912942"><ele>318.0</ele><time>2026-05-01T09:58:26Z</time></trkpt><trkpt lat="42.658671942691065" lon="9.204034560148058"><ele>318.0</ele><time>2026-05-01T09:58:27Z</time></trkpt><trkpt lat="42.65848678400932" lon="9.203925242381098"><ele>318.6666666666667</ele><time>2026-05-01T09:58:28Z</time></trkpt><trkpt lat="42.65829736211202" lon="9.203812896593101"><ele>319.33333333333337</ele><time>2026-05-01T09:58:29Z</time></trkpt><trkpt lat="42.658100326614765" lon="9.203703415760314"><ele>320.0</ele><time>2026-05-01T09:58:30Z</time></trkpt><trkpt lat="42.65790079456189" lon="9.203591378047157"><ele>321.33333333333337</ele><time>2026-05-01T09:58:31Z</time></trkpt><trkpt lat="42.657718129586364" lon="9.203483917943464"><ele>322.6666666666667</ele><time>2026-05-01T09:58:32Z</time></trkpt><trkpt lat="42.65754333951457" lon="9.203398631045275"><ele>324.0</ele><time>2026-05-01T09:58:33Z</time></trkpt><trkpt lat="42.657357795703426" lon="9.203362988427505"><ele>324.0</ele><time>2026-05-01T09:58:34Z</time></trkpt><trkpt lat="42.657163496183614" lon="9.203372259555517"><ele>324.0</ele><time>2026-05-01T09:58:35Z</time></trkpt><trkpt lat="42.65696833718393" lon="9.203438333315855"><ele>324.0</ele><time>2026-05-01T09:58:36Z</time></trkpt><trkpt lat="42.65678181553538" lon="9.203536650144061"><ele>324.0</ele><time>2026-05-01T09:58:37Z</time></trkpt><trkpt lat="42.6565860906926" lon="9.203608365449274"><ele>324.0</ele><time>2026-05-01T09:58:38Z</time></trkpt><trkpt lat="42.656382103281956" lon="9.203613670186709"><ele>324.0</ele><time>2026-05-01T09:58:39Z</time></trkpt><trkpt lat="42.65618464686195" lon="9.203541749101088"><ele>325.0</ele><time>2026-05-01T09:58:40Z</time></trkpt><trkpt lat="42.655996026564345" lon="9.203425367221975"><ele>326.0</ele><time>2026-05-01T09:58:41Z</time></trkpt><trkpt lat="42.655809321340826" lon="9.203285902104259"><ele>327.0</ele><time>2026-05-01T09:58:42Z</time></trkpt><trkpt lat="42.65541204474704" lon="9.203076621832095"><ele>325.6666666666667</ele><time>2026-05-01T09:58:44Z</time></trkpt><trkpt lat="42.6552152805266" lon="9.202990018963247"><ele>324.33333333333337</ele><time>2026-05-01T09:58:45Z</time></trkpt><trkpt lat="42.65504325253872" lon="9.202884881774798"><ele>323.0</ele><time>2026-05-01T09:58:46Z</time></trkpt><trkpt lat="42.654897216773286" lon="9.202798539890592"><ele>323.0</ele><time>2026-05-01T09:58:47Z</time></trkpt><trkpt lat="42.654759362735824" lon="9.20277162733858"><ele>323.0</ele><time>2026-05-01T09:58:48Z</time></trkpt><trkpt lat="42.65463252979153" lon="9.202830260542834"><ele>323.0</ele><time>2026-05-01T09:58:49Z</time></trkpt><trkpt lat="42.65452666904422" lon="9.202959093131"><ele>323.0</ele><time>2026-05-01T09:58:50Z</time></trkpt><trkpt lat="42.65443558257498" lon="9.20312945508845"><ele>324.0</ele><time>2026-05-01T09:58:51Z</time></trkpt><trkpt lat="42.65433020413266" lon="9.203285661369513"><ele>325.0</ele><time>2026-05-01T09:58:52Z</time></trkpt><trkpt lat="42.6542222191057" lon="9.203390176084277"><ele>326.0</ele><time>2026-05-01T09:58:53Z</time></trkpt><trkpt lat="42.65410599406882" lon="9.203422678789558"><ele>327.0</ele><time>2026-05-01T09:58:54Z</time></trkpt><trkpt lat="42.654004357185904" lon="9.20337415664059"><ele>327.0</ele><time>2026-05-01T09:58:55Z</time></trkpt><trkpt lat="42.653919316258126" lon="9.203249818074058"><ele>327.0</ele><time>2026-05-01T09:58:56Z</time></trkpt><trkpt lat="42.65383930333309" lon="9.203087859729392"><ele>327.0</ele><time>2026-05-01T09:58:57Z</time></trkpt><trkpt lat="42.65374822651822" lon="9.202913739920486"><ele>327.0</ele><time>2026-05-01T09:58:58Z</time></trkpt><trkpt lat="42.65364272266278" lon="9.202748490896735"><ele>325.0</ele><time>2026-05-01T09:58:59Z</time></trkpt><trkpt lat="42.65353692707808" lon="9.202579681397433"><ele>323.0</ele><time>2026-05-01T09:59:00Z</time></trkpt><trkpt lat="42.653433466578214" lon="9.202406855990523"><ele>321.0</ele><time>2026-05-01T09:59:01Z</time></trkpt><trkpt lat="42.65333804024816" lon="9.20226504727907"><ele>321.0</ele><time>2026-05-01T09:59:02Z</time></trkpt><trkpt lat="42.653236108141655" lon="9.202163718550706"><ele>321.0</ele><time>2026-05-01T09:59:03Z</time></trkpt><trkpt lat="42.65300719952853" lon="9.202218698162731"><ele>321.0</ele><time>2026-05-01T09:59:05Z</time></trkpt><trkpt lat="42.652903655394475" lon="9.202354857005602"><ele>320.75</ele><time>2026-05-01T09:59:06Z</time></trkpt><trkpt lat="42.65278886370917" lon="9.20248627191468"><ele>320.5</ele><time>2026-05-01T09:59:07Z</time></trkpt><trkpt lat="42.65266762415333" lon="9.202539389092095"><ele>320.25</ele><time>2026-05-01T09:59:08Z</time></trkpt><trkpt lat="42.65254845592063" lon="9.202500888175202"><ele>320.0</ele><time>2026-05-01T09:59:09Z</time></trkpt><trkpt lat="42.652449154835786" lon="9.202398458255042"><ele>319.0</ele><time>2026-05-01T09:59:10Z</time></trkpt><trkpt lat="42.65238170263017" lon="9.202243003690075"><ele>318.0</ele><time>2026-05-01T09:59:11Z</time></trkpt><trkpt lat="42.65233535004691" lon="9.202062114851298"><ele>317.0</ele><time>2026-05-01T09:59:12Z</time></trkpt><trkpt lat="42.652304306424696" lon="9.201869337832713"><ele>316.0</ele><time>2026-05-01T09:59:13Z</time></trkpt><trkpt lat="42.65229639510167" lon="9.201670677263042"><ele>317.0</ele><time>2026-05-01T09:59:14Z</time></trkpt><trkpt lat="42.65232945009972" lon="9.20148000263881"><ele>318.0</ele><time>2026-05-01T09:59:15Z</time></trkpt><trkpt lat="42.65242128639176" lon="9.20132305353075"><ele>319.0</ele><time>2026-05-01T09:59:16Z</time></trkpt><trkpt lat="42.652546042537175" lon="9.201224457243057"><ele>320.0</ele><time>2026-05-01T09:59:17Z</time></trkpt><trkpt lat="42.65268514581632" lon="9.201171583717914"><ele>320.33333333333337</ele><time>2026-05-01T09:59:18Z</time></trkpt><trkpt lat="42.652801761671356" lon="9.201065130674623"><ele>320.6666666666667</ele><time>2026-05-01T09:59:19Z</time></trkpt><trkpt lat="42.652875014616534" lon="9.200871938363289"><ele>321.0</ele><time>2026-05-01T09:59:20Z</time></trkpt><trkpt lat="42.652945437730146" lon="9.200642617546837"><ele>321.0</ele><time>2026-05-01T09:59:21Z</time></trkpt><trkpt lat="42.65305567198475" lon="9.200452956928759"><ele>321.0</ele><time>2026-05-01T09:59:22Z</time></trkpt><trkpt lat="42.65319469629791" lon="9.200277729576248"><ele>321.0</ele><time>2026-05-01T09:59:23Z</time></trkpt><trkpt lat="42.65331205092633" lon="9.20006074901064"><ele>326.5</ele><time>2026-05-01T09:59:24Z</time></trkpt><trkpt lat="42.65350245508702" lon="9.199574119022436"><ele>332.0</ele><time>2026-05-01T09:59:26Z</time></trkpt><trkpt lat="42.653600374816044" lon="9.199339102884993"><ele>327.33333333333337</ele><time>2026-05-01T09:59:27Z</time></trkpt><trkpt lat="42.65370035100288" lon="9.199103857663141"><ele>322.6666666666667</ele><time>2026-05-01T09:59:28Z</time></trkpt><trkpt lat="42.65379890934013" lon="9.19887821536392"><ele>318.0</ele><time>2026-05-01T09:59:29Z</time></trkpt><trkpt lat="42.65388721016566" lon="9.198672706429296"><ele>318.0</ele><time>2026-05-01T09:59:30Z</time></trkpt><trkpt lat="42.65393916453525" lon="9.19846875101029"><ele>318.0</ele><time>2026-05-01T09:59:31Z</time></trkpt><trkpt lat="42.653937810065116" lon="9.198242200189592"><ele>318.0</ele><time>2026-05-01T09:59:32Z</time></trkpt><trkpt lat="42.653871331924265" lon="9.197997912752841"><ele>319.3333333333333</ele><time>2026-05-01T09:59:33Z</time></trkpt><trkpt lat="42.65380535501181" lon="9.197748587051738"><ele>320.66666666666663</ele><time>2026-05-01T09:59:34Z</time></trkpt><trkpt lat="42.65377422758198" lon="9.197505472091585"><ele>322.0</ele><time>2026-05-01T09:59:35Z</time></trkpt><trkpt lat="42.65379222148215" lon="9.197286039615122"><ele>323.3333333333333</ele><time>2026-05-01T09:59:36Z</time></trkpt><trkpt lat="42.653856008344256" lon="9.19707557250057"><ele>324.6666666666667</ele><time>2026-05-01T09:59:37Z</time></trkpt><trkpt lat="42.65394659011416" lon="9.196845445185456"><ele>326.0</ele><time>2026-05-01T09:59:38Z</time></trkpt><trkpt lat="42.65402900955386" lon="9.196615496845281"><ele>326.33333333333337</ele><time>2026-05-01T09:59:39Z</time></trkpt><trkpt lat="42.65409699217522" lon="9.19638354944611"><ele>326.6666666666667</ele><time>2026-05-01T09:59:40Z</time></trkpt><trkpt lat="42.654143081624305" lon="9.19617529375559"><ele>327.0</ele><time>2026-05-01T09:59:41Z</time></trkpt><trkpt lat="42.654165855184075" lon="9.195980228165588"><ele>327.0</ele><time>2026-05-01T09:59:42Z</time></trkpt><trkpt lat="42.65412800600984" lon="9.1957979500022"><ele>327.0</ele><time>2026-05-01T09:59:43Z</time></trkpt><trkpt lat="42.654026227551846" lon="9.195643082892254"><ele>327.0</ele><time>2026-05-01T09:59:44Z</time></trkpt><trkpt lat="42.65388662591717" lon="9.195551304291785"><ele>327.0</ele><time>2026-05-01T09:59:45Z</time></trkpt><trkpt lat="42.65375305222747" lon="9.195325327340068"><ele>327.0</ele><time>2026-05-01T09:59:47Z</time></trkpt><trkpt lat="42.65379866843302" lon="9.195182280389542"><ele>327.0</ele><time>2026-05-01T09:59:48Z</time></trkpt><trkpt lat="42.65388885264204" lon="9.195053532370432"><ele>327.0</ele><time>2026-05-01T09:59:49Z</time></trkpt><trkpt lat="42.65401532879803" lon="9.194954234244795"><ele>327.0</ele><time>2026-05-01T09:59:50Z</time></trkpt><trkpt lat="42.65413780187657" lon="9.194856490192606"><ele>330.6666666666667</ele><time>2026-05-01T09:59:51Z</time></trkpt><trkpt lat="42.65423395274892" lon="9.194724837799619"><ele>334.33333333333337</ele><time>2026-05-01T09:59:52Z</time></trkpt><trkpt lat="42.654310187566615" lon="9.194545614858677"><ele>338.0</ele><time>2026-05-01T09:59:53Z</time></trkpt><trkpt lat="42.65441255639281" lon="9.194373973068878"><ele>334.0</ele><time>2026-05-01T09:59:54Z</time></trkpt><trkpt lat="42.654563189389826" lon="9.194265447353338"><ele>330.0</ele><time>2026-05-01T09:59:55Z</time></trkpt><trkpt lat="42.65472435820506" lon="9.194192746007925"><ele>326.0</ele><time>2026-05-01T09:59:56Z</time></trkpt><trkpt lat="42.654854049164854" lon="9.194087524937505"><ele>326.33333333333337</ele><time>2026-05-01T09:59:57Z</time></trkpt><trkpt lat="42.65492957316754" lon="9.193919843476356"><ele>326.6666666666667</ele><time>2026-05-01T09:59:58Z</time></trkpt><trkpt lat="42.65496484424809" lon="9.19371417352335"><ele>327.0</ele><time>2026-05-01T09:59:59Z</time></trkpt><trkpt lat="42.65497479826103" lon="9.193489521790552"><ele>327.0</ele><time>2026-05-01T10:00:00Z</time></trkpt><trkpt lat="42.655001608810544" lon="9.193291181542575"><ele>327.0</ele><time>2026-05-01T10:00:01Z</time></trkpt><trkpt lat="42.655060003737375" lon="9.193127945967063"><ele>327.0</ele><time>2026-05-01T10:00:02Z</time></trkpt><trkpt lat="42.65511233780416" lon="9.192987364290776"><ele>327.0</ele><time>2026-05-01T10:00:03Z</time></trkpt><trkpt lat="42.65512039058934" lon="9.192854786393237"><ele>327.3333333333333</ele><time>2026-05-01T10:00:04Z</time></trkpt><trkpt lat="42.655089444230484" lon="9.19271806263999"><ele>327.66666666666663</ele><time>2026-05-01T10:00:05Z</time></trkpt><trkpt lat="42.655053263458036" lon="9.192549223131898"><ele>328.0</ele><time>2026-05-01T10:00:06Z</time></trkpt><trkpt lat="42.65500182775202" lon="9.192115158124675"><ele>326.0</ele><time>2026-05-01T10:00:08Z</time></trkpt><trkpt lat="42.6549973059779" lon="9.191875996540276"><ele>324.0</ele><time>2026-05-01T10:00:09Z</time></trkpt><trkpt lat="42.655010935721116" lon="9.191634751054236"><ele>322.0</ele><time>2026-05-01T10:00:10Z</time></trkpt><trkpt lat="42.655001055061156" lon="9.191385279729335"><ele>322.0</ele><time>2026-05-01T10:00:11Z</time></trkpt><trkpt lat="42.654967557160255" lon="9.191158885740206"><ele>322.0</ele><time>2026-05-01T10:00:12Z</time></trkpt><trkpt lat="42.65493403297711" lon="9.190961698870186"><ele>322.0</ele><time>2026-05-01T10:00:13Z</time></trkpt><trkpt lat="42.65490209751388" lon="9.190784065488248"><ele>323.40000000000003</ele><time>2026-05-01T10:00:14Z</time></trkpt><trkpt lat="42.65488488168021" lon="9.190631897531649"><ele>324.8</ele><time>2026-05-01T10:00:15Z</time></trkpt><trkpt lat="42.65490028995159" lon="9.190495382399778"><ele>326.2</ele><time>2026-05-01T10:00:16Z</time></trkpt><trkpt lat="42.654957878156594" lon="9.190393940977568"><ele>327.6</ele><time>2026-05-01T10:00:17Z</time></trkpt><trkpt lat="42.65503876089529" lon="9.190327069441778"><ele>329.0</ele><time>2026-05-01T10:00:18Z</time></trkpt><trkpt lat="42.655136434554436" lon="9.19031197402819"><ele>329.0</ele><time>2026-05-01T10:00:19Z</time></trkpt><trkpt lat="42.65523296713405" lon="9.190340485895545"><ele>329.0</ele><time>2026-05-01T10:00:20Z</time></trkpt><trkpt lat="42.65531908420162" lon="9.19042223316458"><ele>329.0</ele><time>2026-05-01T10:00:21Z</time></trkpt><trkpt lat="42.65539034701321" lon="9.190565210687828"><ele>329.0</ele><time>2026-05-01T10:00:22Z</time></trkpt><trkpt lat="42.65545852891212" lon="9.190774501486215"><ele>327.6666666666667</ele><time>2026-05-01T10:00:23Z</time></trkpt><trkpt lat="42.65550338087166" lon="9.191029033747762"><ele>326.3333333333333</ele><time>2026-05-01T10:00:24Z</time></trkpt><trkpt lat="42.65554925003384" lon="9.19131409076694"><ele>325.0</ele><time>2026-05-01T10:00:25Z</time></trkpt><trkpt lat="42.6556188194423" lon="9.191602153879323"><ele>325.0</ele><time>2026-05-01T10:00:26Z</time></trkpt><trkpt lat="42.65570300290412" lon="9.191880704442553"><ele>325.0</ele><time>2026-05-01T10:00:27Z</time></trkpt><trkpt lat="42.65584884938468" lon="9.192282716968277"><ele>320.5</ele><time>2026-05-01T10:00:29Z</time></trkpt><trkpt lat="42.655938015677954" lon="9.192376929076994"><ele>316.0</ele><time>2026-05-01T10:00:30Z</time></trkpt><trkpt lat="42.65604532231597" lon="9.192393820493283"><ele>311.5</ele><time>2026-05-01T10:00:31Z</time></trkpt><trkpt lat="42.656155069974076" lon="9.192320310281813"><ele>307.0</ele><time>2026-05-01T10:00:32Z</time></trkpt><trkpt lat="42.656274757612046" lon="9.192209495177428"><ele>310.0</ele><time>2026-05-01T10:00:33Z</time></trkpt><trkpt lat="42.65643164352608" lon="9.19217309903477"><ele>313.0</ele><time>2026-05-01T10:00:34Z</time></trkpt><trkpt lat="42.65662600771418" lon="9.192233294072825"><ele>316.0</ele><time>2026-05-01T10:00:35Z</time></trkpt><trkpt lat="42.6568254053665" lon="9.192353914831159"><ele>322.0</ele><time>2026-05-01T10:00:36Z</time></trkpt><trkpt lat="42.65700854290559" lon="9.192499398848799"><ele>328.0</ele><time>2026-05-01T10:00:37Z</time></trkpt><trkpt lat="42.657132614551784" lon="9.192637609113827"><ele>334.0</ele><time>2026-05-01T10:00:38Z</time></trkpt><trkpt lat="42.65720181104121" lon="9.192774791078152"><ele>334.0</ele><time>2026-05-01T10:00:39Z</time></trkpt><trkpt lat="42.65719434753676" lon="9.192926625391776"><ele>334.0</ele><time>2026-05-01T10:00:40Z</time></trkpt><trkpt lat="42.6571280587443" lon="9.193092772884903"><ele>334.0</ele><time>2026-05-01T10:00:41Z</time></trkpt><trkpt lat="42.657093451685775" lon="9.193252697191904"><ele>334.0</ele><time>2026-05-01T10:00:42Z</time></trkpt><trkpt lat="42.657153820288656" lon="9.19343114904961"><ele>329.3333333333333</ele><time>2026-05-01T10:00:43Z</time></trkpt><trkpt lat="42.65726521055162" lon="9.193613958217533"><ele>324.6666666666667</ele><time>2026-05-01T10:00:44Z</time></trkpt><trkpt lat="42.65740590888612" lon="9.193761154234872"><ele>320.0</ele><time>2026-05-01T10:00:45Z</time></trkpt><trkpt lat="42.657571093145954" lon="9.193866910955842"><ele>320.0</ele><time>2026-05-01T10:00:46Z</time></trkpt><trkpt lat="42.657720362558265" lon="9.193918278862721"><ele>320.0</ele><time>2026-05-01T10:00:47Z</time></trkpt><trkpt lat="42.65786934895649" lon="9.193902131996179"><ele>320.0</ele><time>2026-05-01T10:00:48Z</time></trkpt><trkpt lat="42.6581836073244" lon="9.193654366418157"><ele>318.6666666666667</ele><time>2026-05-01T10:00:50Z</time></trkpt><trkpt lat="42.658308122319276" lon="9.193433813527617"><ele>317.3333333333333</ele><time>2026-05-01T10:00:51Z</time></trkpt><trkpt lat="42.65843258399331" lon="9.193199149361542"><ele>316.0</ele><time>2026-05-01T10:00:52Z</time></trkpt><trkpt lat="42.65860176228585" lon="9.1930151103537"><ele>312.0</ele><time>2026-05-01T10:00:53Z</time></trkpt><trkpt lat="42.65878618160544" lon="9.192839476316525"><ele>308.0</ele><time>2026-05-01T10:00:54Z</time></trkpt><trkpt lat="42.65893717691675" lon="9.192600478981753"><ele>313.5</ele><time>2026-05-01T10:00:55Z</time></trkpt><trkpt lat="42.65906457544586" lon="9.192328059985936"><ele>319.0</ele><time>2026-05-01T10:00:56Z</time></trkpt><trkpt lat="42.659201478576556" lon="9.192094581534487"><ele>319.0</ele><time>2026-05-01T10:00:57Z</time></trkpt><trkpt lat="42.65931164731348" lon="9.191909712956987"><ele>319.0</ele><time>2026-05-01T10:00:58Z</time></trkpt><trkpt lat="42.65936851568333" lon="9.191713401239479"><ele>319.0</ele><time>2026-05-01T10:00:59Z</time></trkpt><trkpt lat="42.65936235705774" lon="9.191484652690216"><ele>321.0</ele><time>2026-05-01T10:01:00Z</time></trkpt><trkpt lat="42.659320229006035" lon="9.191229988100014"><ele>323.0</ele><time>2026-05-01T10:01:01Z</time></trkpt><trkpt lat="42.65934368821513" lon="9.190956614553595"><ele>325.0</ele><time>2026-05-01T10:01:02Z</time></trkpt><trkpt lat="42.65938657679381" lon="9.190678469966745"><ele>327.3333333333333</ele><time>2026-05-01T10:01:03Z</time></trkpt><trkpt lat="42.65938953074028" lon="9.19040950623747"><ele>329.6666666666667</ele><time>2026-05-01T10:01:04Z</time></trkpt><trkpt lat="42.65942144834678" lon="9.190197664575747"><ele>332.0</ele><time>2026-05-01T10:01:05Z</time></trkpt><trkpt lat="42.6595172705092" lon="9.190037667417304"><ele>321.6666666666667</ele><time>2026-05-01T10:01:06Z</time></trkpt><trkpt lat="42.65966283842816" lon="9.189912903748457"><ele>311.3333333333333</ele><time>2026-05-01T10:01:07Z</time></trkpt><trkpt lat="42.65977636161211" lon="9.189762790337637"><ele>301.0</ele><time>2026-05-01T10:01:08Z</time></trkpt><trkpt lat="42.65980546965164" lon="9.189569622691609"><ele>301.0</ele><time>2026-05-01T10:01:09Z</time></trkpt><trkpt lat="42.65966070690345" lon="9.189177649797868"><ele>301.0</ele><time>2026-05-01T10:01:11Z</time></trkpt><trkpt lat="42.659579918215734" lon="9.188971130119766"><ele>302.3333333333333</ele><time>2026-05-01T10:01:12Z</time></trkpt><trkpt lat="42.65956521729454" lon="9.188721467392226"><ele>303.6666666666667</ele><time>2026-05-01T10:01:13Z</time></trkpt><trkpt lat="42.65954721606632" lon="9.188443876884524"><ele>305.0</ele><time>2026-05-01T10:01:14Z</time></trkpt><trkpt lat="42.659486071491386" lon="9.188200580503059"><ele>310.25</ele><time>2026-05-01T10:01:15Z</time></trkpt><trkpt lat="42.65945622915125" lon="9.188021331685041"><ele>315.5</ele><time>2026-05-01T10:01:16Z</time></trkpt><trkpt lat="42.659489236722436" lon="9.187908103939597"><ele>320.75</ele><time>2026-05-01T10:01:17Z</time></trkpt><trkpt lat="42.65958728773804" lon="9.187868026475918"><ele>326.0</ele><time>2026-05-01T10:01:18Z</time></trkpt><trkpt lat="42.65973733928911" lon="9.187861936037823"><ele>326.0</ele><time>2026-05-01T10:01:19Z</time></trkpt><trkpt lat="42.65992803210999" lon="9.18788576085638"><ele>326.0</ele><time>2026-05-01T10:01:20Z</time></trkpt><trkpt lat="42.66013201211913" lon="9.187893647664865"><ele>326.0</ele><time>2026-05-01T10:01:21Z</time></trkpt><trkpt lat="42.66032234395211" lon="9.187853105091582"><ele>321.75</ele><time>2026-05-01T10:01:22Z</time></trkpt><trkpt lat="42.66045706540732" lon="9.187775465524751"><ele>317.5</ele><time>2026-05-01T10:01:23Z</time></trkpt><trkpt lat="42.66052136810545" lon="9.1876523915881"><ele>313.25</ele><time>2026-05-01T10:01:24Z</time></trkpt><trkpt lat="42.66052850871131" lon="9.187476865360985"><ele>309.0</ele><time>2026-05-01T10:01:25Z</time></trkpt><trkpt lat="42.660509814287806" lon="9.187251812108817"><ele>309.0</ele><time>2026-05-01T10:01:26Z</time></trkpt><trkpt lat="42.66054613829659" lon="9.187007404715088"><ele>309.0</ele><time>2026-05-01T10:01:27Z</time></trkpt><trkpt lat="42.660656127200696" lon="9.186770461450646"><ele>309.0</ele><time>2026-05-01T10:01:28Z</time></trkpt><trkpt lat="42.66075697959216" lon="9.186522782477127"><ele>309.0</ele><time>2026-05-01T10:01:29Z</time></trkpt><trkpt lat="42.66080352637721" lon="9.186250194720422"><ele>309.0</ele><time>2026-05-01T10:01:30Z</time></trkpt><trkpt lat="42.660710022344006" lon="9.185854891297742"><ele>309.0</ele><time>2026-05-01T10:01:32Z</time></trkpt><trkpt lat="42.6605852257087" lon="9.185712695019491"><ele>309.0</ele><time>2026-05-01T10:01:33Z</time></trkpt><trkpt lat="42.66048425981346" lon="9.185519401106951"><ele>309.0</ele><time>2026-05-01T10:01:34Z</time></trkpt><trkpt lat="42.660469166993394" lon="9.185271131388916"><ele>306.3333333333333</ele><time>2026-05-01T10:01:35Z</time></trkpt><trkpt lat="42.66053392632877" lon="9.185030710219529"><ele>303.66666666666663</ele><time>2026-05-01T10:01:36Z</time></trkpt><trkpt lat="42.66059982729335" lon="9.1848088354321"><ele>301.0</ele><time>2026-05-01T10:01:37Z</time></trkpt><trkpt lat="42.66060086875184" lon="9.184627587696935"><ele>298.5</ele><time>2026-05-01T10:01:38Z</time></trkpt><trkpt lat="42.66054223921249" lon="9.184475806046809"><ele>296.0</ele><time>2026-05-01T10:01:39Z</time></trkpt><trkpt lat="42.66041519155381" lon="9.184365128610077"><ele>293.5</ele><time>2026-05-01T10:01:40Z</time></trkpt><trkpt lat="42.66026041756755" lon="9.184273666008213"><ele>291.0</ele><time>2026-05-01T10:01:41Z</time></trkpt><trkpt lat="42.660119307384306" lon="9.184210631930085"><ele>291.2</ele><time>2026-05-01T10:01:42Z</time></trkpt><trkpt lat="42.65999205337914" lon="9.184209391642847"><ele>291.40000000000003</ele><time>2026-05-01T10:01:43Z</time></trkpt><trkpt lat="42.65987691796659" lon="9.184214923385579"><ele>291.6</ele><time>2026-05-01T10:01:44Z</time></trkpt><trkpt lat="42.65979834981944" lon="9.184158730102704"><ele>291.8</ele><time>2026-05-01T10:01:45Z</time></trkpt><trkpt lat="42.6597391260589" lon="9.184065825519285"><ele>292.0</ele><time>2026-05-01T10:01:46Z</time></trkpt><trkpt lat="42.659673984213754" lon="9.183979786910909"><ele>292.0</ele><time>2026-05-01T10:01:47Z</time></trkpt><trkpt lat="42.65960045351755" lon="9.18389557225959"><ele>292.0</ele><time>2026-05-01T10:01:48Z</time></trkpt><trkpt lat="42.65953259105244" lon="9.183830902443988"><ele>292.0</ele><time>2026-05-01T10:01:49Z</time></trkpt><trkpt lat="42.659455505103345" lon="9.18379427673234"><ele>292.0</ele><time>2026-05-01T10:01:50Z</time></trkpt><trkpt lat="42.65936273434478" lon="9.183787743171099"><ele>292.0</ele><time>2026-05-01T10:01:51Z</time></trkpt><trkpt lat="42.65910020277858" lon="9.183879870726798"><ele>296.66666666666663</ele><time>2026-05-01T10:01:53Z</time></trkpt><trkpt lat="42.65892913197424" lon="9.183938462682374"><ele>301.3333333333333</ele><time>2026-05-01T10:01:54Z</time></trkpt><trkpt lat="42.65875935879089" lon="9.183960531680182"><ele>306.0</ele><time>2026-05-01T10:01:55Z</time></trkpt><trkpt lat="42.65861106651414" lon="9.183909653248254"><ele>312.0</ele><time>2026-05-01T10:01:56Z</time></trkpt><trkpt lat="42.65850126457801" lon="9.183793460741347"><ele>318.0</ele><time>2026-05-01T10:01:57Z</time></trkpt><trkpt lat="42.65844805476144" lon="9.183639698647584"><ele>324.0</ele><time>2026-05-01T10:01:58Z</time></trkpt><trkpt lat="42.658467220971474" lon="9.183474441861804"><ele>330.0</ele><time>2026-05-01T10:01:59Z</time></trkpt><trkpt lat="42.658546580928444" lon="9.183294861163498"><ele>320.0</ele><time>2026-05-01T10:02:00Z</time></trkpt><trkpt lat="42.65865153137478" lon="9.183095268184307"><ele>310.0</ele><time>2026-05-01T10:02:01Z</time></trkpt><trkpt lat="42.65871383574741" lon="9.182890774623306"><ele>300.0</ele><time>2026-05-01T10:02:02Z</time></trkpt><trkpt lat="42.65870468930118" lon="9.182654275749172"><ele>300.0</ele><time>2026-05-01T10:02:03Z</time></trkpt><trkpt lat="42.658645106200375" lon="9.18240366534745"><ele>300.0</ele><time>2026-05-01T10:02:04Z</time></trkpt><trkpt lat="42.65855380756004" lon="9.182142917521864"><ele>300.0</ele><time>2026-05-01T10:02:05Z</time></trkpt><trkpt lat="42.65843509181887" lon="9.181894986224842"><ele>302.3333333333333</ele><time>2026-05-01T10:02:06Z</time></trkpt><trkpt lat="42.65833137059778" lon="9.181625367228314"><ele>304.66666666666663</ele><time>2026-05-01T10:02:07Z</time></trkpt><trkpt lat="42.658263660154695" lon="9.181356331026928"><ele>307.0</ele><time>2026-05-01T10:02:08Z</time></trkpt><trkpt lat="42.658179520167664" lon="9.181133859298157"><ele>307.0</ele><time>2026-05-01T10:02:09Z</time></trkpt><trkpt lat="42.65804789140495" lon="9.180965686749648"><ele>307.0</ele><time>2026-05-01T10:02:10Z</time></trkpt><trkpt lat="42.65789769918199" lon="9.180870486332486"><ele>307.0</ele><time>2026-05-01T10:02:11Z</time></trkpt><trkpt lat="42.65775950715527" lon="9.180856674617466"><ele>315.5</ele><time>2026-05-01T10:02:12Z</time></trkpt><trkpt lat="42.65746800277757" lon="9.180906502079866"><ele>324.0</ele><time>2026-05-01T10:02:14Z</time></trkpt><trkpt lat="42.65731967931893" lon="9.180789689077296"><ele>316.6666666666667</ele><time>2026-05-01T10:02:15Z</time></trkpt><trkpt lat="42.65717960348278" lon="9.180600980765952"><ele>309.33333333333337</ele><time>2026-05-01T10:02:16Z</time></trkpt><trkpt lat="42.65705856268633" lon="9.1804003077239"><ele>302.0</ele><time>2026-05-01T10:02:17Z</time></trkpt><trkpt lat="42.65697736700582" lon="9.180199591865962"><ele>304.6666666666667</ele><time>2026-05-01T10:02:18Z</time></trkpt><trkpt lat="42.65693234687466" lon="9.179985732530229"><ele>307.3333333333333</ele><time>2026-05-01T10:02:19Z</time></trkpt><trkpt lat="42.65687670651735" lon="9.179794968046556"><ele>310.0</ele><time>2026-05-01T10:02:20Z</time></trkpt><trkpt lat="42.65677017063979" lon="9.17965377165322"><ele>310.0</ele><time>2026-05-01T10:02:21Z</time></trkpt><trkpt lat="42.65661791133282" lon="9.17956457390175"><ele>310.0</ele><time>2026-05-01T10:02:22Z</time></trkpt><trkpt lat="42.65645668327299" lon="9.179533506899128"><ele>310.0</ele><time>2026-05-01T10:02:23Z</time></trkpt><trkpt lat="42.65632214883746" lon="9.179593786208729"><ele>310.0</ele><time>2026-05-01T10:02:24Z</time></trkpt><trkpt lat="42.65619930493386" lon="9.179728782390017"><ele>310.0</ele><time>2026-05-01T10:02:25Z</time></trkpt><trkpt lat="42.656053121694036" lon="9.179845390774975"><ele>310.0</ele><time>2026-05-01T10:02:26Z</time></trkpt><trkpt lat="42.65587851154562" lon="9.179893054444191"><ele>317.0</ele><time>2026-05-01T10:02:27Z</time></trkpt><trkpt lat="42.65568479179805" lon="9.179909162980815"><ele>324.0</ele><time>2026-05-01T10:02:28Z</time></trkpt><trkpt lat="42.65549917110258" lon="9.179975364389906"><ele>331.0</ele><time>2026-05-01T10:02:29Z</time></trkpt><trkpt lat="42.65533408638162" lon="9.180107417107173"><ele>328.3333333333333</ele><time>2026-05-01T10:02:30Z</time></trkpt><trkpt lat="42.65520210953962" lon="9.180275014562872"><ele>325.6666666666667</ele><time>2026-05-01T10:02:31Z</time></trkpt><trkpt lat="42.65509726869492" lon="9.18044436866903"><ele>323.0</ele><time>2026-05-01T10:02:32Z</time></trkpt><trkpt lat="42.65499286822198" lon="9.180562192993273"><ele>323.0</ele><time>2026-05-01T10:02:33Z</time></trkpt><trkpt lat="42.6547286089411" lon="9.180540858350424"><ele>323.0</ele><time>2026-05-01T10:02:35Z</time></trkpt><trkpt lat="42.65456606329113" lon="9.18046188966245"><ele>323.0</ele><time>2026-05-01T10:02:36Z</time></trkpt><trkpt lat="42.65441024880705" lon="9.180405328127241"><ele>328.0</ele><time>2026-05-01T10:02:37Z</time></trkpt><trkpt lat="42.654309021669995" lon="9.180332068254746"><ele>333.0</ele><time>2026-05-01T10:02:38Z</time></trkpt><trkpt lat="42.65426634808826" lon="9.180217185121233"><ele>338.0</ele><time>2026-05-01T10:02:39Z</time></trkpt><trkpt lat="42.65427013391334" lon="9.180049689268053"><ele>343.0</ele><time>2026-05-01T10:02:40Z</time></trkpt><trkpt lat="42.654309767892926" lon="9.179839453608306"><ele>345.3333333333333</ele><time>2026-05-01T10:02:41Z</time></trkpt><trkpt lat="42.65437494320537" lon="9.179598519227"><ele>347.6666666666667</ele><time>2026-05-01T10:02:42Z</time></trkpt><trkpt lat="42.65444918269335" lon="9.179363418607748"><ele>350.0</ele><time>2026-05-01T10:02:43Z</time></trkpt><trkpt lat="42.65454711483976" lon="9.179147314741368"><ele>345.33333333333337</ele><time>2026-05-01T10:02:44Z</time></trkpt><trkpt lat="42.65467659126541" lon="9.17894881467092"><ele>340.6666666666667</ele><time>2026-05-01T10:02:45Z</time></trkpt><trkpt lat="42.654815219306656" lon="9.178757494351865"><ele>336.0</ele><time>2026-05-01T10:02:46Z</time></trkpt><trkpt lat="42.654937187378515" lon="9.178577192421299"><ele>336.0</ele><time>2026-05-01T10:02:47Z</time></trkpt><trkpt lat="42.65503846166733" lon="9.178360907955325"><ele>336.0</ele><time>2026-05-01T10:02:48Z</time></trkpt><trkpt lat="42.65511202306475" lon="9.178109086041871"><ele>336.0</ele><time>2026-05-01T10:02:49Z</time></trkpt><trkpt lat="42.655182169612935" lon="9.177854465770926"><ele>339.0</ele><time>2026-05-01T10:02:50Z</time></trkpt><trkpt lat="42.65523093481691" lon="9.177604860593744"><ele>342.0</ele><time>2026-05-01T10:02:51Z</time></trkpt><trkpt lat="42.65524808871771" lon="9.177352062451517"><ele>345.0</ele><time>2026-05-01T10:02:52Z</time></trkpt><trkpt lat="42.655249565186736" lon="9.177098361870776"><ele>347.5</ele><time>2026-05-01T10:02:53Z</time></trkpt><trkpt lat="42.65527143060123" lon="9.176877890693452"><ele>350.0</ele><time>2026-05-01T10:02:54Z</time></trkpt><trkpt lat="42.65547657800956" lon="9.176518637326053"><ele>345.6666666666667</ele><time>2026-05-01T10:02:56Z</time></trkpt><trkpt lat="42.65556761972158" lon="9.176291426138485"><ele>341.3333333333333</ele><time>2026-05-01T10:02:57Z</time></trkpt><trkpt lat="42.655631109773466" lon="9.17602894439856"><ele>337.0</ele><time>2026-05-01T10:02:58Z</time></trkpt><trkpt lat="42.65571610185534" lon="9.175771467629389"><ele>339.0</ele><time>2026-05-01T10:02:59Z</time></trkpt><trkpt lat="42.65582400048275" lon="9.175550711876156"><ele>341.0</ele><time>2026-05-01T10:03:00Z</time></trkpt><trkpt lat="42.65592031345745" lon="9.175391599135788"><ele>343.0</ele><time>2026-05-01T10:03:01Z</time></trkpt><trkpt lat="42.655967761428634" lon="9.175221475694388"><ele>343.0</ele><time>2026-05-01T10:03:02Z</time></trkpt><trkpt lat="42.65594890393213" lon="9.175019821228275"><ele>343.0</ele><time>2026-05-01T10:03:03Z</time></trkpt><trkpt lat="42.65586961239815" lon="9.174810231236942"><ele>343.0</ele><time>2026-05-01T10:03:04Z</time></trkpt><trkpt lat="42.655753548414516" lon="9.174609674235528"><ele>339.5</ele><time>2026-05-01T10:03:05Z</time></trkpt><trkpt lat="42.655668502867776" lon="9.174332411814698"><ele>336.0</ele><time>2026-05-01T10:03:06Z</time></trkpt><trkpt lat="42.65560892140611" lon="9.174006032749448"><ele>333.5</ele><time>2026-05-01T10:03:07Z</time></trkpt><trkpt lat="42.65551542344235" lon="9.173670425757447"><ele>331.0</ele><time>2026-05-01T10:03:08Z</time></trkpt><trkpt lat="42.65541572319492" lon="9.173352557754662"><ele>330.3333333333333</ele><time>2026-05-01T10:03:09Z</time></trkpt><trkpt lat="42.65537362613511" lon="9.173119341441618"><ele>329.6666666666667</ele><time>2026-05-01T10:03:10Z</time></trkpt><trkpt lat="42.65530734578563" lon="9.172937827425205"><ele>329.0</ele><time>2026-05-01T10:03:11Z</time></trkpt><trkpt lat="42.655191362745036" lon="9.172811458206214"><ele>334.0</ele><time>2026-05-01T10:03:12Z</time></trkpt><trkpt lat="42.65503044891464" lon="9.17275329656099"><ele>339.0</ele><time>2026-05-01T10:03:13Z</time></trkpt><trkpt lat="42.65483567365857" lon="9.172724997639698"><ele>344.0</ele><time>2026-05-01T10:03:14Z</time></trkpt><trkpt lat="42.65468473195948" lon="9.172653967855988"><ele>344.0</ele><time>2026-05-01T10:03:15Z</time></trkpt><trkpt lat="42.65461015784673" lon="9.172364760201244"><ele>344.0</ele><time>2026-05-01T10:03:17Z</time></trkpt><trkpt lat="42.654650179986895" lon="9.1721658551057"><ele>344.0</ele><time>2026-05-01T10:03:18Z</time></trkpt><trkpt lat="42.65473523469826" lon="9.172005646168852"><ele>344.6666666666667</ele><time>2026-05-01T10:03:19Z</time></trkpt><trkpt lat="42.65488856237768" lon="9.171900590478323"><ele>345.3333333333333</ele><time>2026-05-01T10:03:20Z</time></trkpt><trkpt lat="42.65507334661906" lon="9.17180804939007"><ele>346.0</ele><time>2026-05-01T10:03:21Z</time></trkpt><trkpt lat="42.65523475885785" lon="9.17165294097355"><ele>341.3333333333333</ele><time>2026-05-01T10:03:22Z</time></trkpt><trkpt lat="42.65533267221315" lon="9.17141028433627"><ele>336.6666666666667</ele><time>2026-05-01T10:03:23Z</time></trkpt><trkpt lat="42.65536109218489" lon="9.171176028072544"><ele>332.0</ele><time>2026-05-01T10:03:24Z</time></trkpt><trkpt lat="42.655319617982144" lon="9.170957493368547"><ele>333.33333333333337</ele><time>2026-05-01T10:03:25Z</time></trkpt><trkpt lat="42.65524133764095" lon="9.17070119701139"><ele>334.6666666666667</ele><time>2026-05-01T10:03:26Z</time></trkpt><trkpt lat="42.65515818035327" lon="9.170435136530456"><ele>336.0</ele><time>2026-05-01T10:03:27Z</time></trkpt><trkpt lat="42.655075585661834" lon="9.170235529410517"><ele>336.0</ele><time>2026-05-01T10:03:28Z</time></trkpt><trkpt lat="42.65494792325327" lon="9.170100863437101"><ele>336.0</ele><time>2026-05-01T10:03:29Z</time></trkpt><trkpt lat="42.654803993883995" lon="9.169978423180707"><ele>336.0</ele><time>2026-05-01T10:03:30Z</time></trkpt><trkpt lat="42.6547293964861" lon="9.169816612256312"><ele>332.3333333333333</ele><time>2026-05-01T10:03:31Z</time></trkpt><trkpt lat="42.6546904886957" lon="9.16955759259129"><ele>328.66666666666663</ele><time>2026-05-01T10:03:32Z</time></trkpt><trkpt lat="42.65459587336423" lon="9.169254026151155"><ele>325.0</ele><time>2026-05-01T10:03:33Z</time></trkpt><trkpt lat="42.654473275978695" lon="9.168931399815634"><ele>335.0</ele><time>2026-05-01T10:03:34Z</time></trkpt><trkpt lat="42.65437641368198" lon="9.168593143610314"><ele>345.0</ele><time>2026-05-01T10:03:35Z</time></trkpt><trkpt lat="42.654319826205324" lon="9.168341397179644"><ele>341.6666666666667</ele><time>2026-05-01T10:03:36Z</time></trkpt><trkpt lat="42.6543393344516" lon="9.168014785136924"><ele>338.33333333333337</ele><time>2026-05-01T10:03:38Z</time></trkpt><trkpt lat="42.654418461353735" lon="9.167880874845304"><ele>335.0</ele><time>2026-05-01T10:03:39Z</time></trkpt><trkpt lat="42.65443763974353" lon="9.167701225524034"><ele>335.0</ele><time>2026-05-01T10:03:40Z</time></trkpt><trkpt lat="42.65437132150967" lon="9.167505139074773"><ele>335.0</ele><time>2026-05-01T10:03:41Z</time></trkpt><trkpt lat="42.65425448602783" lon="9.1673469193851"><ele>335.0</ele><time>2026-05-01T10:03:42Z</time></trkpt><trkpt lat="42.65410108639062" lon="9.167249484827765"><ele>329.6666666666667</ele><time>2026-05-01T10:03:43Z</time></trkpt><trkpt lat="42.653934703148906" lon="9.167194603633888"><ele>324.3333333333333</ele><time>2026-05-01T10:03:44Z</time></trkpt><trkpt lat="42.65378865672778" lon="9.167132407091712"><ele>319.0</ele><time>2026-05-01T10:03:45Z</time></trkpt><trkpt lat="42.653679140683806" lon="9.167027846550871"><ele>319.0</ele><time>2026-05-01T10:03:46Z</time></trkpt><trkpt lat="42.65362018789301" lon="9.166893458255885"><ele>319.0</ele><time>2026-05-01T10:03:47Z</time></trkpt><trkpt lat="42.653639011117185" lon="9.166740495106538"><ele>319.0</ele><time>2026-05-01T10:03:48Z</time></trkpt><trkpt lat="42.65370662790846" lon="9.16656506883276"><ele>319.0</ele><time>2026-05-01T10:03:49Z</time></trkpt><trkpt lat="42.65379013361559" lon="9.166375920064802"><ele>317.66666666666663</ele><time>2026-05-01T10:03:50Z</time></trkpt><trkpt lat="42.65384718461863" lon="9.166160380097287"><ele>316.3333333333333</ele><time>2026-05-01T10:03:51Z</time></trkpt><trkpt lat="42.653867100137816" lon="9.165928033087013"><ele>315.0</ele><time>2026-05-01T10:03:52Z</time></trkpt><trkpt lat="42.65386877496892" lon="9.165694616404714"><ele>313.0</ele><time>2026-05-01T10:03:53Z</time></trkpt><trkpt lat="42.65385407804865" lon="9.165480095728984"><ele>311.0</ele><time>2026-05-01T10:03:54Z</time></trkpt><trkpt lat="42.653802105198764" lon="9.165306445815588"><ele>309.0</ele><time>2026-05-01T10:03:55Z</time></trkpt><trkpt lat="42.653696778826045" lon="9.16516604624519"><ele>307.0</ele><time>2026-05-01T10:03:56Z</time></trkpt><trkpt lat="42.65356582256352" lon="9.1650464590683"><ele>316.5</ele><time>2026-05-01T10:03:57Z</time></trkpt><trkpt lat="42.65338409901746" lon="9.164703832667449"><ele>326.0</ele><time>2026-05-01T10:03:59Z</time></trkpt><trkpt lat="42.653350168681925" lon="9.164497449107127"><ele>326.0</ele><time>2026-05-01T10:04:00Z</time></trkpt><trkpt lat="42.65336893220469" lon="9.164280714525816"><ele>326.0</ele><time>2026-05-01T10:04:01Z</time></trkpt><trkpt lat="42.6534290583001" lon="9.164057542892152"><ele>326.0</ele><time>2026-05-01T10:04:02Z</time></trkpt><trkpt lat="42.65349629095027" lon="9.163844753747217"><ele>325.5</ele><time>2026-05-01T10:04:03Z</time></trkpt><trkpt lat="42.65353136521434" lon="9.163669990908343"><ele>325.0</ele><time>2026-05-01T10:04:04Z</time></trkpt><trkpt lat="42.653498408377004" lon="9.163484741431631"><ele>324.5</ele><time>2026-05-01T10:04:05Z</time></trkpt><trkpt lat="42.65343490657969" lon="9.16327899355697"><ele>324.0</ele><time>2026-05-01T10:04:06Z</time></trkpt><trkpt lat="42.6534295721634" lon="9.163073464765048"><ele>323.0</ele><time>2026-05-01T10:04:07Z</time></trkpt><trkpt lat="42.653476159760885" lon="9.162877626136375"><ele>322.0</ele><time>2026-05-01T10:04:08Z</time></trkpt><trkpt lat="42.6534671723018" lon="9.162701923978725"><ele>321.0</ele><time>2026-05-01T10:04:09Z</time></trkpt><trkpt lat="42.65338161782021" lon="9.162553865469256"><ele>320.0</ele><time>2026-05-01T10:04:10Z</time></trkpt><trkpt lat="42.65332601158975" lon="9.16240230507403"><ele>321.0</ele><time>2026-05-01T10:04:11Z</time></trkpt><trkpt lat="42.6533536069263" lon="9.162234779963066"><ele>322.0</ele><time>2026-05-01T10:04:12Z</time></trkpt><trkpt lat="42.65343495849082" lon="9.162050587944147"><ele>323.0</ele><time>2026-05-01T10:04:13Z</time></trkpt><trkpt lat="42.653521398319555" lon="9.161867279160337"><ele>324.0</ele><time>2026-05-01T10:04:14Z</time></trkpt><trkpt lat="42.65361242154376" lon="9.161721603307422"><ele>327.75</ele><time>2026-05-01T10:04:15Z</time></trkpt><trkpt lat="42.65372397986403" lon="9.161657756961915"><ele>331.5</ele><time>2026-05-01T10:04:16Z</time></trkpt><trkpt lat="42.65384301751173" lon="9.161693095849907"><ele>335.25</ele><time>2026-05-01T10:04:17Z</time></trkpt><trkpt lat="42.65396019376573" lon="9.161820944859516"><ele>339.0</ele><time>2026-05-01T10:04:18Z</time></trkpt><trkpt lat="42.65420016769269" lon="9.162300034417703"><ele>343.5</ele><time>2026-05-01T10:04:20Z</time></trkpt><trkpt lat="42.654343494957324" lon="9.162565105937253"><ele>348.0</ele><time>2026-05-01T10:04:21Z</time></trkpt><trkpt lat="42.65451100432359" lon="9.162832949341007"><ele>348.0</ele><time>2026-05-01T10:04:22Z</time></trkpt><trkpt lat="42.6546543442659" lon="9.163070897652592"><ele>348.0</ele><time>2026-05-01T10:04:23Z</time></trkpt><trkpt lat="42.65478637511451" lon="9.163264993178206"><ele>348.0</ele><time>2026-05-01T10:04:24Z</time></trkpt><trkpt lat="42.654921567266975" lon="9.163397756433357"><ele>342.0</ele><time>2026-05-01T10:04:25Z</time></trkpt><trkpt lat="42.65508671655113" lon="9.163461838932346"><ele>336.0</ele><time>2026-05-01T10:04:26Z</time></trkpt><trkpt lat="42.65529469988639" lon="9.163467315328875"><ele>330.0</ele><time>2026-05-01T10:04:27Z</time></trkpt><trkpt lat="42.65549414750359" lon="9.163420375710423"><ele>330.0</ele><time>2026-05-01T10:04:28Z</time></trkpt><trkpt lat="42.6556633840047" lon="9.16330417217249"><ele>330.0</ele><time>2026-05-01T10:04:29Z</time></trkpt><trkpt lat="42.655837330323976" lon="9.163131833375584"><ele>330.0</ele><time>2026-05-01T10:04:30Z</time></trkpt><trkpt lat="42.65602602592479" lon="9.16297170918551"><ele>332.0</ele><time>2026-05-01T10:04:31Z</time></trkpt><trkpt lat="42.65619416161931" lon="9.162756706278518"><ele>334.0</ele><time>2026-05-01T10:04:32Z</time></trkpt><trkpt lat="42.656350050883425" lon="9.162486760497416"><ele>337.5</ele><time>2026-05-01T10:04:33Z</time></trkpt><trkpt lat="42.65650019512519" lon="9.162221235358238"><ele>341.0</ele><time>2026-05-01T10:04:34Z</time></trkpt><trkpt lat="42.65662968623155" lon="9.161988841960977"><ele>341.0</ele><time>2026-05-01T10:04:35Z</time></trkpt><trkpt lat="42.6567003257568" lon="9.16177556785783"><ele>341.0</ele><time>2026-05-01T10:04:36Z</time></trkpt><trkpt lat="42.65669915470818" lon="9.16156680202242"><ele>341.0</ele><time>2026-05-01T10:04:37Z</time></trkpt><trkpt lat="42.65664546117529" lon="9.161344994204734"><ele>343.33333333333337</ele><time>2026-05-01T10:04:38Z</time></trkpt><trkpt lat="42.65661909143275" lon="9.16113059220087"><ele>345.6666666666667</ele><time>2026-05-01T10:04:39Z</time></trkpt><trkpt lat="42.65675235111471" lon="9.160860934264893"><ele>348.0</ele><time>2026-05-01T10:04:41Z</time></trkpt><trkpt lat="42.65685493927823" lon="9.16087596564367"><ele>347.0</ele><time>2026-05-01T10:04:42Z</time></trkpt><trkpt lat="42.65696866717587" lon="9.160961844688199"><ele>346.0</ele><time>2026-05-01T10:04:43Z</time></trkpt><trkpt lat="42.657078696760124" lon="9.161089948335468"><ele>345.0</ele><time>2026-05-01T10:04:44Z</time></trkpt><trkpt lat="42.6571627242517" lon="9.161162905086707"><ele>344.0</ele><time>2026-05-01T10:04:45Z</time></trkpt><trkpt lat="42.657243499037214" lon="9.161152190882829"><ele>344.0</ele><time>2026-05-01T10:06:00Z</time></trkpt><trkpt lat="42.65739337462382" lon="9.161089892231436"><ele>344.0</ele><time>2026-05-01T10:06:02Z</time></trkpt><trkpt lat="42.65747659233336" lon="9.161019214989151"><ele>344.0</ele><time>2026-05-01T10:06:03Z</time></trkpt><trkpt lat="42.657566098387036" lon="9.160901995077957"><ele>344.0</ele><time>2026-05-01T10:06:04Z</time></trkpt><trkpt lat="42.657655825250885" lon="9.160746586288159"><ele>344.6666666666667</ele><time>2026-05-01T10:06:05Z</time></trkpt><trkpt lat="42.657752457101004" lon="9.160562663170678"><ele>345.3333333333333</ele><time>2026-05-01T10:06:06Z</time></trkpt><trkpt lat="42.657842178553075" lon="9.160351486842977"><ele>346.0</ele><time>2026-05-01T10:06:07Z</time></trkpt><trkpt lat="42.65791901561328" lon="9.160105446580825"><ele>348.66666666666663</ele><time>2026-05-01T10:06:08Z</time></trkpt><trkpt lat="42.65798196736649" lon="9.15984361813709"><ele>351.3333333333333</ele><time>2026-05-01T10:06:09Z</time></trkpt><trkpt lat="42.658048141187734" lon="9.159587863187264"><ele>354.0</ele><time>2026-05-01T10:06:10Z</time></trkpt><trkpt lat="42.65811700017029" lon="9.159383680675683"><ele>354.0</ele><time>2026-05-01T10:06:11Z</time></trkpt><trkpt lat="42.65821614249825" lon="9.159218078227163"><ele>354.0</ele><time>2026-05-01T10:06:12Z</time></trkpt><trkpt lat="42.658354613716334" lon="9.159096441832167"><ele>354.0</ele><time>2026-05-01T10:06:13Z</time></trkpt><trkpt lat="42.65851890319469" lon="9.159016914986635"><ele>354.0</ele><time>2026-05-01T10:06:14Z</time></trkpt><trkpt lat="42.65868909627475" lon="9.15897988907107"><ele>354.0</ele><time>2026-05-01T10:06:15Z</time></trkpt><trkpt lat="42.6588220478926" lon="9.158972936315362"><ele>354.0</ele><time>2026-05-01T10:06:16Z</time></trkpt><trkpt lat="42.658909430449675" lon="9.158904291043067"><ele>354.0</ele><time>2026-05-01T10:06:17Z</time></trkpt><trkpt lat="42.65896790826253" lon="9.158736600782996"><ele>354.0</ele><time>2026-05-01T10:06:18Z</time></trkpt><trkpt lat="42.65904499874981" lon="9.15851827545685"><ele>354.0</ele><time>2026-05-01T10:06:19Z</time></trkpt><trkpt lat="42.65916945388745" lon="9.158310345184486"><ele>354.0</ele><time>2026-05-01T10:06:20Z</time></trkpt><trkpt lat="42.65929841964428" lon="9.158088189166403"><ele>361.5</ele><time>2026-05-01T10:06:21Z</time></trkpt><trkpt lat="42.65938422487671" lon="9.157607675683664"><ele>369.0</ele><time>2026-05-01T10:06:23Z</time></trkpt><trkpt lat="42.65938071501474" lon="9.157390678421221"><ele>366.3333333333333</ele><time>2026-05-01T10:06:24Z</time></trkpt><trkpt lat="42.65944552081068" lon="9.157191362793665"><ele>363.66666666666663</ele><time>2026-05-01T10:06:25Z</time></trkpt><trkpt lat="42.65955920610968" lon="9.156977415087562"><ele>361.0</ele><time>2026-05-01T10:06:26Z</time></trkpt><trkpt lat="42.65964396565077" lon="9.156772986943059"><ele>361.0</ele><time>2026-05-01T10:06:27Z</time></trkpt><trkpt lat="42.659716549107294" lon="9.156623694200764"><ele>361.0</ele><time>2026-05-01T10:06:28Z</time></trkpt><trkpt lat="42.65980804513696" lon="9.156551714477578"><ele>361.0</ele><time>2026-05-01T10:06:29Z</time></trkpt><trkpt lat="42.65991633822931" lon="9.156567244309405"><ele>361.0</ele><time>2026-05-01T10:06:30Z</time></trkpt><trkpt lat="42.660032210936635" lon="9.15664940022874"><ele>361.0</ele><time>2026-05-01T10:06:31Z</time></trkpt><trkpt lat="42.66016460805491" lon="9.156754383086716"><ele>361.0</ele><time>2026-05-01T10:06:32Z</time></trkpt><trkpt lat="42.660326942275105" lon="9.156775143061516"><ele>361.0</ele><time>2026-05-01T10:06:33Z</time></trkpt><trkpt lat="42.660512938781224" lon="9.156737782727255"><ele>362.0</ele><time>2026-05-01T10:06:34Z</time></trkpt><trkpt lat="42.660723700694355" lon="9.156772795203263"><ele>363.0</ele><time>2026-05-01T10:06:35Z</time></trkpt><trkpt lat="42.66094517095984" lon="9.156864789291555"><ele>364.0</ele><time>2026-05-01T10:06:36Z</time></trkpt><trkpt lat="42.661135667583466" lon="9.156949850148337"><ele>364.0</ele><time>2026-05-01T10:06:37Z</time></trkpt><trkpt lat="42.66127384929202" lon="9.157064234465023"><ele>364.0</ele><time>2026-05-01T10:06:38Z</time></trkpt><trkpt lat="42.66136553899154" lon="9.157227741604151"><ele>364.0</ele><time>2026-05-01T10:06:39Z</time></trkpt><trkpt lat="42.66146814262353" lon="9.157360590184135"><ele>364.0</ele><time>2026-05-01T10:06:40Z</time></trkpt><trkpt lat="42.66159901432675" lon="9.157397703127266"><ele>364.0</ele><time>2026-05-01T10:06:41Z</time></trkpt><trkpt lat="42.66173594016372" lon="9.157356795962958"><ele>364.0</ele><time>2026-05-01T10:06:42Z</time></trkpt><trkpt lat="42.66193955843819" lon="9.157089173068924"><ele>364.66666666666663</ele><time>2026-05-01T10:06:44Z</time></trkpt><trkpt lat="42.66197378905661" lon="9.15688245730664"><ele>365.3333333333333</ele><time>2026-05-01T10:06:45Z</time></trkpt><trkpt lat="42.66197315784985" lon="9.156649833358127"><ele>366.0</ele><time>2026-05-01T10:06:46Z</time></trkpt><trkpt lat="42.66198863333456" lon="9.15643694073135"><ele>366.0</ele><time>2026-05-01T10:06:47Z</time></trkpt><trkpt lat="42.66207623611151" lon="9.156260291715169"><ele>366.0</ele><time>2026-05-01T10:06:48Z</time></trkpt><trkpt lat="42.66220294012724" lon="9.1561688626319"><ele>366.0</ele><time>2026-05-01T10:06:49Z</time></trkpt><trkpt lat="42.66235476708518" lon="9.15617038400299"><ele>366.0</ele><time>2026-05-01T10:06:50Z</time></trkpt><trkpt lat="42.66253159498469" lon="9.156190889026789"><ele>366.0</ele><time>2026-05-01T10:06:51Z</time></trkpt><trkpt lat="42.662711356711455" lon="9.156142271263985"><ele>366.0</ele><time>2026-05-01T10:06:52Z</time></trkpt><trkpt lat="42.66287979348186" lon="9.156009777818182"><ele>364.3333333333333</ele><time>2026-05-01T10:06:53Z</time></trkpt><trkpt lat="42.663039147448686" lon="9.155832046006312"><ele>362.66666666666663</ele><time>2026-05-01T10:06:54Z</time></trkpt><trkpt lat="42.663173961680144" lon="9.15565137376031"><ele>361.0</ele><time>2026-05-01T10:06:55Z</time></trkpt><trkpt lat="42.66326265896202" lon="9.15544322630365"><ele>361.0</ele><time>2026-05-01T10:06:56Z</time></trkpt><trkpt lat="42.663342679678266" lon="9.155257997304599"><ele>361.0</ele><time>2026-05-01T10:06:57Z</time></trkpt><trkpt lat="42.6634522034914" lon="9.15515609242329"><ele>361.0</ele><time>2026-05-01T10:06:58Z</time></trkpt><trkpt lat="42.66358525958048" lon="9.155152684192085"><ele>361.0</ele><time>2026-05-01T10:06:59Z</time></trkpt><trkpt lat="42.6637322093315" lon="9.155201154396154"><ele>356.5</ele><time>2026-05-01T10:07:00Z</time></trkpt><trkpt lat="42.66388567003503" lon="9.155172846637434"><ele>352.0</ele><time>2026-05-01T10:07:01Z</time></trkpt><trkpt lat="42.66402546623783" lon="9.155082968558025"><ele>347.5</ele><time>2026-05-01T10:07:02Z</time></trkpt><trkpt lat="42.66413873030394" lon="9.155007193249894"><ele>343.0</ele><time>2026-05-01T10:07:03Z</time></trkpt><trkpt lat="42.66431498083321" lon="9.15488589639717"><ele>341.66666666666663</ele><time>2026-05-01T10:07:05Z</time></trkpt><trkpt lat="42.66439708062951" lon="9.15474206869222"><ele>340.3333333333333</ele><time>2026-05-01T10:07:06Z</time></trkpt><trkpt lat="42.66450527701364" lon="9.154549982446067"><ele>339.0</ele><time>2026-05-01T10:07:07Z</time></trkpt><trkpt lat="42.66466197754505" lon="9.154407274332987"><ele>339.0</ele><time>2026-05-01T10:07:08Z</time></trkpt><trkpt lat="42.664856157734754" lon="9.154315050828306"><ele>339.0</ele><time>2026-05-01T10:07:09Z</time></trkpt><trkpt lat="42.665058847348696" lon="9.154215792811732"><ele>339.0</ele><time>2026-05-01T10:07:10Z</time></trkpt><trkpt lat="42.665258980228344" lon="9.154094454157308"><ele>336.6666666666667</ele><time>2026-05-01T10:07:11Z</time></trkpt><trkpt lat="42.66543737548744" lon="9.153939714989322"><ele>334.33333333333337</ele><time>2026-05-01T10:07:12Z</time></trkpt><trkpt lat="42.66559501638852" lon="9.15375123033268"><ele>332.0</ele><time>2026-05-01T10:07:13Z</time></trkpt><trkpt lat="42.6657292166867" lon="9.153570861528713"><ele>332.0</ele><time>2026-05-01T10:07:14Z</time></trkpt><trkpt lat="42.66585583233386" lon="9.153438702658786"><ele>332.0</ele><time>2026-05-01T10:07:15Z</time></trkpt><trkpt lat="42.66597424252667" lon="9.153363328254386"><ele>332.0</ele><time>2026-05-01T10:07:16Z</time></trkpt><trkpt lat="42.66606594030373" lon="9.153266347281114"><ele>332.0</ele><time>2026-05-01T10:07:17Z</time></trkpt><trkpt lat="42.666120043326856" lon="9.15312472134263"><ele>325.25</ele><time>2026-05-01T10:07:18Z</time></trkpt><trkpt lat="42.6661513164463" lon="9.152994956934645"><ele>318.5</ele><time>2026-05-01T10:07:19Z</time></trkpt><trkpt lat="42.66616931804074" lon="9.15287132332409"><ele>311.75</ele><time>2026-05-01T10:07:20Z</time></trkpt><trkpt lat="42.66617905843489" lon="9.152680587673018"><ele>305.0</ele><time>2026-05-01T10:07:21Z</time></trkpt><trkpt lat="42.66618655969019" lon="9.152440370334098"><ele>305.6666666666667</ele><time>2026-05-01T10:07:22Z</time></trkpt><trkpt lat="42.66620153076689" lon="9.152180141799276"><ele>306.3333333333333</ele><time>2026-05-01T10:07:23Z</time></trkpt><trkpt lat="42.66624791710029" lon="9.151957662089426"><ele>307.0</ele><time>2026-05-01T10:07:24Z</time></trkpt><trkpt lat="42.66635735623635" lon="9.151608688074914"><ele>303.66666666666663</ele><time>2026-05-01T10:07:26Z</time></trkpt><trkpt lat="42.66633266875557" lon="9.151416995627727"><ele>300.3333333333333</ele><time>2026-05-01T10:07:27Z</time></trkpt><trkpt lat="42.66625670407092" lon="9.151240015230266"><ele>297.0</ele><time>2026-05-01T10:07:28Z</time></trkpt><trkpt lat="42.66613693703854" lon="9.151099533966903"><ele>306.3333333333333</ele><time>2026-05-01T10:07:29Z</time></trkpt><trkpt lat="42.66598693669942" lon="9.150993683272482"><ele>315.66666666666663</ele><time>2026-05-01T10:07:30Z</time></trkpt><trkpt lat="42.66581156144212" lon="9.150877218818225"><ele>325.0</ele><time>2026-05-01T10:07:31Z</time></trkpt><trkpt lat="42.665690527364525" lon="9.150734178802697"><ele>324.5</ele><time>2026-05-01T10:07:32Z</time></trkpt><trkpt lat="42.665629599645726" lon="9.150567883455885"><ele>324.0</ele><time>2026-05-01T10:07:33Z</time></trkpt><trkpt lat="42.66563505870257" lon="9.150375008449119"><ele>323.5</ele><time>2026-05-01T10:07:34Z</time></trkpt><trkpt lat="42.66568686401545" lon="9.150153590291081"><ele>323.0</ele><time>2026-05-01T10:07:35Z</time></trkpt><trkpt lat="42.6657658727821" lon="9.149927538102093"><ele>323.0</ele><time>2026-05-01T10:07:36Z</time></trkpt><trkpt lat="42.66587101047373" lon="9.149742313483182"><ele>323.0</ele><time>2026-05-01T10:07:37Z</time></trkpt><trkpt lat="42.66601765662074" lon="9.149610870547775"><ele>323.0</ele><time>2026-05-01T10:07:38Z</time></trkpt><trkpt lat="42.666210853382594" lon="9.149522914417581"><ele>323.0</ele><time>2026-05-01T10:07:39Z</time></trkpt><trkpt lat="42.66643341594807" lon="9.149432492004074"><ele>323.0</ele><time>2026-05-01T10:07:40Z</time></trkpt><trkpt lat="42.66664828446492" lon="9.149300509577923"><ele>323.0</ele><time>2026-05-01T10:07:41Z</time></trkpt><trkpt lat="42.66683671758363" lon="9.14917109624466"><ele>323.0</ele><time>2026-05-01T10:07:42Z</time></trkpt><trkpt lat="42.66700178276481" lon="9.149048374616873"><ele>323.0</ele><time>2026-05-01T10:07:43Z</time></trkpt><trkpt lat="42.667136772035796" lon="9.148890569828994"><ele>318.33333333333337</ele><time>2026-05-01T10:07:44Z</time></trkpt><trkpt lat="42.6672226705969" lon="9.148717540285968"><ele>313.6666666666667</ele><time>2026-05-01T10:07:45Z</time></trkpt><trkpt lat="42.66722821740306" lon="9.148393497811695"><ele>309.0</ele><time>2026-05-01T10:07:47Z</time></trkpt><trkpt lat="42.66715384438787" lon="9.14820782823626"><ele>307.3333333333333</ele><time>2026-05-01T10:07:48Z</time></trkpt><trkpt lat="42.6670614548551" lon="9.147982305166655"><ele>305.66666666666663</ele><time>2026-05-01T10:07:49Z</time></trkpt><trkpt lat="42.66697648481751" lon="9.147708064275953"><ele>304.0</ele><time>2026-05-01T10:07:50Z</time></trkpt><trkpt lat="42.66689211181676" lon="9.147409212227382"><ele>310.5</ele><time>2026-05-01T10:07:51Z</time></trkpt><trkpt lat="42.66678957832648" lon="9.147112652885879"><ele>317.0</ele><time>2026-05-01T10:07:52Z</time></trkpt><trkpt lat="42.66664626500637" lon="9.146836295077147"><ele>317.0</ele><time>2026-05-01T10:07:53Z</time></trkpt><trkpt lat="42.66648995340049" lon="9.146622149607758"><ele>317.0</ele><time>2026-05-01T10:07:54Z</time></trkpt><trkpt lat="42.66638979561167" lon="9.146438359222648"><ele>317.0</ele><time>2026-05-01T10:07:55Z</time></trkpt><trkpt lat="42.6663572265997" lon="9.146263426028435"><ele>316.5</ele><time>2026-05-01T10:07:56Z</time></trkpt><trkpt lat="42.666390804963115" lon="9.146102345919099"><ele>316.0</ele><time>2026-05-01T10:07:57Z</time></trkpt><trkpt lat="42.666489277837925" lon="9.14596364445163"><ele>315.5</ele><time>2026-05-01T10:07:58Z</time></trkpt><trkpt lat="42.666623714281684" lon="9.145825537149129"><ele>315.0</ele><time>2026-05-01T10:07:59Z</time></trkpt><trkpt lat="42.66670547352939" lon="9.14567564176852"><ele>315.0</ele><time>2026-05-01T10:08:00Z</time></trkpt><trkpt lat="42.666710796601826" lon="9.145465361158918"><ele>315.0</ele><time>2026-05-01T10:08:01Z</time></trkpt><trkpt lat="42.66667805968296" lon="9.145202388358307"><ele>315.0</ele><time>2026-05-01T10:08:02Z</time></trkpt><trkpt lat="42.666641220400614" lon="9.144907391024347"><ele>314.6666666666667</ele><time>2026-05-01T10:08:03Z</time></trkpt><trkpt lat="42.66664579388343" lon="9.144601714737163"><ele>314.33333333333337</ele><time>2026-05-01T10:08:04Z</time></trkpt><trkpt lat="42.6667089783152" lon="9.14433030616963"><ele>314.0</ele><time>2026-05-01T10:08:05Z</time></trkpt><trkpt lat="42.666786884371476" lon="9.144110429648569"><ele>309.5</ele><time>2026-05-01T10:08:06Z</time></trkpt><trkpt lat="42.66674476685999" lon="9.143748259286005"><ele>305.0</ele><time>2026-05-01T10:08:08Z</time></trkpt><trkpt lat="42.666617818444934" lon="9.143546621679183"><ele>305.0</ele><time>2026-05-01T10:08:09Z</time></trkpt><trkpt lat="42.66646967882658" lon="9.143324680774896"><ele>305.0</ele><time>2026-05-01T10:08:10Z</time></trkpt><trkpt lat="42.66633900590761" lon="9.143086111883798"><ele>305.0</ele><time>2026-05-01T10:08:11Z</time></trkpt><trkpt lat="42.666249411278606" lon="9.142850814415842"><ele>306.6666666666667</ele><time>2026-05-01T10:08:12Z</time></trkpt><trkpt lat="42.6662143179551" lon="9.14260041993075"><ele>308.3333333333333</ele><time>2026-05-01T10:08:13Z</time></trkpt><trkpt lat="42.66622392349491" lon="9.142331413182616"><ele>310.0</ele><time>2026-05-01T10:08:14Z</time></trkpt><trkpt lat="42.66623204896109" lon="9.142047467590709"><ele>310.0</ele><time>2026-05-01T10:08:15Z</time></trkpt><trkpt lat="42.66620878690228" lon="9.141766094679815"><ele>310.0</ele><time>2026-05-01T10:08:16Z</time></trkpt><trkpt lat="42.66613759396246" lon="9.141479062660359"><ele>310.0</ele><time>2026-05-01T10:08:17Z</time></trkpt><trkpt lat="42.666038635148446" lon="9.14118196901924"><ele>311.0</ele><time>2026-05-01T10:08:18Z</time></trkpt><trkpt lat="42.66592352840744" lon="9.140893630642552"><ele>312.0</ele><time>2026-05-01T10:08:19Z</time></trkpt><trkpt lat="42.66578608684783" lon="9.140641503964174"><ele>316.3333333333333</ele><time>2026-05-01T10:08:20Z</time></trkpt><trkpt lat="42.665637766706766" lon="9.140406571001877"><ele>320.66666666666663</ele><time>2026-05-01T10:08:21Z</time></trkpt><trkpt lat="42.6655157177243" lon="9.140185146763166"><ele>325.0</ele><time>2026-05-01T10:08:22Z</time></trkpt><trkpt lat="42.66542673071077" lon="9.13992855994069"><ele>328.0</ele><time>2026-05-01T10:08:23Z</time></trkpt><trkpt lat="42.665362357031704" lon="9.139658947020916"><ele>331.0</ele><time>2026-05-01T10:08:24Z</time></trkpt><trkpt lat="42.66532256685157" lon="9.139391572287906"><ele>334.0</ele><time>2026-05-01T10:08:25Z</time></trkpt><trkpt lat="42.66530730808273" lon="9.139133903273226"><ele>338.0</ele><time>2026-05-01T10:08:26Z</time></trkpt><trkpt lat="42.665312911102255" lon="9.13890460839054"><ele>342.0</ele><time>2026-05-01T10:08:27Z</time></trkpt><trkpt lat="42.66521915557768" lon="9.138597274109186"><ele>346.0</ele><time>2026-05-01T10:08:29Z</time></trkpt><trkpt lat="42.66508490122498" lon="9.138469210569967"><ele>338.66666666666663</ele><time>2026-05-01T10:08:30Z</time></trkpt><trkpt lat="42.66490832290487" lon="9.138353733593004"><ele>331.3333333333333</ele><time>2026-05-01T10:08:31Z</time></trkpt><trkpt lat="42.664737260845406" lon="9.138234884691775"><ele>324.0</ele><time>2026-05-01T10:08:32Z</time></trkpt><trkpt lat="42.66461613799089" lon="9.138096206172996"><ele>324.0</ele><time>2026-05-01T10:08:33Z</time></trkpt><trkpt lat="42.66453235448127" lon="9.137911744499826"><ele>324.0</ele><time>2026-05-01T10:08:34Z</time></trkpt><trkpt lat="42.66447036338578" lon="9.137659706486144"><ele>324.0</ele><time>2026-05-01T10:08:35Z</time></trkpt><trkpt lat="42.664394900778184" lon="9.137368208334864"><ele>316.3333333333333</ele><time>2026-05-01T10:08:36Z</time></trkpt><trkpt lat="42.664306156176075" lon="9.137079930946376"><ele>308.66666666666663</ele><time>2026-05-01T10:08:37Z</time></trkpt><trkpt lat="42.66420012477558" lon="9.136836444092937"><ele>301.0</ele><time>2026-05-01T10:08:38Z</time></trkpt><trkpt lat="42.664059443800454" lon="9.13663781544393"><ele>298.66666666666663</ele><time>2026-05-01T10:08:39Z</time></trkpt><trkpt lat="42.66389062516925" lon="9.136494203482501"><ele>296.3333333333333</ele><time>2026-05-01T10:08:40Z</time></trkpt><trkpt lat="42.66368176178117" lon="9.136399006757895"><ele>294.0</ele><time>2026-05-01T10:08:41Z</time></trkpt><trkpt lat="42.663455452453114" lon="9.136324365701766"><ele>294.0</ele><time>2026-05-01T10:08:42Z</time></trkpt><trkpt lat="42.66326538770819" lon="9.136247266331067"><ele>294.0</ele><time>2026-05-01T10:08:43Z</time></trkpt><trkpt lat="42.66313192720312" lon="9.136150392105796"><ele>294.0</ele><time>2026-05-01T10:08:44Z</time></trkpt><trkpt lat="42.66305118992627" lon="9.136023651083347"><ele>294.0</ele><time>2026-05-01T10:08:45Z</time></trkpt><trkpt lat="42.66303160106622" lon="9.135866641831115"><ele>294.0</ele><time>2026-05-01T10:08:46Z</time></trkpt><trkpt lat="42.66306060212077" lon="9.13566155677456"><ele>294.0</ele><time>2026-05-01T10:08:47Z</time></trkpt><trkpt lat="42.66307708400323" lon="9.135417688060361"><ele>298.5</ele><time>2026-05-01T10:08:48Z</time></trkpt><trkpt lat="42.66289886725357" lon="9.13495162769104"><ele>303.0</ele><time>2026-05-01T10:08:50Z</time></trkpt><trkpt lat="42.66274208071317" lon="9.13474361056067"><ele>296.6666666666667</ele><time>2026-05-01T10:08:51Z</time></trkpt><trkpt lat="42.66255154746197" lon="9.134582111673407"><ele>290.33333333333337</ele><time>2026-05-01T10:08:52Z</time></trkpt><trkpt lat="42.66236521695685" lon="9.134477649104069"><ele>284.0</ele><time>2026-05-01T10:08:53Z</time></trkpt><trkpt lat="42.662233880831366" lon="9.13437138140316"><ele>284.0</ele><time>2026-05-01T10:08:54Z</time></trkpt><trkpt lat="42.66216553842123" lon="9.134251421859284"><ele>284.0</ele><time>2026-05-01T10:08:55Z</time></trkpt><trkpt lat="42.66215969707157" lon="9.134123665927"><ele>284.0</ele><time>2026-05-01T10:08:56Z</time></trkpt><trkpt lat="42.66220916170075" lon="9.13398094261442"><ele>284.0</ele><time>2026-05-01T10:08:57Z</time></trkpt><trkpt lat="42.66230176023337" lon="9.133807246586944"><ele>285.0</ele><time>2026-05-01T10:08:58Z</time></trkpt><trkpt lat="42.662372966730004" lon="9.133620334723588"><ele>286.0</ele><time>2026-05-01T10:08:59Z</time></trkpt><trkpt lat="42.66236911784773" lon="9.133446597327726"><ele>287.0</ele><time>2026-05-01T10:09:00Z</time></trkpt><trkpt lat="42.66228833866628" lon="9.133278806693355"><ele>288.0</ele><time>2026-05-01T10:09:01Z</time></trkpt><trkpt lat="42.662152065990966" lon="9.133110159140026"><ele>294.5</ele><time>2026-05-01T10:09:02Z</time></trkpt><trkpt lat="42.6619815676406" lon="9.132904064696284"><ele>301.0</ele><time>2026-05-01T10:09:03Z</time></trkpt><trkpt lat="42.66182254028175" lon="9.132691519755598"><ele>292.66666666666663</ele><time>2026-05-01T10:09:04Z</time></trkpt><trkpt lat="42.66170115279854" lon="9.132484948458657"><ele>284.3333333333333</ele><time>2026-05-01T10:09:05Z</time></trkpt><trkpt lat="42.66159753320666" lon="9.132320481716567"><ele>276.0</ele><time>2026-05-01T10:09:06Z</time></trkpt><trkpt lat="42.66149521791157" lon="9.132193758032285"><ele>276.0</ele><time>2026-05-01T10:09:07Z</time></trkpt><trkpt lat="42.661377936268856" lon="9.132111389617158"><ele>276.0</ele><time>2026-05-01T10:09:08Z</time></trkpt><trkpt lat="42.661156493861164" lon="9.132040555179145"><ele>276.0</ele><time>2026-05-01T10:09:10Z</time></trkpt><trkpt lat="42.66108493886478" lon="9.131972189554062"><ele>276.0</ele><time>2026-05-01T10:09:11Z</time></trkpt><trkpt lat="42.661045521027276" lon="9.131868512961637"><ele>272.25</ele><time>2026-05-01T10:09:12Z</time></trkpt><trkpt lat="42.66105258224458" lon="9.131737869809982"><ele>268.5</ele><time>2026-05-01T10:09:13Z</time></trkpt><trkpt lat="42.66109381006374" lon="9.131614747803953"><ele>264.75</ele><time>2026-05-01T10:09:14Z</time></trkpt><trkpt lat="42.66117238435464" lon="9.13146158158536"><ele>261.0</ele><time>2026-05-01T10:09:15Z</time></trkpt><trkpt lat="42.66127013045063" lon="9.13126774481779"><ele>261.0</ele><time>2026-05-01T10:09:16Z</time></trkpt><trkpt lat="42.66137040770864" lon="9.131050373603198"><ele>261.0</ele><time>2026-05-01T10:09:17Z</time></trkpt><trkpt lat="42.66147404989877" lon="9.130825364996655"><ele>261.0</ele><time>2026-05-01T10:09:18Z</time></trkpt><trkpt lat="42.66155688059252" lon="9.130590406127892"><ele>258.6666666666667</ele><time>2026-05-01T10:09:19Z</time></trkpt><trkpt lat="42.66161091891704" lon="9.13036465066775"><ele>256.33333333333337</ele><time>2026-05-01T10:09:20Z</time></trkpt><trkpt lat="42.661635588398504" lon="9.130138780504412"><ele>254.0</ele><time>2026-05-01T10:09:21Z</time></trkpt><trkpt lat="42.66164207700197" lon="9.129923465214453"><ele>257.6666666666667</ele><time>2026-05-01T10:09:22Z</time></trkpt><trkpt lat="42.66163696093798" lon="9.129705346660515"><ele>261.3333333333333</ele><time>2026-05-01T10:09:23Z</time></trkpt><trkpt lat="42.661612523317956" lon="9.129493153554183"><ele>265.0</ele><time>2026-05-01T10:09:24Z</time></trkpt><trkpt lat="42.66154961800729" lon="9.12928785833141"><ele>265.0</ele><time>2026-05-01T10:09:25Z</time></trkpt><trkpt lat="42.66145881267043" lon="9.12911325750088"><ele>265.0</ele><time>2026-05-01T10:09:26Z</time></trkpt><trkpt lat="42.661338161137024" lon="9.128977256997965"><ele>265.0</ele><time>2026-05-01T10:09:27Z</time></trkpt><trkpt lat="42.661188391926025" lon="9.128874260567125"><ele>255.66666666666666</ele><time>2026-05-01T10:09:28Z</time></trkpt><trkpt lat="42.66103328198187" lon="9.128809179754953"><ele>246.33333333333331</ele><time>2026-05-01T10:09:29Z</time></trkpt><trkpt lat="42.66081145350532" lon="9.12860976879086"><ele>237.0</ele><time>2026-05-01T10:09:31Z</time></trkpt><trkpt lat="42.66077622054737" lon="9.128439599374115"><ele>237.0</ele><time>2026-05-01T10:09:32Z</time></trkpt><trkpt lat="42.66080750364156" lon="9.128269358984461"><ele>237.0</ele><time>2026-05-01T10:09:33Z</time></trkpt><trkpt lat="42.66090248057941" lon="9.128129364619802"><ele>237.0</ele><time>2026-05-01T10:09:34Z</time></trkpt><trkpt lat="42.661038932824816" lon="9.127984127523298"><ele>237.0</ele><time>2026-05-01T10:09:35Z</time></trkpt><trkpt lat="42.661159553878434" lon="9.127838526894136"><ele>243.0</ele><time>2026-05-01T10:09:36Z</time></trkpt><trkpt lat="42.66125306543179" lon="9.12768771069278"><ele>249.0</ele><time>2026-05-01T10:09:37Z</time></trkpt><trkpt lat="42.661321670303956" lon="9.127514543460743"><ele>255.0</ele><time>2026-05-01T10:09:38Z</time></trkpt><trkpt lat="42.66135187579896" lon="9.127328413247845"><ele>261.0</ele><time>2026-05-01T10:09:39Z</time></trkpt><trkpt lat="42.66134736866573" lon="9.12714623756156"><ele>261.0</ele><time>2026-05-01T10:09:40Z</time></trkpt><trkpt lat="42.661323501610084" lon="9.126978569888378"><ele>261.0</ele><time>2026-05-01T10:09:41Z</time></trkpt><trkpt lat="42.66129636887044" lon="9.12683364562503"><ele>261.0</ele><time>2026-05-01T10:09:42Z</time></trkpt><trkpt lat="42.66126495585736" lon="9.126723165225004"><ele>261.0</ele><time>2026-05-01T10:09:43Z</time></trkpt><trkpt lat="42.66122509195314" lon="9.126621153851291"><ele>261.0</ele><time>2026-05-01T10:09:44Z</time></trkpt><trkpt lat="42.66116477581984" lon="9.126508779173331"><ele>257.6666666666667</ele><time>2026-05-01T10:09:45Z</time></trkpt><trkpt lat="42.66109795108914" lon="9.126409277019258"><ele>254.33333333333331</ele><time>2026-05-01T10:09:46Z</time></trkpt><trkpt lat="42.66103849297711" lon="9.12634232553494"><ele>251.0</ele><time>2026-05-01T10:09:47Z</time></trkpt><trkpt lat="42.660979705295105" lon="9.126280579610063"><ele>247.66666666666666</ele><time>2026-05-01T10:09:48Z</time></trkpt><trkpt lat="42.66091679294971" lon="9.126218774406238"><ele>244.33333333333331</ele><time>2026-05-01T10:09:49Z</time></trkpt><trkpt lat="42.660839630136174" lon="9.12614937029225"><ele>241.0</ele><time>2026-05-01T10:09:50Z</time></trkpt><trkpt lat="42.66068098744716" lon="9.12597763257839"><ele>241.0</ele><time>2026-05-01T10:09:52Z</time></trkpt><trkpt lat="42.66060020214921" lon="9.12588498854886"><ele>241.00000000000003</ele><time>2026-05-01T10:09:53Z</time></trkpt><trkpt lat="42.66053383832553" lon="9.125795353629988"><ele>241.00000000000003</ele><time>2026-05-01T10:09:54Z</time></trkpt><trkpt lat="42.66050165687898" lon="9.125681183418113"><ele>241.0</ele><time>2026-05-01T10:09:55Z</time></trkpt><trkpt lat="42.66046360816789" lon="9.125543860604104"><ele>241.0</ele><time>2026-05-01T10:09:56Z</time></trkpt><trkpt lat="42.66042322190822" lon="9.12538607340272"><ele>244.66666666666666</ele><time>2026-05-01T10:09:57Z</time></trkpt><trkpt lat="42.66037787423439" lon="9.125200946799447"><ele>248.33333333333331</ele><time>2026-05-01T10:09:58Z</time></trkpt><trkpt lat="42.66032582610171" lon="9.124962457003239"><ele>252.0</ele><time>2026-05-01T10:09:59Z</time></trkpt><trkpt lat="42.66026546804273" lon="9.124673598385018"><ele>238.0</ele><time>2026-05-01T10:10:00Z</time></trkpt><trkpt lat="42.660190016926265" lon="9.124347373205715"><ele>224.0</ele><time>2026-05-01T10:10:01Z</time></trkpt><trkpt lat="42.66012038656432" lon="9.124019875613381"><ele>224.0</ele><time>2026-05-01T10:10:02Z</time></trkpt><trkpt lat="42.66007628077492" lon="9.123726607257803"><ele>224.0</ele><time>2026-05-01T10:10:03Z</time></trkpt><trkpt lat="42.660032575804415" lon="9.123455152922299"><ele>224.0</ele><time>2026-05-01T10:10:04Z</time></trkpt><trkpt lat="42.65999090472307" lon="9.123206169309592"><ele>227.0</ele><time>2026-05-01T10:10:05Z</time></trkpt><trkpt lat="42.65994591851307" lon="9.12299897543343"><ele>230.0</ele><time>2026-05-01T10:10:06Z</time></trkpt><trkpt lat="42.65987567971266" lon="9.122831466299386"><ele>233.0</ele><time>2026-05-01T10:10:07Z</time></trkpt><trkpt lat="42.659780022604984" lon="9.122711052744076"><ele>236.0</ele><time>2026-05-01T10:10:08Z</time></trkpt><trkpt lat="42.659658950632895" lon="9.122629709827837"><ele>236.0</ele><time>2026-05-01T10:10:09Z</time></trkpt><trkpt lat="42.65952910484648" lon="9.12255196863329"><ele>236.0</ele><time>2026-05-01T10:10:10Z</time></trkpt><trkpt lat="42.65942080624502" lon="9.122451718782552"><ele>236.0</ele><time>2026-05-01T10:10:11Z</time></trkpt><trkpt lat="42.65934661393714" lon="9.122132870916998"><ele>233.0</ele><time>2026-05-01T10:10:13Z</time></trkpt><trkpt lat="42.65936648302099" lon="9.121971518480402"><ele>230.00000000000003</ele><time>2026-05-01T10:10:14Z</time></trkpt><trkpt lat="42.65935299881284" lon="9.121835710538575"><ele>227.00000000000003</ele><time>2026-05-01T10:10:15Z</time></trkpt><trkpt lat="42.65928526790005" lon="9.121724179672547"><ele>224.0</ele><time>2026-05-01T10:10:16Z</time></trkpt><trkpt lat="42.65917025639194" lon="9.12167282394285"><ele>221.0</ele><time>2026-05-01T10:10:17Z</time></trkpt><trkpt lat="42.659026538965946" lon="9.121683009706818"><ele>221.0</ele><time>2026-05-01T10:10:18Z</time></trkpt><trkpt lat="42.658866516440334" lon="9.121731017457051"><ele>221.0</ele><time>2026-05-01T10:10:19Z</time></trkpt><trkpt lat="42.65869768895597" lon="9.121776496530789"><ele>221.0</ele><time>2026-05-01T10:10:20Z</time></trkpt><trkpt lat="42.65852952158258" lon="9.121813513921934"><ele>219.5</ele><time>2026-05-01T10:10:21Z</time></trkpt><trkpt lat="42.65837647648769" lon="9.121813330650935"><ele>218.0</ele><time>2026-05-01T10:10:22Z</time></trkpt><trkpt lat="42.65825773371639" lon="9.121751454727868"><ele>216.5</ele><time>2026-05-01T10:10:23Z</time></trkpt><trkpt lat="42.65819267904433" lon="9.12163909429276"><ele>215.0</ele><time>2026-05-01T10:10:24Z</time></trkpt><trkpt lat="42.65817606922829" lon="9.12148090841196"><ele>215.0</ele><time>2026-05-01T10:10:25Z</time></trkpt><trkpt lat="42.65819148936893" lon="9.121275286959005"><ele>215.0</ele><time>2026-05-01T10:10:26Z</time></trkpt><trkpt lat="42.65821293964255" lon="9.121035623907657"><ele>215.0</ele><time>2026-05-01T10:10:27Z</time></trkpt><trkpt lat="42.65817597860955" lon="9.120792920360596"><ele>217.0</ele><time>2026-05-01T10:10:28Z</time></trkpt><trkpt lat="42.65808645271863" lon="9.12053796765993"><ele>219.0</ele><time>2026-05-01T10:10:29Z</time></trkpt><trkpt lat="42.65798788360591" lon="9.120278290156708"><ele>221.0</ele><time>2026-05-01T10:10:30Z</time></trkpt><trkpt lat="42.657915237004936" lon="9.120029074509663"><ele>218.0</ele><time>2026-05-01T10:10:31Z</time></trkpt><trkpt lat="42.65787055205908" lon="9.119800261612422"><ele>215.0</ele><time>2026-05-01T10:10:32Z</time></trkpt><trkpt lat="42.6578345496113" lon="9.119379468059503"><ele>215.0</ele><time>2026-05-01T10:10:34Z</time></trkpt><trkpt lat="42.657832935290365" lon="9.119186173232016"><ele>215.0</ele><time>2026-05-01T10:10:35Z</time></trkpt><trkpt lat="42.657841331728726" lon="9.118993944757449"><ele>215.0</ele><time>2026-05-01T10:10:36Z</time></trkpt><trkpt lat="42.657861076637296" lon="9.118813449995093"><ele>215.0</ele><time>2026-05-01T10:10:37Z</time></trkpt><trkpt lat="42.657894634499776" lon="9.118640716324215"><ele>212.0</ele><time>2026-05-01T10:10:38Z</time></trkpt><trkpt lat="42.6579432119738" lon="9.11848280269239"><ele>209.0</ele><time>2026-05-01T10:10:39Z</time></trkpt><trkpt lat="42.65801754960581" lon="9.118353342717121"><ele>206.0</ele><time>2026-05-01T10:10:40Z</time></trkpt><trkpt lat="42.658109810612295" lon="9.11825163972572"><ele>203.0</ele><time>2026-05-01T10:10:41Z</time></trkpt><trkpt lat="42.658190063036294" lon="9.118160377351902"><ele>202.16666666666669</ele><time>2026-05-01T10:10:42Z</time></trkpt><trkpt lat="42.65824677920753" lon="9.118068970021863"><ele>201.33333333333334</ele><time>2026-05-01T10:10:43Z</time></trkpt><trkpt lat="42.65828973753738" lon="9.117968942244877"><ele>200.5</ele><time>2026-05-01T10:10:44Z</time></trkpt><trkpt lat="42.65831790938475" lon="9.117862397390843"><ele>199.66666666666669</ele><time>2026-05-01T10:10:45Z</time></trkpt><trkpt lat="42.65831760527471" lon="9.117748480921941"><ele>198.83333333333334</ele><time>2026-05-01T10:10:46Z</time></trkpt><trkpt lat="42.658292435352514" lon="9.11762077685142"><ele>198.0</ele><time>2026-05-01T10:10:47Z</time></trkpt><trkpt lat="42.65824396966516" lon="9.11750478835731"><ele>198.25</ele><time>2026-05-01T10:10:48Z</time></trkpt><trkpt lat="42.65816499052915" lon="9.117395668705653"><ele>198.5</ele><time>2026-05-01T10:10:49Z</time></trkpt><trkpt lat="42.65806655609067" lon="9.11729026831419"><ele>198.75</ele><time>2026-05-01T10:10:50Z</time></trkpt><trkpt lat="42.65796710624406" lon="9.117187481922814"><ele>199.0</ele><time>2026-05-01T10:10:51Z</time></trkpt><trkpt lat="42.65787709889254" lon="9.117080003460385"><ele>199.0</ele><time>2026-05-01T10:10:52Z</time></trkpt><trkpt lat="42.65778945542992" lon="9.11697523440691"><ele>199.0</ele><time>2026-05-01T10:10:53Z</time></trkpt><trkpt lat="42.65766993521748" lon="9.116728220698313"><ele>199.0</ele><time>2026-05-01T10:10:55Z</time></trkpt><trkpt lat="42.6576386289683" lon="9.116573348529766"><ele>195.39999999999998</ele><time>2026-05-01T10:10:56Z</time></trkpt><trkpt lat="42.65764780984971" lon="9.11642036705119"><ele>191.8</ele><time>2026-05-01T10:10:57Z</time></trkpt><trkpt lat="42.65769083295982" lon="9.116289748928265"><ele>188.2</ele><time>2026-05-01T10:10:58Z</time></trkpt><trkpt lat="42.65775272714007" lon="9.116186154711338"><ele>184.60000000000002</ele><time>2026-05-01T10:10:59Z</time></trkpt><trkpt lat="42.65783954787434" lon="9.116095661365728"><ele>181.0</ele><time>2026-05-01T10:11:00Z</time></trkpt><trkpt lat="42.657952977104564" lon="9.116005387245428"><ele>181.0</ele><time>2026-05-01T10:11:01Z</time></trkpt><trkpt lat="42.65808059214157" lon="9.115904818282104"><ele>181.0</ele><time>2026-05-01T10:11:02Z</time></trkpt><trkpt lat="42.658212735466115" lon="9.11580415321984"><ele>181.0</ele><time>2026-05-01T10:11:03Z</time></trkpt><trkpt lat="42.65833328453035" lon="9.115720036688723"><ele>181.0</ele><time>2026-05-01T10:11:04Z</time></trkpt><trkpt lat="42.65840769339958" lon="9.11567420412574"><ele>179.4</ele><time>2026-05-01T10:11:05Z</time></trkpt><trkpt lat="42.6585115178844" lon="9.115607413583385"><ele>177.8</ele><time>2026-05-01T10:11:07Z</time></trkpt><trkpt lat="42.65861267033317" lon="9.115493209645681"><ele>176.20000000000002</ele><time>2026-05-01T10:11:09Z</time></trkpt><trkpt lat="42.65865721136161" lon="9.115386359064564"><ele>174.60000000000002</ele><time>2026-05-01T10:11:10Z</time></trkpt><trkpt lat="42.65867906316853" lon="9.115251444301792"><ele>173.0</ele><time>2026-05-01T10:11:11Z</time></trkpt><trkpt lat="42.65866964865015" lon="9.115115531311279"><ele>177.5</ele><time>2026-05-01T10:11:12Z</time></trkpt><trkpt lat="42.65862521882545" lon="9.114988463360804"><ele>182.0</ele><time>2026-05-01T10:11:13Z</time></trkpt><trkpt lat="42.65857219143865" lon="9.114872460270055"><ele>186.5</ele><time>2026-05-01T10:11:14Z</time></trkpt><trkpt lat="42.65843306751705" lon="9.114677635440337"><ele>191.0</ele><time>2026-05-01T10:11:16Z</time></trkpt><trkpt lat="42.65834451925953" lon="9.114612336270389"><ele>191.0</ele><time>2026-05-01T10:11:17Z</time></trkpt><trkpt lat="42.658244851309746" lon="9.114571587065438"><ele>191.0</ele><time>2026-05-01T10:11:18Z</time></trkpt><trkpt lat="42.65813030461597" lon="9.114575871929812"><ele>191.0</ele><time>2026-05-01T10:11:19Z</time></trkpt><trkpt lat="42.65797804952718" lon="9.114647947908495"><ele>191.0</ele><time>2026-05-01T10:11:20Z</time></trkpt><trkpt lat="42.657790044574206" lon="9.11477046134375"><ele>180.5</ele><time>2026-05-01T10:11:21Z</time></trkpt><trkpt lat="42.65757106080291" lon="9.114906211768243"><ele>170.0</ele><time>2026-05-01T10:11:22Z</time></trkpt><trkpt lat="42.657351830502385" lon="9.115028337031266"><ele>170.0</ele><time>2026-05-01T10:11:23Z</time></trkpt><trkpt lat="42.65716350899748" lon="9.115147231369724"><ele>170.0</ele><time>2026-05-01T10:11:24Z</time></trkpt><trkpt lat="42.656996069476705" lon="9.115249385229388"><ele>170.0</ele><time>2026-05-01T10:11:25Z</time></trkpt><trkpt lat="42.65684602094746" lon="9.115320740692137"><ele>170.75</ele><time>2026-05-01T10:11:26Z</time></trkpt><trkpt lat="42.656696565939406" lon="9.115351526173079"><ele>171.5</ele><time>2026-05-01T10:11:27Z</time></trkpt><trkpt lat="42.656555597771785" lon="9.115331207385973"><ele>172.25</ele><time>2026-05-01T10:11:28Z</time></trkpt><trkpt lat="42.65643194137602" lon="9.115247898621673"><ele>173.0</ele><time>2026-05-01T10:11:29Z</time></trkpt><trkpt lat="42.656319719469195" lon="9.115119742198196"><ele>173.0</ele><time>2026-05-01T10:11:30Z</time></trkpt><trkpt lat="42.65620762041343" lon="9.11505109064427"><ele>173.0</ele><time>2026-05-01T10:11:31Z</time></trkpt><trkpt lat="42.65609687094583" lon="9.11507631508556"><ele>173.0</ele><time>2026-05-01T10:11:32Z</time></trkpt><trkpt lat="42.65599005246067" lon="9.115175886939914"><ele>173.0</ele><time>2026-05-01T10:11:33Z</time></trkpt><trkpt lat="42.655883450435276" lon="9.115329513122928"><ele>171.0</ele><time>2026-05-01T10:11:34Z</time></trkpt><trkpt lat="42.655774442479604" lon="9.115500706267136"><ele>169.0</ele><time>2026-05-01T10:11:35Z</time></trkpt><trkpt lat="42.655538911765326" lon="9.115714223985927"><ele>169.0</ele><time>2026-05-01T10:11:37Z</time></trkpt><trkpt lat="42.655422104151825" lon="9.115747896561421"><ele>169.0</ele><time>2026-05-01T10:11:38Z</time></trkpt><trkpt lat="42.655312527536694" lon="9.115716807655508"><ele>169.0</ele><time>2026-05-01T10:11:39Z</time></trkpt><trkpt lat="42.65521984251777" lon="9.115607561757068"><ele>169.0</ele><time>2026-05-01T10:11:40Z</time></trkpt><trkpt lat="42.65513471413237" lon="9.115439008969616"><ele>171.0</ele><time>2026-05-01T10:11:41Z</time></trkpt><trkpt lat="42.65502059823414" lon="9.115237139329773"><ele>173.0</ele><time>2026-05-01T10:11:42Z</time></trkpt><trkpt lat="42.65488012215751" lon="9.11503010948537"><ele>175.0</ele><time>2026-05-01T10:11:43Z</time></trkpt><trkpt lat="42.65473081878143" lon="9.114822679405815"><ele>175.0</ele><time>2026-05-01T10:11:44Z</time></trkpt><trkpt lat="42.65459783196593" lon="9.114617093809473"><ele>175.0</ele><time>2026-05-01T10:11:45Z</time></trkpt><trkpt lat="42.654479098865544" lon="9.114422420336803"><ele>175.0</ele><time>2026-05-01T10:11:46Z</time></trkpt><trkpt lat="42.65435626065354" lon="9.114260227243584"><ele>166.0</ele><time>2026-05-01T10:11:47Z</time></trkpt><trkpt lat="42.654221126466226" lon="9.114147175034109"><ele>157.0</ele><time>2026-05-01T10:11:48Z</time></trkpt><trkpt lat="42.65407402014514" lon="9.114093872109182"><ele>148.0</ele><time>2026-05-01T10:11:49Z</time></trkpt><trkpt lat="42.65391958356399" lon="9.114089534131168"><ele>148.0</ele><time>2026-05-01T10:11:50Z</time></trkpt><trkpt lat="42.653769624452856" lon="9.114084945128438"><ele>148.0</ele><time>2026-05-01T10:11:51Z</time></trkpt><trkpt lat="42.65362503946744" lon="9.114020308236068"><ele>148.0</ele><time>2026-05-01T10:11:52Z</time></trkpt><trkpt lat="42.653477496513176" lon="9.11389542821419"><ele>147.66666666666669</ele><time>2026-05-01T10:11:53Z</time></trkpt><trkpt lat="42.653315071463965" lon="9.113747121542254"><ele>147.33333333333334</ele><time>2026-05-01T10:11:54Z</time></trkpt><trkpt lat="42.6531496497942" lon="9.113601560322952"><ele>147.0</ele><time>2026-05-01T10:11:55Z</time></trkpt><trkpt lat="42.652978086418" lon="9.113466293290776"><ele>139.5</ele><time>2026-05-01T10:11:56Z</time></trkpt><trkpt lat="42.65266431613929" lon="9.113216663707794"><ele>132.0</ele><time>2026-05-01T10:11:58Z</time></trkpt><trkpt lat="42.6525554975568" lon="9.113059386206734"><ele>132.0</ele><time>2026-05-01T10:11:59Z</time></trkpt><trkpt lat="42.65248280011303" lon="9.112860241033024"><ele>132.0</ele><time>2026-05-01T10:12:00Z</time></trkpt><trkpt lat="42.65243490371535" lon="9.112639391654593"><ele>132.0</ele><time>2026-05-01T10:12:01Z</time></trkpt><trkpt lat="42.652429451572615" lon="9.112434961699513"><ele>128.33333333333334</ele><time>2026-05-01T10:12:02Z</time></trkpt><trkpt lat="42.65247151981699" lon="9.112243611667875"><ele>124.66666666666667</ele><time>2026-05-01T10:12:03Z</time></trkpt><trkpt lat="42.65255455620194" lon="9.112063250735648"><ele>121.0</ele><time>2026-05-01T10:12:04Z</time></trkpt><trkpt lat="42.65267170346297" lon="9.111901300645437"><ele>123.0</ele><time>2026-05-01T10:12:05Z</time></trkpt><trkpt lat="42.65279526716792" lon="9.111729344722884"><ele>125.0</ele><time>2026-05-01T10:12:06Z</time></trkpt><trkpt lat="42.65289202990764" lon="9.111538775248542"><ele>127.0</ele><time>2026-05-01T10:12:07Z</time></trkpt><trkpt lat="42.65294267069351" lon="9.111307858805263"><ele>127.0</ele><time>2026-05-01T10:12:08Z</time></trkpt><trkpt lat="42.65297786824562" lon="9.111080984625366"><ele>127.0</ele><time>2026-05-01T10:12:09Z</time></trkpt><trkpt lat="42.653024848386316" lon="9.11088415246143"><ele>127.0</ele><time>2026-05-01T10:12:10Z</time></trkpt><trkpt lat="42.65310096161829" lon="9.110737433694332"><ele>127.25</ele><time>2026-05-01T10:12:11Z</time></trkpt><trkpt lat="42.65320512309354" lon="9.110668892668082"><ele>127.5</ele><time>2026-05-01T10:12:12Z</time></trkpt><trkpt lat="42.653325097150635" lon="9.11068204950249"><ele>127.75</ele><time>2026-05-01T10:12:13Z</time></trkpt><trkpt lat="42.65348234682515" lon="9.110719270391517"><ele>128.0</ele><time>2026-05-01T10:12:14Z</time></trkpt><trkpt lat="42.65366021992007" lon="9.110727773089273"><ele>128.0</ele><time>2026-05-01T10:12:15Z</time></trkpt><trkpt lat="42.65381259103488" lon="9.110711119159555"><ele>128.0</ele><time>2026-05-01T10:12:16Z</time></trkpt><trkpt lat="42.65393041800609" lon="9.11066683112528"><ele>128.0</ele><time>2026-05-01T10:12:17Z</time></trkpt><trkpt lat="42.65405625659057" lon="9.1104192700072"><ele>128.0</ele><time>2026-05-01T10:12:19Z</time></trkpt><trkpt lat="42.654052282970916" lon="9.110268273636963"><ele>128.0</ele><time>2026-05-01T10:12:20Z</time></trkpt><trkpt lat="42.65401114537224" lon="9.110137950439364"><ele>128.0</ele><time>2026-05-01T10:12:21Z</time></trkpt><trkpt lat="42.65394277157344" lon="9.11004011310292"><ele>128.0</ele><time>2026-05-01T10:12:22Z</time></trkpt><trkpt lat="42.653858618297775" lon="9.109961832290299"><ele>128.0</ele><time>2026-05-01T10:12:23Z</time></trkpt><trkpt lat="42.65378938641432" lon="9.109861503100559"><ele>126.60000000000001</ele><time>2026-05-01T10:12:24Z</time></trkpt><trkpt lat="42.653750270029875" lon="9.109726936261175"><ele>125.20000000000002</ele><time>2026-05-01T10:12:25Z</time></trkpt><trkpt lat="42.65375661414819" lon="9.109576416672779"><ele>123.8</ele><time>2026-05-01T10:12:26Z</time></trkpt><trkpt lat="42.65379368061244" lon="9.109430672535069"><ele>122.4</ele><time>2026-05-01T10:12:27Z</time></trkpt><trkpt lat="42.65386599138176" lon="9.109308660150933"><ele>121.0</ele><time>2026-05-01T10:12:28Z</time></trkpt><trkpt lat="42.653958064377335" lon="9.109215600661214"><ele>121.0</ele><time>2026-05-01T10:12:29Z</time></trkpt><trkpt lat="42.65403981044338" lon="9.109114566442706"><ele>121.0</ele><time>2026-05-01T10:12:30Z</time></trkpt><trkpt lat="42.654078577655284" lon="9.108976525829078"><ele>121.0</ele><time>2026-05-01T10:12:31Z</time></trkpt><trkpt lat="42.65405824209939" lon="9.108819335221542"><ele>121.0</ele><time>2026-05-01T10:12:32Z</time></trkpt><trkpt lat="42.65399102904483" lon="9.108680300208885"><ele>121.25</ele><time>2026-05-01T10:12:33Z</time></trkpt><trkpt lat="42.65388946228717" lon="9.108592729397687"><ele>121.5</ele><time>2026-05-01T10:12:34Z</time></trkpt><trkpt lat="42.653771152542056" lon="9.108576051250845"><ele>121.75</ele><time>2026-05-01T10:12:35Z</time></trkpt><trkpt lat="42.65365415055023" lon="9.108603706071161"><ele>122.0</ele><time>2026-05-01T10:12:36Z</time></trkpt><trkpt lat="42.653542399574036" lon="9.108654070047733"><ele>118.33333333333333</ele><time>2026-05-01T10:12:37Z</time></trkpt><trkpt lat="42.653427366784676" lon="9.108677106106802"><ele>114.66666666666666</ele><time>2026-05-01T10:12:38Z</time></trkpt><trkpt lat="42.65319658911529" lon="9.108616294213268"><ele>111.0</ele><time>2026-05-01T10:12:40Z</time></trkpt><trkpt lat="42.65308590128281" lon="9.108552301936964"><ele>111.0</ele><time>2026-05-01T10:12:41Z</time></trkpt><trkpt lat="42.65298160171253" lon="9.108461186564314"><ele>111.0</ele><time>2026-05-01T10:12:42Z</time></trkpt><trkpt lat="42.65288331330972" lon="9.108360062783131"><ele>111.0</ele><time>2026-05-01T10:12:43Z</time></trkpt><trkpt lat="42.65279111071413" lon="9.10824960397437"><ele>111.0</ele><time>2026-05-01T10:12:44Z</time></trkpt><trkpt lat="42.65271903614804" lon="9.108116522274317"><ele>108.25</ele><time>2026-05-01T10:12:45Z</time></trkpt><trkpt lat="42.65265920776609" lon="9.107961146195843"><ele>105.5</ele><time>2026-05-01T10:12:46Z</time></trkpt><trkpt lat="42.652617998818805" lon="9.107792365003585"><ele>102.75</ele><time>2026-05-01T10:12:47Z</time></trkpt><trkpt lat="42.65260407217591" lon="9.107605671842322"><ele>100.0</ele><time>2026-05-01T10:12:48Z</time></trkpt><trkpt lat="42.65262200691946" lon="9.10741882690257"><ele>98.25</ele><time>2026-05-01T10:12:49Z</time></trkpt><trkpt lat="42.65266778344988" lon="9.10723416875691"><ele>96.5</ele><time>2026-05-01T10:12:50Z</time></trkpt><trkpt lat="42.65272622159981" lon="9.107054445090133"><ele>94.75</ele><time>2026-05-01T10:12:51Z</time></trkpt><trkpt lat="42.65278352205395" lon="9.106876554245936"><ele>93.0</ele><time>2026-05-01T10:12:52Z</time></trkpt><trkpt lat="42.65283457208416" lon="9.106695177395036"><ele>95.0</ele><time>2026-05-01T10:12:53Z</time></trkpt><trkpt lat="42.65287979890836" lon="9.106523154501257"><ele>97.0</ele><time>2026-05-01T10:12:54Z</time></trkpt><trkpt lat="42.652915522172215" lon="9.10635926656441"><ele>99.0</ele><time>2026-05-01T10:12:55Z</time></trkpt><trkpt lat="42.652926700001224" lon="9.106205098997455"><ele>101.0</ele><time>2026-05-01T10:12:56Z</time></trkpt><trkpt lat="42.652889464986174" lon="9.106060650079792"><ele>101.0</ele><time>2026-05-01T10:12:57Z</time></trkpt><trkpt lat="42.6528144302245" lon="9.105945222289744"><ele>101.0</ele><time>2026-05-01T10:12:58Z</time></trkpt><trkpt lat="42.65271296893672" lon="9.105879356146374"><ele>101.0</ele><time>2026-05-01T10:12:59Z</time></trkpt><trkpt lat="42.65249241715361" lon="9.105923521355349"><ele>101.0</ele><time>2026-05-01T10:13:01Z</time></trkpt><trkpt lat="42.65240514285436" lon="9.106041174223993"><ele>99.5</ele><time>2026-05-01T10:13:02Z</time></trkpt><trkpt lat="42.65234057475545" lon="9.106184015387871"><ele>98.0</ele><time>2026-05-01T10:13:03Z</time></trkpt><trkpt lat="42.65228661368132" lon="9.106335967896685"><ele>96.5</ele><time>2026-05-01T10:13:04Z</time></trkpt><trkpt lat="42.65222949733835" lon="9.106485692597296"><ele>95.0</ele><time>2026-05-01T10:13:05Z</time></trkpt><trkpt lat="42.652154656362846" lon="9.106618264955705"><ele>94.75</ele><time>2026-05-01T10:13:06Z</time></trkpt><trkpt lat="42.65205960679188" lon="9.106724932041983"><ele>94.5</ele><time>2026-05-01T10:13:07Z</time></trkpt><trkpt lat="42.65194504226232" lon="9.106806969520331"><ele>94.25</ele><time>2026-05-01T10:13:08Z</time></trkpt><trkpt lat="42.65181653064067" lon="9.106856517192863"><ele>94.0</ele><time>2026-05-01T10:13:09Z</time></trkpt><trkpt lat="42.65168178526717" lon="9.106890933186"><ele>94.0</ele><time>2026-05-01T10:13:10Z</time></trkpt><trkpt lat="42.65154804750963" lon="9.106938356128703"><ele>94.0</ele><time>2026-05-01T10:13:11Z</time></trkpt><trkpt lat="42.651416327797875" lon="9.106997480771463"><ele>94.0</ele><time>2026-05-01T10:13:12Z</time></trkpt><trkpt lat="42.65128179239958" lon="9.107051717576363"><ele>94.0</ele><time>2026-05-01T10:13:13Z</time></trkpt><trkpt lat="42.65114530864123" lon="9.107094878685425"><ele>93.5</ele><time>2026-05-01T10:13:14Z</time></trkpt><trkpt lat="42.65101555103663" lon="9.107139266366188"><ele>93.0</ele><time>2026-05-01T10:13:15Z</time></trkpt><trkpt lat="42.650900221742624" lon="9.10717895391829"><ele>92.5</ele><time>2026-05-01T10:13:16Z</time></trkpt><trkpt lat="42.65079105224509" lon="9.107207010136907"><ele>92.0</ele><time>2026-05-01T10:13:17Z</time></trkpt><trkpt lat="42.650685710080666" lon="9.107236842364262"><ele>92.0</ele><time>2026-05-01T10:13:18Z</time></trkpt><trkpt lat="42.650584137636464" lon="9.10723805366652"><ele>92.0</ele><time>2026-05-01T10:13:19Z</time></trkpt><trkpt lat="42.65048386325724" lon="9.107183091895639"><ele>92.0</ele><time>2026-05-01T10:13:20Z</time></trkpt><trkpt lat="42.650281344557726" lon="9.106984258712247"><ele>91.75</ele><time>2026-05-01T10:13:22Z</time></trkpt><trkpt lat="42.6501666441452" lon="9.106955556870856"><ele>91.5</ele><time>2026-05-01T10:13:23Z</time></trkpt><trkpt lat="42.65005732688344" lon="9.10701779620648"><ele>91.25</ele><time>2026-05-01T10:13:24Z</time></trkpt><trkpt lat="42.6499647127512" lon="9.107148376084357"><ele>91.0</ele><time>2026-05-01T10:13:25Z</time></trkpt><trkpt lat="42.649864833601505" lon="9.107283821092858"><ele>87.5</ele><time>2026-05-01T10:13:26Z</time></trkpt><trkpt lat="42.64975841300557" lon="9.107414203356987"><ele>84.0</ele><time>2026-05-01T10:13:27Z</time></trkpt><trkpt lat="42.649650119690136" lon="9.107547632559953"><ele>80.5</ele><time>2026-05-01T10:13:28Z</time></trkpt><trkpt lat="42.64954490684749" lon="9.10767501123315"><ele>77.0</ele><time>2026-05-01T10:13:29Z</time></trkpt><trkpt lat="42.649448752026515" lon="9.10777578016139"><ele>75.8</ele><time>2026-05-01T10:13:30Z</time></trkpt><trkpt lat="42.64935191091745" lon="9.10780391564011"><ele>74.6</ele><time>2026-05-01T10:13:31Z</time></trkpt><trkpt lat="42.64925823167297" lon="9.107760936562777"><ele>73.39999999999999</ele><time>2026-05-01T10:13:32Z</time></trkpt><trkpt lat="42.64919294421113" lon="9.1076594289217"><ele>72.2</ele><time>2026-05-01T10:13:33Z</time></trkpt><trkpt lat="42.649162312087675" lon="9.107502941492735"><ele>71.0</ele><time>2026-05-01T10:13:34Z</time></trkpt><trkpt lat="42.64912668261243" lon="9.107331678321907"><ele>75.5</ele><time>2026-05-01T10:13:35Z</time></trkpt><trkpt lat="42.649080857270924" lon="9.107166174594253"><ele>80.0</ele><time>2026-05-01T10:13:36Z</time></trkpt><trkpt lat="42.649012263197655" lon="9.107019507201242"><ele>84.5</ele><time>2026-05-01T10:13:37Z</time></trkpt><trkpt lat="42.648900255048886" lon="9.106920937504398"><ele>89.0</ele><time>2026-05-01T10:13:38Z</time></trkpt><trkpt lat="42.64877216521356" lon="9.10684129722368"><ele>89.0</ele><time>2026-05-01T10:13:39Z</time></trkpt><trkpt lat="42.64865833554332" lon="9.106747838985886"><ele>89.0</ele><time>2026-05-01T10:13:40Z</time></trkpt><trkpt lat="42.64855094481052" lon="9.106638370703749"><ele>89.0</ele><time>2026-05-01T10:13:41Z</time></trkpt><trkpt lat="42.64844114689864" lon="9.106313238183176"><ele>85.5</ele><time>2026-05-01T10:13:43Z</time></trkpt><trkpt lat="42.64839954513252" lon="9.1061388844346"><ele>82.0</ele><time>2026-05-01T10:13:44Z</time></trkpt><trkpt lat="42.64835032704876" lon="9.105962869488918"><ele>78.5</ele><time>2026-05-01T10:13:45Z</time></trkpt><trkpt lat="42.6482948074528" lon="9.105789754705908"><ele>75.0</ele><time>2026-05-01T10:13:46Z</time></trkpt><trkpt lat="42.64825291432429" lon="9.105613012475636"><ele>74.75</ele><time>2026-05-01T10:13:47Z</time></trkpt><trkpt lat="42.6482290524728" lon="9.105423489232331"><ele>74.5</ele><time>2026-05-01T10:13:48Z</time></trkpt><trkpt lat="42.648233050586214" lon="9.105229037019893"><ele>74.25</ele><time>2026-05-01T10:13:49Z</time></trkpt><trkpt lat="42.648261954679725" lon="9.105031169612154"><ele>74.0</ele><time>2026-05-01T10:13:50Z</time></trkpt><trkpt lat="42.648302516418575" lon="9.104834391508538"><ele>73.75</ele><time>2026-05-01T10:13:51Z</time></trkpt><trkpt lat="42.6483501879416" lon="9.104644270740536"><ele>73.5</ele><time>2026-05-01T10:13:52Z</time></trkpt><trkpt lat="42.64840333186478" lon="9.104470935773104"><ele>73.25</ele><time>2026-05-01T10:13:53Z</time></trkpt><trkpt lat="42.64843599641525" lon="9.104308441156"><ele>73.0</ele><time>2026-05-01T10:13:54Z</time></trkpt><trkpt lat="42.64840587117764" lon="9.104159953897053"><ele>73.0</ele><time>2026-05-01T10:13:55Z</time></trkpt><trkpt lat="42.64831389565796" lon="9.104043034080654"><ele>73.0</ele><time>2026-05-01T10:13:56Z</time></trkpt><trkpt lat="42.64817219803411" lon="9.103988982279878"><ele>73.0</ele><time>2026-05-01T10:13:57Z</time></trkpt><trkpt lat="42.64800474564692" lon="9.104012144503312"><ele>73.0</ele><time>2026-05-01T10:13:58Z</time></trkpt><trkpt lat="42.64781361478398" lon="9.104082455647687"><ele>72.0</ele><time>2026-05-01T10:13:59Z</time></trkpt><trkpt lat="42.647614585367236" lon="9.10412310585505"><ele>71.0</ele><time>2026-05-01T10:14:00Z</time></trkpt><trkpt lat="42.6473945048033" lon="9.10413487123031"><ele>70.0</ele><time>2026-05-01T10:14:01Z</time></trkpt><trkpt lat="42.647169297948466" lon="9.104145613265402"><ele>70.5</ele><time>2026-05-01T10:14:02Z</time></trkpt><trkpt lat="42.64673665138869" lon="9.104139345332129"><ele>71.0</ele><time>2026-05-01T10:14:04Z</time></trkpt><trkpt lat="42.64655267317603" lon="9.104077841818011"><ele>71.0</ele><time>2026-05-01T10:14:05Z</time></trkpt><trkpt lat="42.64642096872513" lon="9.103975892203891"><ele>71.0</ele><time>2026-05-01T10:14:06Z</time></trkpt><trkpt lat="42.6463410316383" lon="9.10383038839805"><ele>71.0</ele><time>2026-05-01T10:14:07Z</time></trkpt><trkpt lat="42.646296209565456" lon="9.103635168636849"><ele>71.0</ele><time>2026-05-01T10:14:08Z</time></trkpt><trkpt lat="42.64627001255835" lon="9.103400758870968"><ele>70.66666666666667</ele><time>2026-05-01T10:14:09Z</time></trkpt><trkpt lat="42.64623845416896" lon="9.103140859396069"><ele>70.33333333333333</ele><time>2026-05-01T10:14:10Z</time></trkpt><trkpt lat="42.64619120915026" lon="9.10287718251684"><ele>70.0</ele><time>2026-05-01T10:14:11Z</time></trkpt><trkpt lat="42.64613956144494" lon="9.102608077846257"><ele>67.0</ele><time>2026-05-01T10:14:12Z</time></trkpt><trkpt lat="42.64610297634806" lon="9.102351236109504"><ele>64.0</ele><time>2026-05-01T10:14:13Z</time></trkpt><trkpt lat="42.64609420972061" lon="9.102122896650924"><ele>61.0</ele><time>2026-05-01T10:14:14Z</time></trkpt><trkpt lat="42.646133861209755" lon="9.10191701705899"><ele>61.0</ele><time>2026-05-01T10:14:15Z</time></trkpt><trkpt lat="42.64622510671678" lon="9.101721374027244"><ele>61.0</ele><time>2026-05-01T10:14:16Z</time></trkpt><trkpt lat="42.64635892326671" lon="9.101560856494837"><ele>61.0</ele><time>2026-05-01T10:14:17Z</time></trkpt><trkpt lat="42.64648108554602" lon="9.1014669900786"><ele>58.5</ele><time>2026-05-01T10:14:18Z</time></trkpt><trkpt lat="42.64660662457922" lon="9.101471429330864"><ele>56.0</ele><time>2026-05-01T10:14:19Z</time></trkpt><trkpt lat="42.646752303569514" lon="9.101520172722678"><ele>53.5</ele><time>2026-05-01T10:14:20Z</time></trkpt><trkpt lat="42.64689514745415" lon="9.101556537114528"><ele>51.0</ele><time>2026-05-01T10:14:21Z</time></trkpt><trkpt lat="42.64701761947964" lon="9.101522936628312"><ele>57.66666666666667</ele><time>2026-05-01T10:14:22Z</time></trkpt><trkpt lat="42.64710490675735" lon="9.10141874112865"><ele>64.33333333333334</ele><time>2026-05-01T10:14:23Z</time></trkpt><trkpt lat="42.647098227428" lon="9.101087915204216"><ele>71.0</ele><time>2026-05-01T10:14:25Z</time></trkpt><trkpt lat="42.64702797745594" lon="9.100919897707202"><ele>68.5</ele><time>2026-05-01T10:14:26Z</time></trkpt><trkpt lat="42.64695212229032" lon="9.100755296374528"><ele>66.0</ele><time>2026-05-01T10:14:27Z</time></trkpt><trkpt lat="42.64692581013821" lon="9.10059048202634"><ele>63.5</ele><time>2026-05-01T10:14:28Z</time></trkpt><trkpt lat="42.64695131797361" lon="9.100423689893267"><ele>61.0</ele><time>2026-05-01T10:14:29Z</time></trkpt><trkpt lat="42.64701808816733" lon="9.100244366518508"><ele>61.0</ele><time>2026-05-01T10:14:30Z</time></trkpt><trkpt lat="42.64712448220779" lon="9.100109637266808"><ele>61.0</ele><time>2026-05-01T10:14:31Z</time></trkpt><trkpt lat="42.6472651087336" lon="9.099955045830365"><ele>61.0</ele><time>2026-05-01T10:14:32Z</time></trkpt><trkpt lat="42.64743666610663" lon="9.099771296183867"><ele>59.666666666666664</ele><time>2026-05-01T10:14:33Z</time></trkpt><trkpt lat="42.64760800636201" lon="9.099602675210171"><ele>58.33333333333333</ele><time>2026-05-01T10:14:34Z</time></trkpt><trkpt lat="42.64776050705993" lon="9.099454880556321"><ele>57.0</ele><time>2026-05-01T10:14:35Z</time></trkpt><trkpt lat="42.64787373398286" lon="9.099301224560913"><ele>57.0</ele><time>2026-05-01T10:14:36Z</time></trkpt><trkpt lat="42.647939713819184" lon="9.09911873546537"><ele>57.0</ele><time>2026-05-01T10:14:37Z</time></trkpt><trkpt lat="42.647951474518976" lon="9.098920094330843"><ele>57.0</ele><time>2026-05-01T10:14:38Z</time></trkpt><trkpt lat="42.64789990592184" lon="9.098720450720217"><ele>55.66666666666667</ele><time>2026-05-01T10:14:39Z</time></trkpt><trkpt lat="42.6477899916811" lon="9.0985614293021"><ele>54.333333333333336</ele><time>2026-05-01T10:14:40Z</time></trkpt><trkpt lat="42.647625432205324" lon="9.098459886824532"><ele>53.0</ele><time>2026-05-01T10:14:41Z</time></trkpt><trkpt lat="42.647443933118254" lon="9.098380456079036"><ele>53.0</ele><time>2026-05-01T10:14:42Z</time></trkpt><trkpt lat="42.64727523869984" lon="9.098284416142063"><ele>53.0</ele><time>2026-05-01T10:14:43Z</time></trkpt><trkpt lat="42.64712178405335" lon="9.098186143655786"><ele>53.0</ele><time>2026-05-01T10:14:44Z</time></trkpt><trkpt lat="42.64688707943732" lon="9.098014331840416"><ele>52.16666666666667</ele><time>2026-05-01T10:14:46Z</time></trkpt><trkpt lat="42.64680415570118" lon="9.09794176759943"><ele>51.333333333333336</ele><time>2026-05-01T10:14:47Z</time></trkpt><trkpt lat="42.646726511608456" lon="9.097878343211915"><ele>50.5</ele><time>2026-05-01T10:14:48Z</time></trkpt><trkpt lat="42.646665220101085" lon="9.097827122099458"><ele>49.66666666666667</ele><time>2026-05-01T10:14:49Z</time></trkpt><trkpt lat="42.64663319100003" lon="9.097730197235158"><ele>48.833333333333336</ele><time>2026-05-01T10:14:51Z</time></trkpt><trkpt lat="42.64663698439102" lon="9.097642956096879"><ele>48.0</ele><time>2026-05-01T10:14:52Z</time></trkpt><trkpt lat="42.646637884461825" lon="9.097539677637492"><ele>48.0</ele><time>2026-05-01T10:14:53Z</time></trkpt><trkpt lat="42.646633113156106" lon="9.097441111432365"><ele>48.0</ele><time>2026-05-01T10:14:54Z</time></trkpt><trkpt lat="42.64663766662904" lon="9.097293986788248"><ele>48.0</ele><time>2026-05-01T10:14:56Z</time></trkpt><trkpt lat="42.646640654247285" lon="9.097198458994317"><ele>48.0</ele><time>2026-05-01T10:15:29Z</time></trkpt><trkpt lat="42.64662690887259" lon="9.096815684014372"><ele>47.8</ele><time>2026-05-01T10:16:32Z</time></trkpt><trkpt lat="42.64661731458017" lon="9.096686525415603"><ele>47.599999999999994</ele><time>2026-05-01T10:16:33Z</time></trkpt><trkpt lat="42.646611641615046" lon="9.09656266804352"><ele>47.400000000000006</ele><time>2026-05-01T10:16:34Z</time></trkpt><trkpt lat="42.64660473892746" lon="9.096435203819617"><ele>47.2</ele><time>2026-05-01T10:16:35Z</time></trkpt><trkpt lat="42.6465931416535" lon="9.096304851416951"><ele>47.0</ele><time>2026-05-01T10:16:36Z</time></trkpt><trkpt lat="42.64657907854194" lon="9.096174757413936"><ele>46.8</ele><time>2026-05-01T10:16:37Z</time></trkpt><trkpt lat="42.646564783891286" lon="9.095923452730373"><ele>46.6</ele><time>2026-05-01T10:16:39Z</time></trkpt><trkpt lat="42.646556543963406" lon="9.095798904705921"><ele>46.4</ele><time>2026-05-01T10:16:40Z</time></trkpt><trkpt lat="42.64655042569963" lon="9.095696115258114"><ele>46.199999999999996</ele><time>2026-05-01T10:16:41Z</time></trkpt><trkpt lat="42.64654762796644" lon="9.09560572375451"><ele>46.0</ele><time>2026-05-01T10:16:42Z</time></trkpt><trkpt lat="42.646548154372354" lon="9.0954301850984"><ele>46.0</ele><time>2026-05-01T10:16:44Z</time></trkpt><trkpt lat="42.64654490843186" lon="9.095330250774001"><ele>46.0</ele><time>2026-05-01T10:16:45Z</time></trkpt><trkpt lat="42.64654000878122" lon="9.095229773083709"><ele>46.0</ele><time>2026-05-01T10:16:46Z</time></trkpt><trkpt lat="42.6465311060198" lon="9.095121198932313"><ele>46.0</ele><time>2026-05-01T10:16:47Z</time></trkpt><trkpt lat="42.64652643485013" lon="9.095009162440896"><ele>46.0</ele><time>2026-05-01T10:16:48Z</time></trkpt><trkpt lat="42.646524644247286" lon="9.094890436428066"><ele>46.0</ele><time>2026-05-01T10:16:49Z</time></trkpt><trkpt lat="42.64652088569784" lon="9.094768768606743"><ele>46.0</ele><time>2026-05-01T10:16:50Z</time></trkpt><trkpt lat="42.64651688060611" lon="9.09463991791731"><ele>46.0</ele><time>2026-05-01T10:16:51Z</time></trkpt><trkpt lat="42.646517238827414" lon="9.094380152918085"><ele>46.0</ele><time>2026-05-01T10:16:53Z</time></trkpt><trkpt lat="42.64652332335203" lon="9.094166079527222"><ele>46.0</ele><time>2026-05-01T10:16:54Z</time></trkpt><trkpt lat="42.64653173610314" lon="9.093891458678614"><ele>44.66666666666667</ele><time>2026-05-01T10:16:55Z</time></trkpt><trkpt lat="42.646556720175084" lon="9.093653560162737"><ele>43.333333333333336</ele><time>2026-05-01T10:16:56Z</time></trkpt><trkpt lat="42.64658674803525" lon="9.093445113557575"><ele>42.0</ele><time>2026-05-01T10:16:57Z</time></trkpt><trkpt lat="42.64662664928836" lon="9.09326010632739"><ele>41.75</ele><time>2026-05-01T10:16:58Z</time></trkpt><trkpt lat="42.64667594246293" lon="9.093098987834537"><ele>41.5</ele><time>2026-05-01T10:16:59Z</time></trkpt><trkpt lat="42.646724625046694" lon="9.092930236418376"><ele>41.25</ele><time>2026-05-01T10:17:00Z</time></trkpt><trkpt lat="42.64678487666919" lon="9.092762503011333"><ele>41.0</ele><time>2026-05-01T10:17:01Z</time></trkpt><trkpt lat="42.64685276795124" lon="9.092595764878746"><ele>41.0</ele><time>2026-05-01T10:17:02Z</time></trkpt><trkpt lat="42.646940158878955" lon="9.09244048345416"><ele>41.0</ele><time>2026-05-01T10:17:03Z</time></trkpt><trkpt lat="42.64703074611365" lon="9.092283079654019"><ele>41.0</ele><time>2026-05-01T10:17:04Z</time></trkpt><trkpt lat="42.647125540453516" lon="9.092136744333457"><ele>41.0</ele><time>2026-05-01T10:17:05Z</time></trkpt><trkpt lat="42.64722497869101" lon="9.092000525526023"><ele>41.25</ele><time>2026-05-01T10:17:06Z</time></trkpt><trkpt lat="42.64733076484627" lon="9.091864553644749"><ele>41.5</ele><time>2026-05-01T10:17:07Z</time></trkpt><trkpt lat="42.64743683677279" lon="9.091728407704986"><ele>41.75</ele><time>2026-05-01T10:17:08Z</time></trkpt><trkpt lat="42.647544692694765" lon="9.09158625773909"><ele>42.0</ele><time>2026-05-01T10:17:09Z</time></trkpt><trkpt lat="42.647650177375866" lon="9.091447135370553"><ele>42.0</ele><time>2026-05-01T10:17:10Z</time></trkpt><trkpt lat="42.64776095534167" lon="9.091301678118665"><ele>42.0</ele><time>2026-05-01T10:17:11Z</time></trkpt><trkpt lat="42.647876702800495" lon="9.091143048517667"><ele>42.0</ele><time>2026-05-01T10:17:12Z</time></trkpt><trkpt lat="42.6481232805861" lon="9.090844196567133"><ele>41.666666666666664</ele><time>2026-05-01T10:17:14Z</time></trkpt><trkpt lat="42.64824979509047" lon="9.090705912684912"><ele>41.33333333333333</ele><time>2026-05-01T10:17:15Z</time></trkpt><trkpt lat="42.648383932699666" lon="9.090581299014515"><ele>41.0</ele><time>2026-05-01T10:17:16Z</time></trkpt><trkpt lat="42.648528325265076" lon="9.09047366504966"><ele>40.666666666666664</ele><time>2026-05-01T10:17:17Z</time></trkpt><trkpt lat="42.64867794917346" lon="9.090375016059838"><ele>40.333333333333336</ele><time>2026-05-01T10:17:18Z</time></trkpt><trkpt lat="42.648830927219585" lon="9.090288588741616"><ele>40.0</ele><time>2026-05-01T10:17:19Z</time></trkpt><trkpt lat="42.648983431777054" lon="9.090225232185427"><ele>40.0</ele><time>2026-05-01T10:17:20Z</time></trkpt><trkpt lat="42.6491360763729" lon="9.090175241014723"><ele>40.0</ele><time>2026-05-01T10:17:21Z</time></trkpt><trkpt lat="42.649288285457295" lon="9.09013363616228"><ele>40.0</ele><time>2026-05-01T10:17:22Z</time></trkpt><trkpt lat="42.64943709906947" lon="9.090080792734991"><ele>39.333333333333336</ele><time>2026-05-01T10:17:23Z</time></trkpt><trkpt lat="42.64958606676085" lon="9.090009447345901"><ele>38.666666666666664</ele><time>2026-05-01T10:17:24Z</time></trkpt><trkpt lat="42.64973551893977" lon="9.08990779997878"><ele>38.0</ele><time>2026-05-01T10:17:25Z</time></trkpt><trkpt lat="42.649871134611615" lon="9.089774255069045"><ele>38.0</ele><time>2026-05-01T10:17:26Z</time></trkpt><trkpt lat="42.649996539142144" lon="9.089606731765391"><ele>38.0</ele><time>2026-05-01T10:17:27Z</time></trkpt><trkpt lat="42.650104311971475" lon="9.089417660927815"><ele>38.0</ele><time>2026-05-01T10:17:28Z</time></trkpt><trkpt lat="42.650184665067485" lon="9.089205513421293"><ele>37.666666666666664</ele><time>2026-05-01T10:17:29Z</time></trkpt><trkpt lat="42.650240198066335" lon="9.088973533754244"><ele>37.333333333333336</ele><time>2026-05-01T10:17:30Z</time></trkpt><trkpt lat="42.650259807171665" lon="9.088736689558514"><ele>37.0</ele><time>2026-05-01T10:17:31Z</time></trkpt><trkpt lat="42.65025480790765" lon="9.088505460705905"><ele>37.0</ele><time>2026-05-01T10:17:32Z</time></trkpt><trkpt lat="42.65022867448924" lon="9.088283787265933"><ele>37.0</ele><time>2026-05-01T10:17:33Z</time></trkpt><trkpt lat="42.65018352306101" lon="9.087814721390401"><ele>34.333333333333336</ele><time>2026-05-01T10:17:35Z</time></trkpt><trkpt lat="42.65016045978466" lon="9.087571078317133"><ele>31.666666666666664</ele><time>2026-05-01T10:17:36Z</time></trkpt><trkpt lat="42.650144050280275" lon="9.087327254183371"><ele>29.0</ele><time>2026-05-01T10:17:37Z</time></trkpt><trkpt lat="42.65014658261203" lon="9.087068497258466"><ele>27.333333333333332</ele><time>2026-05-01T10:17:38Z</time></trkpt><trkpt lat="42.650170919125614" lon="9.08680776199688"><ele>25.666666666666664</ele><time>2026-05-01T10:17:39Z</time></trkpt><trkpt lat="42.65020826669756" lon="9.086550707957617"><ele>24.0</ele><time>2026-05-01T10:17:40Z</time></trkpt><trkpt lat="42.650259269536086" lon="9.086297256979641"><ele>21.666666666666668</ele><time>2026-05-01T10:17:41Z</time></trkpt><trkpt lat="42.65030604080807" lon="9.086039634826202"><ele>19.333333333333336</ele><time>2026-05-01T10:17:42Z</time></trkpt><trkpt lat="42.65034845641846" lon="9.085773582680694"><ele>17.0</ele><time>2026-05-01T10:17:43Z</time></trkpt><trkpt lat="42.6503943704231" lon="9.085513304468556"><ele>16.0</ele><time>2026-05-01T10:17:44Z</time></trkpt><trkpt lat="42.65044402013715" lon="9.085249553640988"><ele>15.0</ele><time>2026-05-01T10:17:45Z</time></trkpt><trkpt lat="42.65049085494292" lon="9.084983802073687"><ele>14.0</ele><time>2026-05-01T10:17:46Z</time></trkpt><trkpt lat="42.65053843262497" lon="9.08471570003529"><ele>13.333333333333334</ele><time>2026-05-01T10:17:47Z</time></trkpt><trkpt lat="42.65058278735351" lon="9.084443520874236"><ele>12.666666666666668</ele><time>2026-05-01T10:17:48Z</time></trkpt><trkpt lat="42.650625897854354" lon="9.084170404474596"><ele>12.0</ele><time>2026-05-01T10:17:49Z</time></trkpt><trkpt lat="42.65066972306514" lon="9.083900284163827"><ele>12.0</ele><time>2026-05-01T10:17:50Z</time></trkpt><trkpt lat="42.650720145671194" lon="9.083625402142774"><ele>12.0</ele><time>2026-05-01T10:17:51Z</time></trkpt><trkpt lat="42.65077374431555" lon="9.083357965192773"><ele>12.0</ele><time>2026-05-01T10:17:52Z</time></trkpt><trkpt lat="42.650825807640516" lon="9.083085058821661"><ele>11.0</ele><time>2026-05-01T10:17:53Z</time></trkpt><trkpt lat="42.650874293546565" lon="9.082809230524967"><ele>10.0</ele><time>2026-05-01T10:17:54Z</time></trkpt><trkpt lat="42.65096360095941" lon="9.08226035537699"><ele>9.333333333333334</ele><time>2026-05-01T10:17:56Z</time></trkpt><trkpt lat="42.651011152977624" lon="9.0819896474122"><ele>8.666666666666666</ele><time>2026-05-01T10:17:57Z</time></trkpt><trkpt lat="42.65106120549756" lon="9.081716288655498"><ele>8.0</ele><time>2026-05-01T10:17:58Z</time></trkpt><trkpt lat="42.651111966900245" lon="9.081441441453942"><ele>7.666666666666666</ele><time>2026-05-01T10:17:59Z</time></trkpt><trkpt lat="42.65116189715829" lon="9.08117404048524"><ele>7.333333333333334</ele><time>2026-05-01T10:18:00Z</time></trkpt><trkpt lat="42.651210639236126" lon="9.080904968855794"><ele>7.0</ele><time>2026-05-01T10:18:01Z</time></trkpt><trkpt lat="42.651258211507226" lon="9.080638125544365"><ele>6.666666666666667</ele><time>2026-05-01T10:18:01.999Z</time></trkpt><trkpt lat="42.65130389379128" lon="9.080373064607114"><ele>6.333333333333334</ele><time>2026-05-01T10:18:02.999Z</time></trkpt><trkpt lat="42.65135013510931" lon="9.08011230970994"><ele>6.0</ele><time>2026-05-01T10:18:03.999Z</time></trkpt><trkpt lat="42.651393791861516" lon="9.079855902222004"><ele>6.0</ele><time>2026-05-01T10:18:04.999Z</time></trkpt><trkpt lat="42.65143610638646" lon="9.079599439515265"><ele>6.0</ele><time>2026-05-01T10:18:05.999Z</time></trkpt><trkpt lat="42.651476677856785" lon="9.07935210788245"><ele>6.0</ele><time>2026-05-01T10:18:06.999Z</time></trkpt><trkpt lat="42.651518090275026" lon="9.079101468273382"><ele>5.666666666666667</ele><time>2026-05-01T10:18:07.999Z</time></trkpt><trkpt lat="42.65156657461043" lon="9.07885694255188"><ele>5.333333333333334</ele><time>2026-05-01T10:18:08.999Z</time></trkpt><trkpt lat="42.65161269192298" lon="9.078610698534364"><ele>5.0</ele><time>2026-05-01T10:18:09.999Z</time></trkpt><trkpt lat="42.65165661071053" lon="9.078362384666379"><ele>5.0</ele><time>2026-05-01T10:18:10.999Z</time></trkpt><trkpt lat="42.65169842386387" lon="9.078120139610734"><ele>5.0</ele><time>2026-05-01T10:18:11.999Z</time></trkpt><trkpt lat="42.651743280961014" lon="9.077882272134934"><ele>5.0</ele><time>2026-05-01T10:18:12.999Z</time></trkpt><trkpt lat="42.651783930027904" lon="9.077633947041438"><ele>5.0</ele><time>2026-05-01T10:18:13.999Z</time></trkpt><trkpt lat="42.65182324122323" lon="9.07739190761287"><ele>5.0</ele><time>2026-05-01T10:18:14.999Z</time></trkpt><trkpt lat="42.65191197645109" lon="9.076889966231994"><ele>5.0</ele><time>2026-05-01T10:18:16.999Z</time></trkpt><trkpt lat="42.651960109304696" lon="9.07664935076995"><ele>5.0</ele><time>2026-05-01T10:18:17.999Z</time></trkpt><trkpt lat="42.65200784558272" lon="9.07640631698227"><ele>5.0</ele><time>2026-05-01T10:18:18.999Z</time></trkpt><trkpt lat="42.652049231529226" lon="9.076165578871676"><ele>5.0</ele><time>2026-05-01T10:18:19.999Z</time></trkpt><trkpt lat="42.652089561329845" lon="9.075924791475451"><ele>5.0</ele><time>2026-05-01T10:18:20.999Z</time></trkpt><trkpt lat="42.652130449258294" lon="9.075676736127974"><ele>5.0</ele><time>2026-05-01T10:18:21.999Z</time></trkpt><trkpt lat="42.652170129249605" lon="9.07544064855476"><ele>5.0</ele><time>2026-05-01T10:18:22.999Z</time></trkpt><trkpt lat="42.652212732081566" lon="9.075203335967485"><ele>5.0</ele><time>2026-05-01T10:18:23.999Z</time></trkpt><trkpt lat="42.65225342713057" lon="9.074972349852771"><ele>5.0</ele><time>2026-05-01T10:18:24.999Z</time></trkpt><trkpt lat="42.65229419772399" lon="9.074738252053221"><ele>5.333333333333334</ele><time>2026-05-01T10:18:25.999Z</time></trkpt><trkpt lat="42.652332698114655" lon="9.074496072697764"><ele>5.666666666666667</ele><time>2026-05-01T10:18:26.999Z</time></trkpt><trkpt lat="42.65237455566272" lon="9.074256071857683"><ele>6.0</ele><time>2026-05-01T10:18:27.999Z</time></trkpt><trkpt lat="42.6524169330444" lon="9.074011669677835"><ele>6.0</ele><time>2026-05-01T10:18:28.999Z</time></trkpt><trkpt lat="42.65246083388517" lon="9.073764353326178"><ele>6.0</ele><time>2026-05-01T10:18:30Z</time></trkpt><trkpt lat="42.652505797304066" lon="9.0735132912174"><ele>6.0</ele><time>2026-05-01T10:18:31Z</time></trkpt><trkpt lat="42.65255298371897" lon="9.073261129299484"><ele>7.666666666666666</ele><time>2026-05-01T10:18:32Z</time></trkpt><trkpt lat="42.652597808558895" lon="9.07301227153844"><ele>9.333333333333332</ele><time>2026-05-01T10:18:33Z</time></trkpt><trkpt lat="42.652642899551644" lon="9.072743828574087"><ele>11.0</ele><time>2026-05-01T10:18:34Z</time></trkpt><trkpt lat="42.65269184241575" lon="9.072476232918694"><ele>11.0</ele><time>2026-05-01T10:18:35Z</time></trkpt><trkpt lat="42.65273933146298" lon="9.072211825598984"><ele>11.0</ele><time>2026-05-01T10:18:36Z</time></trkpt><trkpt lat="42.65283723402547" lon="9.071676450637607"><ele>9.666666666666666</ele><time>2026-05-01T10:18:38Z</time></trkpt><trkpt lat="42.65288604938749" lon="9.071412652468586"><ele>8.333333333333334</ele><time>2026-05-01T10:18:39Z</time></trkpt><trkpt lat="42.652933320060555" lon="9.071156922066901"><ele>7.0</ele><time>2026-05-01T10:18:40Z</time></trkpt><trkpt lat="42.652979286262934" lon="9.070901176570063"><ele>8.0</ele><time>2026-05-01T10:18:41Z</time></trkpt><trkpt lat="42.65302320989221" lon="9.070648859351076"><ele>9.0</ele><time>2026-05-01T10:18:42Z</time></trkpt><trkpt lat="42.65306564143584" lon="9.070397379419076"><ele>10.0</ele><time>2026-05-01T10:18:43Z</time></trkpt><trkpt lat="42.65310534686304" lon="9.070153443378617"><ele>11.666666666666668</ele><time>2026-05-01T10:18:44Z</time></trkpt><trkpt lat="42.65314705121578" lon="9.06990120996169"><ele>13.333333333333334</ele><time>2026-05-01T10:18:45Z</time></trkpt><trkpt lat="42.65318582495721" lon="9.069651996043422"><ele>15.0</ele><time>2026-05-01T10:18:46Z</time></trkpt><trkpt lat="42.653222268612126" lon="9.06940522865138"><ele>15.0</ele><time>2026-05-01T10:18:47Z</time></trkpt><trkpt lat="42.65325564131653" lon="9.069156351476998"><ele>15.0</ele><time>2026-05-01T10:18:48Z</time></trkpt><trkpt lat="42.653286712918664" lon="9.068911479774199"><ele>15.0</ele><time>2026-05-01T10:18:49Z</time></trkpt><trkpt lat="42.65332137104646" lon="9.068666269319971"><ele>15.666666666666668</ele><time>2026-05-01T10:18:50Z</time></trkpt><trkpt lat="42.6533564270734" lon="9.0684163453095"><ele>16.333333333333336</ele><time>2026-05-01T10:18:51Z</time></trkpt><trkpt lat="42.65338069186204" lon="9.068162433011105"><ele>17.0</ele><time>2026-05-01T10:18:52Z</time></trkpt><trkpt lat="42.65338912270814" lon="9.06789219332013"><ele>18.0</ele><time>2026-05-01T10:18:53Z</time></trkpt><trkpt lat="42.65338431392752" lon="9.067612562940276"><ele>19.0</ele><time>2026-05-01T10:18:54Z</time></trkpt><trkpt lat="42.653376641778216" lon="9.067315702728626"><ele>20.0</ele><time>2026-05-01T10:18:55Z</time></trkpt><trkpt lat="42.653372883725694" lon="9.067015997302878"><ele>20.5</ele><time>2026-05-01T10:18:56Z</time></trkpt><trkpt lat="42.65336802330832" lon="9.066706473114287"><ele>21.0</ele><time>2026-05-01T10:18:57Z</time></trkpt><trkpt lat="42.65335649205838" lon="9.066066785888047"><ele>22.5</ele><time>2026-05-01T10:18:59Z</time></trkpt><trkpt lat="42.65335478004221" lon="9.065736031294088"><ele>24.0</ele><time>2026-05-01T10:19:00Z</time></trkpt><trkpt lat="42.65335245968858" lon="9.065393737528408"><ele>24.0</ele><time>2026-05-01T10:19:01Z</time></trkpt><trkpt lat="42.65334474337592" lon="9.065038261292733"><ele>24.0</ele><time>2026-05-01T10:19:02Z</time></trkpt><trkpt lat="42.65333742851068" lon="9.064689161055549"><ele>28.0</ele><time>2026-05-01T10:19:03Z</time></trkpt><trkpt lat="42.65333013461455" lon="9.064329569492484"><ele>32.0</ele><time>2026-05-01T10:19:04Z</time></trkpt><trkpt lat="42.65332271374695" lon="9.063971497562987"><ele>33.0</ele><time>2026-05-01T10:19:05Z</time></trkpt><trkpt lat="42.65331882369621" lon="9.06361488958581"><ele>34.0</ele><time>2026-05-01T10:19:06Z</time></trkpt><trkpt lat="42.65331709846349" lon="9.063252376632681"><ele>34.0</ele><time>2026-05-01T10:19:07Z</time></trkpt><trkpt lat="42.653313012079295" lon="9.062890809835812"><ele>34.0</ele><time>2026-05-01T10:19:08Z</time></trkpt><trkpt lat="42.65331232144794" lon="9.062528347713465"><ele>32.5</ele><time>2026-05-01T10:19:09Z</time></trkpt><trkpt lat="42.65331518700114" lon="9.062169262359724"><ele>31.0</ele><time>2026-05-01T10:19:10Z</time></trkpt><trkpt lat="42.653322018018635" lon="9.061822786204132"><ele>33.5</ele><time>2026-05-01T10:19:11Z</time></trkpt><trkpt lat="42.653341078244885" lon="9.061484730525533"><ele>36.0</ele><time>2026-05-01T10:19:12Z</time></trkpt><trkpt lat="42.65337121736029" lon="9.061168395123874"><ele>36.0</ele><time>2026-05-01T10:19:13Z</time></trkpt><trkpt lat="42.65341010360523" lon="9.060858971838465"><ele>36.0</ele><time>2026-05-01T10:19:14Z</time></trkpt><trkpt lat="42.65346820189729" lon="9.060562916622796"><ele>41.5</ele><time>2026-05-01T10:19:15Z</time></trkpt><trkpt lat="42.653550094693465" lon="9.06027571634818"><ele>47.0</ele><time>2026-05-01T10:19:16Z</time></trkpt><trkpt lat="42.65365171926129" lon="9.060001562173095"><ele>51.0</ele><time>2026-05-01T10:19:17Z</time></trkpt><trkpt lat="42.65376659435139" lon="9.059740830673274"><ele>55.0</ele><time>2026-05-01T10:19:18Z</time></trkpt><trkpt lat="42.654040057111715" lon="9.059242387496793"><ele>58.0</ele><time>2026-05-01T10:19:20Z</time></trkpt><trkpt lat="42.654191964296544" lon="9.059009469441731"><ele>61.0</ele><time>2026-05-01T10:19:21Z</time></trkpt><trkpt lat="42.65434509896968" lon="9.05877350641124"><ele>58.5</ele><time>2026-05-01T10:19:22Z</time></trkpt><trkpt lat="42.65450129822876" lon="9.058536396950672"><ele>56.0</ele><time>2026-05-01T10:19:23Z</time></trkpt><trkpt lat="42.65466070362823" lon="9.058297392727154"><ele>63.5</ele><time>2026-05-01T10:19:24Z</time></trkpt><trkpt lat="42.65482236384867" lon="9.058058684362221"><ele>71.0</ele><time>2026-05-01T10:19:25Z</time></trkpt><trkpt lat="42.65498112612557" lon="9.05781191770415"><ele>71.0</ele><time>2026-05-01T10:19:26Z</time></trkpt><trkpt lat="42.65514060450252" lon="9.057567121872038"><ele>71.0</ele><time>2026-05-01T10:19:27Z</time></trkpt><trkpt lat="42.65530580960573" lon="9.057320934071235"><ele>71.0</ele><time>2026-05-01T10:19:28Z</time></trkpt><trkpt lat="42.65547412595116" lon="9.057075460698858"><ele>71.0</ele><time>2026-05-01T10:19:29Z</time></trkpt><trkpt lat="42.655641907862375" lon="9.056823426421545"><ele>65.0</ele><time>2026-05-01T10:19:30Z</time></trkpt><trkpt lat="42.655807721087896" lon="9.05657420809885"><ele>59.0</ele><time>2026-05-01T10:19:31Z</time></trkpt><trkpt lat="42.65597864908002" lon="9.056318193836463"><ele>61.0</ele><time>2026-05-01T10:19:32Z</time></trkpt><trkpt lat="42.65614602910457" lon="9.056071303506071"><ele>63.0</ele><time>2026-05-01T10:19:33Z</time></trkpt><trkpt lat="42.65630660920977" lon="9.055831846105333"><ele>55.0</ele><time>2026-05-01T10:19:34Z</time></trkpt><trkpt lat="42.65646480964054" lon="9.055597616203363"><ele>47.0</ele><time>2026-05-01T10:19:35Z</time></trkpt><trkpt lat="42.656622687453414" lon="9.055362053411617"><ele>47.0</ele><time>2026-05-01T10:19:36Z</time></trkpt><trkpt lat="42.65676725905395" lon="9.055130112497654"><ele>47.0</ele><time>2026-05-01T10:19:37Z</time></trkpt><trkpt lat="42.656899725871654" lon="9.054897980496978"><ele>47.0</ele><time>2026-05-01T10:19:38Z</time></trkpt><trkpt lat="42.657016145078465" lon="9.054642856405135"><ele>33.5</ele><time>2026-05-01T10:19:39Z</time></trkpt><trkpt lat="42.657146073299984" lon="9.054073986133059"><ele>20.0</ele><time>2026-05-01T10:19:41Z</time></trkpt><trkpt lat="42.657149653343076" lon="9.053780192916507"><ele>20.0</ele><time>2026-05-01T10:19:42Z</time></trkpt><trkpt lat="42.65711143462548" lon="9.053486424272103"><ele>20.0</ele><time>2026-05-01T10:19:43Z</time></trkpt><trkpt lat="42.65705064874205" lon="9.053200404594241"><ele>20.0</ele><time>2026-05-01T10:19:44Z</time></trkpt><trkpt lat="42.65696097629973" lon="9.05292703228478"><ele>27.0</ele><time>2026-05-01T10:19:45Z</time></trkpt><trkpt lat="42.65686198661248" lon="9.052649946774473"><ele>34.0</ele><time>2026-05-01T10:19:46Z</time></trkpt><trkpt lat="42.656763413894865" lon="9.052372782219358"><ele>34.0</ele><time>2026-05-01T10:19:47Z</time></trkpt><trkpt lat="42.656671748198725" lon="9.052090842054026"><ele>34.0</ele><time>2026-05-01T10:19:48Z</time></trkpt><trkpt lat="42.65658118631609" lon="9.051816858330174"><ele>34.0</ele><time>2026-05-01T10:19:49Z</time></trkpt><trkpt lat="42.6564917843346" lon="9.051547142695778"><ele>30.0</ele><time>2026-05-01T10:19:50Z</time></trkpt><trkpt lat="42.656397996750144" lon="9.051272888248358"><ele>26.0</ele><time>2026-05-01T10:19:51Z</time></trkpt><trkpt lat="42.65631227428253" lon="9.0510072398609"><ele>22.0</ele><time>2026-05-01T10:19:52Z</time></trkpt><trkpt lat="42.65623109211181" lon="9.050744369107752"><ele>18.666666666666664</ele><time>2026-05-01T10:19:53Z</time></trkpt><trkpt lat="42.65614966007197" lon="9.050478943083144"><ele>15.333333333333332</ele><time>2026-05-01T10:19:54Z</time></trkpt><trkpt lat="42.65607031936737" lon="9.050211855025765"><ele>12.0</ele><time>2026-05-01T10:19:55Z</time></trkpt><trkpt lat="42.65599816245866" lon="9.049935097660395"><ele>16.666666666666664</ele><time>2026-05-01T10:19:56Z</time></trkpt><trkpt lat="42.65593380802112" lon="9.04964996281841"><ele>21.333333333333332</ele><time>2026-05-01T10:19:57Z</time></trkpt><trkpt lat="42.65587775552895" lon="9.049367907652675"><ele>26.0</ele><time>2026-05-01T10:19:58Z</time></trkpt><trkpt lat="42.65582316419077" lon="9.049071169492985"><ele>26.0</ele><time>2026-05-01T10:19:59Z</time></trkpt><trkpt lat="42.65577746126748" lon="9.048775504677527"><ele>26.0</ele><time>2026-05-01T10:20:00Z</time></trkpt><trkpt lat="42.65563592451596" lon="9.048194521716374"><ele>17.0</ele><time>2026-05-01T10:20:02Z</time></trkpt><trkpt lat="42.65553055066421" lon="9.047910101218491"><ele>8.0</ele><time>2026-05-01T10:20:03Z</time></trkpt><trkpt lat="42.655404629332224" lon="9.047636020673675"><ele>15.0</ele><time>2026-05-01T10:20:04Z</time></trkpt><trkpt lat="42.655259597126374" lon="9.047377197711146"><ele>22.0</ele><time>2026-05-01T10:20:05Z</time></trkpt><trkpt lat="42.655083199787185" lon="9.047148136913334"><ele>22.0</ele><time>2026-05-01T10:20:06Z</time></trkpt><trkpt lat="42.65488752473641" lon="9.046938631686151"><ele>22.0</ele><time>2026-05-01T10:20:07Z</time></trkpt><trkpt lat="42.65469286731273" lon="9.046726134764068"><ele>12.5</ele><time>2026-05-01T10:20:07.999Z</time></trkpt><trkpt lat="42.65450452351216" lon="9.046504332758838"><ele>3.0</ele><time>2026-05-01T10:20:08.999Z</time></trkpt><trkpt lat="42.65432453656479" lon="9.046264815819066"><ele>11.5</ele><time>2026-05-01T10:20:09.999Z</time></trkpt><trkpt lat="42.65415918164577" lon="9.046007343085885"><ele>20.0</ele><time>2026-05-01T10:20:10.999Z</time></trkpt><trkpt lat="42.65401580453804" lon="9.045732838769755"><ele>20.0</ele><time>2026-05-01T10:20:11.999Z</time></trkpt><trkpt lat="42.653886942799055" lon="9.045444213026947"><ele>20.0</ele><time>2026-05-01T10:20:12.999Z</time></trkpt><trkpt lat="42.65375975372843" lon="9.045160891077508"><ele>12.5</ele><time>2026-05-01T10:20:13.999Z</time></trkpt><trkpt lat="42.65362994518968" lon="9.044883086081859"><ele>5.0</ele><time>2026-05-01T10:20:14.999Z</time></trkpt><trkpt lat="42.65349861435416" lon="9.044611839960309"><ele>15.0</ele><time>2026-05-01T10:20:15.999Z</time></trkpt><trkpt lat="42.65336854790661" lon="9.04434106076751"><ele>25.0</ele><time>2026-05-01T10:20:16.999Z</time></trkpt><trkpt lat="42.653246290957085" lon="9.04407174633587"><ele>25.0</ele><time>2026-05-01T10:20:18Z</time></trkpt><trkpt lat="42.65313758997552" lon="9.04378562805111"><ele>25.0</ele><time>2026-05-01T10:20:19Z</time></trkpt><trkpt lat="42.65304373068358" lon="9.04348890099147"><ele>22.0</ele><time>2026-05-01T10:20:20Z</time></trkpt><trkpt lat="42.65295484717066" lon="9.04319151287951"><ele>19.0</ele><time>2026-05-01T10:20:21Z</time></trkpt><trkpt lat="42.65275949602974" lon="9.042601064006165"><ele>33.5</ele><time>2026-05-01T10:20:23Z</time></trkpt><trkpt lat="42.65266079317171" lon="9.042308621839117"><ele>48.0</ele><time>2026-05-01T10:20:24Z</time></trkpt><trkpt lat="42.652566087040945" lon="9.042020434816827"><ele>48.0</ele><time>2026-05-01T10:20:25Z</time></trkpt><trkpt lat="42.65247240371282" lon="9.041731107459936"><ele>48.0</ele><time>2026-05-01T10:20:26Z</time></trkpt><trkpt lat="42.65239585251348" lon="9.041436934052287"><ele>43.0</ele><time>2026-05-01T10:20:27Z</time></trkpt><trkpt lat="42.65234149584527" lon="9.041135718558094"><ele>38.0</ele><time>2026-05-01T10:20:28Z</time></trkpt><trkpt lat="42.65230400052196" lon="9.040835397287372"><ele>34.5</ele><time>2026-05-01T10:20:29Z</time></trkpt><trkpt lat="42.65226505038861" lon="9.040534057302882"><ele>31.0</ele><time>2026-05-01T10:20:30Z</time></trkpt><trkpt lat="42.65222106284789" lon="9.040233427392288"><ele>35.0</ele><time>2026-05-01T10:20:31Z</time></trkpt><trkpt lat="42.65217913145368" lon="9.039936924429552"><ele>39.0</ele><time>2026-05-01T10:20:32Z</time></trkpt><trkpt lat="42.65215743009928" lon="9.039634610214527"><ele>43.0</ele><time>2026-05-01T10:20:33Z</time></trkpt><trkpt lat="42.65217402465784" lon="9.03934589995843"><ele>47.0</ele><time>2026-05-01T10:20:34Z</time></trkpt><trkpt lat="42.65222919769345" lon="9.039065010781076"><ele>51.0</ele><time>2026-05-01T10:20:35Z</time></trkpt><trkpt lat="42.65232035459659" lon="9.038795209743617"><ele>55.0</ele><time>2026-05-01T10:20:36Z</time></trkpt><trkpt lat="42.65242685058522" lon="9.038535292385998"><ele>56.666666666666664</ele><time>2026-05-01T10:20:37Z</time></trkpt><trkpt lat="42.65254541490688" lon="9.038283757518562"><ele>58.33333333333333</ele><time>2026-05-01T10:20:38Z</time></trkpt><trkpt lat="42.65266297359015" lon="9.03802493812025"><ele>60.0</ele><time>2026-05-01T10:20:39Z</time></trkpt><trkpt lat="42.652772056733085" lon="9.037754797841204"><ele>48.5</ele><time>2026-05-01T10:20:40Z</time></trkpt><trkpt lat="42.65287308871438" lon="9.037472695788257"><ele>37.0</ele><time>2026-05-01T10:20:41Z</time></trkpt><trkpt lat="42.65296501294234" lon="9.037174906102067"><ele>52.0</ele><time>2026-05-01T10:20:42Z</time></trkpt><trkpt lat="42.6531341361345" lon="9.036564686402908"><ele>52.0</ele><time>2026-05-01T10:20:44Z</time></trkpt><trkpt lat="42.653216730702425" lon="9.036263945869123"><ele>52.0</ele><time>2026-05-01T10:20:45Z</time></trkpt><trkpt lat="42.65329147443361" lon="9.035958891398142"><ele>53.0</ele><time>2026-05-01T10:20:46Z</time></trkpt><trkpt lat="42.65334215271022" lon="9.035650288935914"><ele>54.0</ele><time>2026-05-01T10:20:47Z</time></trkpt><trkpt lat="42.6533579949443" lon="9.03534177846688"><ele>54.0</ele><time>2026-05-01T10:20:48Z</time></trkpt><trkpt lat="42.6533293600601" lon="9.03503114458715"><ele>54.0</ele><time>2026-05-01T10:20:49Z</time></trkpt><trkpt lat="42.653237653663744" lon="9.034735199423752"><ele>45.5</ele><time>2026-05-01T10:20:50Z</time></trkpt><trkpt lat="42.653113809913926" lon="9.034453703003562"><ele>37.0</ele><time>2026-05-01T10:20:51Z</time></trkpt><trkpt lat="42.652962979404485" lon="9.034187112798687"><ele>30.0</ele><time>2026-05-01T10:20:52Z</time></trkpt><trkpt lat="42.65280520167236" lon="9.033919147375691"><ele>23.0</ele><time>2026-05-01T10:20:53Z</time></trkpt><trkpt lat="42.652650640798086" lon="9.033645491697113"><ele>35.5</ele><time>2026-05-01T10:20:54Z</time></trkpt><trkpt lat="42.6525103931528" lon="9.033360986738874"><ele>48.0</ele><time>2026-05-01T10:20:55Z</time></trkpt><trkpt lat="42.65239374939864" lon="9.033056491286796"><ele>48.0</ele><time>2026-05-01T10:20:56Z</time></trkpt><trkpt lat="42.65230452270704" lon="9.032735352687125"><ele>48.0</ele><time>2026-05-01T10:20:57Z</time></trkpt><trkpt lat="42.65225154315032" lon="9.032400527542546"><ele>44.0</ele><time>2026-05-01T10:20:58Z</time></trkpt><trkpt lat="42.65223721743154" lon="9.032061061202487"><ele>40.0</ele><time>2026-05-01T10:20:59Z</time></trkpt><trkpt lat="42.65226390195008" lon="9.031729014291528"><ele>40.5</ele><time>2026-05-01T10:21:00Z</time></trkpt><trkpt lat="42.65230843965359" lon="9.031398579060387"><ele>41.0</ele><time>2026-05-01T10:21:01Z</time></trkpt><trkpt lat="42.65234997661389" lon="9.031065801449278"><ele>38.5</ele><time>2026-05-01T10:21:02Z</time></trkpt><trkpt lat="42.65238035924624" lon="9.03072930243853"><ele>36.0</ele><time>2026-05-01T10:21:03Z</time></trkpt><trkpt lat="42.65235371843409" lon="9.03006122701636"><ele>29.0</ele><time>2026-05-01T10:21:05Z</time></trkpt><trkpt lat="42.65228983182465" lon="9.029730910429148"><ele>22.0</ele><time>2026-05-01T10:21:06Z</time></trkpt><trkpt lat="42.65219395830089" lon="9.029408854760588"><ele>15.0</ele><time>2026-05-01T10:21:07Z</time></trkpt><trkpt lat="42.652071143253465" lon="9.02910008988701"><ele>8.0</ele><time>2026-05-01T10:21:08Z</time></trkpt><trkpt lat="42.65191733562498" lon="9.028816721697991"><ele>28.5</ele><time>2026-05-01T10:21:09Z</time></trkpt><trkpt lat="42.65173832854496" lon="9.028554360870887"><ele>49.0</ele><time>2026-05-01T10:21:10Z</time></trkpt><trkpt lat="42.65153999836039" lon="9.028325296258329"><ele>42.0</ele><time>2026-05-01T10:21:11Z</time></trkpt><trkpt lat="42.651318641791704" lon="9.028141617841438"><ele>35.0</ele><time>2026-05-01T10:21:12Z</time></trkpt><trkpt lat="42.65108484485716" lon="9.027987726246124"><ele>35.0</ele><time>2026-05-01T10:21:13Z</time></trkpt><trkpt lat="42.65084530105135" lon="9.027850975936003"><ele>35.0</ele><time>2026-05-01T10:21:14Z</time></trkpt><trkpt lat="42.650619576885454" lon="9.02769821518059"><ele>35.0</ele><time>2026-05-01T10:21:15Z</time></trkpt><trkpt lat="42.6504141898535" lon="9.027503532344241"><ele>35.0</ele><time>2026-05-01T10:21:16Z</time></trkpt><trkpt lat="42.65021212503458" lon="9.027310213101375"><ele>36.0</ele><time>2026-05-01T10:21:17Z</time></trkpt><trkpt lat="42.649993773005235" lon="9.027151668014236"><ele>37.0</ele><time>2026-05-01T10:21:18Z</time></trkpt><trkpt lat="42.64975776117291" lon="9.027037106997527"><ele>37.0</ele><time>2026-05-01T10:21:19Z</time></trkpt><trkpt lat="42.64951702008229" lon="9.026943100860283"><ele>37.0</ele><time>2026-05-01T10:21:20Z</time></trkpt><trkpt lat="42.64927778866719" lon="9.02683710464172"><ele>27.5</ele><time>2026-05-01T10:21:21Z</time></trkpt><trkpt lat="42.64904585493301" lon="9.026721235575911"><ele>18.0</ele><time>2026-05-01T10:21:22Z</time></trkpt><trkpt lat="42.648816299291994" lon="9.026596900971223"><ele>37.5</ele><time>2026-05-01T10:21:23Z</time></trkpt><trkpt lat="42.64859355649279" lon="9.026456787472096"><ele>57.0</ele><time>2026-05-01T10:21:24Z</time></trkpt><trkpt lat="42.64818498049286" lon="9.02608631995097"><ele>57.0</ele><time>2026-05-01T10:21:26Z</time></trkpt><trkpt lat="42.647997344258876" lon="9.025858603832976"><ele>57.0</ele><time>2026-05-01T10:21:27Z</time></trkpt><trkpt lat="42.6478081078887" lon="9.025629395313267"><ele>54.0</ele><time>2026-05-01T10:21:28Z</time></trkpt><trkpt lat="42.64760760667562" lon="9.025405040916302"><ele>51.0</ele><time>2026-05-01T10:21:29Z</time></trkpt><trkpt lat="42.647406438027" lon="9.025186584509342"><ele>34.0</ele><time>2026-05-01T10:21:30Z</time></trkpt><trkpt lat="42.64720539384372" lon="9.024965110813236"><ele>17.0</ele><time>2026-05-01T10:21:31Z</time></trkpt><trkpt lat="42.6470075131294" lon="9.024751570792054"><ele>31.0</ele><time>2026-05-01T10:21:32Z</time></trkpt><trkpt lat="42.646809967753704" lon="9.024564354862505"><ele>45.0</ele><time>2026-05-01T10:21:33Z</time></trkpt><trkpt lat="42.646617513079924" lon="9.024412105890862"><ele>45.0</ele><time>2026-05-01T10:21:34Z</time></trkpt><trkpt lat="42.646423983382874" lon="9.02428224341259"><ele>45.0</ele><time>2026-05-01T10:21:35Z</time></trkpt><trkpt lat="42.646236745277264" lon="9.024181936451868"><ele>45.0</ele><time>2026-05-01T10:21:36Z</time></trkpt><trkpt lat="42.64605066440982" lon="9.024104660249897"><ele>39.666666666666664</ele><time>2026-05-01T10:21:37Z</time></trkpt><trkpt lat="42.64586760872945" lon="9.024034256475618"><ele>34.33333333333333</ele><time>2026-05-01T10:21:38Z</time></trkpt><trkpt lat="42.645691974150154" lon="9.02395953615734"><ele>29.0</ele><time>2026-05-01T10:21:39Z</time></trkpt><trkpt lat="42.64551999745913" lon="9.023875559080802"><ele>29.0</ele><time>2026-05-01T10:21:40Z</time></trkpt><trkpt lat="42.645365687080485" lon="9.02378469548169"><ele>29.0</ele><time>2026-05-01T10:21:41Z</time></trkpt><trkpt lat="42.64522664709889" lon="9.023693623881812"><ele>29.0</ele><time>2026-05-01T10:21:42Z</time></trkpt><trkpt lat="42.645084033908184" lon="9.023604486211745"><ele>33.0</ele><time>2026-05-01T10:21:43Z</time></trkpt><trkpt lat="42.6449419668163" lon="9.023522182499308"><ele>37.0</ele><time>2026-05-01T10:21:44Z</time></trkpt><trkpt lat="42.64480611151515" lon="9.023425523701434"><ele>41.0</ele><time>2026-05-01T10:21:45Z</time></trkpt><trkpt lat="42.644535036105204" lon="9.02324266356187"><ele>35.5</ele><time>2026-05-01T10:21:47Z</time></trkpt><trkpt lat="42.64440315855792" lon="9.02316023014258"><ele>30.0</ele><time>2026-05-01T10:21:48Z</time></trkpt><trkpt lat="42.64426486266713" lon="9.023077158976179"><ele>24.5</ele><time>2026-05-01T10:21:49Z</time></trkpt><trkpt lat="42.64413217319333" lon="9.022991968065575"><ele>19.0</ele><time>2026-05-01T10:21:50Z</time></trkpt><trkpt lat="42.644004205227326" lon="9.022910658414077"><ele>19.0</ele><time>2026-05-01T10:21:51Z</time></trkpt><trkpt lat="42.643865522422594" lon="9.022818926195866"><ele>19.0</ele><time>2026-05-01T10:21:52Z</time></trkpt><trkpt lat="42.64371135723935" lon="9.022730042443754"><ele>19.0</ele><time>2026-05-01T10:21:53Z</time></trkpt><trkpt lat="42.643557561307865" lon="9.02263939145909"><ele>16.666666666666664</ele><time>2026-05-01T10:21:54Z</time></trkpt><trkpt lat="42.64340560098681" lon="9.022558838998128"><ele>14.333333333333332</ele><time>2026-05-01T10:21:55Z</time></trkpt><trkpt lat="42.64324032192098" lon="9.02248738322275"><ele>12.0</ele><time>2026-05-01T10:21:56Z</time></trkpt><trkpt lat="42.64306491479042" lon="9.022449782790776"><ele>12.0</ele><time>2026-05-01T10:21:57Z</time></trkpt><trkpt lat="42.64287622706133" lon="9.022439471266857"><ele>12.0</ele><time>2026-05-01T10:21:58Z</time></trkpt><trkpt lat="42.64268753128233" lon="9.022458748318149"><ele>12.0</ele><time>2026-05-01T10:21:59Z</time></trkpt><trkpt lat="42.642500672446324" lon="9.022529126153648"><ele>17.0</ele><time>2026-05-01T10:22:00Z</time></trkpt><trkpt lat="42.64232384427642" lon="9.022635945077068"><ele>22.0</ele><time>2026-05-01T10:22:01Z</time></trkpt><trkpt lat="42.64215337731887" lon="9.022756750804419"><ele>27.0</ele><time>2026-05-01T10:22:02Z</time></trkpt><trkpt lat="42.64199269052941" lon="9.022900863885921"><ele>24.666666666666668</ele><time>2026-05-01T10:22:03Z</time></trkpt><trkpt lat="42.64185275890465" lon="9.023033253696157"><ele>22.333333333333336</ele><time>2026-05-01T10:22:04Z</time></trkpt><trkpt lat="42.641720797809384" lon="9.023155065425557"><ele>20.0</ele><time>2026-05-01T10:22:05Z</time></trkpt><trkpt lat="42.64160659243192" lon="9.023256321963425"><ele>22.333333333333336</ele><time>2026-05-01T10:22:06Z</time></trkpt><trkpt lat="42.64139978160737" lon="9.023422685131798"><ele>24.666666666666668</ele><time>2026-05-01T10:22:08Z</time></trkpt><trkpt lat="42.64129860432169" lon="9.023493267256894"><ele>27.0</ele><time>2026-05-01T10:22:09Z</time></trkpt><trkpt lat="42.64119918453048" lon="9.023545172622187"><ele>26.400000000000002</ele><time>2026-05-01T10:22:10Z</time></trkpt><trkpt lat="42.64109299457071" lon="9.023593838683567"><ele>25.800000000000004</ele><time>2026-05-01T10:22:11Z</time></trkpt><trkpt lat="42.64098848723938" lon="9.023624336430869"><ele>25.2</ele><time>2026-05-01T10:22:12Z</time></trkpt><trkpt lat="42.64088633968798" lon="9.023641000722273"><ele>24.6</ele><time>2026-05-01T10:22:13Z</time></trkpt><trkpt lat="42.64078733055769" lon="9.023643028261427"><ele>24.0</ele><time>2026-05-01T10:22:14Z</time></trkpt><trkpt lat="42.64068191119294" lon="9.023634774291997"><ele>24.0</ele><time>2026-05-01T10:22:15Z</time></trkpt><trkpt lat="42.64057812734446" lon="9.023608538131839"><ele>24.0</ele><time>2026-05-01T10:22:16Z</time></trkpt><trkpt lat="42.640479559232986" lon="9.02357320535437"><ele>24.0</ele><time>2026-05-01T10:22:17Z</time></trkpt><trkpt lat="42.640381197965816" lon="9.023522907703345"><ele>24.0</ele><time>2026-05-01T10:22:18Z</time></trkpt><trkpt lat="42.64028242774361" lon="9.02346020466375"><ele>24.0</ele><time>2026-05-01T10:22:19Z</time></trkpt><trkpt lat="42.64018372612098" lon="9.023376699251576"><ele>23.0</ele><time>2026-05-01T10:22:20Z</time></trkpt><trkpt lat="42.64008912519057" lon="9.023273022671699"><ele>22.0</ele><time>2026-05-01T10:22:21Z</time></trkpt><trkpt lat="42.639999919262294" lon="9.023156657407492"><ele>21.0</ele><time>2026-05-01T10:22:22Z</time></trkpt><trkpt lat="42.6399148738207" lon="9.023020733586582"><ele>20.0</ele><time>2026-05-01T10:22:23Z</time></trkpt><trkpt lat="42.63983050713495" lon="9.022873771812721"><ele>20.0</ele><time>2026-05-01T10:22:24Z</time></trkpt><trkpt lat="42.63974926820397" lon="9.02272271572047"><ele>20.0</ele><time>2026-05-01T10:22:25Z</time></trkpt><trkpt lat="42.63968200160253" lon="9.022584979244364"><ele>20.0</ele><time>2026-05-01T10:22:26Z</time></trkpt><trkpt lat="42.63962230944065" lon="9.022466397290186"><ele>20.0</ele><time>2026-05-01T10:22:27Z</time></trkpt><trkpt lat="42.6395132728727" lon="9.02225090542818"><ele>20.0</ele><time>2026-05-01T10:22:29Z</time></trkpt><trkpt lat="42.63946472680045" lon="9.022153266005034"><ele>20.0</ele><time>2026-05-01T10:22:30Z</time></trkpt><trkpt lat="42.63942179504356" lon="9.02206883053652"><ele>20.0</ele><time>2026-05-01T10:22:31Z</time></trkpt><trkpt lat="42.63938346273349" lon="9.02199366604483"><ele>20.0</ele><time>2026-05-01T10:22:32Z</time></trkpt><trkpt lat="42.63934068278997" lon="9.021908576791967"><ele>20.0</ele><time>2026-05-01T10:22:34Z</time></trkpt><trkpt lat="42.63929759591912" lon="9.021805309883883"><ele>20.0</ele><time>2026-05-01T10:22:46Z</time></trkpt><trkpt lat="42.63924946033662" lon="9.021714368650663"><ele>19.75</ele><time>2026-05-01T10:22:48Z</time></trkpt><trkpt lat="42.63917650578087" lon="9.021501140177236"><ele>19.5</ele><time>2026-05-01T10:22:52Z</time></trkpt><trkpt lat="42.639144884097945" lon="9.021374693807504"><ele>19.25</ele><time>2026-05-01T10:22:54Z</time></trkpt><trkpt lat="42.639138348853464" lon="9.021206616347921"><ele>19.0</ele><time>2026-05-01T10:22:56Z</time></trkpt><trkpt lat="42.639100966436416" lon="9.02112942483254"><ele>19.0</ele><time>2026-05-01T10:22:57Z</time></trkpt><trkpt lat="42.639043180423045" lon="9.021072006274451"><ele>19.0</ele><time>2026-05-01T10:22:58Z</time></trkpt><trkpt lat="42.63896435925932" lon="9.021033118774838"><ele>19.0</ele><time>2026-05-01T10:22:59Z</time></trkpt><trkpt lat="42.63888941130101" lon="9.0209792375087"><ele>19.0</ele><time>2026-05-01T10:23:00Z</time></trkpt><trkpt lat="42.638822418539014" lon="9.020891014744967"><ele>19.0</ele><time>2026-05-01T10:23:01Z</time></trkpt><trkpt lat="42.6387557869387" lon="9.020782745220473"><ele>19.0</ele><time>2026-05-01T10:23:02Z</time></trkpt><trkpt lat="42.63868724803014" lon="9.020658184324976"><ele>19.25</ele><time>2026-05-01T10:23:03Z</time></trkpt><trkpt lat="42.63861654975608" lon="9.020519803070266"><ele>19.5</ele><time>2026-05-01T10:23:04Z</time></trkpt><trkpt lat="42.63854305787397" lon="9.0203806164109"><ele>19.75</ele><time>2026-05-01T10:23:05Z</time></trkpt><trkpt lat="42.63846957512538" lon="9.020240493001904"><ele>20.0</ele><time>2026-05-01T10:23:06Z</time></trkpt><trkpt lat="42.63839366339048" lon="9.020086967216649"><ele>19.0</ele><time>2026-05-01T10:23:07Z</time></trkpt><trkpt lat="42.638318231541454" lon="9.01991730587964"><ele>18.0</ele><time>2026-05-01T10:23:08Z</time></trkpt><trkpt lat="42.63824541326936" lon="9.019739523132165"><ele>17.0</ele><time>2026-05-01T10:23:09Z</time></trkpt><trkpt lat="42.638118775780875" lon="9.019337864078258"><ele>16.333333333333336</ele><time>2026-05-01T10:23:11Z</time></trkpt><trkpt lat="42.63806744130259" lon="9.019120091963899"><ele>15.666666666666668</ele><time>2026-05-01T10:23:12Z</time></trkpt><trkpt lat="42.63802802236936" lon="9.018902347802124"><ele>15.0</ele><time>2026-05-01T10:23:13Z</time></trkpt><trkpt lat="42.63800161821036" lon="9.01866964450584"><ele>15.0</ele><time>2026-05-01T10:23:14Z</time></trkpt><trkpt lat="42.637990963154365" lon="9.018429998660556"><ele>15.0</ele><time>2026-05-01T10:23:15Z</time></trkpt><trkpt lat="42.63799551669752" lon="9.01818532443236"><ele>15.0</ele><time>2026-05-01T10:23:16Z</time></trkpt><trkpt lat="42.638017278769944" lon="9.017944542383502"><ele>13.0</ele><time>2026-05-01T10:23:17Z</time></trkpt><trkpt lat="42.63804238859216" lon="9.017701387514029"><ele>11.0</ele><time>2026-05-01T10:23:18Z</time></trkpt><trkpt lat="42.6380704634455" lon="9.017459943182473"><ele>9.0</ele><time>2026-05-01T10:23:19Z</time></trkpt><trkpt lat="42.63809038874384" lon="9.017219624882564"><ele>8.0</ele><time>2026-05-01T10:23:20Z</time></trkpt><trkpt lat="42.63810955158989" lon="9.01698219746524"><ele>7.0</ele><time>2026-05-01T10:23:21Z</time></trkpt><trkpt lat="42.63812835250504" lon="9.016736227020578"><ele>6.0</ele><time>2026-05-01T10:23:22Z</time></trkpt><trkpt lat="42.63813874865643" lon="9.016503242807858"><ele>5.666666666666667</ele><time>2026-05-01T10:23:23Z</time></trkpt><trkpt lat="42.638133049724495" lon="9.016261274296129"><ele>5.333333333333334</ele><time>2026-05-01T10:23:24Z</time></trkpt><trkpt lat="42.638109611122346" lon="9.016017172144483"><ele>5.0</ele><time>2026-05-01T10:23:25Z</time></trkpt><trkpt lat="42.638060192992214" lon="9.015772140342133"><ele>5.666666666666667</ele><time>2026-05-01T10:23:26Z</time></trkpt><trkpt lat="42.63797796743742" lon="9.015535336555512"><ele>6.333333333333334</ele><time>2026-05-01T10:23:27Z</time></trkpt><trkpt lat="42.637866687935954" lon="9.015316191748575"><ele>7.0</ele><time>2026-05-01T10:23:28Z</time></trkpt><trkpt lat="42.63774578888785" lon="9.015102308495168"><ele>4.0</ele><time>2026-05-01T10:23:29Z</time></trkpt><trkpt lat="42.63762320298422" lon="9.014907050120543"><ele>1.0</ele><time>2026-05-01T10:23:30Z</time></trkpt><trkpt lat="42.63739104147815" lon="9.014538457546971"><ele>1.0</ele><time>2026-05-01T10:23:32Z</time></trkpt><trkpt lat="42.63728000488325" lon="9.014350164899465"><ele>1.0</ele><time>2026-05-01T10:23:33Z</time></trkpt><trkpt lat="42.63716852437526" lon="9.014160466598403"><ele>1.0</ele><time>2026-05-01T10:23:34Z</time></trkpt><trkpt lat="42.637060153016506" lon="9.013972813210927"><ele>1.6666666666666665</ele><time>2026-05-01T10:23:35Z</time></trkpt><trkpt lat="42.6369623406789" lon="9.013791159894618"><ele>2.3333333333333335</ele><time>2026-05-01T10:23:36Z</time></trkpt><trkpt lat="42.63686777914173" lon="9.01359879142369"><ele>3.0</ele><time>2026-05-01T10:23:37Z</time></trkpt><trkpt lat="42.6367839951774" lon="9.013403535060522"><ele>2.6666666666666665</ele><time>2026-05-01T10:23:38Z</time></trkpt><trkpt lat="42.63671253608654" lon="9.013209619027093"><ele>2.333333333333333</ele><time>2026-05-01T10:23:39Z</time></trkpt><trkpt lat="42.63664773312244" lon="9.013013600852652"><ele>2.0</ele><time>2026-05-01T10:23:40Z</time></trkpt><trkpt lat="42.636587783627455" lon="9.012809738395358"><ele>2.0</ele><time>2026-05-01T10:23:41Z</time></trkpt><trkpt lat="42.63652851722502" lon="9.012613681097694"><ele>2.0</ele><time>2026-05-01T10:23:42Z</time></trkpt><trkpt lat="42.636467493368166" lon="9.012421883349027"><ele>2.0</ele><time>2026-05-01T10:23:43Z</time></trkpt><trkpt lat="42.63641284651423" lon="9.012220389242254"><ele>1.6666666666666665</ele><time>2026-05-01T10:23:44Z</time></trkpt><trkpt lat="42.63635667654186" lon="9.012017209226274"><ele>1.3333333333333333</ele><time>2026-05-01T10:23:45Z</time></trkpt><trkpt lat="42.636287026117245" lon="9.011795445556485"><ele>1.0</ele><time>2026-05-01T10:23:46Z</time></trkpt><trkpt lat="42.63620596503785" lon="9.011551771962264"><ele>1.3333333333333333</ele><time>2026-05-01T10:23:47Z</time></trkpt><trkpt lat="42.63612846292942" lon="9.011282178256506"><ele>1.6666666666666665</ele><time>2026-05-01T10:23:48Z</time></trkpt><trkpt lat="42.63605544124904" lon="9.011003291600735"><ele>2.0</ele><time>2026-05-01T10:23:49Z</time></trkpt><trkpt lat="42.635979090828506" lon="9.010723586419314"><ele>1.5</ele><time>2026-05-01T10:23:50Z</time></trkpt><trkpt lat="42.63589572657857" lon="9.010449502391774"><ele>1.0</ele><time>2026-05-01T10:23:51Z</time></trkpt><trkpt lat="42.63572309881245" lon="9.009831341279284"><ele>1.0</ele><time>2026-05-01T10:23:53Z</time></trkpt><trkpt lat="42.63565565614787" lon="9.009547246170747"><ele>1.0</ele><time>2026-05-01T10:23:54Z</time></trkpt><trkpt lat="42.6355888854138" lon="9.00932301402975"><ele>1.0</ele><time>2026-05-01T10:23:55Z</time></trkpt><trkpt lat="42.635528152079544" lon="9.009107262372659"><ele>0.3333333333333333</ele><time>2026-05-01T10:23:56Z</time></trkpt><trkpt lat="42.63548889086823" lon="9.008886225450782"><ele>-0.3333333333333333</ele><time>2026-05-01T10:23:57Z</time></trkpt><trkpt lat="42.63547747263246" lon="9.008639621352732"><ele>-1.0</ele><time>2026-05-01T10:23:58Z</time></trkpt><trkpt lat="42.6354996313555" lon="9.008408647994074"><ele>-0.3333333333333333</ele><time>2026-05-01T10:23:59Z</time></trkpt><trkpt lat="42.63555605630491" lon="9.008184840603372"><ele>0.3333333333333333</ele><time>2026-05-01T10:24:00Z</time></trkpt><trkpt lat="42.63563583389074" lon="9.007981309815477"><ele>1.0</ele><time>2026-05-01T10:24:01Z</time></trkpt><trkpt lat="42.63572842627292" lon="9.007791831576414"><ele>1.0</ele><time>2026-05-01T10:24:02Z</time></trkpt><trkpt lat="42.63582134632126" lon="9.007607667141501"><ele>1.0</ele><time>2026-05-01T10:24:03Z</time></trkpt><trkpt lat="42.635911295778804" lon="9.007416219900103"><ele>1.0</ele><time>2026-05-01T10:24:04Z</time></trkpt><trkpt lat="42.63599560693493" lon="9.007227873115633"><ele>2.3333333333333335</ele><time>2026-05-01T10:24:05Z</time></trkpt><trkpt lat="42.6360898478814" lon="9.00702380871662"><ele>3.666666666666667</ele><time>2026-05-01T10:24:06Z</time></trkpt><trkpt lat="42.636192793816306" lon="9.006791820083182"><ele>5.0</ele><time>2026-05-01T10:24:07Z</time></trkpt><trkpt lat="42.636303195084786" lon="9.00654472977552"><ele>6.666666666666667</ele><time>2026-05-01T10:24:08Z</time></trkpt><trkpt lat="42.636420250658574" lon="9.006290829337505"><ele>8.333333333333334</ele><time>2026-05-01T10:24:09Z</time></trkpt><trkpt lat="42.636540431381256" lon="9.006036878737106"><ele>10.0</ele><time>2026-05-01T10:24:10Z</time></trkpt><trkpt lat="42.63666313037323" lon="9.005770137225085"><ele>12.0</ele><time>2026-05-01T10:24:11Z</time></trkpt><trkpt lat="42.63679117213501" lon="9.005488197695701"><ele>14.0</ele><time>2026-05-01T10:24:12Z</time></trkpt><trkpt lat="42.63707100886827" lon="9.004952480740995"><ele>16.333333333333336</ele><time>2026-05-01T10:24:14Z</time></trkpt><trkpt lat="42.63721758025339" lon="9.004749634317719"><ele>18.666666666666668</ele><time>2026-05-01T10:24:15Z</time></trkpt><trkpt lat="42.63738749973782" lon="9.00459892406635"><ele>21.0</ele><time>2026-05-01T10:24:16Z</time></trkpt><trkpt lat="42.63757816099787" lon="9.004499523284924"><ele>21.0</ele><time>2026-05-01T10:24:17Z</time></trkpt><trkpt lat="42.63778160875775" lon="9.004448163375113"><ele>21.0</ele><time>2026-05-01T10:24:18Z</time></trkpt><trkpt lat="42.6379868904357" lon="9.004444443840343"><ele>21.0</ele><time>2026-05-01T10:24:19Z</time></trkpt><trkpt lat="42.638194341751955" lon="9.00446970123965"><ele>22.666666666666664</ele><time>2026-05-01T10:24:20Z</time></trkpt><trkpt lat="42.63837777337385" lon="9.004498592642943"><ele>24.333333333333332</ele><time>2026-05-01T10:24:21.001Z</time></trkpt><trkpt lat="42.6385414248116" lon="9.004514060980465"><ele>26.0</ele><time>2026-05-01T10:24:22.001Z</time></trkpt><trkpt lat="42.638710523629335" lon="9.004499469025104"><ele>26.0</ele><time>2026-05-01T10:24:23Z</time></trkpt><trkpt lat="42.63888267454154" lon="9.004446041153063"><ele>26.0</ele><time>2026-05-01T10:24:24Z</time></trkpt><trkpt lat="42.63906390764225" lon="9.004339009414602"><ele>26.0</ele><time>2026-05-01T10:24:25Z</time></trkpt><trkpt lat="42.63925208609294" lon="9.004192094135858"><ele>29.5</ele><time>2026-05-01T10:24:26Z</time></trkpt><trkpt lat="42.63945783587544" lon="9.004054039263936"><ele>33.0</ele><time>2026-05-01T10:24:27Z</time></trkpt><trkpt lat="42.63968150932442" lon="9.003921435822347"><ele>33.0</ele><time>2026-05-01T10:24:28Z</time></trkpt><trkpt lat="42.639914460678014" lon="9.003786729555854"><ele>33.0</ele><time>2026-05-01T10:24:29Z</time></trkpt><trkpt lat="42.640144270789364" lon="9.003644260581643"><ele>33.0</ele><time>2026-05-01T10:24:30Z</time></trkpt><trkpt lat="42.64034513941386" lon="9.003505831312417"><ele>33.0</ele><time>2026-05-01T10:24:31Z</time></trkpt><trkpt lat="42.64051326599179" lon="9.003355354479913"><ele>33.0</ele><time>2026-05-01T10:24:32Z</time></trkpt><trkpt lat="42.64065484005879" lon="9.00317494502829"><ele>33.0</ele><time>2026-05-01T10:24:33Z</time></trkpt><trkpt lat="42.64083712172996" lon="9.002764094303807"><ele>33.0</ele><time>2026-05-01T10:24:35Z</time></trkpt><trkpt lat="42.6408789938424" lon="9.002556538403805"><ele>33.0</ele><time>2026-05-01T10:24:36Z</time></trkpt><trkpt lat="42.64088986493221" lon="9.002345457395748"><ele>33.0</ele><time>2026-05-01T10:24:37Z</time></trkpt><trkpt lat="42.640880230147744" lon="9.002136444214921"><ele>33.0</ele><time>2026-05-01T10:24:38Z</time></trkpt><trkpt lat="42.640863232007305" lon="9.001915357204295"><ele>33.0</ele><time>2026-05-01T10:24:39Z</time></trkpt><trkpt lat="42.640832686554525" lon="9.00167094411456"><ele>33.0</ele><time>2026-05-01T10:24:40Z</time></trkpt><trkpt lat="42.64078665355823" lon="9.00139142683213"><ele>33.0</ele><time>2026-05-01T10:24:41Z</time></trkpt><trkpt lat="42.64073946372493" lon="9.001089887682387"><ele>27.666666666666668</ele><time>2026-05-01T10:24:42Z</time></trkpt><trkpt lat="42.640686802215164" lon="9.000795701455058"><ele>22.333333333333336</ele><time>2026-05-01T10:24:43Z</time></trkpt><trkpt lat="42.64062583265566" lon="9.0005365975228"><ele>17.0</ele><time>2026-05-01T10:24:44Z</time></trkpt><trkpt lat="42.640549341338335" lon="9.000324372650745"><ele>17.0</ele><time>2026-05-01T10:24:45Z</time></trkpt><trkpt lat="42.640456971655766" lon="9.000120880393206"><ele>17.0</ele><time>2026-05-01T10:24:46Z</time></trkpt><trkpt lat="42.64034991162432" lon="8.999890574557137"><ele>17.0</ele><time>2026-05-01T10:24:47Z</time></trkpt><trkpt lat="42.640239141558986" lon="8.999619694947063"><ele>26.0</ele><time>2026-05-01T10:24:48Z</time></trkpt><trkpt lat="42.64013691861737" lon="8.999326225029264"><ele>35.0</ele><time>2026-05-01T10:24:49Z</time></trkpt><trkpt lat="42.640034407265695" lon="8.999042189503017"><ele>35.0</ele><time>2026-05-01T10:24:50Z</time></trkpt><trkpt lat="42.63993568035595" lon="8.998788764515083"><ele>35.0</ele><time>2026-05-01T10:24:51Z</time></trkpt><trkpt lat="42.63983715722834" lon="8.998550551241536"><ele>35.0</ele><time>2026-05-01T10:24:52Z</time></trkpt><trkpt lat="42.63974543112808" lon="8.998326835986472"><ele>29.0</ele><time>2026-05-01T10:24:53Z</time></trkpt><trkpt lat="42.639666034086204" lon="8.998108195643834"><ele>23.0</ele><time>2026-05-01T10:24:54Z</time></trkpt><trkpt lat="42.639528777889936" lon="8.997683775167845"><ele>31.0</ele><time>2026-05-01T10:24:56Z</time></trkpt><trkpt lat="42.63946463768395" lon="8.99747553001026"><ele>39.0</ele><time>2026-05-01T10:24:57Z</time></trkpt><trkpt lat="42.639412760788026" lon="8.997261228887458"><ele>47.0</ele><time>2026-05-01T10:24:58Z</time></trkpt><trkpt lat="42.639372615990276" lon="8.997039513408486"><ele>47.0</ele><time>2026-05-01T10:24:59Z</time></trkpt><trkpt lat="42.639338211543304" lon="8.996819118236882"><ele>47.0</ele><time>2026-05-01T10:25:00Z</time></trkpt><trkpt lat="42.639305905337416" lon="8.996604093514229"><ele>47.0</ele><time>2026-05-01T10:25:01Z</time></trkpt><trkpt lat="42.639278575014224" lon="8.996381363777797"><ele>44.666666666666664</ele><time>2026-05-01T10:25:02Z</time></trkpt><trkpt lat="42.63926542072596" lon="8.996150482205959"><ele>42.333333333333336</ele><time>2026-05-01T10:25:03Z</time></trkpt><trkpt lat="42.639261793410014" lon="8.995927208147"><ele>40.0</ele><time>2026-05-01T10:25:04Z</time></trkpt><trkpt lat="42.639253480986994" lon="8.995692978391826"><ele>39.66666666666667</ele><time>2026-05-01T10:25:05Z</time></trkpt><trkpt lat="42.639239983984275" lon="8.995473477139267"><ele>39.333333333333336</ele><time>2026-05-01T10:25:06Z</time></trkpt><trkpt lat="42.63922772273893" lon="8.995256750037571"><ele>39.0</ele><time>2026-05-01T10:25:07Z</time></trkpt><trkpt lat="42.63920967421598" lon="8.995025002747436"><ele>36.666666666666664</ele><time>2026-05-01T10:25:08Z</time></trkpt><trkpt lat="42.63916966326841" lon="8.994770941165193"><ele>34.33333333333333</ele><time>2026-05-01T10:25:09Z</time></trkpt><trkpt lat="42.63909692917382" lon="8.99448816987969"><ele>32.0</ele><time>2026-05-01T10:25:10Z</time></trkpt><trkpt lat="42.63901327929009" lon="8.994180276180076"><ele>27.5</ele><time>2026-05-01T10:25:11Z</time></trkpt><trkpt lat="42.63893277146349" lon="8.993856534649773"><ele>23.0</ele><time>2026-05-01T10:25:12Z</time></trkpt><trkpt lat="42.63885374457686" lon="8.993522929360907"><ele>20.0</ele><time>2026-05-01T10:25:13Z</time></trkpt><trkpt lat="42.63876947319748" lon="8.993178063361738"><ele>17.0</ele><time>2026-05-01T10:25:14Z</time></trkpt><trkpt lat="42.638674406561115" lon="8.99282999702933"><ele>37.0</ele><time>2026-05-01T10:25:15Z</time></trkpt><trkpt lat="42.638473292543644" lon="8.992142257807064"><ele>37.0</ele><time>2026-05-01T10:25:17Z</time></trkpt><trkpt lat="42.638377825629554" lon="8.991798627921508"><ele>37.0</ele><time>2026-05-01T10:25:18Z</time></trkpt><trkpt lat="42.63828521107493" lon="8.991455413775236"><ele>32.0</ele><time>2026-05-01T10:25:19Z</time></trkpt><trkpt lat="42.63819384839763" lon="8.991114850982566"><ele>27.0</ele><time>2026-05-01T10:25:20Z</time></trkpt><trkpt lat="42.63811781994794" lon="8.990768973166215"><ele>25.0</ele><time>2026-05-01T10:25:21Z</time></trkpt><trkpt lat="42.63806891352427" lon="8.990417389919498"><ele>23.0</ele><time>2026-05-01T10:25:22Z</time></trkpt><trkpt lat="42.63804847539662" lon="8.99006217059432"><ele>22.5</ele><time>2026-05-01T10:25:23Z</time></trkpt><trkpt lat="42.638053148463804" lon="8.989700173815173"><ele>22.0</ele><time>2026-05-01T10:25:24Z</time></trkpt><trkpt lat="42.63805411347826" lon="8.989332825467347"><ele>24.0</ele><time>2026-05-01T10:25:25Z</time></trkpt><trkpt lat="42.638041818233425" lon="8.9889628543122"><ele>26.0</ele><time>2026-05-01T10:25:26Z</time></trkpt><trkpt lat="42.6380275316805" lon="8.988593153254758"><ele>26.5</ele><time>2026-05-01T10:25:27Z</time></trkpt><trkpt lat="42.63801374403576" lon="8.988224387924927"><ele>27.0</ele><time>2026-05-01T10:25:28Z</time></trkpt><trkpt lat="42.63800210189757" lon="8.987853623145064"><ele>25.5</ele><time>2026-05-01T10:25:29Z</time></trkpt><trkpt lat="42.63798895415696" lon="8.987483709922302"><ele>24.0</ele><time>2026-05-01T10:25:30Z</time></trkpt><trkpt lat="42.63797667815186" lon="8.987109437808925"><ele>24.0</ele><time>2026-05-01T10:25:31Z</time></trkpt><trkpt lat="42.637960788337594" lon="8.986736405411905"><ele>24.0</ele><time>2026-05-01T10:25:32Z</time></trkpt><trkpt lat="42.63795030483268" lon="8.986366732602901"><ele>23.5</ele><time>2026-05-01T10:25:33Z</time></trkpt><trkpt lat="42.63794144835546" lon="8.985995529262343"><ele>23.0</ele><time>2026-05-01T10:25:34Z</time></trkpt><trkpt lat="42.63793002247583" lon="8.98562711545546"><ele>22.0</ele><time>2026-05-01T10:25:35Z</time></trkpt><trkpt lat="42.63791659997152" lon="8.985263795742414"><ele>21.0</ele><time>2026-05-01T10:25:36Z</time></trkpt><trkpt lat="42.63789472097937" lon="8.984578996197408"><ele>19.5</ele><time>2026-05-01T10:25:38Z</time></trkpt><trkpt lat="42.63790330913837" lon="8.984259746205282"><ele>18.0</ele><time>2026-05-01T10:25:39Z</time></trkpt><trkpt lat="42.63794734457547" lon="8.983957494458197"><ele>16.5</ele><time>2026-05-01T10:25:40Z</time></trkpt><trkpt lat="42.63803469825049" lon="8.983665475214124"><ele>15.0</ele><time>2026-05-01T10:25:41Z</time></trkpt><trkpt lat="42.63814724951625" lon="8.983382377435104"><ele>15.0</ele><time>2026-05-01T10:25:42Z</time></trkpt><trkpt lat="42.63825875151553" lon="8.983093499828039"><ele>15.0</ele><time>2026-05-01T10:25:43Z</time></trkpt><trkpt lat="42.638356573468585" lon="8.982799802411398"><ele>16.5</ele><time>2026-05-01T10:25:44Z</time></trkpt><trkpt lat="42.63844456926907" lon="8.982495561019517"><ele>18.0</ele><time>2026-05-01T10:25:45Z</time></trkpt><trkpt lat="42.63853820728828" lon="8.982194631116299"><ele>18.0</ele><time>2026-05-01T10:25:46Z</time></trkpt><trkpt lat="42.63863269037911" lon="8.981897928258451"><ele>18.0</ele><time>2026-05-01T10:25:47Z</time></trkpt><trkpt lat="42.63872914124124" lon="8.981601263366818"><ele>11.0</ele><time>2026-05-01T10:25:48Z</time></trkpt><trkpt lat="42.63882001428036" lon="8.981306237591784"><ele>4.0</ele><time>2026-05-01T10:25:49Z</time></trkpt><trkpt lat="42.63891095761801" lon="8.981024310526648"><ele>5.333333333333333</ele><time>2026-05-01T10:25:50Z</time></trkpt><trkpt lat="42.63899865626392" lon="8.980754230497968"><ele>6.666666666666666</ele><time>2026-05-01T10:25:51Z</time></trkpt><trkpt lat="42.63907521457465" lon="8.98050335259471"><ele>8.0</ele><time>2026-05-01T10:25:52Z</time></trkpt><trkpt lat="42.63912825536066" lon="8.980238611625545"><ele>7.666666666666666</ele><time>2026-05-01T10:25:53Z</time></trkpt><trkpt lat="42.6391411180749" lon="8.979944756402034"><ele>7.333333333333334</ele><time>2026-05-01T10:25:54Z</time></trkpt><trkpt lat="42.63910220427964" lon="8.979636986839944"><ele>7.0</ele><time>2026-05-01T10:25:55Z</time></trkpt><trkpt lat="42.63902891725364" lon="8.979332780116152"><ele>8.0</ele><time>2026-05-01T10:25:56Z</time></trkpt><trkpt lat="42.638920905137454" lon="8.979047378368339"><ele>9.0</ele><time>2026-05-01T10:25:57Z</time></trkpt><trkpt lat="42.638577258375264" lon="8.978574553591425"><ele>9.0</ele><time>2026-05-01T10:25:59Z</time></trkpt><trkpt lat="42.63836622531616" lon="8.978381533903896"><ele>9.0</ele><time>2026-05-01T10:26:00Z</time></trkpt><trkpt lat="42.63815797688389" lon="8.97817987643699"><ele>7.5</ele><time>2026-05-01T10:26:01Z</time></trkpt><trkpt lat="42.637955924068066" lon="8.977970590419014"><ele>6.0</ele><time>2026-05-01T10:26:02Z</time></trkpt><trkpt lat="42.637755658865984" lon="8.977762131000697"><ele>6.0</ele><time>2026-05-01T10:26:03Z</time></trkpt><trkpt lat="42.63756446560737" lon="8.977556155220062"><ele>6.0</ele><time>2026-05-01T10:26:04Z</time></trkpt><trkpt lat="42.63738834096156" lon="8.977350829366573"><ele>5.666666666666667</ele><time>2026-05-01T10:26:05Z</time></trkpt><trkpt lat="42.637239399786544" lon="8.977129951743002"><ele>5.333333333333334</ele><time>2026-05-01T10:26:06Z</time></trkpt><trkpt lat="42.637133258224424" lon="8.976884006867952"><ele>5.0</ele><time>2026-05-01T10:26:07Z</time></trkpt><trkpt lat="42.63708532656544" lon="8.976625527537015"><ele>5.0</ele><time>2026-05-01T10:26:08Z</time></trkpt><trkpt lat="42.63709609814215" lon="8.976372900760042"><ele>5.0</ele><time>2026-05-01T10:26:09Z</time></trkpt><trkpt lat="42.637150682376785" lon="8.976129178178041"><ele>5.0</ele><time>2026-05-01T10:26:10Z</time></trkpt><trkpt lat="42.6372420315444" lon="8.975898341541427"><ele>8.333333333333334</ele><time>2026-05-01T10:26:11Z</time></trkpt><trkpt lat="42.63736799752089" lon="8.975705862602863"><ele>11.666666666666666</ele><time>2026-05-01T10:26:12Z</time></trkpt><trkpt lat="42.63752142961635" lon="8.975552126983391"><ele>15.0</ele><time>2026-05-01T10:26:13Z</time></trkpt><trkpt lat="42.63768983480162" lon="8.975436692305381"><ele>13.333333333333334</ele><time>2026-05-01T10:26:14Z</time></trkpt><trkpt lat="42.637846988903945" lon="8.97534436275313"><ele>11.666666666666668</ele><time>2026-05-01T10:26:15Z</time></trkpt><trkpt lat="42.63798604617211" lon="8.975253573272681"><ele>10.0</ele><time>2026-05-01T10:26:16Z</time></trkpt><trkpt lat="42.63812261609393" lon="8.97516221962468"><ele>10.0</ele><time>2026-05-01T10:26:17Z</time></trkpt><trkpt lat="42.638265267424366" lon="8.975058219318711"><ele>10.0</ele><time>2026-05-01T10:26:18Z</time></trkpt><trkpt lat="42.63852754365809" lon="8.974775422276064"><ele>12.333333333333334</ele><time>2026-05-01T10:26:20Z</time></trkpt><trkpt lat="42.63863835161373" lon="8.974596881685015"><ele>14.666666666666668</ele><time>2026-05-01T10:26:21Z</time></trkpt><trkpt lat="42.638737913489614" lon="8.974399331271279"><ele>17.0</ele><time>2026-05-01T10:26:22Z</time></trkpt><trkpt lat="42.638803106326634" lon="8.974172744934933"><ele>18.0</ele><time>2026-05-01T10:26:23Z</time></trkpt><trkpt lat="42.63884350293966" lon="8.973929395344593"><ele>19.0</ele><time>2026-05-01T10:26:24Z</time></trkpt><trkpt lat="42.63885643102836" lon="8.973683930368567"><ele>20.0</ele><time>2026-05-01T10:26:25Z</time></trkpt><trkpt lat="42.638853408929485" lon="8.973440047053472"><ele>19.0</ele><time>2026-05-01T10:26:26Z</time></trkpt><trkpt lat="42.638840526201186" lon="8.973199493232931"><ele>18.0</ele><time>2026-05-01T10:26:27Z</time></trkpt><trkpt lat="42.63880947028535" lon="8.972980166080925"><ele>17.0</ele><time>2026-05-01T10:26:28Z</time></trkpt><trkpt lat="42.63876413522901" lon="8.972772849160426"><ele>17.0</ele><time>2026-05-01T10:26:29Z</time></trkpt><trkpt lat="42.638704980212005" lon="8.972573706468161"><ele>17.0</ele><time>2026-05-01T10:26:30Z</time></trkpt><trkpt lat="42.63863031831839" lon="8.972379673739214"><ele>17.0</ele><time>2026-05-01T10:26:31Z</time></trkpt><trkpt lat="42.638543308126906" lon="8.972185685274463"><ele>19.0</ele><time>2026-05-01T10:26:32Z</time></trkpt><trkpt lat="42.638430986177" lon="8.971995336629089"><ele>21.0</ele><time>2026-05-01T10:26:33Z</time></trkpt><trkpt lat="42.63832909675959" lon="8.971814141083058"><ele>23.0</ele><time>2026-05-01T10:26:34Z</time></trkpt><trkpt lat="42.63823520068575" lon="8.971640936869532"><ele>23.0</ele><time>2026-05-01T10:26:35Z</time></trkpt><trkpt lat="42.638134073070496" lon="8.971490253293082"><ele>23.0</ele><time>2026-05-01T10:26:36Z</time></trkpt><trkpt lat="42.638010129468874" lon="8.971354476766427"><ele>23.0</ele><time>2026-05-01T10:26:37Z</time></trkpt><trkpt lat="42.637871430269264" lon="8.971211052149885"><ele>28.0</ele><time>2026-05-01T10:26:38Z</time></trkpt><trkpt lat="42.63774059957132" lon="8.971050419479099"><ele>33.0</ele><time>2026-05-01T10:26:39Z</time></trkpt><trkpt lat="42.63752795910505" lon="8.970659207429781"><ele>33.0</ele><time>2026-05-01T10:26:41Z</time></trkpt><trkpt lat="42.63744625067724" lon="8.970457991376215"><ele>33.0</ele><time>2026-05-01T10:26:42Z</time></trkpt><trkpt lat="42.6373788657943" lon="8.970257742147695"><ele>33.0</ele><time>2026-05-01T10:26:43Z</time></trkpt><trkpt lat="42.63731923675433" lon="8.970060985585063"><ele>28.0</ele><time>2026-05-01T10:26:44Z</time></trkpt><trkpt lat="42.63725568190307" lon="8.969869726828515"><ele>23.0</ele><time>2026-05-01T10:26:45Z</time></trkpt><trkpt lat="42.63718434548355" lon="8.969673644887132"><ele>18.0</ele><time>2026-05-01T10:26:46Z</time></trkpt><trkpt lat="42.637094905154385" lon="8.969475706729135"><ele>23.0</ele><time>2026-05-01T10:26:47Z</time></trkpt><trkpt lat="42.63696059292762" lon="8.969262769113936"><ele>28.0</ele><time>2026-05-01T10:26:48Z</time></trkpt><trkpt lat="42.6367926976009" lon="8.969031556408394"><ele>33.0</ele><time>2026-05-01T10:26:49Z</time></trkpt><trkpt lat="42.636617339390945" lon="8.968776232778117"><ele>33.0</ele><time>2026-05-01T10:26:50Z</time></trkpt><trkpt lat="42.636464083082764" lon="8.968525127454795"><ele>33.0</ele><time>2026-05-01T10:26:51Z</time></trkpt><trkpt lat="42.63633557015751" lon="8.968303858910835"><ele>33.0</ele><time>2026-05-01T10:26:52Z</time></trkpt><trkpt lat="42.636228522801794" lon="8.968089192932199"><ele>33.0</ele><time>2026-05-01T10:26:53Z</time></trkpt><trkpt lat="42.63614852913452" lon="8.967873776264476"><ele>33.0</ele><time>2026-05-01T10:26:54Z</time></trkpt><trkpt lat="42.63608953120956" lon="8.967666352561436"><ele>33.0</ele><time>2026-05-01T10:26:55Z</time></trkpt><trkpt lat="42.636036010200016" lon="8.96747070124699"><ele>33.0</ele><time>2026-05-01T10:26:56Z</time></trkpt><trkpt lat="42.635979641508804" lon="8.967296372297488"><ele>33.0</ele><time>2026-05-01T10:26:57Z</time></trkpt><trkpt lat="42.63591723743224" lon="8.967135946158827"><ele>33.0</ele><time>2026-05-01T10:26:58Z</time></trkpt><trkpt lat="42.63584189087168" lon="8.966981658948741"><ele>33.0</ele><time>2026-05-01T10:26:59Z</time></trkpt><trkpt lat="42.63574749192142" lon="8.966843154701634"><ele>23.5</ele><time>2026-05-01T10:27:00Z</time></trkpt><trkpt lat="42.63551448752225" lon="8.966589616279004"><ele>14.0</ele><time>2026-05-01T10:27:02Z</time></trkpt><trkpt lat="42.635384791382265" lon="8.966456512771835"><ele>20.0</ele><time>2026-05-01T10:27:03Z</time></trkpt><trkpt lat="42.635249678779104" lon="8.966321664541207"><ele>26.0</ele><time>2026-05-01T10:27:04Z</time></trkpt><trkpt lat="42.635107056682415" lon="8.966169922054927"><ele>32.0</ele><time>2026-05-01T10:27:05Z</time></trkpt><trkpt lat="42.634959453959276" lon="8.965989698122442"><ele>24.666666666666664</ele><time>2026-05-01T10:27:06Z</time></trkpt><trkpt lat="42.63482112131093" lon="8.965783463048826"><ele>17.333333333333332</ele><time>2026-05-01T10:27:07Z</time></trkpt><trkpt lat="42.63469591968246" lon="8.965555205591185"><ele>10.0</ele><time>2026-05-01T10:27:08Z</time></trkpt><trkpt lat="42.63458599524777" lon="8.965310861686989"><ele>10.0</ele><time>2026-05-01T10:27:09Z</time></trkpt><trkpt lat="42.634491088468195" lon="8.965070790060494"><ele>10.0</ele><time>2026-05-01T10:27:10Z</time></trkpt><trkpt lat="42.63439370583782" lon="8.96484380641155"><ele>10.0</ele><time>2026-05-01T10:27:11Z</time></trkpt><trkpt lat="42.63429124906895" lon="8.964625016581262"><ele>8.666666666666668</ele><time>2026-05-01T10:27:12Z</time></trkpt><trkpt lat="42.6341857745941" lon="8.964402356002687"><ele>7.333333333333334</ele><time>2026-05-01T10:27:13Z</time></trkpt><trkpt lat="42.63407615155568" lon="8.964180767777435"><ele>6.0</ele><time>2026-05-01T10:27:14Z</time></trkpt><trkpt lat="42.63396770193758" lon="8.963966601344266"><ele>6.0</ele><time>2026-05-01T10:27:15Z</time></trkpt><trkpt lat="42.63386145401391" lon="8.963761652099603"><ele>6.0</ele><time>2026-05-01T10:27:16Z</time></trkpt><trkpt lat="42.63374098082232" lon="8.963581917609051"><ele>6.0</ele><time>2026-05-01T10:27:17Z</time></trkpt><trkpt lat="42.633596195054054" lon="8.963428885958184"><ele>6.0</ele><time>2026-05-01T10:27:18Z</time></trkpt><trkpt lat="42.633424392281945" lon="8.963296699732373"><ele>6.0</ele><time>2026-05-01T10:27:19Z</time></trkpt><trkpt lat="42.63327661331394" lon="8.963160514125667"><ele>6.0</ele><time>2026-05-01T10:27:20Z</time></trkpt><trkpt lat="42.63313573896292" lon="8.96302900515545"><ele>6.0</ele><time>2026-05-01T10:27:21Z</time></trkpt><trkpt lat="42.63288953272968" lon="8.96274141339996"><ele>6.0</ele><time>2026-05-01T10:27:23Z</time></trkpt><trkpt lat="42.63279625600659" lon="8.962578445244477"><ele>5.333333333333333</ele><time>2026-05-01T10:27:24Z</time></trkpt><trkpt lat="42.63270953653254" lon="8.962408379672812"><ele>4.666666666666666</ele><time>2026-05-01T10:27:25Z</time></trkpt><trkpt lat="42.6326225697161" lon="8.962245048803055"><ele>4.0</ele><time>2026-05-01T10:27:26Z</time></trkpt><trkpt lat="42.632534266902326" lon="8.962078224593695"><ele>4.0</ele><time>2026-05-01T10:27:27Z</time></trkpt><trkpt lat="42.63244712591874" lon="8.961916214564564"><ele>4.0</ele><time>2026-05-01T10:27:28Z</time></trkpt><trkpt lat="42.63235488711064" lon="8.961749285064533"><ele>4.0</ele><time>2026-05-01T10:27:29Z</time></trkpt><trkpt lat="42.63226541087548" lon="8.961589206395429"><ele>4.0</ele><time>2026-05-01T10:27:30Z</time></trkpt><trkpt lat="42.6321730480447" lon="8.961424574297181"><ele>4.75</ele><time>2026-05-01T10:27:31Z</time></trkpt><trkpt lat="42.63208392798983" lon="8.961261588155262"><ele>5.5</ele><time>2026-05-01T10:27:32Z</time></trkpt><trkpt lat="42.63199202849058" lon="8.961102537019245"><ele>6.25</ele><time>2026-05-01T10:27:33Z</time></trkpt><trkpt lat="42.631905051786454" lon="8.960939899362064"><ele>7.0</ele><time>2026-05-01T10:27:34Z</time></trkpt><trkpt lat="42.631815685258424" lon="8.960777961490296"><ele>8.5</ele><time>2026-05-01T10:27:35Z</time></trkpt><trkpt lat="42.6317248087023" lon="8.960616344804324"><ele>10.0</ele><time>2026-05-01T10:27:36Z</time></trkpt><trkpt lat="42.63163744056892" lon="8.96045609490693"><ele>11.5</ele><time>2026-05-01T10:27:37Z</time></trkpt><trkpt lat="42.63155230579992" lon="8.960296628420835"><ele>13.0</ele><time>2026-05-01T10:27:38Z</time></trkpt><trkpt lat="42.63147503873313" lon="8.960131084207843"><ele>14.5</ele><time>2026-05-01T10:27:39Z</time></trkpt><trkpt lat="42.631417027320595" lon="8.959947045382943"><ele>16.0</ele><time>2026-05-01T10:27:40Z</time></trkpt><trkpt lat="42.63137699333953" lon="8.959754405933198"><ele>17.5</ele><time>2026-05-01T10:27:41Z</time></trkpt><trkpt lat="42.631355974040424" lon="8.959550572965279"><ele>19.0</ele><time>2026-05-01T10:27:42Z</time></trkpt><trkpt lat="42.63136781756466" lon="8.95913351291502"><ele>20.0</ele><time>2026-05-01T10:27:44Z</time></trkpt><trkpt lat="42.6313777443343" lon="8.958913746437954"><ele>21.0</ele><time>2026-05-01T10:27:45Z</time></trkpt><trkpt lat="42.63138554160327" lon="8.958687649346405"><ele>22.0</ele><time>2026-05-01T10:27:46Z</time></trkpt><trkpt lat="42.631387887229984" lon="8.958471783167504"><ele>22.666666666666664</ele><time>2026-05-01T10:27:47Z</time></trkpt><trkpt lat="42.631391635466336" lon="8.958264902158854"><ele>23.333333333333332</ele><time>2026-05-01T10:27:48Z</time></trkpt><trkpt lat="42.63139581757231" lon="8.958057159891851"><ele>24.0</ele><time>2026-05-01T10:27:49Z</time></trkpt><trkpt lat="42.6314008578288" lon="8.9578450869739"><ele>24.0</ele><time>2026-05-01T10:27:50Z</time></trkpt><trkpt lat="42.631407470966685" lon="8.957668561796677"><ele>24.0</ele><time>2026-05-01T10:27:51Z</time></trkpt><trkpt lat="42.63141316857554" lon="8.95754753222617"><ele>24.0</ele><time>2026-05-01T10:27:52Z</time></trkpt><trkpt lat="42.63141618434743" lon="8.957384294511002"><ele>24.0</ele><time>2026-05-01T10:27:54Z</time></trkpt><trkpt lat="42.63141020659484" lon="8.957296239362575"><ele>24.0</ele><time>2026-05-01T10:27:55Z</time></trkpt><trkpt lat="42.63141909932701" lon="8.957200699178534"><ele>24.666666666666668</ele><time>2026-05-01T10:27:56Z</time></trkpt><trkpt lat="42.631422489708264" lon="8.957104917856723"><ele>25.333333333333336</ele><time>2026-05-01T10:27:57Z</time></trkpt><trkpt lat="42.63142394257104" lon="8.957001376065662"><ele>26.0</ele><time>2026-05-01T10:27:58Z</time></trkpt><trkpt lat="42.631423542437254" lon="8.95689186000653"><ele>26.666666666666668</ele><time>2026-05-01T10:27:59Z</time></trkpt><trkpt lat="42.63142665409285" lon="8.9567728826703"><ele>27.333333333333336</ele><time>2026-05-01T10:28:00Z</time></trkpt><trkpt lat="42.63143401414435" lon="8.956645377752016"><ele>28.0</ele><time>2026-05-01T10:28:01Z</time></trkpt><trkpt lat="42.63144142293723" lon="8.956510560441208"><ele>28.75</ele><time>2026-05-01T10:28:02Z</time></trkpt><trkpt lat="42.63144635686533" lon="8.95637461207249"><ele>29.5</ele><time>2026-05-01T10:28:03Z</time></trkpt><trkpt lat="42.63145238067706" lon="8.956068392212014"><ele>30.25</ele><time>2026-05-01T10:28:05Z</time></trkpt><trkpt lat="42.631455150464156" lon="8.95590094344375"><ele>31.0</ele><time>2026-05-01T10:28:06Z</time></trkpt><trkpt lat="42.63145013216255" lon="8.95573530760843"><ele>31.75</ele><time>2026-05-01T10:28:07Z</time></trkpt><trkpt lat="42.63143344498921" lon="8.955567377459772"><ele>32.5</ele><time>2026-05-01T10:28:08Z</time></trkpt><trkpt lat="42.63141091894031" lon="8.955398105716048"><ele>33.25</ele><time>2026-05-01T10:28:09Z</time></trkpt><trkpt lat="42.63138866938534" lon="8.955227381107125"><ele>34.0</ele><time>2026-05-01T10:28:10Z</time></trkpt><trkpt lat="42.63136390166004" lon="8.955054669599598"><ele>34.5</ele><time>2026-05-01T10:28:11Z</time></trkpt><trkpt lat="42.63134579705797" lon="8.954884308735044"><ele>35.0</ele><time>2026-05-01T10:28:12Z</time></trkpt><trkpt lat="42.631326791706734" lon="8.954716936665845"><ele>35.5</ele><time>2026-05-01T10:28:13Z</time></trkpt><trkpt lat="42.63130794422058" lon="8.954555645651052"><ele>36.0</ele><time>2026-05-01T10:28:14Z</time></trkpt><trkpt lat="42.631289545451224" lon="8.954391192001424"><ele>36.0</ele><time>2026-05-01T10:28:15Z</time></trkpt><trkpt lat="42.63127458781293" lon="8.954221711933554"><ele>36.0</ele><time>2026-05-01T10:28:16Z</time></trkpt><trkpt lat="42.63125965595399" lon="8.954051638357344"><ele>36.0</ele><time>2026-05-01T10:28:17Z</time></trkpt><trkpt lat="42.63124021007234" lon="8.953880288982413"><ele>36.0</ele><time>2026-05-01T10:28:18Z</time></trkpt><trkpt lat="42.631214950994" lon="8.953704971755862"><ele>36.0</ele><time>2026-05-01T10:28:19Z</time></trkpt><trkpt lat="42.631187643025385" lon="8.953528024626461"><ele>36.0</ele><time>2026-05-01T10:28:20Z</time></trkpt><trkpt lat="42.631162409837735" lon="8.953347663148827"><ele>36.0</ele><time>2026-05-01T10:28:21Z</time></trkpt><trkpt lat="42.6311388964033" lon="8.953166789100534"><ele>36.0</ele><time>2026-05-01T10:28:22Z</time></trkpt><trkpt lat="42.631117096352725" lon="8.95298960284175"><ele>36.0</ele><time>2026-05-01T10:28:23Z</time></trkpt><trkpt lat="42.63109511837211" lon="8.952812358646941"><ele>36.0</ele><time>2026-05-01T10:28:24Z</time></trkpt><trkpt lat="42.631053647080826" lon="8.952446676809029"><ele>36.0</ele><time>2026-05-01T10:28:26Z</time></trkpt><trkpt lat="42.63103416938369" lon="8.952270977357424"><ele>35.5</ele><time>2026-05-01T10:28:27Z</time></trkpt><trkpt lat="42.631015442488284" lon="8.9520903037772"><ele>35.0</ele><time>2026-05-01T10:28:28Z</time></trkpt><trkpt lat="42.63099641084604" lon="8.951908453376062"><ele>34.5</ele><time>2026-05-01T10:28:29Z</time></trkpt><trkpt lat="42.630977701322" lon="8.951726885676825"><ele>34.0</ele><time>2026-05-01T10:28:30Z</time></trkpt><trkpt lat="42.630958744122616" lon="8.951555361430103"><ele>34.0</ele><time>2026-05-01T10:28:31Z</time></trkpt><trkpt lat="42.63095070324062" lon="8.951387758837319"><ele>34.0</ele><time>2026-05-01T10:28:32Z</time></trkpt><trkpt lat="42.63095340415448" lon="8.951228646062964"><ele>34.0</ele><time>2026-05-01T10:28:33Z</time></trkpt><trkpt lat="42.630988649977056" lon="8.951066009607011"><ele>34.0</ele><time>2026-05-01T10:28:34Z</time></trkpt><trkpt lat="42.63104944537991" lon="8.950928913681416"><ele>34.0</ele><time>2026-05-01T10:28:35Z</time></trkpt><trkpt lat="42.631123716358644" lon="8.950795071173793"><ele>34.0</ele><time>2026-05-01T10:28:36Z</time></trkpt><trkpt lat="42.63120593352531" lon="8.95067463985733"><ele>34.0</ele><time>2026-05-01T10:28:37Z</time></trkpt><trkpt lat="42.631291134178085" lon="8.950556933883496"><ele>34.0</ele><time>2026-05-01T10:28:38Z</time></trkpt><trkpt lat="42.63137056581532" lon="8.950447927459118"><ele>31.799999999999997</ele><time>2026-05-01T10:28:39Z</time></trkpt><trkpt lat="42.6314476194797" lon="8.950341251095818"><ele>29.599999999999998</ele><time>2026-05-01T10:28:40Z</time></trkpt><trkpt lat="42.63152228909748" lon="8.950238066025479"><ele>27.4</ele><time>2026-05-01T10:28:41Z</time></trkpt><trkpt lat="42.631590112071514" lon="8.95014080704282"><ele>25.2</ele><time>2026-05-01T10:28:42Z</time></trkpt><trkpt lat="42.63164752273691" lon="8.950052655242626"><ele>23.0</ele><time>2026-05-01T10:28:43Z</time></trkpt><trkpt lat="42.63169574031161" lon="8.949957968237083"><ele>22.75</ele><time>2026-05-01T10:28:44Z</time></trkpt><trkpt lat="42.63173045470005" lon="8.949848524602436"><ele>22.5</ele><time>2026-05-01T10:28:45Z</time></trkpt><trkpt lat="42.63176107130688" lon="8.94959944407939"><ele>22.25</ele><time>2026-05-01T10:28:47Z</time></trkpt><trkpt lat="42.63175763728394" lon="8.949459484255883"><ele>22.0</ele><time>2026-05-01T10:28:48Z</time></trkpt><trkpt lat="42.63175477364689" lon="8.949330642294155"><ele>22.6</ele><time>2026-05-01T10:28:49Z</time></trkpt><trkpt lat="42.63175259679468" lon="8.949194705605654"><ele>23.200000000000003</ele><time>2026-05-01T10:28:50Z</time></trkpt><trkpt lat="42.63175145408094" lon="8.949058108588131"><ele>23.8</ele><time>2026-05-01T10:28:51Z</time></trkpt><trkpt lat="42.631751263728766" lon="8.948913726577468"><ele>24.4</ele><time>2026-05-01T10:28:52Z</time></trkpt><trkpt lat="42.63175018488047" lon="8.948772902887951"><ele>25.0</ele><time>2026-05-01T10:28:53Z</time></trkpt><trkpt lat="42.63174578637735" lon="8.948629270118303"><ele>25.0</ele><time>2026-05-01T10:28:54Z</time></trkpt><trkpt lat="42.631743232230484" lon="8.948482007563172"><ele>25.0</ele><time>2026-05-01T10:28:55Z</time></trkpt><trkpt lat="42.63174195653945" lon="8.948334412636187"><ele>25.0</ele><time>2026-05-01T10:28:56Z</time></trkpt><trkpt lat="42.63173186553394" lon="8.948184961546831"><ele>25.0</ele><time>2026-05-01T10:28:57Z</time></trkpt><trkpt lat="42.63173990344774" lon="8.948027942592034"><ele>25.0</ele><time>2026-05-01T10:28:58Z</time></trkpt><trkpt lat="42.63173389421707" lon="8.947878140075247"><ele>24.0</ele><time>2026-05-01T10:28:59Z</time></trkpt><trkpt lat="42.631730832594535" lon="8.947724103067069"><ele>23.0</ele><time>2026-05-01T10:29:00Z</time></trkpt><trkpt lat="42.631727816674335" lon="8.94756832910314"><ele>22.0</ele><time>2026-05-01T10:29:01Z</time></trkpt><trkpt lat="42.63172939208154" lon="8.947413556196473"><ele>21.0</ele><time>2026-05-01T10:29:02Z</time></trkpt><trkpt lat="42.63173018292845" lon="8.947253728138765"><ele>19.5</ele><time>2026-05-01T10:29:03Z</time></trkpt><trkpt lat="42.631735984079604" lon="8.94709383938352"><ele>18.0</ele><time>2026-05-01T10:29:04Z</time></trkpt><trkpt lat="42.631745085458434" lon="8.94693085188782"><ele>16.5</ele><time>2026-05-01T10:29:05Z</time></trkpt><trkpt lat="42.63176287803301" lon="8.946767230959939"><ele>15.0</ele><time>2026-05-01T10:29:06Z</time></trkpt><trkpt lat="42.63180835661864" lon="8.946428813272703"><ele>14.6</ele><time>2026-05-01T10:29:08Z</time></trkpt><trkpt lat="42.631831217735396" lon="8.946279521493526"><ele>14.2</ele><time>2026-05-01T10:29:09Z</time></trkpt><trkpt lat="42.63185067103462" lon="8.946131645026778"><ele>13.8</ele><time>2026-05-01T10:29:10Z</time></trkpt><trkpt lat="42.63187088901555" lon="8.945989340512716"><ele>13.4</ele><time>2026-05-01T10:29:11Z</time></trkpt><trkpt lat="42.63189163721257" lon="8.945853342100465"><ele>13.0</ele><time>2026-05-01T10:29:12Z</time></trkpt><trkpt lat="42.631911824338026" lon="8.945713763982834"><ele>13.0</ele><time>2026-05-01T10:29:13Z</time></trkpt><trkpt lat="42.631930838254824" lon="8.94556505156846"><ele>13.0</ele><time>2026-05-01T10:29:14Z</time></trkpt><trkpt lat="42.63194657311075" lon="8.945414593836398"><ele>13.0</ele><time>2026-05-01T10:29:15Z</time></trkpt><trkpt lat="42.63196480705726" lon="8.945259441716077"><ele>13.0</ele><time>2026-05-01T10:29:16Z</time></trkpt><trkpt lat="42.63198375178341" lon="8.94510573591667"><ele>11.25</ele><time>2026-05-01T10:29:17Z</time></trkpt><trkpt lat="42.63200164237239" lon="8.94494978078902"><ele>9.5</ele><time>2026-05-01T10:29:18Z</time></trkpt><trkpt lat="42.63202055107135" lon="8.944795689939317"><ele>7.75</ele><time>2026-05-01T10:29:19Z</time></trkpt><trkpt lat="42.63203950762257" lon="8.944639688106296"><ele>6.0</ele><time>2026-05-01T10:29:20Z</time></trkpt><trkpt lat="42.632059079849014" lon="8.944480750783688"><ele>6.0</ele><time>2026-05-01T10:29:21Z</time></trkpt><trkpt lat="42.63207927333977" lon="8.944321836565885"><ele>6.0</ele><time>2026-05-01T10:29:22Z</time></trkpt><trkpt lat="42.63210211688385" lon="8.944167770938702"><ele>6.0</ele><time>2026-05-01T10:29:23Z</time></trkpt><trkpt lat="42.63211750963542" lon="8.944023795504817"><ele>6.0</ele><time>2026-05-01T10:29:24Z</time></trkpt><trkpt lat="42.63213342807972" lon="8.943886156217266"><ele>6.0</ele><time>2026-05-01T10:29:25Z</time></trkpt><trkpt lat="42.63214910410212" lon="8.943753711976779"><ele>6.0</ele><time>2026-05-01T10:29:26Z</time></trkpt><trkpt lat="42.63216602430428" lon="8.943625928383284"><ele>6.0</ele><time>2026-05-01T10:29:27Z</time></trkpt><trkpt lat="42.632198028899545" lon="8.943371982714625"><ele>6.0</ele><time>2026-05-01T10:29:29Z</time></trkpt><trkpt lat="42.632214876725875" lon="8.94324884261033"><ele>6.0</ele><time>2026-05-01T10:29:30Z</time></trkpt><trkpt lat="42.63223031231002" lon="8.943124648168311"><ele>6.0</ele><time>2026-05-01T10:29:31Z</time></trkpt><trkpt lat="42.63224624632049" lon="8.943015426795734"><ele>6.0</ele><time>2026-05-01T10:29:32Z</time></trkpt><trkpt lat="42.63225991091192" lon="8.94290152934999"><ele>6.0</ele><time>2026-05-01T10:29:33Z</time></trkpt><trkpt lat="42.632274691304104" lon="8.942786066691639"><ele>6.0</ele><time>2026-05-01T10:29:34Z</time></trkpt><trkpt lat="42.632290095466175" lon="8.942666790244237"><ele>6.0</ele><time>2026-05-01T10:29:35Z</time></trkpt><trkpt lat="42.63230599062718" lon="8.942544974079999"><ele>6.0</ele><time>2026-05-01T10:29:36Z</time></trkpt><trkpt lat="42.632320617751006" lon="8.942434240877818"><ele>6.0</ele><time>2026-05-01T10:29:37Z</time></trkpt><trkpt lat="42.632334404327686" lon="8.942334742103856"><ele>6.0</ele><time>2026-05-01T10:29:38Z</time></trkpt><trkpt lat="42.63234866622822" lon="8.94224362045136"><ele>6.0</ele><time>2026-05-01T10:29:39Z</time></trkpt><trkpt lat="42.63236128825406" lon="8.942146151351668"><ele>6.0</ele><time>2026-05-01T10:29:40Z</time></trkpt><trkpt lat="42.632377571177486" lon="8.942035735271663"><ele>6.0</ele><time>2026-05-01T10:29:41Z</time></trkpt><trkpt lat="42.63239035169348" lon="8.941917230573507"><ele>6.0</ele><time>2026-05-01T10:29:42Z</time></trkpt><trkpt lat="42.63240252356958" lon="8.941812516157684"><ele>5.833333333333333</ele><time>2026-05-01T10:29:43Z</time></trkpt><trkpt lat="42.63242002671937" lon="8.941708667846317"><ele>5.666666666666667</ele><time>2026-05-01T10:29:44Z</time></trkpt><trkpt lat="42.6324348356149" lon="8.941596551028566"><ele>5.5</ele><time>2026-05-01T10:29:45Z</time></trkpt><trkpt lat="42.63245256335897" lon="8.941478140351206"><ele>5.333333333333334</ele><time>2026-05-01T10:29:46Z</time></trkpt><trkpt lat="42.63246943931083" lon="8.941361215619809"><ele>5.166666666666667</ele><time>2026-05-01T10:29:47Z</time></trkpt><trkpt lat="42.63248374282095" lon="8.941248369735133"><ele>5.0</ele><time>2026-05-01T10:29:48Z</time></trkpt><trkpt lat="42.63250715657927" lon="8.941012009788798"><ele>5.0</ele><time>2026-05-01T10:29:50Z</time></trkpt><trkpt lat="42.63252043747782" lon="8.940900243274896"><ele>5.0</ele><time>2026-05-01T10:29:51Z</time></trkpt><trkpt lat="42.63253397114258" lon="8.940802464541706"><ele>5.0</ele><time>2026-05-01T10:29:52Z</time></trkpt><trkpt lat="42.63255117492282" lon="8.940705116129731"><ele>5.0</ele><time>2026-05-01T10:29:54Z</time></trkpt><trkpt lat="42.6325579564136" lon="8.94061764064467"><ele>5.0</ele><time>2026-05-01T10:29:56Z</time></trkpt><trkpt lat="42.63257562835096" lon="8.940528060108377"><ele>5.0</ele><time>2026-05-01T10:29:57Z</time></trkpt><trkpt lat="42.63259705794144" lon="8.9404134315308"><ele>5.2</ele><time>2026-05-01T10:29:58Z</time></trkpt><trkpt lat="42.632612342369875" lon="8.94029208707467"><ele>5.4</ele><time>2026-05-01T10:29:59Z</time></trkpt><trkpt lat="42.632627686366824" lon="8.940167061697526"><ele>5.6</ele><time>2026-05-01T10:30:00Z</time></trkpt><trkpt lat="42.632642250193975" lon="8.94004360344349"><ele>5.8</ele><time>2026-05-01T10:30:01Z</time></trkpt><trkpt lat="42.63265882645438" lon="8.939911983530308"><ele>6.0</ele><time>2026-05-01T10:30:02Z</time></trkpt><trkpt lat="42.63267397061827" lon="8.939774254018477"><ele>6.199999999999999</ele><time>2026-05-01T10:30:03Z</time></trkpt><trkpt lat="42.63268936417544" lon="8.939636155853442"><ele>6.3999999999999995</ele><time>2026-05-01T10:30:04Z</time></trkpt><trkpt lat="42.63270656627922" lon="8.93950000101434"><ele>6.6</ele><time>2026-05-01T10:30:05Z</time></trkpt><trkpt lat="42.63272776935002" lon="8.939376469579722"><ele>6.8</ele><time>2026-05-01T10:30:06Z</time></trkpt><trkpt lat="42.63274418360759" lon="8.93926245219017"><ele>7.0</ele><time>2026-05-01T10:30:07Z</time></trkpt><trkpt lat="42.63275779050721" lon="8.939163614988681"><ele>7.5</ele><time>2026-05-01T10:30:08Z</time></trkpt><trkpt lat="42.63277887962318" lon="8.939014726596332"><ele>8.0</ele><time>2026-05-01T10:30:10Z</time></trkpt><trkpt lat="42.6328148966308" lon="8.938754913776618"><ele>8.5</ele><time>2026-05-01T10:30:14Z</time></trkpt><trkpt lat="42.63283054766011" lon="8.938629243003888"><ele>9.0</ele><time>2026-05-01T10:30:16Z</time></trkpt><trkpt lat="42.632842629826506" lon="8.93852389681207"><ele>9.0</ele><time>2026-05-01T10:30:18Z</time></trkpt><trkpt lat="42.632834730117956" lon="8.938351696128358"><ele>9.0</ele><time>2026-05-01T10:30:20Z</time></trkpt><trkpt lat="42.63281518481837" lon="8.938239932713998"><ele>9.0</ele><time>2026-05-01T10:30:21Z</time></trkpt><trkpt lat="42.63278906165932" lon="8.93812076932951"><ele>9.0</ele><time>2026-05-01T10:30:22Z</time></trkpt><trkpt lat="42.63275634473546" lon="8.937995882864376"><ele>9.0</ele><time>2026-05-01T10:30:23Z</time></trkpt><trkpt lat="42.63272257652551" lon="8.937874586624787"><ele>9.0</ele><time>2026-05-01T10:30:24Z</time></trkpt><trkpt lat="42.63268456259308" lon="8.93776500151656"><ele>9.0</ele><time>2026-05-01T10:30:25Z</time></trkpt><trkpt lat="42.63265056909825" lon="8.937660751307034"><ele>9.0</ele><time>2026-05-01T10:30:26Z</time></trkpt><trkpt lat="42.63261690247409" lon="8.937561552049196"><ele>9.0</ele><time>2026-05-01T10:30:27Z</time></trkpt><trkpt lat="42.6325868921894" lon="8.937469358567443"><ele>9.0</ele><time>2026-05-01T10:30:28Z</time></trkpt><trkpt lat="42.63255561389434" lon="8.937371206885032"><ele>9.0</ele><time>2026-05-01T10:30:29Z</time></trkpt><trkpt lat="42.6325233826739" lon="8.937273006813415"><ele>8.4</ele><time>2026-05-01T10:30:30Z</time></trkpt><trkpt lat="42.632490778786085" lon="8.937174482351418"><ele>7.800000000000001</ele><time>2026-05-01T10:30:31Z</time></trkpt><trkpt lat="42.6324259609024" lon="8.936960551506333"><ele>7.199999999999999</ele><time>2026-05-01T10:30:33Z</time></trkpt><trkpt lat="42.63239287221368" lon="8.936845983485453"><ele>6.6</ele><time>2026-05-01T10:30:34Z</time></trkpt><trkpt lat="42.63235802132882" lon="8.936725520730256"><ele>6.0</ele><time>2026-05-01T10:30:35Z</time></trkpt><trkpt lat="42.632321854606126" lon="8.936607606958248"><ele>6.0</ele><time>2026-05-01T10:30:36Z</time></trkpt><trkpt lat="42.63228080742265" lon="8.936485385724263"><ele>6.0</ele><time>2026-05-01T10:30:37Z</time></trkpt><trkpt lat="42.63224043007741" lon="8.936364211338114"><ele>6.0</ele><time>2026-05-01T10:30:38Z</time></trkpt><trkpt lat="42.63220199079218" lon="8.936232116952873"><ele>6.0</ele><time>2026-05-01T10:30:39Z</time></trkpt><trkpt lat="42.63216352876263" lon="8.93609555020385"><ele>6.0</ele><time>2026-05-01T10:30:40Z</time></trkpt><trkpt lat="42.632125273093656" lon="8.935956920581779"><ele>6.0</ele><time>2026-05-01T10:30:41Z</time></trkpt><trkpt lat="42.6320855949286" lon="8.935814717564764"><ele>6.0</ele><time>2026-05-01T10:30:42Z</time></trkpt><trkpt lat="42.63204393474438" lon="8.93568302748556"><ele>6.0</ele><time>2026-05-01T10:30:43Z</time></trkpt><trkpt lat="42.63200507777691" lon="8.93556317087782"><ele>6.0</ele><time>2026-05-01T10:30:44Z</time></trkpt><trkpt lat="42.63197038994334" lon="8.935449192067017"><ele>6.0</ele><time>2026-05-01T10:30:45Z</time></trkpt><trkpt lat="42.63194418035509" lon="8.935358945388163"><ele>6.0</ele><time>2026-05-01T10:30:46Z</time></trkpt><trkpt lat="42.631920890217955" lon="8.935269222984731"><ele>6.0</ele><time>2026-05-01T10:30:47Z</time></trkpt><trkpt lat="42.63190471677267" lon="8.935186527456649"><ele>6.0</ele><time>2026-05-01T10:30:48Z</time></trkpt><trkpt lat="42.631867568410605" lon="8.935053271831904"><ele>6.0</ele><time>2026-05-01T10:30:50Z</time></trkpt><trkpt lat="42.63184143698944" lon="8.934960813704192"><ele>6.0</ele><time>2026-05-01T10:30:53Z</time></trkpt><trkpt lat="42.6317051699655" lon="8.934677767502698"><ele>9.0</ele><time>2026-05-01T10:32:26Z</time></trkpt><trkpt lat="42.631654313763704" lon="8.93451343456136"><ele>12.0</ele><time>2026-05-01T10:32:27Z</time></trkpt><trkpt lat="42.63157803233362" lon="8.934302167193477"><ele>15.0</ele><time>2026-05-01T10:32:28Z</time></trkpt><trkpt lat="42.631494360800616" lon="8.93405981301531"><ele>15.666666666666668</ele><time>2026-05-01T10:32:29Z</time></trkpt><trkpt lat="42.63138344557789" lon="8.933807187904474"><ele>16.333333333333336</ele><time>2026-05-01T10:32:30Z</time></trkpt><trkpt lat="42.63125554771053" lon="8.933593074306588"><ele>17.0</ele><time>2026-05-01T10:32:31Z</time></trkpt><trkpt lat="42.63112416238976" lon="8.933420429072612"><ele>19.25</ele><time>2026-05-01T10:32:32Z</time></trkpt><trkpt lat="42.63101689204359" lon="8.933248277667593"><ele>21.5</ele><time>2026-05-01T10:32:33Z</time></trkpt><trkpt lat="42.63092387201494" lon="8.933095275455491"><ele>23.75</ele><time>2026-05-01T10:32:34Z</time></trkpt><trkpt lat="42.630834831136525" lon="8.932959852734829"><ele>26.0</ele><time>2026-05-01T10:32:35Z</time></trkpt><trkpt lat="42.63075107387129" lon="8.932839563902817"><ele>26.0</ele><time>2026-05-01T10:32:36Z</time></trkpt><trkpt lat="42.630677564770046" lon="8.932735156587558"><ele>26.0</ele><time>2026-05-01T10:32:37Z</time></trkpt><trkpt lat="42.63061189152752" lon="8.93263622138564"><ele>26.0</ele><time>2026-05-01T10:32:38Z</time></trkpt><trkpt lat="42.63055196232705" lon="8.93253525737676"><ele>26.0</ele><time>2026-05-01T10:32:39Z</time></trkpt><trkpt lat="42.6304937645217" lon="8.932431146700003"><ele>26.0</ele><time>2026-05-01T10:32:40Z</time></trkpt><trkpt lat="42.630439805810624" lon="8.932333663140467"><ele>26.4</ele><time>2026-05-01T10:32:41Z</time></trkpt><trkpt lat="42.63038484678589" lon="8.93224523771054"><ele>26.8</ele><time>2026-05-01T10:32:42Z</time></trkpt><trkpt lat="42.63032200184511" lon="8.932155465931485"><ele>27.199999999999996</ele><time>2026-05-01T10:32:43Z</time></trkpt><trkpt lat="42.630257391575704" lon="8.932061430857946"><ele>27.599999999999998</ele><time>2026-05-01T10:32:44Z</time></trkpt><trkpt lat="42.630189802969696" lon="8.931963457294334"><ele>28.0</ele><time>2026-05-01T10:32:45Z</time></trkpt><trkpt lat="42.630063071811975" lon="8.9317672799991"><ele>28.2</ele><time>2026-05-01T10:32:47Z</time></trkpt><trkpt lat="42.62999852712539" lon="8.931673498411426"><ele>28.4</ele><time>2026-05-01T10:32:48Z</time></trkpt><trkpt lat="42.62993221358865" lon="8.931575691864094"><ele>28.599999999999998</ele><time>2026-05-01T10:32:49Z</time></trkpt><trkpt lat="42.629869050535746" lon="8.931466616738"><ele>28.799999999999997</ele><time>2026-05-01T10:32:50Z</time></trkpt><trkpt lat="42.62980143184097" lon="8.931373910402764"><ele>29.0</ele><time>2026-05-01T10:32:51Z</time></trkpt><trkpt lat="42.629734724165154" lon="8.93127528755921"><ele>29.0</ele><time>2026-05-01T10:32:52Z</time></trkpt><trkpt lat="42.62966622479301" lon="8.931173300728618"><ele>29.0</ele><time>2026-05-01T10:32:53Z</time></trkpt><trkpt lat="42.629595369802836" lon="8.931070384319645"><ele>29.0</ele><time>2026-05-01T10:32:54Z</time></trkpt><trkpt lat="42.62952458630469" lon="8.930964937498512"><ele>29.0</ele><time>2026-05-01T10:32:55Z</time></trkpt><trkpt lat="42.629451470475644" lon="8.930859637608437"><ele>29.0</ele><time>2026-05-01T10:32:56Z</time></trkpt><trkpt lat="42.62937511643079" lon="8.930753069081197"><ele>31.5</ele><time>2026-05-01T10:32:57Z</time></trkpt><trkpt lat="42.62930277187282" lon="8.930646791585783"><ele>34.0</ele><time>2026-05-01T10:32:58Z</time></trkpt><trkpt lat="42.62922516386764" lon="8.930531343314113"><ele>36.5</ele><time>2026-05-01T10:32:59Z</time></trkpt><trkpt lat="42.62914868714317" lon="8.930416302944483"><ele>39.0</ele><time>2026-05-01T10:33:00Z</time></trkpt><trkpt lat="42.629072053118" lon="8.930300958229342"><ele>39.0</ele><time>2026-05-01T10:33:01Z</time></trkpt><trkpt lat="42.62900172461737" lon="8.930180393557315"><ele>39.0</ele><time>2026-05-01T10:33:02Z</time></trkpt><trkpt lat="42.62892123864114" lon="8.930060548030111"><ele>39.0</ele><time>2026-05-01T10:33:03Z</time></trkpt><trkpt lat="42.628836674734565" lon="8.929940634036688"><ele>39.0</ele><time>2026-05-01T10:33:04Z</time></trkpt><trkpt lat="42.62875321965575" lon="8.929814976230741"><ele>38.666666666666664</ele><time>2026-05-01T10:33:05Z</time></trkpt><trkpt lat="42.628666689283236" lon="8.92968239034937"><ele>38.33333333333333</ele><time>2026-05-01T10:33:06Z</time></trkpt><trkpt lat="42.628489880921805" lon="8.929413395114828"><ele>38.0</ele><time>2026-05-01T10:33:08Z</time></trkpt><trkpt lat="42.62840002473798" lon="8.929277357505581"><ele>40.25</ele><time>2026-05-01T10:33:09Z</time></trkpt><trkpt lat="42.62830685528587" lon="8.929137157392628"><ele>42.5</ele><time>2026-05-01T10:33:10Z</time></trkpt><trkpt lat="42.6282167876949" lon="8.928999769385682"><ele>44.75</ele><time>2026-05-01T10:33:11Z</time></trkpt><trkpt lat="42.628117131912184" lon="8.928860401304357"><ele>47.0</ele><time>2026-05-01T10:33:12Z</time></trkpt><trkpt lat="42.62801998037048" lon="8.928719874734188"><ele>47.0</ele><time>2026-05-01T10:33:13Z</time></trkpt><trkpt lat="42.62792585024455" lon="8.92858041389138"><ele>47.0</ele><time>2026-05-01T10:33:14Z</time></trkpt><trkpt lat="42.62782870268717" lon="8.928441499522783"><ele>47.0</ele><time>2026-05-01T10:33:15Z</time></trkpt><trkpt lat="42.62773333991158" lon="8.928299978670978"><ele>47.0</ele><time>2026-05-01T10:33:16Z</time></trkpt><trkpt lat="42.62764377543252" lon="8.92815397872547"><ele>48.75</ele><time>2026-05-01T10:33:17Z</time></trkpt><trkpt lat="42.6275510311239" lon="8.928014277859297"><ele>50.5</ele><time>2026-05-01T10:33:18Z</time></trkpt><trkpt lat="42.62746209431456" lon="8.92787925884497"><ele>52.25</ele><time>2026-05-01T10:33:19Z</time></trkpt><trkpt lat="42.627372526369356" lon="8.927752572444595"><ele>54.0</ele><time>2026-05-01T10:33:20Z</time></trkpt><trkpt lat="42.62728323596582" lon="8.927627603978625"><ele>53.5</ele><time>2026-05-01T10:33:21Z</time></trkpt><trkpt lat="42.6271992719809" lon="8.927490432912107"><ele>53.0</ele><time>2026-05-01T10:33:22Z</time></trkpt><trkpt lat="42.62711534734034" lon="8.927353317533997"><ele>52.5</ele><time>2026-05-01T10:33:23Z</time></trkpt><trkpt lat="42.62705639129938" lon="8.92720294767991"><ele>52.0</ele><time>2026-05-01T10:33:24Z</time></trkpt><trkpt lat="42.627025623050834" lon="8.927028219917869"><ele>52.0</ele><time>2026-05-01T10:33:25Z</time></trkpt><trkpt lat="42.627021146452684" lon="8.926856854036245"><ele>52.0</ele><time>2026-05-01T10:33:26Z</time></trkpt><trkpt lat="42.627040429999326" lon="8.926686101770924"><ele>52.0</ele><time>2026-05-01T10:33:27Z</time></trkpt><trkpt lat="42.62712269392947" lon="8.926366333861939"><ele>53.5</ele><time>2026-05-01T10:33:29Z</time></trkpt><trkpt lat="42.62716175930274" lon="8.926201572507244"><ele>55.0</ele><time>2026-05-01T10:33:30Z</time></trkpt><trkpt lat="42.6271990885243" lon="8.92603459747734"><ele>56.5</ele><time>2026-05-01T10:33:31Z</time></trkpt><trkpt lat="42.6272340550542" lon="8.925874237115172"><ele>58.0</ele><time>2026-05-01T10:33:32Z</time></trkpt><trkpt lat="42.627270569856464" lon="8.925719334262201"><ele>60.0</ele><time>2026-05-01T10:33:33Z</time></trkpt><trkpt lat="42.627310961031135" lon="8.925566616554354"><ele>62.0</ele><time>2026-05-01T10:33:34Z</time></trkpt><trkpt lat="42.62734884887901" lon="8.925413458910006"><ele>64.0</ele><time>2026-05-01T10:33:35Z</time></trkpt><trkpt lat="42.62738422562523" lon="8.925262095783621"><ele>66.0</ele><time>2026-05-01T10:33:36Z</time></trkpt><trkpt lat="42.627415249658604" lon="8.925110121815509"><ele>67.5</ele><time>2026-05-01T10:33:37Z</time></trkpt><trkpt lat="42.62744175333476" lon="8.92495408494553"><ele>69.0</ele><time>2026-05-01T10:33:38Z</time></trkpt><trkpt lat="42.6274573368044" lon="8.924794813938636"><ele>70.5</ele><time>2026-05-01T10:33:39Z</time></trkpt><trkpt lat="42.627459675832434" lon="8.924619987573935"><ele>72.0</ele><time>2026-05-01T10:33:40Z</time></trkpt><trkpt lat="42.62744969942029" lon="8.924426387348491"><ele>72.33333333333333</ele><time>2026-05-01T10:33:41Z</time></trkpt><trkpt lat="42.62743825536257" lon="8.924210377640978"><ele>72.66666666666666</ele><time>2026-05-01T10:33:42Z</time></trkpt><trkpt lat="42.62744062172107" lon="8.923986297036802"><ele>73.0</ele><time>2026-05-01T10:33:43Z</time></trkpt><trkpt lat="42.62745047791961" lon="8.923774816486848"><ele>73.0</ele><time>2026-05-01T10:33:44Z</time></trkpt><trkpt lat="42.6274656054802" lon="8.923585382863084"><ele>73.0</ele><time>2026-05-01T10:33:45Z</time></trkpt><trkpt lat="42.62749442370196" lon="8.923428735096609"><ele>73.0</ele><time>2026-05-01T10:33:46Z</time></trkpt><trkpt lat="42.627549027487476" lon="8.923319804522482"><ele>73.0</ele><time>2026-05-01T10:33:47Z</time></trkpt><trkpt lat="42.62761442441059" lon="8.923242496039075"><ele>73.0</ele><time>2026-05-01T10:33:48Z</time></trkpt><trkpt lat="42.62762050343473" lon="8.923065445020196"><ele>73.6</ele><time>2026-05-01T10:33:50Z</time></trkpt><trkpt lat="42.62755979747754" lon="8.923001303059987"><ele>74.19999999999999</ele><time>2026-05-01T10:33:51Z</time></trkpt><trkpt lat="42.62749150111976" lon="8.922915584086377"><ele>74.8</ele><time>2026-05-01T10:33:52Z</time></trkpt><trkpt lat="42.6274482023006" lon="8.922787299517369"><ele>75.39999999999999</ele><time>2026-05-01T10:33:53Z</time></trkpt><trkpt lat="42.627417730243735" lon="8.922639313084932"><ele>76.0</ele><time>2026-05-01T10:33:54Z</time></trkpt><trkpt lat="42.627384731255184" lon="8.922485934914217"><ele>76.25</ele><time>2026-05-01T10:33:55Z</time></trkpt><trkpt lat="42.627332322598676" lon="8.922330380360881"><ele>76.5</ele><time>2026-05-01T10:33:56Z</time></trkpt><trkpt lat="42.6272566211671" lon="8.92219263340351"><ele>76.75</ele><time>2026-05-01T10:33:57Z</time></trkpt><trkpt lat="42.62715624731407" lon="8.922073870174138"><ele>77.0</ele><time>2026-05-01T10:33:58Z</time></trkpt><trkpt lat="42.62703461907228" lon="8.921968431506068"><ele>77.5</ele><time>2026-05-01T10:33:59Z</time></trkpt><trkpt lat="42.62690181446215" lon="8.921879034489985"><ele>78.0</ele><time>2026-05-01T10:34:00Z</time></trkpt><trkpt lat="42.62676689795631" lon="8.921781440267985"><ele>78.5</ele><time>2026-05-01T10:34:01Z</time></trkpt><trkpt lat="42.626645941810445" lon="8.92168780797996"><ele>79.0</ele><time>2026-05-01T10:34:02Z</time></trkpt><trkpt lat="42.62653577622217" lon="8.921596718868265"><ele>77.60000000000001</ele><time>2026-05-01T10:34:03Z</time></trkpt><trkpt lat="42.62643835988328" lon="8.921503765991345"><ele>76.2</ele><time>2026-05-01T10:34:04Z</time></trkpt><trkpt lat="42.62634976999152" lon="8.921411881241772"><ele>74.80000000000001</ele><time>2026-05-01T10:34:05Z</time></trkpt><trkpt lat="42.62627937639797" lon="8.921343121420707"><ele>73.4</ele><time>2026-05-01T10:34:06Z</time></trkpt><trkpt lat="42.62620420150238" lon="8.921279942004789"><ele>72.0</ele><time>2026-05-01T10:34:08Z</time></trkpt><trkpt lat="42.62618762968596" lon="8.921390840194785"><ele>72.0</ele><time>2026-05-01T10:34:11Z</time></trkpt><trkpt lat="42.62638854685924" lon="8.921561096083527"><ele>72.0</ele><time>2026-05-01T10:34:14Z</time></trkpt><trkpt lat="42.626489167584126" lon="8.921637095766073"><ele>72.0</ele><time>2026-05-01T10:34:15Z</time></trkpt><trkpt lat="42.62659696488248" lon="8.921723956864986"><ele>73.4</ele><time>2026-05-01T10:34:16Z</time></trkpt><trkpt lat="42.626701549411685" lon="8.921804346129456"><ele>74.80000000000001</ele><time>2026-05-01T10:34:17Z</time></trkpt><trkpt lat="42.62679003924745" lon="8.921871703716063"><ele>76.2</ele><time>2026-05-01T10:34:18Z</time></trkpt><trkpt lat="42.62686069768718" lon="8.921927979017495"><ele>77.60000000000001</ele><time>2026-05-01T10:34:19Z</time></trkpt><trkpt lat="42.62692546326063" lon="8.921986597756868"><ele>79.0</ele><time>2026-05-01T10:34:21Z</time></trkpt><trkpt lat="42.626874793427845" lon="8.922161908867087"><ele>79.0</ele><time>2026-05-01T10:34:24Z</time></trkpt><trkpt lat="42.626802876342076" lon="8.922165768001763"><ele>79.0</ele><time>2026-05-01T10:34:25Z</time></trkpt><trkpt lat="42.626704386506525" lon="8.922128848438726"><ele>79.0</ele><time>2026-05-01T10:34:26Z</time></trkpt><trkpt lat="42.62659761597134" lon="8.92209563697177"><ele>79.0</ele><time>2026-05-01T10:34:27Z</time></trkpt><trkpt lat="42.62647917902803" lon="8.922074756664811"><ele>79.0</ele><time>2026-05-01T10:34:28Z</time></trkpt><trkpt lat="42.626355292379195" lon="8.922062053448732"><ele>79.0</ele><time>2026-05-01T10:34:29Z</time></trkpt><trkpt lat="42.62622626663178" lon="8.922047727997954"><ele>79.0</ele><time>2026-05-01T10:34:30Z</time></trkpt><trkpt lat="42.62609327761503" lon="8.922028718270091"><ele>79.0</ele><time>2026-05-01T10:34:31Z</time></trkpt><trkpt lat="42.62596316122307" lon="8.922004439318734"><ele>79.0</ele><time>2026-05-01T10:34:32Z</time></trkpt><trkpt lat="42.62573199910759" lon="8.921880273648137"><ele>79.0</ele><time>2026-05-01T10:34:34Z</time></trkpt><trkpt lat="42.6256316303384" lon="8.921776640338345"><ele>79.0</ele><time>2026-05-01T10:34:35Z</time></trkpt><trkpt lat="42.62555286950661" lon="8.921651832724171"><ele>79.0</ele><time>2026-05-01T10:34:36Z</time></trkpt><trkpt lat="42.6254930082318" lon="8.921506522262213"><ele>79.0</ele><time>2026-05-01T10:34:37Z</time></trkpt><trkpt lat="42.625449849852465" lon="8.92135207986174"><ele>79.0</ele><time>2026-05-01T10:34:38Z</time></trkpt><trkpt lat="42.62539084420198" lon="8.92122346570721"><ele>79.0</ele><time>2026-05-01T10:34:39Z</time></trkpt><trkpt lat="42.62529663323387" lon="8.92113519163321"><ele>79.0</ele><time>2026-05-01T10:34:40Z</time></trkpt><trkpt lat="42.62517951561398" lon="8.921085788927298"><ele>79.0</ele><time>2026-05-01T10:34:41Z</time></trkpt><trkpt lat="42.62506178581796" lon="8.921083199260387"><ele>81.5</ele><time>2026-05-01T10:34:42Z</time></trkpt><trkpt lat="42.6249515527211" lon="8.921132297336788"><ele>84.0</ele><time>2026-05-01T10:34:43Z</time></trkpt><trkpt lat="42.62485823548027" lon="8.921246849783868"><ele>86.5</ele><time>2026-05-01T10:34:44Z</time></trkpt><trkpt lat="42.624763723498404" lon="8.921366272757767"><ele>89.0</ele><time>2026-05-01T10:34:45Z</time></trkpt><trkpt lat="42.62464587467371" lon="8.921425051047693"><ele>89.0</ele><time>2026-05-01T10:34:46Z</time></trkpt><trkpt lat="42.624505491362676" lon="8.92140844157572"><ele>89.0</ele><time>2026-05-01T10:34:47Z</time></trkpt><trkpt lat="42.62436149112121" lon="8.921350464537147"><ele>89.0</ele><time>2026-05-01T10:34:48Z</time></trkpt><trkpt lat="42.624221969952785" lon="8.921298264351469"><ele>89.0</ele><time>2026-05-01T10:34:49Z</time></trkpt><trkpt lat="42.62409076115771" lon="8.92128318169647"><ele>90.0</ele><time>2026-05-01T10:34:49.999Z</time></trkpt><trkpt lat="42.623971630517396" lon="8.921326091134446"><ele>91.0</ele><time>2026-05-01T10:34:50.999Z</time></trkpt><trkpt lat="42.623861125871" lon="8.9214296663299"><ele>92.0</ele><time>2026-05-01T10:34:51.999Z</time></trkpt><trkpt lat="42.62374848866861" lon="8.921550377342873"><ele>93.0</ele><time>2026-05-01T10:34:52.999Z</time></trkpt><trkpt lat="42.62348820820297" lon="8.921720180177578"><ele>98.25</ele><time>2026-05-01T10:34:54.999Z</time></trkpt><trkpt lat="42.62334297568668" lon="8.921766812808203"><ele>103.5</ele><time>2026-05-01T10:34:55.999Z</time></trkpt><trkpt lat="42.623203613036466" lon="8.921800429477367"><ele>108.75</ele><time>2026-05-01T10:34:56.999Z</time></trkpt><trkpt lat="42.623069643925625" lon="8.921834336782846"><ele>114.0</ele><time>2026-05-01T10:34:57.999Z</time></trkpt><trkpt lat="42.62293417908185" lon="8.921853250804714"><ele>114.2</ele><time>2026-05-01T10:34:58.999Z</time></trkpt><trkpt lat="42.622806792186346" lon="8.921834781571599"><ele>114.4</ele><time>2026-05-01T10:34:59.999Z</time></trkpt><trkpt lat="42.622690342307024" lon="8.921818872693308"><ele>114.6</ele><time>2026-05-01T10:35:01Z</time></trkpt><trkpt lat="42.62259278273866" lon="8.92179954964048"><ele>114.8</ele><time>2026-05-01T10:35:02Z</time></trkpt><trkpt lat="42.622516838408856" lon="8.921728724754342"><ele>115.0</ele><time>2026-05-01T10:35:03Z</time></trkpt><trkpt lat="42.62247237299005" lon="8.921600027823635"><ele>112.0</ele><time>2026-05-01T10:35:04Z</time></trkpt><trkpt lat="42.622466954752255" lon="8.921433409775208"><ele>109.0</ele><time>2026-05-01T10:35:05Z</time></trkpt><trkpt lat="42.62247576685858" lon="8.921251890127433"><ele>106.0</ele><time>2026-05-01T10:35:06Z</time></trkpt><trkpt lat="42.622480350650285" lon="8.92106638398995"><ele>103.0</ele><time>2026-05-01T10:35:07Z</time></trkpt><trkpt lat="42.62249204656734" lon="8.9208859942003"><ele>102.0</ele><time>2026-05-01T10:35:08Z</time></trkpt><trkpt lat="42.62253197445195" lon="8.920709468329122"><ele>101.0</ele><time>2026-05-01T10:35:09Z</time></trkpt><trkpt lat="42.62257749384666" lon="8.92052784389993"><ele>100.0</ele><time>2026-05-01T10:35:10Z</time></trkpt><trkpt lat="42.622614920259615" lon="8.920352881474297"><ele>99.0</ele><time>2026-05-01T10:35:11Z</time></trkpt><trkpt lat="42.62265289250515" lon="8.920171685229262"><ele>100.33333333333334</ele><time>2026-05-01T10:35:12Z</time></trkpt><trkpt lat="42.622707602806436" lon="8.919978511978632"><ele>101.66666666666667</ele><time>2026-05-01T10:35:13Z</time></trkpt><trkpt lat="42.62277670707323" lon="8.919740334437149"><ele>103.0</ele><time>2026-05-01T10:35:14Z</time></trkpt><trkpt lat="42.622928269900406" lon="8.91922921475267"><ele>99.66666666666667</ele><time>2026-05-01T10:35:16Z</time></trkpt><trkpt lat="42.62299146703806" lon="8.91902049933655"><ele>96.33333333333334</ele><time>2026-05-01T10:35:17Z</time></trkpt><trkpt lat="42.62305555301015" lon="8.918833486939954"><ele>93.0</ele><time>2026-05-01T10:35:18Z</time></trkpt><trkpt lat="42.62310711079805" lon="8.918667836746414"><ele>93.0</ele><time>2026-05-01T10:35:19Z</time></trkpt><trkpt lat="42.623135402378615" lon="8.918517329094676"><ele>93.0</ele><time>2026-05-01T10:35:20Z</time></trkpt><trkpt lat="42.62312333159219" lon="8.918363382535919"><ele>93.0</ele><time>2026-05-01T10:35:21Z</time></trkpt><trkpt lat="42.62307617913542" lon="8.918206283770433"><ele>93.0</ele><time>2026-05-01T10:35:22Z</time></trkpt><trkpt lat="42.623024443197565" lon="8.918054647259709"><ele>93.5</ele><time>2026-05-01T10:35:23Z</time></trkpt><trkpt lat="42.6229830868651" lon="8.917907321769167"><ele>94.0</ele><time>2026-05-01T10:35:24Z</time></trkpt><trkpt lat="42.62293556440951" lon="8.917764550485705"><ele>94.5</ele><time>2026-05-01T10:35:25Z</time></trkpt><trkpt lat="42.622855473414376" lon="8.917645668002148"><ele>95.0</ele><time>2026-05-01T10:35:26Z</time></trkpt><trkpt lat="42.62273089966667" lon="8.917551610620842"><ele>99.33333333333334</ele><time>2026-05-01T10:35:27Z</time></trkpt><trkpt lat="42.62256759425975" lon="8.917444747840396"><ele>103.66666666666667</ele><time>2026-05-01T10:35:28Z</time></trkpt><trkpt lat="42.6224232570009" lon="8.91731107248606"><ele>108.0</ele><time>2026-05-01T10:35:29Z</time></trkpt><trkpt lat="42.622328540599774" lon="8.917166402629885"><ele>108.0</ele><time>2026-05-01T10:35:30Z</time></trkpt><trkpt lat="42.622300080062935" lon="8.917016767817193"><ele>108.0</ele><time>2026-05-01T10:35:31Z</time></trkpt><trkpt lat="42.62233439128103" lon="8.916854894069404"><ele>108.0</ele><time>2026-05-01T10:35:32Z</time></trkpt><trkpt lat="42.62239906969402" lon="8.916683530157238"><ele>108.0</ele><time>2026-05-01T10:35:33Z</time></trkpt><trkpt lat="42.62243790583585" lon="8.916501038859309"><ele>106.0</ele><time>2026-05-01T10:35:34Z</time></trkpt><trkpt lat="42.6224210699866" lon="8.91630030036142"><ele>104.0</ele><time>2026-05-01T10:35:35Z</time></trkpt><trkpt lat="42.62230043485654" lon="8.91585643000732"><ele>103.33333333333333</ele><time>2026-05-01T10:35:37Z</time></trkpt><trkpt lat="42.62220597141725" lon="8.915588197276943"><ele>102.66666666666666</ele><time>2026-05-01T10:35:38Z</time></trkpt><trkpt lat="42.62211333534279" lon="8.915317161719628"><ele>102.0</ele><time>2026-05-01T10:35:39Z</time></trkpt><trkpt lat="42.62205445359611" lon="8.915127558823865"><ele>101.0</ele><time>2026-05-01T10:35:40Z</time></trkpt><trkpt lat="42.622018741502536" lon="8.914959659381307"><ele>100.0</ele><time>2026-05-01T10:35:41Z</time></trkpt><trkpt lat="42.62201836653545" lon="8.914788828539772"><ele>99.0</ele><time>2026-05-01T10:35:42Z</time></trkpt><trkpt lat="42.62204141798468" lon="8.914619859087315"><ele>98.0</ele><time>2026-05-01T10:35:43Z</time></trkpt><trkpt lat="42.622049483915404" lon="8.914435572357744"><ele>98.33333333333333</ele><time>2026-05-01T10:35:44Z</time></trkpt><trkpt lat="42.62201198807596" lon="8.914236535765031"><ele>98.66666666666666</ele><time>2026-05-01T10:35:45Z</time></trkpt><trkpt lat="42.62195287296281" lon="8.914035461613237"><ele>99.0</ele><time>2026-05-01T10:35:46Z</time></trkpt><trkpt lat="42.6219058123557" lon="8.913825617862532"><ele>107.0</ele><time>2026-05-01T10:35:47Z</time></trkpt><trkpt lat="42.621881670315155" lon="8.913612090931448"><ele>115.0</ele><time>2026-05-01T10:35:48Z</time></trkpt><trkpt lat="42.62188423345796" lon="8.913402043360126"><ele>123.0</ele><time>2026-05-01T10:35:49Z</time></trkpt><trkpt lat="42.6218918271583" lon="8.913208441009298"><ele>123.25</ele><time>2026-05-01T10:35:50Z</time></trkpt><trkpt lat="42.62187078321125" lon="8.913042088911434"><ele>123.5</ele><time>2026-05-01T10:35:51Z</time></trkpt><trkpt lat="42.62181044864365" lon="8.912871150116386"><ele>123.75</ele><time>2026-05-01T10:35:52Z</time></trkpt><trkpt lat="42.62171404089586" lon="8.912701620900787"><ele>124.0</ele><time>2026-05-01T10:35:53Z</time></trkpt><trkpt lat="42.6216098242242" lon="8.91254923388334"><ele>120.66666666666667</ele><time>2026-05-01T10:35:54Z</time></trkpt><trkpt lat="42.621506518429705" lon="8.912400650284583"><ele>117.33333333333334</ele><time>2026-05-01T10:35:55Z</time></trkpt><trkpt lat="42.62141124330719" lon="8.912252022572744"><ele>114.0</ele><time>2026-05-01T10:35:56Z</time></trkpt><trkpt lat="42.621291280450095" lon="8.911874349008771"><ele>113.0</ele><time>2026-05-01T10:35:58Z</time></trkpt><trkpt lat="42.621269485103085" lon="8.911653958058967"><ele>112.0</ele><time>2026-05-01T10:35:59Z</time></trkpt><trkpt lat="42.621233039157985" lon="8.911447914083437"><ele>111.0</ele><time>2026-05-01T10:36:00Z</time></trkpt><trkpt lat="42.62117646578154" lon="8.91126770932538"><ele>111.0</ele><time>2026-05-01T10:36:01Z</time></trkpt><trkpt lat="42.621148184196265" lon="8.91111544054951"><ele>111.0</ele><time>2026-05-01T10:36:02Z</time></trkpt><trkpt lat="42.621177326046336" lon="8.910989676237607"><ele>111.0</ele><time>2026-05-01T10:36:03Z</time></trkpt><trkpt lat="42.62125837972086" lon="8.910859826684584"><ele>111.0</ele><time>2026-05-01T10:36:04Z</time></trkpt><trkpt lat="42.62135872466779" lon="8.910706080730435"><ele>112.25</ele><time>2026-05-01T10:36:05Z</time></trkpt><trkpt lat="42.621456199306415" lon="8.910537363794072"><ele>113.5</ele><time>2026-05-01T10:36:06Z</time></trkpt><trkpt lat="42.6215344076743" lon="8.910380033655926"><ele>114.75</ele><time>2026-05-01T10:36:07Z</time></trkpt><trkpt lat="42.621583854111165" lon="8.910205716385914"><ele>116.0</ele><time>2026-05-01T10:36:08Z</time></trkpt><trkpt lat="42.62159517783849" lon="8.909966782126325"><ele>121.0</ele><time>2026-05-01T10:36:09Z</time></trkpt><trkpt lat="42.62162030672602" lon="8.909667814254997"><ele>126.0</ele><time>2026-05-01T10:36:10Z</time></trkpt><trkpt lat="42.621686150230204" lon="8.909350173378288"><ele>132.5</ele><time>2026-05-01T10:36:11Z</time></trkpt><trkpt lat="42.6217823268259" lon="8.909012663372641"><ele>139.0</ele><time>2026-05-01T10:36:12Z</time></trkpt><trkpt lat="42.62185227952257" lon="8.90872185447736"><ele>139.0</ele><time>2026-05-01T10:36:13Z</time></trkpt><trkpt lat="42.621885743085855" lon="8.908480062938002"><ele>139.0</ele><time>2026-05-01T10:36:14Z</time></trkpt><trkpt lat="42.62190363902427" lon="8.908248960852996"><ele>139.0</ele><time>2026-05-01T10:36:15Z</time></trkpt><trkpt lat="42.62190702563495" lon="8.908002731467846"><ele>144.0</ele><time>2026-05-01T10:36:16Z</time></trkpt><trkpt lat="42.62189191582004" lon="8.907745515330275"><ele>149.0</ele><time>2026-05-01T10:36:17Z</time></trkpt><trkpt lat="42.62184833236008" lon="8.907222995763675"><ele>151.0</ele><time>2026-05-01T10:36:19Z</time></trkpt><trkpt lat="42.62182423582112" lon="8.906968486817894"><ele>153.0</ele><time>2026-05-01T10:36:20Z</time></trkpt><trkpt lat="42.62179653457763" lon="8.906734672220555"><ele>155.0</ele><time>2026-05-01T10:36:21Z</time></trkpt><trkpt lat="42.62176454402095" lon="8.906503059712053"><ele>155.0</ele><time>2026-05-01T10:36:22Z</time></trkpt><trkpt lat="42.621709093185004" lon="8.906270972342254"><ele>155.0</ele><time>2026-05-01T10:36:23Z</time></trkpt><trkpt lat="42.62165635530292" lon="8.906066487305187"><ele>155.0</ele><time>2026-05-01T10:36:24Z</time></trkpt><trkpt lat="42.621591567340566" lon="8.905892625307256"><ele>150.66666666666666</ele><time>2026-05-01T10:36:25Z</time></trkpt><trkpt lat="42.62149706184742" lon="8.905725418084936"><ele>146.33333333333334</ele><time>2026-05-01T10:36:26Z</time></trkpt><trkpt lat="42.62137377558495" lon="8.905576353967094"><ele>142.0</ele><time>2026-05-01T10:36:27Z</time></trkpt><trkpt lat="42.62123766698256" lon="8.905438173139954"><ele>147.0</ele><time>2026-05-01T10:36:28Z</time></trkpt><trkpt lat="42.62109260968708" lon="8.905289136903647"><ele>152.0</ele><time>2026-05-01T10:36:29Z</time></trkpt><trkpt lat="42.6209373737932" lon="8.905153337370995"><ele>157.0</ele><time>2026-05-01T10:36:30Z</time></trkpt><trkpt lat="42.62077441229029" lon="8.905029515619695"><ele>157.0</ele><time>2026-05-01T10:36:31Z</time></trkpt><trkpt lat="42.62060978013225" lon="8.904904489715193"><ele>157.0</ele><time>2026-05-01T10:36:32Z</time></trkpt><trkpt lat="42.6204466389743" lon="8.904771099582893"><ele>157.0</ele><time>2026-05-01T10:36:33Z</time></trkpt><trkpt lat="42.62028233307162" lon="8.904657121114715"><ele>164.0</ele><time>2026-05-01T10:36:34Z</time></trkpt><trkpt lat="42.6201136921946" lon="8.904557028010313"><ele>171.0</ele><time>2026-05-01T10:36:35Z</time></trkpt><trkpt lat="42.619952257419826" lon="8.904458464877806"><ele>178.0</ele><time>2026-05-01T10:36:36Z</time></trkpt><trkpt lat="42.61982287552234" lon="8.904328782275552"><ele>169.0</ele><time>2026-05-01T10:36:37Z</time></trkpt><trkpt lat="42.61973928561232" lon="8.904171736843397"><ele>160.0</ele><time>2026-05-01T10:36:38Z</time></trkpt><trkpt lat="42.619653125624446" lon="8.903754583992939"><ele>160.0</ele><time>2026-05-01T10:36:40Z</time></trkpt><trkpt lat="42.61961587482335" lon="8.903509683025522"><ele>160.0</ele><time>2026-05-01T10:36:41Z</time></trkpt><trkpt lat="42.61954952265004" lon="8.90327098112119"><ele>160.0</ele><time>2026-05-01T10:36:42Z</time></trkpt><trkpt lat="42.6194727917725" lon="8.903038554252248"><ele>165.33333333333334</ele><time>2026-05-01T10:36:43Z</time></trkpt><trkpt lat="42.61942146501904" lon="8.9027882979026"><ele>170.66666666666666</ele><time>2026-05-01T10:36:44Z</time></trkpt><trkpt lat="42.61940688988229" lon="8.902552495723405"><ele>176.0</ele><time>2026-05-01T10:36:45Z</time></trkpt><trkpt lat="42.61939775800927" lon="8.902365572005214"><ele>176.0</ele><time>2026-05-01T10:36:46Z</time></trkpt><trkpt lat="42.619359290246216" lon="8.902254358653394"><ele>176.0</ele><time>2026-05-01T10:36:47Z</time></trkpt><trkpt lat="42.61927305923002" lon="8.902184765183907"><ele>176.0</ele><time>2026-05-01T10:36:48Z</time></trkpt><trkpt lat="42.619128999056514" lon="8.902138839044493"><ele>176.0</ele><time>2026-05-01T10:36:49Z</time></trkpt><trkpt lat="42.61896486751451" lon="8.902108885277215"><ele>176.0</ele><time>2026-05-01T10:36:50Z</time></trkpt><trkpt lat="42.61881174009692" lon="8.902019185513538"><ele>176.0</ele><time>2026-05-01T10:36:51Z</time></trkpt><trkpt lat="42.61868195137683" lon="8.901864650842777"><ele>176.0</ele><time>2026-05-01T10:36:52Z</time></trkpt><trkpt lat="42.61855899591797" lon="8.901686214201238"><ele>180.0</ele><time>2026-05-01T10:36:53Z</time></trkpt><trkpt lat="42.6184229930903" lon="8.901509632084592"><ele>184.0</ele><time>2026-05-01T10:36:54Z</time></trkpt><trkpt lat="42.6182769864742" lon="8.901349604328255"><ele>188.0</ele><time>2026-05-01T10:36:55Z</time></trkpt><trkpt lat="42.618115090740375" lon="8.901216134880436"><ele>188.0</ele><time>2026-05-01T10:36:55.999Z</time></trkpt><trkpt lat="42.61794597432942" lon="8.901102532263677"><ele>188.0</ele><time>2026-05-01T10:36:56.999Z</time></trkpt><trkpt lat="42.617777727349896" lon="8.901008451783648"><ele>188.0</ele><time>2026-05-01T10:36:57.999Z</time></trkpt><trkpt lat="42.61761549724031" lon="8.900970419183647"><ele>196.0</ele><time>2026-05-01T10:36:59Z</time></trkpt><trkpt lat="42.61726530207049" lon="8.901049021257734"><ele>204.0</ele><time>2026-05-01T10:37:01Z</time></trkpt><trkpt lat="42.617085531575455" lon="8.90108293207097"><ele>206.33333333333331</ele><time>2026-05-01T10:37:02Z</time></trkpt><trkpt lat="42.616895177037634" lon="8.901092465569583"><ele>208.66666666666666</ele><time>2026-05-01T10:37:03Z</time></trkpt><trkpt lat="42.61670487536051" lon="8.901096944689519"><ele>211.0</ele><time>2026-05-01T10:37:04Z</time></trkpt><trkpt lat="42.61651225333048" lon="8.901102669938771"><ele>211.0</ele><time>2026-05-01T10:37:05Z</time></trkpt><trkpt lat="42.61631704165633" lon="8.901090758824154"><ele>211.0</ele><time>2026-05-01T10:37:06Z</time></trkpt><trkpt lat="42.616113687515806" lon="8.901061943246697"><ele>211.0</ele><time>2026-05-01T10:37:07Z</time></trkpt><trkpt lat="42.61591488203292" lon="8.901016596883196"><ele>213.66666666666666</ele><time>2026-05-01T10:37:08Z</time></trkpt><trkpt lat="42.61571967173759" lon="8.900970696877557"><ele>216.33333333333331</ele><time>2026-05-01T10:37:09Z</time></trkpt><trkpt lat="42.615526409047035" lon="8.900927880849734"><ele>219.0</ele><time>2026-05-01T10:37:10Z</time></trkpt><trkpt lat="42.615331090309" lon="8.900893250123755"><ele>211.66666666666669</ele><time>2026-05-01T10:37:11Z</time></trkpt><trkpt lat="42.61513115685873" lon="8.900850729894156"><ele>204.33333333333334</ele><time>2026-05-01T10:37:12Z</time></trkpt><trkpt lat="42.61493904350448" lon="8.900793718678317"><ele>197.0</ele><time>2026-05-01T10:37:13Z</time></trkpt><trkpt lat="42.61475233832753" lon="8.900718711474381"><ele>197.0</ele><time>2026-05-01T10:37:14Z</time></trkpt><trkpt lat="42.614573834380714" lon="8.900631979928088"><ele>197.0</ele><time>2026-05-01T10:37:15Z</time></trkpt><trkpt lat="42.614393203420356" lon="8.900571696605395"><ele>197.0</ele><time>2026-05-01T10:37:16Z</time></trkpt><trkpt lat="42.61420220696989" lon="8.900570193155103"><ele>202.0</ele><time>2026-05-01T10:37:17Z</time></trkpt><trkpt lat="42.61401530880977" lon="8.900602687256963"><ele>207.0</ele><time>2026-05-01T10:37:18Z</time></trkpt><trkpt lat="42.61383891149975" lon="8.90063222784816"><ele>212.0</ele><time>2026-05-01T10:37:19Z</time></trkpt><trkpt lat="42.61368341973602" lon="8.900652232719708"><ele>212.66666666666669</ele><time>2026-05-01T10:37:20Z</time></trkpt><trkpt lat="42.613411697502926" lon="8.90064161600038"><ele>213.33333333333331</ele><time>2026-05-01T10:37:22Z</time></trkpt><trkpt lat="42.61329712391899" lon="8.900599213739152"><ele>214.0</ele><time>2026-05-01T10:37:23Z</time></trkpt><trkpt lat="42.61318434729988" lon="8.900547600713066"><ele>214.0</ele><time>2026-05-01T10:37:24Z</time></trkpt><trkpt lat="42.613071306430164" lon="8.900508577045189"><ele>214.0</ele><time>2026-05-01T10:37:25Z</time></trkpt><trkpt lat="42.61295281674773" lon="8.900470772098775"><ele>214.0</ele><time>2026-05-01T10:37:26Z</time></trkpt><trkpt lat="42.61283429673797" lon="8.900442648793772"><ele>214.0</ele><time>2026-05-01T10:37:27Z</time></trkpt><trkpt lat="42.61272624972059" lon="8.900414109120467"><ele>214.39999999999998</ele><time>2026-05-01T10:37:28Z</time></trkpt><trkpt lat="42.612632192963865" lon="8.900383843053172"><ele>214.79999999999998</ele><time>2026-05-01T10:37:29Z</time></trkpt><trkpt lat="42.612548792663844" lon="8.900359738587026"><ele>215.20000000000002</ele><time>2026-05-01T10:37:30Z</time></trkpt><trkpt lat="42.61246973441861" lon="8.900354181103122"><ele>215.60000000000002</ele><time>2026-05-01T10:37:31Z</time></trkpt><trkpt lat="42.61238447221191" lon="8.900408597124642"><ele>216.0</ele><time>2026-05-01T10:37:32Z</time></trkpt><trkpt lat="42.612322851145414" lon="8.900518216088848"><ele>216.0</ele><time>2026-05-01T10:37:33Z</time></trkpt><trkpt lat="42.612303322778" lon="8.900661103653606"><ele>216.0</ele><time>2026-05-01T10:37:34Z</time></trkpt><trkpt lat="42.61231748395723" lon="8.900825711482286"><ele>216.0</ele><time>2026-05-01T10:37:35Z</time></trkpt><trkpt lat="42.61235795955513" lon="8.90099653847477"><ele>216.0</ele><time>2026-05-01T10:37:36Z</time></trkpt><trkpt lat="42.61239736786122" lon="8.90117126331121"><ele>215.25</ele><time>2026-05-01T10:37:37Z</time></trkpt><trkpt lat="42.61244762393806" lon="8.901348672433919"><ele>214.5</ele><time>2026-05-01T10:37:38Z</time></trkpt><trkpt lat="42.61249767014274" lon="8.901519127042056"><ele>213.75</ele><time>2026-05-01T10:37:39Z</time></trkpt><trkpt lat="42.61256691067177" lon="8.901673902087781"><ele>213.0</ele><time>2026-05-01T10:37:40Z</time></trkpt><trkpt lat="42.61264082405695" lon="8.90183018045056"><ele>212.0</ele><time>2026-05-01T10:37:41Z</time></trkpt><trkpt lat="42.61275718380928" lon="8.902182940335013"><ele>211.0</ele><time>2026-05-01T10:37:43Z</time></trkpt><trkpt lat="42.6127800817482" lon="8.902365149800897"><ele>210.0</ele><time>2026-05-01T10:37:44Z</time></trkpt><trkpt lat="42.61278104072988" lon="8.902558232265449"><ele>209.25</ele><time>2026-05-01T10:37:45Z</time></trkpt><trkpt lat="42.61278830832346" lon="8.902753308283906"><ele>208.5</ele><time>2026-05-01T10:37:46Z</time></trkpt><trkpt lat="42.61279422620124" lon="8.902932987862206"><ele>207.75</ele><time>2026-05-01T10:37:47Z</time></trkpt><trkpt lat="42.61280891252849" lon="8.903091464781697"><ele>207.0</ele><time>2026-05-01T10:37:48Z</time></trkpt><trkpt lat="42.61283126684509" lon="8.903233766336875"><ele>213.5</ele><time>2026-05-01T10:37:49Z</time></trkpt><trkpt lat="42.61286151108181" lon="8.90337763114148"><ele>220.0</ele><time>2026-05-01T10:37:50Z</time></trkpt><trkpt lat="42.612897774453764" lon="8.903527819833485"><ele>226.5</ele><time>2026-05-01T10:37:51Z</time></trkpt><trkpt lat="42.61294575709077" lon="8.903671865576747"><ele>233.0</ele><time>2026-05-01T10:37:52Z</time></trkpt><trkpt lat="42.61299760750902" lon="8.903804295229115"><ele>233.0</ele><time>2026-05-01T10:37:53Z</time></trkpt><trkpt lat="42.61305226751788" lon="8.903916699326842"><ele>233.0</ele><time>2026-05-01T10:37:54Z</time></trkpt><trkpt lat="42.61310868290863" lon="8.904019793384467"><ele>233.0</ele><time>2026-05-01T10:37:55Z</time></trkpt><trkpt lat="42.61317391704406" lon="8.904120214723049"><ele>233.0</ele><time>2026-05-01T10:37:56Z</time></trkpt><trkpt lat="42.613229713229146" lon="8.904215329461442"><ele>233.0</ele><time>2026-05-01T10:37:57Z</time></trkpt><trkpt lat="42.61327545431185" lon="8.904301579897574"><ele>231.25</ele><time>2026-05-01T10:37:58Z</time></trkpt><trkpt lat="42.61332932001985" lon="8.904407637051317"><ele>229.5</ele><time>2026-05-01T10:38:00Z</time></trkpt><trkpt lat="42.613367408228015" lon="8.904479767378739"><ele>227.75</ele><time>2026-05-01T10:38:02Z</time></trkpt><trkpt lat="42.6134747617375" lon="8.904721769480787"><ele>226.0</ele><time>2026-05-01T10:38:05Z</time></trkpt><trkpt lat="42.61351307415344" lon="8.904831813220259"><ele>226.0</ele><time>2026-05-01T10:38:06Z</time></trkpt><trkpt lat="42.613523631070706" lon="8.904951024676112"><ele>226.00000000000003</ele><time>2026-05-01T10:38:07Z</time></trkpt><trkpt lat="42.613509660878464" lon="8.905034490691577"><ele>226.00000000000003</ele><time>2026-05-01T10:38:08Z</time></trkpt><trkpt lat="42.61347269383014" lon="8.905110263079354"><ele>226.0</ele><time>2026-05-01T10:38:19Z</time></trkpt><trkpt lat="42.613443058398644" lon="8.905271201826187"><ele>226.0</ele><time>2026-05-01T10:38:21Z</time></trkpt><trkpt lat="42.6134329699429" lon="8.90543443118732"><ele>226.60000000000002</ele><time>2026-05-01T10:38:23Z</time></trkpt><trkpt lat="42.613458035895704" lon="8.90561483404471"><ele>227.20000000000002</ele><time>2026-05-01T10:38:25Z</time></trkpt><trkpt lat="42.61347669031104" lon="8.90570085604648"><ele>227.79999999999998</ele><time>2026-05-01T10:38:26Z</time></trkpt><trkpt lat="42.61350960440342" lon="8.905863787233367"><ele>228.39999999999998</ele><time>2026-05-01T10:38:28Z</time></trkpt><trkpt lat="42.613525559690395" lon="8.905949581960819"><ele>229.0</ele><time>2026-05-01T10:38:29Z</time></trkpt><trkpt lat="42.613545612955555" lon="8.90603682768688"><ele>229.39999999999998</ele><time>2026-05-01T10:38:30Z</time></trkpt><trkpt lat="42.61356632191049" lon="8.906119330453393"><ele>229.79999999999998</ele><time>2026-05-01T10:38:31Z</time></trkpt><trkpt lat="42.61362763643803" lon="8.906232670807151"><ele>230.20000000000002</ele><time>2026-05-01T10:38:33Z</time></trkpt><trkpt lat="42.61373363177374" lon="8.906240977779525"><ele>230.60000000000002</ele><time>2026-05-01T10:38:35Z</time></trkpt><trkpt lat="42.61381665701914" lon="8.90627699052373"><ele>231.0</ele><time>2026-05-01T10:38:37Z</time></trkpt><trkpt lat="42.61384911839478" lon="8.906444595958376"><ele>234.60000000000002</ele><time>2026-05-01T10:38:39Z</time></trkpt><trkpt lat="42.61383731089718" lon="8.906543036194904"><ele>238.20000000000002</ele><time>2026-05-01T10:38:40Z</time></trkpt><trkpt lat="42.61382029820698" lon="8.906625690131227"><ele>241.79999999999998</ele><time>2026-05-01T10:38:41Z</time></trkpt><trkpt lat="42.613774570422926" lon="8.906777483241648"><ele>245.39999999999998</ele><time>2026-05-01T10:38:43Z</time></trkpt><trkpt lat="42.61375181708836" lon="8.906862444258925"><ele>249.0</ele><time>2026-05-01T10:38:44Z</time></trkpt><trkpt lat="42.613712487248215" lon="8.907039814372924"><ele>248.66666666666666</ele><time>2026-05-01T10:38:46Z</time></trkpt><trkpt lat="42.61369426655388" lon="8.907127357568738"><ele>248.33333333333331</ele><time>2026-05-01T10:38:47Z</time></trkpt><trkpt lat="42.61367584170861" lon="8.907225026105102"><ele>248.0</ele><time>2026-05-01T10:38:48Z</time></trkpt><trkpt lat="42.613648304024544" lon="8.90732431257415"><ele>247.66666666666666</ele><time>2026-05-01T10:38:49Z</time></trkpt><trkpt lat="42.61362818354219" lon="8.907425212802123"><ele>247.33333333333331</ele><time>2026-05-01T10:38:50Z</time></trkpt><trkpt lat="42.61361326315097" lon="8.907532927929736"><ele>247.0</ele><time>2026-05-01T10:38:51Z</time></trkpt><trkpt lat="42.61359435011068" lon="8.907651128784286"><ele>246.99999999999997</ele><time>2026-05-01T10:38:52Z</time></trkpt><trkpt lat="42.613578011691445" lon="8.907768935595588"><ele>247.0</ele><time>2026-05-01T10:38:53Z</time></trkpt><trkpt lat="42.6135657712416" lon="8.907870523924133"><ele>247.0</ele><time>2026-05-01T10:38:54Z</time></trkpt><trkpt lat="42.613551465065605" lon="8.907997029988906"><ele>247.0</ele><time>2026-05-01T10:38:56Z</time></trkpt><trkpt lat="42.61350766334417" lon="8.908144673772862"><ele>246.99999999999997</ele><time>2026-05-01T10:38:58Z</time></trkpt><trkpt lat="42.61347086113061" lon="8.90822709354946"><ele>247.0</ele><time>2026-05-01T10:38:59Z</time></trkpt><trkpt lat="42.613417844944784" lon="8.90829525373607"><ele>246.99999999999997</ele><time>2026-05-01T10:39:00Z</time></trkpt><trkpt lat="42.613350411489435" lon="8.908336020649294"><ele>247.0</ele><time>2026-05-01T10:39:01Z</time></trkpt><trkpt lat="42.61327817485252" lon="8.908345784128981"><ele>247.0</ele><time>2026-05-01T10:39:02Z</time></trkpt><trkpt lat="42.61319814359286" lon="8.908329863972162"><ele>247.0</ele><time>2026-05-01T10:39:03Z</time></trkpt><trkpt lat="42.61311105467957" lon="8.90830714231101"><ele>246.99999999999997</ele><time>2026-05-01T10:39:04Z</time></trkpt><trkpt lat="42.613012858324254" lon="8.908288343030817"><ele>247.0</ele><time>2026-05-01T10:39:05Z</time></trkpt><trkpt lat="42.61280902501393" lon="8.90828961882493"><ele>247.75</ele><time>2026-05-01T10:39:07Z</time></trkpt><trkpt lat="42.61270341041889" lon="8.908337424931169"><ele>248.5</ele><time>2026-05-01T10:39:08Z</time></trkpt><trkpt lat="42.6126116181432" lon="8.90841729070914"><ele>249.25</ele><time>2026-05-01T10:39:09Z</time></trkpt><trkpt lat="42.61251755938808" lon="8.908501324221685"><ele>250.0</ele><time>2026-05-01T10:39:10Z</time></trkpt><trkpt lat="42.612398855105404" lon="8.908547298721398"><ele>251.71428571428572</ele><time>2026-05-01T10:39:11Z</time></trkpt><trkpt lat="42.61231722513819" lon="8.90853534215379"><ele>253.42857142857144</ele><time>2026-05-01T10:39:12Z</time></trkpt><trkpt lat="42.61225433297948" lon="8.90850771377165"><ele>255.14285714285717</ele><time>2026-05-01T10:39:13Z</time></trkpt><trkpt lat="42.61218771971525" lon="8.908475754352153"><ele>256.8571428571429</ele><time>2026-05-01T10:39:14Z</time></trkpt><trkpt lat="42.61212398316074" lon="8.908449610238822"><ele>258.5714285714286</ele><time>2026-05-01T10:39:15Z</time></trkpt><trkpt lat="42.61204940771761" lon="8.908415206605614"><ele>260.2857142857143</ele><time>2026-05-01T10:39:16Z</time></trkpt><trkpt lat="42.6119736019912" lon="8.908366374572736"><ele>262.0</ele><time>2026-05-01T10:39:17Z</time></trkpt><trkpt lat="42.611896427212976" lon="8.90830178913451"><ele>262.0</ele><time>2026-05-01T10:39:18Z</time></trkpt><trkpt lat="42.611813437515444" lon="8.908228265550795"><ele>262.0</ele><time>2026-05-01T10:39:19Z</time></trkpt><trkpt lat="42.61170665393916" lon="8.908166513337635"><ele>262.0</ele><time>2026-05-01T10:39:20Z</time></trkpt><trkpt lat="42.61158112428642" lon="8.908119296357308"><ele>262.0</ele><time>2026-05-01T10:39:21Z</time></trkpt><trkpt lat="42.611446114565084" lon="8.908099053621441"><ele>262.0</ele><time>2026-05-01T10:39:22Z</time></trkpt><trkpt lat="42.6112973585813" lon="8.90808323586602"><ele>262.0</ele><time>2026-05-01T10:39:23Z</time></trkpt><trkpt lat="42.611150379103016" lon="8.908056757472142"><ele>262.0</ele><time>2026-05-01T10:39:24Z</time></trkpt><trkpt lat="42.61100508575135" lon="8.908034265844345"><ele>262.0</ele><time>2026-05-01T10:39:25Z</time></trkpt><trkpt lat="42.61086158444104" lon="8.90801190196453"><ele>267.66666666666663</ele><time>2026-05-01T10:39:26Z</time></trkpt><trkpt lat="42.610596514181644" lon="8.90788556005727"><ele>273.3333333333333</ele><time>2026-05-01T10:39:28Z</time></trkpt><trkpt lat="42.610477425744016" lon="8.907782656290905"><ele>279.0</ele><time>2026-05-01T10:39:29Z</time></trkpt><trkpt lat="42.61035261316823" lon="8.907687637840732"><ele>276.0</ele><time>2026-05-01T10:39:30Z</time></trkpt><trkpt lat="42.610218462661955" lon="8.907618330044622"><ele>273.0</ele><time>2026-05-01T10:39:31Z</time></trkpt><trkpt lat="42.61008888192554" lon="8.907559460903341"><ele>270.0</ele><time>2026-05-01T10:39:32Z</time></trkpt><trkpt lat="42.60996357206568" lon="8.907526347904199"><ele>267.0</ele><time>2026-05-01T10:39:33Z</time></trkpt><trkpt lat="42.60984680871545" lon="8.90750685144921"><ele>267.0</ele><time>2026-05-01T10:39:34Z</time></trkpt><trkpt lat="42.60974527238148" lon="8.90747797098257"><ele>267.0</ele><time>2026-05-01T10:39:35Z</time></trkpt><trkpt lat="42.609650880386" lon="8.907423923422149"><ele>267.0</ele><time>2026-05-01T10:39:36Z</time></trkpt><trkpt lat="42.609544931960315" lon="8.907373470412885"><ele>267.0</ele><time>2026-05-01T10:39:37Z</time></trkpt><trkpt lat="42.60943884575425" lon="8.907339719173722"><ele>267.0</ele><time>2026-05-01T10:39:38Z</time></trkpt><trkpt lat="42.60933437407927" lon="8.907302109633601"><ele>270.25</ele><time>2026-05-01T10:39:39Z</time></trkpt><trkpt lat="42.6092255908755" lon="8.907271164017441"><ele>273.5</ele><time>2026-05-01T10:39:40Z</time></trkpt><trkpt lat="42.609107370392074" lon="8.90723949255378"><ele>276.75</ele><time>2026-05-01T10:39:41Z</time></trkpt><trkpt lat="42.60898482493322" lon="8.907203256396794"><ele>280.0</ele><time>2026-05-01T10:39:42Z</time></trkpt><trkpt lat="42.60885084792716" lon="8.907155017835466"><ele>280.0</ele><time>2026-05-01T10:39:43Z</time></trkpt><trkpt lat="42.60871016779516" lon="8.907110098399407"><ele>280.0</ele><time>2026-05-01T10:39:44Z</time></trkpt><trkpt lat="42.60856215313823" lon="8.907086953414893"><ele>280.0</ele><time>2026-05-01T10:39:45Z</time></trkpt><trkpt lat="42.60841163052628" lon="8.907089457199163"><ele>280.0</ele><time>2026-05-01T10:39:46Z</time></trkpt><trkpt lat="42.60826784503836" lon="8.907107107257508"><ele>279.66666666666663</ele><time>2026-05-01T10:39:47Z</time></trkpt><trkpt lat="42.608014726171454" lon="8.90726429485045"><ele>279.3333333333333</ele><time>2026-05-01T10:39:49Z</time></trkpt><trkpt lat="42.60789982958005" lon="8.907377878608806"><ele>279.0</ele><time>2026-05-01T10:39:50Z</time></trkpt><trkpt lat="42.607797379855626" lon="8.907512544477754"><ele>283.25</ele><time>2026-05-01T10:39:51Z</time></trkpt><trkpt lat="42.60771341564713" lon="8.907666697579849"><ele>287.5</ele><time>2026-05-01T10:39:52Z</time></trkpt><trkpt lat="42.60763144142082" lon="8.907822987000262"><ele>291.75</ele><time>2026-05-01T10:39:53Z</time></trkpt><trkpt lat="42.607521218892515" lon="8.907936541031187"><ele>296.0</ele><time>2026-05-01T10:39:54Z</time></trkpt><trkpt lat="42.607398634856004" lon="8.907982165661807"><ele>296.0</ele><time>2026-05-01T10:39:55Z</time></trkpt><trkpt lat="42.607283010453514" lon="8.90795086563832"><ele>296.0</ele><time>2026-05-01T10:39:56Z</time></trkpt><trkpt lat="42.60717510727414" lon="8.907864584529094"><ele>296.0</ele><time>2026-05-01T10:39:57Z</time></trkpt><trkpt lat="42.60707739535694" lon="8.907750136107381"><ele>296.0</ele><time>2026-05-01T10:39:58Z</time></trkpt><trkpt lat="42.60697056372646" lon="8.907658906100158"><ele>295.0</ele><time>2026-05-01T10:39:59Z</time></trkpt><trkpt lat="42.60684842091133" lon="8.907620659497445"><ele>294.0</ele><time>2026-05-01T10:40:00Z</time></trkpt><trkpt lat="42.60672052192917" lon="8.907632384867714"><ele>293.0</ele><time>2026-05-01T10:40:01Z</time></trkpt><trkpt lat="42.60658988846088" lon="8.907686910881427"><ele>292.0</ele><time>2026-05-01T10:40:02Z</time></trkpt><trkpt lat="42.60647618950033" lon="8.907770596586042"><ele>292.0</ele><time>2026-05-01T10:40:03Z</time></trkpt><trkpt lat="42.60637536348339" lon="8.907905158761011"><ele>292.0</ele><time>2026-05-01T10:40:04Z</time></trkpt><trkpt lat="42.606293916603256" lon="8.908063232091672"><ele>292.0</ele><time>2026-05-01T10:40:05Z</time></trkpt><trkpt lat="42.606201586170215" lon="8.908236669799487"><ele>292.0</ele><time>2026-05-01T10:40:06Z</time></trkpt><trkpt lat="42.60610971395321" lon="8.90841493199405"><ele>288.5</ele><time>2026-05-01T10:40:07Z</time></trkpt><trkpt lat="42.606012091578634" lon="8.908587911152622"><ele>285.0</ele><time>2026-05-01T10:40:08Z</time></trkpt><trkpt lat="42.60580809515885" lon="8.908894771362998"><ele>285.0</ele><time>2026-05-01T10:40:10Z</time></trkpt><trkpt lat="42.60569848432674" lon="8.909041574482133"><ele>285.0</ele><time>2026-05-01T10:40:11Z</time></trkpt><trkpt lat="42.605582210440616" lon="8.909188848634397"><ele>285.0</ele><time>2026-05-01T10:40:12Z</time></trkpt><trkpt lat="42.605465256487776" lon="8.909343914055315"><ele>281.6666666666667</ele><time>2026-05-01T10:40:13Z</time></trkpt><trkpt lat="42.60535318853847" lon="8.909506476928946"><ele>278.33333333333337</ele><time>2026-05-01T10:40:14Z</time></trkpt><trkpt lat="42.60523745232557" lon="8.909671021355352"><ele>275.0</ele><time>2026-05-01T10:40:15Z</time></trkpt><trkpt lat="42.60510588652481" lon="8.909813181932742"><ele>275.0</ele><time>2026-05-01T10:40:16Z</time></trkpt><trkpt lat="42.60495782938513" lon="8.909937499343046"><ele>275.0</ele><time>2026-05-01T10:40:17Z</time></trkpt><trkpt lat="42.60480962398998" lon="8.910054094423062"><ele>275.0</ele><time>2026-05-01T10:40:18Z</time></trkpt><trkpt lat="42.604674540840485" lon="8.910179559159715"><ele>275.6666666666667</ele><time>2026-05-01T10:40:19Z</time></trkpt><trkpt lat="42.60455044121421" lon="8.910311847441692"><ele>276.3333333333333</ele><time>2026-05-01T10:40:20Z</time></trkpt><trkpt lat="42.604430773595915" lon="8.910450373675975"><ele>277.0</ele><time>2026-05-01T10:40:21Z</time></trkpt><trkpt lat="42.604308055637276" lon="8.91058703347187"><ele>277.0</ele><time>2026-05-01T10:40:22Z</time></trkpt><trkpt lat="42.60418118552673" lon="8.910719647797952"><ele>277.0</ele><time>2026-05-01T10:40:23Z</time></trkpt><trkpt lat="42.604050812276085" lon="8.910846107358848"><ele>277.0</ele><time>2026-05-01T10:40:24Z</time></trkpt><trkpt lat="42.60393037600633" lon="8.910936066417674"><ele>275.0</ele><time>2026-05-01T10:40:25Z</time></trkpt><trkpt lat="42.603825805858975" lon="8.910981176091678"><ele>273.0</ele><time>2026-05-01T10:40:26Z</time></trkpt><trkpt lat="42.60371664073934" lon="8.910992320684649"><ele>271.0</ele><time>2026-05-01T10:40:27Z</time></trkpt><trkpt lat="42.60360548177661" lon="8.910945224536544"><ele>269.0</ele><time>2026-05-01T10:40:28Z</time></trkpt><trkpt lat="42.603489156713394" lon="8.910870178512484"><ele>269.0</ele><time>2026-05-01T10:40:29Z</time></trkpt><trkpt lat="42.603243028805664" lon="8.910732308264665"><ele>269.0</ele><time>2026-05-01T10:40:31Z</time></trkpt><trkpt lat="42.6031256372953" lon="8.910670968605887"><ele>269.0</ele><time>2026-05-01T10:40:32Z</time></trkpt><trkpt lat="42.60301130595582" lon="8.910609817091094"><ele>269.0</ele><time>2026-05-01T10:40:33Z</time></trkpt><trkpt lat="42.602891728766906" lon="8.910570533916564"><ele>269.0</ele><time>2026-05-01T10:40:34Z</time></trkpt><trkpt lat="42.602762791619476" lon="8.910562094930862"><ele>269.0</ele><time>2026-05-01T10:40:35Z</time></trkpt><trkpt lat="42.60262539994357" lon="8.91058795899998"><ele>269.0</ele><time>2026-05-01T10:40:36Z</time></trkpt><trkpt lat="42.602490334369726" lon="8.91061941623175"><ele>269.0</ele><time>2026-05-01T10:40:37Z</time></trkpt><trkpt lat="42.602358905169595" lon="8.910644474152807"><ele>269.0</ele><time>2026-05-01T10:40:38Z</time></trkpt><trkpt lat="42.60223360141327" lon="8.910666596483166"><ele>269.0</ele><time>2026-05-01T10:40:39Z</time></trkpt><trkpt lat="42.60211851932373" lon="8.91066488014373"><ele>269.0</ele><time>2026-05-01T10:40:40Z</time></trkpt><trkpt lat="42.60202138823478" lon="8.910632418357087"><ele>269.2</ele><time>2026-05-01T10:40:41Z</time></trkpt><trkpt lat="42.601949830729794" lon="8.910592046799028"><ele>269.4</ele><time>2026-05-01T10:40:42Z</time></trkpt><trkpt lat="42.601872188194065" lon="8.910541584361432"><ele>269.6</ele><time>2026-05-01T10:40:44Z</time></trkpt><trkpt lat="42.60175918647223" lon="8.910503607832817"><ele>269.8</ele><time>2026-05-01T10:40:46Z</time></trkpt><trkpt lat="42.60167276502976" lon="8.910491523203138"><ele>270.0</ele><time>2026-05-01T10:40:47Z</time></trkpt><trkpt lat="42.60157061209612" lon="8.910488275636595"><ele>270.0</ele><time>2026-05-01T10:40:48Z</time></trkpt><trkpt lat="42.60146085090524" lon="8.910486332692564"><ele>270.0</ele><time>2026-05-01T10:40:49Z</time></trkpt><trkpt lat="42.601341378192586" lon="8.910484591462419"><ele>270.0</ele><time>2026-05-01T10:40:50Z</time></trkpt><trkpt lat="42.601077317753266" lon="8.91046770706735"><ele>269.5</ele><time>2026-05-01T10:40:52Z</time></trkpt><trkpt lat="42.60094699980812" lon="8.910463829528165"><ele>269.0</ele><time>2026-05-01T10:40:53Z</time></trkpt><trkpt lat="42.600819158214414" lon="8.910457617038363"><ele>268.5</ele><time>2026-05-01T10:40:54Z</time></trkpt><trkpt lat="42.60069261885032" lon="8.910442845057954"><ele>268.0</ele><time>2026-05-01T10:40:55Z</time></trkpt><trkpt lat="42.60056894076953" lon="8.910403014561327"><ele>268.0</ele><time>2026-05-01T10:40:56Z</time></trkpt><trkpt lat="42.600448174271484" lon="8.910340973244596"><ele>268.0</ele><time>2026-05-01T10:40:57Z</time></trkpt><trkpt lat="42.600331515208445" lon="8.910259497626663"><ele>268.0</ele><time>2026-05-01T10:40:58Z</time></trkpt><trkpt lat="42.60022103956701" lon="8.910172640034164"><ele>268.0</ele><time>2026-05-01T10:40:59Z</time></trkpt><trkpt lat="42.600108833111584" lon="8.910095981808036"><ele>264.75</ele><time>2026-05-01T10:41:00Z</time></trkpt><trkpt lat="42.60000370828791" lon="8.910018453268044"><ele>261.5</ele><time>2026-05-01T10:41:01Z</time></trkpt><trkpt lat="42.5999058795661" lon="8.909942454111224"><ele>258.25</ele><time>2026-05-01T10:41:02Z</time></trkpt><trkpt lat="42.59981135028377" lon="8.9098573904398"><ele>255.0</ele><time>2026-05-01T10:41:03Z</time></trkpt><trkpt lat="42.599758052680556" lon="8.909733487790087"><ele>255.0</ele><time>2026-05-01T10:41:04Z</time></trkpt><trkpt lat="42.59975245259678" lon="8.909578423283246"><ele>255.0</ele><time>2026-05-01T10:41:05Z</time></trkpt><trkpt lat="42.599749521612765" lon="8.90941717296516"><ele>255.0</ele><time>2026-05-01T10:41:06Z</time></trkpt><trkpt lat="42.59971790933165" lon="8.90926154216051"><ele>255.0</ele><time>2026-05-01T10:41:07Z</time></trkpt><trkpt lat="42.59965544663592" lon="8.909122922900062"><ele>254.5</ele><time>2026-05-01T10:41:08Z</time></trkpt><trkpt lat="42.599566868951285" lon="8.909021459766636"><ele>254.0</ele><time>2026-05-01T10:41:09Z</time></trkpt><trkpt lat="42.599454197601425" lon="8.908950829514504"><ele>253.5</ele><time>2026-05-01T10:41:10Z</time></trkpt><trkpt lat="42.59932483766582" lon="8.908908485044252"><ele>253.0</ele><time>2026-05-01T10:41:11Z</time></trkpt><trkpt lat="42.59905580829659" lon="8.908927612589213"><ele>253.0</ele><time>2026-05-01T10:41:13Z</time></trkpt><trkpt lat="42.598935892556604" lon="8.908933938349445"><ele>253.0</ele><time>2026-05-01T10:41:14Z</time></trkpt><trkpt lat="42.5988315951395" lon="8.908873997804978"><ele>253.0</ele><time>2026-05-01T10:41:15Z</time></trkpt><trkpt lat="42.59875111210988" lon="8.908770284927565"><ele>253.0</ele><time>2026-05-01T10:41:16Z</time></trkpt><trkpt lat="42.59870183911536" lon="8.908625228179762"><ele>253.0</ele><time>2026-05-01T10:41:17Z</time></trkpt><trkpt lat="42.59868159736659" lon="8.908457810915396"><ele>253.0</ele><time>2026-05-01T10:41:18Z</time></trkpt><trkpt lat="42.59865830795892" lon="8.908286281746228"><ele>253.0</ele><time>2026-05-01T10:41:19Z</time></trkpt><trkpt lat="42.598634519174176" lon="8.908126946908462"><ele>253.0</ele><time>2026-05-01T10:41:20Z</time></trkpt><trkpt lat="42.598609088284995" lon="8.907978420086298"><ele>253.0</ele><time>2026-05-01T10:41:21Z</time></trkpt><trkpt lat="42.598572986952774" lon="8.907835994926224"><ele>253.0</ele><time>2026-05-01T10:41:22Z</time></trkpt><trkpt lat="42.5985151390524" lon="8.907711301864468"><ele>253.0</ele><time>2026-05-01T10:41:23Z</time></trkpt><trkpt lat="42.598439178298264" lon="8.907595782385616"><ele>253.0</ele><time>2026-05-01T10:41:24Z</time></trkpt><trkpt lat="42.59838971492976" lon="8.9074686878301"><ele>253.0</ele><time>2026-05-01T10:41:25Z</time></trkpt><trkpt lat="42.59834343608842" lon="8.907344824207062"><ele>251.83333333333331</ele><time>2026-05-01T10:41:26Z</time></trkpt><trkpt lat="42.59830618701851" lon="8.907220192745305"><ele>250.66666666666666</ele><time>2026-05-01T10:41:27Z</time></trkpt><trkpt lat="42.5982650876625" lon="8.907102319977195"><ele>249.5</ele><time>2026-05-01T10:41:28Z</time></trkpt><trkpt lat="42.5982443976201" lon="8.90701246164465"><ele>248.33333333333331</ele><time>2026-05-01T10:41:29Z</time></trkpt><trkpt lat="42.59821961530822" lon="8.906931796954561"><ele>247.16666666666666</ele><time>2026-05-01T10:41:30Z</time></trkpt><trkpt lat="42.5981766102706" lon="8.906790062045292"><ele>246.0</ele><time>2026-05-01T10:41:32Z</time></trkpt><trkpt lat="42.598178775327355" lon="8.906527628982207"><ele>244.4</ele><time>2026-05-01T10:41:35Z</time></trkpt><trkpt lat="42.59821143590304" lon="8.906407533178822"><ele>242.8</ele><time>2026-05-01T10:41:36Z</time></trkpt><trkpt lat="42.598236504702925" lon="8.906273630798196"><ele>241.20000000000002</ele><time>2026-05-01T10:41:37Z</time></trkpt><trkpt lat="42.598256707753585" lon="8.906124455474876"><ele>239.60000000000002</ele><time>2026-05-01T10:41:38Z</time></trkpt><trkpt lat="42.59827028306052" lon="8.9059636623334"><ele>238.0</ele><time>2026-05-01T10:41:39Z</time></trkpt><trkpt lat="42.59828431094315" lon="8.905800184061636"><ele>237.75</ele><time>2026-05-01T10:41:40Z</time></trkpt><trkpt lat="42.59830054861791" lon="8.90563332849633"><ele>237.5</ele><time>2026-05-01T10:41:41Z</time></trkpt><trkpt lat="42.59831083180331" lon="8.905468638287704"><ele>237.25</ele><time>2026-05-01T10:41:42Z</time></trkpt><trkpt lat="42.59831366257892" lon="8.90531262789207"><ele>237.0</ele><time>2026-05-01T10:41:43Z</time></trkpt><trkpt lat="42.59830242575437" lon="8.905161512535399"><ele>235.75</ele><time>2026-05-01T10:41:44Z</time></trkpt><trkpt lat="42.59828366465859" lon="8.90500997640655"><ele>234.5</ele><time>2026-05-01T10:41:45Z</time></trkpt><trkpt lat="42.59826032451848" lon="8.904850453579678"><ele>233.25</ele><time>2026-05-01T10:41:46Z</time></trkpt><trkpt lat="42.59823444554174" lon="8.904687581269473"><ele>232.0</ele><time>2026-05-01T10:41:47Z</time></trkpt><trkpt lat="42.59820329847959" lon="8.90451902773672"><ele>232.0</ele><time>2026-05-01T10:41:48Z</time></trkpt><trkpt lat="42.59816938856569" lon="8.904350228222185"><ele>232.0</ele><time>2026-05-01T10:41:49Z</time></trkpt><trkpt lat="42.59814071984557" lon="8.90418215620956"><ele>232.0</ele><time>2026-05-01T10:41:50Z</time></trkpt><trkpt lat="42.59812465262971" lon="8.904019214119986"><ele>232.0</ele><time>2026-05-01T10:41:51Z</time></trkpt><trkpt lat="42.598146772642" lon="8.90386326946065"><ele>230.25</ele><time>2026-05-01T10:41:52Z</time></trkpt><trkpt lat="42.59819471064391" lon="8.903723944640838"><ele>228.5</ele><time>2026-05-01T10:41:53Z</time></trkpt><trkpt lat="42.598223463669584" lon="8.903456954522738"><ele>226.75</ele><time>2026-05-01T10:41:55Z</time></trkpt><trkpt lat="42.59817206599156" lon="8.90334063039964"><ele>225.0</ele><time>2026-05-01T10:41:56Z</time></trkpt><trkpt lat="42.59808497715961" lon="8.903243749464027"><ele>224.25</ele><time>2026-05-01T10:41:57Z</time></trkpt><trkpt lat="42.59797826164063" lon="8.903169021274916"><ele>223.5</ele><time>2026-05-01T10:41:58Z</time></trkpt><trkpt lat="42.59786103005241" lon="8.903105676660607"><ele>222.75</ele><time>2026-05-01T10:41:59Z</time></trkpt><trkpt lat="42.59773719700825" lon="8.903060270620644"><ele>222.0</ele><time>2026-05-01T10:42:00Z</time></trkpt><trkpt lat="42.59760627956296" lon="8.903018365241119"><ele>224.75</ele><time>2026-05-01T10:42:01Z</time></trkpt><trkpt lat="42.59746313952645" lon="8.902985205858714"><ele>227.5</ele><time>2026-05-01T10:42:02Z</time></trkpt><trkpt lat="42.5973244300801" lon="8.902948709187003"><ele>230.25</ele><time>2026-05-01T10:42:03Z</time></trkpt><trkpt lat="42.597196837305574" lon="8.902910601444812"><ele>233.0</ele><time>2026-05-01T10:42:04Z</time></trkpt><trkpt lat="42.59707482359368" lon="8.902873023733063"><ele>232.2</ele><time>2026-05-01T10:42:05Z</time></trkpt><trkpt lat="42.596960132488675" lon="8.902842113536023"><ele>231.4</ele><time>2026-05-01T10:42:06Z</time></trkpt><trkpt lat="42.59685532949583" lon="8.902807647646496"><ele>230.59999999999997</ele><time>2026-05-01T10:42:07Z</time></trkpt><trkpt lat="42.596785143694845" lon="8.902715058657298"><ele>229.79999999999998</ele><time>2026-05-01T10:42:08Z</time></trkpt><trkpt lat="42.596745478577986" lon="8.902575698604606"><ele>229.0</ele><time>2026-05-01T10:42:09Z</time></trkpt><trkpt lat="42.59671776468846" lon="8.902415805705159"><ele>229.0</ele><time>2026-05-01T10:42:10Z</time></trkpt><trkpt lat="42.5966758825099" lon="8.902256512883296"><ele>229.0</ele><time>2026-05-01T10:42:11Z</time></trkpt><trkpt lat="42.596603285884875" lon="8.902111061519069"><ele>229.0</ele><time>2026-05-01T10:42:12Z</time></trkpt><trkpt lat="42.596513289818276" lon="8.901989625287714"><ele>229.0</ele><time>2026-05-01T10:42:13Z</time></trkpt><trkpt lat="42.59644075413785" lon="8.901886293450586"><ele>226.75</ele><time>2026-05-01T10:42:14Z</time></trkpt><trkpt lat="42.59648263036908" lon="8.90162500817769"><ele>224.5</ele><time>2026-05-01T10:42:16Z</time></trkpt><trkpt lat="42.59653873604712" lon="8.901473646923154"><ele>222.25</ele><time>2026-05-01T10:42:17Z</time></trkpt><trkpt lat="42.596587696293795" lon="8.901321976377774"><ele>220.0</ele><time>2026-05-01T10:42:18Z</time></trkpt><trkpt lat="42.59662780805724" lon="8.90116205103976"><ele>220.0</ele><time>2026-05-01T10:42:19Z</time></trkpt><trkpt lat="42.59666876391446" lon="8.901006395064627"><ele>220.0</ele><time>2026-05-01T10:42:20Z</time></trkpt><trkpt lat="42.59670395362017" lon="8.900845242378509"><ele>220.0</ele><time>2026-05-01T10:42:21Z</time></trkpt><trkpt lat="42.596750653335484" lon="8.900698881421627"><ele>220.0</ele><time>2026-05-01T10:42:22Z</time></trkpt><trkpt lat="42.596793864357075" lon="8.9005501518156"><ele>220.2</ele><time>2026-05-01T10:42:23Z</time></trkpt><trkpt lat="42.59682995748863" lon="8.900409722805227"><ele>220.4</ele><time>2026-05-01T10:42:24Z</time></trkpt><trkpt lat="42.59684163762377" lon="8.90027901123852"><ele>220.60000000000002</ele><time>2026-05-01T10:42:25Z</time></trkpt><trkpt lat="42.596806041071616" lon="8.900155646019021"><ele>220.8</ele><time>2026-05-01T10:42:26Z</time></trkpt><trkpt lat="42.596729911923426" lon="8.90005116610485"><ele>221.0</ele><time>2026-05-01T10:42:27Z</time></trkpt><trkpt lat="42.596641754170214" lon="8.899940727236626"><ele>221.0</ele><time>2026-05-01T10:42:28Z</time></trkpt><trkpt lat="42.59656380846095" lon="8.899804157019375"><ele>221.0</ele><time>2026-05-01T10:42:29Z</time></trkpt><trkpt lat="42.59650237170561" lon="8.899654840165471"><ele>221.0</ele><time>2026-05-01T10:42:30Z</time></trkpt><trkpt lat="42.59644658395664" lon="8.899502671278777"><ele>221.0</ele><time>2026-05-01T10:42:31Z</time></trkpt><trkpt lat="42.59639412244171" lon="8.899345335823025"><ele>217.0</ele><time>2026-05-01T10:42:32Z</time></trkpt><trkpt lat="42.59634569957695" lon="8.899184802434233"><ele>213.0</ele><time>2026-05-01T10:42:33Z</time></trkpt><trkpt lat="42.59631985911928" lon="8.89901341563323"><ele>209.0</ele><time>2026-05-01T10:42:34Z</time></trkpt><trkpt lat="42.596324324146174" lon="8.898838478713488"><ele>205.0</ele><time>2026-05-01T10:42:35Z</time></trkpt><trkpt lat="42.59634182064219" lon="8.898465603431852"><ele>204.0</ele><time>2026-05-01T10:42:37Z</time></trkpt><trkpt lat="42.59635338338751" lon="8.898274765621347"><ele>203.0</ele><time>2026-05-01T10:42:38Z</time></trkpt><trkpt lat="42.59637481050346" lon="8.898089399312056"><ele>202.0</ele><time>2026-05-01T10:42:39Z</time></trkpt><trkpt lat="42.59638937964887" lon="8.897902052431006"><ele>201.0</ele><time>2026-05-01T10:42:40Z</time></trkpt><trkpt lat="42.59639474684782" lon="8.897713206077404"><ele>201.25</ele><time>2026-05-01T10:42:41Z</time></trkpt><trkpt lat="42.596404723500505" lon="8.897522466640433"><ele>201.5</ele><time>2026-05-01T10:42:42Z</time></trkpt><trkpt lat="42.596397404488286" lon="8.897330826948693"><ele>201.75</ele><time>2026-05-01T10:42:43Z</time></trkpt><trkpt lat="42.596361631604324" lon="8.897129239624753"><ele>202.0</ele><time>2026-05-01T10:42:44Z</time></trkpt><trkpt lat="42.59630452076581" lon="8.896933466291816"><ele>199.66666666666666</ele><time>2026-05-01T10:42:45Z</time></trkpt><trkpt lat="42.59623929089501" lon="8.896740479008054"><ele>197.33333333333331</ele><time>2026-05-01T10:42:46Z</time></trkpt><trkpt lat="42.59615968594673" lon="8.896558511682517"><ele>195.0</ele><time>2026-05-01T10:42:47Z</time></trkpt><trkpt lat="42.59605841202751" lon="8.896403335547113"><ele>209.33333333333331</ele><time>2026-05-01T10:42:48Z</time></trkpt><trkpt lat="42.59594460698904" lon="8.896260111970522"><ele>223.66666666666666</ele><time>2026-05-01T10:42:49Z</time></trkpt><trkpt lat="42.595849239796756" lon="8.896102500103643"><ele>238.0</ele><time>2026-05-01T10:42:50Z</time></trkpt><trkpt lat="42.595767341823446" lon="8.895938417803055"><ele>233.25</ele><time>2026-05-01T10:42:51Z</time></trkpt><trkpt lat="42.59569252448267" lon="8.895776775494223"><ele>228.5</ele><time>2026-05-01T10:42:52Z</time></trkpt><trkpt lat="42.59562071261048" lon="8.895615834579148"><ele>223.75</ele><time>2026-05-01T10:42:53Z</time></trkpt><trkpt lat="42.595536300595704" lon="8.895468048843856"><ele>219.0</ele><time>2026-05-01T10:42:54Z</time></trkpt><trkpt lat="42.59545320057806" lon="8.895321412397472"><ele>219.0</ele><time>2026-05-01T10:42:55Z</time></trkpt><trkpt lat="42.595358298362946" lon="8.895181181119893"><ele>219.0</ele><time>2026-05-01T10:42:56Z</time></trkpt><trkpt lat="42.595148510160506" lon="8.894927014339489"><ele>219.0</ele><time>2026-05-01T10:42:58Z</time></trkpt><trkpt lat="42.595040911761906" lon="8.894810339173848"><ele>221.25</ele><time>2026-05-01T10:42:59Z</time></trkpt><trkpt lat="42.59493206810312" lon="8.89469637419619"><ele>223.5</ele><time>2026-05-01T10:43:00Z</time></trkpt><trkpt lat="42.59482212181675" lon="8.894583792940255"><ele>225.75</ele><time>2026-05-01T10:43:01Z</time></trkpt><trkpt lat="42.59470815533229" lon="8.894474123161125"><ele>228.0</ele><time>2026-05-01T10:43:02Z</time></trkpt><trkpt lat="42.59460524113457" lon="8.89437260578503"><ele>228.5</ele><time>2026-05-01T10:43:03Z</time></trkpt><trkpt lat="42.59448555326331" lon="8.894291933907684"><ele>229.0</ele><time>2026-05-01T10:43:04Z</time></trkpt><trkpt lat="42.59436328917248" lon="8.89420919704734"><ele>229.5</ele><time>2026-05-01T10:43:05Z</time></trkpt><trkpt lat="42.5942478518779" lon="8.894115878341513"><ele>230.0</ele><time>2026-05-01T10:43:06Z</time></trkpt><trkpt lat="42.59413590004429" lon="8.894012472745226"><ele>230.0</ele><time>2026-05-01T10:43:07Z</time></trkpt><trkpt lat="42.59403065966636" lon="8.89390286773092"><ele>230.0</ele><time>2026-05-01T10:43:08Z</time></trkpt><trkpt lat="42.59392649462933" lon="8.89379222641671"><ele>230.0</ele><time>2026-05-01T10:43:09Z</time></trkpt><trkpt lat="42.59382741349978" lon="8.893679469813298"><ele>230.0</ele><time>2026-05-01T10:43:10Z</time></trkpt><trkpt lat="42.59372389342279" lon="8.893573995019894"><ele>228.5</ele><time>2026-05-01T10:43:11Z</time></trkpt><trkpt lat="42.59362048151401" lon="8.893474088017056"><ele>227.0</ele><time>2026-05-01T10:43:12Z</time></trkpt><trkpt lat="42.59350865937447" lon="8.89338601443942"><ele>225.5</ele><time>2026-05-01T10:43:13Z</time></trkpt><trkpt lat="42.59339184124503" lon="8.89331477948999"><ele>224.0</ele><time>2026-05-01T10:43:14Z</time></trkpt><trkpt lat="42.59327235552968" lon="8.893263943237773"><ele>224.0</ele><time>2026-05-01T10:43:15Z</time></trkpt><trkpt lat="42.593147265815084" lon="8.893228901926067"><ele>224.0</ele><time>2026-05-01T10:43:16Z</time></trkpt><trkpt lat="42.59302364640412" lon="8.893216737846968"><ele>224.0</ele><time>2026-05-01T10:43:17Z</time></trkpt><trkpt lat="42.59278023141578" lon="8.893280943883237"><ele>223.0</ele><time>2026-05-01T10:43:19Z</time></trkpt><trkpt lat="42.59266886659762" lon="8.89335697499131"><ele>222.0</ele><time>2026-05-01T10:43:20Z</time></trkpt><trkpt lat="42.59257139873961" lon="8.893459047293737"><ele>221.0</ele><time>2026-05-01T10:43:21Z</time></trkpt><trkpt lat="42.59246863241573" lon="8.89355806798561"><ele>220.0</ele><time>2026-05-01T10:43:22Z</time></trkpt><trkpt lat="42.59235616400356" lon="8.893641018886097"><ele>224.5</ele><time>2026-05-01T10:43:23Z</time></trkpt><trkpt lat="42.59223404536515" lon="8.893702840751383"><ele>229.0</ele><time>2026-05-01T10:43:24Z</time></trkpt><trkpt lat="42.59210681608413" lon="8.893737485870695"><ele>233.5</ele><time>2026-05-01T10:43:25Z</time></trkpt><trkpt lat="42.59197481648206" lon="8.893751784788428"><ele>238.0</ele><time>2026-05-01T10:43:26Z</time></trkpt><trkpt lat="42.59184917154977" lon="8.893779560998501"><ele>238.0</ele><time>2026-05-01T10:43:27Z</time></trkpt><trkpt lat="42.59173087140319" lon="8.893851377088517"><ele>238.0</ele><time>2026-05-01T10:43:28Z</time></trkpt><trkpt lat="42.591614697861175" lon="8.893947534041795"><ele>238.0</ele><time>2026-05-01T10:43:29Z</time></trkpt><trkpt lat="42.591498237577426" lon="8.89404214661424"><ele>238.0</ele><time>2026-05-01T10:43:30Z</time></trkpt><trkpt lat="42.59138452304064" lon="8.894137742053434"><ele>238.0</ele><time>2026-05-01T10:43:31Z</time></trkpt><trkpt lat="42.591281898414266" lon="8.894223962553781"><ele>238.0</ele><time>2026-05-01T10:43:32Z</time></trkpt><trkpt lat="42.59118242135741" lon="8.894277755592144"><ele>238.0</ele><time>2026-05-01T10:43:33Z</time></trkpt><trkpt lat="42.59109258606549" lon="8.8942821718598"><ele>238.0</ele><time>2026-05-01T10:43:34Z</time></trkpt><trkpt lat="42.59102725068378" lon="8.89422395304679"><ele>238.0</ele><time>2026-05-01T10:43:35Z</time></trkpt><trkpt lat="42.59100996711538" lon="8.89410923956671"><ele>237.5</ele><time>2026-05-01T10:43:36Z</time></trkpt><trkpt lat="42.591025026980155" lon="8.893976817936203"><ele>237.0</ele><time>2026-05-01T10:43:37Z</time></trkpt><trkpt lat="42.59105219011556" lon="8.893857439648771"><ele>236.5</ele><time>2026-05-01T10:43:38Z</time></trkpt><trkpt lat="42.591043211967474" lon="8.893628310516377"><ele>236.0</ele><time>2026-05-01T10:43:40Z</time></trkpt><trkpt lat="42.59101464084475" lon="8.893506908712897"><ele>234.20000000000002</ele><time>2026-05-01T10:43:41Z</time></trkpt><trkpt lat="42.59098199687299" lon="8.893390653022907"><ele>232.40000000000003</ele><time>2026-05-01T10:43:42Z</time></trkpt><trkpt lat="42.590942518387344" lon="8.893286257964682"><ele>230.6</ele><time>2026-05-01T10:43:43Z</time></trkpt><trkpt lat="42.59087487242162" lon="8.893198299599106"><ele>228.8</ele><time>2026-05-01T10:43:44Z</time></trkpt><trkpt lat="42.59078669392684" lon="8.893135158426901"><ele>227.0</ele><time>2026-05-01T10:43:45Z</time></trkpt><trkpt lat="42.59068720357963" lon="8.893082126947439"><ele>227.0</ele><time>2026-05-01T10:43:46Z</time></trkpt><trkpt lat="42.59059582971707" lon="8.893029178070206"><ele>227.0</ele><time>2026-05-01T10:43:47Z</time></trkpt><trkpt lat="42.59051270315364" lon="8.89297576263489"><ele>227.0</ele><time>2026-05-01T10:43:48Z</time></trkpt><trkpt lat="42.59043659555118" lon="8.892928868834648"><ele>227.0</ele><time>2026-05-01T10:43:49Z</time></trkpt><trkpt lat="42.5903641273013" lon="8.89288161096975"><ele>227.0</ele><time>2026-05-01T10:43:50Z</time></trkpt><trkpt lat="42.59026975384028" lon="8.892826418818439"><ele>227.6</ele><time>2026-05-01T10:43:51Z</time></trkpt><trkpt lat="42.59017463508782" lon="8.892767095854822"><ele>228.2</ele><time>2026-05-01T10:43:52Z</time></trkpt><trkpt lat="42.59008840171783" lon="8.892709450928427"><ele>228.8</ele><time>2026-05-01T10:43:53Z</time></trkpt><trkpt lat="42.590008068124334" lon="8.892655123007815"><ele>229.4</ele><time>2026-05-01T10:43:54Z</time></trkpt><trkpt lat="42.58993382652032" lon="8.892603614597483"><ele>230.0</ele><time>2026-05-01T10:43:55Z</time></trkpt><trkpt lat="42.58980854183959" lon="8.892518650625357"><ele>230.0</ele><time>2026-05-01T10:43:57Z</time></trkpt><trkpt lat="42.58973161101395" lon="8.892473073719074"><ele>230.0</ele><time>2026-05-01T10:43:58Z</time></trkpt><trkpt lat="42.58965274642259" lon="8.892423280754963"><ele>230.0</ele><time>2026-05-01T10:43:59Z</time></trkpt><trkpt lat="42.58951274353529" lon="8.892335390899719"><ele>230.0</ele><time>2026-05-01T10:44:01Z</time></trkpt><trkpt lat="42.58945460783929" lon="8.89229726725141"><ele>230.0</ele><time>2026-05-01T10:44:02Z</time></trkpt><trkpt lat="42.589337519532776" lon="8.892245459227112"><ele>231.0</ele><time>2026-05-01T10:44:04Z</time></trkpt><trkpt lat="42.58926599507528" lon="8.89223518087696"><ele>232.0</ele><time>2026-05-01T10:44:06Z</time></trkpt><trkpt lat="42.589201522445414" lon="8.892247235625838"><ele>233.0</ele><time>2026-05-01T10:44:20Z</time></trkpt><trkpt lat="42.58901810163303" lon="8.892213710506967"><ele>234.0</ele><time>2026-05-01T10:44:23Z</time></trkpt><trkpt lat="42.588953075452665" lon="8.892197344096868"><ele>235.0</ele><time>2026-05-01T10:44:24Z</time></trkpt><trkpt lat="42.5888862910629" lon="8.892170027550643"><ele>234.99999999999997</ele><time>2026-05-01T10:44:25Z</time></trkpt><trkpt lat="42.58881465279186" lon="8.892137774700725"><ele>235.0</ele><time>2026-05-01T10:44:26Z</time></trkpt><trkpt lat="42.588746567516196" lon="8.892103528128233"><ele>235.0</ele><time>2026-05-01T10:44:27Z</time></trkpt><trkpt lat="42.58868064072995" lon="8.892064225558343"><ele>235.0</ele><time>2026-05-01T10:44:28Z</time></trkpt><trkpt lat="42.58861481816074" lon="8.89202398835822"><ele>234.99999999999997</ele><time>2026-05-01T10:44:29Z</time></trkpt><trkpt lat="42.58854265812188" lon="8.891981026692363"><ele>235.0</ele><time>2026-05-01T10:44:30Z</time></trkpt><trkpt lat="42.5884707487738" lon="8.89193825468099"><ele>235.99999999999997</ele><time>2026-05-01T10:44:31Z</time></trkpt><trkpt lat="42.58840078508944" lon="8.891896903707378"><ele>237.0</ele><time>2026-05-01T10:44:32Z</time></trkpt><trkpt lat="42.58832956617261" lon="8.891854014352074"><ele>238.0</ele><time>2026-05-01T10:44:33Z</time></trkpt><trkpt lat="42.588263266445814" lon="8.891818698103636"><ele>239.0</ele><time>2026-05-01T10:44:34Z</time></trkpt><trkpt lat="42.58816855095927" lon="8.891773064533485"><ele>239.99999999999997</ele><time>2026-05-01T10:44:36Z</time></trkpt><trkpt lat="42.58809188990684" lon="8.891778773842333"><ele>241.0</ele><time>2026-05-01T10:44:38Z</time></trkpt><trkpt lat="42.588033088088956" lon="8.89182510992708"><ele>241.0</ele><time>2026-05-01T10:44:40Z</time></trkpt><trkpt lat="42.58801930151209" lon="8.891934356145613"><ele>241.0</ele><time>2026-05-01T10:45:48Z</time></trkpt><trkpt lat="42.587972032076415" lon="8.892194189224176"><ele>241.0</ele><time>2026-05-01T10:45:51Z</time></trkpt><trkpt lat="42.587967094095475" lon="8.892316487497682"><ele>241.0</ele><time>2026-05-01T10:45:52Z</time></trkpt><trkpt lat="42.58795987051319" lon="8.892441790209771"><ele>241.0</ele><time>2026-05-01T10:45:53Z</time></trkpt><trkpt lat="42.587953764123974" lon="8.892575315652136"><ele>241.00000000000003</ele><time>2026-05-01T10:45:54Z</time></trkpt><trkpt lat="42.58794294731828" lon="8.892708705215059"><ele>241.00000000000003</ele><time>2026-05-01T10:45:55Z</time></trkpt><trkpt lat="42.587927283275086" lon="8.892837840669442"><ele>241.0</ele><time>2026-05-01T10:45:56Z</time></trkpt><trkpt lat="42.58789752084494" lon="8.892963117694203"><ele>241.0</ele><time>2026-05-01T10:45:57Z</time></trkpt><trkpt lat="42.587863708889806" lon="8.893086258633941"><ele>241.8</ele><time>2026-05-01T10:45:58Z</time></trkpt><trkpt lat="42.58782488572619" lon="8.89320706740506"><ele>242.60000000000002</ele><time>2026-05-01T10:45:59Z</time></trkpt><trkpt lat="42.58776997890202" lon="8.893319143631029"><ele>243.4</ele><time>2026-05-01T10:46:00Z</time></trkpt><trkpt lat="42.5876938406955" lon="8.893407532741548"><ele>244.2</ele><time>2026-05-01T10:46:01Z</time></trkpt><trkpt lat="42.58759726715087" lon="8.893451152106438"><ele>245.0</ele><time>2026-05-01T10:46:02Z</time></trkpt><trkpt lat="42.587496247122864" lon="8.893460487312607"><ele>246.8</ele><time>2026-05-01T10:46:03Z</time></trkpt><trkpt lat="42.587394740562715" lon="8.893464305776599"><ele>248.6</ele><time>2026-05-01T10:46:04Z</time></trkpt><trkpt lat="42.587294258662844" lon="8.89347189540098"><ele>250.39999999999998</ele><time>2026-05-01T10:46:05Z</time></trkpt><trkpt lat="42.587194893638845" lon="8.893477658815574"><ele>252.2</ele><time>2026-05-01T10:46:06Z</time></trkpt><trkpt lat="42.587096022883415" lon="8.893483202060272"><ele>254.0</ele><time>2026-05-01T10:46:07Z</time></trkpt><trkpt lat="42.58699781994974" lon="8.893487280019103"><ele>254.0</ele><time>2026-05-01T10:46:08Z</time></trkpt><trkpt lat="42.58689951607207" lon="8.893501954515742"><ele>254.0</ele><time>2026-05-01T10:46:09Z</time></trkpt><trkpt lat="42.58671799185201" lon="8.893610851481824"><ele>254.0</ele><time>2026-05-01T10:46:11Z</time></trkpt><trkpt lat="42.586649103986" lon="8.893735141323976"><ele>254.0</ele><time>2026-05-01T10:46:12Z</time></trkpt><trkpt lat="42.58658914462463" lon="8.89386847029167"><ele>254.0</ele><time>2026-05-01T10:46:13Z</time></trkpt><trkpt lat="42.586526076648646" lon="8.894005398832245"><ele>254.0</ele><time>2026-05-01T10:46:14Z</time></trkpt><trkpt lat="42.586456604021265" lon="8.894135515847527"><ele>254.0</ele><time>2026-05-01T10:46:15Z</time></trkpt><trkpt lat="42.58637866768929" lon="8.894266161790469"><ele>254.0</ele><time>2026-05-01T10:46:16Z</time></trkpt><trkpt lat="42.58629767069167" lon="8.894374759323009"><ele>255.5</ele><time>2026-05-01T10:46:17Z</time></trkpt><trkpt lat="42.58620302074125" lon="8.894427097840643"><ele>257.0</ele><time>2026-05-01T10:46:18Z</time></trkpt><trkpt lat="42.586091451663705" lon="8.894439295624544"><ele>258.5</ele><time>2026-05-01T10:46:19Z</time></trkpt><trkpt lat="42.585973912660336" lon="8.894415338237065"><ele>260.0</ele><time>2026-05-01T10:46:20Z</time></trkpt><trkpt lat="42.58585213696324" lon="8.894386403057966"><ele>260.0</ele><time>2026-05-01T10:46:21Z</time></trkpt><trkpt lat="42.585729194627156" lon="8.89438345941869"><ele>260.0</ele><time>2026-05-01T10:46:22Z</time></trkpt><trkpt lat="42.58560979511487" lon="8.894428675719297"><ele>260.0</ele><time>2026-05-01T10:46:23Z</time></trkpt><trkpt lat="42.58550171355214" lon="8.894524925151556"><ele>260.0</ele><time>2026-05-01T10:46:24Z</time></trkpt><trkpt lat="42.58541652958028" lon="8.894669375539468"><ele>260.0</ele><time>2026-05-01T10:46:25Z</time></trkpt><trkpt lat="42.585351636891396" lon="8.894811807804597"><ele>260.0</ele><time>2026-05-01T10:46:26Z</time></trkpt><trkpt lat="42.585286764786645" lon="8.894927850043759"><ele>260.0</ele><time>2026-05-01T10:46:27Z</time></trkpt><trkpt lat="42.58521738337939" lon="8.895031585231148"><ele>260.0</ele><time>2026-05-01T10:46:28Z</time></trkpt><trkpt lat="42.58514762965157" lon="8.895151616020172"><ele>260.0</ele><time>2026-05-01T10:46:29Z</time></trkpt><trkpt lat="42.58510990187574" lon="8.89528807203781"><ele>259.6666666666667</ele><time>2026-05-01T10:46:30Z</time></trkpt><trkpt lat="42.585183784862274" lon="8.895592097906416"><ele>259.3333333333333</ele><time>2026-05-01T10:46:32Z</time></trkpt><trkpt lat="42.58524401671511" lon="8.895746851588875"><ele>259.0</ele><time>2026-05-01T10:46:33Z</time></trkpt><trkpt lat="42.585267871508485" lon="8.895914146623307"><ele>261.2</ele><time>2026-05-01T10:46:34Z</time></trkpt><trkpt lat="42.58523394527257" lon="8.89606366849627"><ele>263.4</ele><time>2026-05-01T10:46:35Z</time></trkpt><trkpt lat="42.58515048050075" lon="8.896146983201929"><ele>265.6</ele><time>2026-05-01T10:46:36Z</time></trkpt><trkpt lat="42.58504339685544" lon="8.896182891176393"><ele>267.8</ele><time>2026-05-01T10:46:37Z</time></trkpt><trkpt lat="42.58492565308097" lon="8.896189553404701"><ele>270.0</ele><time>2026-05-01T10:46:38Z</time></trkpt><trkpt lat="42.584803231624576" lon="8.89622469374404"><ele>270.0</ele><time>2026-05-01T10:46:39Z</time></trkpt><trkpt lat="42.584685942156796" lon="8.896282162681384"><ele>270.0</ele><time>2026-05-01T10:46:40Z</time></trkpt><trkpt lat="42.58457221440863" lon="8.896342204115477"><ele>270.0</ele><time>2026-05-01T10:46:41Z</time></trkpt><trkpt lat="42.584454592873946" lon="8.896407388246068"><ele>270.0</ele><time>2026-05-01T10:46:42Z</time></trkpt><trkpt lat="42.584339349199546" lon="8.896464782441054"><ele>269.5</ele><time>2026-05-01T10:46:43Z</time></trkpt><trkpt lat="42.584227540671534" lon="8.896462124131295"><ele>269.0</ele><time>2026-05-01T10:46:44Z</time></trkpt><trkpt lat="42.58413747692113" lon="8.896375173278358"><ele>268.5</ele><time>2026-05-01T10:46:45Z</time></trkpt><trkpt lat="42.584040703926924" lon="8.896293977446168"><ele>268.0</ele><time>2026-05-01T10:46:46Z</time></trkpt><trkpt lat="42.58391769869664" lon="8.896271236892263"><ele>268.0</ele><time>2026-05-01T10:46:47Z</time></trkpt><trkpt lat="42.5837831603209" lon="8.896315652712987"><ele>268.0</ele><time>2026-05-01T10:46:48Z</time></trkpt><trkpt lat="42.583645269715994" lon="8.896371497727483"><ele>268.0</ele><time>2026-05-01T10:46:49Z</time></trkpt><trkpt lat="42.583508856692674" lon="8.896412457806099"><ele>268.0</ele><time>2026-05-01T10:46:50Z</time></trkpt><trkpt lat="42.58337373699618" lon="8.896453843419517"><ele>268.0</ele><time>2026-05-01T10:46:51Z</time></trkpt><trkpt lat="42.58317111734057" lon="8.896684695290896"><ele>268.0</ele><time>2026-05-01T10:46:53Z</time></trkpt><trkpt lat="42.58311699199462" lon="8.896862379916996"><ele>268.0</ele><time>2026-05-01T10:46:54Z</time></trkpt><trkpt lat="42.58307790287762" lon="8.897049904335395"><ele>269.0</ele><time>2026-05-01T10:46:55Z</time></trkpt><trkpt lat="42.58304562663707" lon="8.897222896855592"><ele>270.0</ele><time>2026-05-01T10:46:56Z</time></trkpt><trkpt lat="42.58299416941473" lon="8.897351398605718"><ele>271.0</ele><time>2026-05-01T10:46:57Z</time></trkpt><trkpt lat="42.582916103551234" lon="8.89742435740353"><ele>272.0</ele><time>2026-05-01T10:46:58Z</time></trkpt><trkpt lat="42.58282316944176" lon="8.897440235265126"><ele>273.0</ele><time>2026-05-01T10:46:59Z</time></trkpt><trkpt lat="42.58272270753495" lon="8.897405405463786"><ele>273.0</ele><time>2026-05-01T10:47:00Z</time></trkpt><trkpt lat="42.58262203779721" lon="8.897323662852818"><ele>273.0</ele><time>2026-05-01T10:47:01Z</time></trkpt><trkpt lat="42.582551298107084" lon="8.897186096620047"><ele>273.0</ele><time>2026-05-01T10:47:02Z</time></trkpt><trkpt lat="42.5824962475096" lon="8.897038295960225"><ele>273.0</ele><time>2026-05-01T10:47:03Z</time></trkpt><trkpt lat="42.582430952700086" lon="8.896889465122817"><ele>273.0</ele><time>2026-05-01T10:47:04Z</time></trkpt><trkpt lat="42.582348508874006" lon="8.896766947981227"><ele>273.0</ele><time>2026-05-01T10:47:05Z</time></trkpt><trkpt lat="42.58225577506939" lon="8.896705041692881"><ele>273.0</ele><time>2026-05-01T10:47:06Z</time></trkpt><trkpt lat="42.58217589436683" lon="8.896731537210295"><ele>273.0</ele><time>2026-05-01T10:47:07Z</time></trkpt><trkpt lat="42.58212707593908" lon="8.896828349668333"><ele>273.0</ele><time>2026-05-01T10:47:08Z</time></trkpt><trkpt lat="42.582113444844644" lon="8.896965748410562"><ele>273.0</ele><time>2026-05-01T10:47:09Z</time></trkpt><trkpt lat="42.58211321235136" lon="8.897129055681996"><ele>273.0</ele><time>2026-05-01T10:47:10Z</time></trkpt><trkpt lat="42.58211116340294" lon="8.897296039915656"><ele>273.0</ele><time>2026-05-01T10:47:11Z</time></trkpt><trkpt lat="42.58210236512243" lon="8.89745724475796"><ele>273.0</ele><time>2026-05-01T10:47:12Z</time></trkpt><trkpt lat="42.58200762551684" lon="8.897695538423388"><ele>276.0</ele><time>2026-05-01T10:47:14Z</time></trkpt><trkpt lat="42.58190898493326" lon="8.897745230346809"><ele>279.0</ele><time>2026-05-01T10:47:15Z</time></trkpt><trkpt lat="42.58179904134163" lon="8.897759437266226"><ele>282.0</ele><time>2026-05-01T10:47:16Z</time></trkpt><trkpt lat="42.581706532308594" lon="8.897767594743113"><ele>285.0</ele><time>2026-05-01T10:47:17Z</time></trkpt><trkpt lat="42.58163297472458" lon="8.897771357322288"><ele>288.0</ele><time>2026-05-01T10:47:18Z</time></trkpt><trkpt lat="42.581563104478974" lon="8.897785603003996"><ele>288.0</ele><time>2026-05-01T10:47:19Z</time></trkpt><trkpt lat="42.5814909266387" lon="8.89780751743199"><ele>288.0</ele><time>2026-05-01T10:47:20Z</time></trkpt><trkpt lat="42.581418637968" lon="8.897830666184783"><ele>288.0</ele><time>2026-05-01T10:47:21Z</time></trkpt><trkpt lat="42.5813449678978" lon="8.897868851103148"><ele>288.0</ele><time>2026-05-01T10:47:22Z</time></trkpt><trkpt lat="42.58127939979763" lon="8.897921724968086"><ele>288.0</ele><time>2026-05-01T10:47:23Z</time></trkpt><trkpt lat="42.581219536453084" lon="8.897985307012481"><ele>288.0</ele><time>2026-05-01T10:47:24Z</time></trkpt><trkpt lat="42.581162464338014" lon="8.898053203839163"><ele>287.0</ele><time>2026-05-01T10:47:25Z</time></trkpt><trkpt lat="42.581112877968316" lon="8.8981317804786"><ele>286.0</ele><time>2026-05-01T10:47:26.001Z</time></trkpt><trkpt lat="42.58107909320539" lon="8.898221217045862"><ele>285.0</ele><time>2026-05-01T10:47:27.001Z</time></trkpt><trkpt lat="42.58105160298425" lon="8.898316235168602"><ele>284.0</ele><time>2026-05-01T10:47:28.001Z</time></trkpt><trkpt lat="42.581024419208724" lon="8.898414512493405"><ele>283.0</ele><time>2026-05-01T10:47:29.001Z</time></trkpt><trkpt lat="42.58099080984766" lon="8.898504765248255"><ele>282.0</ele><time>2026-05-01T10:47:30.001Z</time></trkpt><trkpt lat="42.58094423827554" lon="8.898589712927992"><ele>285.4</ele><time>2026-05-01T10:47:31.001Z</time></trkpt><trkpt lat="42.58089588691895" lon="8.898668028939651"><ele>288.79999999999995</ele><time>2026-05-01T10:47:32.001Z</time></trkpt><trkpt lat="42.58085375061741" lon="8.89875033003197"><ele>292.2</ele><time>2026-05-01T10:47:33.001Z</time></trkpt><trkpt lat="42.58075953207405" lon="8.89890820329197"><ele>295.59999999999997</ele><time>2026-05-01T10:47:35.001Z</time></trkpt><trkpt lat="42.58070220393647" lon="8.898978979477693"><ele>299.0</ele><time>2026-05-01T10:47:36.001Z</time></trkpt><trkpt lat="42.58063107434491" lon="8.899029210589294"><ele>299.0</ele><time>2026-05-01T10:47:37.001Z</time></trkpt><trkpt lat="42.58054905004623" lon="8.899053576973342"><ele>299.0</ele><time>2026-05-01T10:47:38.001Z</time></trkpt><trkpt lat="42.58046238897893" lon="8.899047831966524"><ele>299.0</ele><time>2026-05-01T10:47:39.001Z</time></trkpt><trkpt lat="42.58037655082111" lon="8.89902418498041"><ele>299.0</ele><time>2026-05-01T10:47:40.001Z</time></trkpt><trkpt lat="42.58029713870068" lon="8.898996052773684"><ele>299.0</ele><time>2026-05-01T10:47:41.001Z</time></trkpt><trkpt lat="42.5802156510946" lon="8.898968989430987"><ele>299.0</ele><time>2026-05-01T10:47:42.001Z</time></trkpt><trkpt lat="42.58013291919676" lon="8.89893316548933"><ele>298.5</ele><time>2026-05-01T10:47:43.001Z</time></trkpt><trkpt lat="42.58005847306192" lon="8.898882830583386"><ele>298.0</ele><time>2026-05-01T10:47:44.001Z</time></trkpt><trkpt lat="42.579987425738885" lon="8.89881532216472"><ele>297.5</ele><time>2026-05-01T10:47:45.001Z</time></trkpt><trkpt lat="42.579903577056164" lon="8.898766916972521"><ele>297.0</ele><time>2026-05-01T10:47:46.001Z</time></trkpt><trkpt lat="42.57981325337357" lon="8.898765826266864"><ele>296.5</ele><time>2026-05-01T10:47:47.001Z</time></trkpt><trkpt lat="42.57972035055049" lon="8.898806881325674"><ele>296.0</ele><time>2026-05-01T10:47:48.001Z</time></trkpt><trkpt lat="42.57965024957495" lon="8.898887488382194"><ele>296.0</ele><time>2026-05-01T10:47:49.001Z</time></trkpt><trkpt lat="42.579608220148565" lon="8.899008272114376"><ele>296.0</ele><time>2026-05-01T10:47:50.001Z</time></trkpt><trkpt lat="42.57958738162388" lon="8.899136967680574"><ele>296.0</ele><time>2026-05-01T10:47:51.001Z</time></trkpt><trkpt lat="42.57957403060409" lon="8.899269647158427"><ele>296.0</ele><time>2026-05-01T10:47:52.001Z</time></trkpt><trkpt lat="42.57954968046187" lon="8.899407424101911"><ele>296.0</ele><time>2026-05-01T10:47:53.001Z</time></trkpt><trkpt lat="42.57950212268457" lon="8.899543574390067"><ele>300.25</ele><time>2026-05-01T10:47:54.001Z</time></trkpt><trkpt lat="42.5793534817874" lon="8.89976160007476"><ele>304.5</ele><time>2026-05-01T10:47:56Z</time></trkpt><trkpt lat="42.579248737236206" lon="8.899815668492964"><ele>308.75</ele><time>2026-05-01T10:47:57Z</time></trkpt><trkpt lat="42.579135217335654" lon="8.899829171946088"><ele>313.0</ele><time>2026-05-01T10:47:58Z</time></trkpt><trkpt lat="42.579018220056284" lon="8.899812538409252"><ele>313.0</ele><time>2026-05-01T10:47:59Z</time></trkpt><trkpt lat="42.57890023016102" lon="8.899801156176423"><ele>313.0</ele><time>2026-05-01T10:48:00Z</time></trkpt><trkpt lat="42.57877579384481" lon="8.899800245562794"><ele>313.0</ele><time>2026-05-01T10:48:01Z</time></trkpt><trkpt lat="42.578651772292645" lon="8.899809166011673"><ele>313.0</ele><time>2026-05-01T10:48:02Z</time></trkpt><trkpt lat="42.578534621286586" lon="8.899836737866545"><ele>313.0</ele><time>2026-05-01T10:48:03Z</time></trkpt><trkpt lat="42.578420297038065" lon="8.899887881153283"><ele>313.0</ele><time>2026-05-01T10:48:04Z</time></trkpt><trkpt lat="42.578303580453145" lon="8.89995310539255"><ele>313.0</ele><time>2026-05-01T10:48:05Z</time></trkpt><trkpt lat="42.578184711674886" lon="8.900006567957663"><ele>313.0</ele><time>2026-05-01T10:48:06Z</time></trkpt><trkpt lat="42.57805712417606" lon="8.900037574000015"><ele>313.0</ele><time>2026-05-01T10:48:07Z</time></trkpt><trkpt lat="42.57792603190239" lon="8.90004072808383"><ele>313.0</ele><time>2026-05-01T10:48:08Z</time></trkpt><trkpt lat="42.577792565599275" lon="8.900018381400614"><ele>313.0</ele><time>2026-05-01T10:48:09Z</time></trkpt><trkpt lat="42.577659361203025" lon="8.900003845953083"><ele>313.0</ele><time>2026-05-01T10:48:10Z</time></trkpt><trkpt lat="42.5775212202499" lon="8.89999541774768"><ele>313.75</ele><time>2026-05-01T10:48:11Z</time></trkpt><trkpt lat="42.57738060993314" lon="8.899992594632863"><ele>314.5</ele><time>2026-05-01T10:48:12Z</time></trkpt><trkpt lat="42.577236453707336" lon="8.89999149091054"><ele>315.25</ele><time>2026-05-01T10:48:13Z</time></trkpt><trkpt lat="42.577092236479324" lon="8.899988415942321"><ele>316.0</ele><time>2026-05-01T10:48:14Z</time></trkpt><trkpt lat="42.57694831011167" lon="8.899970709438964"><ele>319.0</ele><time>2026-05-01T10:48:15Z</time></trkpt><trkpt lat="42.57667932514666" lon="8.899875634591222"><ele>322.0</ele><time>2026-05-01T10:48:17Z</time></trkpt><trkpt lat="42.57656006830912" lon="8.899803175257498"><ele>325.0</ele><time>2026-05-01T10:48:18Z</time></trkpt><trkpt lat="42.57646975234248" lon="8.899715891023497"><ele>325.0</ele><time>2026-05-01T10:48:19Z</time></trkpt><trkpt lat="42.576397257400735" lon="8.899655794181722"><ele>325.0</ele><time>2026-05-01T10:48:20Z</time></trkpt><trkpt lat="42.57632280216985" lon="8.899696770121732"><ele>325.0</ele><time>2026-05-01T10:48:21Z</time></trkpt><trkpt lat="42.576259518246175" lon="8.899817037084643"><ele>325.0</ele><time>2026-05-01T10:48:22Z</time></trkpt><trkpt lat="42.57617086115736" lon="8.899944411725947"><ele>325.0</ele><time>2026-05-01T10:48:23Z</time></trkpt><trkpt lat="42.576049063102495" lon="8.900010525073164"><ele>325.5</ele><time>2026-05-01T10:48:24Z</time></trkpt><trkpt lat="42.57590348537782" lon="8.900010593755798"><ele>326.0</ele><time>2026-05-01T10:48:25Z</time></trkpt><trkpt lat="42.57575820215503" lon="8.900000106453712"><ele>326.5</ele><time>2026-05-01T10:48:26Z</time></trkpt><trkpt lat="42.575608092040966" lon="8.899965010538397"><ele>327.0</ele><time>2026-05-01T10:48:27Z</time></trkpt><trkpt lat="42.57546276579887" lon="8.89989615463376"><ele>331.3333333333333</ele><time>2026-05-01T10:48:28Z</time></trkpt><trkpt lat="42.57531738709727" lon="8.899816683156763"><ele>335.66666666666663</ele><time>2026-05-01T10:48:29Z</time></trkpt><trkpt lat="42.57516431019976" lon="8.899761832388977"><ele>340.0</ele><time>2026-05-01T10:48:30Z</time></trkpt><trkpt lat="42.57500278419098" lon="8.899719215921902"><ele>340.0</ele><time>2026-05-01T10:48:31Z</time></trkpt><trkpt lat="42.57484830039394" lon="8.899659470606757"><ele>340.0</ele><time>2026-05-01T10:48:32Z</time></trkpt><trkpt lat="42.574723443705246" lon="8.899569236524586"><ele>340.0</ele><time>2026-05-01T10:48:33Z</time></trkpt><trkpt lat="42.5746337159422" lon="8.899441881428094"><ele>340.0</ele><time>2026-05-01T10:48:34Z</time></trkpt><trkpt lat="42.574573480094365" lon="8.899272300975744"><ele>341.66666666666663</ele><time>2026-05-01T10:48:35Z</time></trkpt><trkpt lat="42.57453757771019" lon="8.899076598648053"><ele>343.3333333333333</ele><time>2026-05-01T10:48:36Z</time></trkpt><trkpt lat="42.5744282128253" lon="8.898721045413605"><ele>345.0</ele><time>2026-05-01T10:48:38Z</time></trkpt><trkpt lat="42.57432464577579" lon="8.89860165643614"><ele>345.0</ele><time>2026-05-01T10:48:39Z</time></trkpt><trkpt lat="42.57420799247447" lon="8.898532954138407"><ele>345.0</ele><time>2026-05-01T10:48:40Z</time></trkpt><trkpt lat="42.57409419200462" lon="8.898532561733646"><ele>345.0</ele><time>2026-05-01T10:48:41Z</time></trkpt><trkpt lat="42.57398283206899" lon="8.898601144745859"><ele>345.0</ele><time>2026-05-01T10:48:42Z</time></trkpt><trkpt lat="42.573867303773625" lon="8.898710170197809"><ele>345.0</ele><time>2026-05-01T10:48:43Z</time></trkpt><trkpt lat="42.57374268136498" lon="8.898822009684391"><ele>345.0</ele><time>2026-05-01T10:48:44Z</time></trkpt><trkpt lat="42.573609074306695" lon="8.898901079492957"><ele>345.0</ele><time>2026-05-01T10:48:45Z</time></trkpt><trkpt lat="42.57345705604861" lon="8.898932750271369"><ele>345.0</ele><time>2026-05-01T10:48:46Z</time></trkpt><trkpt lat="42.57330404716843" lon="8.898922584780502"><ele>347.5</ele><time>2026-05-01T10:48:47Z</time></trkpt><trkpt lat="42.57316450418975" lon="8.898873405052758"><ele>350.0</ele><time>2026-05-01T10:48:48Z</time></trkpt><trkpt lat="42.57304132846055" lon="8.898789664676006"><ele>352.5</ele><time>2026-05-01T10:48:49Z</time></trkpt><trkpt lat="42.57291989307891" lon="8.898677277632997"><ele>355.0</ele><time>2026-05-01T10:48:50Z</time></trkpt><trkpt lat="42.572812102031186" lon="8.898536007514545"><ele>355.66666666666663</ele><time>2026-05-01T10:48:51Z</time></trkpt><trkpt lat="42.572733420396865" lon="8.898359767843322"><ele>356.3333333333333</ele><time>2026-05-01T10:48:52Z</time></trkpt><trkpt lat="42.572642924951815" lon="8.898199101332924"><ele>357.0</ele><time>2026-05-01T10:48:53Z</time></trkpt><trkpt lat="42.57251572637821" lon="8.898080498222066"><ele>357.0</ele><time>2026-05-01T10:48:54Z</time></trkpt><trkpt lat="42.57239136083283" lon="8.897950505542772"><ele>357.0</ele><time>2026-05-01T10:48:55Z</time></trkpt><trkpt lat="42.572299407265234" lon="8.897774421448537"><ele>357.0</ele><time>2026-05-01T10:48:56Z</time></trkpt><trkpt lat="42.57220930993899" lon="8.897586484191747"><ele>362.5</ele><time>2026-05-01T10:48:57Z</time></trkpt><trkpt lat="42.571965669011284" lon="8.897262126789256"><ele>368.0</ele><time>2026-05-01T10:48:59Z</time></trkpt><trkpt lat="42.57181030129733" lon="8.89715326896343"><ele>368.0</ele><time>2026-05-01T10:49:00Z</time></trkpt><trkpt lat="42.57164656858136" lon="8.89708865188364"><ele>368.0</ele><time>2026-05-01T10:49:01Z</time></trkpt><trkpt lat="42.571478915517496" lon="8.897043074428183"><ele>368.0</ele><time>2026-05-01T10:49:02Z</time></trkpt><trkpt lat="42.57130667829653" lon="8.897013587850546"><ele>368.6666666666667</ele><time>2026-05-01T10:49:03Z</time></trkpt><trkpt lat="42.571130155637235" lon="8.897006130355628"><ele>369.3333333333333</ele><time>2026-05-01T10:49:04Z</time></trkpt><trkpt lat="42.57095202220527" lon="8.896998805988686"><ele>370.0</ele><time>2026-05-01T10:49:05Z</time></trkpt><trkpt lat="42.57077421158433" lon="8.897008107029698"><ele>370.0</ele><time>2026-05-01T10:49:06Z</time></trkpt><trkpt lat="42.570611358487064" lon="8.897035526148608"><ele>370.0</ele><time>2026-05-01T10:49:07Z</time></trkpt><trkpt lat="42.57046586431464" lon="8.897105566560356"><ele>370.0</ele><time>2026-05-01T10:49:08Z</time></trkpt><trkpt lat="42.57032247719566" lon="8.897198993879593"><ele>369.2</ele><time>2026-05-01T10:49:09Z</time></trkpt><trkpt lat="42.570200638689556" lon="8.897278465525014"><ele>368.4</ele><time>2026-05-01T10:49:10Z</time></trkpt><trkpt lat="42.57009802933769" lon="8.897306529311736"><ele>367.6</ele><time>2026-05-01T10:49:11Z</time></trkpt><trkpt lat="42.57002316941975" lon="8.89726782238395"><ele>366.8</ele><time>2026-05-01T10:49:12Z</time></trkpt><trkpt lat="42.56996702949235" lon="8.897172066886244"><ele>366.0</ele><time>2026-05-01T10:49:13Z</time></trkpt><trkpt lat="42.569896086261274" lon="8.897043906536872"><ele>366.0</ele><time>2026-05-01T10:49:14Z</time></trkpt><trkpt lat="42.56979987850861" lon="8.896920476934925"><ele>366.0</ele><time>2026-05-01T10:49:15Z</time></trkpt><trkpt lat="42.569688487802836" lon="8.896796906586596"><ele>366.0</ele><time>2026-05-01T10:49:16Z</time></trkpt><trkpt lat="42.5695715834309" lon="8.896663035036031"><ele>366.0</ele><time>2026-05-01T10:49:17Z</time></trkpt><trkpt lat="42.569462234503895" lon="8.896531889394309"><ele>365.0</ele><time>2026-05-01T10:49:18Z</time></trkpt><trkpt lat="42.569314400041534" lon="8.896342706655608"><ele>364.0</ele><time>2026-05-01T10:49:27Z</time></trkpt><trkpt lat="42.56924879910547" lon="8.896264804456216"><ele>363.0</ele><time>2026-05-01T10:49:28Z</time></trkpt><trkpt lat="42.56919436310999" lon="8.896168708341222"><ele>362.0</ele><time>2026-05-01T10:49:29Z</time></trkpt><trkpt lat="42.56916093443542" lon="8.896061967033848"><ele>362.0</ele><time>2026-05-01T10:49:30Z</time></trkpt><trkpt lat="42.569123162853955" lon="8.89596283666029"><ele>362.0</ele><time>2026-05-01T10:49:31Z</time></trkpt><trkpt lat="42.569085836548744" lon="8.89587164842711"><ele>362.0</ele><time>2026-05-01T10:49:32.001Z</time></trkpt><trkpt lat="42.56905402623204" lon="8.89577676427995"><ele>362.0</ele><time>2026-05-01T10:49:33.001Z</time></trkpt><trkpt lat="42.56901888134357" lon="8.895679065432812"><ele>362.0</ele><time>2026-05-01T10:49:34.001Z</time></trkpt><trkpt lat="42.56898674190117" lon="8.895585150145761"><ele>362.0</ele><time>2026-05-01T10:49:35.001Z</time></trkpt><trkpt lat="42.56895167130191" lon="8.895491361896006"><ele>362.40000000000003</ele><time>2026-05-01T10:49:36.001Z</time></trkpt><trkpt lat="42.56891929273757" lon="8.895387721710168"><ele>362.8</ele><time>2026-05-01T10:49:37.001Z</time></trkpt><trkpt lat="42.56888923745524" lon="8.895278241620224"><ele>363.2</ele><time>2026-05-01T10:49:38.001Z</time></trkpt><trkpt lat="42.56887672220375" lon="8.895167463564759"><ele>363.6</ele><time>2026-05-01T10:49:39.001Z</time></trkpt><trkpt lat="42.56888191887733" lon="8.894929615956176"><ele>364.0</ele><time>2026-05-01T10:49:41.001Z</time></trkpt><trkpt lat="42.56888941891495" lon="8.894806166330497"><ele>363.2</ele><time>2026-05-01T10:49:42.001Z</time></trkpt><trkpt lat="42.56888922086623" lon="8.894675473778747"><ele>362.4</ele><time>2026-05-01T10:49:43Z</time></trkpt><trkpt lat="42.568873198635586" lon="8.89455037620083"><ele>361.6</ele><time>2026-05-01T10:49:44Z</time></trkpt><trkpt lat="42.56882582607957" lon="8.894439833459087"><ele>360.8</ele><time>2026-05-01T10:49:45Z</time></trkpt><trkpt lat="42.56875392021128" lon="8.8943492438997"><ele>360.0</ele><time>2026-05-01T10:49:46Z</time></trkpt><trkpt lat="42.56866354354696" lon="8.894267038965738"><ele>365.0</ele><time>2026-05-01T10:49:47Z</time></trkpt><trkpt lat="42.56858126046054" lon="8.894165352742691"><ele>370.0</ele><time>2026-05-01T10:49:48Z</time></trkpt><trkpt lat="42.56850986433846" lon="8.89404045241168"><ele>375.0</ele><time>2026-05-01T10:49:49Z</time></trkpt><trkpt lat="42.568445236312414" lon="8.8939195327789"><ele>380.0</ele><time>2026-05-01T10:49:50Z</time></trkpt><trkpt lat="42.56841314904326" lon="8.893790122543223"><ele>385.0</ele><time>2026-05-01T10:49:51Z</time></trkpt><trkpt lat="42.56842444810493" lon="8.893647456471987"><ele>385.0</ele><time>2026-05-01T10:49:52Z</time></trkpt><trkpt lat="42.56845401522919" lon="8.893500627830461"><ele>385.0</ele><time>2026-05-01T10:49:53Z</time></trkpt><trkpt lat="42.568508101631714" lon="8.893367540202599"><ele>385.0</ele><time>2026-05-01T10:49:54Z</time></trkpt><trkpt lat="42.56859567419207" lon="8.893266928933592"><ele>385.0</ele><time>2026-05-01T10:49:55Z</time></trkpt><trkpt lat="42.56869938706773" lon="8.893187229421397"><ele>381.6</ele><time>2026-05-01T10:49:56Z</time></trkpt><trkpt lat="42.5687910824354" lon="8.893101278837108"><ele>378.2</ele><time>2026-05-01T10:49:57Z</time></trkpt><trkpt lat="42.56886960829387" lon="8.893003945436753"><ele>374.79999999999995</ele><time>2026-05-01T10:49:58Z</time></trkpt><trkpt lat="42.568914265178904" lon="8.892870516657897"><ele>371.4</ele><time>2026-05-01T10:49:59Z</time></trkpt><trkpt lat="42.56892532864158" lon="8.892714049328028"><ele>368.0</ele><time>2026-05-01T10:50:00Z</time></trkpt><trkpt lat="42.56885853831524" lon="8.89240293507909"><ele>368.0</ele><time>2026-05-01T10:50:02Z</time></trkpt><trkpt lat="42.568807181098286" lon="8.892247012139375"><ele>368.0</ele><time>2026-05-01T10:50:03Z</time></trkpt><trkpt lat="42.5687870024765" lon="8.892079088313263"><ele>368.0</ele><time>2026-05-01T10:50:04Z</time></trkpt><trkpt lat="42.568754839621484" lon="8.891908340386534"><ele>368.0</ele><time>2026-05-01T10:50:05Z</time></trkpt><trkpt lat="42.568695411917474" lon="8.891744927420133"><ele>369.75</ele><time>2026-05-01T10:50:06Z</time></trkpt><trkpt lat="42.568665801652585" lon="8.89157273710301"><ele>371.5</ele><time>2026-05-01T10:50:07Z</time></trkpt><trkpt lat="42.56869643204722" lon="8.891398829146343"><ele>373.25</ele><time>2026-05-01T10:50:08Z</time></trkpt><trkpt lat="42.568773914619555" lon="8.891239418585492"><ele>375.0</ele><time>2026-05-01T10:50:09Z</time></trkpt><trkpt lat="42.568860869290546" lon="8.891084509043973"><ele>377.75</ele><time>2026-05-01T10:50:10Z</time></trkpt><trkpt lat="42.56891573037421" lon="8.89089870130658"><ele>380.5</ele><time>2026-05-01T10:50:11Z</time></trkpt><trkpt lat="42.56895579788108" lon="8.89070445831994"><ele>383.25</ele><time>2026-05-01T10:50:12Z</time></trkpt><trkpt lat="42.569006633251504" lon="8.890514485449923"><ele>386.0</ele><time>2026-05-01T10:50:13Z</time></trkpt><trkpt lat="42.56907872186917" lon="8.890343052148335"><ele>386.0</ele><time>2026-05-01T10:50:14Z</time></trkpt><trkpt lat="42.56918280786278" lon="8.890199118537666"><ele>386.0</ele><time>2026-05-01T10:50:15Z</time></trkpt><trkpt lat="42.56930343522782" lon="8.890074571848352"><ele>386.0</ele><time>2026-05-01T10:50:16Z</time></trkpt><trkpt lat="42.569400884826564" lon="8.889936594835255"><ele>386.0</ele><time>2026-05-01T10:50:17Z</time></trkpt><trkpt lat="42.56945696969679" lon="8.889795710478024"><ele>389.25</ele><time>2026-05-01T10:50:18Z</time></trkpt><trkpt lat="42.56946759781464" lon="8.889656361782771"><ele>392.5</ele><time>2026-05-01T10:50:19Z</time></trkpt><trkpt lat="42.56944004562519" lon="8.889511195610996"><ele>395.75</ele><time>2026-05-01T10:50:20Z</time></trkpt><trkpt lat="42.56939669840086" lon="8.889346819129866"><ele>399.0</ele><time>2026-05-01T10:50:21Z</time></trkpt><trkpt lat="42.56933186198186" lon="8.888973467158413"><ele>400.5</ele><time>2026-05-01T10:50:23Z</time></trkpt><trkpt lat="42.5692844799095" lon="8.888785572769098"><ele>402.0</ele><time>2026-05-01T10:50:24Z</time></trkpt><trkpt lat="42.5691792843058" lon="8.888397078712048"><ele>402.0</ele><time>2026-05-01T10:50:26Z</time></trkpt><trkpt lat="42.56914053841181" lon="8.888188498077168"><ele>402.0</ele><time>2026-05-01T10:50:27Z</time></trkpt><trkpt lat="42.569112102002066" lon="8.887975874962937"><ele>402.0</ele><time>2026-05-01T10:50:28Z</time></trkpt><trkpt lat="42.569088971127094" lon="8.887758147064135"><ele>402.66666666666663</ele><time>2026-05-01T10:50:29Z</time></trkpt><trkpt lat="42.569057315109085" lon="8.887534488430688"><ele>403.3333333333333</ele><time>2026-05-01T10:50:30Z</time></trkpt><trkpt lat="42.56902463204057" lon="8.887326539521315"><ele>404.0</ele><time>2026-05-01T10:50:31Z</time></trkpt><trkpt lat="42.569002591586866" lon="8.887135748017842"><ele>404.0</ele><time>2026-05-01T10:50:32Z</time></trkpt><trkpt lat="42.5690062130619" lon="8.88693577910249"><ele>404.0</ele><time>2026-05-01T10:50:33Z</time></trkpt><trkpt lat="42.56903995841734" lon="8.886736531854979"><ele>404.0</ele><time>2026-05-01T10:50:34Z</time></trkpt><trkpt lat="42.56908551790191" lon="8.886532824385835"><ele>405.25</ele><time>2026-05-01T10:50:35Z</time></trkpt><trkpt lat="42.56913624883801" lon="8.886325572989367"><ele>406.5</ele><time>2026-05-01T10:50:36Z</time></trkpt><trkpt lat="42.56917999388659" lon="8.886152982873048"><ele>407.75</ele><time>2026-05-01T10:50:37Z</time></trkpt><trkpt lat="42.56919575734756" lon="8.885992095239773"><ele>409.0</ele><time>2026-05-01T10:50:38Z</time></trkpt><trkpt lat="42.56917446158122" lon="8.885820106674801"><ele>410.0</ele><time>2026-05-01T10:50:39Z</time></trkpt><trkpt lat="42.56910739494103" lon="8.885639941538"><ele>411.0</ele><time>2026-05-01T10:50:40Z</time></trkpt><trkpt lat="42.56901248217651" lon="8.885468374219968"><ele>412.0</ele><time>2026-05-01T10:50:41Z</time></trkpt><trkpt lat="42.56890334406212" lon="8.88529285055926"><ele>420.5</ele><time>2026-05-01T10:50:42Z</time></trkpt><trkpt lat="42.56868755547007" lon="8.884916784389695"><ele>429.0</ele><time>2026-05-01T10:50:44Z</time></trkpt><trkpt lat="42.56857807843644" lon="8.88472877777417"><ele>429.0</ele><time>2026-05-01T10:50:45Z</time></trkpt><trkpt lat="42.56847979149359" lon="8.884552412575818"><ele>429.0</ele><time>2026-05-01T10:50:46Z</time></trkpt><trkpt lat="42.56839008440151" lon="8.88438836144421"><ele>429.0</ele><time>2026-05-01T10:50:47Z</time></trkpt><trkpt lat="42.56827332088516" lon="8.884263261552043"><ele>425.33333333333337</ele><time>2026-05-01T10:50:48Z</time></trkpt><trkpt lat="42.56812861996369" lon="8.884154410219809"><ele>421.6666666666667</ele><time>2026-05-01T10:50:49Z</time></trkpt><trkpt lat="42.567981528258066" lon="8.88401325647416"><ele>418.0</ele><time>2026-05-01T10:50:50Z</time></trkpt><trkpt lat="42.567840924973495" lon="8.88385575517926"><ele>421.6666666666667</ele><time>2026-05-01T10:50:51Z</time></trkpt><trkpt lat="42.56769364535017" lon="8.883701923895783"><ele>425.33333333333337</ele><time>2026-05-01T10:50:52Z</time></trkpt><trkpt lat="42.56754294985084" lon="8.88354626624508"><ele>429.0</ele><time>2026-05-01T10:50:53Z</time></trkpt><trkpt lat="42.567400960103775" lon="8.883388842086418"><ele>429.0</ele><time>2026-05-01T10:50:54Z</time></trkpt><trkpt lat="42.56726874778449" lon="8.88321460716306"><ele>429.0</ele><time>2026-05-01T10:50:55Z</time></trkpt><trkpt lat="42.56714453974118" lon="8.883016958988927"><ele>429.0</ele><time>2026-05-01T10:50:56Z</time></trkpt><trkpt lat="42.567021279194186" lon="8.882820392610848"><ele>432.66666666666663</ele><time>2026-05-01T10:50:57Z</time></trkpt><trkpt lat="42.5669049123753" lon="8.882617247688897"><ele>436.3333333333333</ele><time>2026-05-01T10:50:58Z</time></trkpt><trkpt lat="42.566781427789024" lon="8.882420319673008"><ele>440.0</ele><time>2026-05-01T10:50:59Z</time></trkpt><trkpt lat="42.56665678509339" lon="8.882245919705216"><ele>440.0</ele><time>2026-05-01T10:51:00Z</time></trkpt><trkpt lat="42.56654146474934" lon="8.882101623592012"><ele>440.0</ele><time>2026-05-01T10:51:01Z</time></trkpt><trkpt lat="42.566409528624085" lon="8.881994234904168"><ele>440.0</ele><time>2026-05-01T10:51:02Z</time></trkpt><trkpt lat="42.566255357945664" lon="8.881925463547514"><ele>448.5</ele><time>2026-05-01T10:51:03Z</time></trkpt><trkpt lat="42.56592088952031" lon="8.881826750375998"><ele>457.0</ele><time>2026-05-01T10:51:05Z</time></trkpt><trkpt lat="42.56578127120461" lon="8.881768051881558"><ele>454.0</ele><time>2026-05-01T10:51:06Z</time></trkpt><trkpt lat="42.565675642749696" lon="8.88168284660802"><ele>451.0</ele><time>2026-05-01T10:51:07Z</time></trkpt><trkpt lat="42.56562038842836" lon="8.881554918405426"><ele>448.0</ele><time>2026-05-01T10:51:08Z</time></trkpt><trkpt lat="42.565577260228906" lon="8.88139304227713"><ele>445.0</ele><time>2026-05-01T10:51:09Z</time></trkpt><trkpt lat="42.565537823178495" lon="8.881195898911187"><ele>445.0</ele><time>2026-05-01T10:51:10Z</time></trkpt><trkpt lat="42.56547608087092" lon="8.880998794241693"><ele>445.0</ele><time>2026-05-01T10:51:11Z</time></trkpt><trkpt lat="42.5654085074758" lon="8.880793111905275"><ele>445.0</ele><time>2026-05-01T10:51:12Z</time></trkpt><trkpt lat="42.565350180268425" lon="8.880581481292197"><ele>450.6666666666667</ele><time>2026-05-01T10:51:13Z</time></trkpt><trkpt lat="42.565315203940884" lon="8.880357038339495"><ele>456.33333333333337</ele><time>2026-05-01T10:51:14Z</time></trkpt><trkpt lat="42.56528983758428" lon="8.880128534123163"><ele>462.0</ele><time>2026-05-01T10:51:15Z</time></trkpt><trkpt lat="42.56523502426898" lon="8.879911309475668"><ele>462.0</ele><time>2026-05-01T10:51:16Z</time></trkpt><trkpt lat="42.56514930485368" lon="8.879709954711945"><ele>462.0</ele><time>2026-05-01T10:51:17Z</time></trkpt><trkpt lat="42.565050165063354" lon="8.879521719735298"><ele>462.0</ele><time>2026-05-01T10:51:18Z</time></trkpt><trkpt lat="42.56498389840692" lon="8.879324610059241"><ele>462.0</ele><time>2026-05-01T10:51:19Z</time></trkpt><trkpt lat="42.5649672464673" lon="8.879141608227355"><ele>462.0</ele><time>2026-05-01T10:51:20Z</time></trkpt><trkpt lat="42.56498301591677" lon="8.878973916356646"><ele>462.0</ele><time>2026-05-01T10:51:21Z</time></trkpt><trkpt lat="42.56501623534043" lon="8.878807783499758"><ele>462.0</ele><time>2026-05-01T10:51:22Z</time></trkpt><trkpt lat="42.56503343567923" lon="8.878641472706335"><ele>462.0</ele><time>2026-05-01T10:51:23Z</time></trkpt><trkpt lat="42.56499764188017" lon="8.878466708169674"><ele>462.0</ele><time>2026-05-01T10:51:24Z</time></trkpt><trkpt lat="42.564866398362966" lon="8.878102210286823"><ele>462.0</ele><time>2026-05-01T10:51:26Z</time></trkpt><trkpt lat="42.56485359772584" lon="8.877890228758721"><ele>462.0</ele><time>2026-05-01T10:51:27Z</time></trkpt><trkpt lat="42.564860939076596" lon="8.877669251799599"><ele>462.0</ele><time>2026-05-01T10:51:28Z</time></trkpt><trkpt lat="42.56482211530067" lon="8.877450863010841"><ele>462.0</ele><time>2026-05-01T10:51:29Z</time></trkpt><trkpt lat="42.564762099916145" lon="8.877234374360478"><ele>462.0</ele><time>2026-05-01T10:51:30Z</time></trkpt><trkpt lat="42.56472251165102" lon="8.8770103672585"><ele>462.0</ele><time>2026-05-01T10:51:31Z</time></trkpt><trkpt lat="42.56470314989115" lon="8.876788878334787"><ele>462.0</ele><time>2026-05-01T10:51:32Z</time></trkpt><trkpt lat="42.56471054353332" lon="8.876594126213437"><ele>462.33333333333337</ele><time>2026-05-01T10:51:33Z</time></trkpt><trkpt lat="42.564748196272575" lon="8.87639923770953"><ele>462.6666666666667</ele><time>2026-05-01T10:51:34Z</time></trkpt><trkpt lat="42.56481571434903" lon="8.87619993318438"><ele>463.0</ele><time>2026-05-01T10:51:35Z</time></trkpt><trkpt lat="42.56488102168394" lon="8.875982200337214"><ele>464.6666666666667</ele><time>2026-05-01T10:51:36Z</time></trkpt><trkpt lat="42.564937555187505" lon="8.875750553228265"><ele>466.33333333333337</ele><time>2026-05-01T10:51:37Z</time></trkpt><trkpt lat="42.56499204090632" lon="8.875520120195073"><ele>468.0</ele><time>2026-05-01T10:51:38Z</time></trkpt><trkpt lat="42.56504779886199" lon="8.875298860652688"><ele>473.0</ele><time>2026-05-01T10:51:39Z</time></trkpt><trkpt lat="42.565084386364546" lon="8.875076771813854"><ele>478.0</ele><time>2026-05-01T10:51:40Z</time></trkpt><trkpt lat="42.56508353621949" lon="8.874843860265543"><ele>483.0</ele><time>2026-05-01T10:51:41Z</time></trkpt><trkpt lat="42.56506469803214" lon="8.874634205841797"><ele>483.0</ele><time>2026-05-01T10:51:42Z</time></trkpt><trkpt lat="42.565100836017635" lon="8.874448857930913"><ele>483.0</ele><time>2026-05-01T10:51:43Z</time></trkpt><trkpt lat="42.565192120168795" lon="8.874287963268802"><ele>483.0</ele><time>2026-05-01T10:51:44Z</time></trkpt><trkpt lat="42.56526497997769" lon="8.874113799884084"><ele>483.0</ele><time>2026-05-01T10:51:45Z</time></trkpt><trkpt lat="42.56534433344263" lon="8.8737617804715"><ele>481.75</ele><time>2026-05-01T10:51:47Z</time></trkpt><trkpt lat="42.56543161920137" lon="8.873652731125508"><ele>480.5</ele><time>2026-05-01T10:51:48Z</time></trkpt><trkpt lat="42.56554126189624" lon="8.873621889256357"><ele>479.25</ele><time>2026-05-01T10:51:49Z</time></trkpt><trkpt lat="42.565666419356475" lon="8.873666868386435"><ele>478.0</ele><time>2026-05-01T10:51:50Z</time></trkpt><trkpt lat="42.565787779102635" lon="8.873750869849212"><ele>478.0</ele><time>2026-05-01T10:51:51Z</time></trkpt><trkpt lat="42.56590096267356" lon="8.873828881327938"><ele>477.99999999999994</ele><time>2026-05-01T10:51:52Z</time></trkpt><trkpt lat="42.56599946891262" lon="8.873861488900301"><ele>477.99999999999994</ele><time>2026-05-01T10:51:53Z</time></trkpt><trkpt lat="42.56609120529262" lon="8.873834261301443"><ele>478.0</ele><time>2026-05-01T10:51:54Z</time></trkpt><trkpt lat="42.56616483286337" lon="8.8737378608335"><ele>478.0</ele><time>2026-05-01T10:51:55Z</time></trkpt><trkpt lat="42.56621425149021" lon="8.873574877066343"><ele>477.25</ele><time>2026-05-01T10:51:56Z</time></trkpt><trkpt lat="42.56625095112481" lon="8.873395406253971"><ele>476.5</ele><time>2026-05-01T10:51:57Z</time></trkpt><trkpt lat="42.56629357519647" lon="8.873212850132365"><ele>475.75</ele><time>2026-05-01T10:51:58Z</time></trkpt><trkpt lat="42.56633773324108" lon="8.873015294007297"><ele>475.0</ele><time>2026-05-01T10:51:59Z</time></trkpt><trkpt lat="42.56637444135247" lon="8.87280970004302"><ele>478.33333333333337</ele><time>2026-05-01T10:52:00Z</time></trkpt><trkpt lat="42.5663904060089" lon="8.872587831325355"><ele>481.66666666666663</ele><time>2026-05-01T10:52:01Z</time></trkpt><trkpt lat="42.56638874314635" lon="8.87236454544858"><ele>485.0</ele><time>2026-05-01T10:52:02Z</time></trkpt><trkpt lat="42.566384369025364" lon="8.872153088965712"><ele>485.0</ele><time>2026-05-01T10:52:03Z</time></trkpt><trkpt lat="42.56639184397597" lon="8.87195819937683"><ele>485.0</ele><time>2026-05-01T10:52:04Z</time></trkpt><trkpt lat="42.56644476884766" lon="8.871794515881186"><ele>485.0</ele><time>2026-05-01T10:52:05Z</time></trkpt><trkpt lat="42.56652816628503" lon="8.87165091701647"><ele>485.0</ele><time>2026-05-01T10:52:06Z</time></trkpt><trkpt lat="42.56660679957284" lon="8.871295091831543"><ele>488.0</ele><time>2026-05-01T10:52:08Z</time></trkpt><trkpt lat="42.56660455269902" lon="8.871086195643377"><ele>491.0</ele><time>2026-05-01T10:52:09Z</time></trkpt><trkpt lat="42.56660745847426" lon="8.870878140994357"><ele>494.0</ele><time>2026-05-01T10:52:10Z</time></trkpt><trkpt lat="42.56661706497257" lon="8.870667440403494"><ele>495.75</ele><time>2026-05-01T10:52:11Z</time></trkpt><trkpt lat="42.566625003754986" lon="8.870468177484813"><ele>497.5</ele><time>2026-05-01T10:52:12Z</time></trkpt><trkpt lat="42.56663279912725" lon="8.870288983334218"><ele>499.25</ele><time>2026-05-01T10:52:13Z</time></trkpt><trkpt lat="42.566620547830006" lon="8.87012768467815"><ele>501.0</ele><time>2026-05-01T10:52:14Z</time></trkpt><trkpt lat="42.56657658907755" lon="8.86999460204617"><ele>502.25</ele><time>2026-05-01T10:52:15Z</time></trkpt><trkpt lat="42.56648886481575" lon="8.869909270945888"><ele>503.5</ele><time>2026-05-01T10:52:16Z</time></trkpt><trkpt lat="42.56636742055973" lon="8.869840008012481"><ele>504.75</ele><time>2026-05-01T10:52:17Z</time></trkpt><trkpt lat="42.56624029862009" lon="8.869764462255118"><ele>506.0</ele><time>2026-05-01T10:52:18Z</time></trkpt><trkpt lat="42.56610848106912" lon="8.869667809408693"><ele>510.0</ele><time>2026-05-01T10:52:19Z</time></trkpt><trkpt lat="42.56598082706459" lon="8.869568105723504"><ele>514.0</ele><time>2026-05-01T10:52:20Z</time></trkpt><trkpt lat="42.565844629640296" lon="8.869472955735805"><ele>518.0</ele><time>2026-05-01T10:52:21Z</time></trkpt><trkpt lat="42.56569169148433" lon="8.869407221867071"><ele>518.0</ele><time>2026-05-01T10:52:22Z</time></trkpt><trkpt lat="42.56553252986527" lon="8.869350892486594"><ele>518.0</ele><time>2026-05-01T10:52:23Z</time></trkpt><trkpt lat="42.56538263972348" lon="8.869267894840114"><ele>518.0</ele><time>2026-05-01T10:52:24Z</time></trkpt><trkpt lat="42.56523851649676" lon="8.869163397263238"><ele>515.6666666666666</ele><time>2026-05-01T10:52:25Z</time></trkpt><trkpt lat="42.56509298908026" lon="8.869058084383045"><ele>513.3333333333334</ele><time>2026-05-01T10:52:26Z</time></trkpt><trkpt lat="42.564945255891736" lon="8.86896928221942"><ele>511.0</ele><time>2026-05-01T10:52:27Z</time></trkpt><trkpt lat="42.564649821737916" lon="8.868755673948469"><ele>512.0</ele><time>2026-05-01T10:52:29Z</time></trkpt><trkpt lat="42.56451710670828" lon="8.86862308250686"><ele>513.0</ele><time>2026-05-01T10:52:30Z</time></trkpt><trkpt lat="42.56439456137688" lon="8.868475812483515"><ele>514.0</ele><time>2026-05-01T10:52:31Z</time></trkpt><trkpt lat="42.56429081404447" lon="8.868305575823454"><ele>514.0</ele><time>2026-05-01T10:52:32Z</time></trkpt><trkpt lat="42.56418855785121" lon="8.868129394332332"><ele>514.0</ele><time>2026-05-01T10:52:33Z</time></trkpt><trkpt lat="42.564075361309456" lon="8.867960807193203"><ele>514.0</ele><time>2026-05-01T10:52:34Z</time></trkpt><trkpt lat="42.56396040131988" lon="8.867805895063693"><ele>514.0</ele><time>2026-05-01T10:52:35Z</time></trkpt><trkpt lat="42.56385443378115" lon="8.86765421636822"><ele>514.0</ele><time>2026-05-01T10:52:36Z</time></trkpt><trkpt lat="42.5637450762284" lon="8.867508888160112"><ele>514.0</ele><time>2026-05-01T10:52:37Z</time></trkpt><trkpt lat="42.56364133789684" lon="8.867387774938829"><ele>514.0</ele><time>2026-05-01T10:52:38Z</time></trkpt><trkpt lat="42.56351566241453" lon="8.86730292185906"><ele>514.6666666666667</ele><time>2026-05-01T10:52:39Z</time></trkpt><trkpt lat="42.563364792882155" lon="8.867252724839123"><ele>515.3333333333334</ele><time>2026-05-01T10:52:40Z</time></trkpt><trkpt lat="42.56320844297141" lon="8.86720641187083"><ele>516.0</ele><time>2026-05-01T10:52:41Z</time></trkpt><trkpt lat="42.5630485584167" lon="8.86716489958584"><ele>516.0</ele><time>2026-05-01T10:52:42Z</time></trkpt><trkpt lat="42.562893055891294" lon="8.867126949961298"><ele>516.0</ele><time>2026-05-01T10:52:43Z</time></trkpt><trkpt lat="42.562748612981494" lon="8.867084338705823"><ele>516.0</ele><time>2026-05-01T10:52:44Z</time></trkpt><trkpt lat="42.56261918705238" lon="8.8670606852107"><ele>516.0</ele><time>2026-05-01T10:52:45Z</time></trkpt><trkpt lat="42.56249375298091" lon="8.867074725679641"><ele>516.6666666666666</ele><time>2026-05-01T10:52:46Z</time></trkpt><trkpt lat="42.562369210730914" lon="8.86713999792046"><ele>517.3333333333333</ele><time>2026-05-01T10:52:47Z</time></trkpt><trkpt lat="42.56227164356588" lon="8.867259517711494"><ele>518.0</ele><time>2026-05-01T10:52:48Z</time></trkpt><trkpt lat="42.56217571986855" lon="8.867506731454974"><ele>518.0</ele><time>2026-05-01T10:52:50Z</time></trkpt><trkpt lat="42.562106566089" lon="8.867564318321467"><ele>518.0</ele><time>2026-05-01T10:52:51Z</time></trkpt><trkpt lat="42.5620294247565" lon="8.867571632066625"><ele>518.0</ele><time>2026-05-01T10:52:52Z</time></trkpt><trkpt lat="42.56195839777729" lon="8.867572471482083"><ele>518.0</ele><time>2026-05-01T10:52:53Z</time></trkpt><trkpt lat="42.561882751724745" lon="8.867590914762577"><ele>518.0</ele><time>2026-05-01T10:52:54Z</time></trkpt><trkpt lat="42.56180095826578" lon="8.867630578990171"><ele>518.0</ele><time>2026-05-01T10:52:55Z</time></trkpt><trkpt lat="42.5617258508923" lon="8.867695633294975"><ele>518.5</ele><time>2026-05-01T10:52:56Z</time></trkpt><trkpt lat="42.561660700596" lon="8.867774894997495"><ele>519.0</ele><time>2026-05-01T10:52:57Z</time></trkpt><trkpt lat="42.56161995902563" lon="8.867865990570866"><ele>519.5</ele><time>2026-05-01T10:52:58Z</time></trkpt><trkpt lat="42.56159772245106" lon="8.867975325429649"><ele>520.0</ele><time>2026-05-01T10:52:59Z</time></trkpt><trkpt lat="42.56158886983676" lon="8.868097157461607"><ele>520.5</ele><time>2026-05-01T10:53:00Z</time></trkpt><trkpt lat="42.56158120955375" lon="8.868216185532004"><ele>521.0</ele><time>2026-05-01T10:53:01Z</time></trkpt><trkpt lat="42.561570577557916" lon="8.868349808989096"><ele>522.2</ele><time>2026-05-01T10:53:02Z</time></trkpt><trkpt lat="42.561566733504705" lon="8.86848771580513"><ele>523.4000000000001</ele><time>2026-05-01T10:53:03Z</time></trkpt><trkpt lat="42.56155577377232" lon="8.868628488712922"><ele>524.6</ele><time>2026-05-01T10:53:04Z</time></trkpt><trkpt lat="42.56154020852816" lon="8.868774310652052"><ele>525.8000000000001</ele><time>2026-05-01T10:53:05Z</time></trkpt><trkpt lat="42.5615193295119" lon="8.868919417412643"><ele>527.0</ele><time>2026-05-01T10:53:06Z</time></trkpt><trkpt lat="42.561479897276726" lon="8.869058129513078"><ele>527.0</ele><time>2026-05-01T10:53:07Z</time></trkpt><trkpt lat="42.56141062724262" lon="8.869160269357375"><ele>527.0</ele><time>2026-05-01T10:53:08Z</time></trkpt><trkpt lat="42.56131493537639" lon="8.86923649227894"><ele>527.0</ele><time>2026-05-01T10:53:09Z</time></trkpt><trkpt lat="42.56108480012582" lon="8.869314900668595"><ele>527.8000000000001</ele><time>2026-05-01T10:53:11Z</time></trkpt><trkpt lat="42.56096808039184" lon="8.869335534099887"><ele>528.6</ele><time>2026-05-01T10:53:12Z</time></trkpt><trkpt lat="42.56084872006311" lon="8.869349842619505"><ele>529.4000000000001</ele><time>2026-05-01T10:53:13Z</time></trkpt><trkpt lat="42.560744313938216" lon="8.869357569538543"><ele>530.2</ele><time>2026-05-01T10:53:14Z</time></trkpt><trkpt lat="42.560652850950476" lon="8.86940676060342"><ele>531.0</ele><time>2026-05-01T10:53:15Z</time></trkpt><trkpt lat="42.56057761579805" lon="8.869498267001836"><ele>531.0</ele><time>2026-05-01T10:53:16Z</time></trkpt><trkpt lat="42.56053536406229" lon="8.869615199011866"><ele>531.0</ele><time>2026-05-01T10:53:17Z</time></trkpt><trkpt lat="42.56052140466558" lon="8.86975147663458"><ele>531.0</ele><time>2026-05-01T10:53:18Z</time></trkpt><trkpt lat="42.56051874396894" lon="8.86989280683296"><ele>531.0</ele><time>2026-05-01T10:53:19Z</time></trkpt><trkpt lat="42.56048698919521" lon="8.87000389299644"><ele>531.0</ele><time>2026-05-01T10:53:20Z</time></trkpt><trkpt lat="42.56042757753247" lon="8.870080076416329"><ele>529.8</ele><time>2026-05-01T10:53:21Z</time></trkpt><trkpt lat="42.56035992234408" lon="8.870118100159974"><ele>528.6</ele><time>2026-05-01T10:53:22Z</time></trkpt><trkpt lat="42.56026859936831" lon="8.87013558369066"><ele>527.4</ele><time>2026-05-01T10:53:23Z</time></trkpt><trkpt lat="42.560166472224495" lon="8.870128800170669"><ele>526.2</ele><time>2026-05-01T10:53:24Z</time></trkpt><trkpt lat="42.56006253740938" lon="8.870096500426571"><ele>525.0</ele><time>2026-05-01T10:53:25Z</time></trkpt><trkpt lat="42.55996198471478" lon="8.87003011955839"><ele>525.0</ele><time>2026-05-01T10:53:26Z</time></trkpt><trkpt lat="42.55986626404393" lon="8.869944932203964"><ele>525.0</ele><time>2026-05-01T10:53:27Z</time></trkpt><trkpt lat="42.55976665922572" lon="8.869852569017372"><ele>525.0</ele><time>2026-05-01T10:53:28Z</time></trkpt><trkpt lat="42.559668233670145" lon="8.869769756926138"><ele>525.0</ele><time>2026-05-01T10:53:29Z</time></trkpt><trkpt lat="42.55957400421921" lon="8.869723630516338"><ele>525.75</ele><time>2026-05-01T10:53:30Z</time></trkpt><trkpt lat="42.55938671528765" lon="8.869813653382817"><ele>526.5</ele><time>2026-05-01T10:53:31.999Z</time></trkpt><trkpt lat="42.559308157091046" lon="8.869866840835076"><ele>527.25</ele><time>2026-05-01T10:53:32.999Z</time></trkpt><trkpt lat="42.55921799796367" lon="8.869856268803744"><ele>528.0</ele><time>2026-05-01T10:53:33.999Z</time></trkpt><trkpt lat="42.55913112482017" lon="8.869766705779769"><ele>528.0</ele><time>2026-05-01T10:53:34.999Z</time></trkpt><trkpt lat="42.55905450924357" lon="8.869660052811799"><ele>528.0</ele><time>2026-05-01T10:53:35.999Z</time></trkpt><trkpt lat="42.5589813594274" lon="8.86954354340912"><ele>528.0</ele><time>2026-05-01T10:53:36.999Z</time></trkpt><trkpt lat="42.55890087291168" lon="8.86942312867799"><ele>528.0</ele><time>2026-05-01T10:53:37.999Z</time></trkpt><trkpt lat="42.55881214197902" lon="8.869320087577679"><ele>528.1999999999999</ele><time>2026-05-01T10:53:38.999Z</time></trkpt><trkpt lat="42.55871492280531" lon="8.869254732498254"><ele>528.4</ele><time>2026-05-01T10:53:39.999Z</time></trkpt><trkpt lat="42.55862206577197" lon="8.869268165002081"><ele>528.5999999999999</ele><time>2026-05-01T10:53:40.999Z</time></trkpt><trkpt lat="42.558526751684184" lon="8.869311010053616"><ele>528.8</ele><time>2026-05-01T10:53:41.999Z</time></trkpt><trkpt lat="42.558429136974496" lon="8.869362987905259"><ele>529.0</ele><time>2026-05-01T10:53:42.999Z</time></trkpt><trkpt lat="42.55832277696542" lon="8.869413094927271"><ele>530.75</ele><time>2026-05-01T10:53:44Z</time></trkpt><trkpt lat="42.5582130415708" lon="8.8694607962437"><ele>532.5</ele><time>2026-05-01T10:53:45Z</time></trkpt><trkpt lat="42.55810518193679" lon="8.86948899305747"><ele>534.25</ele><time>2026-05-01T10:53:46Z</time></trkpt><trkpt lat="42.55798706054887" lon="8.869500535800984"><ele>536.0</ele><time>2026-05-01T10:53:47Z</time></trkpt><trkpt lat="42.55787263911005" lon="8.869492622102387"><ele>537.0</ele><time>2026-05-01T10:53:48Z</time></trkpt><trkpt lat="42.557753436773716" lon="8.869479535409369"><ele>538.0</ele><time>2026-05-01T10:53:49Z</time></trkpt><trkpt lat="42.55763073409309" lon="8.869457776365389"><ele>539.0</ele><time>2026-05-01T10:53:50Z</time></trkpt><trkpt lat="42.55750876632725" lon="8.869421669490762"><ele>540.0</ele><time>2026-05-01T10:53:51Z</time></trkpt><trkpt lat="42.557286420313105" lon="8.869282637544584"><ele>539.75</ele><time>2026-05-01T10:53:53Z</time></trkpt><trkpt lat="42.55719053432015" lon="8.86918402540516"><ele>539.5</ele><time>2026-05-01T10:53:54Z</time></trkpt><trkpt lat="42.557104377210564" lon="8.869057858805762"><ele>539.25</ele><time>2026-05-01T10:53:55Z</time></trkpt><trkpt lat="42.55704206620377" lon="8.868913230511382"><ele>539.0</ele><time>2026-05-01T10:53:56Z</time></trkpt><trkpt lat="42.55697885015311" lon="8.868767184982234"><ele>539.0</ele><time>2026-05-01T10:53:57Z</time></trkpt><trkpt lat="42.556902148404866" lon="8.868642270899876"><ele>539.0</ele><time>2026-05-01T10:53:58Z</time></trkpt><trkpt lat="42.55681804099962" lon="8.868544323191397"><ele>539.0</ele><time>2026-05-01T10:53:59Z</time></trkpt><trkpt lat="42.55672746106273" lon="8.868459669900664"><ele>539.0</ele><time>2026-05-01T10:54:00Z</time></trkpt><trkpt lat="42.556627983350765" lon="8.868396699075225"><ele>536.75</ele><time>2026-05-01T10:54:01Z</time></trkpt><trkpt lat="42.55652033571872" lon="8.868347055357805"><ele>534.5</ele><time>2026-05-01T10:54:02Z</time></trkpt><trkpt lat="42.55640834647652" lon="8.868298042466845"><ele>532.25</ele><time>2026-05-01T10:54:03Z</time></trkpt><trkpt lat="42.5562986568752" lon="8.868240273156234"><ele>530.0</ele><time>2026-05-01T10:54:04Z</time></trkpt><trkpt lat="42.556197006089846" lon="8.868180171377984"><ele>530.0</ele><time>2026-05-01T10:54:05Z</time></trkpt><trkpt lat="42.55611136925384" lon="8.868119699886833"><ele>530.0</ele><time>2026-05-01T10:54:06Z</time></trkpt><trkpt lat="42.55605530436104" lon="8.868032973777408"><ele>530.0</ele><time>2026-05-01T10:54:07Z</time></trkpt><trkpt lat="42.556047334276066" lon="8.867912410217945"><ele>530.0</ele><time>2026-05-01T10:54:08Z</time></trkpt><trkpt lat="42.55606964056668" lon="8.867790670362906"><ele>530.0</ele><time>2026-05-01T10:54:09Z</time></trkpt><trkpt lat="42.556104996153366" lon="8.867660510053714"><ele>529.75</ele><time>2026-05-01T10:54:10Z</time></trkpt><trkpt lat="42.55615799889662" lon="8.867542615671708"><ele>529.5</ele><time>2026-05-01T10:54:11Z</time></trkpt><trkpt lat="42.55621018708082" lon="8.867421786746478"><ele>529.25</ele><time>2026-05-01T10:54:12Z</time></trkpt><trkpt lat="42.55627758721987" lon="8.867169879031488"><ele>529.0</ele><time>2026-05-01T10:54:14Z</time></trkpt><trkpt lat="42.556265940159825" lon="8.86702331087677"><ele>529.0</ele><time>2026-05-01T10:54:15Z</time></trkpt><trkpt lat="42.556234960646805" lon="8.866867630085267"><ele>529.0</ele><time>2026-05-01T10:54:16Z</time></trkpt><trkpt lat="42.55619632179448" lon="8.86669948860017"><ele>529.0</ele><time>2026-05-01T10:54:17Z</time></trkpt><trkpt lat="42.55616398091523" lon="8.866524182553224"><ele>529.0</ele><time>2026-05-01T10:54:18Z</time></trkpt><trkpt lat="42.55614234736969" lon="8.86634698676737"><ele>529.0</ele><time>2026-05-01T10:54:19Z</time></trkpt><trkpt lat="42.5561293557664" lon="8.866172560640416"><ele>529.0</ele><time>2026-05-01T10:54:20Z</time></trkpt><trkpt lat="42.55611445663373" lon="8.86600256790656"><ele>529.0</ele><time>2026-05-01T10:54:21Z</time></trkpt><trkpt lat="42.55609126890118" lon="8.865846980916519"><ele>529.0</ele><time>2026-05-01T10:54:22Z</time></trkpt><trkpt lat="42.55604014117311" lon="8.865717400087616"><ele>527.25</ele><time>2026-05-01T10:54:23Z</time></trkpt><trkpt lat="42.55596149607117" lon="8.865587007899581"><ele>525.5</ele><time>2026-05-01T10:54:24Z</time></trkpt><trkpt lat="42.555871399598814" lon="8.865452421414602"><ele>523.75</ele><time>2026-05-01T10:54:25Z</time></trkpt><trkpt lat="42.55578464121148" lon="8.865306776602448"><ele>522.0</ele><time>2026-05-01T10:54:26Z</time></trkpt><trkpt lat="42.5556965188045" lon="8.865156179248409"><ele>522.75</ele><time>2026-05-01T10:54:27Z</time></trkpt><trkpt lat="42.55559432237344" lon="8.865007779161648"><ele>523.5</ele><time>2026-05-01T10:54:28Z</time></trkpt><trkpt lat="42.55548229279502" lon="8.864875528008273"><ele>524.25</ele><time>2026-05-01T10:54:29Z</time></trkpt><trkpt lat="42.55535670832989" lon="8.864773883547972"><ele>525.0</ele><time>2026-05-01T10:54:30Z</time></trkpt><trkpt lat="42.555216052927605" lon="8.864683099604516"><ele>525.0</ele><time>2026-05-01T10:54:31Z</time></trkpt><trkpt lat="42.55507370494516" lon="8.864584204073898"><ele>525.0</ele><time>2026-05-01T10:54:32Z</time></trkpt><trkpt lat="42.55493676854272" lon="8.864477482590848"><ele>525.0</ele><time>2026-05-01T10:54:33Z</time></trkpt><trkpt lat="42.55467385075397" lon="8.864251980939464"><ele>524.25</ele><time>2026-05-01T10:54:35Z</time></trkpt><trkpt lat="42.554554257818225" lon="8.864154554317718"><ele>523.5</ele><time>2026-05-01T10:54:36Z</time></trkpt><trkpt lat="42.554428078026696" lon="8.864095716842305"><ele>522.75</ele><time>2026-05-01T10:54:37Z</time></trkpt><trkpt lat="42.55430420382742" lon="8.864056644827562"><ele>522.0</ele><time>2026-05-01T10:54:38Z</time></trkpt><trkpt lat="42.55419072553556" lon="8.863998527275697"><ele>522.0</ele><time>2026-05-01T10:54:39Z</time></trkpt><trkpt lat="42.55408178498484" lon="8.863917251616485"><ele>522.0</ele><time>2026-05-01T10:54:40Z</time></trkpt><trkpt lat="42.553993155603514" lon="8.863802173214445"><ele>522.0</ele><time>2026-05-01T10:54:41Z</time></trkpt><trkpt lat="42.553907234920494" lon="8.86366089392184"><ele>522.0</ele><time>2026-05-01T10:54:42Z</time></trkpt><trkpt lat="42.55382473693043" lon="8.863527155112703"><ele>518.8000000000001</ele><time>2026-05-01T10:54:43Z</time></trkpt><trkpt lat="42.55375113516937" lon="8.86341500667715"><ele>515.6</ele><time>2026-05-01T10:54:44Z</time></trkpt><trkpt lat="42.55368280367382" lon="8.863347228481183"><ele>512.4000000000001</ele><time>2026-05-01T10:54:45Z</time></trkpt><trkpt lat="42.5535987352069" lon="8.863320484904245"><ele>509.20000000000005</ele><time>2026-05-01T10:54:46Z</time></trkpt><trkpt lat="42.55349247643887" lon="8.86332464281901"><ele>506.0</ele><time>2026-05-01T10:54:47Z</time></trkpt><trkpt lat="42.55337473688304" lon="8.86331912098019"><ele>506.0</ele><time>2026-05-01T10:54:48Z</time></trkpt><trkpt lat="42.55324156437848" lon="8.863293211261302"><ele>506.0</ele><time>2026-05-01T10:54:49Z</time></trkpt><trkpt lat="42.55310839059391" lon="8.863251634057956"><ele>506.0</ele><time>2026-05-01T10:54:50Z</time></trkpt><trkpt lat="42.55296836939301" lon="8.863219225485558"><ele>506.0</ele><time>2026-05-01T10:54:51Z</time></trkpt><trkpt lat="42.55282767000251" lon="8.863214779708796"><ele>507.0</ele><time>2026-05-01T10:54:52Z</time></trkpt><trkpt lat="42.552688728121666" lon="8.863224295928454"><ele>508.0</ele><time>2026-05-01T10:54:53Z</time></trkpt><trkpt lat="42.55254372391129" lon="8.863239417075148"><ele>509.0</ele><time>2026-05-01T10:54:54Z</time></trkpt><trkpt lat="42.55228661170163" lon="8.863195509573188"><ele>509.0</ele><time>2026-05-01T10:54:56Z</time></trkpt><trkpt lat="42.55217729674926" lon="8.863183472120506"><ele>509.0</ele><time>2026-05-01T10:54:57Z</time></trkpt><trkpt lat="42.55207365755273" lon="8.863212598175183"><ele>509.0</ele><time>2026-05-01T10:54:58Z</time></trkpt><trkpt lat="42.55196854763939" lon="8.86328852883183"><ele>509.0</ele><time>2026-05-01T10:54:59Z</time></trkpt><trkpt lat="42.55187448776491" lon="8.8633992887227"><ele>508.5</ele><time>2026-05-01T10:55:00Z</time></trkpt><trkpt lat="42.55179753275052" lon="8.863535213147193"><ele>508.0</ele><time>2026-05-01T10:55:01Z</time></trkpt><trkpt lat="42.551726273222876" lon="8.863687415167949"><ele>507.5</ele><time>2026-05-01T10:55:02Z</time></trkpt><trkpt lat="42.55165460462512" lon="8.863843237915367"><ele>507.0</ele><time>2026-05-01T10:55:03Z</time></trkpt><trkpt lat="42.55157086627719" lon="8.864001099650176"><ele>507.0</ele><time>2026-05-01T10:55:04Z</time></trkpt><trkpt lat="42.55148489045339" lon="8.864174308526641"><ele>507.0</ele><time>2026-05-01T10:55:05Z</time></trkpt><trkpt lat="42.5513985476065" lon="8.864333021461531"><ele>507.0</ele><time>2026-05-01T10:55:06Z</time></trkpt><trkpt lat="42.55130952040507" lon="8.864479329101613"><ele>507.0</ele><time>2026-05-01T10:55:07Z</time></trkpt><trkpt lat="42.5512149633293" lon="8.864587717182381"><ele>505.5</ele><time>2026-05-01T10:55:08Z</time></trkpt><trkpt lat="42.55110919546493" lon="8.864670546662866"><ele>504.0</ele><time>2026-05-01T10:55:09Z</time></trkpt><trkpt lat="42.550988369710815" lon="8.864730228388591"><ele>502.5</ele><time>2026-05-01T10:55:10Z</time></trkpt><trkpt lat="42.55086327969003" lon="8.864753943273364"><ele>501.0</ele><time>2026-05-01T10:55:11Z</time></trkpt><trkpt lat="42.55073924836259" lon="8.86476719146911"><ele>501.0</ele><time>2026-05-01T10:55:12Z</time></trkpt><trkpt lat="42.55063206198104" lon="8.864823701302033"><ele>501.0</ele><time>2026-05-01T10:55:13Z</time></trkpt><trkpt lat="42.55054060273918" lon="8.864935551787566"><ele>501.0</ele><time>2026-05-01T10:55:14Z</time></trkpt><trkpt lat="42.550457222888205" lon="8.865075910767093"><ele>501.0</ele><time>2026-05-01T10:55:15Z</time></trkpt><trkpt lat="42.55026834722948" lon="8.865350832242276"><ele>499.5</ele><time>2026-05-01T10:55:17Z</time></trkpt><trkpt lat="42.55017481364515" lon="8.865478562305606"><ele>498.0</ele><time>2026-05-01T10:55:18Z</time></trkpt><trkpt lat="42.55008215826662" lon="8.865599689523158"><ele>496.5</ele><time>2026-05-01T10:55:19Z</time></trkpt><trkpt lat="42.549987358512425" lon="8.865705340055147"><ele>495.0</ele><time>2026-05-01T10:55:20Z</time></trkpt><trkpt lat="42.54989592161813" lon="8.865796220106299"><ele>495.0</ele><time>2026-05-01T10:55:21Z</time></trkpt><trkpt lat="42.54981469323238" lon="8.865869597450722"><ele>495.0</ele><time>2026-05-01T10:55:22Z</time></trkpt><trkpt lat="42.549746069906355" lon="8.865926008415647"><ele>495.0</ele><time>2026-05-01T10:55:23Z</time></trkpt><trkpt lat="42.549681897906204" lon="8.865968532086438"><ele>495.0</ele><time>2026-05-01T10:55:24Z</time></trkpt><trkpt lat="42.54959608443936" lon="8.866043105475546"><ele>495.0</ele><time>2026-05-01T10:55:26Z</time></trkpt><trkpt lat="42.549494842749674" lon="8.866073985602487"><ele>492.8333333333333</ele><time>2026-05-01T10:55:28Z</time></trkpt><trkpt lat="42.549373135201165" lon="8.86603149324049"><ele>490.66666666666663</ele><time>2026-05-01T10:55:30Z</time></trkpt><trkpt lat="42.54931624556801" lon="8.865973498976423"><ele>488.5</ele><time>2026-05-01T10:55:31Z</time></trkpt><trkpt lat="42.54926559043762" lon="8.865908277767634"><ele>486.3333333333333</ele><time>2026-05-01T10:55:32Z</time></trkpt><trkpt lat="42.54920709757301" lon="8.865857313537845"><ele>484.16666666666663</ele><time>2026-05-01T10:55:33Z</time></trkpt><trkpt lat="42.54913614022662" lon="8.865822407786588"><ele>482.0</ele><time>2026-05-01T10:55:34Z</time></trkpt><trkpt lat="42.54906115289257" lon="8.865802888406092"><ele>481.99999999999994</ele><time>2026-05-01T10:55:35Z</time></trkpt><trkpt lat="42.54898153708599" lon="8.865787481981426"><ele>482.0</ele><time>2026-05-01T10:55:36Z</time></trkpt><trkpt lat="42.548851740971614" lon="8.865719547751132"><ele>482.0</ele><time>2026-05-01T10:55:38Z</time></trkpt><trkpt lat="42.548794490231316" lon="8.865674252997605"><ele>482.0</ele><time>2026-05-01T10:55:39Z</time></trkpt><trkpt lat="42.54874273906421" lon="8.86562552284888"><ele>481.99999999999994</ele><time>2026-05-01T10:55:40Z</time></trkpt><trkpt lat="42.5486840570071" lon="8.865574923831673"><ele>482.0</ele><time>2026-05-01T10:55:41Z</time></trkpt><trkpt lat="42.548617745986284" lon="8.865535218894948"><ele>482.66666666666663</ele><time>2026-05-01T10:55:42Z</time></trkpt><trkpt lat="42.54855216153885" lon="8.865496023336165"><ele>483.3333333333333</ele><time>2026-05-01T10:55:43Z</time></trkpt><trkpt lat="42.54848856218522" lon="8.865470859599927"><ele>484.0</ele><time>2026-05-01T10:55:44Z</time></trkpt><trkpt lat="42.548349601161384" lon="8.865465317649674"><ele>484.66666666666663</ele><time>2026-05-01T10:55:46Z</time></trkpt><trkpt lat="42.54826694892516" lon="8.865479302728698"><ele>485.3333333333333</ele><time>2026-05-01T10:55:47Z</time></trkpt><trkpt lat="42.548186497269164" lon="8.86549866682856"><ele>486.0</ele><time>2026-05-01T10:55:48Z</time></trkpt><trkpt lat="42.5481055753193" lon="8.865528148683278"><ele>486.0</ele><time>2026-05-01T10:55:49Z</time></trkpt><trkpt lat="42.548015034583685" lon="8.865579921174335"><ele>486.0</ele><time>2026-05-01T10:55:50Z</time></trkpt><trkpt lat="42.547922069047395" lon="8.865622839204248"><ele>486.0</ele><time>2026-05-01T10:55:51Z</time></trkpt><trkpt lat="42.547837572364784" lon="8.865649038229575"><ele>486.0</ele><time>2026-05-01T10:55:52Z</time></trkpt><trkpt lat="42.54775477850428" lon="8.865664570461092"><ele>486.0</ele><time>2026-05-01T10:55:53Z</time></trkpt><trkpt lat="42.54767792314103" lon="8.86567937473199"><ele>486.0</ele><time>2026-05-01T10:55:54Z</time></trkpt><trkpt lat="42.54760460217459" lon="8.865687027767516"><ele>485.0</ele><time>2026-05-01T10:55:55Z</time></trkpt><trkpt lat="42.54753343363928" lon="8.865685624732826"><ele>484.0</ele><time>2026-05-01T10:55:56Z</time></trkpt><trkpt lat="42.547467725188284" lon="8.865679413035984"><ele>483.0</ele><time>2026-05-01T10:55:57Z</time></trkpt><trkpt lat="42.54733998066487" lon="8.865642599295395"><ele>482.0</ele><time>2026-05-01T10:55:59Z</time></trkpt><trkpt lat="42.54727672463551" lon="8.865617123925222"><ele>481.0</ele><time>2026-05-01T10:56:00Z</time></trkpt><trkpt lat="42.54721801565357" lon="8.865558428511385"><ele>480.0</ele><time>2026-05-01T10:56:01Z</time></trkpt><trkpt lat="42.54716992860739" lon="8.865471984431725"><ele>480.0</ele><time>2026-05-01T10:56:02Z</time></trkpt><trkpt lat="42.54712677127691" lon="8.865362883348213"><ele>480.0</ele><time>2026-05-01T10:56:03Z</time></trkpt><trkpt lat="42.54708713913875" lon="8.865258487287836"><ele>480.0</ele><time>2026-05-01T10:56:04Z</time></trkpt><trkpt lat="42.54704153729997" lon="8.86516982994243"><ele>480.0</ele><time>2026-05-01T10:56:05Z</time></trkpt><trkpt lat="42.54699160700975" lon="8.865090559822352"><ele>480.0</ele><time>2026-05-01T10:56:06Z</time></trkpt><trkpt lat="42.546935223229866" lon="8.865025317845825"><ele>480.0</ele><time>2026-05-01T10:56:07Z</time></trkpt><trkpt lat="42.546865365754805" lon="8.864976642919935"><ele>478.6</ele><time>2026-05-01T10:56:08Z</time></trkpt><trkpt lat="42.54678342107327" lon="8.864942557382363"><ele>477.2</ele><time>2026-05-01T10:56:09Z</time></trkpt><trkpt lat="42.54670138906503" lon="8.864955074300953"><ele>475.79999999999995</ele><time>2026-05-01T10:56:10Z</time></trkpt><trkpt lat="42.54663118548479" lon="8.864991649767209"><ele>474.4</ele><time>2026-05-01T10:56:11Z</time></trkpt><trkpt lat="42.54654717496815" lon="8.865081312524056"><ele>473.0</ele><time>2026-05-01T10:56:13Z</time></trkpt><trkpt lat="42.54647273667136" lon="8.865192551720098"><ele>473.0</ele><time>2026-05-01T10:56:15Z</time></trkpt><trkpt lat="42.546394351534914" lon="8.865326849173341"><ele>472.99999999999994</ele><time>2026-05-01T10:56:17Z</time></trkpt><trkpt lat="42.54635961302888" lon="8.865411571147133"><ele>472.99999999999994</ele><time>2026-05-01T10:56:18Z</time></trkpt><trkpt lat="42.546316503198284" lon="8.865606141584312"><ele>473.0</ele><time>2026-05-01T10:56:20Z</time></trkpt><trkpt lat="42.546305045200306" lon="8.865696089500725"><ele>473.0</ele><time>2026-05-01T10:56:21Z</time></trkpt><trkpt lat="42.54629022605615" lon="8.865799939454423"><ele>472.99999999999994</ele><time>2026-05-01T10:56:22Z</time></trkpt><trkpt lat="42.54626571811454" lon="8.865896913963722"><ele>473.0</ele><time>2026-05-01T10:56:23Z</time></trkpt><trkpt lat="42.54623457559089" lon="8.865991846582649"><ele>473.0</ele><time>2026-05-01T10:56:24Z</time></trkpt><trkpt lat="42.54619282506715" lon="8.866087319195044"><ele>473.0</ele><time>2026-05-01T10:56:25Z</time></trkpt><trkpt lat="42.546145154769754" lon="8.866172073100593"><ele>472.99999999999994</ele><time>2026-05-01T10:56:26Z</time></trkpt><trkpt lat="42.54609481191376" lon="8.866254949045102"><ele>473.0</ele><time>2026-05-01T10:56:27Z</time></trkpt><trkpt lat="42.54604748202921" lon="8.866330993699462"><ele>470.2</ele><time>2026-05-01T10:56:28Z</time></trkpt><trkpt lat="42.54599232723623" lon="8.866422064002803"><ele>467.4</ele><time>2026-05-01T10:56:29Z</time></trkpt><trkpt lat="42.545949645164384" lon="8.866519549663247"><ele>464.59999999999997</ele><time>2026-05-01T10:56:30Z</time></trkpt><trkpt lat="42.545914799724436" lon="8.866642911238724"><ele>461.79999999999995</ele><time>2026-05-01T10:56:31Z</time></trkpt><trkpt lat="42.54588586493357" lon="8.866773350867584"><ele>459.0</ele><time>2026-05-01T10:56:32Z</time></trkpt><trkpt lat="42.54585705739411" lon="8.86690566894974"><ele>459.0</ele><time>2026-05-01T10:56:33Z</time></trkpt><trkpt lat="42.54581592972293" lon="8.867006402092999"><ele>459.0</ele><time>2026-05-01T10:56:34Z</time></trkpt><trkpt lat="42.54575707669536" lon="8.867093494994352"><ele>459.0</ele><time>2026-05-01T10:56:35Z</time></trkpt><trkpt lat="42.54569886192239" lon="8.867159676652099"><ele>459.0</ele><time>2026-05-01T10:56:36Z</time></trkpt><trkpt lat="42.545644550256334" lon="8.867227866741436"><ele>459.0</ele><time>2026-05-01T10:56:37Z</time></trkpt><trkpt lat="42.54559677095675" lon="8.867306606323321"><ele>459.0</ele><time>2026-05-01T10:56:38Z</time></trkpt><trkpt lat="42.545577629251454" lon="8.867399532976114"><ele>458.2</ele><time>2026-05-01T10:56:39Z</time></trkpt><trkpt lat="42.54559651090771" lon="8.867630434314263"><ele>457.4</ele><time>2026-05-01T10:56:41Z</time></trkpt><trkpt lat="42.54561402323443" lon="8.867736428765342"><ele>456.6</ele><time>2026-05-01T10:56:42Z</time></trkpt><trkpt lat="42.54562369405759" lon="8.867837394690142"><ele>455.8</ele><time>2026-05-01T10:56:43Z</time></trkpt><trkpt lat="42.54563512097782" lon="8.867948225222433"><ele>455.0</ele><time>2026-05-01T10:56:44Z</time></trkpt><trkpt lat="42.54564559052428" lon="8.86805566765375"><ele>454.99999999999994</ele><time>2026-05-01T10:56:45Z</time></trkpt><trkpt lat="42.54566298999832" lon="8.868165414080073"><ele>455.0</ele><time>2026-05-01T10:56:46Z</time></trkpt><trkpt lat="42.545701263455044" lon="8.868270404546292"><ele>455.0</ele><time>2026-05-01T10:56:47Z</time></trkpt><trkpt lat="42.545745423768906" lon="8.86837041082368"><ele>455.0</ele><time>2026-05-01T10:56:48Z</time></trkpt><trkpt lat="42.54578624441927" lon="8.86847148462717"><ele>454.99999999999994</ele><time>2026-05-01T10:56:49Z</time></trkpt><trkpt lat="42.545814927606486" lon="8.868584266240836"><ele>455.0</ele><time>2026-05-01T10:56:50Z</time></trkpt><trkpt lat="42.545825112053784" lon="8.86870536970361"><ele>454.2</ele><time>2026-05-01T10:56:51Z</time></trkpt><trkpt lat="42.54581215562654" lon="8.868821425498668"><ele>453.4</ele><time>2026-05-01T10:56:52Z</time></trkpt><trkpt lat="42.545783381184926" lon="8.868945341682318"><ele>452.6</ele><time>2026-05-01T10:56:53Z</time></trkpt><trkpt lat="42.54574179989352" lon="8.869079669243533"><ele>451.8</ele><time>2026-05-01T10:56:54Z</time></trkpt><trkpt lat="42.54569364593421" lon="8.869201068131607"><ele>451.0</ele><time>2026-05-01T10:56:55Z</time></trkpt><trkpt lat="42.54564868735586" lon="8.869304001935507"><ele>450.8</ele><time>2026-05-01T10:56:56Z</time></trkpt><trkpt lat="42.54561997156722" lon="8.869404817131688"><ele>450.6</ele><time>2026-05-01T10:56:57Z</time></trkpt><trkpt lat="42.545601618247375" lon="8.869513082453773"><ele>450.4</ele><time>2026-05-01T10:56:58Z</time></trkpt><trkpt lat="42.545598425964634" lon="8.869627280431658"><ele>450.2</ele><time>2026-05-01T10:56:59Z</time></trkpt><trkpt lat="42.545607127173106" lon="8.869784052139538"><ele>450.0</ele><time>2026-05-01T10:57:00Z</time></trkpt><trkpt lat="42.545606051840714" lon="8.870130586460936"><ele>450.0</ele><time>2026-05-01T10:57:02Z</time></trkpt><trkpt lat="42.54556350074898" lon="8.870255990080887"><ele>450.0</ele><time>2026-05-01T10:57:03Z</time></trkpt><trkpt lat="42.545487708523034" lon="8.870325698622523"><ele>450.0</ele><time>2026-05-01T10:57:04Z</time></trkpt><trkpt lat="42.54538409452964" lon="8.870349119156328"><ele>450.0</ele><time>2026-05-01T10:57:05Z</time></trkpt><trkpt lat="42.54525974972586" lon="8.870341602224661"><ele>450.0</ele><time>2026-05-01T10:57:06Z</time></trkpt><trkpt lat="42.545127249020666" lon="8.870319753402068"><ele>447.75</ele><time>2026-05-01T10:57:07Z</time></trkpt><trkpt lat="42.54500203276085" lon="8.87030643916262"><ele>445.5</ele><time>2026-05-01T10:57:08Z</time></trkpt><trkpt lat="42.54488100347866" lon="8.87030867860326"><ele>443.25</ele><time>2026-05-01T10:57:09Z</time></trkpt><trkpt lat="42.544763751967096" lon="8.87033224386871"><ele>441.0</ele><time>2026-05-01T10:57:10Z</time></trkpt><trkpt lat="42.544653058639454" lon="8.870371383156128"><ele>441.0</ele><time>2026-05-01T10:57:11Z</time></trkpt><trkpt lat="42.544555154476235" lon="8.870426403917868"><ele>441.0</ele><time>2026-05-01T10:57:12Z</time></trkpt><trkpt lat="42.54446302957432" lon="8.870508520352484"><ele>441.0</ele><time>2026-05-01T10:57:13Z</time></trkpt><trkpt lat="42.54437349099218" lon="8.870610310002649"><ele>441.0</ele><time>2026-05-01T10:57:14Z</time></trkpt><trkpt lat="42.54429708690875" lon="8.87072072576202"><ele>441.0</ele><time>2026-05-01T10:57:15Z</time></trkpt><trkpt lat="42.54424869622046" lon="8.870842187246703"><ele>437.6</ele><time>2026-05-01T10:57:16Z</time></trkpt><trkpt lat="42.54422845833266" lon="8.870969209636746"><ele>434.20000000000005</ele><time>2026-05-01T10:57:17Z</time></trkpt><trkpt lat="42.544246108303135" lon="8.871093391660876"><ele>430.79999999999995</ele><time>2026-05-01T10:57:18Z</time></trkpt><trkpt lat="42.544283850661586" lon="8.871233028061853"><ele>427.4</ele><time>2026-05-01T10:57:19Z</time></trkpt><trkpt lat="42.54433800924591" lon="8.871366315877221"><ele>424.0</ele><time>2026-05-01T10:57:20Z</time></trkpt><trkpt lat="42.54442254075641" lon="8.871455187739924"><ele>426.25</ele><time>2026-05-01T10:57:21Z</time></trkpt><trkpt lat="42.54463694411254" lon="8.871537077977854"><ele>428.5</ele><time>2026-05-01T10:57:23Z</time></trkpt><trkpt lat="42.54474794693898" lon="8.871545580894159"><ele>430.75</ele><time>2026-05-01T10:57:24Z</time></trkpt><trkpt lat="42.54482988822206" lon="8.871566087190088"><ele>433.0</ele><time>2026-05-01T10:57:25Z</time></trkpt><trkpt lat="42.544892155060694" lon="8.871679047236167"><ele>433.00000000000006</ele><time>2026-05-01T10:57:27Z</time></trkpt><trkpt lat="42.54479790989298" lon="8.871754442444244"><ele>433.0</ele><time>2026-05-01T10:57:29Z</time></trkpt><trkpt lat="42.54472138300645" lon="8.871727477526907"><ele>433.0</ele><time>2026-05-01T10:57:30Z</time></trkpt><trkpt lat="42.544646582181265" lon="8.87168353807344"><ele>433.0</ele><time>2026-05-01T10:57:31Z</time></trkpt><trkpt lat="42.54456884007283" lon="8.871647017175562"><ele>433.00000000000006</ele><time>2026-05-01T10:57:32Z</time></trkpt><trkpt lat="42.54448475261112" lon="8.87163706366397"><ele>433.0</ele><time>2026-05-01T10:57:33Z</time></trkpt><trkpt lat="42.54439883294742" lon="8.87165255485943"><ele>431.2</ele><time>2026-05-01T10:57:34Z</time></trkpt><trkpt lat="42.54431179659506" lon="8.871673764922846"><ele>429.4</ele><time>2026-05-01T10:57:35Z</time></trkpt><trkpt lat="42.544224587418086" lon="8.871693564255425"><ele>427.59999999999997</ele><time>2026-05-01T10:57:36Z</time></trkpt><trkpt lat="42.54413566137613" lon="8.871710335513473"><ele>425.79999999999995</ele><time>2026-05-01T10:57:37Z</time></trkpt><trkpt lat="42.54403461335587" lon="8.871724367155068"><ele>424.0</ele><time>2026-05-01T10:57:38Z</time></trkpt><trkpt lat="42.5439322603239" lon="8.871744298772075"><ele>424.0</ele><time>2026-05-01T10:57:39Z</time></trkpt><trkpt lat="42.543823783939935" lon="8.871761128246384"><ele>424.0</ele><time>2026-05-01T10:57:40Z</time></trkpt><trkpt lat="42.54371265071986" lon="8.87177394099869"><ele>424.0</ele><time>2026-05-01T10:57:41Z</time></trkpt><trkpt lat="42.543602600205254" lon="8.871782906640396"><ele>424.0</ele><time>2026-05-01T10:57:42Z</time></trkpt><trkpt lat="42.54338314881869" lon="8.871796598787856"><ele>419.2</ele><time>2026-05-01T10:57:44Z</time></trkpt><trkpt lat="42.54327761510417" lon="8.871798670507944"><ele>414.4</ele><time>2026-05-01T10:57:45Z</time></trkpt><trkpt lat="42.54317014652756" lon="8.871822171637948"><ele>409.6</ele><time>2026-05-01T10:57:46Z</time></trkpt><trkpt lat="42.54306493928901" lon="8.871865047969893"><ele>404.8</ele><time>2026-05-01T10:57:47Z</time></trkpt><trkpt lat="42.54295973050867" lon="8.871914954694041"><ele>400.0</ele><time>2026-05-01T10:57:48Z</time></trkpt><trkpt lat="42.54285229502951" lon="8.871968228156412"><ele>400.0</ele><time>2026-05-01T10:57:49Z</time></trkpt><trkpt lat="42.54274228759927" lon="8.872014033890116"><ele>400.0</ele><time>2026-05-01T10:57:50Z</time></trkpt><trkpt lat="42.54262892162242" lon="8.872051982823285"><ele>400.0</ele><time>2026-05-01T10:57:51Z</time></trkpt><trkpt lat="42.54251375315433" lon="8.872081786827147"><ele>400.0</ele><time>2026-05-01T10:57:52Z</time></trkpt><trkpt lat="42.542397386066064" lon="8.872109814734"><ele>400.0</ele><time>2026-05-01T10:57:53Z</time></trkpt><trkpt lat="42.542279533867976" lon="8.872139597102363"><ele>400.0</ele><time>2026-05-01T10:57:53.999Z</time></trkpt><trkpt lat="42.54216340606558" lon="8.87216920061055"><ele>400.0</ele><time>2026-05-01T10:57:54.999Z</time></trkpt><trkpt lat="42.54205248094312" lon="8.872214847910524"><ele>400.0</ele><time>2026-05-01T10:57:56Z</time></trkpt><trkpt lat="42.54195637481666" lon="8.872296586952404"><ele>401.5</ele><time>2026-05-01T10:57:57Z</time></trkpt><trkpt lat="42.54187258025011" lon="8.872398611297854"><ele>403.0</ele><time>2026-05-01T10:57:58Z</time></trkpt><trkpt lat="42.541786285274476" lon="8.872497842329604"><ele>404.5</ele><time>2026-05-01T10:57:59Z</time></trkpt><trkpt lat="42.541685992777076" lon="8.872582844192424"><ele>406.0</ele><time>2026-05-01T10:58:00Z</time></trkpt><trkpt lat="42.54157359501582" lon="8.872643729440826"><ele>397.0</ele><time>2026-05-01T10:58:01Z</time></trkpt><trkpt lat="42.541457215208716" lon="8.87268576751254"><ele>388.0</ele><time>2026-05-01T10:58:02Z</time></trkpt><trkpt lat="42.541337502029755" lon="8.872705884227338"><ele>379.0</ele><time>2026-05-01T10:58:03Z</time></trkpt><trkpt lat="42.5410888759021" lon="8.872704252196627"><ele>379.0</ele><time>2026-05-01T10:58:05Z</time></trkpt><trkpt lat="42.54096107100941" lon="8.872704646459825"><ele>379.0</ele><time>2026-05-01T10:58:06Z</time></trkpt><trkpt lat="42.54083081684661" lon="8.87270410460396"><ele>379.0</ele><time>2026-05-01T10:58:07Z</time></trkpt><trkpt lat="42.54069597375485" lon="8.87270074290542"><ele>379.0</ele><time>2026-05-01T10:58:08Z</time></trkpt><trkpt lat="42.54056168161263" lon="8.872701894970136"><ele>379.0</ele><time>2026-05-01T10:58:09Z</time></trkpt><trkpt lat="42.54042537243097" lon="8.872702059092697"><ele>379.0</ele><time>2026-05-01T10:58:10Z</time></trkpt><trkpt lat="42.54028787245278" lon="8.872714064415325"><ele>379.0</ele><time>2026-05-01T10:58:11Z</time></trkpt><trkpt lat="42.5401521817322" lon="8.87276125374587"><ele>379.0</ele><time>2026-05-01T10:58:12Z</time></trkpt><trkpt lat="42.54001755375909" lon="8.872831293913237"><ele>378.5</ele><time>2026-05-01T10:58:13Z</time></trkpt><trkpt lat="42.539874176321746" lon="8.872895119224678"><ele>378.0</ele><time>2026-05-01T10:58:14Z</time></trkpt><trkpt lat="42.53972788283634" lon="8.872925901330127"><ele>377.5</ele><time>2026-05-01T10:58:15Z</time></trkpt><trkpt lat="42.53958009348492" lon="8.872927153227216"><ele>377.0</ele><time>2026-05-01T10:58:16Z</time></trkpt><trkpt lat="42.53943573474432" lon="8.872923058835232"><ele>376.5</ele><time>2026-05-01T10:58:17Z</time></trkpt><trkpt lat="42.53929044741717" lon="8.872923514117804"><ele>376.0</ele><time>2026-05-01T10:58:18Z</time></trkpt><trkpt lat="42.53914193494037" lon="8.872927913635156"><ele>375.5</ele><time>2026-05-01T10:58:19Z</time></trkpt><trkpt lat="42.53900212194655" lon="8.872912704623255"><ele>375.0</ele><time>2026-05-01T10:58:20Z</time></trkpt><trkpt lat="42.5388742905905" lon="8.872857739808307"><ele>375.0</ele><time>2026-05-01T10:58:21Z</time></trkpt><trkpt lat="42.53875867487479" lon="8.872755443158585"><ele>375.0</ele><time>2026-05-01T10:58:22Z</time></trkpt><trkpt lat="42.53864657102181" lon="8.872624867025621"><ele>375.0</ele><time>2026-05-01T10:58:23Z</time></trkpt><trkpt lat="42.538528114904075" lon="8.872497738516136"><ele>375.0</ele><time>2026-05-01T10:58:24Z</time></trkpt><trkpt lat="42.53829106991477" lon="8.872311299078552"><ele>375.5</ele><time>2026-05-01T10:58:26Z</time></trkpt><trkpt lat="42.53815879520131" lon="8.872269628170493"><ele>376.0</ele><time>2026-05-01T10:58:27Z</time></trkpt><trkpt lat="42.538020834326964" lon="8.872276398658093"><ele>376.5</ele><time>2026-05-01T10:58:28Z</time></trkpt><trkpt lat="42.53787708125864" lon="8.872317520883252"><ele>377.0</ele><time>2026-05-01T10:58:29Z</time></trkpt><trkpt lat="42.537718366013834" lon="8.87236401484987"><ele>374.33333333333337</ele><time>2026-05-01T10:58:30Z</time></trkpt><trkpt lat="42.53756830338258" lon="8.87242290578115"><ele>371.6666666666667</ele><time>2026-05-01T10:58:31Z</time></trkpt><trkpt lat="42.53742911524873" lon="8.872507113766963"><ele>369.0</ele><time>2026-05-01T10:58:32Z</time></trkpt><trkpt lat="42.537306125154736" lon="8.872623182484826"><ele>369.0</ele><time>2026-05-01T10:58:33Z</time></trkpt><trkpt lat="42.53718548300479" lon="8.87275884750511"><ele>369.0</ele><time>2026-05-01T10:58:34Z</time></trkpt><trkpt lat="42.53706292519676" lon="8.872890369574431"><ele>369.0</ele><time>2026-05-01T10:58:35Z</time></trkpt><trkpt lat="42.53694548918283" lon="8.873004874757779"><ele>367.5</ele><time>2026-05-01T10:58:36Z</time></trkpt><trkpt lat="42.53683921217828" lon="8.873110802959578"><ele>366.0</ele><time>2026-05-01T10:58:37Z</time></trkpt><trkpt lat="42.53673768845603" lon="8.87319899598197"><ele>364.5</ele><time>2026-05-01T10:58:38Z</time></trkpt><trkpt lat="42.53664943800953" lon="8.873274458863898"><ele>363.0</ele><time>2026-05-01T10:58:39Z</time></trkpt><trkpt lat="42.53657046278599" lon="8.873342579483113"><ele>363.0</ele><time>2026-05-01T10:58:40Z</time></trkpt><trkpt lat="42.53650569253463" lon="8.87340664573099"><ele>363.0</ele><time>2026-05-01T10:58:41Z</time></trkpt><trkpt lat="42.536438940018776" lon="8.873510732967139"><ele>363.0</ele><time>2026-05-01T10:58:43Z</time></trkpt><trkpt lat="42.536398360283314" lon="8.873611298420878"><ele>363.0</ele><time>2026-05-01T10:58:46Z</time></trkpt><trkpt lat="42.53622933761228" lon="8.87355622967907"><ele>363.0</ele><time>2026-05-01T10:58:53Z</time></trkpt><trkpt lat="42.53619205028606" lon="8.873483354619951"><ele>363.0</ele><time>2026-05-01T10:58:58Z</time></trkpt><trkpt lat="42.53613595127541" lon="8.873428046495999"><ele>363.0</ele><time>2026-05-01T10:59:07Z</time></trkpt><trkpt lat="42.536258096178024" lon="8.873362146714237"><ele>363.0</ele><time>2026-05-01T10:59:11Z</time></trkpt><trkpt lat="42.5363627573384" lon="8.873390515663557"><ele>363.0</ele><time>2026-05-01T10:59:13Z</time></trkpt><trkpt lat="42.536438936074084" lon="8.873337382893043"><ele>363.0</ele><time>2026-05-01T10:59:15Z</time></trkpt><trkpt lat="42.536372891209574" lon="8.873220864728589"><ele>363.0</ele><time>2026-05-01T10:59:17Z</time></trkpt><trkpt lat="42.536246417291146" lon="8.873177260363562"><ele>363.0</ele><time>2026-05-01T10:59:19Z</time></trkpt><trkpt lat="42.53617545404909" lon="8.873149357248423"><ele>363.0</ele><time>2026-05-01T10:59:20Z</time></trkpt><trkpt lat="42.536104378234675" lon="8.873126056304947"><ele>363.0</ele><time>2026-05-01T10:59:21Z</time></trkpt><trkpt lat="42.53603607031307" lon="8.873102431216832"><ele>363.0</ele><time>2026-05-01T10:59:22Z</time></trkpt><trkpt lat="42.53597252411459" lon="8.873078456116273"><ele>363.0</ele><time>2026-05-01T10:59:23Z</time></trkpt><trkpt lat="42.535852301475146" lon="8.873037819670817"><ele>360.75</ele><time>2026-05-01T10:59:25Z</time></trkpt><trkpt lat="42.53575459099764" lon="8.872980893164742"><ele>358.5</ele><time>2026-05-01T10:59:27Z</time></trkpt><trkpt lat="42.53579321329988" lon="8.872885572829823"><ele>356.25</ele><time>2026-05-01T10:59:29Z</time></trkpt><trkpt lat="42.53599662359293" lon="8.872960516955589"><ele>354.0</ele><time>2026-05-01T10:59:33Z</time></trkpt><trkpt lat="42.536087782345625" lon="8.872937839869962"><ele>354.0</ele><time>2026-05-01T10:59:35Z</time></trkpt><trkpt lat="42.53616625015014" lon="8.872862537698612"><ele>354.0</ele><time>2026-05-01T10:59:37Z</time></trkpt><trkpt lat="42.536242379245564" lon="8.872770119647232"><ele>354.0</ele><time>2026-05-01T10:59:39Z</time></trkpt><trkpt lat="42.53629110640436" lon="8.87271475204128"><ele>354.0</ele><time>2026-05-01T10:59:40Z</time></trkpt><trkpt lat="42.53634357074858" lon="8.87265677595011"><ele>354.0</ele><time>2026-05-01T10:59:41Z</time></trkpt><trkpt lat="42.53639824805833" lon="8.872598289332842"><ele>354.0</ele><time>2026-05-01T10:59:42Z</time></trkpt><trkpt lat="42.536454132799186" lon="8.872541223569689"><ele>353.0</ele><time>2026-05-01T10:59:43Z</time></trkpt><trkpt lat="42.53651177635234" lon="8.872487418069"><ele>352.0</ele><time>2026-05-01T10:59:44Z</time></trkpt><trkpt lat="42.53656735793865" lon="8.872435176451944"><ele>351.0</ele><time>2026-05-01T10:59:45Z</time></trkpt><trkpt lat="42.536619624076174" lon="8.872379166420313"><ele>350.0</ele><time>2026-05-01T10:59:46Z</time></trkpt><trkpt lat="42.53667298828223" lon="8.872327738793416"><ele>349.0</ele><time>2026-05-01T10:59:47Z</time></trkpt><trkpt lat="42.53672351223705" lon="8.872274958362897"><ele>348.0</ele><time>2026-05-01T10:59:48Z</time></trkpt><trkpt lat="42.536777955761586" lon="8.872230334909002"><ele>347.0</ele><time>2026-05-01T10:59:49Z</time></trkpt><trkpt lat="42.53688318759179" lon="8.872155483742803"><ele>347.0</ele><time>2026-05-01T10:59:51Z</time></trkpt><trkpt lat="42.537011457599796" lon="8.871972361236951"><ele>347.0</ele><time>2026-05-01T10:59:55Z</time></trkpt><trkpt lat="42.536966157957174" lon="8.871909651298637"><ele>347.0</ele><time>2026-05-01T10:59:56Z</time></trkpt><trkpt lat="42.5368493294337" lon="8.871948374485346"><ele>347.0</ele><time>2026-05-01T10:59:58Z</time></trkpt><trkpt lat="42.536749929459816" lon="8.872027196000433"><ele>347.0</ele><time>2026-05-01T11:00:00Z</time></trkpt><trkpt lat="42.536657071979654" lon="8.872109000708694"><ele>347.0</ele><time>2026-05-01T11:00:02Z</time></trkpt><trkpt lat="42.53657229220681" lon="8.87219257651801"><ele>347.0</ele><time>2026-05-01T11:00:04Z</time></trkpt><trkpt lat="42.53647975540625" lon="8.872275227791835"><ele>347.0</ele><time>2026-05-01T11:00:06Z</time></trkpt><trkpt lat="42.536388406713144" lon="8.872336747491705"><ele>347.0</ele><time>2026-05-01T11:00:08Z</time></trkpt><trkpt lat="42.53629265622227" lon="8.872386706016355"><ele>342.5</ele><time>2026-05-01T11:00:10Z</time></trkpt><trkpt lat="42.53618353522662" lon="8.872410386634384"><ele>338.0</ele><time>2026-05-01T11:00:12Z</time></trkpt><trkpt lat="42.535983952651264" lon="8.872398758087492"><ele>333.5</ele><time>2026-05-01T11:00:15Z</time></trkpt><trkpt lat="42.53591048767033" lon="8.87238968699914"><ele>329.0</ele><time>2026-05-01T11:00:16Z</time></trkpt><trkpt lat="42.53583397960169" lon="8.872380972836403"><ele>329.0</ele><time>2026-05-01T11:00:17Z</time></trkpt><trkpt lat="42.5357553967261" lon="8.872374720473521"><ele>329.0</ele><time>2026-05-01T11:00:18Z</time></trkpt><trkpt lat="42.53567360513474" lon="8.872375884484226"><ele>329.0</ele><time>2026-05-01T11:00:19Z</time></trkpt><trkpt lat="42.53559490033845" lon="8.872378853645015"><ele>329.0</ele><time>2026-05-01T11:00:20Z</time></trkpt><trkpt lat="42.535521165630165" lon="8.872383717279849"><ele>329.0</ele><time>2026-05-01T11:00:21Z</time></trkpt><trkpt lat="42.535459501982345" lon="8.872364413432578"><ele>329.0</ele><time>2026-05-01T11:00:22Z</time></trkpt><trkpt lat="42.53541809892489" lon="8.87223351573623"><ele>329.0</ele><time>2026-05-01T11:00:24Z</time></trkpt><trkpt lat="42.535530152984464" lon="8.872167461043944"><ele>329.0</ele><time>2026-05-01T11:00:26Z</time></trkpt><trkpt lat="42.535600811566056" lon="8.872177517227527"><ele>329.0</ele><time>2026-05-01T11:00:27Z</time></trkpt><trkpt lat="42.53567323654518" lon="8.872178100595141"><ele>329.0</ele><time>2026-05-01T11:00:28Z</time></trkpt><trkpt lat="42.53574803132305" lon="8.872161277545233"><ele>329.0</ele><time>2026-05-01T11:00:29Z</time></trkpt><trkpt lat="42.535825616867356" lon="8.87212326089277"><ele>329.0</ele><time>2026-05-01T11:00:30Z</time></trkpt><trkpt lat="42.53590212772925" lon="8.87207832669244"><ele>329.0</ele><time>2026-05-01T11:00:31Z</time></trkpt><trkpt lat="42.53598476824861" lon="8.872049622191806"><ele>329.0</ele><time>2026-05-01T11:00:32Z</time></trkpt><trkpt lat="42.536065039193865" lon="8.872012693041862"><ele>329.0</ele><time>2026-05-01T11:00:33Z</time></trkpt><trkpt lat="42.53621159446103" lon="8.871917307665594"><ele>329.0</ele><time>2026-05-01T11:00:35Z</time></trkpt><trkpt lat="42.53627760315524" lon="8.871854513863548"><ele>329.0</ele><time>2026-05-01T11:00:36Z</time></trkpt><trkpt lat="42.5363426237613" lon="8.871788115314544"><ele>326.6666666666667</ele><time>2026-05-01T11:00:37Z</time></trkpt><trkpt lat="42.5364062355974" lon="8.871721305180431"><ele>324.33333333333337</ele><time>2026-05-01T11:00:38Z</time></trkpt><trkpt lat="42.5364669016053" lon="8.871646915228812"><ele>322.0</ele><time>2026-05-01T11:00:39Z</time></trkpt><trkpt lat="42.53652515948209" lon="8.871571892043349"><ele>319.6666666666667</ele><time>2026-05-01T11:00:40Z</time></trkpt><trkpt lat="42.536592322088254" lon="8.87149727480524"><ele>317.3333333333333</ele><time>2026-05-01T11:00:41Z</time></trkpt><trkpt lat="42.53665796880817" lon="8.871422464447372"><ele>315.0</ele><time>2026-05-01T11:00:42Z</time></trkpt><trkpt lat="42.53673503288583" lon="8.871352764429842"><ele>315.0</ele><time>2026-05-01T11:00:43Z</time></trkpt><trkpt lat="42.53682467158714" lon="8.871275518101516"><ele>315.0</ele><time>2026-05-01T11:00:44Z</time></trkpt><trkpt lat="42.53691628556148" lon="8.871188941655943"><ele>315.0</ele><time>2026-05-01T11:00:45Z</time></trkpt><trkpt lat="42.537010502518065" lon="8.87109841429769"><ele>315.0</ele><time>2026-05-01T11:00:46Z</time></trkpt><trkpt lat="42.537114531925134" lon="8.871002264169158"><ele>311.5</ele><time>2026-05-01T11:00:47Z</time></trkpt><trkpt lat="42.53722300851577" lon="8.870898330419077"><ele>308.0</ele><time>2026-05-01T11:00:48Z</time></trkpt><trkpt lat="42.53733210405764" lon="8.870784924416162"><ele>304.5</ele><time>2026-05-01T11:00:49Z</time></trkpt><trkpt lat="42.537441646979275" lon="8.8706653598143"><ele>301.0</ele><time>2026-05-01T11:00:50Z</time></trkpt><trkpt lat="42.5375527465033" lon="8.870545270933956"><ele>301.0</ele><time>2026-05-01T11:00:51Z</time></trkpt><trkpt lat="42.537658926178615" lon="8.870421025889843"><ele>301.0</ele><time>2026-05-01T11:00:52Z</time></trkpt><trkpt lat="42.53776621260093" lon="8.870297512460409"><ele>301.0</ele><time>2026-05-01T11:00:53Z</time></trkpt><trkpt lat="42.537863522431515" lon="8.870158095217922"><ele>301.0</ele><time>2026-05-01T11:00:54Z</time></trkpt><trkpt lat="42.53804297638842" lon="8.869869253671599"><ele>298.75</ele><time>2026-05-01T11:00:56Z</time></trkpt><trkpt lat="42.538141105299204" lon="8.869728265735283"><ele>296.5</ele><time>2026-05-01T11:00:57Z</time></trkpt><trkpt lat="42.53823650078006" lon="8.86957931555653"><ele>294.25</ele><time>2026-05-01T11:00:58Z</time></trkpt><trkpt lat="42.53832728852718" lon="8.869414707018606"><ele>292.0</ele><time>2026-05-01T11:00:59Z</time></trkpt><trkpt lat="42.53840280255943" lon="8.869234379093191"><ele>286.75</ele><time>2026-05-01T11:01:00Z</time></trkpt><trkpt lat="42.538472285923575" lon="8.869056304896736"><ele>281.5</ele><time>2026-05-01T11:01:01Z</time></trkpt><trkpt lat="42.53854748896716" lon="8.868891389374863"><ele>276.25</ele><time>2026-05-01T11:01:02Z</time></trkpt><trkpt lat="42.53862937461289" lon="8.868736743584725"><ele>271.0</ele><time>2026-05-01T11:01:03Z</time></trkpt><trkpt lat="42.53871630479381" lon="8.868577106000329"><ele>271.0</ele><time>2026-05-01T11:01:04Z</time></trkpt><trkpt lat="42.5388059701093" lon="8.868423023465072"><ele>271.0</ele><time>2026-05-01T11:01:05Z</time></trkpt><trkpt lat="42.538905983184044" lon="8.8682734140446"><ele>271.0</ele><time>2026-05-01T11:01:06Z</time></trkpt><trkpt lat="42.53902515288333" lon="8.868136112233595"><ele>271.0</ele><time>2026-05-01T11:01:07Z</time></trkpt><trkpt lat="42.5391678945119" lon="8.86802869844994"><ele>271.0</ele><time>2026-05-01T11:01:08Z</time></trkpt><trkpt lat="42.53932229238921" lon="8.867946108622926"><ele>271.0</ele><time>2026-05-01T11:01:09Z</time></trkpt><trkpt lat="42.53947021332933" lon="8.867880808109065"><ele>268.5</ele><time>2026-05-01T11:01:10Z</time></trkpt><trkpt lat="42.5396070994394" lon="8.867808482736573"><ele>266.0</ele><time>2026-05-01T11:01:11Z</time></trkpt><trkpt lat="42.53973191401361" lon="8.867726271526251"><ele>263.5</ele><time>2026-05-01T11:01:12Z</time></trkpt><trkpt lat="42.53983970348348" lon="8.867627145539943"><ele>261.0</ele><time>2026-05-01T11:01:13Z</time></trkpt><trkpt lat="42.53992500927848" lon="8.867495859114793"><ele>261.0</ele><time>2026-05-01T11:01:14Z</time></trkpt><trkpt lat="42.53999277038902" lon="8.867330208026814"><ele>261.0</ele><time>2026-05-01T11:01:15Z</time></trkpt><trkpt lat="42.5401008365694" lon="8.866945298027694"><ele>261.0</ele><time>2026-05-01T11:01:17Z</time></trkpt><trkpt lat="42.54019645264529" lon="8.866780359934975"><ele>261.0</ele><time>2026-05-01T11:01:18Z</time></trkpt><trkpt lat="42.5403145338085" lon="8.866625185161496"><ele>261.0</ele><time>2026-05-01T11:01:19Z</time></trkpt><trkpt lat="42.540443745695484" lon="8.866477647277804"><ele>261.0</ele><time>2026-05-01T11:01:20Z</time></trkpt><trkpt lat="42.54057231133816" lon="8.866327145259625"><ele>261.0</ele><time>2026-05-01T11:01:21Z</time></trkpt><trkpt lat="42.54067733082669" lon="8.866151894420419"><ele>261.0</ele><time>2026-05-01T11:01:22Z</time></trkpt><trkpt lat="42.540762385171874" lon="8.8659642258644"><ele>261.0</ele><time>2026-05-01T11:01:23Z</time></trkpt><trkpt lat="42.54082802605603" lon="8.865785553434494"><ele>258.0</ele><time>2026-05-01T11:01:24Z</time></trkpt><trkpt lat="42.54087984847917" lon="8.865646509690123"><ele>255.00000000000003</ele><time>2026-05-01T11:01:25Z</time></trkpt><trkpt lat="42.540927000344325" lon="8.86553338922778"><ele>252.00000000000003</ele><time>2026-05-01T11:01:26Z</time></trkpt><trkpt lat="42.54096248212292" lon="8.865442429549553"><ele>249.0</ele><time>2026-05-01T11:01:27Z</time></trkpt><trkpt lat="42.54093290854808" lon="8.865292769295761"><ele>246.0</ele><time>2026-05-01T11:01:29Z</time></trkpt><trkpt lat="42.54086545144829" lon="8.865267000144287"><ele>246.0</ele><time>2026-05-01T11:01:30Z</time></trkpt><trkpt lat="42.540780596756974" lon="8.8652744765947"><ele>246.00000000000003</ele><time>2026-05-01T11:01:31Z</time></trkpt><trkpt lat="42.540676631522906" lon="8.865308787028624"><ele>246.00000000000003</ele><time>2026-05-01T11:01:32Z</time></trkpt><trkpt lat="42.540561102762034" lon="8.865328577035491"><ele>246.0</ele><time>2026-05-01T11:01:33Z</time></trkpt><trkpt lat="42.540447912703286" lon="8.865310019458066"><ele>246.0</ele><time>2026-05-01T11:01:34Z</time></trkpt><trkpt lat="42.54034003783041" lon="8.86526055002244"><ele>242.0</ele><time>2026-05-01T11:01:35Z</time></trkpt><trkpt lat="42.540230621913125" lon="8.865185093874413"><ele>238.0</ele><time>2026-05-01T11:01:36Z</time></trkpt><trkpt lat="42.54001848146927" lon="8.86502305163274"><ele>234.0</ele><time>2026-05-01T11:01:38Z</time></trkpt><trkpt lat="42.53990690491858" lon="8.864951199684059"><ele>232.0</ele><time>2026-05-01T11:01:39Z</time></trkpt><trkpt lat="42.53978973599948" lon="8.86487993465308"><ele>230.0</ele><time>2026-05-01T11:01:40Z</time></trkpt><trkpt lat="42.53966870275147" lon="8.864826949511068"><ele>228.0</ele><time>2026-05-01T11:01:41Z</time></trkpt><trkpt lat="42.53954544586614" lon="8.864812444582077"><ele>226.0</ele><time>2026-05-01T11:01:42Z</time></trkpt><trkpt lat="42.539427742112935" lon="8.864849331065683"><ele>224.75</ele><time>2026-05-01T11:01:43Z</time></trkpt><trkpt lat="42.53931295042655" lon="8.864956069286269"><ele>223.5</ele><time>2026-05-01T11:01:44Z</time></trkpt><trkpt lat="42.53920083087388" lon="8.865025233207275"><ele>222.25</ele><time>2026-05-01T11:01:45Z</time></trkpt><trkpt lat="42.539086033312095" lon="8.865049085452831"><ele>221.0</ele><time>2026-05-01T11:01:46Z</time></trkpt><trkpt lat="42.53896104840977" lon="8.865036028643239"><ele>221.0</ele><time>2026-05-01T11:01:47Z</time></trkpt><trkpt lat="42.53884607918308" lon="8.865002360829749"><ele>221.0</ele><time>2026-05-01T11:01:48Z</time></trkpt><trkpt lat="42.538722955136954" lon="8.864950923350305"><ele>221.0</ele><time>2026-05-01T11:01:49Z</time></trkpt><trkpt lat="42.538609498786556" lon="8.86486935975894"><ele>221.0</ele><time>2026-05-01T11:01:50Z</time></trkpt><trkpt lat="42.5385125403772" lon="8.864765676447268"><ele>220.5</ele><time>2026-05-01T11:01:51Z</time></trkpt><trkpt lat="42.538439909126915" lon="8.864635119043244"><ele>220.0</ele><time>2026-05-01T11:01:52Z</time></trkpt><trkpt lat="42.53839763359165" lon="8.864470062200013"><ele>219.5</ele><time>2026-05-01T11:01:53Z</time></trkpt><trkpt lat="42.53837130778882" lon="8.864283507761224"><ele>219.0</ele><time>2026-05-01T11:01:54Z</time></trkpt><trkpt lat="42.53833862559579" lon="8.864087882290022"><ele>216.66666666666669</ele><time>2026-05-01T11:01:55Z</time></trkpt><trkpt lat="42.538283921065016" lon="8.863878735629639"><ele>214.33333333333334</ele><time>2026-05-01T11:01:56Z</time></trkpt><trkpt lat="42.53822206765431" lon="8.863656918146702"><ele>212.0</ele><time>2026-05-01T11:01:57Z</time></trkpt><trkpt lat="42.53810032939738" lon="8.863212094238476"><ele>210.33333333333334</ele><time>2026-05-01T11:01:59Z</time></trkpt><trkpt lat="42.53804209458996" lon="8.862995264044585"><ele>208.66666666666669</ele><time>2026-05-01T11:02:00Z</time></trkpt><trkpt lat="42.53798815856124" lon="8.862795354702646"><ele>207.0</ele><time>2026-05-01T11:02:01Z</time></trkpt><trkpt lat="42.537943328790426" lon="8.862602103963253"><ele>206.33333333333331</ele><time>2026-05-01T11:02:01.999Z</time></trkpt><trkpt lat="42.53790380471967" lon="8.862411212197532"><ele>205.66666666666666</ele><time>2026-05-01T11:02:02.999Z</time></trkpt><trkpt lat="42.537865975136526" lon="8.86221015468054"><ele>205.0</ele><time>2026-05-01T11:02:03.999Z</time></trkpt><trkpt lat="42.53783198219535" lon="8.862004881493938"><ele>205.0</ele><time>2026-05-01T11:02:04.999Z</time></trkpt><trkpt lat="42.53779893346664" lon="8.861802669370958"><ele>205.0</ele><time>2026-05-01T11:02:05.999Z</time></trkpt><trkpt lat="42.53777600625299" lon="8.861604731322378"><ele>205.0</ele><time>2026-05-01T11:02:06.999Z</time></trkpt><trkpt lat="42.537738832635036" lon="8.86141137988342"><ele>205.0</ele><time>2026-05-01T11:02:07.999Z</time></trkpt><trkpt lat="42.53769813462963" lon="8.86121687278273"><ele>205.0</ele><time>2026-05-01T11:02:08.999Z</time></trkpt><trkpt lat="42.53767970325165" lon="8.861020817421231"><ele>205.0</ele><time>2026-05-01T11:02:09.999Z</time></trkpt><trkpt lat="42.537696951821324" lon="8.860809933651705"><ele>205.0</ele><time>2026-05-01T11:02:10.999Z</time></trkpt><trkpt lat="42.537739630459704" lon="8.860609048802857"><ele>203.25</ele><time>2026-05-01T11:02:11.999Z</time></trkpt><trkpt lat="42.53778541047625" lon="8.860416257388632"><ele>201.5</ele><time>2026-05-01T11:02:12.999Z</time></trkpt><trkpt lat="42.537816990618275" lon="8.860237080284175"><ele>199.75</ele><time>2026-05-01T11:02:13.999Z</time></trkpt><trkpt lat="42.53782325801751" lon="8.860057883797015"><ele>198.0</ele><time>2026-05-01T11:02:14.999Z</time></trkpt><trkpt lat="42.537809363917994" lon="8.859876155563427"><ele>198.0</ele><time>2026-05-01T11:02:15.999Z</time></trkpt><trkpt lat="42.53777218732559" lon="8.859682594024465"><ele>198.0</ele><time>2026-05-01T11:02:16.999Z</time></trkpt><trkpt lat="42.537692080427036" lon="8.859506795488397"><ele>198.0</ele><time>2026-05-01T11:02:17.999Z</time></trkpt><trkpt lat="42.53750884348719" lon="8.859193171468291"><ele>197.0</ele><time>2026-05-01T11:02:19.999Z</time></trkpt><trkpt lat="42.537448358565385" lon="8.859024330189566"><ele>196.0</ele><time>2026-05-01T11:02:20.999Z</time></trkpt><trkpt lat="42.53743400176884" lon="8.858824301981896"><ele>195.0</ele><time>2026-05-01T11:02:21.999Z</time></trkpt><trkpt lat="42.53745353876347" lon="8.858610800011833"><ele>194.0</ele><time>2026-05-01T11:02:22.999Z</time></trkpt><trkpt lat="42.537470502308274" lon="8.858390837322258"><ele>192.33333333333334</ele><time>2026-05-01T11:02:23.999Z</time></trkpt><trkpt lat="42.537481897866456" lon="8.858172551653766"><ele>190.66666666666669</ele><time>2026-05-01T11:02:24.999Z</time></trkpt><trkpt lat="42.53746796082553" lon="8.857956107815081"><ele>189.0</ele><time>2026-05-01T11:02:25.999Z</time></trkpt><trkpt lat="42.53744279207621" lon="8.857759760438572"><ele>185.33333333333334</ele><time>2026-05-01T11:02:26.999Z</time></trkpt><trkpt lat="42.537382998872246" lon="8.857572021866792"><ele>181.66666666666669</ele><time>2026-05-01T11:02:27.999Z</time></trkpt><trkpt lat="42.537291855910446" lon="8.857397144460965"><ele>178.0</ele><time>2026-05-01T11:02:28.999Z</time></trkpt><trkpt lat="42.537177950244384" lon="8.857226238862154"><ele>178.0</ele><time>2026-05-01T11:02:29.999Z</time></trkpt><trkpt lat="42.53706685139441" lon="8.857052072999734"><ele>178.0</ele><time>2026-05-01T11:02:30.999Z</time></trkpt><trkpt lat="42.53697545655364" lon="8.856861732875238"><ele>178.0</ele><time>2026-05-01T11:02:31.999Z</time></trkpt><trkpt lat="42.53689952896858" lon="8.8566585243784"><ele>177.33333333333334</ele><time>2026-05-01T11:02:32.999Z</time></trkpt><trkpt lat="42.536851450920324" lon="8.85644443592489"><ele>176.66666666666666</ele><time>2026-05-01T11:02:34Z</time></trkpt><trkpt lat="42.53681438818828" lon="8.856235876641904"><ele>176.0</ele><time>2026-05-01T11:02:35Z</time></trkpt><trkpt lat="42.53679183550223" lon="8.856027736735047"><ele>174.0</ele><time>2026-05-01T11:02:36Z</time></trkpt><trkpt lat="42.53679878000737" lon="8.855819322096131"><ele>172.0</ele><time>2026-05-01T11:02:37Z</time></trkpt><trkpt lat="42.53682424268937" lon="8.855620689412799"><ele>170.0</ele><time>2026-05-01T11:02:38Z</time></trkpt><trkpt lat="42.536845665826554" lon="8.855442623808186"><ele>168.0</ele><time>2026-05-01T11:02:39Z</time></trkpt><trkpt lat="42.536774641761475" lon="8.855131825329185"><ele>165.5</ele><time>2026-05-01T11:02:41Z</time></trkpt><trkpt lat="42.5366778005186" lon="8.85500147769072"><ele>163.0</ele><time>2026-05-01T11:02:42Z</time></trkpt><trkpt lat="42.53656104263454" lon="8.854906281810955"><ele>160.5</ele><time>2026-05-01T11:02:43Z</time></trkpt><trkpt lat="42.536434657424266" lon="8.854854690232978"><ele>158.0</ele><time>2026-05-01T11:02:44Z</time></trkpt><trkpt lat="42.5363074751901" lon="8.854841952789826"><ele>159.25</ele><time>2026-05-01T11:02:45Z</time></trkpt><trkpt lat="42.53618812881344" lon="8.854883841256713"><ele>160.5</ele><time>2026-05-01T11:02:46Z</time></trkpt><trkpt lat="42.53607293272487" lon="8.854977697649717"><ele>161.75</ele><time>2026-05-01T11:02:47Z</time></trkpt><trkpt lat="42.535965558151894" lon="8.855106036029063"><ele>163.0</ele><time>2026-05-01T11:02:48Z</time></trkpt><trkpt lat="42.535870389122145" lon="8.855232019911918"><ele>163.0</ele><time>2026-05-01T11:02:49Z</time></trkpt><trkpt lat="42.53578989101116" lon="8.85535934977381"><ele>163.0</ele><time>2026-05-01T11:02:50Z</time></trkpt><trkpt lat="42.53571115487218" lon="8.855463989511087"><ele>163.0</ele><time>2026-05-01T11:02:51Z</time></trkpt><trkpt lat="42.53563782273286" lon="8.855506918941117"><ele>163.0</ele><time>2026-05-01T11:02:52Z</time></trkpt><trkpt lat="42.53557490458521" lon="8.855478279110901"><ele>163.0</ele><time>2026-05-01T11:02:53Z</time></trkpt><trkpt lat="42.53555782047054" lon="8.85538959335611"><ele>163.0</ele><time>2026-05-01T11:02:54Z</time></trkpt><trkpt lat="42.535592271736725" lon="8.855296136829844"><ele>163.0</ele><time>2026-05-01T11:02:55Z</time></trkpt><trkpt lat="42.535658025383356" lon="8.855220827943567"><ele>163.0</ele><time>2026-05-01T11:02:56Z</time></trkpt><trkpt lat="42.53573986858137" lon="8.855127704575638"><ele>163.0</ele><time>2026-05-01T11:02:57Z</time></trkpt><trkpt lat="42.53581469620165" lon="8.854998518258322"><ele>163.0</ele><time>2026-05-01T11:02:58Z</time></trkpt><trkpt lat="42.53588594306561" lon="8.854841309692032"><ele>155.5</ele><time>2026-05-01T11:02:59Z</time></trkpt><trkpt lat="42.536029931821204" lon="8.854479056319159"><ele>148.0</ele><time>2026-05-01T11:03:01Z</time></trkpt><trkpt lat="42.53611073773415" lon="8.85427507048157"><ele>147.33333333333334</ele><time>2026-05-01T11:03:02Z</time></trkpt><trkpt lat="42.536189771083166" lon="8.854057487003946"><ele>146.66666666666666</ele><time>2026-05-01T11:03:03Z</time></trkpt><trkpt lat="42.53627405523377" lon="8.853838079186119"><ele>146.0</ele><time>2026-05-01T11:03:04Z</time></trkpt><trkpt lat="42.536347840573555" lon="8.853612556796456"><ele>142.0</ele><time>2026-05-01T11:03:05Z</time></trkpt><trkpt lat="42.536399532356604" lon="8.853365796623999"><ele>138.0</ele><time>2026-05-01T11:03:06Z</time></trkpt><trkpt lat="42.53644723060114" lon="8.853118440513272"><ele>134.0</ele><time>2026-05-01T11:03:07Z</time></trkpt><trkpt lat="42.536501389661" lon="8.852870286275673"><ele>134.0</ele><time>2026-05-01T11:03:08Z</time></trkpt><trkpt lat="42.5365579759435" lon="8.852627692283376"><ele>134.0</ele><time>2026-05-01T11:03:09Z</time></trkpt><trkpt lat="42.53661533358114" lon="8.852394538997528"><ele>134.0</ele><time>2026-05-01T11:03:10Z</time></trkpt><trkpt lat="42.53666429933212" lon="8.852173855039668"><ele>132.66666666666666</ele><time>2026-05-01T11:03:11Z</time></trkpt><trkpt lat="42.53668920956843" lon="8.851959513938667"><ele>131.33333333333334</ele><time>2026-05-01T11:03:12Z</time></trkpt><trkpt lat="42.5366669579837" lon="8.851743112426318"><ele>130.0</ele><time>2026-05-01T11:03:13Z</time></trkpt><trkpt lat="42.5366139065604" lon="8.851523611259774"><ele>130.0</ele><time>2026-05-01T11:03:14Z</time></trkpt><trkpt lat="42.53654829822634" lon="8.85130249420778"><ele>130.0</ele><time>2026-05-01T11:03:15Z</time></trkpt><trkpt lat="42.53649080224377" lon="8.851081240721184"><ele>130.0</ele><time>2026-05-01T11:03:16Z</time></trkpt><trkpt lat="42.5364641243386" lon="8.850860412752628"><ele>130.66666666666669</ele><time>2026-05-01T11:03:17Z</time></trkpt><trkpt lat="42.53647770626981" lon="8.850649922962102"><ele>131.33333333333334</ele><time>2026-05-01T11:03:18Z</time></trkpt><trkpt lat="42.53653345935874" lon="8.850455367069605"><ele>132.0</ele><time>2026-05-01T11:03:18.999Z</time></trkpt><trkpt lat="42.536633785352095" lon="8.850299093491378"><ele>129.5</ele><time>2026-05-01T11:03:19.999Z</time></trkpt><trkpt lat="42.53686767876911" lon="8.849987274135403"><ele>127.0</ele><time>2026-05-01T11:03:21.999Z</time></trkpt><trkpt lat="42.536960611851384" lon="8.849813754867677"><ele>127.0</ele><time>2026-05-01T11:03:22.999Z</time></trkpt><trkpt lat="42.53703749803949" lon="8.84964050408598"><ele>127.0</ele><time>2026-05-01T11:03:23.999Z</time></trkpt><trkpt lat="42.53709490536593" lon="8.849449010484404"><ele>127.0</ele><time>2026-05-01T11:03:24.999Z</time></trkpt><trkpt lat="42.537131240248954" lon="8.849232899189795"><ele>128.66666666666669</ele><time>2026-05-01T11:03:25.999Z</time></trkpt><trkpt lat="42.537135689141856" lon="8.849004753271908"><ele>130.33333333333334</ele><time>2026-05-01T11:03:26.999Z</time></trkpt><trkpt lat="42.53713106735315" lon="8.848777507947789"><ele>132.0</ele><time>2026-05-01T11:03:27.999Z</time></trkpt><trkpt lat="42.537152418574436" lon="8.848568184053704"><ele>128.33333333333334</ele><time>2026-05-01T11:03:28.999Z</time></trkpt><trkpt lat="42.5372092270402" lon="8.848354044346914"><ele>124.66666666666667</ele><time>2026-05-01T11:03:29.999Z</time></trkpt><trkpt lat="42.537280734756806" lon="8.848134522793682"><ele>121.0</ele><time>2026-05-01T11:03:30.999Z</time></trkpt><trkpt lat="42.537358132019214" lon="8.847904162795697"><ele>121.0</ele><time>2026-05-01T11:03:31.999Z</time></trkpt><trkpt lat="42.53742808142877" lon="8.847670778967757"><ele>121.0</ele><time>2026-05-01T11:03:32.999Z</time></trkpt><trkpt lat="42.537492381357914" lon="8.8474323141415"><ele>121.0</ele><time>2026-05-01T11:03:33.999Z</time></trkpt><trkpt lat="42.53755362268665" lon="8.847185383963646"><ele>119.0</ele><time>2026-05-01T11:03:34.999Z</time></trkpt><trkpt lat="42.53761119271932" lon="8.846939171524545"><ele>117.0</ele><time>2026-05-01T11:03:35.999Z</time></trkpt><trkpt lat="42.53767441305836" lon="8.846689992155552"><ele>115.0</ele><time>2026-05-01T11:03:36.999Z</time></trkpt><trkpt lat="42.53772952089286" lon="8.84644983922234"><ele>113.33333333333334</ele><time>2026-05-01T11:03:37.999Z</time></trkpt><trkpt lat="42.537779610913546" lon="8.846207024893214"><ele>111.66666666666666</ele><time>2026-05-01T11:03:38.999Z</time></trkpt><trkpt lat="42.53781848176988" lon="8.845963844061416"><ele>110.0</ele><time>2026-05-01T11:03:39.999Z</time></trkpt><trkpt lat="42.53785693722208" lon="8.845727613074004"><ele>110.0</ele><time>2026-05-01T11:03:40.999Z</time></trkpt><trkpt lat="42.53796340150961" lon="8.845285384714598"><ele>110.0</ele><time>2026-05-01T11:03:42.999Z</time></trkpt><trkpt lat="42.53804245594259" lon="8.845084003679865"><ele>108.66666666666666</ele><time>2026-05-01T11:03:43.999Z</time></trkpt><trkpt lat="42.53812839021773" lon="8.844875749397783"><ele>107.33333333333334</ele><time>2026-05-01T11:03:44.999Z</time></trkpt><trkpt lat="42.53820550924022" lon="8.844653691359051"><ele>106.0</ele><time>2026-05-01T11:03:45.999Z</time></trkpt><trkpt lat="42.53827637901618" lon="8.84443332285463"><ele>105.0</ele><time>2026-05-01T11:03:46.999Z</time></trkpt><trkpt lat="42.53832904431882" lon="8.844217806427247"><ele>104.0</ele><time>2026-05-01T11:03:47.999Z</time></trkpt><trkpt lat="42.53838779009054" lon="8.844016230332144"><ele>103.0</ele><time>2026-05-01T11:03:48.999Z</time></trkpt><trkpt lat="42.53846232962199" lon="8.843828830626562"><ele>103.0</ele><time>2026-05-01T11:03:49.999Z</time></trkpt><trkpt lat="42.53856412482972" lon="8.843654878948307"><ele>103.0</ele><time>2026-05-01T11:03:50.999Z</time></trkpt><trkpt lat="42.53869530132059" lon="8.843498060296094"><ele>103.0</ele><time>2026-05-01T11:03:51.999Z</time></trkpt><trkpt lat="42.53881532601219" lon="8.843345066397184"><ele>102.66666666666667</ele><time>2026-05-01T11:03:52.999Z</time></trkpt><trkpt lat="42.53893214133625" lon="8.843183619841543"><ele>102.33333333333334</ele><time>2026-05-01T11:03:53.999Z</time></trkpt><trkpt lat="42.53904332559982" lon="8.843015343253192"><ele>102.0</ele><time>2026-05-01T11:03:54.999Z</time></trkpt><trkpt lat="42.539151080390226" lon="8.842853981807592"><ele>102.0</ele><time>2026-05-01T11:03:55.999Z</time></trkpt><trkpt lat="42.53926026826015" lon="8.84270037043112"><ele>102.0</ele><time>2026-05-01T11:03:56.999Z</time></trkpt><trkpt lat="42.5393751750705" lon="8.84257935490149"><ele>102.0</ele><time>2026-05-01T11:03:57.999Z</time></trkpt><trkpt lat="42.539517294310116" lon="8.842488799154403"><ele>101.0</ele><time>2026-05-01T11:03:58.999Z</time></trkpt><trkpt lat="42.53966147218673" lon="8.842418294457918"><ele>100.0</ele><time>2026-05-01T11:03:59.999Z</time></trkpt><trkpt lat="42.53980822794698" lon="8.842353765328527"><ele>99.0</ele><time>2026-05-01T11:04:00.999Z</time></trkpt><trkpt lat="42.54012850231147" lon="8.842234104218715"><ele>99.0</ele><time>2026-05-01T11:04:02.999Z</time></trkpt><trkpt lat="42.540292698582" lon="8.842177596127968"><ele>99.0</ele><time>2026-05-01T11:04:03.999Z</time></trkpt><trkpt lat="42.54047987177204" lon="8.842115004546544"><ele>99.0</ele><time>2026-05-01T11:04:04.999Z</time></trkpt><trkpt lat="42.54069782641417" lon="8.842058262755357"><ele>99.66666666666666</ele><time>2026-05-01T11:04:05.999Z</time></trkpt><trkpt lat="42.540901762678146" lon="8.842035878018462"><ele>100.33333333333333</ele><time>2026-05-01T11:04:06.999Z</time></trkpt><trkpt lat="42.54107326637122" lon="8.842060587493325"><ele>101.0</ele><time>2026-05-01T11:04:07.999Z</time></trkpt><trkpt lat="42.54124640534665" lon="8.84214226228568"><ele>102.0</ele><time>2026-05-01T11:04:08.999Z</time></trkpt><trkpt lat="42.541408657334365" lon="8.842235822203232"><ele>103.0</ele><time>2026-05-01T11:04:09.999Z</time></trkpt><trkpt lat="42.54159386971424" lon="8.842244349235065"><ele>104.0</ele><time>2026-05-01T11:04:10.999Z</time></trkpt><trkpt lat="42.54181518362001" lon="8.842160133452246"><ele>105.5</ele><time>2026-05-01T11:04:11.999Z</time></trkpt><trkpt lat="42.54205943203158" lon="8.84203682566685"><ele>107.0</ele><time>2026-05-01T11:04:12.999Z</time></trkpt><trkpt lat="42.54226960089949" lon="8.841983345796287"><ele>107.0</ele><time>2026-05-01T11:04:14Z</time></trkpt><trkpt lat="42.54247500454392" lon="8.841994114840203"><ele>107.0</ele><time>2026-05-01T11:04:15Z</time></trkpt><trkpt lat="42.5427073599454" lon="8.84203329596105"><ele>107.0</ele><time>2026-05-01T11:04:16Z</time></trkpt><trkpt lat="42.54296403270195" lon="8.842042425456118"><ele>107.33333333333333</ele><time>2026-05-01T11:04:17Z</time></trkpt><trkpt lat="42.54320215811025" lon="8.842023748861083"><ele>107.66666666666666</ele><time>2026-05-01T11:04:18Z</time></trkpt><trkpt lat="42.54338335905919" lon="8.841993387532426"><ele>108.0</ele><time>2026-05-01T11:04:19Z</time></trkpt><trkpt lat="42.54349340332088" lon="8.841946360856992"><ele>108.0</ele><time>2026-05-01T11:04:20Z</time></trkpt><trkpt lat="42.54354172662143" lon="8.84188305364227"><ele>108.0</ele><time>2026-05-01T11:04:21Z</time></trkpt><trkpt lat="42.5435527483125" lon="8.84179232232276"><ele>108.0</ele><time>2026-05-01T11:04:22Z</time></trkpt><trkpt lat="42.543485665416384" lon="8.841534275210087"><ele>108.0</ele><time>2026-05-01T11:04:24Z</time></trkpt><trkpt lat="42.543400927688324" lon="8.841377492258724"><ele>106.75</ele><time>2026-05-01T11:04:25Z</time></trkpt><trkpt lat="42.54332058006989" lon="8.841214493123847"><ele>105.5</ele><time>2026-05-01T11:04:26Z</time></trkpt><trkpt lat="42.543248741687904" lon="8.841050110222266"><ele>104.25</ele><time>2026-05-01T11:04:27Z</time></trkpt><trkpt lat="42.54318020103168" lon="8.84089655939838"><ele>103.0</ele><time>2026-05-01T11:04:28Z</time></trkpt><trkpt lat="42.54311829626235" lon="8.840740095078388"><ele>102.5</ele><time>2026-05-01T11:04:29Z</time></trkpt><trkpt lat="42.543056085997" lon="8.84057174578015"><ele>102.0</ele><time>2026-05-01T11:04:30Z</time></trkpt><trkpt lat="42.542997172029885" lon="8.84039560314648"><ele>101.5</ele><time>2026-05-01T11:04:31Z</time></trkpt><trkpt lat="42.542933432808994" lon="8.840228841663269"><ele>101.0</ele><time>2026-05-01T11:04:32Z</time></trkpt><trkpt lat="42.5428703634548" lon="8.84007728684675"><ele>101.0</ele><time>2026-05-01T11:04:33Z</time></trkpt><trkpt lat="42.542815153043186" lon="8.839929264515538"><ele>101.0</ele><time>2026-05-01T11:04:34Z</time></trkpt><trkpt lat="42.542767145933375" lon="8.839783267974514"><ele>101.0</ele><time>2026-05-01T11:04:35Z</time></trkpt><trkpt lat="42.542716959345036" lon="8.839617689703822"><ele>101.0</ele><time>2026-05-01T11:04:36Z</time></trkpt><trkpt lat="42.54265710319615" lon="8.839434806168729"><ele>100.5</ele><time>2026-05-01T11:04:37Z</time></trkpt><trkpt lat="42.54258625406854" lon="8.839268868527288"><ele>100.0</ele><time>2026-05-01T11:04:38Z</time></trkpt><trkpt lat="42.54249683596854" lon="8.839120842532802"><ele>99.5</ele><time>2026-05-01T11:04:39Z</time></trkpt><trkpt lat="42.54238891832764" lon="8.839011316447346"><ele>99.0</ele><time>2026-05-01T11:04:40Z</time></trkpt><trkpt lat="42.542252810815114" lon="8.838940047702723"><ele>99.0</ele><time>2026-05-01T11:04:41Z</time></trkpt><trkpt lat="42.54212157835309" lon="8.838884942630205"><ele>99.0</ele><time>2026-05-01T11:04:42Z</time></trkpt><trkpt lat="42.54200888580956" lon="8.83881247847082"><ele>99.0</ele><time>2026-05-01T11:04:43Z</time></trkpt><trkpt lat="42.541789435854064" lon="8.838560898025914"><ele>96.66666666666667</ele><time>2026-05-01T11:04:45Z</time></trkpt><trkpt lat="42.54169280658469" lon="8.838401281348519"><ele>94.33333333333334</ele><time>2026-05-01T11:04:46Z</time></trkpt><trkpt lat="42.54158147181578" lon="8.838237267424711"><ele>92.0</ele><time>2026-05-01T11:04:47Z</time></trkpt><trkpt lat="42.541480056857466" lon="8.83810519019968"><ele>92.0</ele><time>2026-05-01T11:04:48Z</time></trkpt><trkpt lat="42.541362346417486" lon="8.83799578206938"><ele>92.0</ele><time>2026-05-01T11:04:49Z</time></trkpt><trkpt lat="42.54123472341573" lon="8.837903766687443"><ele>92.0</ele><time>2026-05-01T11:04:50Z</time></trkpt><trkpt lat="42.541108642665954" lon="8.837827359069754"><ele>92.0</ele><time>2026-05-01T11:04:51Z</time></trkpt><trkpt lat="42.54097577772077" lon="8.837789323385362"><ele>91.5</ele><time>2026-05-01T11:04:52Z</time></trkpt><trkpt lat="42.54084352300777" lon="8.837777835759107"><ele>91.0</ele><time>2026-05-01T11:04:53Z</time></trkpt><trkpt lat="42.54070898147288" lon="8.837756866636544"><ele>90.5</ele><time>2026-05-01T11:04:54Z</time></trkpt><trkpt lat="42.54058376554816" lon="8.837710152357104"><ele>90.0</ele><time>2026-05-01T11:04:55Z</time></trkpt><trkpt lat="42.54045653769594" lon="8.83766576113916"><ele>90.25</ele><time>2026-05-01T11:04:56Z</time></trkpt><trkpt lat="42.54033140614527" lon="8.83762887987793"><ele>90.5</ele><time>2026-05-01T11:04:57Z</time></trkpt><trkpt lat="42.54021238281665" lon="8.837595369047868"><ele>90.75</ele><time>2026-05-01T11:04:58Z</time></trkpt><trkpt lat="42.54010686164695" lon="8.837559943419182"><ele>91.0</ele><time>2026-05-01T11:04:59Z</time></trkpt><trkpt lat="42.54000517207693" lon="8.837500520382271"><ele>91.0</ele><time>2026-05-01T11:05:00Z</time></trkpt><trkpt lat="42.53991377912226" lon="8.837396934330858"><ele>91.0</ele><time>2026-05-01T11:05:01Z</time></trkpt><trkpt lat="42.53984216909312" lon="8.837247780668994"><ele>91.0</ele><time>2026-05-01T11:05:02Z</time></trkpt><trkpt lat="42.539779512479384" lon="8.837082458430755"><ele>91.0</ele><time>2026-05-01T11:05:03Z</time></trkpt><trkpt lat="42.539698798160835" lon="8.836923723834747"><ele>91.0</ele><time>2026-05-01T11:05:04Z</time></trkpt><trkpt lat="42.539471496222916" lon="8.836635762499968"><ele>91.0</ele><time>2026-05-01T11:05:06Z</time></trkpt><trkpt lat="42.539342234235356" lon="8.836496272525377"><ele>91.0</ele><time>2026-05-01T11:05:07Z</time></trkpt><trkpt lat="42.53922104149233" lon="8.83635609448181"><ele>91.0</ele><time>2026-05-01T11:05:08Z</time></trkpt><trkpt lat="42.53910735278459" lon="8.83621891401318"><ele>91.0</ele><time>2026-05-01T11:05:09Z</time></trkpt><trkpt lat="42.53900049398021" lon="8.836097452919796"><ele>91.0</ele><time>2026-05-01T11:05:10Z</time></trkpt><trkpt lat="42.53889998627777" lon="8.8359875990053"><ele>91.0</ele><time>2026-05-01T11:05:11Z</time></trkpt><trkpt lat="42.538810344516776" lon="8.83587396450641"><ele>91.0</ele><time>2026-05-01T11:05:12Z</time></trkpt><trkpt lat="42.538741235636785" lon="8.835758042722864"><ele>91.0</ele><time>2026-05-01T11:05:13Z</time></trkpt><trkpt lat="42.538725077801516" lon="8.83562163286003"><ele>91.0</ele><time>2026-05-01T11:05:14Z</time></trkpt><trkpt lat="42.538748005914" lon="8.835488707204863"><ele>91.0</ele><time>2026-05-01T11:05:15Z</time></trkpt><trkpt lat="42.53881626218331" lon="8.835348587480789"><ele>91.0</ele><time>2026-05-01T11:05:16Z</time></trkpt><trkpt lat="42.53891088176043" lon="8.835209852754627"><ele>91.0</ele><time>2026-05-01T11:05:17Z</time></trkpt><trkpt lat="42.539006487512054" lon="8.83505861284809"><ele>90.33333333333333</ele><time>2026-05-01T11:05:18Z</time></trkpt><trkpt lat="42.53908549394571" lon="8.834885368319368"><ele>89.66666666666667</ele><time>2026-05-01T11:05:19Z</time></trkpt><trkpt lat="42.53915057911897" lon="8.834682520741744"><ele>89.0</ele><time>2026-05-01T11:05:20Z</time></trkpt><trkpt lat="42.53920032924495" lon="8.834467743054567"><ele>89.0</ele><time>2026-05-01T11:05:21Z</time></trkpt><trkpt lat="42.539243845320534" lon="8.83423161551707"><ele>89.0</ele><time>2026-05-01T11:05:22Z</time></trkpt><trkpt lat="42.5392769419251" lon="8.833993689879597"><ele>89.0</ele><time>2026-05-01T11:05:23Z</time></trkpt><trkpt lat="42.53930032041089" lon="8.833754440154406"><ele>89.0</ele><time>2026-05-01T11:05:24Z</time></trkpt><trkpt lat="42.53930872109521" lon="8.833520537977861"><ele>89.0</ele><time>2026-05-01T11:05:25Z</time></trkpt><trkpt lat="42.53929264741488" lon="8.83304039547456"><ele>88.66666666666667</ele><time>2026-05-01T11:05:27Z</time></trkpt><trkpt lat="42.53931681837742" lon="8.83280738508009"><ele>88.33333333333333</ele><time>2026-05-01T11:05:28Z</time></trkpt><trkpt lat="42.53936252854786" lon="8.832581671638007"><ele>88.0</ele><time>2026-05-01T11:05:29Z</time></trkpt><trkpt lat="42.53942548934337" lon="8.832360619606042"><ele>87.66666666666666</ele><time>2026-05-01T11:05:30Z</time></trkpt><trkpt lat="42.539494157147324" lon="8.832140693327572"><ele>87.33333333333333</ele><time>2026-05-01T11:05:31Z</time></trkpt><trkpt lat="42.5395653326634" lon="8.831916476698595"><ele>87.0</ele><time>2026-05-01T11:05:32Z</time></trkpt><trkpt lat="42.539641567712785" lon="8.831710164027005"><ele>86.33333333333333</ele><time>2026-05-01T11:05:33Z</time></trkpt><trkpt lat="42.53973013691573" lon="8.83151651058217"><ele>85.66666666666666</ele><time>2026-05-01T11:05:34Z</time></trkpt><trkpt lat="42.53982105565518" lon="8.831335066316253"><ele>85.0</ele><time>2026-05-01T11:05:35Z</time></trkpt><trkpt lat="42.53991702533932" lon="8.831171098316624"><ele>85.0</ele><time>2026-05-01T11:05:36Z</time></trkpt><trkpt lat="42.54000738612123" lon="8.831003127166133"><ele>85.0</ele><time>2026-05-01T11:05:37Z</time></trkpt><trkpt lat="42.540080172596504" lon="8.830819893840632"><ele>85.0</ele><time>2026-05-01T11:05:38Z</time></trkpt><trkpt lat="42.540133138890965" lon="8.830614710214123"><ele>85.33333333333333</ele><time>2026-05-01T11:05:39Z</time></trkpt><trkpt lat="42.54017113995849" lon="8.830387933609229"><ele>85.66666666666667</ele><time>2026-05-01T11:05:40Z</time></trkpt><trkpt lat="42.54021929145232" lon="8.83016448396843"><ele>86.0</ele><time>2026-05-01T11:05:41Z</time></trkpt><trkpt lat="42.54029013934977" lon="8.829947940780986"><ele>86.0</ele><time>2026-05-01T11:05:42Z</time></trkpt><trkpt lat="42.540367564301015" lon="8.829727512883627"><ele>86.0</ele><time>2026-05-01T11:05:43Z</time></trkpt><trkpt lat="42.54044288162052" lon="8.829506919840924"><ele>86.0</ele><time>2026-05-01T11:05:44Z</time></trkpt><trkpt lat="42.54051552078697" lon="8.829283767103322"><ele>84.5</ele><time>2026-05-01T11:05:45Z</time></trkpt><trkpt lat="42.540584771005285" lon="8.82905106572128"><ele>83.0</ele><time>2026-05-01T11:05:46Z</time></trkpt><trkpt lat="42.540680864454785" lon="8.828590542846479"><ele>83.33333333333334</ele><time>2026-05-01T11:05:48Z</time></trkpt><trkpt lat="42.540715874480014" lon="8.828348912974134"><ele>83.66666666666667</ele><time>2026-05-01T11:05:49Z</time></trkpt><trkpt lat="42.54074960114155" lon="8.828114385100543"><ele>84.0</ele><time>2026-05-01T11:05:50Z</time></trkpt><trkpt lat="42.54079188394472" lon="8.827895564757226"><ele>84.0</ele><time>2026-05-01T11:05:51Z</time></trkpt><trkpt lat="42.540857657676604" lon="8.827687888435731"><ele>84.0</ele><time>2026-05-01T11:05:52Z</time></trkpt><trkpt lat="42.540945587006405" lon="8.827495018268479"><ele>84.0</ele><time>2026-05-01T11:05:53Z</time></trkpt><trkpt lat="42.54105111167517" lon="8.827317850644395"><ele>84.0</ele><time>2026-05-01T11:05:54Z</time></trkpt><trkpt lat="42.54116263365519" lon="8.827149898985793"><ele>84.0</ele><time>2026-05-01T11:05:55Z</time></trkpt><trkpt lat="42.54128072065117" lon="8.82699359424496"><ele>84.0</ele><time>2026-05-01T11:05:56Z</time></trkpt><trkpt lat="42.54140739902031" lon="8.826842175276372"><ele>83.33333333333333</ele><time>2026-05-01T11:05:57Z</time></trkpt><trkpt lat="42.54153075833662" lon="8.82668273853008"><ele>82.66666666666666</ele><time>2026-05-01T11:05:58Z</time></trkpt><trkpt lat="42.54164588382354" lon="8.826505212841976"><ele>82.0</ele><time>2026-05-01T11:05:59Z</time></trkpt><trkpt lat="42.541746631407904" lon="8.826328888963396"><ele>82.0</ele><time>2026-05-01T11:06:00Z</time></trkpt><trkpt lat="42.54184140218144" lon="8.826166429789081"><ele>82.0</ele><time>2026-05-01T11:06:01Z</time></trkpt><trkpt lat="42.541931176632154" lon="8.8260115471206"><ele>82.0</ele><time>2026-05-01T11:06:02Z</time></trkpt><trkpt lat="42.54200943173205" lon="8.825880100889236"><ele>82.0</ele><time>2026-05-01T11:06:03Z</time></trkpt><trkpt lat="42.54207487476578" lon="8.82577439398612"><ele>81.5</ele><time>2026-05-01T11:06:04Z</time></trkpt><trkpt lat="42.5421308851003" lon="8.825683444166506"><ele>81.0</ele><time>2026-05-01T11:06:05Z</time></trkpt><trkpt lat="42.542171643647805" lon="8.825612091716804"><ele>80.5</ele><time>2026-05-01T11:06:06Z</time></trkpt><trkpt lat="42.542219179186844" lon="8.825548362509538"><ele>80.0</ele><time>2026-05-01T11:06:08Z</time></trkpt><trkpt lat="42.54238859478076" lon="8.825218216712253"><ele>79.5</ele><time>2026-05-01T11:06:32Z</time></trkpt><trkpt lat="42.54243883463686" lon="8.82513917585772"><ele>79.0</ele><time>2026-05-01T11:06:33Z</time></trkpt><trkpt lat="42.54248412498348" lon="8.82506282784503"><ele>78.5</ele><time>2026-05-01T11:06:34Z</time></trkpt><trkpt lat="42.54252342657621" lon="8.82498933309025"><ele>78.0</ele><time>2026-05-01T11:06:35Z</time></trkpt><trkpt lat="42.54255990499272" lon="8.824917642302355"><ele>77.5</ele><time>2026-05-01T11:06:36Z</time></trkpt><trkpt lat="42.54263352608409" lon="8.824786595389837"><ele>77.0</ele><time>2026-05-01T11:06:38Z</time></trkpt><trkpt lat="42.54269925818217" lon="8.824647989803463"><ele>77.0</ele><time>2026-05-01T11:06:40Z</time></trkpt><trkpt lat="42.54272653398273" lon="8.824568275798296"><ele>77.0</ele><time>2026-05-01T11:06:41Z</time></trkpt><trkpt lat="42.54279632135091" lon="8.824416879821365"><ele>77.0</ele><time>2026-05-01T11:06:43Z</time></trkpt><trkpt lat="42.542826433781684" lon="8.82432804637425"><ele>77.0</ele><time>2026-05-01T11:06:44Z</time></trkpt><trkpt lat="42.54286845261478" lon="8.824239545836157"><ele>77.0</ele><time>2026-05-01T11:06:45Z</time></trkpt><trkpt lat="42.542906579997904" lon="8.824147368266477"><ele>77.0</ele><time>2026-05-01T11:06:46Z</time></trkpt><trkpt lat="42.54293959683435" lon="8.82404618467851"><ele>75.33333333333334</ele><time>2026-05-01T11:06:47Z</time></trkpt><trkpt lat="42.542977068235224" lon="8.823928081468567"><ele>73.66666666666667</ele><time>2026-05-01T11:06:48Z</time></trkpt><trkpt lat="42.543041741673214" lon="8.823721008569725"><ele>72.0</ele><time>2026-05-01T11:06:49Z</time></trkpt><trkpt lat="42.54311636400971" lon="8.823469738711006"><ele>72.0</ele><time>2026-05-01T11:06:50Z</time></trkpt><trkpt lat="42.54329382988595" lon="8.822843979238094"><ele>71.5</ele><time>2026-05-01T11:06:52Z</time></trkpt><trkpt lat="42.54338414701393" lon="8.822489253599079"><ele>71.0</ele><time>2026-05-01T11:06:53Z</time></trkpt><trkpt lat="42.54343771555764" lon="8.822162997593999"><ele>71.0</ele><time>2026-05-01T11:06:54Z</time></trkpt><trkpt lat="42.54348586432079" lon="8.821864054035261"><ele>71.0</ele><time>2026-05-01T11:06:55Z</time></trkpt><trkpt lat="42.543545573209634" lon="8.821596208286183"><ele>71.0</ele><time>2026-05-01T11:06:56Z</time></trkpt><trkpt lat="42.543613135899484" lon="8.82134691582617"><ele>71.66666666666667</ele><time>2026-05-01T11:06:57Z</time></trkpt><trkpt lat="42.543685004699846" lon="8.821114232673715"><ele>72.33333333333333</ele><time>2026-05-01T11:06:58Z</time></trkpt><trkpt lat="42.543763363791925" lon="8.820893137979208"><ele>73.0</ele><time>2026-05-01T11:06:59Z</time></trkpt><trkpt lat="42.543845105090725" lon="8.82066985535942"><ele>71.0</ele><time>2026-05-01T11:07:00Z</time></trkpt><trkpt lat="42.54392313942968" lon="8.820451627089483"><ele>69.0</ele><time>2026-05-01T11:07:01Z</time></trkpt><trkpt lat="42.544002301628176" lon="8.820231074354757"><ele>67.0</ele><time>2026-05-01T11:07:02Z</time></trkpt><trkpt lat="42.54407728157881" lon="8.820013937916624"><ele>67.0</ele><time>2026-05-01T11:07:03Z</time></trkpt><trkpt lat="42.54415064588621" lon="8.819794201223885"><ele>67.0</ele><time>2026-05-01T11:07:04Z</time></trkpt><trkpt lat="42.544220926681504" lon="8.819571108055536"><ele>67.0</ele><time>2026-05-01T11:07:05Z</time></trkpt><trkpt lat="42.54429301114407" lon="8.819349040128346"><ele>67.66666666666666</ele><time>2026-05-01T11:07:06Z</time></trkpt><trkpt lat="42.544367252644165" lon="8.819132932052003"><ele>68.33333333333333</ele><time>2026-05-01T11:07:07Z</time></trkpt><trkpt lat="42.54444238469213" lon="8.818918244855826"><ele>69.0</ele><time>2026-05-01T11:07:08Z</time></trkpt><trkpt lat="42.5445110182178" lon="8.818699478844993"><ele>67.66666666666667</ele><time>2026-05-01T11:07:09Z</time></trkpt><trkpt lat="42.544575155997144" lon="8.818480133719985"><ele>66.33333333333334</ele><time>2026-05-01T11:07:10Z</time></trkpt><trkpt lat="42.54463423060393" lon="8.818261518500291"><ele>65.0</ele><time>2026-05-01T11:07:11Z</time></trkpt><trkpt lat="42.54475974964096" lon="8.817829916569938"><ele>65.0</ele><time>2026-05-01T11:07:13Z</time></trkpt><trkpt lat="42.544832707723" lon="8.817625229371528"><ele>65.0</ele><time>2026-05-01T11:07:14Z</time></trkpt><trkpt lat="42.544909619646184" lon="8.817413067710252"><ele>65.0</ele><time>2026-05-01T11:07:15Z</time></trkpt><trkpt lat="42.5449915837429" lon="8.817200971686983"><ele>65.0</ele><time>2026-05-01T11:07:16Z</time></trkpt><trkpt lat="42.54507392339145" lon="8.816976862519454"><ele>65.0</ele><time>2026-05-01T11:07:17Z</time></trkpt><trkpt lat="42.54515616238874" lon="8.816759529980505"><ele>65.0</ele><time>2026-05-01T11:07:18Z</time></trkpt><trkpt lat="42.54525078005954" lon="8.816549229364314"><ele>64.0</ele><time>2026-05-01T11:07:19Z</time></trkpt><trkpt lat="42.545344485849085" lon="8.816340632440255"><ele>63.0</ele><time>2026-05-01T11:07:20Z</time></trkpt><trkpt lat="42.54543822805824" lon="8.816140931676227"><ele>62.0</ele><time>2026-05-01T11:07:21Z</time></trkpt><trkpt lat="42.54553654107317" lon="8.815944420540651"><ele>61.66666666666667</ele><time>2026-05-01T11:07:22Z</time></trkpt><trkpt lat="42.54564715233035" lon="8.815756725071601"><ele>61.33333333333333</ele><time>2026-05-01T11:07:23Z</time></trkpt><trkpt lat="42.54576261123396" lon="8.81556928015785"><ele>61.0</ele><time>2026-05-01T11:07:24Z</time></trkpt><trkpt lat="42.54587846025645" lon="8.815390919395345"><ele>61.0</ele><time>2026-05-01T11:07:25Z</time></trkpt><trkpt lat="42.5459953084051" lon="8.81522322880483"><ele>61.0</ele><time>2026-05-01T11:07:26Z</time></trkpt><trkpt lat="42.546112680884484" lon="8.815034671096901"><ele>61.0</ele><time>2026-05-01T11:07:27Z</time></trkpt><trkpt lat="42.54622833927386" lon="8.81484705658093"><ele>60.0</ele><time>2026-05-01T11:07:28Z</time></trkpt><trkpt lat="42.54634178522729" lon="8.81467072412083"><ele>59.0</ele><time>2026-05-01T11:07:29Z</time></trkpt><trkpt lat="42.54645928441613" lon="8.814496993656315"><ele>58.0</ele><time>2026-05-01T11:07:30Z</time></trkpt><trkpt lat="42.54657455864083" lon="8.814322979166668"><ele>57.5</ele><time>2026-05-01T11:07:31Z</time></trkpt><trkpt lat="42.546686656023795" lon="8.814155283309482"><ele>57.0</ele><time>2026-05-01T11:07:32Z</time></trkpt><trkpt lat="42.54691221868496" lon="8.8138222794047"><ele>57.0</ele><time>2026-05-01T11:07:34Z</time></trkpt><trkpt lat="42.547020465992475" lon="8.81365247407058"><ele>57.0</ele><time>2026-05-01T11:07:35Z</time></trkpt><trkpt lat="42.54712922065095" lon="8.813490477721476"><ele>57.0</ele><time>2026-05-01T11:07:36Z</time></trkpt><trkpt lat="42.547238201250174" lon="8.813324204944692"><ele>56.33333333333333</ele><time>2026-05-01T11:07:37Z</time></trkpt><trkpt lat="42.54734912784427" lon="8.813153479489975"><ele>55.666666666666664</ele><time>2026-05-01T11:07:38Z</time></trkpt><trkpt lat="42.54746040383459" lon="8.812981606517212"><ele>55.0</ele><time>2026-05-01T11:07:39Z</time></trkpt><trkpt lat="42.54757229982248" lon="8.812805694511932"><ele>54.666666666666664</ele><time>2026-05-01T11:07:40Z</time></trkpt><trkpt lat="42.54769247749551" lon="8.812635521638274"><ele>54.33333333333333</ele><time>2026-05-01T11:07:41Z</time></trkpt><trkpt lat="42.54782998492867" lon="8.812477569347504"><ele>54.0</ele><time>2026-05-01T11:07:42Z</time></trkpt><trkpt lat="42.54797714232749" lon="8.812343931236438"><ele>53.33333333333333</ele><time>2026-05-01T11:07:43Z</time></trkpt><trkpt lat="42.54813853299535" lon="8.812237865200084"><ele>52.666666666666664</ele><time>2026-05-01T11:07:44Z</time></trkpt><trkpt lat="42.54829516403555" lon="8.812120704800579"><ele>52.0</ele><time>2026-05-01T11:07:45Z</time></trkpt><trkpt lat="42.54844186204186" lon="8.811977189455577"><ele>52.666666666666664</ele><time>2026-05-01T11:07:46Z</time></trkpt><trkpt lat="42.54857879149715" lon="8.811820813658706"><ele>53.33333333333333</ele><time>2026-05-01T11:07:47Z</time></trkpt><trkpt lat="42.54871652321002" lon="8.811655728180678"><ele>54.0</ele><time>2026-05-01T11:07:48Z</time></trkpt><trkpt lat="42.5488539198061" lon="8.811494397288376"><ele>52.33333333333333</ele><time>2026-05-01T11:07:49Z</time></trkpt><trkpt lat="42.54899277937693" lon="8.811333650772989"><ele>50.666666666666664</ele><time>2026-05-01T11:07:50Z</time></trkpt><trkpt lat="42.54912654309029" lon="8.811175893357051"><ele>49.0</ele><time>2026-05-01T11:07:51Z</time></trkpt><trkpt lat="42.549232591205964" lon="8.811013220658259"><ele>48.5</ele><time>2026-05-01T11:07:52Z</time></trkpt><trkpt lat="42.54930427502584" lon="8.810838874511319"><ele>48.0</ele><time>2026-05-01T11:07:53Z</time></trkpt><trkpt lat="42.54935358366931" lon="8.810426243221876"><ele>48.0</ele><time>2026-05-01T11:07:55Z</time></trkpt><trkpt lat="42.54936067295045" lon="8.810183466917104"><ele>48.0</ele><time>2026-05-01T11:07:56Z</time></trkpt><trkpt lat="42.54937633473379" lon="8.809941929982326"><ele>48.0</ele><time>2026-05-01T11:07:57Z</time></trkpt><trkpt lat="42.549405819617434" lon="8.809680488529219"><ele>47.666666666666664</ele><time>2026-05-01T11:07:58Z</time></trkpt><trkpt lat="42.54943496873794" lon="8.809417297069304"><ele>47.33333333333333</ele><time>2026-05-01T11:07:59Z</time></trkpt><trkpt lat="42.54945957845518" lon="8.809145183633234"><ele>47.0</ele><time>2026-05-01T11:08:00Z</time></trkpt><trkpt lat="42.54947727938587" lon="8.80886007560701"><ele>47.0</ele><time>2026-05-01T11:08:01Z</time></trkpt><trkpt lat="42.5494921348474" lon="8.808568167922838"><ele>47.0</ele><time>2026-05-01T11:08:02Z</time></trkpt><trkpt lat="42.54950106533437" lon="8.808273424309412"><ele>47.0</ele><time>2026-05-01T11:08:03Z</time></trkpt><trkpt lat="42.549503250781385" lon="8.807980330219074"><ele>44.33333333333333</ele><time>2026-05-01T11:08:04Z</time></trkpt><trkpt lat="42.54950249551275" lon="8.807685865654332"><ele>41.666666666666664</ele><time>2026-05-01T11:08:05Z</time></trkpt><trkpt lat="42.54949917765286" lon="8.807388149564959"><ele>39.0</ele><time>2026-05-01T11:08:06Z</time></trkpt><trkpt lat="42.5495002402198" lon="8.807094607501158"><ele>36.666666666666664</ele><time>2026-05-01T11:08:07Z</time></trkpt><trkpt lat="42.549500186448924" lon="8.806803932338678"><ele>34.33333333333333</ele><time>2026-05-01T11:08:08Z</time></trkpt><trkpt lat="42.54950194782304" lon="8.806510717251186"><ele>32.0</ele><time>2026-05-01T11:08:09Z</time></trkpt><trkpt lat="42.54949073097384" lon="8.806220201796522"><ele>32.33333333333333</ele><time>2026-05-01T11:08:10Z</time></trkpt><trkpt lat="42.54946874294568" lon="8.805930795529783"><ele>32.666666666666664</ele><time>2026-05-01T11:08:11Z</time></trkpt><trkpt lat="42.549441793371834" lon="8.805646692523203"><ele>33.0</ele><time>2026-05-01T11:08:12Z</time></trkpt><trkpt lat="42.54942300803144" lon="8.805360831726556"><ele>32.5</ele><time>2026-05-01T11:08:13Z</time></trkpt><trkpt lat="42.54942590123535" lon="8.805084509311234"><ele>32.0</ele><time>2026-05-01T11:08:14Z</time></trkpt><trkpt lat="42.54949941592017" lon="8.804537659905664"><ele>30.333333333333332</ele><time>2026-05-01T11:08:16Z</time></trkpt><trkpt lat="42.549545086840716" lon="8.804274702627461"><ele>28.666666666666664</ele><time>2026-05-01T11:08:17Z</time></trkpt><trkpt lat="42.54959325766773" lon="8.80400546240133"><ele>27.0</ele><time>2026-05-01T11:08:18Z</time></trkpt><trkpt lat="42.549638331514686" lon="8.803731885060191"><ele>25.333333333333332</ele><time>2026-05-01T11:08:19Z</time></trkpt><trkpt lat="42.549688827645205" lon="8.803463042809376"><ele>23.666666666666664</ele><time>2026-05-01T11:08:20Z</time></trkpt><trkpt lat="42.54974426318546" lon="8.80319527987285"><ele>22.0</ele><time>2026-05-01T11:08:21Z</time></trkpt><trkpt lat="42.549797733321164" lon="8.802926040770258"><ele>22.0</ele><time>2026-05-01T11:08:22Z</time></trkpt><trkpt lat="42.549836647123286" lon="8.80265213953331"><ele>22.0</ele><time>2026-05-01T11:08:23Z</time></trkpt><trkpt lat="42.5498632779794" lon="8.802368761063695"><ele>22.0</ele><time>2026-05-01T11:08:24Z</time></trkpt><trkpt lat="42.549890013589774" lon="8.802091754231315"><ele>21.0</ele><time>2026-05-01T11:08:25Z</time></trkpt><trkpt lat="42.54991392452103" lon="8.801809988929815"><ele>20.0</ele><time>2026-05-01T11:08:26Z</time></trkpt><trkpt lat="42.549942571195146" lon="8.80153598156941"><ele>19.0</ele><time>2026-05-01T11:08:27Z</time></trkpt><trkpt lat="42.54996266887926" lon="8.801261238387129"><ele>18.666666666666664</ele><time>2026-05-01T11:08:28Z</time></trkpt><trkpt lat="42.5499963515739" lon="8.800989167390771"><ele>18.333333333333332</ele><time>2026-05-01T11:08:29Z</time></trkpt><trkpt lat="42.550035453917864" lon="8.800724774885877"><ele>18.0</ele><time>2026-05-01T11:08:30Z</time></trkpt><trkpt lat="42.55007195801667" lon="8.80045654844792"><ele>18.0</ele><time>2026-05-01T11:08:31Z</time></trkpt><trkpt lat="42.55011025352371" lon="8.800189956616315"><ele>18.0</ele><time>2026-05-01T11:08:32Z</time></trkpt><trkpt lat="42.550145926859635" lon="8.799916896113459"><ele>18.0</ele><time>2026-05-01T11:08:33Z</time></trkpt><trkpt lat="42.55017578010011" lon="8.799644264830148"><ele>18.0</ele><time>2026-05-01T11:08:34Z</time></trkpt><trkpt lat="42.550214021780945" lon="8.799368182299954"><ele>18.0</ele><time>2026-05-01T11:08:35Z</time></trkpt><trkpt lat="42.550291900392494" lon="8.798815391595236"><ele>17.666666666666668</ele><time>2026-05-01T11:08:37Z</time></trkpt><trkpt lat="42.550333804089966" lon="8.79853982083383"><ele>17.333333333333336</ele><time>2026-05-01T11:08:38Z</time></trkpt><trkpt lat="42.5503726754327" lon="8.798264672696464"><ele>17.0</ele><time>2026-05-01T11:08:39Z</time></trkpt><trkpt lat="42.55040746917806" lon="8.797982885883282"><ele>15.666666666666668</ele><time>2026-05-01T11:08:40Z</time></trkpt><trkpt lat="42.550439699305464" lon="8.797706119553418"><ele>14.333333333333332</ele><time>2026-05-01T11:08:41Z</time></trkpt><trkpt lat="42.5504666813157" lon="8.797440993663951"><ele>13.0</ele><time>2026-05-01T11:08:42Z</time></trkpt><trkpt lat="42.5504877168996" lon="8.797194678168255"><ele>12.333333333333332</ele><time>2026-05-01T11:08:43Z</time></trkpt><trkpt lat="42.55049906108871" lon="8.796943431616418"><ele>11.666666666666666</ele><time>2026-05-01T11:08:44Z</time></trkpt><trkpt lat="42.55050105675132" lon="8.796717359464136"><ele>11.0</ele><time>2026-05-01T11:08:45Z</time></trkpt><trkpt lat="42.550492376251235" lon="8.796506512489307"><ele>10.5</ele><time>2026-05-01T11:08:46Z</time></trkpt><trkpt lat="42.55047932120997" lon="8.796314316466056"><ele>10.0</ele><time>2026-05-01T11:08:47Z</time></trkpt><trkpt lat="42.55046857480598" lon="8.796144644244585"><ele>9.5</ele><time>2026-05-01T11:08:48Z</time></trkpt><trkpt lat="42.55049062884414" lon="8.79599586539653"><ele>9.0</ele><time>2026-05-01T11:08:49Z</time></trkpt><trkpt lat="42.550542392091984" lon="8.79586333275856"><ele>9.0</ele><time>2026-05-01T11:08:50Z</time></trkpt><trkpt lat="42.550609711126285" lon="8.795748797343151"><ele>9.0</ele><time>2026-05-01T11:08:51Z</time></trkpt><trkpt lat="42.550701384945356" lon="8.795653381842913"><ele>9.0</ele><time>2026-05-01T11:08:52Z</time></trkpt><trkpt lat="42.55082464600387" lon="8.795573433045691"><ele>9.0</ele><time>2026-05-01T11:08:53Z</time></trkpt><trkpt lat="42.55096934044772" lon="8.795522232137806"><ele>9.0</ele><time>2026-05-01T11:08:54Z</time></trkpt><trkpt lat="42.55110280318251" lon="8.795486550444458"><ele>9.0</ele><time>2026-05-01T11:08:55Z</time></trkpt><trkpt lat="42.551219342613464" lon="8.795450789868998"><ele>9.0</ele><time>2026-05-01T11:08:56Z</time></trkpt><trkpt lat="42.551429884328314" lon="8.795378517615351"><ele>8.75</ele><time>2026-05-01T11:08:58Z</time></trkpt><trkpt lat="42.55153100652575" lon="8.79534606218116"><ele>8.5</ele><time>2026-05-01T11:08:59Z</time></trkpt><trkpt lat="42.55164453159959" lon="8.795306856396637"><ele>8.25</ele><time>2026-05-01T11:09:00Z</time></trkpt><trkpt lat="42.55177199492857" lon="8.795263670290225"><ele>8.0</ele><time>2026-05-01T11:09:01Z</time></trkpt><trkpt lat="42.55191460522958" lon="8.79520606027765"><ele>7.666666666666666</ele><time>2026-05-01T11:09:02Z</time></trkpt><trkpt lat="42.55206480304608" lon="8.795143109804012"><ele>7.333333333333334</ele><time>2026-05-01T11:09:03Z</time></trkpt><trkpt lat="42.552221637251044" lon="8.79507591752452"><ele>7.0</ele><time>2026-05-01T11:09:04Z</time></trkpt><trkpt lat="42.55238894106479" lon="8.795013723232005"><ele>7.0</ele><time>2026-05-01T11:09:05Z</time></trkpt><trkpt lat="42.55255765755288" lon="8.794940807639138"><ele>7.0</ele><time>2026-05-01T11:09:06Z</time></trkpt><trkpt lat="42.55273150317139" lon="8.794868155578067"><ele>7.0</ele><time>2026-05-01T11:09:07Z</time></trkpt><trkpt lat="42.552907893202914" lon="8.794790006326517"><ele>6.333333333333334</ele><time>2026-05-01T11:09:08Z</time></trkpt><trkpt lat="42.55308407965338" lon="8.794707182723872"><ele>5.666666666666667</ele><time>2026-05-01T11:09:09Z</time></trkpt><trkpt lat="42.553262641270706" lon="8.794617310940232"><ele>5.0</ele><time>2026-05-01T11:09:10Z</time></trkpt><trkpt lat="42.553442136688936" lon="8.794522061246113"><ele>5.0</ele><time>2026-05-01T11:09:11Z</time></trkpt><trkpt lat="42.55360825235294" lon="8.79441404934842"><ele>5.0</ele><time>2026-05-01T11:09:12Z</time></trkpt><trkpt lat="42.55376879804403" lon="8.794296891347484"><ele>5.0</ele><time>2026-05-01T11:09:13Z</time></trkpt><trkpt lat="42.553913670856325" lon="8.794163271042011"><ele>4.666666666666667</ele><time>2026-05-01T11:09:14Z</time></trkpt><trkpt lat="42.55404428245475" lon="8.794043464870015"><ele>4.333333333333333</ele><time>2026-05-01T11:09:15Z</time></trkpt><trkpt lat="42.554164282249346" lon="8.793915055352691"><ele>4.0</ele><time>2026-05-01T11:09:16Z</time></trkpt><trkpt lat="42.55426813749976" lon="8.793788783773223"><ele>4.0</ele><time>2026-05-01T11:09:17Z</time></trkpt><trkpt lat="42.554411337204115" lon="8.793542030969261"><ele>4.0</ele><time>2026-05-01T11:09:19Z</time></trkpt><trkpt lat="42.55447361861057" lon="8.79343488649362"><ele>4.0</ele><time>2026-05-01T11:09:20Z</time></trkpt><trkpt lat="42.55454281434614" lon="8.793352483862911"><ele>4.0</ele><time>2026-05-01T11:09:21Z</time></trkpt><trkpt lat="42.554614872795334" lon="8.79329270161796"><ele>4.0</ele><time>2026-05-01T11:09:22Z</time></trkpt><trkpt lat="42.554695816572924" lon="8.79323615181906"><ele>4.0</ele><time>2026-05-01T11:09:23Z</time></trkpt><trkpt lat="42.55479306571981" lon="8.793193061540132"><ele>4.0</ele><time>2026-05-01T11:09:24Z</time></trkpt><trkpt lat="42.55490244577649" lon="8.793153553645231"><ele>4.0</ele><time>2026-05-01T11:09:25Z</time></trkpt><trkpt lat="42.555023937738014" lon="8.793126863008398"><ele>4.0</ele><time>2026-05-01T11:09:26Z</time></trkpt><trkpt lat="42.5551472235956" lon="8.793105293592776"><ele>3.9999999999999996</ele><time>2026-05-01T11:09:27Z</time></trkpt><trkpt lat="42.55525822707455" lon="8.79308526372707"><ele>4.0</ele><time>2026-05-01T11:09:28Z</time></trkpt><trkpt lat="42.55535453574918" lon="8.793058920367947"><ele>4.0</ele><time>2026-05-01T11:09:29Z</time></trkpt><trkpt lat="42.55543465015501" lon="8.793019166542733"><ele>4.0</ele><time>2026-05-01T11:09:30Z</time></trkpt><trkpt lat="42.55550709895516" lon="8.792972874679595"><ele>3.9999999999999996</ele><time>2026-05-01T11:09:31Z</time></trkpt><trkpt lat="42.55557034553904" lon="8.79292920964555"><ele>4.0</ele><time>2026-05-01T11:09:32Z</time></trkpt><trkpt lat="42.5556824480454" lon="8.792876735674676"><ele>4.5</ele><time>2026-05-01T11:09:34Z</time></trkpt><trkpt lat="42.55579371637946" lon="8.792869016208611"><ele>5.0</ele><time>2026-05-01T11:09:36Z</time></trkpt><trkpt lat="42.555905966538354" lon="8.792833851931745"><ele>5.5</ele><time>2026-05-01T11:09:38Z</time></trkpt><trkpt lat="42.55595463327592" lon="8.79260843881528"><ele>6.0</ele><time>2026-05-01T11:09:41Z</time></trkpt><trkpt lat="42.55591533829159" lon="8.792530795720676"><ele>5.2</ele><time>2026-05-01T11:09:42Z</time></trkpt><trkpt lat="42.55584677082568" lon="8.79247709023418"><ele>4.3999999999999995</ele><time>2026-05-01T11:09:43Z</time></trkpt><trkpt lat="42.55576002311933" lon="8.792417654465442"><ele>3.6</ele><time>2026-05-01T11:09:44Z</time></trkpt><trkpt lat="42.5556763020237" lon="8.792322381420616"><ele>2.8</ele><time>2026-05-01T11:09:45Z</time></trkpt><trkpt lat="42.55558946495737" lon="8.792216089896698"><ele>2.0</ele><time>2026-05-01T11:09:46Z</time></trkpt><trkpt lat="42.55549130721825" lon="8.792072270982805"><ele>2.0</ele><time>2026-05-01T11:09:47Z</time></trkpt><trkpt lat="42.55540080994497" lon="8.791875948001955"><ele>2.0</ele><time>2026-05-01T11:09:48Z</time></trkpt><trkpt lat="42.55531256877556" lon="8.791668205927282"><ele>2.0</ele><time>2026-05-01T11:09:49Z</time></trkpt><trkpt lat="42.55520421806504" lon="8.791444150496885"><ele>2.0</ele><time>2026-05-01T11:09:50Z</time></trkpt><trkpt lat="42.55508952373022" lon="8.791227204523793"><ele>2.0</ele><time>2026-05-01T11:09:51Z</time></trkpt><trkpt lat="42.5549629373299" lon="8.791015247479772"><ele>2.0</ele><time>2026-05-01T11:09:52Z</time></trkpt><trkpt lat="42.55483221526914" lon="8.790818826961305"><ele>1.6666666666666665</ele><time>2026-05-01T11:09:53Z</time></trkpt><trkpt lat="42.55469110934982" lon="8.79063050485158"><ele>1.3333333333333333</ele><time>2026-05-01T11:09:54Z</time></trkpt><trkpt lat="42.554537809966575" lon="8.79046154079468"><ele>1.0</ele><time>2026-05-01T11:09:55Z</time></trkpt><trkpt lat="42.554371355142614" lon="8.79032790741898"><ele>1.0</ele><time>2026-05-01T11:09:56Z</time></trkpt><trkpt lat="42.55419557848889" lon="8.790226192296922"><ele>1.0</ele><time>2026-05-01T11:09:57Z</time></trkpt><trkpt lat="42.554019480746994" lon="8.790141225005918"><ele>1.0</ele><time>2026-05-01T11:09:58Z</time></trkpt><trkpt lat="42.55384137823244" lon="8.790045582765202"><ele>1.5</ele><time>2026-05-01T11:09:59Z</time></trkpt><trkpt lat="42.55350284873381" lon="8.789843624849963"><ele>2.0</ele><time>2026-05-01T11:10:01Z</time></trkpt><trkpt lat="42.55333052520591" lon="8.789743410024718"><ele>2.0</ele><time>2026-05-01T11:10:02Z</time></trkpt><trkpt lat="42.55315886219731" lon="8.78964599924875"><ele>2.0</ele><time>2026-05-01T11:10:03Z</time></trkpt><trkpt lat="42.55298693571379" lon="8.78954590527286"><ele>2.0</ele><time>2026-05-01T11:10:04Z</time></trkpt><trkpt lat="42.55281766794139" lon="8.789442733428483"><ele>2.333333333333333</ele><time>2026-05-01T11:10:05Z</time></trkpt><trkpt lat="42.5526374938544" lon="8.789333375925064"><ele>2.6666666666666665</ele><time>2026-05-01T11:10:06Z</time></trkpt><trkpt lat="42.552457775725685" lon="8.789221948022773"><ele>3.0</ele><time>2026-05-01T11:10:07Z</time></trkpt><trkpt lat="42.55227099218806" lon="8.78910692194472"><ele>3.0</ele><time>2026-05-01T11:10:08Z</time></trkpt><trkpt lat="42.55208127248137" lon="8.788993887636902"><ele>3.0</ele><time>2026-05-01T11:10:09Z</time></trkpt><trkpt lat="42.55189227450575" lon="8.788885863066728"><ele>3.0</ele><time>2026-05-01T11:10:10Z</time></trkpt><trkpt lat="42.55170251287157" lon="8.788774231461622"><ele>3.333333333333333</ele><time>2026-05-01T11:10:11Z</time></trkpt><trkpt lat="42.55151545781763" lon="8.788664715142671"><ele>3.6666666666666665</ele><time>2026-05-01T11:10:12Z</time></trkpt><trkpt lat="42.55132878933796" lon="8.788551195104107"><ele>4.0</ele><time>2026-05-01T11:10:13Z</time></trkpt><trkpt lat="42.551143083914134" lon="8.788439169670765"><ele>4.0</ele><time>2026-05-01T11:10:14Z</time></trkpt><trkpt lat="42.550954554930684" lon="8.788328838181615"><ele>4.0</ele><time>2026-05-01T11:10:15Z</time></trkpt><trkpt lat="42.5507635659111" lon="8.788229273840331"><ele>4.0</ele><time>2026-05-01T11:10:16Z</time></trkpt><trkpt lat="42.550581027534655" lon="8.788114858009603"><ele>4.0</ele><time>2026-05-01T11:10:17Z</time></trkpt><trkpt lat="42.5503950561274" lon="8.78800149437855"><ele>4.0</ele><time>2026-05-01T11:10:18Z</time></trkpt><trkpt lat="42.55021170174913" lon="8.78788511915163"><ele>4.0</ele><time>2026-05-01T11:10:19Z</time></trkpt><trkpt lat="42.550029230010644" lon="8.787750700259231"><ele>4.0</ele><time>2026-05-01T11:10:20Z</time></trkpt><trkpt lat="42.549708994956255" lon="8.78740696164754"><ele>4.0</ele><time>2026-05-01T11:10:22Z</time></trkpt><trkpt lat="42.549573027196885" lon="8.787192907834417"><ele>4.333333333333333</ele><time>2026-05-01T11:10:23Z</time></trkpt><trkpt lat="42.549463451230636" lon="8.78695831739946"><ele>4.666666666666667</ele><time>2026-05-01T11:10:24Z</time></trkpt><trkpt lat="42.54937059160989" lon="8.78670411394646"><ele>5.0</ele><time>2026-05-01T11:10:25Z</time></trkpt><trkpt lat="42.54930435546807" lon="8.786442879119848"><ele>5.333333333333334</ele><time>2026-05-01T11:10:26Z</time></trkpt><trkpt lat="42.54925864779026" lon="8.786169093746278"><ele>5.666666666666667</ele><time>2026-05-01T11:10:27Z</time></trkpt><trkpt lat="42.5492407883999" lon="8.785890991786218"><ele>6.0</ele><time>2026-05-01T11:10:28Z</time></trkpt><trkpt lat="42.549248500446005" lon="8.785617883467102"><ele>6.0</ele><time>2026-05-01T11:10:29Z</time></trkpt><trkpt lat="42.549276162727274" lon="8.785342630138752"><ele>6.0</ele><time>2026-05-01T11:10:30Z</time></trkpt><trkpt lat="42.54931848815169" lon="8.78508061938033"><ele>6.0</ele><time>2026-05-01T11:10:31Z</time></trkpt><trkpt lat="42.54938457899561" lon="8.784827083791148"><ele>6.0</ele><time>2026-05-01T11:10:31.999Z</time></trkpt><trkpt lat="42.54946450343143" lon="8.784592398947547"><ele>6.0</ele><time>2026-05-01T11:10:32.999Z</time></trkpt><trkpt lat="42.5495440651258" lon="8.784375723052435"><ele>6.0</ele><time>2026-05-01T11:10:33.999Z</time></trkpt><trkpt lat="42.54961636123574" lon="8.784178489627386"><ele>6.5</ele><time>2026-05-01T11:10:34.999Z</time></trkpt><trkpt lat="42.54967475837603" lon="8.784009252546305"><ele>7.0</ele><time>2026-05-01T11:10:35.999Z</time></trkpt><trkpt lat="42.54973839888382" lon="8.783863676128458"><ele>7.5</ele><time>2026-05-01T11:10:36.999Z</time></trkpt><trkpt lat="42.54981684722138" lon="8.783753610831807"><ele>8.0</ele><time>2026-05-01T11:10:37.999Z</time></trkpt><trkpt lat="42.54989700338522" lon="8.783671869711222"><ele>8.0</ele><time>2026-05-01T11:10:38.999Z</time></trkpt><trkpt lat="42.54995647440443" lon="8.78358381521147"><ele>8.0</ele><time>2026-05-01T11:10:39.999Z</time></trkpt><trkpt lat="42.54995925624508" lon="8.783480179100062"><ele>8.0</ele><time>2026-05-01T11:10:40.999Z</time></trkpt><trkpt lat="42.54993820980767" lon="8.783208826217457"><ele>8.0</ele><time>2026-05-01T11:10:43Z</time></trkpt><trkpt lat="42.54998643864224" lon="8.783045906486421"><ele>9.0</ele><time>2026-05-01T11:10:44Z</time></trkpt><trkpt lat="42.55005163859808" lon="8.782866389670026"><ele>10.0</ele><time>2026-05-01T11:10:45Z</time></trkpt><trkpt lat="42.5501147891982" lon="8.782675087688098"><ele>11.0</ele><time>2026-05-01T11:10:46Z</time></trkpt><trkpt lat="42.55018114081734" lon="8.782472584461958"><ele>12.0</ele><time>2026-05-01T11:10:47Z</time></trkpt><trkpt lat="42.55024840072954" lon="8.782267167938894"><ele>13.0</ele><time>2026-05-01T11:10:48Z</time></trkpt><trkpt lat="42.55031828472564" lon="8.782054485337"><ele>14.0</ele><time>2026-05-01T11:10:49Z</time></trkpt><trkpt lat="42.55038761208643" lon="8.781836229245027"><ele>14.0</ele><time>2026-05-01T11:10:50Z</time></trkpt><trkpt lat="42.55045925004442" lon="8.781619755658609"><ele>14.0</ele><time>2026-05-01T11:10:51Z</time></trkpt><trkpt lat="42.5505309008614" lon="8.781399033967153"><ele>14.0</ele><time>2026-05-01T11:10:52Z</time></trkpt><trkpt lat="42.55060322829746" lon="8.781173536122472"><ele>12.666666666666668</ele><time>2026-05-01T11:10:53Z</time></trkpt><trkpt lat="42.55067596156014" lon="8.780962093416402"><ele>11.333333333333334</ele><time>2026-05-01T11:10:54Z</time></trkpt><trkpt lat="42.55075015806641" lon="8.780739646979198"><ele>10.0</ele><time>2026-05-01T11:10:55Z</time></trkpt><trkpt lat="42.550822358580895" lon="8.780527016152133"><ele>10.0</ele><time>2026-05-01T11:10:56Z</time></trkpt><trkpt lat="42.55089360479127" lon="8.78031693776222"><ele>10.0</ele><time>2026-05-01T11:10:57Z</time></trkpt><trkpt lat="42.550965959881275" lon="8.780100060001732"><ele>10.0</ele><time>2026-05-01T11:10:58Z</time></trkpt><trkpt lat="42.55104439997588" lon="8.779896044928547"><ele>9.666666666666668</ele><time>2026-05-01T11:10:59Z</time></trkpt><trkpt lat="42.55112327498941" lon="8.77968722572765"><ele>9.333333333333334</ele><time>2026-05-01T11:11:00Z</time></trkpt><trkpt lat="42.55120788591889" lon="8.779480281566348"><ele>9.0</ele><time>2026-05-01T11:11:01Z</time></trkpt><trkpt lat="42.55128832639095" lon="8.779268659882188"><ele>8.5</ele><time>2026-05-01T11:11:02Z</time></trkpt><trkpt lat="42.551430287263344" lon="8.778855381603671"><ele>8.0</ele><time>2026-05-01T11:11:04Z</time></trkpt><trkpt lat="42.55149054111233" lon="8.778677850223474"><ele>7.5</ele><time>2026-05-01T11:11:05Z</time></trkpt><trkpt lat="42.55154624482398" lon="8.778514731681739"><ele>7.0</ele><time>2026-05-01T11:11:06Z</time></trkpt><trkpt lat="42.5516005846108" lon="8.77835882081481"><ele>6.5</ele><time>2026-05-01T11:11:07Z</time></trkpt><trkpt lat="42.55165219143059" lon="8.778204116648038"><ele>6.0</ele><time>2026-05-01T11:11:08Z</time></trkpt><trkpt lat="42.55170037985244" lon="8.778053365892275"><ele>6.0</ele><time>2026-05-01T11:11:09Z</time></trkpt><trkpt lat="42.55175290552601" lon="8.777914666214496"><ele>6.0</ele><time>2026-05-01T11:11:10Z</time></trkpt><trkpt lat="42.551804361617634" lon="8.777776675908813"><ele>6.0</ele><time>2026-05-01T11:11:11Z</time></trkpt><trkpt lat="42.5518562313191" lon="8.77762555995914"><ele>6.0</ele><time>2026-05-01T11:11:12Z</time></trkpt><trkpt lat="42.55190617509332" lon="8.77747184294369"><ele>5.75</ele><time>2026-05-01T11:11:13Z</time></trkpt><trkpt lat="42.55195768613652" lon="8.777312657450748"><ele>5.5</ele><time>2026-05-01T11:11:14Z</time></trkpt><trkpt lat="42.55200233948266" lon="8.777157353893317"><ele>5.25</ele><time>2026-05-01T11:11:15Z</time></trkpt><trkpt lat="42.55204177754392" lon="8.777007673618172"><ele>5.0</ele><time>2026-05-01T11:11:16Z</time></trkpt><trkpt lat="42.55207698160359" lon="8.776878907172536"><ele>4.6</ele><time>2026-05-01T11:11:17Z</time></trkpt><trkpt lat="42.55211076649904" lon="8.776772830793275"><ele>4.2</ele><time>2026-05-01T11:11:18Z</time></trkpt><trkpt lat="42.55215616978555" lon="8.776705949307265"><ele>3.8</ele><time>2026-05-01T11:11:19Z</time></trkpt><trkpt lat="42.55228424086105" lon="8.776715806533705"><ele>3.4</ele><time>2026-05-01T11:11:21Z</time></trkpt><trkpt lat="42.55236859511682" lon="8.776751487368758"><ele>3.0</ele><time>2026-05-01T11:11:22Z</time></trkpt><trkpt lat="42.55246199475188" lon="8.776787620456423"><ele>3.0</ele><time>2026-05-01T11:11:23Z</time></trkpt><trkpt lat="42.552656501835536" lon="8.77678652470324"><ele>3.0</ele><time>2026-05-01T11:11:25Z</time></trkpt><trkpt lat="42.55274118247867" lon="8.776722451269915"><ele>3.0</ele><time>2026-05-01T11:11:26Z</time></trkpt><trkpt lat="42.552816167808025" lon="8.776615698260459"><ele>3.0</ele><time>2026-05-01T11:11:27Z</time></trkpt><trkpt lat="42.552890521303155" lon="8.776496958485742"><ele>3.5</ele><time>2026-05-01T11:11:28Z</time></trkpt><trkpt lat="42.55296371116602" lon="8.776387056172089"><ele>4.0</ele><time>2026-05-01T11:11:29Z</time></trkpt><trkpt lat="42.55303912578449" lon="8.776266763163376"><ele>4.5</ele><time>2026-05-01T11:11:30Z</time></trkpt><trkpt lat="42.55312837147205" lon="8.776155100522283"><ele>5.0</ele><time>2026-05-01T11:11:31Z</time></trkpt><trkpt lat="42.55321333220054" lon="8.776054948353973"><ele>4.75</ele><time>2026-05-01T11:11:32Z</time></trkpt><trkpt lat="42.553295526835576" lon="8.775945837001725"><ele>4.5</ele><time>2026-05-01T11:11:33Z</time></trkpt><trkpt lat="42.55335790046816" lon="8.775831532074028"><ele>4.25</ele><time>2026-05-01T11:11:34Z</time></trkpt><trkpt lat="42.55340036099673" lon="8.77568901349222"><ele>4.0</ele><time>2026-05-01T11:11:35Z</time></trkpt><trkpt lat="42.553422595928765" lon="8.775527620225095"><ele>4.0</ele><time>2026-05-01T11:11:36Z</time></trkpt><trkpt lat="42.553440829945" lon="8.775360829021661"><ele>4.0</ele><time>2026-05-01T11:11:37Z</time></trkpt><trkpt lat="42.55346312054212" lon="8.775185533156707"><ele>4.0</ele><time>2026-05-01T11:11:38Z</time></trkpt><trkpt lat="42.553491229666825" lon="8.775004287312733"><ele>4.0</ele><time>2026-05-01T11:11:39Z</time></trkpt><trkpt lat="42.55353451030543" lon="8.774827663939861"><ele>4.5</ele><time>2026-05-01T11:11:40Z</time></trkpt><trkpt lat="42.55359642610232" lon="8.774661711567997"><ele>5.0</ele><time>2026-05-01T11:11:41Z</time></trkpt><trkpt lat="42.553679823384606" lon="8.774504659135467"><ele>5.5</ele><time>2026-05-01T11:11:42Z</time></trkpt><trkpt lat="42.55375518142627" lon="8.774342580631442"><ele>6.0</ele><time>2026-05-01T11:11:43Z</time></trkpt><trkpt lat="42.55382140898863" lon="8.774162644599024"><ele>6.666666666666666</ele><time>2026-05-01T11:11:44Z</time></trkpt><trkpt lat="42.55383790299239" lon="8.773762653495291"><ele>7.333333333333333</ele><time>2026-05-01T11:11:46Z</time></trkpt><trkpt lat="42.55383001604446" lon="8.773558968878387"><ele>8.0</ele><time>2026-05-01T11:11:47Z</time></trkpt><trkpt lat="42.55384336647252" lon="8.77335355452987"><ele>8.75</ele><time>2026-05-01T11:11:48Z</time></trkpt><trkpt lat="42.55388862002504" lon="8.773161885739952"><ele>9.5</ele><time>2026-05-01T11:11:49Z</time></trkpt><trkpt lat="42.55396984098617" lon="8.772995378721525"><ele>10.25</ele><time>2026-05-01T11:11:50Z</time></trkpt><trkpt lat="42.55405585801926" lon="8.772854583330078"><ele>11.0</ele><time>2026-05-01T11:11:51Z</time></trkpt><trkpt lat="42.55410071119229" lon="8.772707363093495"><ele>10.75</ele><time>2026-05-01T11:11:52Z</time></trkpt><trkpt lat="42.55410089259492" lon="8.772530220949973"><ele>10.5</ele><time>2026-05-01T11:11:53Z</time></trkpt><trkpt lat="42.55409866749882" lon="8.77234607712915"><ele>10.25</ele><time>2026-05-01T11:11:54Z</time></trkpt><trkpt lat="42.554122613858766" lon="8.772158305489514"><ele>10.0</ele><time>2026-05-01T11:11:55Z</time></trkpt><trkpt lat="42.554153761250326" lon="8.771958519321851"><ele>9.25</ele><time>2026-05-01T11:11:56Z</time></trkpt><trkpt lat="42.55416930286186" lon="8.771777634693084"><ele>8.5</ele><time>2026-05-01T11:11:57Z</time></trkpt><trkpt lat="42.554182894858" lon="8.771583941965536"><ele>7.75</ele><time>2026-05-01T11:11:58Z</time></trkpt><trkpt lat="42.55418845960204" lon="8.771385800211736"><ele>7.0</ele><time>2026-05-01T11:11:59Z</time></trkpt><trkpt lat="42.55420022741158" lon="8.771177687087041"><ele>6.666666666666667</ele><time>2026-05-01T11:12:00Z</time></trkpt><trkpt lat="42.554217779486265" lon="8.770982547306415"><ele>6.333333333333334</ele><time>2026-05-01T11:12:01Z</time></trkpt><trkpt lat="42.55424902115369" lon="8.770773007228028"><ele>6.0</ele><time>2026-05-01T11:12:02Z</time></trkpt><trkpt lat="42.55429466515393" lon="8.770565407499593"><ele>6.0</ele><time>2026-05-01T11:12:03Z</time></trkpt><trkpt lat="42.5543402498144" lon="8.770348242273984"><ele>6.0</ele><time>2026-05-01T11:12:04Z</time></trkpt><trkpt lat="42.554367631725896" lon="8.770126106950903"><ele>6.0</ele><time>2026-05-01T11:12:05Z</time></trkpt><trkpt lat="42.55442084947643" lon="8.769664513955867"><ele>6.666666666666666</ele><time>2026-05-01T11:12:07Z</time></trkpt><trkpt lat="42.55444183966201" lon="8.769438482263615"><ele>7.333333333333333</ele><time>2026-05-01T11:12:08Z</time></trkpt><trkpt lat="42.554465936525226" lon="8.769210627071512"><ele>8.0</ele><time>2026-05-01T11:12:09Z</time></trkpt><trkpt lat="42.55449804201042" lon="8.768991509192364"><ele>8.333333333333332</ele><time>2026-05-01T11:12:10Z</time></trkpt><trkpt lat="42.5545377379473" lon="8.768778887106933"><ele>8.666666666666666</ele><time>2026-05-01T11:12:11Z</time></trkpt><trkpt lat="42.55458952146301" lon="8.768575283835004"><ele>9.0</ele><time>2026-05-01T11:12:12Z</time></trkpt><trkpt lat="42.55464597248625" lon="8.768381971674033"><ele>9.75</ele><time>2026-05-01T11:12:12.999Z</time></trkpt><trkpt lat="42.55471596183658" lon="8.76822606018703"><ele>10.5</ele><time>2026-05-01T11:12:13.999Z</time></trkpt><trkpt lat="42.55478784362412" lon="8.768103959721559"><ele>11.25</ele><time>2026-05-01T11:12:14.999Z</time></trkpt><trkpt lat="42.55484061308907" lon="8.767964813337105"><ele>12.0</ele><time>2026-05-01T11:12:15.999Z</time></trkpt><trkpt lat="42.55484900632484" lon="8.767810945967424"><ele>12.0</ele><time>2026-05-01T11:12:16.999Z</time></trkpt><trkpt lat="42.55481548461981" lon="8.767648435042592"><ele>12.0</ele><time>2026-05-01T11:12:17.999Z</time></trkpt><trkpt lat="42.55477929200708" lon="8.767474312834345"><ele>12.0</ele><time>2026-05-01T11:12:18.999Z</time></trkpt><trkpt lat="42.554772442133675" lon="8.767281475809202"><ele>12.0</ele><time>2026-05-01T11:12:19.999Z</time></trkpt><trkpt lat="42.55482194116778" lon="8.767087848552713"><ele>12.0</ele><time>2026-05-01T11:12:20.999Z</time></trkpt><trkpt lat="42.55488816702841" lon="8.766897822333277"><ele>12.0</ele><time>2026-05-01T11:12:21.999Z</time></trkpt><trkpt lat="42.554956098672434" lon="8.766722164818185"><ele>12.0</ele><time>2026-05-01T11:12:22.999Z</time></trkpt><trkpt lat="42.55498437439098" lon="8.766549473064407"><ele>12.0</ele><time>2026-05-01T11:12:23.999Z</time></trkpt><trkpt lat="42.555009731492376" lon="8.766385660335146"><ele>10.666666666666666</ele><time>2026-05-01T11:12:24.999Z</time></trkpt><trkpt lat="42.55505105151216" lon="8.766230241093357"><ele>9.333333333333332</ele><time>2026-05-01T11:12:25.999Z</time></trkpt><trkpt lat="42.55509857998671" lon="8.765878873201773"><ele>8.0</ele><time>2026-05-01T11:12:27.999Z</time></trkpt><trkpt lat="42.555108048571356" lon="8.765701792889605"><ele>7.75</ele><time>2026-05-01T11:12:28.999Z</time></trkpt><trkpt lat="42.55513796810588" lon="8.765532306537438"><ele>7.5</ele><time>2026-05-01T11:12:29.999Z</time></trkpt><trkpt lat="42.55516964762614" lon="8.76538243848919"><ele>7.25</ele><time>2026-05-01T11:12:30.999Z</time></trkpt><trkpt lat="42.55515041906795" lon="8.765242269976214"><ele>7.0</ele><time>2026-05-01T11:12:31.999Z</time></trkpt><trkpt lat="42.55507681080351" lon="8.76512779968448"><ele>6.75</ele><time>2026-05-01T11:12:32.999Z</time></trkpt><trkpt lat="42.55496941991007" lon="8.765046389519458"><ele>6.5</ele><time>2026-05-01T11:12:33.999Z</time></trkpt><trkpt lat="42.55483208552495" lon="8.764999910087466"><ele>6.25</ele><time>2026-05-01T11:12:34.999Z</time></trkpt><trkpt lat="42.55469557189579" lon="8.764943575318352"><ele>6.0</ele><time>2026-05-01T11:12:35.999Z</time></trkpt><trkpt lat="42.5545657114542" lon="8.764869911669553"><ele>5.75</ele><time>2026-05-01T11:12:36.999Z</time></trkpt><trkpt lat="42.55444218043844" lon="8.764777691862012"><ele>5.5</ele><time>2026-05-01T11:12:37.999Z</time></trkpt><trkpt lat="42.55433063288162" lon="8.764667834065222"><ele>5.25</ele><time>2026-05-01T11:12:38.999Z</time></trkpt><trkpt lat="42.554224297804495" lon="8.764540775835773"><ele>5.0</ele><time>2026-05-01T11:12:39.999Z</time></trkpt><trkpt lat="42.55414687036147" lon="8.764409066196043"><ele>4.6</ele><time>2026-05-01T11:12:40.999Z</time></trkpt><trkpt lat="42.55409180675436" lon="8.764266051017957"><ele>4.2</ele><time>2026-05-01T11:12:41.999Z</time></trkpt><trkpt lat="42.554035299107355" lon="8.76416175382292"><ele>3.8</ele><time>2026-05-01T11:12:42.999Z</time></trkpt><trkpt lat="42.55397762463803" lon="8.764075353190115"><ele>3.4</ele><time>2026-05-01T11:12:43.999Z</time></trkpt><trkpt lat="42.55391416901379" lon="8.76396697464466"><ele>3.0</ele><time>2026-05-01T11:12:44.999Z</time></trkpt><trkpt lat="42.55386435884566" lon="8.763867456234635"><ele>3.0</ele><time>2026-05-01T11:12:45.999Z</time></trkpt><trkpt lat="42.55381875001439" lon="8.763774751008743"><ele>3.0</ele><time>2026-05-01T11:12:46.999Z</time></trkpt><trkpt lat="42.55373820921846" lon="8.763619605570247"><ele>3.0</ele><time>2026-05-01T11:12:48.999Z</time></trkpt><trkpt lat="42.55372357123159" lon="8.763528435939282"><ele>3.0</ele><time>2026-05-01T11:12:49.999Z</time></trkpt><trkpt lat="42.553746201649105" lon="8.763434551630152"><ele>3.0</ele><time>2026-05-01T11:12:50.999Z</time></trkpt><trkpt lat="42.55379797604986" lon="8.763362902352528"><ele>3.0</ele><time>2026-05-01T11:12:51.999Z</time></trkpt><trkpt lat="42.553884445456326" lon="8.76329030990146"><ele>3.4</ele><time>2026-05-01T11:12:53.999Z</time></trkpt><trkpt lat="42.55390651239168" lon="8.763208677709741"><ele>3.8</ele><time>2026-05-01T11:12:55.999Z</time></trkpt><trkpt lat="42.55391970441169" lon="8.763085007652224"><ele>4.2</ele><time>2026-05-01T11:12:58.999Z</time></trkpt><trkpt lat="42.553940946517805" lon="8.762934167674395"><ele>4.6</ele><time>2026-05-01T11:13:00.999Z</time></trkpt><trkpt lat="42.55398020471776" lon="8.762778543943558"><ele>5.0</ele><time>2026-05-01T11:13:02.999Z</time></trkpt><trkpt lat="42.554036793177815" lon="8.762647400996771"><ele>5.0</ele><time>2026-05-01T11:13:04.999Z</time></trkpt><trkpt lat="42.55410948873465" lon="8.762530449785764"><ele>5.0</ele><time>2026-05-01T11:13:06.999Z</time></trkpt><trkpt lat="42.554199947118484" lon="8.76241606852978"><ele>5.0</ele><time>2026-05-01T11:13:08.999Z</time></trkpt><trkpt lat="42.55435152796743" lon="8.762260123805664"><ele>5.0</ele><time>2026-05-01T11:13:11.999Z</time></trkpt><trkpt lat="42.554408505059804" lon="8.762199680490799"><ele>5.0</ele><time>2026-05-01T11:13:13Z</time></trkpt><trkpt lat="42.554465101773324" lon="8.762132848379439"><ele>5.0</ele><time>2026-05-01T11:13:14Z</time></trkpt><trkpt lat="42.55452386583222" lon="8.76206326360154"><ele>5.0</ele><time>2026-05-01T11:13:15Z</time></trkpt><trkpt lat="42.55458200861477" lon="8.761998904052609"><ele>5.0</ele><time>2026-05-01T11:13:16Z</time></trkpt><trkpt lat="42.55464168886528" lon="8.761931868070958"><ele>5.0</ele><time>2026-05-01T11:13:17Z</time></trkpt><trkpt lat="42.55470258308716" lon="8.761861081335654"><ele>5.0</ele><time>2026-05-01T11:13:18Z</time></trkpt><trkpt lat="42.55476959605175" lon="8.76178890880447"><ele>4.5</ele><time>2026-05-01T11:13:19Z</time></trkpt><trkpt lat="42.55483590367241" lon="8.761718405472232"><ele>4.0</ele><time>2026-05-01T11:13:20Z</time></trkpt><trkpt lat="42.55490187542104" lon="8.761646899316757"><ele>3.5</ele><time>2026-05-01T11:13:21Z</time></trkpt><trkpt lat="42.55496765768456" lon="8.761572158096364"><ele>3.0</ele><time>2026-05-01T11:13:22Z</time></trkpt><trkpt lat="42.555035600841755" lon="8.761496721834988"><ele>2.5</ele><time>2026-05-01T11:13:23Z</time></trkpt><trkpt lat="42.555104211235154" lon="8.761421798136139"><ele>2.0</ele><time>2026-05-01T11:13:24Z</time></trkpt><trkpt lat="42.55517350116126" lon="8.761340527405276"><ele>2.0</ele><time>2026-05-01T11:13:25Z</time></trkpt><trkpt lat="42.55524563368795" lon="8.761253797336728"><ele>2.0</ele><time>2026-05-01T11:13:26Z</time></trkpt><trkpt lat="42.555320174850735" lon="8.761161386213894"><ele>2.0</ele><time>2026-05-01T11:13:27Z</time></trkpt><trkpt lat="42.5554008719448" lon="8.761066265122745"><ele>2.0</ele><time>2026-05-01T11:13:28Z</time></trkpt><trkpt lat="42.55548404548336" lon="8.76096556003793"><ele>2.0</ele><time>2026-05-01T11:13:29Z</time></trkpt><trkpt lat="42.55556930984387" lon="8.760864779522013"><ele>3.0</ele><time>2026-05-01T11:13:30Z</time></trkpt><trkpt lat="42.55575816485088" lon="8.760646878738292"><ele>4.0</ele><time>2026-05-01T11:13:32Z</time></trkpt><trkpt lat="42.555855856661864" lon="8.760533641425516"><ele>5.0</ele><time>2026-05-01T11:13:33Z</time></trkpt><trkpt lat="42.55595569779504" lon="8.76042228428623"><ele>5.0</ele><time>2026-05-01T11:13:34Z</time></trkpt><trkpt lat="42.55605363357762" lon="8.760307510025969"><ele>5.0</ele><time>2026-05-01T11:13:35Z</time></trkpt><trkpt lat="42.556152074386" lon="8.76019327187752"><ele>5.0</ele><time>2026-05-01T11:13:36Z</time></trkpt><trkpt lat="42.55625152487182" lon="8.760080792729353"><ele>5.0</ele><time>2026-05-01T11:13:37Z</time></trkpt><trkpt lat="42.55635185367709" lon="8.759969095763095"><ele>4.75</ele><time>2026-05-01T11:13:38Z</time></trkpt><trkpt lat="42.556450047641725" lon="8.75985271789805"><ele>4.5</ele><time>2026-05-01T11:13:39Z</time></trkpt><trkpt lat="42.55654779872394" lon="8.759741115023692"><ele>4.25</ele><time>2026-05-01T11:13:40Z</time></trkpt><trkpt lat="42.55664563638466" lon="8.759626203290392"><ele>4.0</ele><time>2026-05-01T11:13:41Z</time></trkpt><trkpt lat="42.55674439683451" lon="8.759514804774797"><ele>4.0</ele><time>2026-05-01T11:13:42Z</time></trkpt><trkpt lat="42.55684317419953" lon="8.759404459086323"><ele>4.0</ele><time>2026-05-01T11:13:43Z</time></trkpt><trkpt lat="42.55694239722967" lon="8.759295835908427"><ele>4.0</ele><time>2026-05-01T11:13:44Z</time></trkpt><trkpt lat="42.55704169142725" lon="8.759185917550628"><ele>4.0</ele><time>2026-05-01T11:13:45Z</time></trkpt><trkpt lat="42.557140430465125" lon="8.759075911105013"><ele>3.75</ele><time>2026-05-01T11:13:46Z</time></trkpt><trkpt lat="42.55723662498097" lon="8.758966892959958"><ele>3.5</ele><time>2026-05-01T11:13:47Z</time></trkpt><trkpt lat="42.557333139889664" lon="8.758856646282622"><ele>3.25</ele><time>2026-05-01T11:13:48Z</time></trkpt><trkpt lat="42.55742673628708" lon="8.758746225044133"><ele>3.0</ele><time>2026-05-01T11:13:49Z</time></trkpt><trkpt lat="42.55752255213289" lon="8.758639267625346"><ele>3.333333333333333</ele><time>2026-05-01T11:13:50Z</time></trkpt><trkpt lat="42.55761718434954" lon="8.7585333895966"><ele>3.6666666666666665</ele><time>2026-05-01T11:13:51Z</time></trkpt><trkpt lat="42.5578028368079" lon="8.758313039125314"><ele>4.0</ele><time>2026-05-01T11:13:53Z</time></trkpt><trkpt lat="42.55790007638277" lon="8.758204920458077"><ele>3.5</ele><time>2026-05-01T11:13:54Z</time></trkpt><trkpt lat="42.557997091309765" lon="8.758097793157972"><ele>3.0</ele><time>2026-05-01T11:13:55Z</time></trkpt><trkpt lat="42.55809661075436" lon="8.757990624459415"><ele>2.5</ele><time>2026-05-01T11:13:56Z</time></trkpt><trkpt lat="42.55819814627952" lon="8.75788676173346"><ele>2.0</ele><time>2026-05-01T11:13:57Z</time></trkpt><trkpt lat="42.55830150466048" lon="8.757784933676161"><ele>2.25</ele><time>2026-05-01T11:13:58Z</time></trkpt><trkpt lat="42.558400075353134" lon="8.757686379011421"><ele>2.5</ele><time>2026-05-01T11:13:59Z</time></trkpt><trkpt lat="42.55849989141787" lon="8.757596146576454"><ele>2.75</ele><time>2026-05-01T11:14:00Z</time></trkpt><trkpt lat="42.55859918796051" lon="8.75750920586071"><ele>3.0</ele><time>2026-05-01T11:14:01Z</time></trkpt><trkpt lat="42.55869742565108" lon="8.757428932636236"><ele>3.5999999999999996</ele><time>2026-05-01T11:14:02Z</time></trkpt><trkpt lat="42.558794316755815" lon="8.757351100998354"><ele>4.199999999999999</ele><time>2026-05-01T11:14:03Z</time></trkpt><trkpt lat="42.558889854588294" lon="8.757272422252699"><ele>4.8</ele><time>2026-05-01T11:14:04Z</time></trkpt><trkpt lat="42.55898381397418" lon="8.757203628813018"><ele>5.3999999999999995</ele><time>2026-05-01T11:14:05Z</time></trkpt><trkpt lat="42.55907505828311" lon="8.75713612298983"><ele>6.0</ele><time>2026-05-01T11:14:06Z</time></trkpt><trkpt lat="42.55915873931751" lon="8.757076157572865"><ele>6.0</ele><time>2026-05-01T11:14:07Z</time></trkpt><trkpt lat="42.559240961152376" lon="8.757018515270378"><ele>6.0</ele><time>2026-05-01T11:14:08Z</time></trkpt><trkpt lat="42.55932619270702" lon="8.75696240985304"><ele>6.0</ele><time>2026-05-01T11:14:09Z</time></trkpt><trkpt lat="42.55940309242686" lon="8.756912673332776"><ele>6.0</ele><time>2026-05-01T11:14:10Z</time></trkpt><trkpt lat="42.559474170469585" lon="8.756868404352836"><ele>3.0</ele><time>2026-05-01T11:14:11Z</time></trkpt><trkpt lat="42.559542989095625" lon="8.756823566497351"><ele>2.0</ele><time>2026-05-01T11:14:12Z</time></trkpt></trkseg><trkseg><trkpt lat="42.55999120187459" lon="8.756386802030761"><ele>2.0</ele><time>2026-05-01T11:28:10.011Z</time></trkpt><trkpt lat="42.56006400267389" lon="8.756412735448395"><ele>1.9999999999999998</ele><time>2026-05-01T11:28:27.003Z</time></trkpt><trkpt lat="42.55999094287363" lon="8.756401489375538"><ele>2.0</ele><time>2026-05-01T11:29:01Z</time></trkpt><trkpt lat="42.55994723600249" lon="8.756471853560512"><ele>2.0</ele><time>2026-05-01T11:30:55.999Z</time></trkpt><trkpt lat="42.56000716206461" lon="8.756413149791621"><ele>1.9999999999999998</ele><time>2026-05-01T11:31:36.999Z</time></trkpt><trkpt lat="42.55993951338294" lon="8.75641508282947"><ele>2.0</ele><time>2026-05-01T11:33:11.999Z</time></trkpt><trkpt lat="42.559928576339885" lon="8.756296857773895"><ele>2.0</ele><time>2026-05-01T11:43:49Z</time></trkpt><trkpt lat="42.55995211114332" lon="8.75641270616071"><ele>2.0</ele><time>2026-05-01T12:16:47Z</time></trkpt><trkpt lat="42.56001057581668" lon="8.75637384753799"><ele>1.9999999999999998</ele><time>2026-05-01T12:20:50Z</time></trkpt><trkpt lat="42.55994629216972" lon="8.756386557492439"><ele>2.0</ele><time>2026-05-01T12:21:55.999Z</time></trkpt><trkpt lat="42.56001368726477" lon="8.756428412936552"><ele>2.0</ele><time>2026-05-01T12:59:15Z</time></trkpt><trkpt lat="42.55995210046142" lon="8.756381422100107"><ele>1.9999999999999998</ele><time>2026-05-01T13:01:24.001Z</time></trkpt><trkpt lat="42.5600193127072" lon="8.756371303142588"><ele>2.0</ele><time>2026-05-01T13:02:10Z</time></trkpt><trkpt lat="42.55997294535022" lon="8.756434076326585"><ele>2.0</ele><time>2026-05-01T13:04:02Z</time></trkpt><trkpt lat="42.559903669635005" lon="8.756462820631896"><ele>2.0</ele><time>2026-05-01T13:04:09Z</time></trkpt><trkpt lat="42.5598648483806" lon="8.756532635391018"><ele>2.0</ele><time>2026-05-01T13:04:19Z</time></trkpt><trkpt lat="42.55993044252674" lon="8.756595914349417"><ele>2.0</ele><time>2026-05-01T13:06:42.999Z</time></trkpt><trkpt lat="42.560037722217054" lon="8.75648215122524"><ele>2.0</ele><time>2026-05-01T13:06:44.999Z</time></trkpt><trkpt lat="42.56008068389509" lon="8.756414622856838"><ele>2.0</ele><time>2026-05-01T13:06:45.999Z</time></trkpt><trkpt lat="42.5601897511605" lon="8.756367762778222"><ele>2.0</ele><time>2026-05-01T13:06:47.999Z</time></trkpt><trkpt lat="42.56026929700091" lon="8.756330897817005"><ele>2.0</ele><time>2026-05-01T13:06:49.999Z</time></trkpt><trkpt lat="42.56035418696939" lon="8.756293053409928"><ele>2.0</ele><time>2026-05-01T13:07:11.999Z</time></trkpt><trkpt lat="42.56045423338234" lon="8.756210074602867"><ele>2.0</ele><time>2026-05-01T13:07:13.999Z</time></trkpt><trkpt lat="42.56055162984082" lon="8.756138991107198"><ele>2.0</ele><time>2026-05-01T13:07:15.999Z</time></trkpt><trkpt lat="42.560628314748705" lon="8.75608327718665"><ele>2.0</ele><time>2026-05-01T13:07:17.999Z</time></trkpt><trkpt lat="42.56071388121487" lon="8.756047368587193"><ele>2.0</ele><time>2026-05-01T13:07:19.999Z</time></trkpt><trkpt lat="42.560802413668995" lon="8.756021120957744"><ele>2.0</ele><time>2026-05-01T13:07:21.999Z</time></trkpt><trkpt lat="42.560908452200515" lon="8.755962398319202"><ele>2.0</ele><time>2026-05-01T13:07:23.999Z</time></trkpt><trkpt lat="42.56094240558042" lon="8.755889846696473"><ele>2.0</ele><time>2026-05-01T13:07:24.999Z</time></trkpt><trkpt lat="42.56103572499362" lon="8.755782547644149"><ele>2.0</ele><time>2026-05-01T13:07:26.999Z</time></trkpt><trkpt lat="42.5610924428008" lon="8.755741441907192"><ele>1.9999999999999998</ele><time>2026-05-01T13:07:27.999Z</time></trkpt><trkpt lat="42.56115541369951" lon="8.755696045646452"><ele>2.0</ele><time>2026-05-01T13:07:28.999Z</time></trkpt><trkpt lat="42.56121347497183" lon="8.755656077172791"><ele>2.0</ele><time>2026-05-01T13:07:29.999Z</time></trkpt><trkpt lat="42.56127796140538" lon="8.755612667125519"><ele>1.9999999999999998</ele><time>2026-05-01T13:07:30.999Z</time></trkpt><trkpt lat="42.56134603522693" lon="8.755563936809173"><ele>2.0</ele><time>2026-05-01T13:07:31.999Z</time></trkpt><trkpt lat="42.561420395101536" lon="8.755513520681783"><ele>2.0</ele><time>2026-05-01T13:07:32.999Z</time></trkpt><trkpt lat="42.5614966034173" lon="8.755467244133504"><ele>1.8333333333333333</ele><time>2026-05-01T13:07:33.998Z</time></trkpt><trkpt lat="42.561573120346694" lon="8.755420277290158"><ele>1.6666666666666665</ele><time>2026-05-01T13:07:34.998Z</time></trkpt><trkpt lat="42.56164822725888" lon="8.755371947435926"><ele>1.5</ele><time>2026-05-01T13:07:35.998Z</time></trkpt><trkpt lat="42.56172168646739" lon="8.755324703200726"><ele>1.3333333333333333</ele><time>2026-05-01T13:07:36.998Z</time></trkpt><trkpt lat="42.56179383529293" lon="8.755276731742802"><ele>1.1666666666666665</ele><time>2026-05-01T13:07:38Z</time></trkpt><trkpt lat="42.56186723892719" lon="8.755230290109777"><ele>1.0</ele><time>2026-05-01T13:07:39Z</time></trkpt><trkpt lat="42.561938535038195" lon="8.755181543178512"><ele>0.9999999999999999</ele><time>2026-05-01T13:07:40Z</time></trkpt><trkpt lat="42.56200650038891" lon="8.755132316195867"><ele>1.0</ele><time>2026-05-01T13:07:41Z</time></trkpt><trkpt lat="42.562074173504776" lon="8.755082857651555"><ele>1.0</ele><time>2026-05-01T13:07:42Z</time></trkpt><trkpt lat="42.5621395545758" lon="8.755038475427128"><ele>1.0</ele><time>2026-05-01T13:07:43Z</time></trkpt><trkpt lat="42.56221524822109" lon="8.754984413070549"><ele>0.9999999999999999</ele><time>2026-05-01T13:07:44Z</time></trkpt><trkpt lat="42.56229775080001" lon="8.754932458531568"><ele>1.0</ele><time>2026-05-01T13:07:45Z</time></trkpt><trkpt lat="42.562376738946824" lon="8.754883259549949"><ele>1.8</ele><time>2026-05-01T13:07:46Z</time></trkpt><trkpt lat="42.56246511228131" lon="8.754838478557307"><ele>2.6</ele><time>2026-05-01T13:07:47Z</time></trkpt><trkpt lat="42.56255023513623" lon="8.754794632552032"><ele>3.4</ele><time>2026-05-01T13:07:48Z</time></trkpt><trkpt lat="42.56264039145523" lon="8.754763492729321"><ele>4.2</ele><time>2026-05-01T13:07:49Z</time></trkpt><trkpt lat="42.562738048819426" lon="8.754749810184933"><ele>5.0</ele><time>2026-05-01T13:07:50Z</time></trkpt><trkpt lat="42.5628352564695" lon="8.754742424130166"><ele>5.2</ele><time>2026-05-01T13:07:51Z</time></trkpt><trkpt lat="42.56293066284838" lon="8.754736868942791"><ele>5.4</ele><time>2026-05-01T13:07:52Z</time></trkpt><trkpt lat="42.5630192774704" lon="8.754738937229536"><ele>5.6</ele><time>2026-05-01T13:07:53Z</time></trkpt><trkpt lat="42.56312072630781" lon="8.754744583831588"><ele>5.8</ele><time>2026-05-01T13:07:54Z</time></trkpt><trkpt lat="42.56322148055476" lon="8.754777390313127"><ele>6.0</ele><time>2026-05-01T13:07:55Z</time></trkpt><trkpt lat="42.563315533684474" lon="8.75480774794917"><ele>6.0</ele><time>2026-05-01T13:07:56Z</time></trkpt><trkpt lat="42.56341301293355" lon="8.754831515116699"><ele>6.0</ele><time>2026-05-01T13:07:57Z</time></trkpt><trkpt lat="42.56350854598435" lon="8.754868926186084"><ele>6.0</ele><time>2026-05-01T13:07:58Z</time></trkpt><trkpt lat="42.563600196340424" lon="8.754919672351267"><ele>6.0</ele><time>2026-05-01T13:07:59Z</time></trkpt><trkpt lat="42.5636927077257" lon="8.754967490175051"><ele>6.0</ele><time>2026-05-01T13:08:00Z</time></trkpt><trkpt lat="42.56376812025148" lon="8.755009661233485"><ele>5.8</ele><time>2026-05-01T13:08:01Z</time></trkpt><trkpt lat="42.563859041908806" lon="8.755068132936028"><ele>5.6</ele><time>2026-05-01T13:08:02Z</time></trkpt><trkpt lat="42.56394477718135" lon="8.75510465147179"><ele>5.4</ele><time>2026-05-01T13:08:03Z</time></trkpt><trkpt lat="42.56402914528102" lon="8.755146835016491"><ele>5.2</ele><time>2026-05-01T13:08:04Z</time></trkpt><trkpt lat="42.56410862458199" lon="8.75518582587625"><ele>5.0</ele><time>2026-05-01T13:08:05Z</time></trkpt><trkpt lat="42.56419097351371" lon="8.755233483400035"><ele>5.0</ele><time>2026-05-01T13:08:06Z</time></trkpt><trkpt lat="42.564276270853675" lon="8.755288691627152"><ele>5.0</ele><time>2026-05-01T13:08:07Z</time></trkpt><trkpt lat="42.56436534878498" lon="8.75535346295955"><ele>5.0</ele><time>2026-05-01T13:08:08Z</time></trkpt><trkpt lat="42.56443857771322" lon="8.75538294241712"><ele>5.0</ele><time>2026-05-01T13:08:09Z</time></trkpt><trkpt lat="42.56451558128953" lon="8.755432549878876"><ele>5.0</ele><time>2026-05-01T13:08:10Z</time></trkpt><trkpt lat="42.56459690907073" lon="8.755469316314962"><ele>5.0</ele><time>2026-05-01T13:08:11Z</time></trkpt><trkpt lat="42.56467810608309" lon="8.755522292082777"><ele>5.333333333333334</ele><time>2026-05-01T13:08:11.999Z</time></trkpt><trkpt lat="42.56475533886052" lon="8.755563618593236"><ele>5.666666666666667</ele><time>2026-05-01T13:08:12.999Z</time></trkpt><trkpt lat="42.564838215191685" lon="8.755602974080647"><ele>6.0</ele><time>2026-05-01T13:08:13.999Z</time></trkpt><trkpt lat="42.56491495480277" lon="8.75565056241937"><ele>6.333333333333334</ele><time>2026-05-01T13:08:14.999Z</time></trkpt><trkpt lat="42.564994214224924" lon="8.755690694803278"><ele>6.666666666666667</ele><time>2026-05-01T13:08:15.999Z</time></trkpt><trkpt lat="42.565078815509345" lon="8.755741904056192"><ele>7.0</ele><time>2026-05-01T13:08:16.999Z</time></trkpt><trkpt lat="42.56515426812139" lon="8.755782945489756"><ele>7.000000000000001</ele><time>2026-05-01T13:08:17.999Z</time></trkpt><trkpt lat="42.56521871482259" lon="8.755831548515381"><ele>7.0</ele><time>2026-05-01T13:08:18.999Z</time></trkpt><trkpt lat="42.56528842578062" lon="8.75586727435042"><ele>7.0</ele><time>2026-05-01T13:08:19.999Z</time></trkpt><trkpt lat="42.56537558941477" lon="8.755911680313156"><ele>7.0</ele><time>2026-05-01T13:08:21.999Z</time></trkpt><trkpt lat="42.56543857475485" lon="8.755942579059381"><ele>7.000000000000001</ele><time>2026-05-01T13:08:23.999Z</time></trkpt><trkpt lat="42.56552051006971" lon="8.755979543159611"><ele>7.0</ele><time>2026-05-01T13:08:26.999Z</time></trkpt><trkpt lat="42.5656060045253" lon="8.75601474383886"><ele>7.8</ele><time>2026-05-01T13:08:29.999Z</time></trkpt><trkpt lat="42.565680929731386" lon="8.756051173186036"><ele>8.6</ele><time>2026-05-01T13:08:31.999Z</time></trkpt><trkpt lat="42.56576581645957" lon="8.7560996709583"><ele>9.4</ele><time>2026-05-01T13:08:33.999Z</time></trkpt><trkpt lat="42.56585227270409" lon="8.756157249157079"><ele>10.200000000000001</ele><time>2026-05-01T13:08:35.999Z</time></trkpt><trkpt lat="42.5659389253636" lon="8.756202184828686"><ele>11.0</ele><time>2026-05-01T13:08:37.999Z</time></trkpt><trkpt lat="42.5660285979121" lon="8.756235524224817"><ele>11.0</ele><time>2026-05-01T13:08:39.999Z</time></trkpt><trkpt lat="42.56613720050796" lon="8.75628978618429"><ele>11.0</ele><time>2026-05-01T13:08:41.999Z</time></trkpt><trkpt lat="42.56625430437314" lon="8.756386077837925"><ele>11.0</ele><time>2026-05-01T13:08:43.999Z</time></trkpt><trkpt lat="42.56632609226368" lon="8.756501235735294"><ele>11.0</ele><time>2026-05-01T13:08:45.999Z</time></trkpt><trkpt lat="42.56638656404646" lon="8.756575274116466"><ele>11.0</ele><time>2026-05-01T13:08:47.999Z</time></trkpt><trkpt lat="42.566429836376486" lon="8.7566568030184"><ele>11.8</ele><time>2026-05-01T13:08:48.999Z</time></trkpt><trkpt lat="42.566499558153964" lon="8.756744797140623"><ele>12.600000000000001</ele><time>2026-05-01T13:08:50.999Z</time></trkpt><trkpt lat="42.5665618749365" lon="8.756834719881304"><ele>13.4</ele><time>2026-05-01T13:08:52.999Z</time></trkpt><trkpt lat="42.56663709330252" lon="8.756940035859445"><ele>14.2</ele><time>2026-05-01T13:08:54.999Z</time></trkpt><trkpt lat="42.56671969754832" lon="8.757055920410998"><ele>15.0</ele><time>2026-05-01T13:08:56.999Z</time></trkpt><trkpt lat="42.56679720710303" lon="8.757172884205762"><ele>15.0</ele><time>2026-05-01T13:08:58.999Z</time></trkpt><trkpt lat="42.566892264583394" lon="8.75729036044204"><ele>15.0</ele><time>2026-05-01T13:09:00.999Z</time></trkpt><trkpt lat="42.566967406024254" lon="8.757403555857453"><ele>15.0</ele><time>2026-05-01T13:09:02.999Z</time></trkpt><trkpt lat="42.567011833032375" lon="8.757469129771936"><ele>15.0</ele><time>2026-05-01T13:09:03.999Z</time></trkpt><trkpt lat="42.56708838508122" lon="8.757585081882542"><ele>15.0</ele><time>2026-05-01T13:09:05.999Z</time></trkpt><trkpt lat="42.5671864068274" lon="8.757711151424072"><ele>15.4</ele><time>2026-05-01T13:09:07.999Z</time></trkpt><trkpt lat="42.567228897209006" lon="8.757787801415901"><ele>15.8</ele><time>2026-05-01T13:09:08.999Z</time></trkpt><trkpt lat="42.56731296763642" lon="8.757889413467723"><ele>16.2</ele><time>2026-05-01T13:09:10.999Z</time></trkpt><trkpt lat="42.56739148408548" lon="8.757999430709713"><ele>16.6</ele><time>2026-05-01T13:09:12.999Z</time></trkpt><trkpt lat="42.56745924700749" lon="8.758117821616136"><ele>17.0</ele><time>2026-05-01T13:09:14.999Z</time></trkpt><trkpt lat="42.56753281784821" lon="8.758223757057046"><ele>17.0</ele><time>2026-05-01T13:09:16.999Z</time></trkpt><trkpt lat="42.56758956011694" lon="8.758300067281912"><ele>17.0</ele><time>2026-05-01T13:09:18.999Z</time></trkpt><trkpt lat="42.567637419089365" lon="8.758373621954448"><ele>17.0</ele><time>2026-05-01T13:09:21.998Z</time></trkpt><trkpt lat="42.567688666035345" lon="8.758425072675072"><ele>17.0</ele><time>2026-05-01T13:09:23.998Z</time></trkpt><trkpt lat="42.567730273907344" lon="8.758508173406229"><ele>17.0</ele><time>2026-05-01T13:09:25.998Z</time></trkpt><trkpt lat="42.56783722312826" lon="8.75848169241369"><ele>17.0</ele><time>2026-05-01T13:09:28.998Z</time></trkpt><trkpt lat="42.56790914083043" lon="8.758469560245572"><ele>17.0</ele><time>2026-05-01T13:09:30.998Z</time></trkpt><trkpt lat="42.567975640468376" lon="8.75842644515783"><ele>17.0</ele><time>2026-05-01T13:09:32.998Z</time></trkpt><trkpt lat="42.56803680186952" lon="8.758378366733506"><ele>17.0</ele><time>2026-05-01T13:09:35.998Z</time></trkpt><trkpt lat="42.568086827436076" lon="8.758265256155687"><ele>17.0</ele><time>2026-05-01T13:09:37.998Z</time></trkpt><trkpt lat="42.56810976546379" lon="8.758184248346375"><ele>17.0</ele><time>2026-05-01T13:09:38.998Z</time></trkpt><trkpt lat="42.56816899321251" lon="8.758114942119372"><ele>17.0</ele><time>2026-05-01T13:09:39.998Z</time></trkpt><trkpt lat="42.568199651194014" lon="8.757996900613312"><ele>17.0</ele><time>2026-05-01T13:09:42.998Z</time></trkpt><trkpt lat="42.56826487255944" lon="8.757942116230236"><ele>17.0</ele><time>2026-05-01T13:09:44.999Z</time></trkpt><trkpt lat="42.568307947090304" lon="8.757799148318892"><ele>17.0</ele><time>2026-05-01T13:09:47.999Z</time></trkpt><trkpt lat="42.56835240374195" lon="8.757685878200075"><ele>17.0</ele><time>2026-05-01T13:09:49.999Z</time></trkpt><trkpt lat="42.568399263918316" lon="8.757558565260878"><ele>17.0</ele><time>2026-05-01T13:09:51.999Z</time></trkpt><trkpt lat="42.568436139543124" lon="8.75748108627253"><ele>16.666666666666668</ele><time>2026-05-01T13:09:52.999Z</time></trkpt><trkpt lat="42.568465165231004" lon="8.757386671720399"><ele>16.333333333333336</ele><time>2026-05-01T13:09:53.999Z</time></trkpt><trkpt lat="42.5685021309708" lon="8.757303459865971"><ele>16.0</ele><time>2026-05-01T13:09:54.999Z</time></trkpt><trkpt lat="42.56854807188951" lon="8.757244554455301"><ele>15.666666666666668</ele><time>2026-05-01T13:09:55.999Z</time></trkpt><trkpt lat="42.568599715062234" lon="8.757109954030621"><ele>15.333333333333334</ele><time>2026-05-01T13:09:57.999Z</time></trkpt><trkpt lat="42.56864089969487" lon="8.757011566626018"><ele>15.0</ele><time>2026-05-01T13:09:59.999Z</time></trkpt><trkpt lat="42.568703503433916" lon="8.756870100643008"><ele>16.4</ele><time>2026-05-01T13:10:01.999Z</time></trkpt><trkpt lat="42.56875940230188" lon="8.756775474319982"><ele>17.8</ele><time>2026-05-01T13:10:02.999Z</time></trkpt><trkpt lat="42.56877923781756" lon="8.756635304913386"><ele>19.200000000000003</ele><time>2026-05-01T13:10:03.999Z</time></trkpt><trkpt lat="42.56880294512203" lon="8.75649510469436"><ele>20.6</ele><time>2026-05-01T13:10:04.999Z</time></trkpt><trkpt lat="42.56880268664535" lon="8.756380376414427"><ele>22.0</ele><time>2026-05-01T13:10:05.999Z</time></trkpt><trkpt lat="42.56879348196949" lon="8.756292268476534"><ele>22.0</ele><time>2026-05-01T13:10:06.999Z</time></trkpt><trkpt lat="42.56876902582942" lon="8.756180899381942"><ele>22.0</ele><time>2026-05-01T13:10:07.999Z</time></trkpt><trkpt lat="42.56876384195699" lon="8.756076247275846"><ele>22.0</ele><time>2026-05-01T13:10:08.999Z</time></trkpt><trkpt lat="42.5687213729606" lon="8.756007536936572"><ele>22.0</ele><time>2026-05-01T13:10:09.999Z</time></trkpt><trkpt lat="42.56867599669405" lon="8.755865251995"><ele>22.0</ele><time>2026-05-01T13:10:11.999Z</time></trkpt><trkpt lat="42.568619266350574" lon="8.755743489310413"><ele>22.0</ele><time>2026-05-01T13:10:13.999Z</time></trkpt><trkpt lat="42.568543858941375" lon="8.755587618185595"><ele>22.8</ele><time>2026-05-01T13:10:15.999Z</time></trkpt><trkpt lat="42.56850009887208" lon="8.755497396832311"><ele>23.6</ele><time>2026-05-01T13:10:16.999Z</time></trkpt><trkpt lat="42.56844479381876" lon="8.7553834542098"><ele>24.400000000000002</ele><time>2026-05-01T13:10:17.999Z</time></trkpt><trkpt lat="42.56837925820685" lon="8.755251511920626"><ele>25.200000000000003</ele><time>2026-05-01T13:10:18.999Z</time></trkpt><trkpt lat="42.56830941825716" lon="8.755110903749618"><ele>26.0</ele><time>2026-05-01T13:10:19.999Z</time></trkpt><trkpt lat="42.56824559454828" lon="8.754982407988713"><ele>26.0</ele><time>2026-05-01T13:10:20.999Z</time></trkpt><trkpt lat="42.56818858174555" lon="8.75486763353013"><ele>26.0</ele><time>2026-05-01T13:10:21.999Z</time></trkpt><trkpt lat="42.56812287038871" lon="8.754741611713737"><ele>26.0</ele><time>2026-05-01T13:10:22.999Z</time></trkpt><trkpt lat="42.56805029896223" lon="8.754611040737775"><ele>26.0</ele><time>2026-05-01T13:10:23.999Z</time></trkpt><trkpt lat="42.56799188150801" lon="8.754481730010887"><ele>26.0</ele><time>2026-05-01T13:10:24.999Z</time></trkpt><trkpt lat="42.56793954476044" lon="8.754349066342833"><ele>25.4</ele><time>2026-05-01T13:10:25.999Z</time></trkpt><trkpt lat="42.56790723138311" lon="8.754209092887091"><ele>24.8</ele><time>2026-05-01T13:10:26.999Z</time></trkpt><trkpt lat="42.567904818959" lon="8.754055080492003"><ele>24.2</ele><time>2026-05-01T13:10:27.999Z</time></trkpt><trkpt lat="42.56792808491282" lon="8.753902620249935"><ele>23.599999999999998</ele><time>2026-05-01T13:10:28.999Z</time></trkpt><trkpt lat="42.56797531721864" lon="8.75376364372567"><ele>23.0</ele><time>2026-05-01T13:10:29.999Z</time></trkpt><trkpt lat="42.568044098993305" lon="8.753636279428406"><ele>23.0</ele><time>2026-05-01T13:10:30.999Z</time></trkpt><trkpt lat="42.568141969285584" lon="8.753544524749703"><ele>23.0</ele><time>2026-05-01T13:10:31.999Z</time></trkpt><trkpt lat="42.56821954272899" lon="8.753427949840402"><ele>23.0</ele><time>2026-05-01T13:10:32.999Z</time></trkpt><trkpt lat="42.56830508551512" lon="8.753322898708019"><ele>23.0</ele><time>2026-05-01T13:10:33.999Z</time></trkpt><trkpt lat="42.56837444959206" lon="8.753206029509625"><ele>23.799999999999997</ele><time>2026-05-01T13:10:34.999Z</time></trkpt><trkpt lat="42.56841895355775" lon="8.753077727261319"><ele>24.6</ele><time>2026-05-01T13:10:35.999Z</time></trkpt><trkpt lat="42.56843317422393" lon="8.752935050411669"><ele>25.400000000000002</ele><time>2026-05-01T13:10:36.999Z</time></trkpt><trkpt lat="42.568420430169084" lon="8.752791702563933"><ele>26.200000000000003</ele><time>2026-05-01T13:10:37.999Z</time></trkpt><trkpt lat="42.56841264787375" lon="8.752645375273596"><ele>27.0</ele><time>2026-05-01T13:10:38.999Z</time></trkpt><trkpt lat="42.568410614053235" lon="8.752500504706996"><ele>29.0</ele><time>2026-05-01T13:10:39.999Z</time></trkpt><trkpt lat="42.56840667432618" lon="8.752352280251127"><ele>31.0</ele><time>2026-05-01T13:10:40.999Z</time></trkpt><trkpt lat="42.568404357949376" lon="8.752196968485602"><ele>33.0</ele><time>2026-05-01T13:10:41.999Z</time></trkpt><trkpt lat="42.56840339514486" lon="8.752046403861414"><ele>35.0</ele><time>2026-05-01T13:10:42.999Z</time></trkpt><trkpt lat="42.56839721192506" lon="8.751886985328913"><ele>35.5</ele><time>2026-05-01T13:10:43.999Z</time></trkpt><trkpt lat="42.568390492194865" lon="8.751742915218038"><ele>36.0</ele><time>2026-05-01T13:10:44.999Z</time></trkpt><trkpt lat="42.56837333474547" lon="8.751581513833273"><ele>36.5</ele><time>2026-05-01T13:10:45.999Z</time></trkpt><trkpt lat="42.56833811832789" lon="8.751422388198131"><ele>37.0</ele><time>2026-05-01T13:10:46.999Z</time></trkpt><trkpt lat="42.56829882519374" lon="8.751275932243235"><ele>37.0</ele><time>2026-05-01T13:10:47.999Z</time></trkpt><trkpt lat="42.568259088075045" lon="8.751124510222812"><ele>37.0</ele><time>2026-05-01T13:10:48.999Z</time></trkpt><trkpt lat="42.56822179344316" lon="8.750967959530023"><ele>37.0</ele><time>2026-05-01T13:10:49.999Z</time></trkpt><trkpt lat="42.56818226150766" lon="8.750814363413557"><ele>37.0</ele><time>2026-05-01T13:10:50.999Z</time></trkpt><trkpt lat="42.56814705206615" lon="8.750664715225419"><ele>35.25</ele><time>2026-05-01T13:10:51.999Z</time></trkpt><trkpt lat="42.56811026901868" lon="8.750520864148402"><ele>33.5</ele><time>2026-05-01T13:10:52.999Z</time></trkpt><trkpt lat="42.56805131752957" lon="8.750389618425077"><ele>31.75</ele><time>2026-05-01T13:10:53.999Z</time></trkpt><trkpt lat="42.567960242294085" lon="8.750299587912158"><ele>30.0</ele><time>2026-05-01T13:10:54.999Z</time></trkpt><trkpt lat="42.567847959538845" lon="8.750248366714397"><ele>31.5</ele><time>2026-05-01T13:10:55.999Z</time></trkpt><trkpt lat="42.567729575122875" lon="8.7502121631854"><ele>33.0</ele><time>2026-05-01T13:10:56.999Z</time></trkpt><trkpt lat="42.567631166269564" lon="8.750141908013328"><ele>34.5</ele><time>2026-05-01T13:10:57.999Z</time></trkpt><trkpt lat="42.567535517981554" lon="8.750046372590074"><ele>36.0</ele><time>2026-05-01T13:10:58.999Z</time></trkpt><trkpt lat="42.567451229326146" lon="8.749929091342606"><ele>36.0</ele><time>2026-05-01T13:10:59.999Z</time></trkpt><trkpt lat="42.567355859611375" lon="8.749821237265733"><ele>36.0</ele><time>2026-05-01T13:11:00.999Z</time></trkpt><trkpt lat="42.56726772852059" lon="8.749706284682354"><ele>36.0</ele><time>2026-05-01T13:11:01.999Z</time></trkpt><trkpt lat="42.56717638031175" lon="8.749596994275874"><ele>36.0</ele><time>2026-05-01T13:11:02.999Z</time></trkpt><trkpt lat="42.567086273217775" lon="8.749487395016503"><ele>37.25</ele><time>2026-05-01T13:11:03.999Z</time></trkpt><trkpt lat="42.56698373948497" lon="8.749390060451587"><ele>38.5</ele><time>2026-05-01T13:11:04.999Z</time></trkpt><trkpt lat="42.56686931175919" lon="8.749322750581205"><ele>39.75</ele><time>2026-05-01T13:11:05.999Z</time></trkpt><trkpt lat="42.566745224922606" lon="8.7492703938535"><ele>41.0</ele><time>2026-05-01T13:11:06.999Z</time></trkpt><trkpt lat="42.566617395222366" lon="8.749230788427711"><ele>41.0</ele><time>2026-05-01T13:11:07.999Z</time></trkpt><trkpt lat="42.566487163312175" lon="8.749211320640608"><ele>41.0</ele><time>2026-05-01T13:11:08.999Z</time></trkpt><trkpt lat="42.56635875475365" lon="8.74918042889116"><ele>41.0</ele><time>2026-05-01T13:11:09.999Z</time></trkpt><trkpt lat="42.56625131851433" lon="8.74909046845442"><ele>41.0</ele><time>2026-05-01T13:11:10.999Z</time></trkpt><trkpt lat="42.566160507406096" lon="8.748970843737947"><ele>41.75</ele><time>2026-05-01T13:11:11.999Z</time></trkpt><trkpt lat="42.56609260466754" lon="8.748824343240388"><ele>42.5</ele><time>2026-05-01T13:11:12.999Z</time></trkpt><trkpt lat="42.56604467573021" lon="8.748648815103925"><ele>43.25</ele><time>2026-05-01T13:11:13.999Z</time></trkpt><trkpt lat="42.56598977629595" lon="8.74847188206304"><ele>44.0</ele><time>2026-05-01T13:11:14.999Z</time></trkpt><trkpt lat="42.565950755943284" lon="8.748277511421984"><ele>44.0</ele><time>2026-05-01T13:11:15.999Z</time></trkpt><trkpt lat="42.56590075858662" lon="8.748092753793772"><ele>44.0</ele><time>2026-05-01T13:11:16.999Z</time></trkpt><trkpt lat="42.565850891183324" lon="8.747903416424702"><ele>44.0</ele><time>2026-05-01T13:11:17.999Z</time></trkpt><trkpt lat="42.565803886868345" lon="8.747715039932636"><ele>44.0</ele><time>2026-05-01T13:11:18.999Z</time></trkpt><trkpt lat="42.565772098699526" lon="8.74752120179023"><ele>43.75</ele><time>2026-05-01T13:11:19.998Z</time></trkpt><trkpt lat="42.56572369383377" lon="8.74735008127534"><ele>43.5</ele><time>2026-05-01T13:11:20.998Z</time></trkpt><trkpt lat="42.56564909488808" lon="8.74720024226869"><ele>43.25</ele><time>2026-05-01T13:11:21.998Z</time></trkpt><trkpt lat="42.56557944975873" lon="8.747048283869447"><ele>43.0</ele><time>2026-05-01T13:11:22.998Z</time></trkpt><trkpt lat="42.5654989709104" lon="8.746925741913534"><ele>42.25</ele><time>2026-05-01T13:11:23.998Z</time></trkpt><trkpt lat="42.565403090182286" lon="8.74676738952002"><ele>41.5</ele><time>2026-05-01T13:11:24.998Z</time></trkpt><trkpt lat="42.56531345977357" lon="8.746631920438345"><ele>40.75</ele><time>2026-05-01T13:11:25.998Z</time></trkpt><trkpt lat="42.56522076729785" lon="8.746516732515913"><ele>40.0</ele><time>2026-05-01T13:11:26.998Z</time></trkpt><trkpt lat="42.565103016828516" lon="8.746415221206314"><ele>42.0</ele><time>2026-05-01T13:11:27.998Z</time></trkpt><trkpt lat="42.56499577474009" lon="8.746339604038006"><ele>44.0</ele><time>2026-05-01T13:11:28.998Z</time></trkpt><trkpt lat="42.56488671191994" lon="8.746265119402919"><ele>46.0</ele><time>2026-05-01T13:11:29.998Z</time></trkpt><trkpt lat="42.56478944654631" lon="8.746184832549881"><ele>48.0</ele><time>2026-05-01T13:11:30.998Z</time></trkpt><trkpt lat="42.564693189225046" lon="8.746092434052704"><ele>46.75</ele><time>2026-05-01T13:11:31.998Z</time></trkpt><trkpt lat="42.56459225127917" lon="8.745989305066791"><ele>45.5</ele><time>2026-05-01T13:11:32.998Z</time></trkpt><trkpt lat="42.56449424001534" lon="8.745876221418968"><ele>44.25</ele><time>2026-05-01T13:11:33.998Z</time></trkpt><trkpt lat="42.56437815120529" lon="8.745778046211694"><ele>43.0</ele><time>2026-05-01T13:11:34.998Z</time></trkpt><trkpt lat="42.564299932649696" lon="8.74563650443801"><ele>45.0</ele><time>2026-05-01T13:11:35.998Z</time></trkpt><trkpt lat="42.564264848345395" lon="8.745469600315383"><ele>47.0</ele><time>2026-05-01T13:11:36.998Z</time></trkpt><trkpt lat="42.56425870540548" lon="8.745305389462247"><ele>49.0</ele><time>2026-05-01T13:11:37.998Z</time></trkpt><trkpt lat="42.56426460371893" lon="8.745141137595796"><ele>51.0</ele><time>2026-05-01T13:11:38.998Z</time></trkpt><trkpt lat="42.564263351930116" lon="8.744979016854325"><ele>51.0</ele><time>2026-05-01T13:11:39.998Z</time></trkpt><trkpt lat="42.564260998728074" lon="8.744821546769671"><ele>51.0</ele><time>2026-05-01T13:11:40.998Z</time></trkpt><trkpt lat="42.564243260204705" lon="8.744664938313818"><ele>51.0</ele><time>2026-05-01T13:11:41.998Z</time></trkpt><trkpt lat="42.564236917288575" lon="8.744507789935662"><ele>51.0</ele><time>2026-05-01T13:11:42.998Z</time></trkpt><trkpt lat="42.564214809712794" lon="8.744343652373926"><ele>50.75</ele><time>2026-05-01T13:11:43.998Z</time></trkpt><trkpt lat="42.56418049647216" lon="8.744186089692233"><ele>50.5</ele><time>2026-05-01T13:11:44.998Z</time></trkpt><trkpt lat="42.56413987661265" lon="8.744020321579676"><ele>50.25</ele><time>2026-05-01T13:11:45.998Z</time></trkpt><trkpt lat="42.56410724394716" lon="8.743854201707405"><ele>50.0</ele><time>2026-05-01T13:11:46.998Z</time></trkpt><trkpt lat="42.56407278424822" lon="8.743684402073614"><ele>49.5</ele><time>2026-05-01T13:11:47.998Z</time></trkpt><trkpt lat="42.56403878468985" lon="8.743514660487994"><ele>49.0</ele><time>2026-05-01T13:11:48.998Z</time></trkpt><trkpt lat="42.564002562037274" lon="8.74334783370621"><ele>48.5</ele><time>2026-05-01T13:11:49.998Z</time></trkpt><trkpt lat="42.56396802247675" lon="8.74317434026247"><ele>48.0</ele><time>2026-05-01T13:11:50.998Z</time></trkpt><trkpt lat="42.56393410411287" lon="8.743002570390987"><ele>48.0</ele><time>2026-05-01T13:11:51.998Z</time></trkpt><trkpt lat="42.56389855343376" lon="8.742828776378316"><ele>48.0</ele><time>2026-05-01T13:11:52.998Z</time></trkpt><trkpt lat="42.563860638576834" lon="8.742656366646779"><ele>48.0</ele><time>2026-05-01T13:11:53.998Z</time></trkpt><trkpt lat="42.56381832025388" lon="8.742478794340485"><ele>48.0</ele><time>2026-05-01T13:11:54.998Z</time></trkpt><trkpt lat="42.563762084386994" lon="8.742306840486926"><ele>47.25</ele><time>2026-05-01T13:11:55.998Z</time></trkpt><trkpt lat="42.56370008819095" lon="8.742135197444128"><ele>46.5</ele><time>2026-05-01T13:11:56.998Z</time></trkpt><trkpt lat="42.563646272559744" lon="8.741956406928233"><ele>45.75</ele><time>2026-05-01T13:11:57.998Z</time></trkpt><trkpt lat="42.563572695731835" lon="8.741785468722048"><ele>45.0</ele><time>2026-05-01T13:11:58.999Z</time></trkpt><trkpt lat="42.56346860582479" lon="8.741651258035517"><ele>46.25</ele><time>2026-05-01T13:11:59.999Z</time></trkpt><trkpt lat="42.56335365037452" lon="8.741520320390988"><ele>47.5</ele><time>2026-05-01T13:12:00.999Z</time></trkpt><trkpt lat="42.56326151658349" lon="8.741363965824585"><ele>48.75</ele><time>2026-05-01T13:12:01.999Z</time></trkpt><trkpt lat="42.56317681777767" lon="8.741204675351108"><ele>50.0</ele><time>2026-05-01T13:12:02.999Z</time></trkpt><trkpt lat="42.56312193582078" lon="8.741027070649737"><ele>50.0</ele><time>2026-05-01T13:12:03.999Z</time></trkpt><trkpt lat="42.56307928735072" lon="8.740836805167731"><ele>50.0</ele><time>2026-05-01T13:12:04.999Z</time></trkpt><trkpt lat="42.56304365109753" lon="8.74063771947726"><ele>50.0</ele><time>2026-05-01T13:12:05.999Z</time></trkpt><trkpt lat="42.56299759889718" lon="8.740438030844432"><ele>50.0</ele><time>2026-05-01T13:12:06.999Z</time></trkpt><trkpt lat="42.56295270815612" lon="8.740258812923123"><ele>50.0</ele><time>2026-05-01T13:12:07.999Z</time></trkpt><trkpt lat="42.56287204143018" lon="8.740116362997181"><ele>50.0</ele><time>2026-05-01T13:12:08.999Z</time></trkpt><trkpt lat="42.56278637436674" lon="8.739977047049742"><ele>50.0</ele><time>2026-05-01T13:12:09.999Z</time></trkpt><trkpt lat="42.56272410098721" lon="8.73981666303165"><ele>54.5</ele><time>2026-05-01T13:12:10.999Z</time></trkpt><trkpt lat="42.56271716331652" lon="8.739641151098994"><ele>59.0</ele><time>2026-05-01T13:12:11.999Z</time></trkpt><trkpt lat="42.56270884734428" lon="8.73942933095022"><ele>63.5</ele><time>2026-05-01T13:12:12.999Z</time></trkpt><trkpt lat="42.56269170724826" lon="8.739230655342391"><ele>68.0</ele><time>2026-05-01T13:12:13.999Z</time></trkpt><trkpt lat="42.56268648236073" lon="8.739051837703004"><ele>68.5</ele><time>2026-05-01T13:12:14.999Z</time></trkpt><trkpt lat="42.56272183672614" lon="8.738872613172445"><ele>69.0</ele><time>2026-05-01T13:12:15.999Z</time></trkpt><trkpt lat="42.56274101251581" lon="8.738696949196012"><ele>69.5</ele><time>2026-05-01T13:12:16.999Z</time></trkpt><trkpt lat="42.56274041405981" lon="8.738526477897732"><ele>70.0</ele><time>2026-05-01T13:12:17.999Z</time></trkpt><trkpt lat="42.5627386998789" lon="8.738345453136292"><ele>70.0</ele><time>2026-05-01T13:12:18.999Z</time></trkpt><trkpt lat="42.56272137691196" lon="8.738176405328563"><ele>70.0</ele><time>2026-05-01T13:12:19.999Z</time></trkpt><trkpt lat="42.562718858746784" lon="8.738005929159215"><ele>70.0</ele><time>2026-05-01T13:12:20.999Z</time></trkpt><trkpt lat="42.56267526562717" lon="8.737835501982614"><ele>70.0</ele><time>2026-05-01T13:12:21.999Z</time></trkpt><trkpt lat="42.56263033063999" lon="8.737675498421881"><ele>68.75</ele><time>2026-05-01T13:12:22.999Z</time></trkpt><trkpt lat="42.562581121700795" lon="8.73750802721811"><ele>67.5</ele><time>2026-05-01T13:12:23.999Z</time></trkpt><trkpt lat="42.56253445517814" lon="8.73735136126368"><ele>66.25</ele><time>2026-05-01T13:12:24.999Z</time></trkpt><trkpt lat="42.56248218437049" lon="8.737183804490074"><ele>65.0</ele><time>2026-05-01T13:12:25.999Z</time></trkpt><trkpt lat="42.562420293238844" lon="8.73703478441225"><ele>63.5</ele><time>2026-05-01T13:12:26.999Z</time></trkpt><trkpt lat="42.562331317080904" lon="8.736884943306414"><ele>62.0</ele><time>2026-05-01T13:12:27.999Z</time></trkpt><trkpt lat="42.56224841339472" lon="8.736742571271922"><ele>60.5</ele><time>2026-05-01T13:12:28.999Z</time></trkpt><trkpt lat="42.56220324723596" lon="8.736567621496073"><ele>59.0</ele><time>2026-05-01T13:12:29.999Z</time></trkpt><trkpt lat="42.562174636490944" lon="8.736376547447929"><ele>59.0</ele><time>2026-05-01T13:12:30.999Z</time></trkpt><trkpt lat="42.562131718810164" lon="8.736190155156404"><ele>59.0</ele><time>2026-05-01T13:12:31.999Z</time></trkpt><trkpt lat="42.56203399795257" lon="8.736034996607055"><ele>59.0</ele><time>2026-05-01T13:12:32.999Z</time></trkpt><trkpt lat="42.56193826285114" lon="8.73588670148895"><ele>59.0</ele><time>2026-05-01T13:12:33.999Z</time></trkpt><trkpt lat="42.5618924887414" lon="8.735703879678152"><ele>63.0</ele><time>2026-05-01T13:12:34.999Z</time></trkpt><trkpt lat="42.56189688161865" lon="8.735505291997596"><ele>67.0</ele><time>2026-05-01T13:12:35.999Z</time></trkpt><trkpt lat="42.56190651922261" lon="8.735315613130451"><ele>71.0</ele><time>2026-05-01T13:12:36.999Z</time></trkpt><trkpt lat="42.561874426914585" lon="8.735121693577122"><ele>75.0</ele><time>2026-05-01T13:12:37.999Z</time></trkpt><trkpt lat="42.5618224182501" lon="8.734942555546462"><ele>75.0</ele><time>2026-05-01T13:12:38.999Z</time></trkpt><trkpt lat="42.56172786869341" lon="8.734765273144555"><ele>75.0</ele><time>2026-05-01T13:12:39.999Z</time></trkpt><trkpt lat="42.561616776203834" lon="8.734603931051941"><ele>75.0</ele><time>2026-05-01T13:12:40.999Z</time></trkpt><trkpt lat="42.56146192563633" lon="8.734515587527106"><ele>71.0</ele><time>2026-05-01T13:12:41.999Z</time></trkpt><trkpt lat="42.561342039681485" lon="8.734385635371272"><ele>67.0</ele><time>2026-05-01T13:12:42.999Z</time></trkpt><trkpt lat="42.561244564585195" lon="8.734234367649792"><ele>63.0</ele><time>2026-05-01T13:12:43.999Z</time></trkpt><trkpt lat="42.561189278985196" lon="8.734042667614652"><ele>72.0</ele><time>2026-05-01T13:12:44.999Z</time></trkpt><trkpt lat="42.56114856403029" lon="8.733836980199074"><ele>81.0</ele><time>2026-05-01T13:12:45.999Z</time></trkpt><trkpt lat="42.56108724798019" lon="8.733630109935556"><ele>90.0</ele><time>2026-05-01T13:12:46.999Z</time></trkpt><trkpt lat="42.561039871476666" lon="8.733412342811977"><ele>90.0</ele><time>2026-05-01T13:12:47.999Z</time></trkpt><trkpt lat="42.5609877793659" lon="8.733199006581414"><ele>90.0</ele><time>2026-05-01T13:12:48.999Z</time></trkpt><trkpt lat="42.56093951176314" lon="8.732986162982545"><ele>90.0</ele><time>2026-05-01T13:12:49.999Z</time></trkpt><trkpt lat="42.56088708700601" lon="8.732779891463187"><ele>86.0</ele><time>2026-05-01T13:12:50.999Z</time></trkpt><trkpt lat="42.56080520919082" lon="8.732597207104883"><ele>82.0</ele><time>2026-05-01T13:12:51.999Z</time></trkpt><trkpt lat="42.560694845942194" lon="8.732442385446468"><ele>78.0</ele><time>2026-05-01T13:12:52.999Z</time></trkpt><trkpt lat="42.560599051624735" lon="8.732270273840168"><ele>78.0</ele><time>2026-05-01T13:12:53.999Z</time></trkpt><trkpt lat="42.5604913499483" lon="8.732107923727607"><ele>78.0</ele><time>2026-05-01T13:12:54.999Z</time></trkpt><trkpt lat="42.56038726547228" lon="8.731949413403907"><ele>78.0</ele><time>2026-05-01T13:12:55.999Z</time></trkpt><trkpt lat="42.560293648578956" lon="8.731783199860532"><ele>81.33333333333333</ele><time>2026-05-01T13:12:56.999Z</time></trkpt><trkpt lat="42.56020922421274" lon="8.731610014772356"><ele>84.66666666666666</ele><time>2026-05-01T13:12:57.999Z</time></trkpt><trkpt lat="42.560125233840196" lon="8.731437783189195"><ele>88.0</ele><time>2026-05-01T13:12:58.999Z</time></trkpt><trkpt lat="42.56002783527678" lon="8.731276944017097"><ele>88.0</ele><time>2026-05-01T13:12:59.999Z</time></trkpt><trkpt lat="42.55994454740572" lon="8.731105937616853"><ele>88.0</ele><time>2026-05-01T13:13:00.999Z</time></trkpt><trkpt lat="42.559865467591806" lon="8.730962748868118"><ele>88.0</ele><time>2026-05-01T13:13:01.999Z</time></trkpt><trkpt lat="42.55978377826119" lon="8.73084896625423"><ele>88.0</ele><time>2026-05-01T13:13:02.999Z</time></trkpt><trkpt lat="42.559667285283666" lon="8.730846137439837"><ele>88.75</ele><time>2026-05-01T13:13:03.999Z</time></trkpt><trkpt lat="42.55954723909554" lon="8.730847871194058"><ele>89.5</ele><time>2026-05-01T13:13:04.999Z</time></trkpt><trkpt lat="42.55942571674309" lon="8.730843044485836"><ele>90.25</ele><time>2026-05-01T13:13:05.999Z</time></trkpt><trkpt lat="42.559307840308755" lon="8.730799373912111"><ele>91.0</ele><time>2026-05-01T13:13:06.999Z</time></trkpt><trkpt lat="42.55919926568829" lon="8.730709656219666"><ele>91.0</ele><time>2026-05-01T13:13:07.999Z</time></trkpt><trkpt lat="42.559088545253154" lon="8.730629855096753"><ele>91.0</ele><time>2026-05-01T13:13:08.999Z</time></trkpt><trkpt lat="42.55900363586381" lon="8.730504006818332"><ele>91.0</ele><time>2026-05-01T13:13:09.999Z</time></trkpt><trkpt lat="42.55889459687441" lon="8.730421311583743"><ele>91.0</ele><time>2026-05-01T13:13:10.999Z</time></trkpt><trkpt lat="42.558796479144554" lon="8.730320255158428"><ele>93.25</ele><time>2026-05-01T13:13:11.999Z</time></trkpt><trkpt lat="42.55870091096387" lon="8.730214032981886"><ele>95.5</ele><time>2026-05-01T13:13:12.999Z</time></trkpt><trkpt lat="42.55860551229053" lon="8.730108030907198"><ele>97.75</ele><time>2026-05-01T13:13:13.999Z</time></trkpt><trkpt lat="42.55850625278437" lon="8.730008519692015"><ele>100.0</ele><time>2026-05-01T13:13:14.999Z</time></trkpt><trkpt lat="42.55841040504804" lon="8.729906820656181"><ele>100.0</ele><time>2026-05-01T13:13:15.999Z</time></trkpt><trkpt lat="42.55832644578435" lon="8.72978831032132"><ele>100.0</ele><time>2026-05-01T13:13:16.999Z</time></trkpt><trkpt lat="42.558267152678155" lon="8.729642804766168"><ele>100.0</ele><time>2026-05-01T13:13:17.999Z</time></trkpt><trkpt lat="42.55822520120576" lon="8.729483682221678"><ele>100.0</ele><time>2026-05-01T13:13:18.999Z</time></trkpt><trkpt lat="42.558179688405005" lon="8.72932440073763"><ele>101.75</ele><time>2026-05-01T13:13:19.999Z</time></trkpt><trkpt lat="42.558128862213565" lon="8.729163454220624"><ele>103.5</ele><time>2026-05-01T13:13:20.999Z</time></trkpt><trkpt lat="42.5580602382016" lon="8.729015856590756"><ele>105.25</ele><time>2026-05-01T13:13:21.999Z</time></trkpt><trkpt lat="42.5579596986854" lon="8.728901782135917"><ele>107.0</ele><time>2026-05-01T13:13:22.999Z</time></trkpt><trkpt lat="42.557862078064275" lon="8.728780802224158"><ele>107.0</ele><time>2026-05-01T13:13:23.999Z</time></trkpt><trkpt lat="42.55775489506287" lon="8.728669475574188"><ele>107.0</ele><time>2026-05-01T13:13:24.999Z</time></trkpt><trkpt lat="42.55763629601392" lon="8.728569043039215"><ele>107.0</ele><time>2026-05-01T13:13:25.999Z</time></trkpt><trkpt lat="42.55753389951151" lon="8.72844316163908"><ele>107.0</ele><time>2026-05-01T13:13:26.999Z</time></trkpt><trkpt lat="42.557399980090516" lon="8.728380664937688"><ele>106.5</ele><time>2026-05-01T13:13:27.999Z</time></trkpt><trkpt lat="42.55725765106142" lon="8.728361499325633"><ele>106.0</ele><time>2026-05-01T13:13:28.999Z</time></trkpt><trkpt lat="42.55712086597487" lon="8.72834632065122"><ele>105.5</ele><time>2026-05-01T13:13:29.999Z</time></trkpt><trkpt lat="42.556987581669944" lon="8.728331051432713"><ele>105.0</ele><time>2026-05-01T13:13:30.999Z</time></trkpt><trkpt lat="42.55688079111273" lon="8.728232911399427"><ele>105.0</ele><time>2026-05-01T13:13:31.999Z</time></trkpt><trkpt lat="42.55683851805594" lon="8.728083102174436"><ele>105.0</ele><time>2026-05-01T13:13:32.999Z</time></trkpt><trkpt lat="42.556827613501426" lon="8.727925856729636"><ele>105.0</ele><time>2026-05-01T13:13:33.999Z</time></trkpt><trkpt lat="42.55679944887798" lon="8.727755283972591"><ele>105.0</ele><time>2026-05-01T13:13:34.999Z</time></trkpt><trkpt lat="42.55671793537309" lon="8.72761440020754"><ele>103.25</ele><time>2026-05-01T13:13:35.999Z</time></trkpt><trkpt lat="42.55665043626162" lon="8.727463805431896"><ele>101.5</ele><time>2026-05-01T13:13:36.999Z</time></trkpt><trkpt lat="42.55657009770272" lon="8.727327790838899"><ele>99.75</ele><time>2026-05-01T13:13:37.999Z</time></trkpt><trkpt lat="42.5564884405929" lon="8.727195379757532"><ele>98.0</ele><time>2026-05-01T13:13:38.999Z</time></trkpt><trkpt lat="42.55636645550277" lon="8.727103288734853"><ele>98.0</ele><time>2026-05-01T13:13:39.999Z</time></trkpt><trkpt lat="42.55625246345403" lon="8.727024436343635"><ele>98.0</ele><time>2026-05-01T13:13:40.999Z</time></trkpt><trkpt lat="42.55614046945181" lon="8.726946327231216"><ele>98.0</ele><time>2026-05-01T13:13:41.999Z</time></trkpt><trkpt lat="42.55603322362663" lon="8.726866552035162"><ele>98.0</ele><time>2026-05-01T13:13:42.999Z</time></trkpt><trkpt lat="42.55593437523303" lon="8.726794658621838"><ele>100.0</ele><time>2026-05-01T13:13:43.999Z</time></trkpt><trkpt lat="42.555842068282445" lon="8.726747663200833"><ele>102.0</ele><time>2026-05-01T13:13:44.999Z</time></trkpt><trkpt lat="42.555781291017595" lon="8.726674019710757"><ele>104.0</ele><time>2026-05-01T13:13:45.999Z</time></trkpt><trkpt lat="42.55575155349602" lon="8.726584836356826"><ele>106.0</ele><time>2026-05-01T13:13:46.999Z</time></trkpt><trkpt lat="42.55592881568558" lon="8.726293969175845"><ele>106.00000000000001</ele><time>2026-05-01T13:13:50.998Z</time></trkpt><trkpt lat="42.55600692521915" lon="8.726250997042515"><ele>106.0</ele><time>2026-05-01T13:13:51.998Z</time></trkpt><trkpt lat="42.55607181314873" lon="8.726177104878783"><ele>106.0</ele><time>2026-05-01T13:13:52.998Z</time></trkpt><trkpt lat="42.556118039154384" lon="8.726070511784304"><ele>106.0</ele><time>2026-05-01T13:13:53.998Z</time></trkpt><trkpt lat="42.556142137869294" lon="8.725955232909904"><ele>106.00000000000001</ele><time>2026-05-01T13:13:54.998Z</time></trkpt><trkpt lat="42.55613938975225" lon="8.72582760460968"><ele>106.0</ele><time>2026-05-01T13:13:55.999Z</time></trkpt><trkpt lat="42.55611411725431" lon="8.725703428200358"><ele>106.19999999999999</ele><time>2026-05-01T13:13:56.999Z</time></trkpt><trkpt lat="42.55606908721181" lon="8.72558255690381"><ele>106.39999999999999</ele><time>2026-05-01T13:13:57.999Z</time></trkpt><trkpt lat="42.556007120345605" lon="8.72546585116027"><ele>106.6</ele><time>2026-05-01T13:13:58.999Z</time></trkpt><trkpt lat="42.55594472486126" lon="8.725344577032136"><ele>106.8</ele><time>2026-05-01T13:13:59.999Z</time></trkpt><trkpt lat="42.555877788417554" lon="8.725222044882319"><ele>107.0</ele><time>2026-05-01T13:14:00.999Z</time></trkpt><trkpt lat="42.55581053736428" lon="8.7250959361606"><ele>105.6</ele><time>2026-05-01T13:14:01.999Z</time></trkpt><trkpt lat="42.5557460274034" lon="8.724966764022028"><ele>104.19999999999999</ele><time>2026-05-01T13:14:02.999Z</time></trkpt><trkpt lat="42.55568292751383" lon="8.724841551273341"><ele>102.8</ele><time>2026-05-01T13:14:03.999Z</time></trkpt><trkpt lat="42.555617056541564" lon="8.724730249751758"><ele>101.4</ele><time>2026-05-01T13:14:04.999Z</time></trkpt><trkpt lat="42.5555333048289" lon="8.724665944472434"><ele>100.0</ele><time>2026-05-01T13:14:05.999Z</time></trkpt><trkpt lat="42.5554254344852" lon="8.724633136679985"><ele>103.75</ele><time>2026-05-01T13:14:06.999Z</time></trkpt><trkpt lat="42.55531353174727" lon="8.724598711585946"><ele>107.5</ele><time>2026-05-01T13:14:07.999Z</time></trkpt><trkpt lat="42.555202255816745" lon="8.724539515356097"><ele>111.25</ele><time>2026-05-01T13:14:08.999Z</time></trkpt><trkpt lat="42.55508523572101" lon="8.724474382847113"><ele>115.0</ele><time>2026-05-01T13:14:09.999Z</time></trkpt><trkpt lat="42.55496322241791" lon="8.724411293899564"><ele>111.0</ele><time>2026-05-01T13:14:10.999Z</time></trkpt><trkpt lat="42.554839987294635" lon="8.724353296579865"><ele>107.0</ele><time>2026-05-01T13:14:11.999Z</time></trkpt><trkpt lat="42.55472863592014" lon="8.724302969589882"><ele>103.0</ele><time>2026-05-01T13:14:12.999Z</time></trkpt><trkpt lat="42.55462416183942" lon="8.72427438466904"><ele>99.0</ele><time>2026-05-01T13:14:13.999Z</time></trkpt><trkpt lat="42.55451638164313" lon="8.72426564041911"><ele>99.0</ele><time>2026-05-01T13:14:14.999Z</time></trkpt><trkpt lat="42.554404931537874" lon="8.72425573417815"><ele>99.0</ele><time>2026-05-01T13:14:15.999Z</time></trkpt><trkpt lat="42.55429311898215" lon="8.724242888999257"><ele>99.0</ele><time>2026-05-01T13:14:16.999Z</time></trkpt><trkpt lat="42.554185868685636" lon="8.72423559277658"><ele>99.0</ele><time>2026-05-01T13:14:17.999Z</time></trkpt><trkpt lat="42.55407773314551" lon="8.724243644101303"><ele>99.0</ele><time>2026-05-01T13:14:18.999Z</time></trkpt><trkpt lat="42.55397194908431" lon="8.724239458089958"><ele>99.0</ele><time>2026-05-01T13:14:19.999Z</time></trkpt><trkpt lat="42.55387513599524" lon="8.724191458301432"><ele>99.0</ele><time>2026-05-01T13:14:20.999Z</time></trkpt><trkpt lat="42.55380393764144" lon="8.724095376609451"><ele>99.0</ele><time>2026-05-01T13:14:21.999Z</time></trkpt><trkpt lat="42.55372811980305" lon="8.72398775196089"><ele>99.0</ele><time>2026-05-01T13:14:22.999Z</time></trkpt><trkpt lat="42.553629566800446" lon="8.723945753872483"><ele>99.0</ele><time>2026-05-01T13:14:23.999Z</time></trkpt><trkpt lat="42.55351151799263" lon="8.723952641448872"><ele>102.5</ele><time>2026-05-01T13:14:24.999Z</time></trkpt><trkpt lat="42.553391465222" lon="8.723947624138798"><ele>106.0</ele><time>2026-05-01T13:14:25.999Z</time></trkpt><trkpt lat="42.553274722626995" lon="8.723927933669435"><ele>109.5</ele><time>2026-05-01T13:14:26.999Z</time></trkpt><trkpt lat="42.55315965677468" lon="8.723909150959031"><ele>113.0</ele><time>2026-05-01T13:14:27.999Z</time></trkpt><trkpt lat="42.55305344204973" lon="8.723880572661974"><ele>113.0</ele><time>2026-05-01T13:14:28.999Z</time></trkpt><trkpt lat="42.55296030874654" lon="8.723831435960669"><ele>113.00000000000001</ele><time>2026-05-01T13:14:29.999Z</time></trkpt><trkpt lat="42.55288731357909" lon="8.723749735019572"><ele>113.00000000000001</ele><time>2026-05-01T13:14:30.999Z</time></trkpt><trkpt lat="42.5528419081456" lon="8.723645724995633"><ele>113.0</ele><time>2026-05-01T13:14:31.999Z</time></trkpt><trkpt lat="42.55284880361427" lon="8.723524222732973"><ele>113.0</ele><time>2026-05-01T13:14:32.999Z</time></trkpt><trkpt lat="42.55288329495079" lon="8.723389405866243"><ele>114.2</ele><time>2026-05-01T13:14:33.999Z</time></trkpt><trkpt lat="42.5528979784361" lon="8.723254686519871"><ele>115.4</ele><time>2026-05-01T13:14:34.999Z</time></trkpt><trkpt lat="42.55284920762745" lon="8.723134290844197"><ele>116.60000000000001</ele><time>2026-05-01T13:14:35.999Z</time></trkpt><trkpt lat="42.55275629221799" lon="8.723036912293646"><ele>117.80000000000001</ele><time>2026-05-01T13:14:36.999Z</time></trkpt><trkpt lat="42.55266329324638" lon="8.722948538967913"><ele>119.0</ele><time>2026-05-01T13:14:37.999Z</time></trkpt><trkpt lat="42.55258021031023" lon="8.72285257419423"><ele>119.0</ele><time>2026-05-01T13:14:38.999Z</time></trkpt><trkpt lat="42.55249326586277" lon="8.722738877603213"><ele>119.0</ele><time>2026-05-01T13:14:39.999Z</time></trkpt><trkpt lat="42.55242154183713" lon="8.722603842027434"><ele>119.0</ele><time>2026-05-01T13:14:40.999Z</time></trkpt><trkpt lat="42.552359694200085" lon="8.722454355025091"><ele>119.0</ele><time>2026-05-01T13:14:41.999Z</time></trkpt><trkpt lat="42.552301848532345" lon="8.72230702732046"><ele>116.6</ele><time>2026-05-01T13:14:42.999Z</time></trkpt><trkpt lat="42.55224065373122" lon="8.722175507263422"><ele>114.2</ele><time>2026-05-01T13:14:43.999Z</time></trkpt><trkpt lat="42.55217020870809" lon="8.722067768843775"><ele>111.79999999999998</ele><time>2026-05-01T13:14:44.999Z</time></trkpt><trkpt lat="42.552082322817796" lon="8.721993232256123"><ele>109.39999999999999</ele><time>2026-05-01T13:14:45.999Z</time></trkpt><trkpt lat="42.551973550533305" lon="8.721932332060518"><ele>107.0</ele><time>2026-05-01T13:14:46.999Z</time></trkpt><trkpt lat="42.55186445316268" lon="8.721862641339417"><ele>107.0</ele><time>2026-05-01T13:14:47.999Z</time></trkpt><trkpt lat="42.55175726753136" lon="8.721782057883942"><ele>107.0</ele><time>2026-05-01T13:14:48.999Z</time></trkpt><trkpt lat="42.55165456979175" lon="8.721700124585443"><ele>107.0</ele><time>2026-05-01T13:14:49.999Z</time></trkpt><trkpt lat="42.55156076395288" lon="8.72160212842509"><ele>107.0</ele><time>2026-05-01T13:14:50.999Z</time></trkpt><trkpt lat="42.551479574114765" lon="8.72147789753142"><ele>107.0</ele><time>2026-05-01T13:14:51.999Z</time></trkpt><trkpt lat="42.55140838627995" lon="8.721335281481748"><ele>107.0</ele><time>2026-05-01T13:14:52.999Z</time></trkpt><trkpt lat="42.55134740855436" lon="8.721188769063067"><ele>107.0</ele><time>2026-05-01T13:14:53.999Z</time></trkpt><trkpt lat="42.551275998628554" lon="8.72105117262122"><ele>107.0</ele><time>2026-05-01T13:14:54.999Z</time></trkpt><trkpt lat="42.551183040750296" lon="8.720931535400704"><ele>107.0</ele><time>2026-05-01T13:14:55.999Z</time></trkpt><trkpt lat="42.55108853525332" lon="8.720815444312494"><ele>107.0</ele><time>2026-05-01T13:14:56.999Z</time></trkpt><trkpt lat="42.55100587119657" lon="8.720705044426419"><ele>107.0</ele><time>2026-05-01T13:14:57.999Z</time></trkpt><trkpt lat="42.55092986991575" lon="8.720604940784293"><ele>107.0</ele><time>2026-05-01T13:14:58.999Z</time></trkpt><trkpt lat="42.55084421687933" lon="8.720533382316107"><ele>107.0</ele><time>2026-05-01T13:14:59.999Z</time></trkpt><trkpt lat="42.55072918834538" lon="8.720512860975754"><ele>107.0</ele><time>2026-05-01T13:15:00.999Z</time></trkpt><trkpt lat="42.55060827117606" lon="8.720516453818226"><ele>107.0</ele><time>2026-05-01T13:15:01.999Z</time></trkpt><trkpt lat="42.550489548289576" lon="8.720481445422855"><ele>107.0</ele><time>2026-05-01T13:15:02.999Z</time></trkpt><trkpt lat="42.55037864147457" lon="8.720409797028298"><ele>108.25</ele><time>2026-05-01T13:15:03.999Z</time></trkpt><trkpt lat="42.550259723088104" lon="8.720370080735933"><ele>109.5</ele><time>2026-05-01T13:15:04.999Z</time></trkpt><trkpt lat="42.550132446343845" lon="8.720398771221122"><ele>110.75</ele><time>2026-05-01T13:15:05.999Z</time></trkpt><trkpt lat="42.55000157057655" lon="8.720434696800847"><ele>112.0</ele><time>2026-05-01T13:15:06.999Z</time></trkpt><trkpt lat="42.549872478769245" lon="8.720457476904455"><ele>112.0</ele><time>2026-05-01T13:15:07.999Z</time></trkpt><trkpt lat="42.549744534747354" lon="8.720469944056632"><ele>112.0</ele><time>2026-05-01T13:15:08.999Z</time></trkpt><trkpt lat="42.549615273091526" lon="8.72045528876831"><ele>112.0</ele><time>2026-05-01T13:15:09.999Z</time></trkpt><trkpt lat="42.549486943213395" lon="8.720409644878474"><ele>112.0</ele><time>2026-05-01T13:15:10.999Z</time></trkpt><trkpt lat="42.54936675135118" lon="8.720359099032343"><ele>110.8</ele><time>2026-05-01T13:15:11.999Z</time></trkpt><trkpt lat="42.54926176918041" lon="8.720320640300454"><ele>109.6</ele><time>2026-05-01T13:15:12.999Z</time></trkpt><trkpt lat="42.54916533421349" lon="8.720305547420555"><ele>108.39999999999999</ele><time>2026-05-01T13:15:13.999Z</time></trkpt><trkpt lat="42.5490733896988" lon="8.720323767652358"><ele>107.19999999999999</ele><time>2026-05-01T13:15:14.999Z</time></trkpt><trkpt lat="42.548981997062356" lon="8.720379041834727"><ele>106.0</ele><time>2026-05-01T13:15:15.999Z</time></trkpt><trkpt lat="42.548891103472094" lon="8.720456782813201"><ele>106.0</ele><time>2026-05-01T13:15:16.999Z</time></trkpt><trkpt lat="42.548813756695516" lon="8.720555212395997"><ele>106.0</ele><time>2026-05-01T13:15:17.999Z</time></trkpt><trkpt lat="42.54874868344137" lon="8.720675246033066"><ele>106.0</ele><time>2026-05-01T13:15:18.999Z</time></trkpt><trkpt lat="42.54868535399507" lon="8.720795199424364"><ele>106.0</ele><time>2026-05-01T13:15:19.999Z</time></trkpt><trkpt lat="42.54860106203172" lon="8.720897020943553"><ele>106.0</ele><time>2026-05-01T13:15:20.999Z</time></trkpt><trkpt lat="42.54850107945189" lon="8.72096380134363"><ele>105.0</ele><time>2026-05-01T13:15:21.999Z</time></trkpt><trkpt lat="42.548402532911915" lon="8.721029239802524"><ele>104.0</ele><time>2026-05-01T13:15:22.999Z</time></trkpt><trkpt lat="42.54831508080113" lon="8.721131305098096"><ele>103.0</ele><time>2026-05-01T13:15:23.999Z</time></trkpt><trkpt lat="42.54823500899581" lon="8.72126142392839"><ele>102.0</ele><time>2026-05-01T13:15:24.999Z</time></trkpt><trkpt lat="42.54815122426096" lon="8.721395185753227"><ele>102.0</ele><time>2026-05-01T13:15:25.999Z</time></trkpt><trkpt lat="42.54806333814967" lon="8.72152863034536"><ele>102.0</ele><time>2026-05-01T13:15:26.999Z</time></trkpt><trkpt lat="42.547971856858304" lon="8.72165719069876"><ele>102.0</ele><time>2026-05-01T13:15:27.999Z</time></trkpt><trkpt lat="42.5478825476828" lon="8.721785515941043"><ele>102.0</ele><time>2026-05-01T13:15:28.999Z</time></trkpt><trkpt lat="42.54780181564732" lon="8.72191681202432"><ele>96.25</ele><time>2026-05-01T13:15:29.999Z</time></trkpt><trkpt lat="42.54774168463422" lon="8.722062575656265"><ele>90.5</ele><time>2026-05-01T13:15:30.999Z</time></trkpt><trkpt lat="42.54770408959775" lon="8.722222723637886"><ele>84.75</ele><time>2026-05-01T13:15:31.999Z</time></trkpt><trkpt lat="42.54764396717929" lon="8.722366362948991"><ele>79.0</ele><time>2026-05-01T13:15:32.999Z</time></trkpt><trkpt lat="42.54756969893524" lon="8.722486649397936"><ele>79.0</ele><time>2026-05-01T13:15:33.999Z</time></trkpt><trkpt lat="42.54752181664159" lon="8.722617647917918"><ele>79.0</ele><time>2026-05-01T13:15:34.999Z</time></trkpt><trkpt lat="42.54749819321695" lon="8.722757723884774"><ele>79.0</ele><time>2026-05-01T13:15:35.999Z</time></trkpt><trkpt lat="42.547516771896376" lon="8.722914161402791"><ele>79.0</ele><time>2026-05-01T13:15:36.999Z</time></trkpt><trkpt lat="42.54756274182359" lon="8.723063185920886"><ele>79.0</ele><time>2026-05-01T13:15:37.999Z</time></trkpt><trkpt lat="42.54764030008577" lon="8.723192182002864"><ele>77.0</ele><time>2026-05-01T13:15:38.999Z</time></trkpt><trkpt lat="42.54773498329121" lon="8.723310958260655"><ele>75.0</ele><time>2026-05-01T13:15:39.999Z</time></trkpt><trkpt lat="42.54782701349682" lon="8.723423656511047"><ele>73.0</ele><time>2026-05-01T13:15:40.999Z</time></trkpt><trkpt lat="42.5479102586789" lon="8.723525162163371"><ele>71.0</ele><time>2026-05-01T13:15:41.999Z</time></trkpt><trkpt lat="42.54798259264068" lon="8.723620976815626"><ele>77.4</ele><time>2026-05-01T13:15:42.999Z</time></trkpt><trkpt lat="42.54803904951304" lon="8.723727979454488"><ele>83.8</ele><time>2026-05-01T13:15:43.999Z</time></trkpt><trkpt lat="42.54806206962947" lon="8.723847020668568"><ele>90.2</ele><time>2026-05-01T13:15:44.999Z</time></trkpt><trkpt lat="42.548044269303205" lon="8.723961955437552"><ele>96.60000000000001</ele><time>2026-05-01T13:15:45.999Z</time></trkpt><trkpt lat="42.547988536139165" lon="8.724044762375282"><ele>103.0</ele><time>2026-05-01T13:15:46.999Z</time></trkpt><trkpt lat="42.54788244813225" lon="8.724060529181434"><ele>96.2</ele><time>2026-05-01T13:15:47.999Z</time></trkpt><trkpt lat="42.54778789450448" lon="8.724126997861973"><ele>89.4</ele><time>2026-05-01T13:15:48.999Z</time></trkpt><trkpt lat="42.54768904628122" lon="8.724195201974998"><ele>82.60000000000001</ele><time>2026-05-01T13:15:49.999Z</time></trkpt><trkpt lat="42.54759881695341" lon="8.724277024279871"><ele>75.80000000000001</ele><time>2026-05-01T13:15:50.999Z</time></trkpt><trkpt lat="42.547511295966004" lon="8.724336355041595"><ele>69.0</ele><time>2026-05-01T13:15:51.999Z</time></trkpt><trkpt lat="42.54743655599183" lon="8.72439402386645"><ele>70.2</ele><time>2026-05-01T13:15:52.999Z</time></trkpt><trkpt lat="42.54741995379375" lon="8.7245310366249"><ele>71.4</ele><time>2026-05-01T13:15:53.999Z</time></trkpt><trkpt lat="42.547431224273325" lon="8.724671570606446"><ele>72.6</ele><time>2026-05-01T13:15:54.999Z</time></trkpt><trkpt lat="42.54745901932706" lon="8.724821690195377"><ele>73.8</ele><time>2026-05-01T13:15:55.999Z</time></trkpt><trkpt lat="42.54747579348555" lon="8.72497213021656"><ele>75.0</ele><time>2026-05-01T13:15:56.999Z</time></trkpt><trkpt lat="42.547487587591284" lon="8.725113981151123"><ele>75.0</ele><time>2026-05-01T13:15:57.999Z</time></trkpt><trkpt lat="42.54751770155723" lon="8.725227105161634"><ele>75.0</ele><time>2026-05-01T13:15:58.999Z</time></trkpt><trkpt lat="42.547569127758" lon="8.725319557992789"><ele>75.0</ele><time>2026-05-01T13:15:59.999Z</time></trkpt><trkpt lat="42.547679358641" lon="8.725330728843465"><ele>75.0</ele><time>2026-05-01T13:16:00.999Z</time></trkpt><trkpt lat="42.54779149247798" lon="8.725335327829022"><ele>75.0</ele><time>2026-05-01T13:16:01.999Z</time></trkpt><trkpt lat="42.547915960640104" lon="8.725336944527752"><ele>74.75</ele><time>2026-05-01T13:16:02.999Z</time></trkpt><trkpt lat="42.54803722824887" lon="8.725343204334013"><ele>74.5</ele><time>2026-05-01T13:16:03.999Z</time></trkpt><trkpt lat="42.54815440362771" lon="8.725360612982715"><ele>74.25</ele><time>2026-05-01T13:16:04.999Z</time></trkpt><trkpt lat="42.54825357325924" lon="8.725436613193066"><ele>74.0</ele><time>2026-05-01T13:16:05.999Z</time></trkpt><trkpt lat="42.54835679124876" lon="8.725496668273387"><ele>74.0</ele><time>2026-05-01T13:16:06.999Z</time></trkpt><trkpt lat="42.54845845160134" lon="8.725545248425277"><ele>74.0</ele><time>2026-05-01T13:16:07.999Z</time></trkpt><trkpt lat="42.548537771329684" lon="8.725604462973267"><ele>74.0</ele><time>2026-05-01T13:16:08.999Z</time></trkpt><trkpt lat="42.548586251276795" lon="8.725696970281712"><ele>74.0</ele><time>2026-05-01T13:16:09.999Z</time></trkpt><trkpt lat="42.54858057376926" lon="8.725815393692375"><ele>74.0</ele><time>2026-05-01T13:16:10.999Z</time></trkpt><trkpt lat="42.548536263990584" lon="8.725922349707597"><ele>74.0</ele><time>2026-05-01T13:16:11.999Z</time></trkpt><trkpt lat="42.54847901094478" lon="8.72600350096754"><ele>74.0</ele><time>2026-05-01T13:16:12.999Z</time></trkpt><trkpt lat="42.548404101380456" lon="8.726050788771252"><ele>74.0</ele><time>2026-05-01T13:16:13.999Z</time></trkpt><trkpt lat="42.54836869670717" lon="8.726139520032174"><ele>74.0</ele><time>2026-05-01T13:16:14.999Z</time></trkpt><trkpt lat="42.548330586760144" lon="8.726222710975492"><ele>74.0</ele><time>2026-05-01T13:16:15.999Z</time></trkpt><trkpt lat="42.548307345184845" lon="8.726324411196702"><ele>74.0</ele><time>2026-05-01T13:16:16.999Z</time></trkpt><trkpt lat="42.54829242803487" lon="8.726449068290133"><ele>74.2</ele><time>2026-05-01T13:16:17.999Z</time></trkpt><trkpt lat="42.54827657518093" lon="8.726587137435953"><ele>74.4</ele><time>2026-05-01T13:16:18.999Z</time></trkpt><trkpt lat="42.548222095258915" lon="8.72670167589591"><ele>74.6</ele><time>2026-05-01T13:16:19.999Z</time></trkpt><trkpt lat="42.548144591461806" lon="8.726775542427838"><ele>74.8</ele><time>2026-05-01T13:16:20.999Z</time></trkpt><trkpt lat="42.54804255244187" lon="8.726804217654287"><ele>75.0</ele><time>2026-05-01T13:16:21.999Z</time></trkpt><trkpt lat="42.54794944563041" lon="8.726877242245356"><ele>74.0</ele><time>2026-05-01T13:16:22.999Z</time></trkpt><trkpt lat="42.54785036578713" lon="8.726926222937"><ele>73.0</ele><time>2026-05-01T13:16:24Z</time></trkpt><trkpt lat="42.54775856584039" lon="8.72699530367767"><ele>72.0</ele><time>2026-05-01T13:16:25Z</time></trkpt><trkpt lat="42.54767473563297" lon="8.727084240937666"><ele>71.0</ele><time>2026-05-01T13:16:26Z</time></trkpt><trkpt lat="42.54759924701889" lon="8.72718479885699"><ele>70.0</ele><time>2026-05-01T13:16:27Z</time></trkpt><trkpt lat="42.54753631268446" lon="8.727301365839049"><ele>70.0</ele><time>2026-05-01T13:16:28Z</time></trkpt><trkpt lat="42.54748560270311" lon="8.727415368626149"><ele>70.0</ele><time>2026-05-01T13:16:29Z</time></trkpt><trkpt lat="42.547429910136" lon="8.727529968426634"><ele>70.0</ele><time>2026-05-01T13:16:30Z</time></trkpt><trkpt lat="42.54737245486447" lon="8.727613282186825"><ele>70.0</ele><time>2026-05-01T13:16:31Z</time></trkpt><trkpt lat="42.547292911613624" lon="8.72767592044637"><ele>70.0</ele><time>2026-05-01T13:16:32Z</time></trkpt><trkpt lat="42.54722127295374" lon="8.727744940304387"><ele>70.0</ele><time>2026-05-01T13:16:33Z</time></trkpt><trkpt lat="42.54712407575717" lon="8.72771126375576"><ele>70.0</ele><time>2026-05-01T13:16:34Z</time></trkpt><trkpt lat="42.547022726319014" lon="8.727710100301959"><ele>70.0</ele><time>2026-05-01T13:16:35Z</time></trkpt><trkpt lat="42.54690400923723" lon="8.727717886141379"><ele>70.0</ele><time>2026-05-01T13:16:36Z</time></trkpt><trkpt lat="42.54677949608288" lon="8.72772230301139"><ele>70.0</ele><time>2026-05-01T13:16:37Z</time></trkpt><trkpt lat="42.54665781472014" lon="8.72772273633357"><ele>65.25</ele><time>2026-05-01T13:16:38Z</time></trkpt><trkpt lat="42.54653166916203" lon="8.727724318696978"><ele>60.5</ele><time>2026-05-01T13:16:39Z</time></trkpt><trkpt lat="42.546404390711864" lon="8.727723668865334"><ele>55.75</ele><time>2026-05-01T13:16:40Z</time></trkpt><trkpt lat="42.546273997703175" lon="8.727722629392533"><ele>51.0</ele><time>2026-05-01T13:16:41Z</time></trkpt><trkpt lat="42.54614179391043" lon="8.72772563952901"><ele>54.5</ele><time>2026-05-01T13:16:42Z</time></trkpt><trkpt lat="42.54601389702079" lon="8.727734237229686"><ele>58.0</ele><time>2026-05-01T13:16:43Z</time></trkpt><trkpt lat="42.545891477034075" lon="8.727745188860837"><ele>61.5</ele><time>2026-05-01T13:16:44Z</time></trkpt><trkpt lat="42.545777080894425" lon="8.727798546017072"><ele>65.0</ele><time>2026-05-01T13:16:45Z</time></trkpt><trkpt lat="42.54566296771806" lon="8.727883710617098"><ele>65.0</ele><time>2026-05-01T13:16:46Z</time></trkpt><trkpt lat="42.54555436111946" lon="8.72798197403843"><ele>65.0</ele><time>2026-05-01T13:16:47Z</time></trkpt><trkpt lat="42.54543517682357" lon="8.728047716936493"><ele>65.0</ele><time>2026-05-01T13:16:48Z</time></trkpt><trkpt lat="42.54533335361258" lon="8.728134770584495"><ele>65.0</ele><time>2026-05-01T13:16:49Z</time></trkpt><trkpt lat="42.54522945263699" lon="8.728204429247691"><ele>65.0</ele><time>2026-05-01T13:16:50Z</time></trkpt><trkpt lat="42.54513270003889" lon="8.72827533537614"><ele>65.0</ele><time>2026-05-01T13:16:51Z</time></trkpt><trkpt lat="42.54504604060893" lon="8.728355246274278"><ele>65.0</ele><time>2026-05-01T13:16:52Z</time></trkpt><trkpt lat="42.544973572477176" lon="8.728458049937942"><ele>65.0</ele><time>2026-05-01T13:16:53Z</time></trkpt><trkpt lat="42.54492045140744" lon="8.728587244986565"><ele>65.0</ele><time>2026-05-01T13:16:54Z</time></trkpt><trkpt lat="42.54487674359909" lon="8.728727398395046"><ele>65.0</ele><time>2026-05-01T13:16:55Z</time></trkpt><trkpt lat="42.544829962943076" lon="8.728854002987434"><ele>65.0</ele><time>2026-05-01T13:16:56Z</time></trkpt><trkpt lat="42.544756724513746" lon="8.728940068867974"><ele>65.0</ele><time>2026-05-01T13:16:57Z</time></trkpt><trkpt lat="42.5446782811342" lon="8.729009250284667"><ele>65.0</ele><time>2026-05-01T13:16:58Z</time></trkpt><trkpt lat="42.5446103840486" lon="8.729047946054855"><ele>65.0</ele><time>2026-05-01T13:16:59Z</time></trkpt><trkpt lat="42.54453767727722" lon="8.729002713464887"><ele>65.0</ele><time>2026-05-01T13:17:00Z</time></trkpt><trkpt lat="42.544489654126956" lon="8.72892514293595"><ele>64.33333333333334</ele><time>2026-05-01T13:17:01Z</time></trkpt><trkpt lat="42.544464877968394" lon="8.72882420578281"><ele>63.66666666666667</ele><time>2026-05-01T13:17:02Z</time></trkpt><trkpt lat="42.54446999079022" lon="8.7287111899104"><ele>63.0</ele><time>2026-05-01T13:17:03Z</time></trkpt><trkpt lat="42.54451372937978" lon="8.728606785947598"><ele>62.33333333333333</ele><time>2026-05-01T13:17:04Z</time></trkpt><trkpt lat="42.54452216584542" lon="8.728484780103262"><ele>61.666666666666664</ele><time>2026-05-01T13:17:05Z</time></trkpt><trkpt lat="42.54453363633123" lon="8.728364971648508"><ele>61.0</ele><time>2026-05-01T13:17:06Z</time></trkpt><trkpt lat="42.544533460916995" lon="8.728237882932198"><ele>62.8</ele><time>2026-05-01T13:17:07Z</time></trkpt><trkpt lat="42.54452981506705" lon="8.728110165638398"><ele>64.6</ele><time>2026-05-01T13:17:08Z</time></trkpt><trkpt lat="42.54452813930467" lon="8.727985039320934"><ele>66.4</ele><time>2026-05-01T13:17:09Z</time></trkpt><trkpt lat="42.544527438953025" lon="8.727847584950261"><ele>68.2</ele><time>2026-05-01T13:17:10Z</time></trkpt><trkpt lat="42.544524981615304" lon="8.72770941471017"><ele>70.0</ele><time>2026-05-01T13:17:11Z</time></trkpt><trkpt lat="42.54452106662273" lon="8.727581671235555"><ele>71.8</ele><time>2026-05-01T13:17:12Z</time></trkpt><trkpt lat="42.544523777772554" lon="8.727456240467236"><ele>73.6</ele><time>2026-05-01T13:17:13Z</time></trkpt><trkpt lat="42.54453957062722" lon="8.727332328934233"><ele>75.4</ele><time>2026-05-01T13:17:14Z</time></trkpt><trkpt lat="42.54457394577816" lon="8.727210933017666"><ele>77.2</ele><time>2026-05-01T13:17:15Z</time></trkpt><trkpt lat="42.54463045979271" lon="8.72711190133717"><ele>79.0</ele><time>2026-05-01T13:17:16Z</time></trkpt><trkpt lat="42.54471046526547" lon="8.727010462229607"><ele>74.60000000000001</ele><time>2026-05-01T13:17:17Z</time></trkpt><trkpt lat="42.544800019031264" lon="8.726926444712683"><ele>70.2</ele><time>2026-05-01T13:17:18Z</time></trkpt><trkpt lat="42.54488978331127" lon="8.726836912223709"><ele>65.80000000000001</ele><time>2026-05-01T13:17:19Z</time></trkpt><trkpt lat="42.54497285416218" lon="8.726743920784688"><ele>61.400000000000006</ele><time>2026-05-01T13:17:20Z</time></trkpt><trkpt lat="42.545045738828335" lon="8.72663989630304"><ele>57.0</ele><time>2026-05-01T13:17:21Z</time></trkpt><trkpt lat="42.54509974264293" lon="8.726523996456903"><ele>57.0</ele><time>2026-05-01T13:17:22Z</time></trkpt><trkpt lat="42.54513525090643" lon="8.72638913672142"><ele>57.0</ele><time>2026-05-01T13:17:23Z</time></trkpt><trkpt lat="42.54513119943351" lon="8.726239461999375"><ele>57.0</ele><time>2026-05-01T13:17:24Z</time></trkpt><trkpt lat="42.54509478323426" lon="8.726084329273466"><ele>57.0</ele><time>2026-05-01T13:17:25Z</time></trkpt><trkpt lat="42.54505285990998" lon="8.725923952709923"><ele>57.25</ele><time>2026-05-01T13:17:26Z</time></trkpt><trkpt lat="42.54500565827257" lon="8.725769367133584"><ele>57.5</ele><time>2026-05-01T13:17:27Z</time></trkpt><trkpt lat="42.54493732916987" lon="8.725628837695233"><ele>57.75</ele><time>2026-05-01T13:17:28Z</time></trkpt><trkpt lat="42.544848587890954" lon="8.725507242867776"><ele>58.0</ele><time>2026-05-01T13:17:29Z</time></trkpt><trkpt lat="42.54474771642923" lon="8.725400429409941"><ele>58.0</ele><time>2026-05-01T13:17:30Z</time></trkpt><trkpt lat="42.544641689107046" lon="8.725304766743362"><ele>58.0</ele><time>2026-05-01T13:17:31Z</time></trkpt><trkpt lat="42.54453441946719" lon="8.725190739010841"><ele>58.0</ele><time>2026-05-01T13:17:32Z</time></trkpt><trkpt lat="42.54441757851941" lon="8.72509481971239"><ele>58.0</ele><time>2026-05-01T13:17:33Z</time></trkpt><trkpt lat="42.54430008740433" lon="8.724998366547746"><ele>59.5</ele><time>2026-05-01T13:17:34Z</time></trkpt><trkpt lat="42.544184393251406" lon="8.72490324592569"><ele>61.0</ele><time>2026-05-01T13:17:35Z</time></trkpt><trkpt lat="42.54407010195294" lon="8.724809171986166"><ele>62.5</ele><time>2026-05-01T13:17:36Z</time></trkpt><trkpt lat="42.543956874555555" lon="8.724715559830102"><ele>64.0</ele><time>2026-05-01T13:17:37Z</time></trkpt><trkpt lat="42.54384557389147" lon="8.724620834867196"><ele>64.0</ele><time>2026-05-01T13:17:38Z</time></trkpt><trkpt lat="42.54374604530231" lon="8.724534014418252"><ele>64.0</ele><time>2026-05-01T13:17:39Z</time></trkpt><trkpt lat="42.54366990853884" lon="8.72444062370164"><ele>64.0</ele><time>2026-05-01T13:17:40Z</time></trkpt><trkpt lat="42.543609832543744" lon="8.72434364074886"><ele>64.0</ele><time>2026-05-01T13:17:41Z</time></trkpt><trkpt lat="42.543609234236406" lon="8.724209246102717"><ele>64.0</ele><time>2026-05-01T13:17:42Z</time></trkpt><trkpt lat="42.54367752741697" lon="8.724089629270054"><ele>61.5</ele><time>2026-05-01T13:17:43Z</time></trkpt><trkpt lat="42.54371179276233" lon="8.723944355370916"><ele>59.0</ele><time>2026-05-01T13:17:44Z</time></trkpt><trkpt lat="42.54376810890179" lon="8.72380054405347"><ele>56.5</ele><time>2026-05-01T13:17:45Z</time></trkpt><trkpt lat="42.54382585640211" lon="8.723647163193615"><ele>54.0</ele><time>2026-05-01T13:17:46Z</time></trkpt><trkpt lat="42.54388486117988" lon="8.723494172734032"><ele>54.0</ele><time>2026-05-01T13:17:47Z</time></trkpt><trkpt lat="42.54394566624922" lon="8.723347085588252"><ele>54.0</ele><time>2026-05-01T13:17:48Z</time></trkpt><trkpt lat="42.54399594286766" lon="8.723205422076308"><ele>54.0</ele><time>2026-05-01T13:17:49Z</time></trkpt><trkpt lat="42.54401990598207" lon="8.72305042312342"><ele>54.0</ele><time>2026-05-01T13:17:50Z</time></trkpt><trkpt lat="42.54401691918105" lon="8.722879869486487"><ele>55.75</ele><time>2026-05-01T13:17:51Z</time></trkpt><trkpt lat="42.54400579262438" lon="8.722703830998535"><ele>57.5</ele><time>2026-05-01T13:17:52Z</time></trkpt><trkpt lat="42.543997028837744" lon="8.722528304492378"><ele>59.25</ele><time>2026-05-01T13:17:53Z</time></trkpt><trkpt lat="42.543982245098945" lon="8.722360967855762"><ele>61.0</ele><time>2026-05-01T13:17:54Z</time></trkpt><trkpt lat="42.54395991996656" lon="8.72218974169703"><ele>61.0</ele><time>2026-05-01T13:17:55Z</time></trkpt><trkpt lat="42.54395188549089" lon="8.722015053563013"><ele>61.0</ele><time>2026-05-01T13:17:56Z</time></trkpt><trkpt lat="42.54400555648929" lon="8.721858830340395"><ele>61.0</ele><time>2026-05-01T13:17:57Z</time></trkpt><trkpt lat="42.54407057544055" lon="8.72170996563385"><ele>61.0</ele><time>2026-05-01T13:17:58Z</time></trkpt><trkpt lat="42.54411684213399" lon="8.72155143205529"><ele>61.75</ele><time>2026-05-01T13:17:59Z</time></trkpt><trkpt lat="42.54414537438408" lon="8.721376715266802"><ele>62.5</ele><time>2026-05-01T13:18:00Z</time></trkpt><trkpt lat="42.54414071455595" lon="8.721185358878131"><ele>63.25</ele><time>2026-05-01T13:18:01Z</time></trkpt><trkpt lat="42.54413352744796" lon="8.720985733977699"><ele>64.0</ele><time>2026-05-01T13:18:02Z</time></trkpt><trkpt lat="42.54413082143358" lon="8.720786358595028"><ele>64.75</ele><time>2026-05-01T13:18:03Z</time></trkpt><trkpt lat="42.54412249302501" lon="8.720587822763875"><ele>65.5</ele><time>2026-05-01T13:18:04Z</time></trkpt><trkpt lat="42.54410327271563" lon="8.720397370203557"><ele>66.25</ele><time>2026-05-01T13:18:04.999Z</time></trkpt><trkpt lat="42.54408666706273" lon="8.720226888046206"><ele>67.0</ele><time>2026-05-01T13:18:05.999Z</time></trkpt><trkpt lat="42.544071418000186" lon="8.720085221190859"><ele>67.0</ele><time>2026-05-01T13:18:06.999Z</time></trkpt><trkpt lat="42.54402079270486" lon="8.71995801206534"><ele>67.0</ele><time>2026-05-01T13:18:08Z</time></trkpt><trkpt lat="42.543930373657844" lon="8.719850697011195"><ele>67.0</ele><time>2026-05-01T13:18:09Z</time></trkpt><trkpt lat="42.54382046463751" lon="8.719763120957825"><ele>67.0</ele><time>2026-05-01T13:18:10Z</time></trkpt><trkpt lat="42.54370491125375" lon="8.719690677264717"><ele>71.0</ele><time>2026-05-01T13:18:11Z</time></trkpt><trkpt lat="42.54358125018641" lon="8.719642806565028"><ele>75.0</ele><time>2026-05-01T13:18:12Z</time></trkpt><trkpt lat="42.54345569574092" lon="8.719612992241991"><ele>79.0</ele><time>2026-05-01T13:18:13Z</time></trkpt><trkpt lat="42.54334168949795" lon="8.719587784785988"><ele>83.0</ele><time>2026-05-01T13:18:14Z</time></trkpt><trkpt lat="42.54323842301346" lon="8.719569305454394"><ele>83.0</ele><time>2026-05-01T13:18:15Z</time></trkpt><trkpt lat="42.543145253364514" lon="8.719549403635911"><ele>83.0</ele><time>2026-05-01T13:18:16Z</time></trkpt><trkpt lat="42.54305556986461" lon="8.719527979161509"><ele>83.0</ele><time>2026-05-01T13:18:17Z</time></trkpt><trkpt lat="42.54297227765066" lon="8.719510094482946"><ele>83.0</ele><time>2026-05-01T13:18:18Z</time></trkpt><trkpt lat="42.54289201880867" lon="8.719493912917596"><ele>83.0</ele><time>2026-05-01T13:18:19Z</time></trkpt><trkpt lat="42.54282023171849" lon="8.719481514017778"><ele>83.0</ele><time>2026-05-01T13:18:20Z</time></trkpt><trkpt lat="42.542703930300036" lon="8.719461691945842"><ele>81.16666666666667</ele><time>2026-05-01T13:18:22Z</time></trkpt><trkpt lat="42.542588319608086" lon="8.719495162653706"><ele>79.33333333333334</ele><time>2026-05-01T13:18:24Z</time></trkpt><trkpt lat="42.54254091007363" lon="8.719591818127247"><ele>77.5</ele><time>2026-05-01T13:18:25Z</time></trkpt><trkpt lat="42.54253703609027" lon="8.719711812110836"><ele>75.66666666666667</ele><time>2026-05-01T13:18:26Z</time></trkpt><trkpt lat="42.54253363317132" lon="8.719809997558883"><ele>73.83333333333333</ele><time>2026-05-01T13:18:27Z</time></trkpt><trkpt lat="42.54251978094796" lon="8.719914017401843"><ele>72.0</ele><time>2026-05-01T13:18:28Z</time></trkpt><trkpt lat="42.542537940444376" lon="8.720028346017791"><ele>72.0</ele><time>2026-05-01T13:18:29Z</time></trkpt><trkpt lat="42.54256519731828" lon="8.720136659348029"><ele>72.0</ele><time>2026-05-01T13:18:30Z</time></trkpt><trkpt lat="42.54260513793461" lon="8.720224526302047"><ele>72.0</ele><time>2026-05-01T13:18:31Z</time></trkpt><trkpt lat="42.542620624100806" lon="8.720310927919774"><ele>72.0</ele><time>2026-05-01T13:18:32Z</time></trkpt><trkpt lat="42.54257352714751" lon="8.720441737812303"><ele>72.0</ele><time>2026-05-01T13:18:34Z</time></trkpt><trkpt lat="42.542477838535845" lon="8.720523535522526"><ele>72.0</ele><time>2026-05-01T13:18:36Z</time></trkpt><trkpt lat="42.54239938028104" lon="8.72054779807767"><ele>71.66666666666667</ele><time>2026-05-01T13:18:37Z</time></trkpt><trkpt lat="42.54231903953317" lon="8.720525858944239"><ele>71.33333333333333</ele><time>2026-05-01T13:18:38Z</time></trkpt><trkpt lat="42.54224265757817" lon="8.720544387404262"><ele>71.0</ele><time>2026-05-01T13:18:39Z</time></trkpt><trkpt lat="42.54216606319465" lon="8.720548152347007"><ele>70.66666666666666</ele><time>2026-05-01T13:18:40Z</time></trkpt><trkpt lat="42.5420944841953" lon="8.720570952359683"><ele>70.33333333333333</ele><time>2026-05-01T13:18:41Z</time></trkpt><trkpt lat="42.54202687068139" lon="8.720621657551112"><ele>70.0</ele><time>2026-05-01T13:18:42Z</time></trkpt><trkpt lat="42.54196011857257" lon="8.720695261270375"><ele>70.0</ele><time>2026-05-01T13:18:43Z</time></trkpt><trkpt lat="42.541898321758545" lon="8.72081259390043"><ele>70.0</ele><time>2026-05-01T13:18:44Z</time></trkpt><trkpt lat="42.54181014970258" lon="8.72095047701346"><ele>70.0</ele><time>2026-05-01T13:18:45Z</time></trkpt><trkpt lat="42.5417255401996" lon="8.721110799648482"><ele>70.0</ele><time>2026-05-01T13:18:46Z</time></trkpt><trkpt lat="42.54163874793885" lon="8.721275182761376"><ele>73.75</ele><time>2026-05-01T13:18:47Z</time></trkpt><trkpt lat="42.54156893638062" lon="8.721445248174005"><ele>77.5</ele><time>2026-05-01T13:18:48Z</time></trkpt><trkpt lat="42.541480481180606" lon="8.721584921318875"><ele>81.25</ele><time>2026-05-01T13:18:49Z</time></trkpt><trkpt lat="42.54137577550537" lon="8.721691317592875"><ele>85.0</ele><time>2026-05-01T13:18:50Z</time></trkpt><trkpt lat="42.54129953424084" lon="8.721815062455343"><ele>86.5</ele><time>2026-05-01T13:18:51Z</time></trkpt><trkpt lat="42.5412185047895" lon="8.721930765627187"><ele>88.0</ele><time>2026-05-01T13:18:52Z</time></trkpt><trkpt lat="42.54116717653418" lon="8.722085146266672"><ele>89.5</ele><time>2026-05-01T13:18:53Z</time></trkpt><trkpt lat="42.54114740165393" lon="8.722263743388757"><ele>91.0</ele><time>2026-05-01T13:18:54Z</time></trkpt><trkpt lat="42.54114558169642" lon="8.722445139588027"><ele>89.25</ele><time>2026-05-01T13:18:55Z</time></trkpt><trkpt lat="42.541111270076684" lon="8.72262205342472"><ele>87.5</ele><time>2026-05-01T13:18:56Z</time></trkpt><trkpt lat="42.54108112921295" lon="8.72277538822699"><ele>85.75</ele><time>2026-05-01T13:18:57Z</time></trkpt><trkpt lat="42.54102458961637" lon="8.722893742960627"><ele>84.0</ele><time>2026-05-01T13:18:58Z</time></trkpt><trkpt lat="42.540931931278955" lon="8.722940661820203"><ele>84.0</ele><time>2026-05-01T13:18:59Z</time></trkpt><trkpt lat="42.540819749284346" lon="8.722968229893231"><ele>84.0</ele><time>2026-05-01T13:19:00Z</time></trkpt><trkpt lat="42.5407101441856" lon="8.72304326968788"><ele>84.0</ele><time>2026-05-01T13:19:01Z</time></trkpt><trkpt lat="42.540611152459455" lon="8.723156165195467"><ele>84.0</ele><time>2026-05-01T13:19:02Z</time></trkpt><trkpt lat="42.540516574430654" lon="8.72329584788678"><ele>84.0</ele><time>2026-05-01T13:19:03Z</time></trkpt><trkpt lat="42.54041297098337" lon="8.72342512829557"><ele>84.0</ele><time>2026-05-01T13:19:04Z</time></trkpt><trkpt lat="42.54030943192376" lon="8.723555363866451"><ele>84.0</ele><time>2026-05-01T13:19:05Z</time></trkpt><trkpt lat="42.540224504730745" lon="8.72370476551295"><ele>84.0</ele><time>2026-05-01T13:19:06Z</time></trkpt><trkpt lat="42.54017485098457" lon="8.723877982702069"><ele>82.5</ele><time>2026-05-01T13:19:07Z</time></trkpt><trkpt lat="42.540149158798016" lon="8.724058784553606"><ele>81.0</ele><time>2026-05-01T13:19:08Z</time></trkpt><trkpt lat="42.540082439304726" lon="8.724211263361452"><ele>79.5</ele><time>2026-05-01T13:19:09Z</time></trkpt><trkpt lat="42.539992292358434" lon="8.724332158454963"><ele>78.0</ele><time>2026-05-01T13:19:10Z</time></trkpt><trkpt lat="42.53987984259479" lon="8.724429051420442"><ele>80.25</ele><time>2026-05-01T13:19:11Z</time></trkpt><trkpt lat="42.53977523326443" lon="8.72455183400021"><ele>82.5</ele><time>2026-05-01T13:19:12Z</time></trkpt><trkpt lat="42.53965572767761" lon="8.72464563979342"><ele>84.75</ele><time>2026-05-01T13:19:13Z</time></trkpt><trkpt lat="42.53955266027793" lon="8.724748127141284"><ele>87.0</ele><time>2026-05-01T13:19:14Z</time></trkpt><trkpt lat="42.539468777712145" lon="8.724840856063748"><ele>87.0</ele><time>2026-05-01T13:19:15Z</time></trkpt><trkpt lat="42.53936947829737" lon="8.72482577169333"><ele>87.0</ele><time>2026-05-01T13:19:16Z</time></trkpt><trkpt lat="42.53929646616879" lon="8.72473532683695"><ele>87.0</ele><time>2026-05-01T13:19:17Z</time></trkpt><trkpt lat="42.53918754490897" lon="8.724697225690647"><ele>87.0</ele><time>2026-05-01T13:19:18Z</time></trkpt><trkpt lat="42.539073903609925" lon="8.724674852541833"><ele>87.0</ele><time>2026-05-01T13:19:19Z</time></trkpt><trkpt lat="42.538951482584274" lon="8.724712952591618"><ele>87.0</ele><time>2026-05-01T13:19:20Z</time></trkpt><trkpt lat="42.53882447691971" lon="8.724770395032834"><ele>87.0</ele><time>2026-05-01T13:19:21Z</time></trkpt><trkpt lat="42.5387046270775" lon="8.72484274986799"><ele>87.0</ele><time>2026-05-01T13:19:22Z</time></trkpt><trkpt lat="42.538596907654714" lon="8.72493953530305"><ele>87.0</ele><time>2026-05-01T13:19:23Z</time></trkpt><trkpt lat="42.53852592956501" lon="8.725054548934667"><ele>86.0</ele><time>2026-05-01T13:19:24Z</time></trkpt><trkpt lat="42.53845404637992" lon="8.725141825748096"><ele>85.0</ele><time>2026-05-01T13:19:25Z</time></trkpt><trkpt lat="42.538391567759305" lon="8.72521738853619"><ele>84.0</ele><time>2026-05-01T13:19:26Z</time></trkpt><trkpt lat="42.5383217134107" lon="8.725268932220079"><ele>83.0</ele><time>2026-05-01T13:19:27Z</time></trkpt><trkpt lat="42.5382365798566" lon="8.725247165602452"><ele>82.0</ele><time>2026-05-01T13:19:28Z</time></trkpt><trkpt lat="42.538157688607015" lon="8.725195496757298"><ele>81.0</ele><time>2026-05-01T13:19:29Z</time></trkpt><trkpt lat="42.53810908549323" lon="8.725090950199105"><ele>81.0</ele><time>2026-05-01T13:19:30Z</time></trkpt><trkpt lat="42.538069455298476" lon="8.724987693150336"><ele>81.0</ele><time>2026-05-01T13:19:31Z</time></trkpt><trkpt lat="42.5380090308198" lon="8.724886780513629"><ele>81.0</ele><time>2026-05-01T13:19:32Z</time></trkpt><trkpt lat="42.537974423567384" lon="8.724768163274923"><ele>81.0</ele><time>2026-05-01T13:19:33Z</time></trkpt><trkpt lat="42.537930592748374" lon="8.724661554535842"><ele>81.0</ele><time>2026-05-01T13:19:34Z</time></trkpt><trkpt lat="42.537877741001196" lon="8.724555133193958"><ele>81.8</ele><time>2026-05-01T13:19:35Z</time></trkpt><trkpt lat="42.53782205666344" lon="8.724453134205204"><ele>82.6</ele><time>2026-05-01T13:19:36Z</time></trkpt><trkpt lat="42.5377584062859" lon="8.724357206765475"><ele>83.4</ele><time>2026-05-01T13:19:37Z</time></trkpt><trkpt lat="42.537682388835535" lon="8.724276082894518"><ele>84.2</ele><time>2026-05-01T13:19:38Z</time></trkpt><trkpt lat="42.537594371596164" lon="8.724212008178103"><ele>85.0</ele><time>2026-05-01T13:19:39Z</time></trkpt><trkpt lat="42.537504356224574" lon="8.724147231245281"><ele>85.0</ele><time>2026-05-01T13:19:40Z</time></trkpt><trkpt lat="42.53741059736468" lon="8.72408642263346"><ele>85.0</ele><time>2026-05-01T13:19:41Z</time></trkpt><trkpt lat="42.53731792332411" lon="8.72401639093619"><ele>85.0</ele><time>2026-05-01T13:19:42Z</time></trkpt><trkpt lat="42.537226587613915" lon="8.723944138473927"><ele>85.0</ele><time>2026-05-01T13:19:43Z</time></trkpt><trkpt lat="42.53715241063184" lon="8.723837273183495"><ele>85.0</ele><time>2026-05-01T13:19:44Z</time></trkpt><trkpt lat="42.53710104810147" lon="8.723711706741362"><ele>85.0</ele><time>2026-05-01T13:19:45Z</time></trkpt><trkpt lat="42.53705589357037" lon="8.723565633584519"><ele>85.0</ele><time>2026-05-01T13:19:46Z</time></trkpt><trkpt lat="42.53699721027633" lon="8.723417222599979"><ele>85.0</ele><time>2026-05-01T13:19:47Z</time></trkpt><trkpt lat="42.53694198699832" lon="8.723263179659584"><ele>85.0</ele><time>2026-05-01T13:19:48Z</time></trkpt><trkpt lat="42.53687935027933" lon="8.723112030232125"><ele>85.5</ele><time>2026-05-01T13:19:49Z</time></trkpt><trkpt lat="42.53682168954494" lon="8.722954103612315"><ele>86.0</ele><time>2026-05-01T13:19:50Z</time></trkpt><trkpt lat="42.53676046950436" lon="8.722808204552472"><ele>86.5</ele><time>2026-05-01T13:19:51Z</time></trkpt><trkpt lat="42.536669934750755" lon="8.722684374757963"><ele>87.0</ele><time>2026-05-01T13:19:52Z</time></trkpt><trkpt lat="42.53666350028422" lon="8.722510591206095"><ele>87.0</ele><time>2026-05-01T13:19:53Z</time></trkpt><trkpt lat="42.536677469081766" lon="8.722324042239304"><ele>87.0</ele><time>2026-05-01T13:19:54Z</time></trkpt><trkpt lat="42.53668281112627" lon="8.722141116649397"><ele>87.0</ele><time>2026-05-01T13:19:55Z</time></trkpt><trkpt lat="42.53668374808193" lon="8.721953117443906"><ele>87.0</ele><time>2026-05-01T13:19:56Z</time></trkpt><trkpt lat="42.53667982142296" lon="8.721759224056266"><ele>86.25</ele><time>2026-05-01T13:19:57Z</time></trkpt><trkpt lat="42.53667790895486" lon="8.721572727465599"><ele>85.5</ele><time>2026-05-01T13:19:58Z</time></trkpt><trkpt lat="42.53666518271485" lon="8.721395011736444"><ele>84.75</ele><time>2026-05-01T13:19:59Z</time></trkpt><trkpt lat="42.536635783817495" lon="8.721233601073443"><ele>84.0</ele><time>2026-05-01T13:20:00Z</time></trkpt><trkpt lat="42.536578441448206" lon="8.721106621134936"><ele>83.25</ele><time>2026-05-01T13:20:01Z</time></trkpt><trkpt lat="42.53649385136201" lon="8.721023454251311"><ele>82.5</ele><time>2026-05-01T13:20:02Z</time></trkpt><trkpt lat="42.53638549087541" lon="8.72099442917266"><ele>81.75</ele><time>2026-05-01T13:20:03Z</time></trkpt><trkpt lat="42.53625795645193" lon="8.720993546926728"><ele>81.0</ele><time>2026-05-01T13:20:04Z</time></trkpt><trkpt lat="42.536126785654496" lon="8.720997353309942"><ele>79.5</ele><time>2026-05-01T13:20:05Z</time></trkpt><trkpt lat="42.535988806450916" lon="8.721011648660273"><ele>78.0</ele><time>2026-05-01T13:20:06Z</time></trkpt><trkpt lat="42.535846600683215" lon="8.721048872648264"><ele>76.5</ele><time>2026-05-01T13:20:07Z</time></trkpt><trkpt lat="42.53570204505623" lon="8.721093456236114"><ele>75.0</ele><time>2026-05-01T13:20:08Z</time></trkpt><trkpt lat="42.535553882355245" lon="8.721129657261486"><ele>76.5</ele><time>2026-05-01T13:20:09Z</time></trkpt><trkpt lat="42.53541033146381" lon="8.721146547972971"><ele>78.0</ele><time>2026-05-01T13:20:10Z</time></trkpt><trkpt lat="42.53526663663674" lon="8.721121931436155"><ele>79.5</ele><time>2026-05-01T13:20:11Z</time></trkpt><trkpt lat="42.53513820487099" lon="8.721047957262059"><ele>81.0</ele><time>2026-05-01T13:20:12Z</time></trkpt><trkpt lat="42.53501736329144" lon="8.720937811098311"><ele>81.0</ele><time>2026-05-01T13:20:13Z</time></trkpt><trkpt lat="42.53490238629186" lon="8.72080458639287"><ele>81.0</ele><time>2026-05-01T13:20:14Z</time></trkpt><trkpt lat="42.534787015511554" lon="8.720665312416804"><ele>81.0</ele><time>2026-05-01T13:20:15Z</time></trkpt><trkpt lat="42.534663875542634" lon="8.720529926871498"><ele>79.0</ele><time>2026-05-01T13:20:16Z</time></trkpt><trkpt lat="42.534536828396135" lon="8.720396713573045"><ele>77.0</ele><time>2026-05-01T13:20:17Z</time></trkpt><trkpt lat="42.53441358022265" lon="8.720269647934495"><ele>75.0</ele><time>2026-05-01T13:20:18Z</time></trkpt><trkpt lat="42.5342953284814" lon="8.720142265648464"><ele>75.0</ele><time>2026-05-01T13:20:19Z</time></trkpt><trkpt lat="42.53417695153146" lon="8.72001395409154"><ele>75.0</ele><time>2026-05-01T13:20:20Z</time></trkpt><trkpt lat="42.53405705262586" lon="8.719882900491216"><ele>75.0</ele><time>2026-05-01T13:20:21Z</time></trkpt><trkpt lat="42.53393808448652" lon="8.719751193963804"><ele>75.0</ele><time>2026-05-01T13:20:22Z</time></trkpt><trkpt lat="42.53381304528424" lon="8.719621865353608"><ele>75.0</ele><time>2026-05-01T13:20:23Z</time></trkpt><trkpt lat="42.53368414535133" lon="8.719499285734924"><ele>75.0</ele><time>2026-05-01T13:20:24Z</time></trkpt><trkpt lat="42.53354775902264" lon="8.719385040282607"><ele>73.0</ele><time>2026-05-01T13:20:25Z</time></trkpt><trkpt lat="42.53340983327188" lon="8.71928344035278"><ele>71.0</ele><time>2026-05-01T13:20:26Z</time></trkpt><trkpt lat="42.5332728956902" lon="8.719175962508794"><ele>69.0</ele><time>2026-05-01T13:20:27Z</time></trkpt><trkpt lat="42.53314045652906" lon="8.719067492414545"><ele>69.0</ele><time>2026-05-01T13:20:28Z</time></trkpt><trkpt lat="42.53301386739901" lon="8.718964830823605"><ele>69.0</ele><time>2026-05-01T13:20:29Z</time></trkpt><trkpt lat="42.53289121339496" lon="8.718877230279297"><ele>69.0</ele><time>2026-05-01T13:20:30Z</time></trkpt><trkpt lat="42.53276716454764" lon="8.718806304372777"><ele>69.0</ele><time>2026-05-01T13:20:31Z</time></trkpt><trkpt lat="42.53264858382877" lon="8.718759448700403"><ele>71.25</ele><time>2026-05-01T13:20:32Z</time></trkpt><trkpt lat="42.532535304806814" lon="8.718750331866584"><ele>73.5</ele><time>2026-05-01T13:20:33Z</time></trkpt><trkpt lat="42.53242372342688" lon="8.718798301002524"><ele>75.75</ele><time>2026-05-01T13:20:34Z</time></trkpt><trkpt lat="42.53231472314794" lon="8.718884964743314"><ele>78.0</ele><time>2026-05-01T13:20:35Z</time></trkpt><trkpt lat="42.532205966780985" lon="8.71897854202602"><ele>78.0</ele><time>2026-05-01T13:20:36Z</time></trkpt><trkpt lat="42.53209023944617" lon="8.719061012363724"><ele>78.0</ele><time>2026-05-01T13:20:37Z</time></trkpt><trkpt lat="42.53197210825068" lon="8.71914230810958"><ele>78.0</ele><time>2026-05-01T13:20:38Z</time></trkpt><trkpt lat="42.53185387174135" lon="8.719223133772207"><ele>78.0</ele><time>2026-05-01T13:20:39Z</time></trkpt><trkpt lat="42.531745626926984" lon="8.719302945929957"><ele>79.0</ele><time>2026-05-01T13:20:40Z</time></trkpt><trkpt lat="42.53165635425227" lon="8.719397734148693"><ele>80.0</ele><time>2026-05-01T13:20:41Z</time></trkpt><trkpt lat="42.531586040751726" lon="8.719527764691685"><ele>81.0</ele><time>2026-05-01T13:20:42Z</time></trkpt><trkpt lat="42.53153068837831" lon="8.719685973196947"><ele>82.0</ele><time>2026-05-01T13:20:43Z</time></trkpt><trkpt lat="42.53147734579488" lon="8.719839375902625"><ele>82.0</ele><time>2026-05-01T13:20:44Z</time></trkpt><trkpt lat="42.53141402888031" lon="8.71998376853036"><ele>82.0</ele><time>2026-05-01T13:20:45Z</time></trkpt><trkpt lat="42.531338876225554" lon="8.720117676978802"><ele>82.0</ele><time>2026-05-01T13:20:46Z</time></trkpt><trkpt lat="42.53124165262843" lon="8.720234537597342"><ele>82.0</ele><time>2026-05-01T13:20:47Z</time></trkpt><trkpt lat="42.53112390700367" lon="8.720321604370987"><ele>82.25</ele><time>2026-05-01T13:20:48Z</time></trkpt><trkpt lat="42.530998983215895" lon="8.72039161658544"><ele>82.5</ele><time>2026-05-01T13:20:49Z</time></trkpt><trkpt lat="42.530867620760866" lon="8.72043444497426"><ele>82.75</ele><time>2026-05-01T13:20:50Z</time></trkpt><trkpt lat="42.530733366338474" lon="8.720449426977565"><ele>83.0</ele><time>2026-05-01T13:20:51Z</time></trkpt><trkpt lat="42.53059673186078" lon="8.720461467563272"><ele>83.0</ele><time>2026-05-01T13:20:52Z</time></trkpt><trkpt lat="42.530461067054915" lon="8.72048592426774"><ele>83.0</ele><time>2026-05-01T13:20:53Z</time></trkpt><trkpt lat="42.53032547854176" lon="8.720515736704822"><ele>83.0</ele><time>2026-05-01T13:20:54Z</time></trkpt><trkpt lat="42.53018845842199" lon="8.720541575076178"><ele>83.0</ele><time>2026-05-01T13:20:55Z</time></trkpt><trkpt lat="42.53004988358833" lon="8.720563769215733"><ele>80.5</ele><time>2026-05-01T13:20:56Z</time></trkpt><trkpt lat="42.52991234464963" lon="8.72059071431945"><ele>78.0</ele><time>2026-05-01T13:20:57Z</time></trkpt><trkpt lat="42.52977777056844" lon="8.720619071879977"><ele>75.5</ele><time>2026-05-01T13:20:58Z</time></trkpt><trkpt lat="42.52964770325661" lon="8.720644264003685"><ele>73.0</ele><time>2026-05-01T13:20:59Z</time></trkpt><trkpt lat="42.52952489281701" lon="8.720670575730162"><ele>69.6</ele><time>2026-05-01T13:21:00Z</time></trkpt><trkpt lat="42.52942135866404" lon="8.720721710868688"><ele>66.19999999999999</ele><time>2026-05-01T13:21:01Z</time></trkpt><trkpt lat="42.52934650103332" lon="8.720815673685696"><ele>62.8</ele><time>2026-05-01T13:21:02Z</time></trkpt><trkpt lat="42.529308968893226" lon="8.72094776862354"><ele>59.4</ele><time>2026-05-01T13:21:03Z</time></trkpt><trkpt lat="42.52930615961703" lon="8.721105881965839"><ele>56.0</ele><time>2026-05-01T13:21:04Z</time></trkpt><trkpt lat="42.52931927325537" lon="8.721276065644766"><ele>56.0</ele><time>2026-05-01T13:21:05Z</time></trkpt><trkpt lat="42.529333925408736" lon="8.72145191138082"><ele>56.0</ele><time>2026-05-01T13:21:06Z</time></trkpt><trkpt lat="42.52934708728259" lon="8.721634507677527"><ele>56.0</ele><time>2026-05-01T13:21:07Z</time></trkpt><trkpt lat="42.52936712359295" lon="8.721824022047748"><ele>56.0</ele><time>2026-05-01T13:21:08Z</time></trkpt><trkpt lat="42.529409307142764" lon="8.72200951614018"><ele>54.75</ele><time>2026-05-01T13:21:09Z</time></trkpt><trkpt lat="42.52946999999184" lon="8.72218919735811"><ele>53.5</ele><time>2026-05-01T13:21:10Z</time></trkpt><trkpt lat="42.529533093957006" lon="8.722373182372042"><ele>52.25</ele><time>2026-05-01T13:21:11Z</time></trkpt><trkpt lat="42.529595287136445" lon="8.722556844138438"><ele>51.0</ele><time>2026-05-01T13:21:12Z</time></trkpt><trkpt lat="42.52966035611205" lon="8.72274613879521"><ele>58.66666666666667</ele><time>2026-05-01T13:21:13Z</time></trkpt><trkpt lat="42.52971882207797" lon="8.722935995610236"><ele>66.33333333333334</ele><time>2026-05-01T13:21:14Z</time></trkpt><trkpt lat="42.52978068584005" lon="8.723126740769908"><ele>74.0</ele><time>2026-05-01T13:21:15Z</time></trkpt><trkpt lat="42.529842349253734" lon="8.723313507628253"><ele>74.0</ele><time>2026-05-01T13:21:16Z</time></trkpt><trkpt lat="42.52989842771742" lon="8.723490908794183"><ele>74.0</ele><time>2026-05-01T13:21:17Z</time></trkpt><trkpt lat="42.5299450408675" lon="8.72366869336927"><ele>74.0</ele><time>2026-05-01T13:21:18Z</time></trkpt><trkpt lat="42.52998074075006" lon="8.723855717860864"><ele>74.0</ele><time>2026-05-01T13:21:19Z</time></trkpt><trkpt lat="42.52999963520511" lon="8.724046561450464"><ele>72.75</ele><time>2026-05-01T13:21:20Z</time></trkpt><trkpt lat="42.53000494723699" lon="8.724241347656639"><ele>71.5</ele><time>2026-05-01T13:21:21Z</time></trkpt><trkpt lat="42.53001016633492" lon="8.72443697946041"><ele>70.25</ele><time>2026-05-01T13:21:22Z</time></trkpt><trkpt lat="42.53002436727492" lon="8.724629293454683"><ele>69.0</ele><time>2026-05-01T13:21:23Z</time></trkpt><trkpt lat="42.530050339864815" lon="8.724821590864785"><ele>67.5</ele><time>2026-05-01T13:21:24Z</time></trkpt><trkpt lat="42.53009108748077" lon="8.725007650057636"><ele>66.0</ele><time>2026-05-01T13:21:25Z</time></trkpt><trkpt lat="42.530145310719426" lon="8.725190393807319"><ele>64.5</ele><time>2026-05-01T13:21:26Z</time></trkpt><trkpt lat="42.530199907091365" lon="8.725367102912903"><ele>63.0</ele><time>2026-05-01T13:21:27Z</time></trkpt><trkpt lat="42.53024640074775" lon="8.725538744496223"><ele>62.75</ele><time>2026-05-01T13:21:28Z</time></trkpt><trkpt lat="42.53027355162028" lon="8.725707954343"><ele>62.5</ele><time>2026-05-01T13:21:29Z</time></trkpt><trkpt lat="42.530265807227096" lon="8.725864368623405"><ele>62.25</ele><time>2026-05-01T13:21:30Z</time></trkpt><trkpt lat="42.53020125350381" lon="8.725996180276617"><ele>62.0</ele><time>2026-05-01T13:21:31Z</time></trkpt><trkpt lat="42.53010894538141" lon="8.726109944289307"><ele>64.5</ele><time>2026-05-01T13:21:32Z</time></trkpt><trkpt lat="42.53002476047749" lon="8.726236877025116"><ele>67.0</ele><time>2026-05-01T13:21:33Z</time></trkpt><trkpt lat="42.529956534296716" lon="8.726373767375744"><ele>69.5</ele><time>2026-05-01T13:21:34Z</time></trkpt><trkpt lat="42.52988892936444" lon="8.726512716601672"><ele>72.0</ele><time>2026-05-01T13:21:35Z</time></trkpt><trkpt lat="42.529816491443555" lon="8.726654240572795"><ele>72.0</ele><time>2026-05-01T13:21:36Z</time></trkpt><trkpt lat="42.52974282274381" lon="8.726798749056405"><ele>72.0</ele><time>2026-05-01T13:21:37Z</time></trkpt><trkpt lat="42.52966886957229" lon="8.726948316958024"><ele>72.0</ele><time>2026-05-01T13:21:38Z</time></trkpt><trkpt lat="42.52959542033237" lon="8.727099003022303"><ele>72.0</ele><time>2026-05-01T13:21:39Z</time></trkpt><trkpt lat="42.52951762466857" lon="8.727247052499392"><ele>70.25</ele><time>2026-05-01T13:21:40Z</time></trkpt><trkpt lat="42.52942625439889" lon="8.727382599071731"><ele>68.5</ele><time>2026-05-01T13:21:41Z</time></trkpt><trkpt lat="42.52932105410412" lon="8.727497700990316"><ele>66.75</ele><time>2026-05-01T13:21:42Z</time></trkpt><trkpt lat="42.52919989019177" lon="8.727587089892024"><ele>65.0</ele><time>2026-05-01T13:21:43Z</time></trkpt><trkpt lat="42.52907026877378" lon="8.727660151965663"><ele>67.75</ele><time>2026-05-01T13:21:44Z</time></trkpt><trkpt lat="42.52894051320161" lon="8.727733211918153"><ele>70.5</ele><time>2026-05-01T13:21:45Z</time></trkpt><trkpt lat="42.52881496818561" lon="8.727814963960775"><ele>73.25</ele><time>2026-05-01T13:21:46Z</time></trkpt><trkpt lat="42.52869216657644" lon="8.72790367224244"><ele>76.0</ele><time>2026-05-01T13:21:47Z</time></trkpt><trkpt lat="42.52856893153154" lon="8.72799473631619"><ele>76.0</ele><time>2026-05-01T13:21:48Z</time></trkpt><trkpt lat="42.52844420422964" lon="8.728080584606307"><ele>76.0</ele><time>2026-05-01T13:21:49Z</time></trkpt><trkpt lat="42.52831703154192" lon="8.72816364671763"><ele>76.0</ele><time>2026-05-01T13:21:50Z</time></trkpt><trkpt lat="42.528190174141756" lon="8.728244224059882"><ele>76.0</ele><time>2026-05-01T13:21:51Z</time></trkpt><trkpt lat="42.528058846948255" lon="8.72832312384885"><ele>76.0</ele><time>2026-05-01T13:21:52Z</time></trkpt><trkpt lat="42.52792201806698" lon="8.728387504050371"><ele>76.0</ele><time>2026-05-01T13:21:53Z</time></trkpt><trkpt lat="42.52778059985963" lon="8.728434605091971"><ele>76.0</ele><time>2026-05-01T13:21:54Z</time></trkpt><trkpt lat="42.527640830997775" lon="8.728479530980819"><ele>76.0</ele><time>2026-05-01T13:21:55Z</time></trkpt><trkpt lat="42.52750141816748" lon="8.72853503254276"><ele>76.75</ele><time>2026-05-01T13:21:56Z</time></trkpt><trkpt lat="42.527362093157095" lon="8.728592249516424"><ele>77.5</ele><time>2026-05-01T13:21:57Z</time></trkpt><trkpt lat="42.52722389982656" lon="8.728647908488933"><ele>78.25</ele><time>2026-05-01T13:21:58Z</time></trkpt><trkpt lat="42.527083892592174" lon="8.728703400996068"><ele>79.0</ele><time>2026-05-01T13:21:59Z</time></trkpt><trkpt lat="42.52694558380378" lon="8.728754435798406"><ele>79.0</ele><time>2026-05-01T13:22:00Z</time></trkpt><trkpt lat="42.52680098834098" lon="8.72880595194621"><ele>79.0</ele><time>2026-05-01T13:22:01Z</time></trkpt><trkpt lat="42.52665349773679" lon="8.728850549988707"><ele>79.0</ele><time>2026-05-01T13:22:02Z</time></trkpt><trkpt lat="42.52650514921596" lon="8.728873910953151"><ele>79.0</ele><time>2026-05-01T13:22:03Z</time></trkpt><trkpt lat="42.52635430326535" lon="8.728873517903217"><ele>79.0</ele><time>2026-05-01T13:22:04Z</time></trkpt><trkpt lat="42.526204312996484" lon="8.728859176672252"><ele>79.0</ele><time>2026-05-01T13:22:05Z</time></trkpt><trkpt lat="42.526051282850496" lon="8.728846640239391"><ele>79.75</ele><time>2026-05-01T13:22:06Z</time></trkpt><trkpt lat="42.525901096426466" lon="8.728838379467351"><ele>80.5</ele><time>2026-05-01T13:22:07Z</time></trkpt><trkpt lat="42.52576193818259" lon="8.72883294230469"><ele>81.25</ele><time>2026-05-01T13:22:08Z</time></trkpt><trkpt lat="42.52562792255232" lon="8.728821927457771"><ele>82.0</ele><time>2026-05-01T13:22:09Z</time></trkpt><trkpt lat="42.525495371399344" lon="8.72880880577352"><ele>83.25</ele><time>2026-05-01T13:22:10Z</time></trkpt><trkpt lat="42.52537170006718" lon="8.728811877853676"><ele>84.5</ele><time>2026-05-01T13:22:11Z</time></trkpt><trkpt lat="42.525244000838136" lon="8.728819081841829"><ele>85.75</ele><time>2026-05-01T13:22:12Z</time></trkpt><trkpt lat="42.525121670357464" lon="8.728805658522258"><ele>87.0</ele><time>2026-05-01T13:22:13Z</time></trkpt><trkpt lat="42.52499842867865" lon="8.728747044199178"><ele>87.0</ele><time>2026-05-01T13:22:14Z</time></trkpt><trkpt lat="42.52488685956262" lon="8.728652923210214"><ele>87.0</ele><time>2026-05-01T13:22:15Z</time></trkpt><trkpt lat="42.524786590498096" lon="8.728544550971975"><ele>87.0</ele><time>2026-05-01T13:22:16Z</time></trkpt><trkpt lat="42.52470003979135" lon="8.728423317257047"><ele>87.0</ele><time>2026-05-01T13:22:17Z</time></trkpt><trkpt lat="42.524635300204054" lon="8.728278815266226"><ele>86.6</ele><time>2026-05-01T13:22:18Z</time></trkpt><trkpt lat="42.52461808130858" lon="8.728143591098426"><ele>86.19999999999999</ele><time>2026-05-01T13:22:19Z</time></trkpt><trkpt lat="42.52465186535197" lon="8.728034577276722"><ele>85.8</ele><time>2026-05-01T13:22:20Z</time></trkpt><trkpt lat="42.52471314796764" lon="8.727937699462851"><ele>85.4</ele><time>2026-05-01T13:22:21Z</time></trkpt><trkpt lat="42.52476779144125" lon="8.727833139491839"><ele>85.0</ele><time>2026-05-01T13:22:22Z</time></trkpt><trkpt lat="42.524787052314316" lon="8.727709645920326"><ele>85.0</ele><time>2026-05-01T13:22:23Z</time></trkpt><trkpt lat="42.52477761314827" lon="8.727560270205549"><ele>85.0</ele><time>2026-05-01T13:22:24Z</time></trkpt><trkpt lat="42.52473881577351" lon="8.727411059294042"><ele>85.0</ele><time>2026-05-01T13:22:25Z</time></trkpt><trkpt lat="42.524683168884565" lon="8.727272815932785"><ele>85.0</ele><time>2026-05-01T13:22:26Z</time></trkpt><trkpt lat="42.52460109076328" lon="8.727153846696467"><ele>85.5</ele><time>2026-05-01T13:22:27Z</time></trkpt><trkpt lat="42.52451895746392" lon="8.72704377985887"><ele>86.0</ele><time>2026-05-01T13:22:28Z</time></trkpt><trkpt lat="42.52443484920711" lon="8.726930118838101"><ele>86.5</ele><time>2026-05-01T13:22:29Z</time></trkpt><trkpt lat="42.52435145447078" lon="8.726814017491023"><ele>87.0</ele><time>2026-05-01T13:22:30Z</time></trkpt><trkpt lat="42.52426801544521" lon="8.726693834677352"><ele>85.25</ele><time>2026-05-01T13:22:31Z</time></trkpt><trkpt lat="42.52418463757112" lon="8.726571134910987"><ele>83.5</ele><time>2026-05-01T13:22:32Z</time></trkpt><trkpt lat="42.524112705207266" lon="8.726433328615931"><ele>81.75</ele><time>2026-05-01T13:22:33Z</time></trkpt><trkpt lat="42.52405095116872" lon="8.726283977281136"><ele>80.0</ele><time>2026-05-01T13:22:34Z</time></trkpt><trkpt lat="42.52399843576671" lon="8.726125494089365"><ele>77.5</ele><time>2026-05-01T13:22:35Z</time></trkpt><trkpt lat="42.523943774373976" lon="8.725963317048603"><ele>75.0</ele><time>2026-05-01T13:22:36Z</time></trkpt><trkpt lat="42.52388325253039" lon="8.725804680530864"><ele>72.5</ele><time>2026-05-01T13:22:37Z</time></trkpt><trkpt lat="42.52382459797387" lon="8.725650487456342"><ele>70.0</ele><time>2026-05-01T13:22:38Z</time></trkpt><trkpt lat="42.52376255963861" lon="8.725486852306172"><ele>73.0</ele><time>2026-05-01T13:22:39Z</time></trkpt><trkpt lat="42.523696371230535" lon="8.725315162592429"><ele>76.0</ele><time>2026-05-01T13:22:40Z</time></trkpt><trkpt lat="42.523632169624904" lon="8.725145662125124"><ele>79.0</ele><time>2026-05-01T13:22:41Z</time></trkpt><trkpt lat="42.523573377417364" lon="8.724984569392767"><ele>82.0</ele><time>2026-05-01T13:22:42Z</time></trkpt><trkpt lat="42.52351214294229" lon="8.72482704581986"><ele>82.0</ele><time>2026-05-01T13:22:43Z</time></trkpt><trkpt lat="42.52346329330874" lon="8.724677396602926"><ele>82.0</ele><time>2026-05-01T13:22:44Z</time></trkpt><trkpt lat="42.52345106632871" lon="8.724517975855624"><ele>82.0</ele><time>2026-05-01T13:22:45Z</time></trkpt><trkpt lat="42.52349086190368" lon="8.724361816678202"><ele>82.0</ele><time>2026-05-01T13:22:46Z</time></trkpt><trkpt lat="42.523554439078815" lon="8.724197681466025"><ele>80.75</ele><time>2026-05-01T13:22:47Z</time></trkpt><trkpt lat="42.52359736654596" lon="8.724027335937086"><ele>79.5</ele><time>2026-05-01T13:22:48Z</time></trkpt><trkpt lat="42.52360916426409" lon="8.723861921026634"><ele>78.25</ele><time>2026-05-01T13:22:49Z</time></trkpt><trkpt lat="42.52358807505003" lon="8.723691106878988"><ele>77.0</ele><time>2026-05-01T13:22:50Z</time></trkpt><trkpt lat="42.523533920788985" lon="8.72351776401428"><ele>74.33333333333334</ele><time>2026-05-01T13:22:51Z</time></trkpt><trkpt lat="42.5234696021866" lon="8.72333960285389"><ele>71.66666666666667</ele><time>2026-05-01T13:22:52Z</time></trkpt><trkpt lat="42.52339862103674" lon="8.723156553364941"><ele>69.0</ele><time>2026-05-01T13:22:53Z</time></trkpt><trkpt lat="42.52331755230222" lon="8.722978985898484"><ele>69.0</ele><time>2026-05-01T13:22:54Z</time></trkpt><trkpt lat="42.5232492171904" lon="8.72278098483535"><ele>69.0</ele><time>2026-05-01T13:22:55Z</time></trkpt><trkpt lat="42.52317298575171" lon="8.722585294758169"><ele>69.0</ele><time>2026-05-01T13:22:56Z</time></trkpt><trkpt lat="42.52309731841142" lon="8.722394510111231"><ele>65.33333333333333</ele><time>2026-05-01T13:22:57Z</time></trkpt><trkpt lat="42.523022311428115" lon="8.722216618158779"><ele>61.666666666666664</ele><time>2026-05-01T13:22:58Z</time></trkpt><trkpt lat="42.52294414459718" lon="8.722052048121492"><ele>58.0</ele><time>2026-05-01T13:22:59Z</time></trkpt><trkpt lat="42.52283410992607" lon="8.721890211635204"><ele>58.0</ele><time>2026-05-01T13:23:00Z</time></trkpt><trkpt lat="42.52270745055312" lon="8.721742656779051"><ele>58.0</ele><time>2026-05-01T13:23:01Z</time></trkpt><trkpt lat="42.522581753448165" lon="8.721594731172187"><ele>58.0</ele><time>2026-05-01T13:23:02Z</time></trkpt><trkpt lat="42.52246756317826" lon="8.721444933508078"><ele>58.0</ele><time>2026-05-01T13:23:03Z</time></trkpt><trkpt lat="42.5223562547132" lon="8.72129499903562"><ele>58.0</ele><time>2026-05-01T13:23:04Z</time></trkpt><trkpt lat="42.52225339371916" lon="8.721150874060342"><ele>58.0</ele><time>2026-05-01T13:23:05Z</time></trkpt><trkpt lat="42.52215465713087" lon="8.721021019258773"><ele>58.0</ele><time>2026-05-01T13:23:06Z</time></trkpt><trkpt lat="42.52205119556929" lon="8.720915257184734"><ele>56.0</ele><time>2026-05-01T13:23:07Z</time></trkpt><trkpt lat="42.52192391244234" lon="8.720847960881189"><ele>54.0</ele><time>2026-05-01T13:23:08Z</time></trkpt><trkpt lat="42.521778016747724" lon="8.720801460014705"><ele>52.0</ele><time>2026-05-01T13:23:09Z</time></trkpt><trkpt lat="42.52163184530711" lon="8.720762626572759"><ele>50.0</ele><time>2026-05-01T13:23:10Z</time></trkpt><trkpt lat="42.521492522413894" lon="8.720728233066124"><ele>50.0</ele><time>2026-05-01T13:23:11Z</time></trkpt><trkpt lat="42.52135054381131" lon="8.720713088060053"><ele>50.0</ele><time>2026-05-01T13:23:12Z</time></trkpt><trkpt lat="42.521209011419366" lon="8.720733781349754"><ele>50.0</ele><time>2026-05-01T13:23:13Z</time></trkpt><trkpt lat="42.52107042906538" lon="8.720783825985674"><ele>50.0</ele><time>2026-05-01T13:23:14Z</time></trkpt><trkpt lat="42.52093320717613" lon="8.720848510244627"><ele>49.5</ele><time>2026-05-01T13:23:15Z</time></trkpt><trkpt lat="42.52080427798111" lon="8.720903341222053"><ele>49.0</ele><time>2026-05-01T13:23:16Z</time></trkpt><trkpt lat="42.52067660210296" lon="8.720938035728592"><ele>48.5</ele><time>2026-05-01T13:23:17Z</time></trkpt><trkpt lat="42.520557374974565" lon="8.720916905165945"><ele>48.0</ele><time>2026-05-01T13:23:18Z</time></trkpt><trkpt lat="42.52042562433624" lon="8.720850225786824"><ele>48.0</ele><time>2026-05-01T13:23:19Z</time></trkpt><trkpt lat="42.52029668148846" lon="8.720786119008881"><ele>48.0</ele><time>2026-05-01T13:23:20Z</time></trkpt><trkpt lat="42.52016668238073" lon="8.72073133393017"><ele>48.0</ele><time>2026-05-01T13:23:21Z</time></trkpt><trkpt lat="42.52003873570453" lon="8.720680742741932"><ele>48.0</ele><time>2026-05-01T13:23:22Z</time></trkpt><trkpt lat="42.51991807032708" lon="8.720628570313922"><ele>48.0</ele><time>2026-05-01T13:23:23Z</time></trkpt><trkpt lat="42.51982156897031" lon="8.72057216850233"><ele>48.0</ele><time>2026-05-01T13:23:24Z</time></trkpt><trkpt lat="42.519767217567306" lon="8.720462155185114"><ele>48.0</ele><time>2026-05-01T13:23:25Z</time></trkpt><trkpt lat="42.5197587758378" lon="8.720334641828622"><ele>48.0</ele><time>2026-05-01T13:23:26Z</time></trkpt><trkpt lat="42.51978779164393" lon="8.720193537741595"><ele>48.0</ele><time>2026-05-01T13:23:27Z</time></trkpt><trkpt lat="42.5198410095292" lon="8.720048463741906"><ele>48.0</ele><time>2026-05-01T13:23:28Z</time></trkpt><trkpt lat="42.51990384503289" lon="8.719900802433944"><ele>48.0</ele><time>2026-05-01T13:23:29Z</time></trkpt><trkpt lat="42.519971723995575" lon="8.719749790017543"><ele>48.0</ele><time>2026-05-01T13:23:30Z</time></trkpt><trkpt lat="42.520034677851754" lon="8.719596983937839"><ele>48.0</ele><time>2026-05-01T13:23:31Z</time></trkpt><trkpt lat="42.52009883279075" lon="8.71943496278133"><ele>49.0</ele><time>2026-05-01T13:23:32Z</time></trkpt><trkpt lat="42.520163971950254" lon="8.71927267727117"><ele>50.0</ele><time>2026-05-01T13:23:33Z</time></trkpt><trkpt lat="42.520223605908285" lon="8.719114941420901"><ele>51.0</ele><time>2026-05-01T13:23:34Z</time></trkpt><trkpt lat="42.520286956005926" lon="8.718956710445827"><ele>52.0</ele><time>2026-05-01T13:23:35Z</time></trkpt><trkpt lat="42.520349556090316" lon="8.718795890446009"><ele>50.5</ele><time>2026-05-01T13:23:36Z</time></trkpt><trkpt lat="42.520417475337105" lon="8.718631756829346"><ele>49.0</ele><time>2026-05-01T13:23:37Z</time></trkpt><trkpt lat="42.52048466793188" lon="8.71846807029803"><ele>47.5</ele><time>2026-05-01T13:23:38Z</time></trkpt><trkpt lat="42.52054780367871" lon="8.71830267871284"><ele>46.0</ele><time>2026-05-01T13:23:39Z</time></trkpt><trkpt lat="42.52060906919392" lon="8.718141782992724"><ele>46.0</ele><time>2026-05-01T13:23:40Z</time></trkpt><trkpt lat="42.52067459269829" lon="8.717978985214348"><ele>46.0</ele><time>2026-05-01T13:23:41Z</time></trkpt><trkpt lat="42.52074266463807" lon="8.71782141303827"><ele>46.0</ele><time>2026-05-01T13:23:42Z</time></trkpt><trkpt lat="42.52082860533249" lon="8.717671891193222"><ele>46.0</ele><time>2026-05-01T13:23:43Z</time></trkpt><trkpt lat="42.52092394154134" lon="8.717530589203447"><ele>45.5</ele><time>2026-05-01T13:23:44Z</time></trkpt><trkpt lat="42.52102020071702" lon="8.71739526638385"><ele>45.0</ele><time>2026-05-01T13:23:45Z</time></trkpt><trkpt lat="42.52111989502193" lon="8.717260647611482"><ele>44.5</ele><time>2026-05-01T13:23:46Z</time></trkpt><trkpt lat="42.52121012928507" lon="8.717120794520707"><ele>44.0</ele><time>2026-05-01T13:23:47Z</time></trkpt><trkpt lat="42.521279460151774" lon="8.716957815198795"><ele>46.0</ele><time>2026-05-01T13:23:48Z</time></trkpt><trkpt lat="42.52132240913897" lon="8.716772712924074"><ele>48.0</ele><time>2026-05-01T13:23:49Z</time></trkpt><trkpt lat="42.52135696016079" lon="8.716583831161373"><ele>50.0</ele><time>2026-05-01T13:23:50Z</time></trkpt><trkpt lat="42.52140438745508" lon="8.71639488515354"><ele>52.0</ele><time>2026-05-01T13:23:51Z</time></trkpt><trkpt lat="42.52144932318353" lon="8.716208468660545"><ele>54.25</ele><time>2026-05-01T13:23:52Z</time></trkpt><trkpt lat="42.52149602568465" lon="8.716020833307152"><ele>56.5</ele><time>2026-05-01T13:23:53Z</time></trkpt><trkpt lat="42.5215431281306" lon="8.71583322287396"><ele>58.75</ele><time>2026-05-01T13:23:54Z</time></trkpt><trkpt lat="42.5215899273942" lon="8.715643836033577"><ele>61.0</ele><time>2026-05-01T13:23:55Z</time></trkpt><trkpt lat="42.52163739161606" lon="8.71546062639772"><ele>61.0</ele><time>2026-05-01T13:23:56Z</time></trkpt><trkpt lat="42.5216954934624" lon="8.71529124012934"><ele>61.0</ele><time>2026-05-01T13:23:57Z</time></trkpt><trkpt lat="42.5217842631753" lon="8.715158424030598"><ele>61.0</ele><time>2026-05-01T13:23:58Z</time></trkpt><trkpt lat="42.52190971426565" lon="8.71506399362348"><ele>61.0</ele><time>2026-05-01T13:23:59Z</time></trkpt><trkpt lat="42.52204510030359" lon="8.714987414060108"><ele>61.5</ele><time>2026-05-01T13:24:00Z</time></trkpt><trkpt lat="42.52217452345995" lon="8.714897702682055"><ele>62.0</ele><time>2026-05-01T13:24:01Z</time></trkpt><trkpt lat="42.522301921399254" lon="8.714802817749568"><ele>62.5</ele><time>2026-05-01T13:24:02Z</time></trkpt><trkpt lat="42.522437647887294" lon="8.714731358010463"><ele>63.0</ele><time>2026-05-01T13:24:03Z</time></trkpt><trkpt lat="42.522578422259635" lon="8.714692374227594"><ele>63.0</ele><time>2026-05-01T13:24:04Z</time></trkpt><trkpt lat="42.52272379686496" lon="8.714664558780159"><ele>63.0</ele><time>2026-05-01T13:24:05Z</time></trkpt><trkpt lat="42.522864949365314" lon="8.714616798607429"><ele>63.0</ele><time>2026-05-01T13:24:06Z</time></trkpt><trkpt lat="42.52298598997374" lon="8.714524148556617"><ele>63.0</ele><time>2026-05-01T13:24:07Z</time></trkpt><trkpt lat="42.52309141553495" lon="8.71438402094212"><ele>64.0</ele><time>2026-05-01T13:24:08Z</time></trkpt><trkpt lat="42.52316963548949" lon="8.71421785931196"><ele>65.0</ele><time>2026-05-01T13:24:09Z</time></trkpt><trkpt lat="42.523222110708105" lon="8.714031699231827"><ele>66.0</ele><time>2026-05-01T13:24:10Z</time></trkpt><trkpt lat="42.52324856915947" lon="8.71383427276596"><ele>67.0</ele><time>2026-05-01T13:24:11Z</time></trkpt><trkpt lat="42.52326578330997" lon="8.713624938962285"><ele>68.33333333333333</ele><time>2026-05-01T13:24:12Z</time></trkpt><trkpt lat="42.5232779039144" lon="8.713414428941395"><ele>69.66666666666667</ele><time>2026-05-01T13:24:13Z</time></trkpt><trkpt lat="42.52327487196446" lon="8.713197432979143"><ele>71.0</ele><time>2026-05-01T13:24:14Z</time></trkpt><trkpt lat="42.52326433623101" lon="8.712988554185015"><ele>71.0</ele><time>2026-05-01T13:24:15Z</time></trkpt><trkpt lat="42.52324917928242" lon="8.712792513405878"><ele>71.0</ele><time>2026-05-01T13:24:16Z</time></trkpt><trkpt lat="42.52322367677864" lon="8.712616938931635"><ele>71.0</ele><time>2026-05-01T13:24:17Z</time></trkpt><trkpt lat="42.52316684534628" lon="8.712463837051905"><ele>71.0</ele><time>2026-05-01T13:24:18Z</time></trkpt><trkpt lat="42.52307081046661" lon="8.712313479171947"><ele>70.25</ele><time>2026-05-01T13:24:19Z</time></trkpt><trkpt lat="42.522954157174226" lon="8.712215032881572"><ele>69.5</ele><time>2026-05-01T13:24:20Z</time></trkpt><trkpt lat="42.522814362094266" lon="8.71214665549484"><ele>68.75</ele><time>2026-05-01T13:24:21Z</time></trkpt><trkpt lat="42.522667314013276" lon="8.712130394858491"><ele>68.0</ele><time>2026-05-01T13:24:22Z</time></trkpt><trkpt lat="42.522520095697224" lon="8.712147779982166"><ele>74.0</ele><time>2026-05-01T13:24:23Z</time></trkpt><trkpt lat="42.52236932939192" lon="8.712187033932338"><ele>80.0</ele><time>2026-05-01T13:24:24Z</time></trkpt><trkpt lat="42.52222078190926" lon="8.712240547429577"><ele>86.0</ele><time>2026-05-01T13:24:25Z</time></trkpt><trkpt lat="42.522079702560255" lon="8.712293635194289"><ele>87.0</ele><time>2026-05-01T13:24:26Z</time></trkpt><trkpt lat="42.52193120008063" lon="8.712331025099171"><ele>88.0</ele><time>2026-05-01T13:24:27Z</time></trkpt><trkpt lat="42.52179625392812" lon="8.71237320615513"><ele>89.0</ele><time>2026-05-01T13:24:28Z</time></trkpt><trkpt lat="42.52165855253286" lon="8.712392935473547"><ele>90.0</ele><time>2026-05-01T13:24:29Z</time></trkpt><trkpt lat="42.521523513771825" lon="8.712370180287913"><ele>90.0</ele><time>2026-05-01T13:24:30Z</time></trkpt><trkpt lat="42.52140551915632" lon="8.712279773112655"><ele>90.0</ele><time>2026-05-01T13:24:31Z</time></trkpt><trkpt lat="42.521309940600226" lon="8.712140920631448"><ele>90.0</ele><time>2026-05-01T13:24:32Z</time></trkpt><trkpt lat="42.52123296342693" lon="8.711979993763812"><ele>90.0</ele><time>2026-05-01T13:24:33Z</time></trkpt><trkpt lat="42.521143931897726" lon="8.711834922885885"><ele>90.25</ele><time>2026-05-01T13:24:34Z</time></trkpt><trkpt lat="42.52103170582221" lon="8.711708686122941"><ele>90.5</ele><time>2026-05-01T13:24:35Z</time></trkpt><trkpt lat="42.520908160173725" lon="8.711603452217972"><ele>90.75</ele><time>2026-05-01T13:24:36Z</time></trkpt><trkpt lat="42.5207731711836" lon="8.711495881248347"><ele>91.0</ele><time>2026-05-01T13:24:37Z</time></trkpt><trkpt lat="42.520641428460884" lon="8.711384154585778"><ele>91.0</ele><time>2026-05-01T13:24:38Z</time></trkpt><trkpt lat="42.52050932036736" lon="8.711263425271838"><ele>91.0</ele><time>2026-05-01T13:24:39Z</time></trkpt><trkpt lat="42.5203819836658" lon="8.711144940081844"><ele>91.0</ele><time>2026-05-01T13:24:40Z</time></trkpt><trkpt lat="42.52026211484445" lon="8.711006029041137"><ele>92.66666666666666</ele><time>2026-05-01T13:24:41Z</time></trkpt><trkpt lat="42.52016468789874" lon="8.710831886509679"><ele>94.33333333333333</ele><time>2026-05-01T13:24:42Z</time></trkpt><trkpt lat="42.520074012432914" lon="8.710652677348142"><ele>96.0</ele><time>2026-05-01T13:24:43Z</time></trkpt><trkpt lat="42.5199873732523" lon="8.710458153126055"><ele>96.0</ele><time>2026-05-01T13:24:44Z</time></trkpt><trkpt lat="42.51989148594347" lon="8.710269858306336"><ele>96.0</ele><time>2026-05-01T13:24:45Z</time></trkpt><trkpt lat="42.51978866887054" lon="8.710095707764694"><ele>96.0</ele><time>2026-05-01T13:24:46Z</time></trkpt><trkpt lat="42.51968074225892" lon="8.709929208968646"><ele>96.25</ele><time>2026-05-01T13:24:47Z</time></trkpt><trkpt lat="42.51958264029903" lon="8.709768746065043"><ele>96.5</ele><time>2026-05-01T13:24:48Z</time></trkpt><trkpt lat="42.519477262916205" lon="8.709621439592704"><ele>96.75</ele><time>2026-05-01T13:24:49Z</time></trkpt><trkpt lat="42.51936689693051" lon="8.709503645441982"><ele>97.0</ele><time>2026-05-01T13:24:50Z</time></trkpt><trkpt lat="42.51925676998285" lon="8.70940164785045"><ele>97.0</ele><time>2026-05-01T13:24:51Z</time></trkpt><trkpt lat="42.51918312743945" lon="8.709296278779524"><ele>97.0</ele><time>2026-05-01T13:24:52Z</time></trkpt><trkpt lat="42.519147303785154" lon="8.70917743735376"><ele>97.0</ele><time>2026-05-01T13:24:53Z</time></trkpt><trkpt lat="42.51916068730409" lon="8.709050898961662"><ele>97.0</ele><time>2026-05-01T13:24:54Z</time></trkpt><trkpt lat="42.51921788746838" lon="8.70891986153353"><ele>97.0</ele><time>2026-05-01T13:24:55Z</time></trkpt><trkpt lat="42.51929581802558" lon="8.708781761294475"><ele>97.0</ele><time>2026-05-01T13:24:56Z</time></trkpt><trkpt lat="42.519359720910714" lon="8.708628094712692"><ele>97.0</ele><time>2026-05-01T13:24:57Z</time></trkpt><trkpt lat="42.519393277668264" lon="8.708463810082366"><ele>97.0</ele><time>2026-05-01T13:24:58Z</time></trkpt><trkpt lat="42.519395430973326" lon="8.708285225279692"><ele>97.0</ele><time>2026-05-01T13:24:59Z</time></trkpt><trkpt lat="42.51936212484924" lon="8.708106688563914"><ele>96.5</ele><time>2026-05-01T13:25:00Z</time></trkpt><trkpt lat="42.51930210727172" lon="8.70793318216187"><ele>96.0</ele><time>2026-05-01T13:25:01Z</time></trkpt><trkpt lat="42.51921562742637" lon="8.70777536005336"><ele>95.5</ele><time>2026-05-01T13:25:02Z</time></trkpt><trkpt lat="42.51911795689113" lon="8.707623319835895"><ele>95.0</ele><time>2026-05-01T13:25:03Z</time></trkpt><trkpt lat="42.51902657901946" lon="8.707473273746707"><ele>92.0</ele><time>2026-05-01T13:25:04Z</time></trkpt><trkpt lat="42.51894498208401" lon="8.707338187513042"><ele>89.0</ele><time>2026-05-01T13:25:05Z</time></trkpt><trkpt lat="42.518853324015254" lon="8.707247146912117"><ele>86.0</ele><time>2026-05-01T13:25:06Z</time></trkpt><trkpt lat="42.51873458488064" lon="8.707206641581802"><ele>83.0</ele><time>2026-05-01T13:25:07Z</time></trkpt><trkpt lat="42.518605111227735" lon="8.707168902819838"><ele>85.5</ele><time>2026-05-01T13:25:08Z</time></trkpt><trkpt lat="42.518491098837096" lon="8.707079181099743"><ele>88.0</ele><time>2026-05-01T13:25:09Z</time></trkpt><trkpt lat="42.51839653867272" lon="8.70694271062847"><ele>90.5</ele><time>2026-05-01T13:25:10Z</time></trkpt><trkpt lat="42.51831305833987" lon="8.706785051166314"><ele>93.0</ele><time>2026-05-01T13:25:11Z</time></trkpt><trkpt lat="42.51826109716222" lon="8.706603540453603"><ele>93.0</ele><time>2026-05-01T13:25:12Z</time></trkpt><trkpt lat="42.51822692437553" lon="8.70641947293408"><ele>93.0</ele><time>2026-05-01T13:25:13Z</time></trkpt><trkpt lat="42.518194782027585" lon="8.70624839492852"><ele>93.0</ele><time>2026-05-01T13:25:14Z</time></trkpt><trkpt lat="42.51816175912833" lon="8.706098293503958"><ele>93.0</ele><time>2026-05-01T13:25:15Z</time></trkpt><trkpt lat="42.51813168638741" lon="8.70596512287986"><ele>93.16666666666667</ele><time>2026-05-01T13:25:16Z</time></trkpt><trkpt lat="42.51812832881545" lon="8.705856345325087"><ele>93.33333333333333</ele><time>2026-05-01T13:25:17Z</time></trkpt><trkpt lat="42.5181640991113" lon="8.705770776177818"><ele>93.5</ele><time>2026-05-01T13:25:18Z</time></trkpt><trkpt lat="42.51822896438196" lon="8.705726590548782"><ele>93.66666666666666</ele><time>2026-05-01T13:25:19Z</time></trkpt><trkpt lat="42.51832081887915" lon="8.705710747150281"><ele>93.83333333333333</ele><time>2026-05-01T13:25:20Z</time></trkpt><trkpt lat="42.51842011289775" lon="8.705751991258952"><ele>94.0</ele><time>2026-05-01T13:25:21Z</time></trkpt><trkpt lat="42.51851609614952" lon="8.70583327002678"><ele>94.0</ele><time>2026-05-01T13:25:22Z</time></trkpt><trkpt lat="42.518614840767384" lon="8.705910784824113"><ele>94.0</ele><time>2026-05-01T13:25:23Z</time></trkpt><trkpt lat="42.518720061964515" lon="8.70593648210781"><ele>94.0</ele><time>2026-05-01T13:25:24Z</time></trkpt><trkpt lat="42.5188410935092" lon="8.70591237400457"><ele>94.0</ele><time>2026-05-01T13:25:25Z</time></trkpt><trkpt lat="42.51896444551744" lon="8.705844599596883"><ele>92.75</ele><time>2026-05-01T13:25:26Z</time></trkpt><trkpt lat="42.519087039178494" lon="8.705758689476285"><ele>91.5</ele><time>2026-05-01T13:25:27Z</time></trkpt><trkpt lat="42.51921557476982" lon="8.705679725625163"><ele>90.25</ele><time>2026-05-01T13:25:28Z</time></trkpt><trkpt lat="42.51935062760104" lon="8.705615088759176"><ele>89.0</ele><time>2026-05-01T13:25:29Z</time></trkpt><trkpt lat="42.51948691488218" lon="8.705579494172538"><ele>88.5</ele><time>2026-05-01T13:25:30Z</time></trkpt><trkpt lat="42.51962936130189" lon="8.705577599631763"><ele>88.0</ele><time>2026-05-01T13:25:31Z</time></trkpt><trkpt lat="42.519773290705295" lon="8.705600626964001"><ele>87.5</ele><time>2026-05-01T13:25:32Z</time></trkpt><trkpt lat="42.51991600000639" lon="8.705625192662882"><ele>87.0</ele><time>2026-05-01T13:25:33Z</time></trkpt><trkpt lat="42.52006316005448" lon="8.705641158478985"><ele>87.0</ele><time>2026-05-01T13:25:34Z</time></trkpt><trkpt lat="42.52021336998177" lon="8.705649312200762"><ele>87.0</ele><time>2026-05-01T13:25:35Z</time></trkpt><trkpt lat="42.520365363819955" lon="8.70564952650454"><ele>87.0</ele><time>2026-05-01T13:25:36Z</time></trkpt><trkpt lat="42.52051910585247" lon="8.705631115237432"><ele>86.33333333333333</ele><time>2026-05-01T13:25:37Z</time></trkpt><trkpt lat="42.52067277970421" lon="8.705589743571592"><ele>85.66666666666666</ele><time>2026-05-01T13:25:38Z</time></trkpt><trkpt lat="42.52082256266945" lon="8.705530442521553"><ele>85.0</ele><time>2026-05-01T13:25:39Z</time></trkpt><trkpt lat="42.520962641919375" lon="8.705465830490281"><ele>85.0</ele><time>2026-05-01T13:25:40Z</time></trkpt><trkpt lat="42.521088883246414" lon="8.705386353986384"><ele>85.0</ele><time>2026-05-01T13:25:41Z</time></trkpt><trkpt lat="42.521189148764506" lon="8.70527384629578"><ele>85.0</ele><time>2026-05-01T13:25:42Z</time></trkpt><trkpt lat="42.52125589402118" lon="8.705121067290529"><ele>85.0</ele><time>2026-05-01T13:25:43Z</time></trkpt><trkpt lat="42.52130946367974" lon="8.704947754025396"><ele>84.25</ele><time>2026-05-01T13:25:44Z</time></trkpt><trkpt lat="42.5213754693711" lon="8.704776153064248"><ele>83.5</ele><time>2026-05-01T13:25:45Z</time></trkpt><trkpt lat="42.52145409421333" lon="8.704607026205244"><ele>82.75</ele><time>2026-05-01T13:25:46Z</time></trkpt><trkpt lat="42.52152895854886" lon="8.70443644506505"><ele>82.0</ele><time>2026-05-01T13:25:47Z</time></trkpt><trkpt lat="42.5216019964452" lon="8.704267330498613"><ele>86.5</ele><time>2026-05-01T13:25:48Z</time></trkpt><trkpt lat="42.521687599157275" lon="8.70410900830591"><ele>91.0</ele><time>2026-05-01T13:25:49Z</time></trkpt><trkpt lat="42.5217879427707" lon="8.70396119284587"><ele>95.5</ele><time>2026-05-01T13:25:50Z</time></trkpt><trkpt lat="42.52189912288348" lon="8.703826144035663"><ele>100.0</ele><time>2026-05-01T13:25:51Z</time></trkpt><trkpt lat="42.522017772834424" lon="8.703702305202654"><ele>98.33333333333334</ele><time>2026-05-01T13:25:52Z</time></trkpt><trkpt lat="42.52213361397585" lon="8.703577426341734"><ele>96.66666666666667</ele><time>2026-05-01T13:25:53Z</time></trkpt><trkpt lat="42.522252474239146" lon="8.703448097276018"><ele>95.0</ele><time>2026-05-01T13:25:54Z</time></trkpt><trkpt lat="42.52237129801042" lon="8.703322000400803"><ele>95.0</ele><time>2026-05-01T13:25:55Z</time></trkpt><trkpt lat="42.522490647652624" lon="8.703209332813492"><ele>95.0</ele><time>2026-05-01T13:25:56Z</time></trkpt><trkpt lat="42.522604649974326" lon="8.703107916926816"><ele>95.0</ele><time>2026-05-01T13:25:57Z</time></trkpt><trkpt lat="42.52270705940685" lon="8.703002216344592"><ele>95.0</ele><time>2026-05-01T13:25:58Z</time></trkpt><trkpt lat="42.52278721355137" lon="8.702868341688356"><ele>98.25</ele><time>2026-05-01T13:25:59Z</time></trkpt><trkpt lat="42.5228340196901" lon="8.702697429579157"><ele>101.5</ele><time>2026-05-01T13:26:00Z</time></trkpt><trkpt lat="42.52285448491741" lon="8.702509958646564"><ele>104.75</ele><time>2026-05-01T13:26:01Z</time></trkpt><trkpt lat="42.5228457423504" lon="8.702314149828636"><ele>108.0</ele><time>2026-05-01T13:26:02Z</time></trkpt><trkpt lat="42.5228075617175" lon="8.702129395239139"><ele>108.0</ele><time>2026-05-01T13:26:03Z</time></trkpt><trkpt lat="42.52274804818196" lon="8.70194664197796"><ele>108.0</ele><time>2026-05-01T13:26:04Z</time></trkpt><trkpt lat="42.522677960849066" lon="8.70177508614003"><ele>108.0</ele><time>2026-05-01T13:26:05Z</time></trkpt><trkpt lat="42.52259276312436" lon="8.701624352847306"><ele>108.0</ele><time>2026-05-01T13:26:06Z</time></trkpt><trkpt lat="42.52248479182535" lon="8.701507845669111"><ele>105.5</ele><time>2026-05-01T13:26:07Z</time></trkpt><trkpt lat="42.522359283776396" lon="8.701407181100123"><ele>103.0</ele><time>2026-05-01T13:26:08Z</time></trkpt><trkpt lat="42.522223997139335" lon="8.701326994012332"><ele>100.5</ele><time>2026-05-01T13:26:09Z</time></trkpt><trkpt lat="42.52208019403826" lon="8.701263258633084"><ele>98.0</ele><time>2026-05-01T13:26:10Z</time></trkpt><trkpt lat="42.52194074845941" lon="8.70120542482114"><ele>97.75</ele><time>2026-05-01T13:26:11Z</time></trkpt><trkpt lat="42.52180013439422" lon="8.701138199726037"><ele>97.5</ele><time>2026-05-01T13:26:12Z</time></trkpt><trkpt lat="42.52166341555199" lon="8.701065670618735"><ele>97.25</ele><time>2026-05-01T13:26:13Z</time></trkpt><trkpt lat="42.52153758062534" lon="8.700978138883888"><ele>97.0</ele><time>2026-05-01T13:26:14Z</time></trkpt><trkpt lat="42.52141926305832" lon="8.70086924342673"><ele>97.0</ele><time>2026-05-01T13:26:15Z</time></trkpt><trkpt lat="42.52131039618276" lon="8.70074300775827"><ele>97.0</ele><time>2026-05-01T13:26:16Z</time></trkpt><trkpt lat="42.521206596325364" lon="8.700609683389041"><ele>97.0</ele><time>2026-05-01T13:26:17Z</time></trkpt><trkpt lat="42.52109765424426" lon="8.70048166496994"><ele>97.0</ele><time>2026-05-01T13:26:18Z</time></trkpt><trkpt lat="42.520982387435595" lon="8.700359071590107"><ele>97.25</ele><time>2026-05-01T13:26:19Z</time></trkpt><trkpt lat="42.52086991666794" lon="8.700236466667263"><ele>97.5</ele><time>2026-05-01T13:26:20Z</time></trkpt><trkpt lat="42.52075236470926" lon="8.700103087202928"><ele>97.75</ele><time>2026-05-01T13:26:21Z</time></trkpt><trkpt lat="42.52063974863435" lon="8.699979643773633"><ele>98.0</ele><time>2026-05-01T13:26:22Z</time></trkpt><trkpt lat="42.52051853577556" lon="8.69987186089721"><ele>100.0</ele><time>2026-05-01T13:26:23Z</time></trkpt><trkpt lat="42.52039615952151" lon="8.699769620752296"><ele>102.0</ele><time>2026-05-01T13:26:24Z</time></trkpt><trkpt lat="42.520283792167184" lon="8.699651669789956"><ele>104.0</ele><time>2026-05-01T13:26:25Z</time></trkpt><trkpt lat="42.520194533815314" lon="8.699507414128137"><ele>106.0</ele><time>2026-05-01T13:26:26Z</time></trkpt><trkpt lat="42.52011531097041" lon="8.699340077954194"><ele>106.0</ele><time>2026-05-01T13:26:27Z</time></trkpt><trkpt lat="42.52002838052918" lon="8.699178832662659"><ele>106.0</ele><time>2026-05-01T13:26:28Z</time></trkpt><trkpt lat="42.51992389306626" lon="8.699039973479046"><ele>106.0</ele><time>2026-05-01T13:26:29Z</time></trkpt><trkpt lat="42.51980727056779" lon="8.69892536898441"><ele>106.0</ele><time>2026-05-01T13:26:30Z</time></trkpt><trkpt lat="42.51968797611939" lon="8.698815433786077"><ele>106.0</ele><time>2026-05-01T13:26:31Z</time></trkpt><trkpt lat="42.519577295996946" lon="8.698694717724496"><ele>106.0</ele><time>2026-05-01T13:26:32Z</time></trkpt><trkpt lat="42.51948300809155" lon="8.698553261401225"><ele>106.0</ele><time>2026-05-01T13:26:33Z</time></trkpt><trkpt lat="42.51940703586682" lon="8.698396750212899"><ele>106.0</ele><time>2026-05-01T13:26:34Z</time></trkpt><trkpt lat="42.51934948556145" lon="8.698214808268716"><ele>106.0</ele><time>2026-05-01T13:26:35Z</time></trkpt><trkpt lat="42.51929985803516" lon="8.698024968833247"><ele>106.0</ele><time>2026-05-01T13:26:36Z</time></trkpt><trkpt lat="42.51923446479546" lon="8.697838661511717"><ele>106.0</ele><time>2026-05-01T13:26:37Z</time></trkpt><trkpt lat="42.5191539102302" lon="8.697663440552539"><ele>106.0</ele><time>2026-05-01T13:26:38Z</time></trkpt><trkpt lat="42.5190711030118" lon="8.697489559549851"><ele>106.0</ele><time>2026-05-01T13:26:39Z</time></trkpt><trkpt lat="42.518986464006545" lon="8.697313492118266"><ele>106.0</ele><time>2026-05-01T13:26:40Z</time></trkpt><trkpt lat="42.5189137316239" lon="8.697147803655179"><ele>106.0</ele><time>2026-05-01T13:26:41Z</time></trkpt><trkpt lat="42.518842949120206" lon="8.696990559651406"><ele>106.0</ele><time>2026-05-01T13:26:42Z</time></trkpt><trkpt lat="42.51876439699771" lon="8.696866870763824"><ele>106.0</ele><time>2026-05-01T13:26:43Z</time></trkpt><trkpt lat="42.518656652725994" lon="8.69676994533659"><ele>106.0</ele><time>2026-05-01T13:26:44Z</time></trkpt><trkpt lat="42.51854931246058" lon="8.696694565139358"><ele>109.0</ele><time>2026-05-01T13:26:45Z</time></trkpt><trkpt lat="42.51846966871678" lon="8.696604660237654"><ele>112.0</ele><time>2026-05-01T13:26:46Z</time></trkpt><trkpt lat="42.518425023651" lon="8.696479958180204"><ele>115.0</ele><time>2026-05-01T13:26:47Z</time></trkpt><trkpt lat="42.51841325725628" lon="8.696332619489121"><ele>118.0</ele><time>2026-05-01T13:26:48Z</time></trkpt><trkpt lat="42.518421458925964" lon="8.696176106856948"><ele>121.0</ele><time>2026-05-01T13:26:49Z</time></trkpt><trkpt lat="42.518434782942215" lon="8.696003239603241"><ele>121.0</ele><time>2026-05-01T13:26:50Z</time></trkpt><trkpt lat="42.51844023548983" lon="8.695833772169966"><ele>121.0</ele><time>2026-05-01T13:26:51Z</time></trkpt><trkpt lat="42.51844177848561" lon="8.695651453907738"><ele>121.0</ele><time>2026-05-01T13:26:52Z</time></trkpt><trkpt lat="42.51844035228421" lon="8.695465744933797"><ele>121.0</ele><time>2026-05-01T13:26:53Z</time></trkpt><trkpt lat="42.51844460795725" lon="8.695279224889942"><ele>120.5</ele><time>2026-05-01T13:26:54Z</time></trkpt><trkpt lat="42.51844822256451" lon="8.695089985884476"><ele>120.0</ele><time>2026-05-01T13:26:55Z</time></trkpt><trkpt lat="42.51844516435612" lon="8.694898153612286"><ele>119.5</ele><time>2026-05-01T13:26:56Z</time></trkpt><trkpt lat="42.51843602352637" lon="8.69470135634112"><ele>119.0</ele><time>2026-05-01T13:26:57Z</time></trkpt><trkpt lat="42.518430800521934" lon="8.694505295171043"><ele>118.5</ele><time>2026-05-01T13:26:58Z</time></trkpt><trkpt lat="42.51841519990411" lon="8.694311769089149"><ele>118.0</ele><time>2026-05-01T13:26:59Z</time></trkpt><trkpt lat="42.51838612011511" lon="8.69411779875322"><ele>117.5</ele><time>2026-05-01T13:27:00Z</time></trkpt><trkpt lat="42.51834465145322" lon="8.693924313154737"><ele>117.0</ele><time>2026-05-01T13:27:01Z</time></trkpt><trkpt lat="42.51830356031468" lon="8.693733196473373"><ele>114.25</ele><time>2026-05-01T13:27:02Z</time></trkpt><trkpt lat="42.518262359172624" lon="8.693549182019144"><ele>111.5</ele><time>2026-05-01T13:27:03Z</time></trkpt><trkpt lat="42.518210534211875" lon="8.693363104111926"><ele>108.75</ele><time>2026-05-01T13:27:04Z</time></trkpt><trkpt lat="42.518149599276214" lon="8.693176084087826"><ele>106.0</ele><time>2026-05-01T13:27:05Z</time></trkpt><trkpt lat="42.518087485565495" lon="8.692991701605955"><ele>106.0</ele><time>2026-05-01T13:27:06Z</time></trkpt><trkpt lat="42.518025134200855" lon="8.692805866934957"><ele>106.0</ele><time>2026-05-01T13:27:07Z</time></trkpt><trkpt lat="42.51795297199759" lon="8.69262446236948"><ele>106.0</ele><time>2026-05-01T13:27:08Z</time></trkpt><trkpt lat="42.51787190851247" lon="8.692456991737766"><ele>109.0</ele><time>2026-05-01T13:27:09Z</time></trkpt><trkpt lat="42.51779135240016" lon="8.692286515274816"><ele>112.0</ele><time>2026-05-01T13:27:10Z</time></trkpt><trkpt lat="42.51771125687738" lon="8.692116461358317"><ele>115.0</ele><time>2026-05-01T13:27:11Z</time></trkpt><trkpt lat="42.51763605625145" lon="8.69193966071494"><ele>118.0</ele><time>2026-05-01T13:27:12Z</time></trkpt><trkpt lat="42.517571188813065" lon="8.691760455626403"><ele>118.0</ele><time>2026-05-01T13:27:13Z</time></trkpt><trkpt lat="42.517508459183304" lon="8.691584274319647"><ele>118.0</ele><time>2026-05-01T13:27:14Z</time></trkpt><trkpt lat="42.51744309479583" lon="8.691414183809439"><ele>118.0</ele><time>2026-05-01T13:27:15Z</time></trkpt><trkpt lat="42.51737955440303" lon="8.691252785893893"><ele>118.0</ele><time>2026-05-01T13:27:16Z</time></trkpt><trkpt lat="42.51730544808036" lon="8.691111360656151"><ele>116.75</ele><time>2026-05-01T13:27:17Z</time></trkpt><trkpt lat="42.517218749788086" lon="8.69099969159962"><ele>115.5</ele><time>2026-05-01T13:27:18Z</time></trkpt><trkpt lat="42.51711513143299" lon="8.690925664745581"><ele>114.25</ele><time>2026-05-01T13:27:19Z</time></trkpt><trkpt lat="42.51699353309815" lon="8.690894319430537"><ele>113.0</ele><time>2026-05-01T13:27:20Z</time></trkpt><trkpt lat="42.51686232530235" lon="8.69090877355616"><ele>113.0</ele><time>2026-05-01T13:27:21Z</time></trkpt><trkpt lat="42.51673076730019" lon="8.690947308478416"><ele>113.0</ele><time>2026-05-01T13:27:22Z</time></trkpt><trkpt lat="42.51660214807906" lon="8.691000662064114"><ele>113.0</ele><time>2026-05-01T13:27:23Z</time></trkpt><trkpt lat="42.51647585849484" lon="8.69106451841986"><ele>113.0</ele><time>2026-05-01T13:27:24Z</time></trkpt><trkpt lat="42.516347790806215" lon="8.69112249712358"><ele>120.5</ele><time>2026-05-01T13:27:25Z</time></trkpt><trkpt lat="42.51621449480941" lon="8.691160688123263"><ele>128.0</ele><time>2026-05-01T13:27:26Z</time></trkpt><trkpt lat="42.516079856416404" lon="8.691166269401426"><ele>135.5</ele><time>2026-05-01T13:27:27Z</time></trkpt><trkpt lat="42.51595045901497" lon="8.691155773949108"><ele>143.0</ele><time>2026-05-01T13:27:28Z</time></trkpt><trkpt lat="42.51582797613349" lon="8.69114460880673"><ele>143.0</ele><time>2026-05-01T13:27:29Z</time></trkpt><trkpt lat="42.5157210866332" lon="8.691124034127093"><ele>143.0</ele><time>2026-05-01T13:27:30Z</time></trkpt><trkpt lat="42.515636956172884" lon="8.691062779682317"><ele>143.0</ele><time>2026-05-01T13:27:31Z</time></trkpt><trkpt lat="42.51557669765101" lon="8.690953120304052"><ele>143.0</ele><time>2026-05-01T13:27:32Z</time></trkpt><trkpt lat="42.515536890776445" lon="8.690813749147564"><ele>143.0</ele><time>2026-05-01T13:27:33Z</time></trkpt><trkpt lat="42.515493733944616" lon="8.690660439735252"><ele>144.75</ele><time>2026-05-01T13:27:34Z</time></trkpt><trkpt lat="42.51542699193517" lon="8.6905049153376"><ele>146.5</ele><time>2026-05-01T13:27:35Z</time></trkpt><trkpt lat="42.51535394758544" lon="8.690353247497665"><ele>148.25</ele><time>2026-05-01T13:27:36Z</time></trkpt><trkpt lat="42.515285311281744" lon="8.690198561736507"><ele>150.0</ele><time>2026-05-01T13:27:37Z</time></trkpt><trkpt lat="42.51521662020883" lon="8.690041352480453"><ele>146.5</ele><time>2026-05-01T13:27:38Z</time></trkpt><trkpt lat="42.51515302918361" lon="8.689871137445978"><ele>143.0</ele><time>2026-05-01T13:27:39Z</time></trkpt><trkpt lat="42.515109089138605" lon="8.689688238707166"><ele>139.5</ele><time>2026-05-01T13:27:40Z</time></trkpt><trkpt lat="42.51507421429568" lon="8.689497375805887"><ele>136.0</ele><time>2026-05-01T13:27:41Z</time></trkpt><trkpt lat="42.515041473055305" lon="8.689302036904662"><ele>132.25</ele><time>2026-05-01T13:27:42Z</time></trkpt><trkpt lat="42.515004688043696" lon="8.689110857582754"><ele>128.5</ele><time>2026-05-01T13:27:43Z</time></trkpt><trkpt lat="42.51496192205186" lon="8.688917631558246"><ele>124.75</ele><time>2026-05-01T13:27:44Z</time></trkpt><trkpt lat="42.51491656278127" lon="8.688726178671457"><ele>121.0</ele><time>2026-05-01T13:27:45Z</time></trkpt><trkpt lat="42.51487177736051" lon="8.688540605255191"><ele>118.5</ele><time>2026-05-01T13:27:46Z</time></trkpt><trkpt lat="42.51481762301655" lon="8.688354608055208"><ele>116.0</ele><time>2026-05-01T13:27:47Z</time></trkpt><trkpt lat="42.514744321388015" lon="8.68817919880485"><ele>113.5</ele><time>2026-05-01T13:27:48Z</time></trkpt><trkpt lat="42.514653525060844" lon="8.688013317528931"><ele>111.0</ele><time>2026-05-01T13:27:49Z</time></trkpt><trkpt lat="42.514564217444985" lon="8.687842103246325"><ele>120.33333333333334</ele><time>2026-05-01T13:27:50Z</time></trkpt><trkpt lat="42.51447961128087" lon="8.687669886252149"><ele>129.66666666666669</ele><time>2026-05-01T13:27:51Z</time></trkpt><trkpt lat="42.514401335568245" lon="8.687498784080212"><ele>139.0</ele><time>2026-05-01T13:27:52Z</time></trkpt><trkpt lat="42.51431309341901" lon="8.687322774036916"><ele>139.0</ele><time>2026-05-01T13:27:53Z</time></trkpt><trkpt lat="42.5142348986418" lon="8.68716080491823"><ele>139.0</ele><time>2026-05-01T13:27:54Z</time></trkpt><trkpt lat="42.514148773111316" lon="8.686984693357218"><ele>139.0</ele><time>2026-05-01T13:27:55Z</time></trkpt><trkpt lat="42.51406227274612" lon="8.686826474186905"><ele>139.0</ele><time>2026-05-01T13:27:56Z</time></trkpt><trkpt lat="42.51395297392502" lon="8.686682550872776"><ele>143.25</ele><time>2026-05-01T13:27:57Z</time></trkpt><trkpt lat="42.5138380295375" lon="8.686553872351169"><ele>147.5</ele><time>2026-05-01T13:27:58Z</time></trkpt><trkpt lat="42.513735002187865" lon="8.686421501380353"><ele>151.75</ele><time>2026-05-01T13:27:59Z</time></trkpt><trkpt lat="42.51364177972842" lon="8.686266575664114"><ele>156.0</ele><time>2026-05-01T13:28:00Z</time></trkpt><trkpt lat="42.51355037531421" lon="8.686106766161927"><ele>149.75</ele><time>2026-05-01T13:28:01Z</time></trkpt><trkpt lat="42.51346155262735" lon="8.685954710139223"><ele>143.5</ele><time>2026-05-01T13:28:02Z</time></trkpt><trkpt lat="42.51337225917892" lon="8.685803699499978"><ele>137.25</ele><time>2026-05-01T13:28:03Z</time></trkpt><trkpt lat="42.513280852056745" lon="8.685651482328133"><ele>131.0</ele><time>2026-05-01T13:28:04Z</time></trkpt><trkpt lat="42.5131787175174" lon="8.685512992020083"><ele>131.0</ele><time>2026-05-01T13:28:05Z</time></trkpt><trkpt lat="42.51306037895292" lon="8.685395195465741"><ele>131.0</ele><time>2026-05-01T13:28:06Z</time></trkpt><trkpt lat="42.51292754682078" lon="8.685312976769115"><ele>131.0</ele><time>2026-05-01T13:28:07Z</time></trkpt><trkpt lat="42.51278846211623" lon="8.685247990065095"><ele>131.0</ele><time>2026-05-01T13:28:08Z</time></trkpt><trkpt lat="42.51264624433247" lon="8.685171230108903"><ele>131.0</ele><time>2026-05-01T13:28:09Z</time></trkpt><trkpt lat="42.51250925086994" lon="8.6850905690888"><ele>131.0</ele><time>2026-05-01T13:28:10Z</time></trkpt><trkpt lat="42.51237334986316" lon="8.685012167506247"><ele>131.0</ele><time>2026-05-01T13:28:11Z</time></trkpt><trkpt lat="42.51223736858112" lon="8.684935166064083"><ele>131.0</ele><time>2026-05-01T13:28:12Z</time></trkpt><trkpt lat="42.51210575100389" lon="8.684857202538382"><ele>134.5</ele><time>2026-05-01T13:28:13Z</time></trkpt><trkpt lat="42.511988362114494" lon="8.684790541217287"><ele>138.0</ele><time>2026-05-01T13:28:14Z</time></trkpt><trkpt lat="42.51187150785405" lon="8.684729796178303"><ele>141.5</ele><time>2026-05-01T13:28:15Z</time></trkpt><trkpt lat="42.511748279867106" lon="8.68468920905562"><ele>145.0</ele><time>2026-05-01T13:28:16Z</time></trkpt><trkpt lat="42.51162579718561" lon="8.684663875253756"><ele>145.0</ele><time>2026-05-01T13:28:17Z</time></trkpt><trkpt lat="42.51151525198317" lon="8.684615824037635"><ele>145.0</ele><time>2026-05-01T13:28:18Z</time></trkpt><trkpt lat="42.511416389411494" lon="8.684519649649266"><ele>145.0</ele><time>2026-05-01T13:28:19Z</time></trkpt><trkpt lat="42.51132505810614" lon="8.684397891099058"><ele>145.0</ele><time>2026-05-01T13:28:20Z</time></trkpt><trkpt lat="42.51123064381679" lon="8.684280875395258"><ele>144.5</ele><time>2026-05-01T13:28:21Z</time></trkpt><trkpt lat="42.51113159024985" lon="8.684176682227191"><ele>144.0</ele><time>2026-05-01T13:28:22Z</time></trkpt><trkpt lat="42.51103468871154" lon="8.684080606211499"><ele>143.5</ele><time>2026-05-01T13:28:23Z</time></trkpt><trkpt lat="42.51093025705546" lon="8.68400214728047"><ele>143.0</ele><time>2026-05-01T13:28:24Z</time></trkpt><trkpt lat="42.51081740547459" lon="8.68394182799102"><ele>143.0</ele><time>2026-05-01T13:28:25Z</time></trkpt><trkpt lat="42.510708949670295" lon="8.683895053701864"><ele>143.0</ele><time>2026-05-01T13:28:26Z</time></trkpt><trkpt lat="42.51060498024863" lon="8.683844953533416"><ele>143.0</ele><time>2026-05-01T13:28:27Z</time></trkpt><trkpt lat="42.5105162519986" lon="8.68378889291547"><ele>143.0</ele><time>2026-05-01T13:28:28Z</time></trkpt><trkpt lat="42.51043888853194" lon="8.68371215499567"><ele>143.0</ele><time>2026-05-01T13:28:29Z</time></trkpt><trkpt lat="42.51037622519872" lon="8.683606800873683"><ele>143.6</ele><time>2026-05-01T13:28:30Z</time></trkpt><trkpt lat="42.51032214379979" lon="8.683484273879756"><ele>144.20000000000002</ele><time>2026-05-01T13:28:31Z</time></trkpt><trkpt lat="42.51026700161301" lon="8.68337565798812"><ele>144.8</ele><time>2026-05-01T13:28:32Z</time></trkpt><trkpt lat="42.51020209998206" lon="8.683283744475291"><ele>145.4</ele><time>2026-05-01T13:28:33Z</time></trkpt><trkpt lat="42.51012126553272" lon="8.683193297218734"><ele>146.0</ele><time>2026-05-01T13:28:34Z</time></trkpt><trkpt lat="42.51003438677633" lon="8.683113005519663"><ele>146.0</ele><time>2026-05-01T13:28:35Z</time></trkpt><trkpt lat="42.509945137321495" lon="8.683030326547618"><ele>146.0</ele><time>2026-05-01T13:28:36Z</time></trkpt><trkpt lat="42.50986524890482" lon="8.682954038826944"><ele>146.0</ele><time>2026-05-01T13:28:37Z</time></trkpt><trkpt lat="42.509790020419466" lon="8.682878217953093"><ele>146.0</ele><time>2026-05-01T13:28:38Z</time></trkpt><trkpt lat="42.50971590914123" lon="8.682799546256707"><ele>146.0</ele><time>2026-05-01T13:28:39Z</time></trkpt><trkpt lat="42.50964136791295" lon="8.682720258427342"><ele>146.2</ele><time>2026-05-01T13:28:40Z</time></trkpt><trkpt lat="42.50956249135162" lon="8.682652689611652"><ele>146.39999999999998</ele><time>2026-05-01T13:28:41Z</time></trkpt><trkpt lat="42.50946989765519" lon="8.682607711999378"><ele>146.6</ele><time>2026-05-01T13:28:42Z</time></trkpt><trkpt lat="42.509364632034405" lon="8.682576000593068"><ele>146.79999999999998</ele><time>2026-05-01T13:28:43Z</time></trkpt><trkpt lat="42.50926530681256" lon="8.682568330068365"><ele>147.0</ele><time>2026-05-01T13:28:44Z</time></trkpt><trkpt lat="42.509165879260124" lon="8.682577661679712"><ele>147.0</ele><time>2026-05-01T13:28:45Z</time></trkpt><trkpt lat="42.509073082995755" lon="8.682575304978343"><ele>147.0</ele><time>2026-05-01T13:28:46Z</time></trkpt><trkpt lat="42.50899997080168" lon="8.682558231860261"><ele>147.0</ele><time>2026-05-01T13:28:47Z</time></trkpt><trkpt lat="42.508925582683005" lon="8.682534750796904"><ele>147.0</ele><time>2026-05-01T13:28:48Z</time></trkpt><trkpt lat="42.50885671846145" lon="8.682478026772811"><ele>147.0</ele><time>2026-05-01T13:28:49Z</time></trkpt><trkpt lat="42.50878206328745" lon="8.682391080097444"><ele>147.0</ele><time>2026-05-01T13:28:50Z</time></trkpt><trkpt lat="42.50871220248661" lon="8.682291597532586"><ele>145.6</ele><time>2026-05-01T13:28:51Z</time></trkpt><trkpt lat="42.50864258857081" lon="8.682189462975884"><ele>144.2</ele><time>2026-05-01T13:28:52Z</time></trkpt><trkpt lat="42.50856676020198" lon="8.68208218373538"><ele>142.8</ele><time>2026-05-01T13:28:53Z</time></trkpt><trkpt lat="42.508492015237856" lon="8.681973280828643"><ele>141.4</ele><time>2026-05-01T13:28:54Z</time></trkpt><trkpt lat="42.50841637414414" lon="8.681864645805922"><ele>140.0</ele><time>2026-05-01T13:28:55Z</time></trkpt><trkpt lat="42.50834013429989" lon="8.681759399061209"><ele>140.0</ele><time>2026-05-01T13:28:56Z</time></trkpt><trkpt lat="42.50825944514018" lon="8.681642232595326"><ele>140.0</ele><time>2026-05-01T13:28:57Z</time></trkpt><trkpt lat="42.5081926710076" lon="8.681516922877615"><ele>140.0</ele><time>2026-05-01T13:28:58Z</time></trkpt><trkpt lat="42.508139660420355" lon="8.681378227621574"><ele>140.0</ele><time>2026-05-01T13:28:59Z</time></trkpt><trkpt lat="42.5081048764574" lon="8.681235679295028"><ele>140.6</ele><time>2026-05-01T13:29:00Z</time></trkpt><trkpt lat="42.50807283313637" lon="8.681087577979127"><ele>141.2</ele><time>2026-05-01T13:29:01Z</time></trkpt><trkpt lat="42.508039509302144" lon="8.680946067508017"><ele>141.8</ele><time>2026-05-01T13:29:02Z</time></trkpt><trkpt lat="42.50799854481205" lon="8.680820816343541"><ele>142.4</ele><time>2026-05-01T13:29:03Z</time></trkpt><trkpt lat="42.50794178101285" lon="8.680721269537495"><ele>143.0</ele><time>2026-05-01T13:29:04Z</time></trkpt><trkpt lat="42.507868268505234" lon="8.680642447274971"><ele>140.8</ele><time>2026-05-01T13:29:05Z</time></trkpt><trkpt lat="42.507776418124735" lon="8.680603658458436"><ele>138.60000000000002</ele><time>2026-05-01T13:29:06Z</time></trkpt><trkpt lat="42.50768452980565" lon="8.680598489888869"><ele>136.39999999999998</ele><time>2026-05-01T13:29:07Z</time></trkpt><trkpt lat="42.507585602285786" lon="8.680592331384242"><ele>134.2</ele><time>2026-05-01T13:29:08Z</time></trkpt><trkpt lat="42.507492514247616" lon="8.680579879707887"><ele>132.0</ele><time>2026-05-01T13:29:09Z</time></trkpt><trkpt lat="42.50740357270285" lon="8.680560041846517"><ele>132.0</ele><time>2026-05-01T13:29:10Z</time></trkpt><trkpt lat="42.50731004004815" lon="8.680543612717639"><ele>132.0</ele><time>2026-05-01T13:29:11Z</time></trkpt><trkpt lat="42.50721651499542" lon="8.680524612167716"><ele>132.0</ele><time>2026-05-01T13:29:12Z</time></trkpt><trkpt lat="42.50712473474181" lon="8.680503615495075"><ele>132.0</ele><time>2026-05-01T13:29:13Z</time></trkpt><trkpt lat="42.50702905410953" lon="8.680466812043102"><ele>132.0</ele><time>2026-05-01T13:29:14Z</time></trkpt><trkpt lat="42.5069434414125" lon="8.680409277917688"><ele>132.5</ele><time>2026-05-01T13:29:15Z</time></trkpt><trkpt lat="42.50686137979148" lon="8.680348517632428"><ele>133.0</ele><time>2026-05-01T13:29:16Z</time></trkpt><trkpt lat="42.50678152000189" lon="8.680294526655265"><ele>133.5</ele><time>2026-05-01T13:29:17Z</time></trkpt><trkpt lat="42.50670327303819" lon="8.680264444412906"><ele>134.0</ele><time>2026-05-01T13:29:18Z</time></trkpt><trkpt lat="42.506621871061974" lon="8.68027232548553"><ele>134.5</ele><time>2026-05-01T13:29:19Z</time></trkpt><trkpt lat="42.50654113912076" lon="8.680315193478652"><ele>135.0</ele><time>2026-05-01T13:29:20Z</time></trkpt><trkpt lat="42.50646773661691" lon="8.680377005262345"><ele>133.16666666666666</ele><time>2026-05-01T13:29:21Z</time></trkpt><trkpt lat="42.506408993318736" lon="8.680435757171269"><ele>131.33333333333334</ele><time>2026-05-01T13:29:22Z</time></trkpt><trkpt lat="42.50629233923871" lon="8.680503923785144"><ele>129.5</ele><time>2026-05-01T13:29:24Z</time></trkpt><trkpt lat="42.50622353758455" lon="8.68051010698811"><ele>127.66666666666667</ele><time>2026-05-01T13:29:25Z</time></trkpt><trkpt lat="42.50615483112476" lon="8.680497368861616"><ele>125.83333333333334</ele><time>2026-05-01T13:29:26Z</time></trkpt><trkpt lat="42.50608503622382" lon="8.680467110777572"><ele>124.0</ele><time>2026-05-01T13:29:27Z</time></trkpt><trkpt lat="42.50601383625563" lon="8.680413545319"><ele>124.25</ele><time>2026-05-01T13:29:28Z</time></trkpt><trkpt lat="42.50592797132051" lon="8.680327740068853"><ele>124.5</ele><time>2026-05-01T13:29:29Z</time></trkpt><trkpt lat="42.505836304192506" lon="8.680220412882695"><ele>124.75</ele><time>2026-05-01T13:29:30Z</time></trkpt><trkpt lat="42.50573880946744" lon="8.680108847339238"><ele>125.0</ele><time>2026-05-01T13:29:31Z</time></trkpt><trkpt lat="42.505640342197985" lon="8.680002308964625"><ele>125.0</ele><time>2026-05-01T13:29:32Z</time></trkpt><trkpt lat="42.50554500342581" lon="8.679904712819024"><ele>125.0</ele><time>2026-05-01T13:29:33Z</time></trkpt><trkpt lat="42.50544862338952" lon="8.67980742992191"><ele>125.0</ele><time>2026-05-01T13:29:34Z</time></trkpt><trkpt lat="42.50535601759388" lon="8.679709315235357"><ele>125.0</ele><time>2026-05-01T13:29:35Z</time></trkpt><trkpt lat="42.505263622250695" lon="8.679610736333007"><ele>124.0</ele><time>2026-05-01T13:29:36Z</time></trkpt><trkpt lat="42.50517192032264" lon="8.679516579220547"><ele>123.0</ele><time>2026-05-01T13:29:37Z</time></trkpt><trkpt lat="42.50508088788658" lon="8.679424818321705"><ele>122.0</ele><time>2026-05-01T13:29:38Z</time></trkpt><trkpt lat="42.50499155044049" lon="8.679334655250841"><ele>121.0</ele><time>2026-05-01T13:29:39Z</time></trkpt><trkpt lat="42.50490929792036" lon="8.679249582182017"><ele>120.0</ele><time>2026-05-01T13:29:40Z</time></trkpt><trkpt lat="42.504830741623934" lon="8.679163687951055"><ele>120.0</ele><time>2026-05-01T13:29:41Z</time></trkpt><trkpt lat="42.50475633034823" lon="8.679083485514955"><ele>120.0</ele><time>2026-05-01T13:29:42Z</time></trkpt><trkpt lat="42.50468741370946" lon="8.67900941097053"><ele>120.0</ele><time>2026-05-01T13:29:43Z</time></trkpt><trkpt lat="42.50461652083253" lon="8.678924990891561"><ele>120.0</ele><time>2026-05-01T13:29:44Z</time></trkpt><trkpt lat="42.50454851378929" lon="8.678834375684218"><ele>120.0</ele><time>2026-05-01T13:29:45Z</time></trkpt><trkpt lat="42.50448385786806" lon="8.678736752095153"><ele>119.33333333333333</ele><time>2026-05-01T13:29:46Z</time></trkpt><trkpt lat="42.504427907263526" lon="8.678628145390975"><ele>118.66666666666666</ele><time>2026-05-01T13:29:47Z</time></trkpt><trkpt lat="42.5043819687755" lon="8.678518877404425"><ele>118.0</ele><time>2026-05-01T13:29:48Z</time></trkpt><trkpt lat="42.50433151833981" lon="8.678406083726655"><ele>117.33333333333333</ele><time>2026-05-01T13:29:49Z</time></trkpt><trkpt lat="42.504278046487265" lon="8.678329431104178"><ele>116.66666666666666</ele><time>2026-05-01T13:29:50Z</time></trkpt><trkpt lat="42.50420844258329" lon="8.678287762214774"><ele>116.0</ele><time>2026-05-01T13:29:51Z</time></trkpt><trkpt lat="42.50412812313467" lon="8.678296514607457"><ele>116.0</ele><time>2026-05-01T13:29:52Z</time></trkpt><trkpt lat="42.50404485453921" lon="8.67834580963633"><ele>116.0</ele><time>2026-05-01T13:29:53Z</time></trkpt><trkpt lat="42.50396182300264" lon="8.678417037907009"><ele>116.0</ele><time>2026-05-01T13:29:54Z</time></trkpt><trkpt lat="42.50387969952071" lon="8.6784803304412"><ele>116.0</ele><time>2026-05-01T13:29:55Z</time></trkpt><trkpt lat="42.50378921108708" lon="8.67852631272112"><ele>116.0</ele><time>2026-05-01T13:29:56Z</time></trkpt><trkpt lat="42.50368585823073" lon="8.678556427896806"><ele>114.6</ele><time>2026-05-01T13:29:57Z</time></trkpt><trkpt lat="42.50357775736559" lon="8.678567429488533"><ele>113.19999999999999</ele><time>2026-05-01T13:29:58Z</time></trkpt><trkpt lat="42.50347266389292" lon="8.678565660258878"><ele>111.80000000000001</ele><time>2026-05-01T13:29:59Z</time></trkpt><trkpt lat="42.5033642076353" lon="8.678558270473092"><ele>110.4</ele><time>2026-05-01T13:30:00Z</time></trkpt><trkpt lat="42.50325847491646" lon="8.678556290480682"><ele>109.0</ele><time>2026-05-01T13:30:01Z</time></trkpt><trkpt lat="42.5031533592864" lon="8.678559051303946"><ele>109.00000000000001</ele><time>2026-05-01T13:30:02Z</time></trkpt><trkpt lat="42.503059276015044" lon="8.678557950941988"><ele>109.0</ele><time>2026-05-01T13:30:03Z</time></trkpt><trkpt lat="42.502971834911676" lon="8.678548909071932"><ele>109.0</ele><time>2026-05-01T13:30:04Z</time></trkpt><trkpt lat="42.50288817775336" lon="8.678524369064977"><ele>109.0</ele><time>2026-05-01T13:30:05Z</time></trkpt><trkpt lat="42.50280533169619" lon="8.67848739793575"><ele>109.00000000000001</ele><time>2026-05-01T13:30:06Z</time></trkpt><trkpt lat="42.502723241921785" lon="8.67844429370587"><ele>109.0</ele><time>2026-05-01T13:30:07Z</time></trkpt><trkpt lat="42.50263755635512" lon="8.678410370539977"><ele>108.83333333333334</ele><time>2026-05-01T13:30:08Z</time></trkpt><trkpt lat="42.50255320653332" lon="8.67840965699196"><ele>108.66666666666667</ele><time>2026-05-01T13:30:09Z</time></trkpt><trkpt lat="42.50247135884041" lon="8.678444197569412"><ele>108.5</ele><time>2026-05-01T13:30:10Z</time></trkpt><trkpt lat="42.5023916379623" lon="8.678509476779665"><ele>108.33333333333334</ele><time>2026-05-01T13:30:11Z</time></trkpt><trkpt lat="42.502336905349686" lon="8.6785981938825"><ele>108.16666666666667</ele><time>2026-05-01T13:30:12Z</time></trkpt><trkpt lat="42.502323581181905" lon="8.678711413207981"><ele>108.0</ele><time>2026-05-01T13:30:13Z</time></trkpt><trkpt lat="42.502334351012884" lon="8.678844527797176"><ele>106.4</ele><time>2026-05-01T13:30:14Z</time></trkpt><trkpt lat="42.50234815318301" lon="8.678983943492328"><ele>104.80000000000001</ele><time>2026-05-01T13:30:15Z</time></trkpt><trkpt lat="42.50235240989154" lon="8.679132401104317"><ele>103.2</ele><time>2026-05-01T13:30:16Z</time></trkpt><trkpt lat="42.50234146939119" lon="8.679277905710215"><ele>101.6</ele><time>2026-05-01T13:30:17Z</time></trkpt><trkpt lat="42.50231729759622" lon="8.679432827876502"><ele>100.0</ele><time>2026-05-01T13:30:18Z</time></trkpt><trkpt lat="42.50227383513934" lon="8.679579334653695"><ele>100.25</ele><time>2026-05-01T13:30:19Z</time></trkpt><trkpt lat="42.50222285340538" lon="8.679732000582044"><ele>100.5</ele><time>2026-05-01T13:30:20Z</time></trkpt><trkpt lat="42.50217127444972" lon="8.679887425006072"><ele>100.75</ele><time>2026-05-01T13:30:21Z</time></trkpt><trkpt lat="42.502109696809214" lon="8.680029740203729"><ele>101.0</ele><time>2026-05-01T13:30:22Z</time></trkpt><trkpt lat="42.50203053529248" lon="8.680170675890361"><ele>98.25</ele><time>2026-05-01T13:30:23Z</time></trkpt><trkpt lat="42.50193330356517" lon="8.68030096978975"><ele>95.5</ele><time>2026-05-01T13:30:24Z</time></trkpt><trkpt lat="42.5018345689983" lon="8.680417296060213"><ele>92.75</ele><time>2026-05-01T13:30:25Z</time></trkpt><trkpt lat="42.501730963223835" lon="8.680517861839299"><ele>90.0</ele><time>2026-05-01T13:30:26Z</time></trkpt><trkpt lat="42.50162087015501" lon="8.680591856636907"><ele>90.0</ele><time>2026-05-01T13:30:27Z</time></trkpt><trkpt lat="42.50151094424098" lon="8.680632898658914"><ele>90.0</ele><time>2026-05-01T13:30:28Z</time></trkpt><trkpt lat="42.50139783369405" lon="8.68066410996948"><ele>90.0</ele><time>2026-05-01T13:30:29Z</time></trkpt><trkpt lat="42.50128107809005" lon="8.680699963443887"><ele>90.0</ele><time>2026-05-01T13:30:30Z</time></trkpt><trkpt lat="42.501172434201216" lon="8.680763150894416"><ele>90.8</ele><time>2026-05-01T13:30:31Z</time></trkpt><trkpt lat="42.501081323429034" lon="8.680863523046993"><ele>91.6</ele><time>2026-05-01T13:30:32Z</time></trkpt><trkpt lat="42.5010029038957" lon="8.680984091047618"><ele>92.4</ele><time>2026-05-01T13:30:33Z</time></trkpt><trkpt lat="42.500929578997535" lon="8.681094606134247"><ele>93.2</ele><time>2026-05-01T13:30:34Z</time></trkpt><trkpt lat="42.50083982478358" lon="8.681164997566524"><ele>94.0</ele><time>2026-05-01T13:30:35Z</time></trkpt><trkpt lat="42.50073399448911" lon="8.68119083425335"><ele>91.25</ele><time>2026-05-01T13:30:36Z</time></trkpt><trkpt lat="42.50061850267985" lon="8.681183858600887"><ele>88.5</ele><time>2026-05-01T13:30:37Z</time></trkpt><trkpt lat="42.50048280539315" lon="8.681171715404172"><ele>85.75</ele><time>2026-05-01T13:30:38Z</time></trkpt><trkpt lat="42.50033924519868" lon="8.68116532852548"><ele>83.0</ele><time>2026-05-01T13:30:39Z</time></trkpt><trkpt lat="42.500188940459175" lon="8.681157450499231"><ele>82.25</ele><time>2026-05-01T13:30:40Z</time></trkpt><trkpt lat="42.50003312573354" lon="8.681151571551453"><ele>81.5</ele><time>2026-05-01T13:30:41Z</time></trkpt><trkpt lat="42.4998850046718" lon="8.681138488623684"><ele>80.75</ele><time>2026-05-01T13:30:42Z</time></trkpt><trkpt lat="42.499745463669896" lon="8.681127752660933"><ele>80.0</ele><time>2026-05-01T13:30:43Z</time></trkpt><trkpt lat="42.499622541493366" lon="8.681121543272932"><ele>79.0</ele><time>2026-05-01T13:30:44Z</time></trkpt><trkpt lat="42.49950943068342" lon="8.681108356377068"><ele>78.0</ele><time>2026-05-01T13:30:45Z</time></trkpt><trkpt lat="42.49939774268637" lon="8.681101557097298"><ele>77.0</ele><time>2026-05-01T13:30:46Z</time></trkpt><trkpt lat="42.4992892457606" lon="8.68109974042937"><ele>76.0</ele><time>2026-05-01T13:30:47Z</time></trkpt><trkpt lat="42.4991818304969" lon="8.681094720800402"><ele>75.0</ele><time>2026-05-01T13:30:48Z</time></trkpt><trkpt lat="42.49908068644168" lon="8.681087121657526"><ele>75.0</ele><time>2026-05-01T13:30:49Z</time></trkpt><trkpt lat="42.498984976269455" lon="8.681079216007333"><ele>75.0</ele><time>2026-05-01T13:30:50Z</time></trkpt><trkpt lat="42.49889231395208" lon="8.681079079948935"><ele>75.0</ele><time>2026-05-01T13:30:51Z</time></trkpt><trkpt lat="42.49879909089634" lon="8.68110726497767"><ele>75.0</ele><time>2026-05-01T13:30:52Z</time></trkpt><trkpt lat="42.49872425922838" lon="8.68117472428758"><ele>75.0</ele><time>2026-05-01T13:30:53Z</time></trkpt><trkpt lat="42.498668732719544" lon="8.681280389096194"><ele>74.4</ele><time>2026-05-01T13:30:54Z</time></trkpt><trkpt lat="42.49862216431523" lon="8.681417614040717"><ele>73.8</ele><time>2026-05-01T13:30:55Z</time></trkpt><trkpt lat="42.49857388080357" lon="8.68156286547462"><ele>73.2</ele><time>2026-05-01T13:30:56Z</time></trkpt><trkpt lat="42.498525527813676" lon="8.681700123796393"><ele>72.6</ele><time>2026-05-01T13:30:57Z</time></trkpt><trkpt lat="42.498478994602586" lon="8.68183123304887"><ele>72.0</ele><time>2026-05-01T13:30:58Z</time></trkpt><trkpt lat="42.49843102223317" lon="8.681954181373067"><ele>72.0</ele><time>2026-05-01T13:30:59Z</time></trkpt><trkpt lat="42.49837051863637" lon="8.68207582652026"><ele>72.0</ele><time>2026-05-01T13:31:00Z</time></trkpt><trkpt lat="42.49829231213318" lon="8.682206007450162"><ele>72.0</ele><time>2026-05-01T13:31:01Z</time></trkpt><trkpt lat="42.49820286398449" lon="8.682328675924264"><ele>72.0</ele><time>2026-05-01T13:31:02Z</time></trkpt><trkpt lat="42.49809375830499" lon="8.682445768783746"><ele>72.0</ele><time>2026-05-01T13:31:03Z</time></trkpt><trkpt lat="42.497962759248175" lon="8.68255119113776"><ele>72.0</ele><time>2026-05-01T13:31:04Z</time></trkpt><trkpt lat="42.49784070277844" lon="8.68263654899483"><ele>72.0</ele><time>2026-05-01T13:31:05Z</time></trkpt><trkpt lat="42.497735650333205" lon="8.682711187037096"><ele>72.0</ele><time>2026-05-01T13:31:06Z</time></trkpt><trkpt lat="42.497638357502886" lon="8.682781633818202"><ele>69.5</ele><time>2026-05-01T13:31:07Z</time></trkpt><trkpt lat="42.49754636592118" lon="8.682850472117305"><ele>67.0</ele><time>2026-05-01T13:31:08Z</time></trkpt><trkpt lat="42.49744695609843" lon="8.682915549259667"><ele>64.5</ele><time>2026-05-01T13:31:09Z</time></trkpt><trkpt lat="42.49733010754946" lon="8.682971274039557"><ele>62.0</ele><time>2026-05-01T13:31:10Z</time></trkpt><trkpt lat="42.49720064373814" lon="8.6829931146686"><ele>62.5</ele><time>2026-05-01T13:31:11Z</time></trkpt><trkpt lat="42.49707576009146" lon="8.682976390354549"><ele>63.0</ele><time>2026-05-01T13:31:12Z</time></trkpt><trkpt lat="42.49696017708723" lon="8.682964261297755"><ele>63.5</ele><time>2026-05-01T13:31:13Z</time></trkpt><trkpt lat="42.49685138970165" lon="8.682968129989536"><ele>64.0</ele><time>2026-05-01T13:31:14Z</time></trkpt><trkpt lat="42.496745136486645" lon="8.682993383157667"><ele>64.0</ele><time>2026-05-01T13:31:15Z</time></trkpt><trkpt lat="42.496664204674964" lon="8.683070379122832"><ele>64.0</ele><time>2026-05-01T13:31:16Z</time></trkpt><trkpt lat="42.49658398106387" lon="8.683187800740365"><ele>64.0</ele><time>2026-05-01T13:31:17Z</time></trkpt><trkpt lat="42.49652534743974" lon="8.683311885698945"><ele>64.0</ele><time>2026-05-01T13:31:18Z</time></trkpt><trkpt lat="42.49646103164757" lon="8.683432684741303"><ele>64.0</ele><time>2026-05-01T13:31:19Z</time></trkpt><trkpt lat="42.496376530794144" lon="8.683519625070952"><ele>64.0</ele><time>2026-05-01T13:31:20Z</time></trkpt><trkpt lat="42.49627117453378" lon="8.683592771800706"><ele>64.0</ele><time>2026-05-01T13:31:21Z</time></trkpt><trkpt lat="42.49614383241826" lon="8.68364411160269"><ele>64.0</ele><time>2026-05-01T13:31:22Z</time></trkpt><trkpt lat="42.495994931675845" lon="8.683706160054856"><ele>64.0</ele><time>2026-05-01T13:31:23Z</time></trkpt><trkpt lat="42.49583419797238" lon="8.683773328022586"><ele>62.5</ele><time>2026-05-01T13:31:24Z</time></trkpt><trkpt lat="42.49567655125538" lon="8.683838666646244"><ele>61.0</ele><time>2026-05-01T13:31:25Z</time></trkpt><trkpt lat="42.495534955367184" lon="8.683889497780685"><ele>59.5</ele><time>2026-05-01T13:31:26Z</time></trkpt><trkpt lat="42.49541537842269" lon="8.683938651762384"><ele>58.0</ele><time>2026-05-01T13:31:27Z</time></trkpt><trkpt lat="42.495301606214454" lon="8.683963219706106"><ele>57.25</ele><time>2026-05-01T13:31:28Z</time></trkpt><trkpt lat="42.49518721939124" lon="8.683978077476027"><ele>56.5</ele><time>2026-05-01T13:31:29Z</time></trkpt><trkpt lat="42.495059975575316" lon="8.683973546252776"><ele>55.75</ele><time>2026-05-01T13:31:30Z</time></trkpt><trkpt lat="42.49491870424414" lon="8.68395311934462"><ele>55.0</ele><time>2026-05-01T13:31:31Z</time></trkpt><trkpt lat="42.494778795787795" lon="8.683921306123588"><ele>55.0</ele><time>2026-05-01T13:31:32Z</time></trkpt><trkpt lat="42.49464921701085" lon="8.683886904911366"><ele>55.0</ele><time>2026-05-01T13:31:33Z</time></trkpt><trkpt lat="42.49452238942943" lon="8.68387271002235"><ele>55.0</ele><time>2026-05-01T13:31:34Z</time></trkpt><trkpt lat="42.494400468635796" lon="8.683870544813692"><ele>55.0</ele><time>2026-05-01T13:31:35Z</time></trkpt><trkpt lat="42.49428142769002" lon="8.683891931470134"><ele>54.25</ele><time>2026-05-01T13:31:36Z</time></trkpt><trkpt lat="42.49416983437302" lon="8.683924579683794"><ele>53.5</ele><time>2026-05-01T13:31:37Z</time></trkpt><trkpt lat="42.49405297969626" lon="8.68394714515928"><ele>52.75</ele><time>2026-05-01T13:31:38Z</time></trkpt><trkpt lat="42.49393440026354" lon="8.683945237093862"><ele>52.0</ele><time>2026-05-01T13:31:39Z</time></trkpt><trkpt lat="42.49380366429795" lon="8.683924170220932"><ele>50.666666666666664</ele><time>2026-05-01T13:31:40Z</time></trkpt><trkpt lat="42.49364748018669" lon="8.683894874686416"><ele>49.33333333333333</ele><time>2026-05-01T13:31:41Z</time></trkpt><trkpt lat="42.49347979527948" lon="8.683855561487954"><ele>48.0</ele><time>2026-05-01T13:31:42Z</time></trkpt><trkpt lat="42.49331000501839" lon="8.683814133817302"><ele>48.0</ele><time>2026-05-01T13:31:43Z</time></trkpt><trkpt lat="42.493161002924076" lon="8.683767514793834"><ele>48.0</ele><time>2026-05-01T13:31:44Z</time></trkpt><trkpt lat="42.493008151864856" lon="8.683717063455532"><ele>48.0</ele><time>2026-05-01T13:31:45Z</time></trkpt><trkpt lat="42.492875075568584" lon="8.683681504381665"><ele>48.0</ele><time>2026-05-01T13:31:46Z</time></trkpt><trkpt lat="42.49275099310444" lon="8.683677544179373"><ele>47.2</ele><time>2026-05-01T13:31:47Z</time></trkpt><trkpt lat="42.49265692870364" lon="8.683712978551151"><ele>46.4</ele><time>2026-05-01T13:31:48Z</time></trkpt><trkpt lat="42.492580173416734" lon="8.683781554979692"><ele>45.6</ele><time>2026-05-01T13:31:49Z</time></trkpt><trkpt lat="42.49251079957542" lon="8.683850926824075"><ele>44.800000000000004</ele><time>2026-05-01T13:31:50Z</time></trkpt><trkpt lat="42.49242359034621" lon="8.683929205711092"><ele>44.0</ele><time>2026-05-01T13:31:51Z</time></trkpt><trkpt lat="42.49232653497759" lon="8.684016122266605"><ele>44.0</ele><time>2026-05-01T13:31:52Z</time></trkpt><trkpt lat="42.49222217292631" lon="8.684098674556987"><ele>44.0</ele><time>2026-05-01T13:31:53Z</time></trkpt><trkpt lat="42.49211028063802" lon="8.68419052896076"><ele>44.0</ele><time>2026-05-01T13:31:54Z</time></trkpt><trkpt lat="42.49199449318373" lon="8.684289142405785"><ele>44.0</ele><time>2026-05-01T13:31:55Z</time></trkpt><trkpt lat="42.49187140369589" lon="8.68438136814778"><ele>44.25</ele><time>2026-05-01T13:31:56Z</time></trkpt><trkpt lat="42.49174565559033" lon="8.684441712538865"><ele>44.5</ele><time>2026-05-01T13:31:57Z</time></trkpt><trkpt lat="42.49161366371645" lon="8.684466341611927"><ele>44.75</ele><time>2026-05-01T13:31:58Z</time></trkpt><trkpt lat="42.49148325435326" lon="8.684456182767695"><ele>45.0</ele><time>2026-05-01T13:31:59Z</time></trkpt><trkpt lat="42.49134945559335" lon="8.684423877140421"><ele>44.0</ele><time>2026-05-01T13:32:00Z</time></trkpt><trkpt lat="42.49121408048949" lon="8.68439345732938"><ele>43.0</ele><time>2026-05-01T13:32:01Z</time></trkpt><trkpt lat="42.49107347948255" lon="8.68436579727532"><ele>42.0</ele><time>2026-05-01T13:32:02Z</time></trkpt><trkpt lat="42.49092860074888" lon="8.68433851365834"><ele>41.0</ele><time>2026-05-01T13:32:03Z</time></trkpt><trkpt lat="42.49078288639131" lon="8.68431873794988"><ele>41.0</ele><time>2026-05-01T13:32:04Z</time></trkpt><trkpt lat="42.490641561843695" lon="8.684300640942025"><ele>41.0</ele><time>2026-05-01T13:32:05Z</time></trkpt><trkpt lat="42.49050146002039" lon="8.684294355192735"><ele>41.0</ele><time>2026-05-01T13:32:06Z</time></trkpt><trkpt lat="42.490364888812024" lon="8.684320229139294"><ele>41.0</ele><time>2026-05-01T13:32:07Z</time></trkpt><trkpt lat="42.490228913446906" lon="8.68437803217943"><ele>41.25</ele><time>2026-05-01T13:32:08Z</time></trkpt><trkpt lat="42.490090473044845" lon="8.684442708367472"><ele>41.5</ele><time>2026-05-01T13:32:09Z</time></trkpt><trkpt lat="42.48994849531791" lon="8.68450408534043"><ele>41.75</ele><time>2026-05-01T13:32:10Z</time></trkpt><trkpt lat="42.48980518165446" lon="8.684560331584189"><ele>42.0</ele><time>2026-05-01T13:32:11Z</time></trkpt><trkpt lat="42.48965726916577" lon="8.68460881448683"><ele>41.75</ele><time>2026-05-01T13:32:12Z</time></trkpt><trkpt lat="42.489513607243666" lon="8.684665522123309"><ele>41.5</ele><time>2026-05-01T13:32:13Z</time></trkpt><trkpt lat="42.48937379941016" lon="8.68472183157462"><ele>41.25</ele><time>2026-05-01T13:32:14Z</time></trkpt><trkpt lat="42.48922829268962" lon="8.684773545192867"><ele>41.0</ele><time>2026-05-01T13:32:15Z</time></trkpt><trkpt lat="42.489077383081046" lon="8.684809665496518"><ele>41.0</ele><time>2026-05-01T13:32:16Z</time></trkpt><trkpt lat="42.48892408017952" lon="8.684823355647154"><ele>41.0</ele><time>2026-05-01T13:32:17Z</time></trkpt><trkpt lat="42.48877517935431" lon="8.68481973928893"><ele>41.0</ele><time>2026-05-01T13:32:18Z</time></trkpt><trkpt lat="42.48862050845151" lon="8.68481002785628"><ele>40.666666666666664</ele><time>2026-05-01T13:32:19Z</time></trkpt><trkpt lat="42.488470470665256" lon="8.684798715501385"><ele>40.333333333333336</ele><time>2026-05-01T13:32:20Z</time></trkpt><trkpt lat="42.488314925439184" lon="8.684794150738671"><ele>40.0</ele><time>2026-05-01T13:32:21Z</time></trkpt><trkpt lat="42.4881632020607" lon="8.684787095793961"><ele>40.0</ele><time>2026-05-01T13:32:22Z</time></trkpt><trkpt lat="42.488008662235906" lon="8.684781032160664"><ele>40.0</ele><time>2026-05-01T13:32:23Z</time></trkpt><trkpt lat="42.487852709863965" lon="8.684767209488673"><ele>40.0</ele><time>2026-05-01T13:32:24Z</time></trkpt><trkpt lat="42.48769821876004" lon="8.684751290903312"><ele>40.66666666666667</ele><time>2026-05-01T13:32:25Z</time></trkpt><trkpt lat="42.48754225874564" lon="8.684744887298399"><ele>41.333333333333336</ele><time>2026-05-01T13:32:26Z</time></trkpt><trkpt lat="42.48738800841685" lon="8.684740400139432"><ele>42.0</ele><time>2026-05-01T13:32:27Z</time></trkpt><trkpt lat="42.48723327320721" lon="8.684740647320085"><ele>41.5</ele><time>2026-05-01T13:32:28Z</time></trkpt><trkpt lat="42.48708506896883" lon="8.684736383134611"><ele>41.0</ele><time>2026-05-01T13:32:29Z</time></trkpt><trkpt lat="42.48695077688218" lon="8.68472266678631"><ele>40.5</ele><time>2026-05-01T13:32:30Z</time></trkpt><trkpt lat="42.486831104982095" lon="8.684680022716813"><ele>40.0</ele><time>2026-05-01T13:32:31Z</time></trkpt><trkpt lat="42.48671722016543" lon="8.684615200969718"><ele>40.0</ele><time>2026-05-01T13:32:32Z</time></trkpt><trkpt lat="42.48660880015946" lon="8.684535441461136"><ele>40.0</ele><time>2026-05-01T13:32:33Z</time></trkpt><trkpt lat="42.48649826523394" lon="8.684449386104546"><ele>40.0</ele><time>2026-05-01T13:32:34Z</time></trkpt><trkpt lat="42.48638085628866" lon="8.684367816577295"><ele>40.0</ele><time>2026-05-01T13:32:35Z</time></trkpt><trkpt lat="42.48626035612694" lon="8.684291451228667"><ele>39.5</ele><time>2026-05-01T13:32:36Z</time></trkpt><trkpt lat="42.486145355096525" lon="8.684221785043457"><ele>39.0</ele><time>2026-05-01T13:32:37Z</time></trkpt><trkpt lat="42.486033802948754" lon="8.684148250892575"><ele>38.5</ele><time>2026-05-01T13:32:38Z</time></trkpt><trkpt lat="42.485922597604045" lon="8.684056423096317"><ele>38.0</ele><time>2026-05-01T13:32:39Z</time></trkpt><trkpt lat="42.48581816329793" lon="8.683941011972687"><ele>38.0</ele><time>2026-05-01T13:32:40Z</time></trkpt><trkpt lat="42.48571563439457" lon="8.683811814432305"><ele>38.0</ele><time>2026-05-01T13:32:41Z</time></trkpt><trkpt lat="42.48561944542622" lon="8.683681129629894"><ele>38.0</ele><time>2026-05-01T13:32:42Z</time></trkpt><trkpt lat="42.48552463192661" lon="8.68355546162977"><ele>38.0</ele><time>2026-05-01T13:32:42.999Z</time></trkpt><trkpt lat="42.48543051509775" lon="8.683440057247171"><ele>37.0</ele><time>2026-05-01T13:32:43.999Z</time></trkpt><trkpt lat="42.485340313199764" lon="8.683337227817093"><ele>36.0</ele><time>2026-05-01T13:32:44.999Z</time></trkpt><trkpt lat="42.48524073316485" lon="8.683260108107058"><ele>35.0</ele><time>2026-05-01T13:32:45.999Z</time></trkpt><trkpt lat="42.485126896912355" lon="8.683221720252082"><ele>34.0</ele><time>2026-05-01T13:32:46.999Z</time></trkpt><trkpt lat="42.484999840197524" lon="8.683209132565475"><ele>34.0</ele><time>2026-05-01T13:32:47.999Z</time></trkpt><trkpt lat="42.48486900355775" lon="8.683203811360114"><ele>34.0</ele><time>2026-05-01T13:32:48.999Z</time></trkpt><trkpt lat="42.48473494180816" lon="8.683218484508615"><ele>34.0</ele><time>2026-05-01T13:32:50Z</time></trkpt><trkpt lat="42.48460192040843" lon="8.68326348130524"><ele>34.0</ele><time>2026-05-01T13:32:51Z</time></trkpt><trkpt lat="42.48447121518341" lon="8.683341013939687"><ele>32.75</ele><time>2026-05-01T13:32:52Z</time></trkpt><trkpt lat="42.48433952057538" lon="8.68342325296337"><ele>31.5</ele><time>2026-05-01T13:32:53Z</time></trkpt><trkpt lat="42.48420168640727" lon="8.683489775019288"><ele>30.25</ele><time>2026-05-01T13:32:54Z</time></trkpt><trkpt lat="42.484072935500954" lon="8.683556155243737"><ele>29.0</ele><time>2026-05-01T13:32:55Z</time></trkpt><trkpt lat="42.483944404261514" lon="8.683621879600437"><ele>29.25</ele><time>2026-05-01T13:32:56Z</time></trkpt><trkpt lat="42.48382918050083" lon="8.683707839413172"><ele>29.5</ele><time>2026-05-01T13:32:57Z</time></trkpt><trkpt lat="42.483727912192286" lon="8.683820276034746"><ele>29.75</ele><time>2026-05-01T13:32:58Z</time></trkpt><trkpt lat="42.483639972205204" lon="8.68393976883757"><ele>30.0</ele><time>2026-05-01T13:32:59Z</time></trkpt><trkpt lat="42.483549479603276" lon="8.68405176463303"><ele>30.0</ele><time>2026-05-01T13:33:00Z</time></trkpt><trkpt lat="42.48344697394552" lon="8.684130493496514"><ele>30.0</ele><time>2026-05-01T13:33:01Z</time></trkpt><trkpt lat="42.48333305907944" lon="8.684186877012399"><ele>30.0</ele><time>2026-05-01T13:33:02Z</time></trkpt><trkpt lat="42.483211215362296" lon="8.684217820613487"><ele>30.0</ele><time>2026-05-01T13:33:03Z</time></trkpt><trkpt lat="42.48309017983792" lon="8.684241320981783"><ele>30.0</ele><time>2026-05-01T13:33:04Z</time></trkpt><trkpt lat="42.48297105054848" lon="8.684277659217418"><ele>30.0</ele><time>2026-05-01T13:33:05Z</time></trkpt><trkpt lat="42.48285380885765" lon="8.684340481716706"><ele>30.0</ele><time>2026-05-01T13:33:06Z</time></trkpt><trkpt lat="42.48273522048326" lon="8.684427385164367"><ele>30.0</ele><time>2026-05-01T13:33:07Z</time></trkpt><trkpt lat="42.482630278994904" lon="8.684543658288657"><ele>30.25</ele><time>2026-05-01T13:33:08Z</time></trkpt><trkpt lat="42.48252727831655" lon="8.684666421032173"><ele>30.5</ele><time>2026-05-01T13:33:09Z</time></trkpt><trkpt lat="42.48241834769216" lon="8.684788545537263"><ele>30.75</ele><time>2026-05-01T13:33:10Z</time></trkpt><trkpt lat="42.48231423906691" lon="8.684906057461664"><ele>31.0</ele><time>2026-05-01T13:33:11Z</time></trkpt><trkpt lat="42.48222454011835" lon="8.685029157226754"><ele>31.0</ele><time>2026-05-01T13:33:12Z</time></trkpt><trkpt lat="42.48214737364261" lon="8.685177988774278"><ele>31.0</ele><time>2026-05-01T13:33:13Z</time></trkpt><trkpt lat="42.4820839820359" lon="8.685345422645756"><ele>31.0</ele><time>2026-05-01T13:33:14Z</time></trkpt><trkpt lat="42.482032971812146" lon="8.685519567435232"><ele>31.0</ele><time>2026-05-01T13:33:15Z</time></trkpt><trkpt lat="42.481988636914245" lon="8.685686758353732"><ele>30.4</ele><time>2026-05-01T13:33:16Z</time></trkpt><trkpt lat="42.48194491950056" lon="8.685842629272736"><ele>29.8</ele><time>2026-05-01T13:33:17Z</time></trkpt><trkpt lat="42.48189411633124" lon="8.685980414693768"><ele>29.199999999999996</ele><time>2026-05-01T13:33:18Z</time></trkpt><trkpt lat="42.481831498387955" lon="8.686091603811496"><ele>28.599999999999998</ele><time>2026-05-01T13:33:19Z</time></trkpt><trkpt lat="42.48174722234246" lon="8.686165096195674"><ele>28.0</ele><time>2026-05-01T13:33:20Z</time></trkpt><trkpt lat="42.481641019099655" lon="8.686193817403202"><ele>28.0</ele><time>2026-05-01T13:33:21Z</time></trkpt><trkpt lat="42.48153403586626" lon="8.686172525759888"><ele>28.0</ele><time>2026-05-01T13:33:22Z</time></trkpt><trkpt lat="42.481425867518425" lon="8.686108848209436"><ele>28.0</ele><time>2026-05-01T13:33:23Z</time></trkpt><trkpt lat="42.48132745262325" lon="8.686014817102878"><ele>28.0</ele><time>2026-05-01T13:33:24Z</time></trkpt><trkpt lat="42.4812368993016" lon="8.685915303455339"><ele>27.5</ele><time>2026-05-01T13:33:25Z</time></trkpt><trkpt lat="42.4811388120515" lon="8.685824278730113"><ele>27.0</ele><time>2026-05-01T13:33:26Z</time></trkpt><trkpt lat="42.48103375731772" lon="8.685733551369212"><ele>26.5</ele><time>2026-05-01T13:33:27Z</time></trkpt><trkpt lat="42.48092444298142" lon="8.685643025261337"><ele>26.0</ele><time>2026-05-01T13:33:28Z</time></trkpt><trkpt lat="42.48081169590014" lon="8.685552233236175"><ele>26.0</ele><time>2026-05-01T13:33:29Z</time></trkpt><trkpt lat="42.48069503936225" lon="8.685462050914767"><ele>26.0</ele><time>2026-05-01T13:33:30Z</time></trkpt><trkpt lat="42.480585512372" lon="8.685376202568657"><ele>26.0</ele><time>2026-05-01T13:33:31Z</time></trkpt><trkpt lat="42.48047813137269" lon="8.685328504949238"><ele>26.0</ele><time>2026-05-01T13:33:32Z</time></trkpt><trkpt lat="42.4803744525655" lon="8.685353478161419"><ele>24.6</ele><time>2026-05-01T13:33:33Z</time></trkpt><trkpt lat="42.48028414269823" lon="8.685431750145387"><ele>23.200000000000003</ele><time>2026-05-01T13:33:34Z</time></trkpt><trkpt lat="42.48021444644216" lon="8.685548041911858"><ele>21.799999999999997</ele><time>2026-05-01T13:33:35Z</time></trkpt><trkpt lat="42.48018001537012" lon="8.68568964528459"><ele>20.4</ele><time>2026-05-01T13:33:36Z</time></trkpt><trkpt lat="42.48018192523505" lon="8.68585008245526"><ele>19.0</ele><time>2026-05-01T13:33:37Z</time></trkpt><trkpt lat="42.48020729145107" lon="8.68600018984111"><ele>19.25</ele><time>2026-05-01T13:33:38Z</time></trkpt><trkpt lat="42.48023268808579" lon="8.686166650699596"><ele>19.5</ele><time>2026-05-01T13:33:39Z</time></trkpt><trkpt lat="42.48024825956706" lon="8.686333077436439"><ele>19.75</ele><time>2026-05-01T13:33:40Z</time></trkpt><trkpt lat="42.48024498640817" lon="8.686488624367605"><ele>20.0</ele><time>2026-05-01T13:33:41Z</time></trkpt><trkpt lat="42.48020465261654" lon="8.68661004637386"><ele>20.0</ele><time>2026-05-01T13:33:42Z</time></trkpt><trkpt lat="42.480124524338926" lon="8.68670189049996"><ele>20.0</ele><time>2026-05-01T13:33:43Z</time></trkpt><trkpt lat="42.48001682526733" lon="8.686772852107122"><ele>20.0</ele><time>2026-05-01T13:33:44Z</time></trkpt><trkpt lat="42.479907473611945" lon="8.68682914480304"><ele>20.0</ele><time>2026-05-01T13:33:45Z</time></trkpt><trkpt lat="42.47979017799887" lon="8.68688174418205"><ele>20.0</ele><time>2026-05-01T13:33:46Z</time></trkpt><trkpt lat="42.4796734093995" lon="8.686901244416767"><ele>20.0</ele><time>2026-05-01T13:33:47Z</time></trkpt><trkpt lat="42.479553502210166" lon="8.686885417900818"><ele>20.0</ele><time>2026-05-01T13:33:48Z</time></trkpt><trkpt lat="42.47943985748517" lon="8.686845103554724"><ele>20.0</ele><time>2026-05-01T13:33:49Z</time></trkpt><trkpt lat="42.479328558825365" lon="8.686842804828219"><ele>19.8</ele><time>2026-05-01T13:33:50Z</time></trkpt><trkpt lat="42.47921892967713" lon="8.68687908261882"><ele>19.6</ele><time>2026-05-01T13:33:51Z</time></trkpt><trkpt lat="42.47913096911701" lon="8.686961656385698"><ele>19.4</ele><time>2026-05-01T13:33:52Z</time></trkpt><trkpt lat="42.47907241952927" lon="8.687075123028725"><ele>19.2</ele><time>2026-05-01T13:33:53Z</time></trkpt><trkpt lat="42.47904719354077" lon="8.687211709767158"><ele>19.0</ele><time>2026-05-01T13:33:54Z</time></trkpt><trkpt lat="42.47904658772628" lon="8.68736602657474"><ele>19.75</ele><time>2026-05-01T13:33:55Z</time></trkpt><trkpt lat="42.47906388584022" lon="8.687522002497179"><ele>20.5</ele><time>2026-05-01T13:33:56Z</time></trkpt><trkpt lat="42.47907604815366" lon="8.687686833468845"><ele>21.25</ele><time>2026-05-01T13:33:57Z</time></trkpt><trkpt lat="42.479079707218546" lon="8.687851147166503"><ele>22.0</ele><time>2026-05-01T13:33:58Z</time></trkpt><trkpt lat="42.479084495859986" lon="8.688023483411243"><ele>22.25</ele><time>2026-05-01T13:33:59Z</time></trkpt><trkpt lat="42.479081946485536" lon="8.68819948709075"><ele>22.5</ele><time>2026-05-01T13:34:00Z</time></trkpt><trkpt lat="42.47907543154956" lon="8.688369552394096"><ele>22.75</ele><time>2026-05-01T13:34:01Z</time></trkpt><trkpt lat="42.47906855007893" lon="8.688535546397492"><ele>23.0</ele><time>2026-05-01T13:34:02Z</time></trkpt><trkpt lat="42.47904645321846" lon="8.688696016883505"><ele>23.5</ele><time>2026-05-01T13:34:03Z</time></trkpt><trkpt lat="42.478997475393015" lon="8.68884615734961"><ele>24.0</ele><time>2026-05-01T13:34:04Z</time></trkpt><trkpt lat="42.47892143013345" lon="8.688986890094153"><ele>24.5</ele><time>2026-05-01T13:34:05Z</time></trkpt><trkpt lat="42.47882560756065" lon="8.689103059415432"><ele>25.0</ele><time>2026-05-01T13:34:06Z</time></trkpt><trkpt lat="42.47872053419434" lon="8.689210983266038"><ele>23.75</ele><time>2026-05-01T13:34:07Z</time></trkpt><trkpt lat="42.4786156967933" lon="8.689312794681578"><ele>22.5</ele><time>2026-05-01T13:34:08Z</time></trkpt><trkpt lat="42.47851342845282" lon="8.689424254961638"><ele>21.25</ele><time>2026-05-01T13:34:09Z</time></trkpt><trkpt lat="42.47842058271261" lon="8.689534828218019"><ele>20.0</ele><time>2026-05-01T13:34:10Z</time></trkpt><trkpt lat="42.47832935544081" lon="8.689631426134746"><ele>20.0</ele><time>2026-05-01T13:34:11Z</time></trkpt><trkpt lat="42.47823497345006" lon="8.689694770036255"><ele>20.0</ele><time>2026-05-01T13:34:12Z</time></trkpt><trkpt lat="42.478137773091866" lon="8.689728408910664"><ele>20.0</ele><time>2026-05-01T13:34:13Z</time></trkpt><trkpt lat="42.47803806616346" lon="8.689731084281558"><ele>20.0</ele><time>2026-05-01T13:34:14Z</time></trkpt><trkpt lat="42.47793678545004" lon="8.689700955761534"><ele>20.0</ele><time>2026-05-01T13:34:15Z</time></trkpt><trkpt lat="42.47782762512081" lon="8.68963916709391"><ele>19.75</ele><time>2026-05-01T13:34:16Z</time></trkpt><trkpt lat="42.477722412310186" lon="8.689580521903409"><ele>19.5</ele><time>2026-05-01T13:34:17Z</time></trkpt><trkpt lat="42.47762308470639" lon="8.689509597381646"><ele>19.25</ele><time>2026-05-01T13:34:18Z</time></trkpt><trkpt lat="42.477518496078744" lon="8.689449899324686"><ele>19.0</ele><time>2026-05-01T13:34:19Z</time></trkpt><trkpt lat="42.47741207724242" lon="8.689391080179199"><ele>19.0</ele><time>2026-05-01T13:34:20Z</time></trkpt><trkpt lat="42.477312716119634" lon="8.689329867275465"><ele>19.0</ele><time>2026-05-01T13:34:21Z</time></trkpt><trkpt lat="42.477216545696095" lon="8.689265216233947"><ele>19.0</ele><time>2026-05-01T13:34:22Z</time></trkpt><trkpt lat="42.477136349323374" lon="8.68919281460976"><ele>19.0</ele><time>2026-05-01T13:34:23Z</time></trkpt><trkpt lat="42.477071541878445" lon="8.689099890626446"><ele>19.0</ele><time>2026-05-01T13:34:24Z</time></trkpt><trkpt lat="42.477028925456636" lon="8.688978784902035"><ele>19.75</ele><time>2026-05-01T13:34:25Z</time></trkpt><trkpt lat="42.476995277911165" lon="8.68884698682211"><ele>20.5</ele><time>2026-05-01T13:34:26Z</time></trkpt><trkpt lat="42.4769441874367" lon="8.688708308618605"><ele>21.25</ele><time>2026-05-01T13:34:27Z</time></trkpt><trkpt lat="42.47687906840723" lon="8.68856529799867"><ele>22.0</ele><time>2026-05-01T13:34:28Z</time></trkpt><trkpt lat="42.4768081845625" lon="8.688421786155487"><ele>22.0</ele><time>2026-05-01T13:34:29Z</time></trkpt><trkpt lat="42.476741655458696" lon="8.688275358630271"><ele>22.0</ele><time>2026-05-01T13:34:30Z</time></trkpt><trkpt lat="42.47668187482768" lon="8.688123115746203"><ele>22.0</ele><time>2026-05-01T13:34:31Z</time></trkpt><trkpt lat="42.476629888969796" lon="8.687969413585789"><ele>22.0</ele><time>2026-05-01T13:34:32Z</time></trkpt><trkpt lat="42.47658760069817" lon="8.687816627352154"><ele>21.25</ele><time>2026-05-01T13:34:33Z</time></trkpt><trkpt lat="42.47655126131406" lon="8.687662857272137"><ele>20.5</ele><time>2026-05-01T13:34:34Z</time></trkpt><trkpt lat="42.476522970436314" lon="8.687506530408132"><ele>19.75</ele><time>2026-05-01T13:34:35Z</time></trkpt><trkpt lat="42.47650118081895" lon="8.687350006077368"><ele>19.0</ele><time>2026-05-01T13:34:36Z</time></trkpt><trkpt lat="42.476484986445854" lon="8.687188951820193"><ele>19.0</ele><time>2026-05-01T13:34:37Z</time></trkpt><trkpt lat="42.476473363669555" lon="8.687029370782708"><ele>19.0</ele><time>2026-05-01T13:34:38Z</time></trkpt><trkpt lat="42.47646749336515" lon="8.68686165161795"><ele>19.0</ele><time>2026-05-01T13:34:39Z</time></trkpt><trkpt lat="42.47645655248112" lon="8.686703346646867"><ele>19.0</ele><time>2026-05-01T13:34:40Z</time></trkpt><trkpt lat="42.47643863454569" lon="8.686541970340265"><ele>18.75</ele><time>2026-05-01T13:34:41Z</time></trkpt><trkpt lat="42.47641038475332" lon="8.686382072294547"><ele>18.5</ele><time>2026-05-01T13:34:42Z</time></trkpt><trkpt lat="42.476371269819694" lon="8.686221494535603"><ele>18.25</ele><time>2026-05-01T13:34:43Z</time></trkpt><trkpt lat="42.47632322349065" lon="8.686061094334201"><ele>18.0</ele><time>2026-05-01T13:34:44Z</time></trkpt><trkpt lat="42.47626584797285" lon="8.685898944892806"><ele>18.5</ele><time>2026-05-01T13:34:45Z</time></trkpt><trkpt lat="42.47620540541236" lon="8.685737394502521"><ele>19.0</ele><time>2026-05-01T13:34:46Z</time></trkpt><trkpt lat="42.47614473379473" lon="8.685572261754729"><ele>19.5</ele><time>2026-05-01T13:34:47Z</time></trkpt><trkpt lat="42.4760862169671" lon="8.685401388353604"><ele>20.0</ele><time>2026-05-01T13:34:48Z</time></trkpt><trkpt lat="42.47603033239227" lon="8.685228946456904"><ele>20.0</ele><time>2026-05-01T13:34:49Z</time></trkpt><trkpt lat="42.47597383115102" lon="8.68505358221008"><ele>20.0</ele><time>2026-05-01T13:34:50Z</time></trkpt><trkpt lat="42.47591809676015" lon="8.684876046104852"><ele>20.0</ele><time>2026-05-01T13:34:51Z</time></trkpt><trkpt lat="42.475859762710705" lon="8.684697454320862"><ele>20.0</ele><time>2026-05-01T13:34:51.999Z</time></trkpt><trkpt lat="42.475804515550266" lon="8.684517768163808"><ele>18.75</ele><time>2026-05-01T13:34:52.999Z</time></trkpt><trkpt lat="42.475747939816706" lon="8.684352399130677"><ele>17.5</ele><time>2026-05-01T13:34:53.999Z</time></trkpt><trkpt lat="42.475683221141935" lon="8.684206209836594"><ele>16.25</ele><time>2026-05-01T13:34:54.999Z</time></trkpt><trkpt lat="42.47560183666847" lon="8.684099352564136"><ele>15.0</ele><time>2026-05-01T13:34:56Z</time></trkpt><trkpt lat="42.47549855358538" lon="8.684027804796425"><ele>15.5</ele><time>2026-05-01T13:34:57Z</time></trkpt><trkpt lat="42.475378832028895" lon="8.68400222701151"><ele>16.0</ele><time>2026-05-01T13:34:58Z</time></trkpt><trkpt lat="42.47525294821838" lon="8.68400463970458"><ele>16.5</ele><time>2026-05-01T13:34:59Z</time></trkpt><trkpt lat="42.47512654379796" lon="8.684042475274069"><ele>17.0</ele><time>2026-05-01T13:35:00Z</time></trkpt><trkpt lat="42.47499662390353" lon="8.684077586783754"><ele>17.0</ele><time>2026-05-01T13:35:01Z</time></trkpt><trkpt lat="42.47486736432844" lon="8.684108527194393"><ele>17.0</ele><time>2026-05-01T13:35:02Z</time></trkpt><trkpt lat="42.47473691473461" lon="8.684137453658458"><ele>17.0</ele><time>2026-05-01T13:35:03Z</time></trkpt><trkpt lat="42.47460420914322" lon="8.68417163993816"><ele>17.0</ele><time>2026-05-01T13:35:04Z</time></trkpt><trkpt lat="42.47447317141912" lon="8.684205736233443"><ele>16.75</ele><time>2026-05-01T13:35:05Z</time></trkpt><trkpt lat="42.47434059752198" lon="8.684233404024594"><ele>16.5</ele><time>2026-05-01T13:35:06Z</time></trkpt><trkpt lat="42.47421114790823" lon="8.684246372335283"><ele>16.25</ele><time>2026-05-01T13:35:07Z</time></trkpt><trkpt lat="42.47408632202424" lon="8.684241454804539"><ele>16.0</ele><time>2026-05-01T13:35:08Z</time></trkpt><trkpt lat="42.47396080188161" lon="8.684227241701265"><ele>16.0</ele><time>2026-05-01T13:35:09Z</time></trkpt><trkpt lat="42.4738277008131" lon="8.684203823788723"><ele>16.0</ele><time>2026-05-01T13:35:10Z</time></trkpt><trkpt lat="42.47369443330728" lon="8.684192336733263"><ele>16.0</ele><time>2026-05-01T13:35:11Z</time></trkpt><trkpt lat="42.47356519411936" lon="8.68418389972585"><ele>16.0</ele><time>2026-05-01T13:35:12Z</time></trkpt><trkpt lat="42.473457149252496" lon="8.684155909708316"><ele>15.4</ele><time>2026-05-01T13:35:13Z</time></trkpt><trkpt lat="42.47338854026189" lon="8.684095125666005"><ele>14.8</ele><time>2026-05-01T13:35:14Z</time></trkpt><trkpt lat="42.47335505652837" lon="8.683998504268772"><ele>14.200000000000001</ele><time>2026-05-01T13:35:15Z</time></trkpt><trkpt lat="42.473343223298436" lon="8.683875632338468"><ele>13.600000000000001</ele><time>2026-05-01T13:35:16Z</time></trkpt><trkpt lat="42.47332883811698" lon="8.683724596803247"><ele>13.0</ele><time>2026-05-01T13:35:17Z</time></trkpt><trkpt lat="42.473287691484444" lon="8.683564209259815"><ele>13.0</ele><time>2026-05-01T13:35:18Z</time></trkpt><trkpt lat="42.473220323257195" lon="8.683420396006273"><ele>13.0</ele><time>2026-05-01T13:35:19Z</time></trkpt><trkpt lat="42.473140423241844" lon="8.683269301021074"><ele>13.0</ele><time>2026-05-01T13:35:20Z</time></trkpt><trkpt lat="42.47306842921888" lon="8.683115087360934"><ele>13.0</ele><time>2026-05-01T13:35:21Z</time></trkpt><trkpt lat="42.472988278336516" lon="8.682973744044338"><ele>14.5</ele><time>2026-05-01T13:35:22Z</time></trkpt><trkpt lat="42.472885943970226" lon="8.68286275035223"><ele>16.0</ele><time>2026-05-01T13:35:23Z</time></trkpt><trkpt lat="42.47277576849678" lon="8.682761760677382"><ele>17.5</ele><time>2026-05-01T13:35:24Z</time></trkpt><trkpt lat="42.4726841586662" lon="8.682638838834732"><ele>19.0</ele><time>2026-05-01T13:35:25Z</time></trkpt><trkpt lat="42.47261129521777" lon="8.6824815706946"><ele>19.0</ele><time>2026-05-01T13:35:26Z</time></trkpt><trkpt lat="42.47254734713912" lon="8.682317383903122"><ele>19.0</ele><time>2026-05-01T13:35:27Z</time></trkpt><trkpt lat="42.47248235980426" lon="8.68215972657795"><ele>19.0</ele><time>2026-05-01T13:35:28Z</time></trkpt><trkpt lat="42.47240851133113" lon="8.68200864699472"><ele>19.0</ele><time>2026-05-01T13:35:29Z</time></trkpt><trkpt lat="42.472322058077054" lon="8.681877615167682"><ele>18.75</ele><time>2026-05-01T13:35:30Z</time></trkpt><trkpt lat="42.47221622296136" lon="8.681769956093667"><ele>18.5</ele><time>2026-05-01T13:35:31Z</time></trkpt><trkpt lat="42.4720957954509" lon="8.68168737591661"><ele>18.25</ele><time>2026-05-01T13:35:32Z</time></trkpt><trkpt lat="42.47196956116852" lon="8.681611557139036"><ele>18.0</ele><time>2026-05-01T13:35:33Z</time></trkpt><trkpt lat="42.47184312410452" lon="8.68153368273976"><ele>18.0</ele><time>2026-05-01T13:35:34Z</time></trkpt><trkpt lat="42.471719787187766" lon="8.681442388333572"><ele>18.0</ele><time>2026-05-01T13:35:35Z</time></trkpt><trkpt lat="42.47162424415786" lon="8.68138493918064"><ele>18.0</ele><time>2026-05-01T13:35:36Z</time></trkpt><trkpt lat="42.47153730645116" lon="8.68138417366657"><ele>18.0</ele><time>2026-05-01T13:35:37Z</time></trkpt><trkpt lat="42.471451573290096" lon="8.681439619550261"><ele>18.0</ele><time>2026-05-01T13:35:38Z</time></trkpt><trkpt lat="42.47138949997047" lon="8.6815344083089"><ele>18.0</ele><time>2026-05-01T13:35:39Z</time></trkpt><trkpt lat="42.47131373723239" lon="8.681650552884165"><ele>18.0</ele><time>2026-05-01T13:35:40Z</time></trkpt><trkpt lat="42.471244967926516" lon="8.68177486643761"><ele>18.0</ele><time>2026-05-01T13:35:41Z</time></trkpt><trkpt lat="42.47118094093357" lon="8.681916201897133"><ele>18.0</ele><time>2026-05-01T13:35:42Z</time></trkpt><trkpt lat="42.47113198038928" lon="8.682068817355777"><ele>17.5</ele><time>2026-05-01T13:35:43Z</time></trkpt><trkpt lat="42.47108651659717" lon="8.68223219406238"><ele>17.0</ele><time>2026-05-01T13:35:44Z</time></trkpt><trkpt lat="42.47103634543836" lon="8.682393797706737"><ele>16.5</ele><time>2026-05-01T13:35:45Z</time></trkpt><trkpt lat="42.47096694287878" lon="8.682515523427076"><ele>16.0</ele><time>2026-05-01T13:35:46Z</time></trkpt><trkpt lat="42.47088092045954" lon="8.682622006277027"><ele>16.0</ele><time>2026-05-01T13:35:47Z</time></trkpt><trkpt lat="42.47077942584088" lon="8.682701484924138"><ele>16.0</ele><time>2026-05-01T13:35:48Z</time></trkpt><trkpt lat="42.470666521049964" lon="8.68275075362405"><ele>16.0</ele><time>2026-05-01T13:35:49Z</time></trkpt><trkpt lat="42.470557106380454" lon="8.682792488551778"><ele>16.0</ele><time>2026-05-01T13:35:50Z</time></trkpt><trkpt lat="42.47046859251846" lon="8.682870009903453"><ele>16.6</ele><time>2026-05-01T13:35:51Z</time></trkpt><trkpt lat="42.470414951304065" lon="8.682991079190366"><ele>17.200000000000003</ele><time>2026-05-01T13:35:52Z</time></trkpt><trkpt lat="42.470394440195136" lon="8.683143608741894"><ele>17.799999999999997</ele><time>2026-05-01T13:35:53Z</time></trkpt><trkpt lat="42.47038769135312" lon="8.683303146660318"><ele>18.4</ele><time>2026-05-01T13:35:54Z</time></trkpt><trkpt lat="42.47037277415699" lon="8.683453356743843"><ele>19.0</ele><time>2026-05-01T13:35:55Z</time></trkpt><trkpt lat="42.47034879150053" lon="8.683584937770739"><ele>19.0</ele><time>2026-05-01T13:35:56Z</time></trkpt><trkpt lat="42.470308522660964" lon="8.683673707813117"><ele>19.0</ele><time>2026-05-01T13:35:57Z</time></trkpt><trkpt lat="42.470248610129254" lon="8.683706045186298"><ele>19.0</ele><time>2026-05-01T13:35:58Z</time></trkpt><trkpt lat="42.47018324734321" lon="8.683686780458501"><ele>19.0</ele><time>2026-05-01T13:35:59Z</time></trkpt><trkpt lat="42.47011554631556" lon="8.683636257659103"><ele>19.0</ele><time>2026-05-01T13:36:00Z</time></trkpt><trkpt lat="42.470060664379055" lon="8.683549887441988"><ele>19.0</ele><time>2026-05-01T13:36:01Z</time></trkpt><trkpt lat="42.47003537328369" lon="8.683431998750414"><ele>19.0</ele><time>2026-05-01T13:36:02Z</time></trkpt><trkpt lat="42.4700026014255" lon="8.683312007701282"><ele>19.0</ele><time>2026-05-01T13:36:03Z</time></trkpt><trkpt lat="42.46996019900079" lon="8.683189005628345"><ele>19.0</ele><time>2026-05-01T13:36:04Z</time></trkpt><trkpt lat="42.469894473587246" lon="8.68305993147523"><ele>19.0</ele><time>2026-05-01T13:36:05Z</time></trkpt><trkpt lat="42.46980914341622" lon="8.682950836095971"><ele>19.0</ele><time>2026-05-01T13:36:06Z</time></trkpt><trkpt lat="42.469714038104975" lon="8.682857692547461"><ele>19.0</ele><time>2026-05-01T13:36:07Z</time></trkpt><trkpt lat="42.469617574421775" lon="8.682803134076883"><ele>19.0</ele><time>2026-05-01T13:36:08Z</time></trkpt><trkpt lat="42.46952194191908" lon="8.682806936271271"><ele>19.0</ele><time>2026-05-01T13:36:09Z</time></trkpt><trkpt lat="42.469431507868116" lon="8.682868947200145"><ele>19.0</ele><time>2026-05-01T13:36:10Z</time></trkpt><trkpt lat="42.4693359436209" lon="8.682941257151526"><ele>19.0</ele><time>2026-05-01T13:36:11Z</time></trkpt><trkpt lat="42.46922942690805" lon="8.682976482613611"><ele>20.25</ele><time>2026-05-01T13:36:12Z</time></trkpt><trkpt lat="42.46912522616298" lon="8.682947883899525"><ele>21.5</ele><time>2026-05-01T13:36:13Z</time></trkpt><trkpt lat="42.469022936639355" lon="8.682873977934525"><ele>22.75</ele><time>2026-05-01T13:36:14Z</time></trkpt><trkpt lat="42.46893235403739" lon="8.682767512858907"><ele>24.0</ele><time>2026-05-01T13:36:15Z</time></trkpt><trkpt lat="42.46883552005349" lon="8.682665154793296"><ele>23.75</ele><time>2026-05-01T13:36:16Z</time></trkpt><trkpt lat="42.46873609145875" lon="8.682551509015289"><ele>23.5</ele><time>2026-05-01T13:36:17Z</time></trkpt><trkpt lat="42.468643115514425" lon="8.682432599913385"><ele>23.25</ele><time>2026-05-01T13:36:18Z</time></trkpt><trkpt lat="42.468547280512446" lon="8.682322140210749"><ele>23.0</ele><time>2026-05-01T13:36:19Z</time></trkpt><trkpt lat="42.46843963316214" lon="8.682212878696555"><ele>23.0</ele><time>2026-05-01T13:36:20Z</time></trkpt><trkpt lat="42.468321839016184" lon="8.682126487235864"><ele>23.0</ele><time>2026-05-01T13:36:21Z</time></trkpt><trkpt lat="42.46819545456529" lon="8.68207723067813"><ele>23.0</ele><time>2026-05-01T13:36:21.999Z</time></trkpt><trkpt lat="42.46806446729118" lon="8.682059532349644"><ele>23.0</ele><time>2026-05-01T13:36:22.999Z</time></trkpt><trkpt lat="42.46792852051411" lon="8.682074030980502"><ele>23.5</ele><time>2026-05-01T13:36:23.999Z</time></trkpt><trkpt lat="42.467795250473884" lon="8.682117276728066"><ele>24.0</ele><time>2026-05-01T13:36:24.999Z</time></trkpt><trkpt lat="42.46766132770424" lon="8.682170371574214"><ele>24.5</ele><time>2026-05-01T13:36:25.999Z</time></trkpt><trkpt lat="42.467528617463216" lon="8.68222438907824"><ele>25.0</ele><time>2026-05-01T13:36:26.999Z</time></trkpt><trkpt lat="42.4673923029378" lon="8.682268852874818"><ele>25.0</ele><time>2026-05-01T13:36:27.999Z</time></trkpt><trkpt lat="42.46726508003255" lon="8.682297639732157"><ele>25.0</ele><time>2026-05-01T13:36:28.999Z</time></trkpt><trkpt lat="42.46714097403178" lon="8.682293731264604"><ele>25.0</ele><time>2026-05-01T13:36:29.999Z</time></trkpt><trkpt lat="42.467012559408566" lon="8.682255637281665"><ele>25.0</ele><time>2026-05-01T13:36:30.999Z</time></trkpt><trkpt lat="42.46688778732967" lon="8.682195705095857"><ele>26.0</ele><time>2026-05-01T13:36:31.999Z</time></trkpt><trkpt lat="42.46675859364969" lon="8.68214353320873"><ele>27.0</ele><time>2026-05-01T13:36:32.999Z</time></trkpt><trkpt lat="42.46662906440497" lon="8.68209049009955"><ele>28.0</ele><time>2026-05-01T13:36:33.999Z</time></trkpt><trkpt lat="42.46649967756569" lon="8.682029595168748"><ele>29.0</ele><time>2026-05-01T13:36:34.999Z</time></trkpt><trkpt lat="42.46637212272411" lon="8.681936192453579"><ele>25.5</ele><time>2026-05-01T13:36:35.999Z</time></trkpt><trkpt lat="42.46624959233431" lon="8.681828922443405"><ele>22.0</ele><time>2026-05-01T13:36:36.999Z</time></trkpt><trkpt lat="42.46613682725712" lon="8.681727158792599"><ele>18.5</ele><time>2026-05-01T13:36:37.999Z</time></trkpt><trkpt lat="42.466027362006166" lon="8.6816533312665"><ele>15.0</ele><time>2026-05-01T13:36:38.999Z</time></trkpt><trkpt lat="42.46591640801112" lon="8.68163307630134"><ele>15.0</ele><time>2026-05-01T13:36:39.999Z</time></trkpt><trkpt lat="42.465808198372585" lon="8.681664848954755"><ele>15.0</ele><time>2026-05-01T13:36:40.999Z</time></trkpt><trkpt lat="42.46571578451836" lon="8.681749766922252"><ele>15.0</ele><time>2026-05-01T13:36:41.999Z</time></trkpt><trkpt lat="42.465633527561636" lon="8.681867279960384"><ele>15.0</ele><time>2026-05-01T13:36:42.999Z</time></trkpt><trkpt lat="42.46555118537146" lon="8.681997351694166"><ele>15.5</ele><time>2026-05-01T13:36:43.999Z</time></trkpt><trkpt lat="42.465469712732215" lon="8.682138181625172"><ele>16.0</ele><time>2026-05-01T13:36:44.999Z</time></trkpt><trkpt lat="42.46539164557094" lon="8.682285593142845"><ele>16.5</ele><time>2026-05-01T13:36:45.999Z</time></trkpt><trkpt lat="42.46530907858254" lon="8.682414462018961"><ele>17.0</ele><time>2026-05-01T13:36:46.999Z</time></trkpt><trkpt lat="42.46521691864985" lon="8.682511233481709"><ele>17.0</ele><time>2026-05-01T13:36:47.999Z</time></trkpt><trkpt lat="42.46511395388194" lon="8.682574728485628"><ele>17.0</ele><time>2026-05-01T13:36:48.999Z</time></trkpt><trkpt lat="42.46502578677309" lon="8.682620734932367"><ele>17.0</ele><time>2026-05-01T13:36:49.999Z</time></trkpt><trkpt lat="42.46493411561279" lon="8.682684184686021"><ele>17.0</ele><time>2026-05-01T13:36:50.999Z</time></trkpt><trkpt lat="42.4648449441176" lon="8.682744986366579"><ele>17.0</ele><time>2026-05-01T13:36:51.999Z</time></trkpt><trkpt lat="42.464753259927114" lon="8.682793603809278"><ele>18.2</ele><time>2026-05-01T13:36:52.999Z</time></trkpt><trkpt lat="42.46466400258844" lon="8.682852822112565"><ele>19.4</ele><time>2026-05-01T13:36:53.999Z</time></trkpt><trkpt lat="42.464575805067504" lon="8.682912277825423"><ele>20.599999999999998</ele><time>2026-05-01T13:36:54.999Z</time></trkpt><trkpt lat="42.46448466670432" lon="8.682983339223965"><ele>21.799999999999997</ele><time>2026-05-01T13:36:55.999Z</time></trkpt><trkpt lat="42.464403446628275" lon="8.683074385255699"><ele>23.0</ele><time>2026-05-01T13:36:56.999Z</time></trkpt><trkpt lat="42.464326715043136" lon="8.683183479533659"><ele>23.0</ele><time>2026-05-01T13:36:57.999Z</time></trkpt><trkpt lat="42.464258792747295" lon="8.68328330346668"><ele>23.0</ele><time>2026-05-01T13:36:58.999Z</time></trkpt><trkpt lat="42.46419491012605" lon="8.683370238062055"><ele>23.0</ele><time>2026-05-01T13:36:59.999Z</time></trkpt><trkpt lat="42.46411856429258" lon="8.683422849796605"><ele>23.0</ele><time>2026-05-01T13:37:00.999Z</time></trkpt><trkpt lat="42.46403278883076" lon="8.683428055830298"><ele>23.0</ele><time>2026-05-01T13:37:02Z</time></trkpt><trkpt lat="42.46395278418026" lon="8.683382959296548"><ele>23.0</ele><time>2026-05-01T13:37:03Z</time></trkpt><trkpt lat="42.4638843733803" lon="8.683324192960812"><ele>23.0</ele><time>2026-05-01T13:37:04Z</time></trkpt><trkpt lat="42.46381663188619" lon="8.683263075474434"><ele>23.0</ele><time>2026-05-01T13:37:05Z</time></trkpt><trkpt lat="42.46376107883343" lon="8.683183680210863"><ele>23.0</ele><time>2026-05-01T13:37:06Z</time></trkpt><trkpt lat="42.46373847504508" lon="8.68307654295176"><ele>23.0</ele><time>2026-05-01T13:37:07Z</time></trkpt><trkpt lat="42.463743461259995" lon="8.682971144342286"><ele>23.0</ele><time>2026-05-01T13:37:08Z</time></trkpt><trkpt lat="42.463764992450734" lon="8.682863636621228"><ele>23.0</ele><time>2026-05-01T13:37:09Z</time></trkpt><trkpt lat="42.46378799850638" lon="8.682760150806034"><ele>22.4</ele><time>2026-05-01T13:37:10Z</time></trkpt><trkpt lat="42.46380826993207" lon="8.682648560256945"><ele>21.799999999999997</ele><time>2026-05-01T13:37:11Z</time></trkpt><trkpt lat="42.46382897251077" lon="8.682538335821452"><ele>21.2</ele><time>2026-05-01T13:37:12Z</time></trkpt><trkpt lat="42.463854579219394" lon="8.682415388569757"><ele>20.6</ele><time>2026-05-01T13:37:13Z</time></trkpt><trkpt lat="42.46387443727522" lon="8.682291730739697"><ele>20.0</ele><time>2026-05-01T13:37:14Z</time></trkpt><trkpt lat="42.4638898986432" lon="8.682161360292652"><ele>20.0</ele><time>2026-05-01T13:37:15Z</time></trkpt><trkpt lat="42.463904242784615" lon="8.682031477985957"><ele>20.0</ele><time>2026-05-01T13:37:16Z</time></trkpt><trkpt lat="42.4639074536694" lon="8.681906991742707"><ele>20.0</ele><time>2026-05-01T13:37:17Z</time></trkpt><trkpt lat="42.46389823759861" lon="8.68177397113966"><ele>20.0</ele><time>2026-05-01T13:37:18Z</time></trkpt><trkpt lat="42.463885315203775" lon="8.681635869428531"><ele>20.0</ele><time>2026-05-01T13:37:19Z</time></trkpt><trkpt lat="42.463886278341974" lon="8.681504959048931"><ele>20.333333333333336</ele><time>2026-05-01T13:37:20Z</time></trkpt><trkpt lat="42.463918803473206" lon="8.68141679134361"><ele>20.666666666666668</ele><time>2026-05-01T13:37:21Z</time></trkpt><trkpt lat="42.463980406377374" lon="8.681375852915126"><ele>21.0</ele><time>2026-05-01T13:37:22Z</time></trkpt><trkpt lat="42.46406501234473" lon="8.681375516269407"><ele>21.333333333333332</ele><time>2026-05-01T13:37:23Z</time></trkpt><trkpt lat="42.46415735846078" lon="8.68137863833153"><ele>21.666666666666664</ele><time>2026-05-01T13:37:24Z</time></trkpt><trkpt lat="42.46424302641702" lon="8.681340310636942"><ele>22.0</ele><time>2026-05-01T13:37:25Z</time></trkpt><trkpt lat="42.464314818305155" lon="8.681262467301357"><ele>22.0</ele><time>2026-05-01T13:37:26Z</time></trkpt><trkpt lat="42.464376240408974" lon="8.681159549910967"><ele>22.0</ele><time>2026-05-01T13:37:27Z</time></trkpt><trkpt lat="42.464433435110244" lon="8.68105221344475"><ele>22.0</ele><time>2026-05-01T13:37:28Z</time></trkpt><trkpt lat="42.46448299215591" lon="8.680941940149433"><ele>22.0</ele><time>2026-05-01T13:37:29Z</time></trkpt><trkpt lat="42.46450641465467" lon="8.680822782954971"><ele>22.0</ele><time>2026-05-01T13:37:30Z</time></trkpt><trkpt lat="42.46450113596457" lon="8.680689578789996"><ele>24.200000000000003</ele><time>2026-05-01T13:37:31Z</time></trkpt><trkpt lat="42.464467631578785" lon="8.680559240061788"><ele>26.4</ele><time>2026-05-01T13:37:32Z</time></trkpt><trkpt lat="42.46443181118114" lon="8.680433820043644"><ele>28.599999999999998</ele><time>2026-05-01T13:37:33Z</time></trkpt><trkpt lat="42.46443415139753" lon="8.680323373405749"><ele>30.799999999999997</ele><time>2026-05-01T13:37:34Z</time></trkpt><trkpt lat="42.46448317116779" lon="8.680230036064296"><ele>33.0</ele><time>2026-05-01T13:37:35Z</time></trkpt><trkpt lat="42.46455876038466" lon="8.68015644916253"><ele>31.4</ele><time>2026-05-01T13:37:36Z</time></trkpt><trkpt lat="42.46462794124972" lon="8.680070523338973"><ele>29.799999999999997</ele><time>2026-05-01T13:37:37Z</time></trkpt><trkpt lat="42.46465532505513" lon="8.679939672266721"><ele>28.2</ele><time>2026-05-01T13:37:38Z</time></trkpt><trkpt lat="42.46463974911199" lon="8.679795502043856"><ele>26.6</ele><time>2026-05-01T13:37:39Z</time></trkpt><trkpt lat="42.4645971576318" lon="8.679655477470053"><ele>25.0</ele><time>2026-05-01T13:37:40Z</time></trkpt><trkpt lat="42.46456641374418" lon="8.679523450893136"><ele>25.4</ele><time>2026-05-01T13:37:41Z</time></trkpt><trkpt lat="42.46456401718499" lon="8.679386721254374"><ele>25.8</ele><time>2026-05-01T13:37:42Z</time></trkpt><trkpt lat="42.46459673752976" lon="8.67925226538691"><ele>26.200000000000003</ele><time>2026-05-01T13:37:43Z</time></trkpt><trkpt lat="42.46466570509447" lon="8.679148901212038"><ele>26.6</ele><time>2026-05-01T13:37:44Z</time></trkpt><trkpt lat="42.46474959776522" lon="8.679055069857876"><ele>27.0</ele><time>2026-05-01T13:37:45Z</time></trkpt><trkpt lat="42.46479860827696" lon="8.678938735075217"><ele>27.0</ele><time>2026-05-01T13:37:46Z</time></trkpt><trkpt lat="42.464788579807475" lon="8.678797326092385"><ele>27.000000000000004</ele><time>2026-05-01T13:37:47Z</time></trkpt><trkpt lat="42.46475679777497" lon="8.67866399038015"><ele>27.000000000000004</ele><time>2026-05-01T13:37:48Z</time></trkpt><trkpt lat="42.46470276747946" lon="8.678564560145606"><ele>27.0</ele><time>2026-05-01T13:37:49Z</time></trkpt><trkpt lat="42.46462770077004" lon="8.67848326083132"><ele>27.0</ele><time>2026-05-01T13:37:50Z</time></trkpt><trkpt lat="42.464538281649304" lon="8.67841009170579"><ele>30.400000000000002</ele><time>2026-05-01T13:37:51Z</time></trkpt><trkpt lat="42.4644503680827" lon="8.678341070695064"><ele>33.800000000000004</ele><time>2026-05-01T13:37:52Z</time></trkpt><trkpt lat="42.464381411313354" lon="8.678249975762995"><ele>37.2</ele><time>2026-05-01T13:37:53Z</time></trkpt><trkpt lat="42.4643621152882" lon="8.678128009344663"><ele>40.6</ele><time>2026-05-01T13:37:54Z</time></trkpt><trkpt lat="42.464388261554014" lon="8.6780023985271"><ele>44.0</ele><time>2026-05-01T13:37:55Z</time></trkpt><trkpt lat="42.46445911086283" lon="8.677896913284847"><ele>44.0</ele><time>2026-05-01T13:37:56Z</time></trkpt><trkpt lat="42.464545662458185" lon="8.677811901248578"><ele>44.0</ele><time>2026-05-01T13:37:57Z</time></trkpt><trkpt lat="42.46461752397723" lon="8.677710206726882"><ele>44.0</ele><time>2026-05-01T13:37:58Z</time></trkpt><trkpt lat="42.46465111935438" lon="8.677577797630745"><ele>44.0</ele><time>2026-05-01T13:37:59Z</time></trkpt><trkpt lat="42.46463679214514" lon="8.677438972783923"><ele>44.0</ele><time>2026-05-01T13:38:00Z</time></trkpt><trkpt lat="42.46459059630201" lon="8.677296769708391"><ele>44.25</ele><time>2026-05-01T13:38:01Z</time></trkpt><trkpt lat="42.46451839269941" lon="8.677170428726164"><ele>44.5</ele><time>2026-05-01T13:38:02Z</time></trkpt><trkpt lat="42.46444116927763" lon="8.677050548676219"><ele>44.75</ele><time>2026-05-01T13:38:03Z</time></trkpt><trkpt lat="42.46436438950287" lon="8.676936589260775"><ele>45.0</ele><time>2026-05-01T13:38:04Z</time></trkpt><trkpt lat="42.46427794321675" lon="8.676840846178049"><ele>45.0</ele><time>2026-05-01T13:38:05Z</time></trkpt><trkpt lat="42.464189465574115" lon="8.676802702954303"><ele>45.0</ele><time>2026-05-01T13:38:06Z</time></trkpt><trkpt lat="42.46409087843397" lon="8.67681802894846"><ele>45.0</ele><time>2026-05-01T13:38:07Z</time></trkpt><trkpt lat="42.46397955127109" lon="8.6768592448018"><ele>45.0</ele><time>2026-05-01T13:38:08Z</time></trkpt><trkpt lat="42.46387239092825" lon="8.67690525491776"><ele>45.0</ele><time>2026-05-01T13:38:09Z</time></trkpt><trkpt lat="42.463759468986794" lon="8.676931374648127"><ele>45.0</ele><time>2026-05-01T13:38:10Z</time></trkpt><trkpt lat="42.463650157421114" lon="8.676932520479173"><ele>45.0</ele><time>2026-05-01T13:38:11Z</time></trkpt><trkpt lat="42.463535324909145" lon="8.676914863618546"><ele>45.0</ele><time>2026-05-01T13:38:12Z</time></trkpt><trkpt lat="42.46342842505136" lon="8.676859483206321"><ele>45.0</ele><time>2026-05-01T13:38:13Z</time></trkpt><trkpt lat="42.46332226228821" lon="8.676789304552425"><ele>45.0</ele><time>2026-05-01T13:38:14Z</time></trkpt><trkpt lat="42.46321427802955" lon="8.676733696386917"><ele>45.0</ele><time>2026-05-01T13:38:15Z</time></trkpt><trkpt lat="42.46309736142746" lon="8.676690623560011"><ele>45.0</ele><time>2026-05-01T13:38:16Z</time></trkpt><trkpt lat="42.462983390273" lon="8.676645392496807"><ele>45.0</ele><time>2026-05-01T13:38:17Z</time></trkpt><trkpt lat="42.46286778882835" lon="8.676592427617273"><ele>49.0</ele><time>2026-05-01T13:38:18Z</time></trkpt><trkpt lat="42.46276012158043" lon="8.676511839656358"><ele>53.0</ele><time>2026-05-01T13:38:19Z</time></trkpt><trkpt lat="42.462660626894554" lon="8.676393920949826"><ele>57.0</ele><time>2026-05-01T13:38:20Z</time></trkpt><trkpt lat="42.46256353260515" lon="8.67626039807689"><ele>61.0</ele><time>2026-05-01T13:38:21Z</time></trkpt><trkpt lat="42.4624746811341" lon="8.676140729548306"><ele>61.0</ele><time>2026-05-01T13:38:22Z</time></trkpt><trkpt lat="42.462364554612165" lon="8.676046931389688"><ele>61.0</ele><time>2026-05-01T13:38:23Z</time></trkpt><trkpt lat="42.462241654244956" lon="8.675978526515042"><ele>61.0</ele><time>2026-05-01T13:38:24Z</time></trkpt><trkpt lat="42.462109957705756" lon="8.675922739770753"><ele>61.0</ele><time>2026-05-01T13:38:25Z</time></trkpt><trkpt lat="42.46197490125463" lon="8.675869206146611"><ele>61.0</ele><time>2026-05-01T13:38:26Z</time></trkpt><trkpt lat="42.46184429521044" lon="8.675811167559196"><ele>61.0</ele><time>2026-05-01T13:38:27Z</time></trkpt><trkpt lat="42.4617265174648" lon="8.675756216311726"><ele>61.0</ele><time>2026-05-01T13:38:28Z</time></trkpt><trkpt lat="42.46162690733726" lon="8.67570223014671"><ele>61.0</ele><time>2026-05-01T13:38:29Z</time></trkpt><trkpt lat="42.46154682888483" lon="8.67561589341281"><ele>61.0</ele><time>2026-05-01T13:38:30Z</time></trkpt><trkpt lat="42.46150359424212" lon="8.675497387700368"><ele>60.99999999999999</ele><time>2026-05-01T13:38:31Z</time></trkpt><trkpt lat="42.46149092077217" lon="8.67535637831824"><ele>60.99999999999999</ele><time>2026-05-01T13:38:32Z</time></trkpt><trkpt lat="42.46150001873934" lon="8.675200490408375"><ele>61.0</ele><time>2026-05-01T13:38:33Z</time></trkpt><trkpt lat="42.46152113057165" lon="8.675054538977102"><ele>61.0</ele><time>2026-05-01T13:38:34Z</time></trkpt><trkpt lat="42.46151019155447" lon="8.674884709807861"><ele>58.5</ele><time>2026-05-01T13:38:35Z</time></trkpt><trkpt lat="42.46148073628801" lon="8.674714987427471"><ele>56.0</ele><time>2026-05-01T13:38:36Z</time></trkpt><trkpt lat="42.46143300112281" lon="8.674548399750904"><ele>53.5</ele><time>2026-05-01T13:38:37Z</time></trkpt><trkpt lat="42.46137565929859" lon="8.674388947893808"><ele>51.0</ele><time>2026-05-01T13:38:38Z</time></trkpt><trkpt lat="42.4613147943372" lon="8.674230580598712"><ele>55.5</ele><time>2026-05-01T13:38:39Z</time></trkpt><trkpt lat="42.461244362190655" lon="8.674076704435915"><ele>60.0</ele><time>2026-05-01T13:38:40Z</time></trkpt><trkpt lat="42.46116082843752" lon="8.673934550603716"><ele>64.5</ele><time>2026-05-01T13:38:41Z</time></trkpt><trkpt lat="42.46105587556459" lon="8.673814607846213"><ele>69.0</ele><time>2026-05-01T13:38:42Z</time></trkpt><trkpt lat="42.460937553728186" lon="8.67371457980565"><ele>69.0</ele><time>2026-05-01T13:38:43Z</time></trkpt><trkpt lat="42.46081428728243" lon="8.673620005318863"><ele>69.0</ele><time>2026-05-01T13:38:44Z</time></trkpt><trkpt lat="42.46068998539277" lon="8.67353626745707"><ele>69.0</ele><time>2026-05-01T13:38:45Z</time></trkpt><trkpt lat="42.46056278818943" lon="8.673465938352045"><ele>69.0</ele><time>2026-05-01T13:38:46Z</time></trkpt><trkpt lat="42.46044237328377" lon="8.673422621804736"><ele>69.60000000000001</ele><time>2026-05-01T13:38:47Z</time></trkpt><trkpt lat="42.46033699561087" lon="8.673419711497994"><ele>70.2</ele><time>2026-05-01T13:38:48Z</time></trkpt><trkpt lat="42.460248972487754" lon="8.67347315673441"><ele>70.80000000000001</ele><time>2026-05-01T13:38:49Z</time></trkpt><trkpt lat="42.460188136577365" lon="8.673585072273939"><ele>71.4</ele><time>2026-05-01T13:38:50Z</time></trkpt><trkpt lat="42.46013626902057" lon="8.673714305758846"><ele>72.0</ele><time>2026-05-01T13:38:51Z</time></trkpt><trkpt lat="42.460075300181835" lon="8.673856847473225"><ele>72.0</ele><time>2026-05-01T13:38:52Z</time></trkpt><trkpt lat="42.46000479342685" lon="8.673996154823364"><ele>72.0</ele><time>2026-05-01T13:38:53Z</time></trkpt><trkpt lat="42.45993256353214" lon="8.674105193844639"><ele>72.0</ele><time>2026-05-01T13:38:54Z</time></trkpt><trkpt lat="42.45985490776808" lon="8.674184102690711"><ele>72.0</ele><time>2026-05-01T13:38:55Z</time></trkpt><trkpt lat="42.45977371040916" lon="8.674188097416693"><ele>72.0</ele><time>2026-05-01T13:38:55.999Z</time></trkpt><trkpt lat="42.45971690862503" lon="8.67412038693873"><ele>72.0</ele><time>2026-05-01T13:38:56.999Z</time></trkpt><trkpt lat="42.45968480294555" lon="8.674006368696459"><ele>72.0</ele><time>2026-05-01T13:38:57.999Z</time></trkpt><trkpt lat="42.45966801204269" lon="8.673868926950059"><ele>72.0</ele><time>2026-05-01T13:38:58.999Z</time></trkpt><trkpt lat="42.45964162459588" lon="8.673717632253021"><ele>72.0</ele><time>2026-05-01T13:38:59.999Z</time></trkpt><trkpt lat="42.45960115632391" lon="8.673577398972846"><ele>72.0</ele><time>2026-05-01T13:39:00.999Z</time></trkpt><trkpt lat="42.45954546004114" lon="8.673448381475943"><ele>72.25</ele><time>2026-05-01T13:39:01.999Z</time></trkpt><trkpt lat="42.45947121047677" lon="8.673337057852322"><ele>72.5</ele><time>2026-05-01T13:39:02.999Z</time></trkpt><trkpt lat="42.45937556378742" lon="8.673256450538414"><ele>72.75</ele><time>2026-05-01T13:39:03.999Z</time></trkpt><trkpt lat="42.45926377739008" lon="8.673218007810496"><ele>73.0</ele><time>2026-05-01T13:39:04.999Z</time></trkpt><trkpt lat="42.459155304331055" lon="8.673251118167098"><ele>73.0</ele><time>2026-05-01T13:39:05.999Z</time></trkpt><trkpt lat="42.4590559103711" lon="8.673300887533289"><ele>73.0</ele><time>2026-05-01T13:39:06.999Z</time></trkpt><trkpt lat="42.4589593708298" lon="8.67330386947652"><ele>73.0</ele><time>2026-05-01T13:39:08Z</time></trkpt><trkpt lat="42.458888570999186" lon="8.67324051918379"><ele>73.0</ele><time>2026-05-01T13:39:09Z</time></trkpt><trkpt lat="42.45886034938129" lon="8.67312317443948"><ele>73.0</ele><time>2026-05-01T13:39:10Z</time></trkpt><trkpt lat="42.458876085824876" lon="8.672984725983946"><ele>73.0</ele><time>2026-05-01T13:39:11Z</time></trkpt><trkpt lat="42.45888330791608" lon="8.672827822202507"><ele>73.0</ele><time>2026-05-01T13:39:12Z</time></trkpt><trkpt lat="42.45886877643911" lon="8.672668002857511"><ele>73.0</ele><time>2026-05-01T13:39:13Z</time></trkpt><trkpt lat="42.4588323696308" lon="8.672516595785131"><ele>73.0</ele><time>2026-05-01T13:39:14Z</time></trkpt><trkpt lat="42.458772026949646" lon="8.672378117800507"><ele>75.5</ele><time>2026-05-01T13:39:15Z</time></trkpt><trkpt lat="42.45868502973553" lon="8.672263419941386"><ele>78.0</ele><time>2026-05-01T13:39:16Z</time></trkpt><trkpt lat="42.45858127269192" lon="8.672187901964334"><ele>80.5</ele><time>2026-05-01T13:39:17Z</time></trkpt><trkpt lat="42.45846413469164" lon="8.672160029602335"><ele>83.0</ele><time>2026-05-01T13:39:18Z</time></trkpt><trkpt lat="42.45833879514757" lon="8.672169247285757"><ele>83.0</ele><time>2026-05-01T13:39:19Z</time></trkpt><trkpt lat="42.45821914151343" lon="8.672217481145816"><ele>83.0</ele><time>2026-05-01T13:39:20Z</time></trkpt><trkpt lat="42.45810966095794" lon="8.67227461582378"><ele>83.0</ele><time>2026-05-01T13:39:21Z</time></trkpt><trkpt lat="42.45800598895079" lon="8.67230779826557"><ele>83.0</ele><time>2026-05-01T13:39:22Z</time></trkpt><trkpt lat="42.457895982281606" lon="8.672311246448649"><ele>83.0</ele><time>2026-05-01T13:39:23Z</time></trkpt><trkpt lat="42.45780372609968" lon="8.67225837505848"><ele>83.0</ele><time>2026-05-01T13:39:24Z</time></trkpt><trkpt lat="42.45774595188674" lon="8.672159422260803"><ele>83.0</ele><time>2026-05-01T13:39:25Z</time></trkpt><trkpt lat="42.45773248445769" lon="8.672028143705866"><ele>83.0</ele><time>2026-05-01T13:39:26Z</time></trkpt><trkpt lat="42.45773466247138" lon="8.671877090005038"><ele>83.0</ele><time>2026-05-01T13:39:27Z</time></trkpt><trkpt lat="42.45773695626446" lon="8.671719864989198"><ele>83.0</ele><time>2026-05-01T13:39:28Z</time></trkpt><trkpt lat="42.45770900601446" lon="8.671578093734473"><ele>83.0</ele><time>2026-05-01T13:39:29Z</time></trkpt><trkpt lat="42.457630137295325" lon="8.671471150919226"><ele>83.0</ele><time>2026-05-01T13:39:30Z</time></trkpt><trkpt lat="42.457516955886966" lon="8.671423145755101"><ele>83.0</ele><time>2026-05-01T13:39:31Z</time></trkpt><trkpt lat="42.45739853695281" lon="8.671453668085944"><ele>83.0</ele><time>2026-05-01T13:39:32Z</time></trkpt><trkpt lat="42.45728598727069" lon="8.671517484025014"><ele>83.0</ele><time>2026-05-01T13:39:33Z</time></trkpt><trkpt lat="42.45717217648554" lon="8.67158731609111"><ele>83.0</ele><time>2026-05-01T13:39:34Z</time></trkpt><trkpt lat="42.45704980093878" lon="8.671638437642336"><ele>83.0</ele><time>2026-05-01T13:39:35Z</time></trkpt><trkpt lat="42.45692071716404" lon="8.671681513017926"><ele>83.0</ele><time>2026-05-01T13:39:36Z</time></trkpt><trkpt lat="42.45678493545295" lon="8.671719226960045"><ele>83.0</ele><time>2026-05-01T13:39:37Z</time></trkpt><trkpt lat="42.45665002219721" lon="8.671749747400487"><ele>83.0</ele><time>2026-05-01T13:39:38Z</time></trkpt><trkpt lat="42.45651855342042" lon="8.67178161619482"><ele>83.0</ele><time>2026-05-01T13:39:39Z</time></trkpt><trkpt lat="42.456397901496196" lon="8.67181516626523"><ele>81.75</ele><time>2026-05-01T13:39:40Z</time></trkpt><trkpt lat="42.45628210980552" lon="8.671872715911205"><ele>80.5</ele><time>2026-05-01T13:39:41Z</time></trkpt><trkpt lat="42.45618431081474" lon="8.671971862946695"><ele>79.25</ele><time>2026-05-01T13:39:42Z</time></trkpt><trkpt lat="42.45610632644198" lon="8.672107685068733"><ele>78.0</ele><time>2026-05-01T13:39:43Z</time></trkpt><trkpt lat="42.45606666292574" lon="8.672266702987123"><ele>81.0</ele><time>2026-05-01T13:39:44Z</time></trkpt><trkpt lat="42.4560522004098" lon="8.672439863062106"><ele>84.0</ele><time>2026-05-01T13:39:45Z</time></trkpt><trkpt lat="42.45605992167972" lon="8.672604501211893"><ele>87.0</ele><time>2026-05-01T13:39:46Z</time></trkpt><trkpt lat="42.45605759783214" lon="8.672763312763282"><ele>90.0</ele><time>2026-05-01T13:39:47Z</time></trkpt><trkpt lat="42.45604578748128" lon="8.672884593203838"><ele>92.8</ele><time>2026-05-01T13:39:48Z</time></trkpt><trkpt lat="42.45601241703528" lon="8.673038667716462"><ele>95.6</ele><time>2026-05-01T13:39:50Z</time></trkpt><trkpt lat="42.45592602292467" lon="8.673123032060463"><ele>98.4</ele><time>2026-05-01T13:39:52Z</time></trkpt><trkpt lat="42.45583678444235" lon="8.673107555343785"><ele>101.2</ele><time>2026-05-01T13:39:54Z</time></trkpt><trkpt lat="42.455724112740974" lon="8.67307204340057"><ele>104.0</ele><time>2026-05-01T13:39:56Z</time></trkpt><trkpt lat="42.455603016885874" lon="8.673027217700898"><ele>103.99999999999999</ele><time>2026-05-01T13:39:58Z</time></trkpt><trkpt lat="42.45550864424898" lon="8.672912543698155"><ele>104.0</ele><time>2026-05-01T13:40:00Z</time></trkpt><trkpt lat="42.455477459626536" lon="8.672825624717653"><ele>104.0</ele><time>2026-05-01T13:40:01Z</time></trkpt><trkpt lat="42.455449992565136" lon="8.672727910787442"><ele>104.0</ele><time>2026-05-01T13:40:02Z</time></trkpt><trkpt lat="42.45540184736047" lon="8.67264411548205"><ele>103.99999999999999</ele><time>2026-05-01T13:40:03Z</time></trkpt><trkpt lat="42.45532966885247" lon="8.672580786713466"><ele>104.0</ele><time>2026-05-01T13:40:04Z</time></trkpt><trkpt lat="42.4552528805366" lon="8.672528595666229"><ele>103.66666666666666</ele><time>2026-05-01T13:40:05Z</time></trkpt><trkpt lat="42.455188866436345" lon="8.672474357008655"><ele>103.33333333333333</ele><time>2026-05-01T13:40:06Z</time></trkpt><trkpt lat="42.45515970511459" lon="8.672379565997765"><ele>103.0</ele><time>2026-05-01T13:40:07Z</time></trkpt><trkpt lat="42.455147965687395" lon="8.672265794248029"><ele>102.66666666666666</ele><time>2026-05-01T13:40:08Z</time></trkpt><trkpt lat="42.455149488768356" lon="8.672152142004862"><ele>102.33333333333333</ele><time>2026-05-01T13:40:09Z</time></trkpt><trkpt lat="42.455140140711215" lon="8.672032373306845"><ele>102.0</ele><time>2026-05-01T13:40:10Z</time></trkpt><trkpt lat="42.45511003221961" lon="8.671914368278289"><ele>99.6</ele><time>2026-05-01T13:40:11Z</time></trkpt><trkpt lat="42.455057852396344" lon="8.671799416367678"><ele>97.19999999999999</ele><time>2026-05-01T13:40:12Z</time></trkpt><trkpt lat="42.454987235176596" lon="8.671712322142017"><ele>94.8</ele><time>2026-05-01T13:40:13Z</time></trkpt><trkpt lat="42.45489922432878" lon="8.671660341010607"><ele>92.4</ele><time>2026-05-01T13:40:14Z</time></trkpt><trkpt lat="42.454802864657296" lon="8.671669711180764"><ele>90.0</ele><time>2026-05-01T13:40:15Z</time></trkpt><trkpt lat="42.454719415349174" lon="8.671749455970648"><ele>90.0</ele><time>2026-05-01T13:40:16Z</time></trkpt><trkpt lat="42.45464346456784" lon="8.671844464057015"><ele>90.0</ele><time>2026-05-01T13:40:17Z</time></trkpt><trkpt lat="42.45455663248232" lon="8.67192812192192"><ele>90.0</ele><time>2026-05-01T13:40:18Z</time></trkpt><trkpt lat="42.45446018725086" lon="8.672007502741595"><ele>90.0</ele><time>2026-05-01T13:40:19Z</time></trkpt><trkpt lat="42.454368142377476" lon="8.672086711511334"><ele>90.0</ele><time>2026-05-01T13:40:20Z</time></trkpt><trkpt lat="42.454281535548276" lon="8.6721753079312"><ele>93.4</ele><time>2026-05-01T13:40:21Z</time></trkpt><trkpt lat="42.45421216802228" lon="8.672271830190311"><ele>96.8</ele><time>2026-05-01T13:40:22Z</time></trkpt><trkpt lat="42.45415049234495" lon="8.672382034170786"><ele>100.19999999999999</ele><time>2026-05-01T13:40:23Z</time></trkpt><trkpt lat="42.454095837761024" lon="8.672482878608108"><ele>103.6</ele><time>2026-05-01T13:40:24Z</time></trkpt><trkpt lat="42.4540172924497" lon="8.672534095528645"><ele>107.0</ele><time>2026-05-01T13:40:25Z</time></trkpt><trkpt lat="42.453926180285706" lon="8.672512977820292"><ele>107.0</ele><time>2026-05-01T13:40:26Z</time></trkpt><trkpt lat="42.45384610290728" lon="8.672439586683922"><ele>106.99999999999999</ele><time>2026-05-01T13:40:27Z</time></trkpt><trkpt lat="42.45378219993025" lon="8.672321833694527"><ele>106.99999999999999</ele><time>2026-05-01T13:40:28Z</time></trkpt><trkpt lat="42.45372237182622" lon="8.672190313251129"><ele>107.0</ele><time>2026-05-01T13:40:29Z</time></trkpt><trkpt lat="42.45364307998595" lon="8.672090555627074"><ele>107.0</ele><time>2026-05-01T13:40:30Z</time></trkpt><trkpt lat="42.45353030583991" lon="8.672025124318115"><ele>105.39999999999999</ele><time>2026-05-01T13:40:31Z</time></trkpt><trkpt lat="42.45341683896467" lon="8.671981965426864"><ele>103.79999999999998</ele><time>2026-05-01T13:40:32Z</time></trkpt><trkpt lat="42.45331951299831" lon="8.671903283500532"><ele>102.2</ele><time>2026-05-01T13:40:33Z</time></trkpt><trkpt lat="42.45324419613822" lon="8.671790886057106"><ele>100.6</ele><time>2026-05-01T13:40:34Z</time></trkpt><trkpt lat="42.45317912011006" lon="8.671691163897687"><ele>99.0</ele><time>2026-05-01T13:40:35Z</time></trkpt><trkpt lat="42.45309692673175" lon="8.671659112066381"><ele>99.0</ele><time>2026-05-01T13:40:36Z</time></trkpt><trkpt lat="42.45300337577991" lon="8.671700560562138"><ele>99.0</ele><time>2026-05-01T13:40:37Z</time></trkpt><trkpt lat="42.45293649247879" lon="8.67179847607333"><ele>99.0</ele><time>2026-05-01T13:40:38Z</time></trkpt><trkpt lat="42.452892300953216" lon="8.671917125040057"><ele>99.0</ele><time>2026-05-01T13:40:39Z</time></trkpt><trkpt lat="42.45283032899743" lon="8.671993062013437"><ele>99.0</ele><time>2026-05-01T13:40:40Z</time></trkpt><trkpt lat="42.452734838383094" lon="8.672005739769027"><ele>102.6</ele><time>2026-05-01T13:40:41Z</time></trkpt><trkpt lat="42.452627784138016" lon="8.671963624288862"><ele>106.2</ele><time>2026-05-01T13:40:42Z</time></trkpt><trkpt lat="42.45252281096409" lon="8.67195582500769"><ele>109.79999999999998</ele><time>2026-05-01T13:40:43Z</time></trkpt><trkpt lat="42.45240780264456" lon="8.67198940056563"><ele>113.39999999999999</ele><time>2026-05-01T13:40:44Z</time></trkpt><trkpt lat="42.45230483913283" lon="8.672053740807616"><ele>117.0</ele><time>2026-05-01T13:40:45Z</time></trkpt><trkpt lat="42.45221106197417" lon="8.672147710290066"><ele>117.0</ele><time>2026-05-01T13:40:46Z</time></trkpt><trkpt lat="42.45213505405193" lon="8.672274845991689"><ele>117.0</ele><time>2026-05-01T13:40:47Z</time></trkpt><trkpt lat="42.452066604193334" lon="8.6724090195373"><ele>117.0</ele><time>2026-05-01T13:40:48Z</time></trkpt><trkpt lat="42.45198682461462" lon="8.6725351147872"><ele>117.0</ele><time>2026-05-01T13:40:49Z</time></trkpt><trkpt lat="42.45190389261277" lon="8.672645806010292"><ele>116.6</ele><time>2026-05-01T13:40:50Z</time></trkpt><trkpt lat="42.45182203566211" lon="8.6727555744035"><ele>116.19999999999999</ele><time>2026-05-01T13:40:51Z</time></trkpt><trkpt lat="42.451759523139394" lon="8.672861985548387"><ele>115.8</ele><time>2026-05-01T13:40:52Z</time></trkpt><trkpt lat="42.45172274550716" lon="8.672984944100797"><ele>115.4</ele><time>2026-05-01T13:40:53Z</time></trkpt><trkpt lat="42.451711529620965" lon="8.673130583126921"><ele>115.0</ele><time>2026-05-01T13:40:54Z</time></trkpt><trkpt lat="42.45170836270679" lon="8.673285455635803"><ele>115.0</ele><time>2026-05-01T13:40:55Z</time></trkpt><trkpt lat="42.451708336082504" lon="8.67343796830227"><ele>115.0</ele><time>2026-05-01T13:40:56Z</time></trkpt><trkpt lat="42.451698752458405" lon="8.673581329487108"><ele>115.0</ele><time>2026-05-01T13:40:57Z</time></trkpt><trkpt lat="42.451674627782985" lon="8.673706976966702"><ele>115.0</ele><time>2026-05-01T13:40:58Z</time></trkpt><trkpt lat="42.45162460183531" lon="8.673794527020885"><ele>115.0</ele><time>2026-05-01T13:40:59Z</time></trkpt><trkpt lat="42.45155301194423" lon="8.673816593156275"><ele>115.0</ele><time>2026-05-01T13:41:00Z</time></trkpt><trkpt lat="42.45148145654049" lon="8.673773262987654"><ele>115.0</ele><time>2026-05-01T13:41:01Z</time></trkpt><trkpt lat="42.4514191822843" lon="8.673677414180908"><ele>115.0</ele><time>2026-05-01T13:41:02Z</time></trkpt><trkpt lat="42.45135922794654" lon="8.67355367553821"><ele>115.0</ele><time>2026-05-01T13:41:03Z</time></trkpt><trkpt lat="42.451289055874454" lon="8.673444461441498"><ele>115.0</ele><time>2026-05-01T13:41:03.999Z</time></trkpt><trkpt lat="42.45121395002948" lon="8.673336689008766"><ele>116.2</ele><time>2026-05-01T13:41:04.999Z</time></trkpt><trkpt lat="42.451140540760754" lon="8.673223555463096"><ele>117.4</ele><time>2026-05-01T13:41:05.999Z</time></trkpt><trkpt lat="42.45107242876827" lon="8.673112697802102"><ele>118.6</ele><time>2026-05-01T13:41:06.999Z</time></trkpt><trkpt lat="42.450994986009874" lon="8.673003162203312"><ele>119.8</ele><time>2026-05-01T13:41:07.999Z</time></trkpt><trkpt lat="42.450897906174866" lon="8.672920756434435"><ele>121.0</ele><time>2026-05-01T13:41:08.999Z</time></trkpt><trkpt lat="42.450785856356916" lon="8.672868427963474"><ele>121.0</ele><time>2026-05-01T13:41:09.999Z</time></trkpt><trkpt lat="42.45066129825262" lon="8.6728371163594"><ele>121.0</ele><time>2026-05-01T13:41:10.999Z</time></trkpt><trkpt lat="42.450537051143876" lon="8.672816911006223"><ele>121.0</ele><time>2026-05-01T13:41:11.999Z</time></trkpt><trkpt lat="42.45040317346906" lon="8.672818599653262"><ele>121.0</ele><time>2026-05-01T13:41:12.999Z</time></trkpt><trkpt lat="42.45027963716073" lon="8.672848680755072"><ele>119.4</ele><time>2026-05-01T13:41:14Z</time></trkpt><trkpt lat="42.45017582181828" lon="8.672915197818478"><ele>117.8</ele><time>2026-05-01T13:41:15Z</time></trkpt><trkpt lat="42.450100789320665" lon="8.673016197391876"><ele>116.20000000000002</ele><time>2026-05-01T13:41:16Z</time></trkpt><trkpt lat="42.450056336460264" lon="8.673151856359832"><ele>114.60000000000001</ele><time>2026-05-01T13:41:17Z</time></trkpt><trkpt lat="42.450042075300786" lon="8.673301399799314"><ele>113.0</ele><time>2026-05-01T13:41:18Z</time></trkpt><trkpt lat="42.45002903867416" lon="8.673471148977248"><ele>117.5</ele><time>2026-05-01T13:41:19Z</time></trkpt><trkpt lat="42.45000819701293" lon="8.67363423651417"><ele>122.0</ele><time>2026-05-01T13:41:20Z</time></trkpt><trkpt lat="42.44998143575685" lon="8.673781905366477"><ele>126.5</ele><time>2026-05-01T13:41:21Z</time></trkpt><trkpt lat="42.449939568953994" lon="8.673926988297154"><ele>131.0</ele><time>2026-05-01T13:41:22Z</time></trkpt><trkpt lat="42.44986876721176" lon="8.674045056881651"><ele>131.0</ele><time>2026-05-01T13:41:23Z</time></trkpt><trkpt lat="42.44978404375877" lon="8.674135090854849"><ele>131.0</ele><time>2026-05-01T13:41:24Z</time></trkpt><trkpt lat="42.449707772165226" lon="8.674228646864654"><ele>131.0</ele><time>2026-05-01T13:41:25Z</time></trkpt><trkpt lat="42.44964972541172" lon="8.674308463061314"><ele>131.0</ele><time>2026-05-01T13:41:26Z</time></trkpt><trkpt lat="42.44958135973275" lon="8.67431923346758"><ele>131.0</ele><time>2026-05-01T13:41:27Z</time></trkpt><trkpt lat="42.44951280878747" lon="8.674246403680314"><ele>131.0</ele><time>2026-05-01T13:41:28Z</time></trkpt><trkpt lat="42.44946039252872" lon="8.674116626867125"><ele>130.0</ele><time>2026-05-01T13:41:29Z</time></trkpt><trkpt lat="42.449416826602146" lon="8.673979492613958"><ele>129.0</ele><time>2026-05-01T13:41:30Z</time></trkpt><trkpt lat="42.449354163099" lon="8.673837760361145"><ele>128.0</ele><time>2026-05-01T13:41:31Z</time></trkpt><trkpt lat="42.449270975165675" lon="8.673707547501133"><ele>127.0</ele><time>2026-05-01T13:41:32Z</time></trkpt><trkpt lat="42.44918303371343" lon="8.67357458941187"><ele>123.0</ele><time>2026-05-01T13:41:33Z</time></trkpt><trkpt lat="42.44910492042476" lon="8.673428119642645"><ele>119.0</ele><time>2026-05-01T13:41:34Z</time></trkpt><trkpt lat="42.44903801467331" lon="8.673285315375205"><ele>115.0</ele><time>2026-05-01T13:41:35Z</time></trkpt><trkpt lat="42.448962084819186" lon="8.673168222011162"><ele>111.0</ele><time>2026-05-01T13:41:36Z</time></trkpt><trkpt lat="42.448857994195144" lon="8.673094148903683"><ele>110.75</ele><time>2026-05-01T13:41:37Z</time></trkpt><trkpt lat="42.44874448342224" lon="8.673055430125801"><ele>110.5</ele><time>2026-05-01T13:41:38Z</time></trkpt><trkpt lat="42.44863106490573" lon="8.673054501391189"><ele>110.25</ele><time>2026-05-01T13:41:39Z</time></trkpt><trkpt lat="42.448528537230054" lon="8.67310247352383"><ele>110.0</ele><time>2026-05-01T13:41:40Z</time></trkpt><trkpt lat="42.4484406762587" lon="8.673204380563124"><ele>110.0</ele><time>2026-05-01T13:41:41Z</time></trkpt><trkpt lat="42.44837530162757" lon="8.673344887758349"><ele>110.0</ele><time>2026-05-01T13:41:42Z</time></trkpt><trkpt lat="42.44831379349092" lon="8.673496613341515"><ele>110.0</ele><time>2026-05-01T13:41:43Z</time></trkpt><trkpt lat="42.44825241414693" lon="8.673652614549242"><ele>110.0</ele><time>2026-05-01T13:41:44Z</time></trkpt><trkpt lat="42.44819599712958" lon="8.673817230251121"><ele>111.4</ele><time>2026-05-01T13:41:45Z</time></trkpt><trkpt lat="42.44814481215528" lon="8.673989992369313"><ele>112.8</ele><time>2026-05-01T13:41:46Z</time></trkpt><trkpt lat="42.448111728369184" lon="8.6741437682648"><ele>114.19999999999999</ele><time>2026-05-01T13:41:47Z</time></trkpt><trkpt lat="42.44808319563693" lon="8.674273445503541"><ele>115.6</ele><time>2026-05-01T13:41:48Z</time></trkpt><trkpt lat="42.44802797255959" lon="8.674357798604738"><ele>117.0</ele><time>2026-05-01T13:41:49Z</time></trkpt><trkpt lat="42.44794682198246" lon="8.674393911177544"><ele>117.0</ele><time>2026-05-01T13:41:50Z</time></trkpt><trkpt lat="42.447860542978" lon="8.674380025028873"><ele>116.99999999999999</ele><time>2026-05-01T13:41:51Z</time></trkpt><trkpt lat="42.44776705255453" lon="8.674339710850075"><ele>116.99999999999999</ele><time>2026-05-01T13:41:52Z</time></trkpt><trkpt lat="42.44766163825432" lon="8.674292408182101"><ele>117.0</ele><time>2026-05-01T13:41:53Z</time></trkpt><trkpt lat="42.44755392992143" lon="8.674240778118374"><ele>117.0</ele><time>2026-05-01T13:41:54Z</time></trkpt><trkpt lat="42.447426425594806" lon="8.674200858810616"><ele>117.0</ele><time>2026-05-01T13:41:55Z</time></trkpt><trkpt lat="42.447302086797905" lon="8.674153917233447"><ele>117.0</ele><time>2026-05-01T13:41:56Z</time></trkpt><trkpt lat="42.44718223543006" lon="8.67410945927788"><ele>117.0</ele><time>2026-05-01T13:41:57Z</time></trkpt><trkpt lat="42.44706190765477" lon="8.674065020714758"><ele>117.0</ele><time>2026-05-01T13:41:58Z</time></trkpt><trkpt lat="42.44695695438019" lon="8.674043550309262"><ele>118.39999999999999</ele><time>2026-05-01T13:41:59Z</time></trkpt><trkpt lat="42.44684689582943" lon="8.67406109892061"><ele>119.79999999999998</ele><time>2026-05-01T13:42:00Z</time></trkpt><trkpt lat="42.44673976357381" lon="8.674113904839562"><ele>121.2</ele><time>2026-05-01T13:42:01Z</time></trkpt><trkpt lat="42.44663882102948" lon="8.674163666278027"><ele>122.6</ele><time>2026-05-01T13:42:02Z</time></trkpt><trkpt lat="42.446554729210526" lon="8.67416247636929"><ele>124.0</ele><time>2026-05-01T13:42:03Z</time></trkpt><trkpt lat="42.44648478845894" lon="8.674089386285747"><ele>124.0</ele><time>2026-05-01T13:42:04Z</time></trkpt><trkpt lat="42.44644564858826" lon="8.673958191691305"><ele>124.0</ele><time>2026-05-01T13:42:05Z</time></trkpt><trkpt lat="42.44643657282193" lon="8.673804226993315"><ele>124.0</ele><time>2026-05-01T13:42:06Z</time></trkpt><trkpt lat="42.44642225750635" lon="8.673643927462694"><ele>124.0</ele><time>2026-05-01T13:42:07Z</time></trkpt><trkpt lat="42.44639682754066" lon="8.673479240461681"><ele>122.80000000000001</ele><time>2026-05-01T13:42:08Z</time></trkpt><trkpt lat="42.446365869379434" lon="8.67331529223401"><ele>121.60000000000001</ele><time>2026-05-01T13:42:09Z</time></trkpt><trkpt lat="42.446333238020166" lon="8.673168815487399"><ele>120.4</ele><time>2026-05-01T13:42:10Z</time></trkpt><trkpt lat="42.44629702503064" lon="8.673052299704398"><ele>119.2</ele><time>2026-05-01T13:42:11Z</time></trkpt><trkpt lat="42.446239384579236" lon="8.672976131683113"><ele>118.0</ele><time>2026-05-01T13:42:12Z</time></trkpt><trkpt lat="42.44615229099459" lon="8.672948883799748"><ele>118.0</ele><time>2026-05-01T13:42:13Z</time></trkpt><trkpt lat="42.44604958956551" lon="8.672977124412515"><ele>118.00000000000001</ele><time>2026-05-01T13:42:14Z</time></trkpt><trkpt lat="42.44596394569758" lon="8.673052106382764"><ele>118.00000000000001</ele><time>2026-05-01T13:42:15Z</time></trkpt><trkpt lat="42.44589160216573" lon="8.673145979149453"><ele>118.0</ele><time>2026-05-01T13:42:16Z</time></trkpt><trkpt lat="42.44581728616633" lon="8.673236489518086"><ele>118.0</ele><time>2026-05-01T13:42:17Z</time></trkpt><trkpt lat="42.445738657764934" lon="8.67331258305973"><ele>118.0</ele><time>2026-05-01T13:42:18Z</time></trkpt><trkpt lat="42.445657354620074" lon="8.673372863078518"><ele>118.00000000000001</ele><time>2026-05-01T13:42:19Z</time></trkpt><trkpt lat="42.44556043369647" lon="8.673403559248236"><ele>118.00000000000001</ele><time>2026-05-01T13:42:20Z</time></trkpt><trkpt lat="42.44547056965802" lon="8.673415241049133"><ele>118.0</ele><time>2026-05-01T13:42:21Z</time></trkpt><trkpt lat="42.44538090033448" lon="8.673457310055282"><ele>118.0</ele><time>2026-05-01T13:42:22Z</time></trkpt><trkpt lat="42.445301852292495" lon="8.673537641888789"><ele>119.4</ele><time>2026-05-01T13:42:23Z</time></trkpt><trkpt lat="42.44522657991011" lon="8.673641039179202"><ele>120.80000000000001</ele><time>2026-05-01T13:42:24Z</time></trkpt><trkpt lat="42.445154647297315" lon="8.673754483674408"><ele>122.2</ele><time>2026-05-01T13:42:25Z</time></trkpt><trkpt lat="42.44507635544253" lon="8.673869770846204"><ele>123.6</ele><time>2026-05-01T13:42:26Z</time></trkpt><trkpt lat="42.44499585447354" lon="8.673979140191374"><ele>125.0</ele><time>2026-05-01T13:42:27Z</time></trkpt><trkpt lat="42.44491695790037" lon="8.67409263781895"><ele>125.0</ele><time>2026-05-01T13:42:28Z</time></trkpt><trkpt lat="42.44484315644414" lon="8.674199385482794"><ele>125.0</ele><time>2026-05-01T13:42:29Z</time></trkpt><trkpt lat="42.444771524657625" lon="8.674288564983215"><ele>125.0</ele><time>2026-05-01T13:42:30Z</time></trkpt><trkpt lat="42.44469207641548" lon="8.674326655268857"><ele>125.0</ele><time>2026-05-01T13:42:31Z</time></trkpt><trkpt lat="42.44460678549038" lon="8.674302292324006"><ele>125.0</ele><time>2026-05-01T13:42:32Z</time></trkpt><trkpt lat="42.44453436047006" lon="8.674222661319876"><ele>126.2</ele><time>2026-05-01T13:42:33Z</time></trkpt><trkpt lat="42.44448627661937" lon="8.674095432941815"><ele>127.4</ele><time>2026-05-01T13:42:34Z</time></trkpt><trkpt lat="42.44448272808423" lon="8.67395384062457"><ele>128.6</ele><time>2026-05-01T13:42:35Z</time></trkpt><trkpt lat="42.444480830547946" lon="8.67380408371384"><ele>129.8</ele><time>2026-05-01T13:42:36Z</time></trkpt><trkpt lat="42.444424430187844" lon="8.673676207182135"><ele>131.0</ele><time>2026-05-01T13:42:37Z</time></trkpt><trkpt lat="42.444345834249546" lon="8.673569341665024"><ele>131.0</ele><time>2026-05-01T13:42:38Z</time></trkpt><trkpt lat="42.444299482271795" lon="8.673449855125886"><ele>131.0</ele><time>2026-05-01T13:42:39Z</time></trkpt><trkpt lat="42.444311665735235" lon="8.673294166075443"><ele>131.0</ele><time>2026-05-01T13:42:40Z</time></trkpt><trkpt lat="42.44435492562423" lon="8.673136753432185"><ele>131.0</ele><time>2026-05-01T13:42:41Z</time></trkpt><trkpt lat="42.44437496936686" lon="8.672984372290077"><ele>131.0</ele><time>2026-05-01T13:42:42Z</time></trkpt><trkpt lat="42.444346116265464" lon="8.67282232899009"><ele>131.0</ele><time>2026-05-01T13:42:43Z</time></trkpt><trkpt lat="42.444292317501414" lon="8.672662736436429"><ele>131.0</ele><time>2026-05-01T13:42:44Z</time></trkpt><trkpt lat="42.44423758256283" lon="8.672503912178021"><ele>131.0</ele><time>2026-05-01T13:42:45Z</time></trkpt><trkpt lat="42.44419175134475" lon="8.672345518423418"><ele>129.5</ele><time>2026-05-01T13:42:46Z</time></trkpt><trkpt lat="42.44415292251114" lon="8.67218775759182"><ele>128.0</ele><time>2026-05-01T13:42:47Z</time></trkpt><trkpt lat="42.444109519895164" lon="8.672031871352884"><ele>126.5</ele><time>2026-05-01T13:42:48Z</time></trkpt><trkpt lat="42.444047135884155" lon="8.671899875669821"><ele>125.0</ele><time>2026-05-01T13:42:49Z</time></trkpt><trkpt lat="42.44396939396452" lon="8.671807558684526"><ele>127.75</ele><time>2026-05-01T13:42:50Z</time></trkpt><trkpt lat="42.443873951717514" lon="8.671742739284959"><ele>130.5</ele><time>2026-05-01T13:42:51Z</time></trkpt><trkpt lat="42.443768176237974" lon="8.671679003401328"><ele>133.25</ele><time>2026-05-01T13:42:52Z</time></trkpt><trkpt lat="42.4436613827896" lon="8.671610086005956"><ele>136.0</ele><time>2026-05-01T13:42:53Z</time></trkpt><trkpt lat="42.44356372114649" lon="8.671529761738803"><ele>136.0</ele><time>2026-05-01T13:42:54Z</time></trkpt><trkpt lat="42.44349336819837" lon="8.671428773485484"><ele>136.0</ele><time>2026-05-01T13:42:55Z</time></trkpt><trkpt lat="42.44347037086675" lon="8.671296934671636"><ele>136.0</ele><time>2026-05-01T13:42:56Z</time></trkpt><trkpt lat="42.44349722133452" lon="8.67115012751433"><ele>136.0</ele><time>2026-05-01T13:42:57Z</time></trkpt><trkpt lat="42.44352573293267" lon="8.671008408143418"><ele>136.0</ele><time>2026-05-01T13:42:58Z</time></trkpt><trkpt lat="42.44349919591365" lon="8.670864821042317"><ele>132.25</ele><time>2026-05-01T13:42:59Z</time></trkpt><trkpt lat="42.443420114596215" lon="8.670766452792893"><ele>128.5</ele><time>2026-05-01T13:43:00Z</time></trkpt><trkpt lat="42.44330973507141" lon="8.670713027304211"><ele>124.75</ele><time>2026-05-01T13:43:01Z</time></trkpt><trkpt lat="42.44319057961723" lon="8.670665069194122"><ele>121.0</ele><time>2026-05-01T13:43:02Z</time></trkpt><trkpt lat="42.44309188999951" lon="8.670566218367412"><ele>121.0</ele><time>2026-05-01T13:43:03Z</time></trkpt><trkpt lat="42.44302909252978" lon="8.670411081169771"><ele>121.0</ele><time>2026-05-01T13:43:04Z</time></trkpt><trkpt lat="42.44298233304525" lon="8.670234631089723"><ele>121.0</ele><time>2026-05-01T13:43:05Z</time></trkpt><trkpt lat="42.44293677418087" lon="8.670056373000335"><ele>121.0</ele><time>2026-05-01T13:43:06Z</time></trkpt><trkpt lat="42.44287958488557" lon="8.669896740425834"><ele>122.75</ele><time>2026-05-01T13:43:07Z</time></trkpt><trkpt lat="42.442798352313645" lon="8.669757813576283"><ele>124.5</ele><time>2026-05-01T13:43:08Z</time></trkpt><trkpt lat="42.442699708798855" lon="8.669633639429202"><ele>126.25</ele><time>2026-05-01T13:43:09Z</time></trkpt><trkpt lat="42.44260850606034" lon="8.669514368341261"><ele>128.0</ele><time>2026-05-01T13:43:10Z</time></trkpt><trkpt lat="42.44256160792204" lon="8.66937520731951"><ele>128.0</ele><time>2026-05-01T13:43:11Z</time></trkpt><trkpt lat="42.44256691966016" lon="8.669216911543296"><ele>128.0</ele><time>2026-05-01T13:43:12Z</time></trkpt><trkpt lat="42.44260182575431" lon="8.669053195937812"><ele>128.0</ele><time>2026-05-01T13:43:13Z</time></trkpt><trkpt lat="42.442639624528525" lon="8.668883943829547"><ele>128.0</ele><time>2026-05-01T13:43:14Z</time></trkpt><trkpt lat="42.44264932823447" lon="8.6687046191809"><ele>128.0</ele><time>2026-05-01T13:43:15Z</time></trkpt><trkpt lat="42.442622602883496" lon="8.668520907347954"><ele>128.0</ele><time>2026-05-01T13:43:16Z</time></trkpt><trkpt lat="42.44259139814441" lon="8.668341668674046"><ele>128.0</ele><time>2026-05-01T13:43:17Z</time></trkpt><trkpt lat="42.44259871956309" lon="8.668159879122673"><ele>128.0</ele><time>2026-05-01T13:43:18Z</time></trkpt><trkpt lat="42.44264871146673" lon="8.667989244721666"><ele>128.0</ele><time>2026-05-01T13:43:19Z</time></trkpt><trkpt lat="42.442673703592625" lon="8.667829159521364"><ele>128.0</ele><time>2026-05-01T13:43:20Z</time></trkpt><trkpt lat="42.442660145895864" lon="8.667691033606108"><ele>128.0</ele><time>2026-05-01T13:43:21Z</time></trkpt><trkpt lat="42.44265572973376" lon="8.667558089661402"><ele>128.0</ele><time>2026-05-01T13:43:22Z</time></trkpt><trkpt lat="42.44270892211721" lon="8.667440190308653"><ele>128.0</ele><time>2026-05-01T13:43:23Z</time></trkpt><trkpt lat="42.4427893096739" lon="8.667324018127143"><ele>129.5</ele><time>2026-05-01T13:43:24Z</time></trkpt><trkpt lat="42.442852202510316" lon="8.667186987547026"><ele>131.0</ele><time>2026-05-01T13:43:25Z</time></trkpt><trkpt lat="42.442882262531" lon="8.6670300841709"><ele>132.5</ele><time>2026-05-01T13:43:26Z</time></trkpt><trkpt lat="42.44287975987426" lon="8.666861284536324"><ele>134.0</ele><time>2026-05-01T13:43:27Z</time></trkpt><trkpt lat="42.44284733193445" lon="8.666693455986657"><ele>136.0</ele><time>2026-05-01T13:43:28Z</time></trkpt><trkpt lat="42.44281189074422" lon="8.666527861567996"><ele>138.0</ele><time>2026-05-01T13:43:29Z</time></trkpt><trkpt lat="42.44282213129654" lon="8.666377497611316"><ele>140.0</ele><time>2026-05-01T13:43:30Z</time></trkpt><trkpt lat="42.44289028308915" lon="8.666241533356674"><ele>142.0</ele><time>2026-05-01T13:43:31Z</time></trkpt><trkpt lat="42.44298277240609" lon="8.666105768209778"><ele>132.75</ele><time>2026-05-01T13:43:32Z</time></trkpt><trkpt lat="42.443062666820246" lon="8.665953408420332"><ele>123.5</ele><time>2026-05-01T13:43:33Z</time></trkpt><trkpt lat="42.44312548404712" lon="8.665791465076753"><ele>114.25</ele><time>2026-05-01T13:43:34Z</time></trkpt><trkpt lat="42.44318147535639" lon="8.665625199211586"><ele>105.0</ele><time>2026-05-01T13:43:35Z</time></trkpt><trkpt lat="42.443224283290654" lon="8.665458776126556"><ele>105.0</ele><time>2026-05-01T13:43:36Z</time></trkpt><trkpt lat="42.44323957479455" lon="8.665283747520448"><ele>105.0</ele><time>2026-05-01T13:43:37Z</time></trkpt><trkpt lat="42.44322482267851" lon="8.665102973324235"><ele>105.0</ele><time>2026-05-01T13:43:38Z</time></trkpt><trkpt lat="42.44318422319066" lon="8.66492572050323"><ele>105.0</ele><time>2026-05-01T13:43:39Z</time></trkpt><trkpt lat="42.44313814202484" lon="8.664741900867224"><ele>104.25</ele><time>2026-05-01T13:43:40Z</time></trkpt><trkpt lat="42.443099802620615" lon="8.664555755607392"><ele>103.5</ele><time>2026-05-01T13:43:41Z</time></trkpt><trkpt lat="42.44305598367798" lon="8.664369576655812"><ele>102.75</ele><time>2026-05-01T13:43:42Z</time></trkpt><trkpt lat="42.44299299871872" lon="8.6641967706741"><ele>102.0</ele><time>2026-05-01T13:43:43Z</time></trkpt><trkpt lat="42.442921632517795" lon="8.664025166854348"><ele>109.0</ele><time>2026-05-01T13:43:44Z</time></trkpt><trkpt lat="42.442876437947874" lon="8.663836327005484"><ele>116.0</ele><time>2026-05-01T13:43:45Z</time></trkpt><trkpt lat="42.44286168599993" lon="8.663635980938913"><ele>123.0</ele><time>2026-05-01T13:43:46Z</time></trkpt><trkpt lat="42.44286421953785" lon="8.663433989450793"><ele>130.0</ele><time>2026-05-01T13:43:47Z</time></trkpt><trkpt lat="42.44285632796209" lon="8.663240082918385"><ele>130.0</ele><time>2026-05-01T13:43:48Z</time></trkpt><trkpt lat="42.44283354020981" lon="8.663045693984675"><ele>130.0</ele><time>2026-05-01T13:43:49Z</time></trkpt><trkpt lat="42.44279491262834" lon="8.662867185694328"><ele>130.0</ele><time>2026-05-01T13:43:50Z</time></trkpt><trkpt lat="42.442732369599256" lon="8.662709412693017"><ele>130.0</ele><time>2026-05-01T13:43:51Z</time></trkpt><trkpt lat="42.44264088540666" lon="8.662570578838187"><ele>127.6</ele><time>2026-05-01T13:43:52Z</time></trkpt><trkpt lat="42.44255781518108" lon="8.662437713678308"><ele>125.2</ele><time>2026-05-01T13:43:53Z</time></trkpt><trkpt lat="42.442525454442205" lon="8.662287781363089"><ele>122.80000000000001</ele><time>2026-05-01T13:43:54Z</time></trkpt><trkpt lat="42.442518419382175" lon="8.662137161350337"><ele>120.4</ele><time>2026-05-01T13:43:55Z</time></trkpt><trkpt lat="42.442488632718664" lon="8.662026812039565"><ele>118.0</ele><time>2026-05-01T13:43:56Z</time></trkpt><trkpt lat="42.442415790508946" lon="8.661979898936327"><ele>118.0</ele><time>2026-05-01T13:43:57Z</time></trkpt><trkpt lat="42.442316010228545" lon="8.661991234284901"><ele>118.0</ele><time>2026-05-01T13:43:58Z</time></trkpt><trkpt lat="42.442211694023015" lon="8.662059110523202"><ele>118.0</ele><time>2026-05-01T13:43:59Z</time></trkpt><trkpt lat="42.442086092384415" lon="8.662128005910535"><ele>118.0</ele><time>2026-05-01T13:44:00Z</time></trkpt><trkpt lat="42.44196422880647" lon="8.66218034856232"><ele>120.0</ele><time>2026-05-01T13:44:01Z</time></trkpt><trkpt lat="42.44183058828753" lon="8.662216685183322"><ele>122.0</ele><time>2026-05-01T13:44:02Z</time></trkpt><trkpt lat="42.441694041670814" lon="8.662238281930142"><ele>124.0</ele><time>2026-05-01T13:44:03Z</time></trkpt><trkpt lat="42.44155204077154" lon="8.66223885837932"><ele>126.0</ele><time>2026-05-01T13:44:04Z</time></trkpt><trkpt lat="42.44141330001301" lon="8.662235656442318"><ele>127.25</ele><time>2026-05-01T13:44:05Z</time></trkpt><trkpt lat="42.441270270464564" lon="8.662234674872135"><ele>128.5</ele><time>2026-05-01T13:44:06Z</time></trkpt><trkpt lat="42.44113806899168" lon="8.662228653861476"><ele>129.75</ele><time>2026-05-01T13:44:07Z</time></trkpt><trkpt lat="42.44100986725264" lon="8.662211918712538"><ele>131.0</ele><time>2026-05-01T13:44:08Z</time></trkpt><trkpt lat="42.44088400185918" lon="8.662154064638486"><ele>131.0</ele><time>2026-05-01T13:44:09Z</time></trkpt><trkpt lat="42.44075682460957" lon="8.662071412939946"><ele>131.0</ele><time>2026-05-01T13:44:10Z</time></trkpt><trkpt lat="42.440629087771086" lon="8.661993458453097"><ele>131.0</ele><time>2026-05-01T13:44:11Z</time></trkpt><trkpt lat="42.44049644738464" lon="8.661922423188756"><ele>131.0</ele><time>2026-05-01T13:44:12Z</time></trkpt><trkpt lat="42.44036738993653" lon="8.66185458637256"><ele>126.25</ele><time>2026-05-01T13:44:13Z</time></trkpt><trkpt lat="42.44023362403476" lon="8.661797615906227"><ele>121.5</ele><time>2026-05-01T13:44:14Z</time></trkpt><trkpt lat="42.440096484054024" lon="8.661762951633118"><ele>116.75</ele><time>2026-05-01T13:44:15Z</time></trkpt><trkpt lat="42.439958733366275" lon="8.661744696006373"><ele>112.0</ele><time>2026-05-01T13:44:16Z</time></trkpt><trkpt lat="42.43981952172559" lon="8.661733447260591"><ele>112.0</ele><time>2026-05-01T13:44:17Z</time></trkpt><trkpt lat="42.439681316169626" lon="8.661729566309747"><ele>112.0</ele><time>2026-05-01T13:44:18Z</time></trkpt><trkpt lat="42.43954226678843" lon="8.661744463434731"><ele>112.0</ele><time>2026-05-01T13:44:19Z</time></trkpt><trkpt lat="42.439412529118705" lon="8.66178260703494"><ele>112.0</ele><time>2026-05-01T13:44:20Z</time></trkpt><trkpt lat="42.43927882752214" lon="8.661841053829914"><ele>113.25</ele><time>2026-05-01T13:44:21Z</time></trkpt><trkpt lat="42.43913722587371" lon="8.661893352535648"><ele>114.5</ele><time>2026-05-01T13:44:22Z</time></trkpt><trkpt lat="42.438992584628494" lon="8.661929408353556"><ele>115.75</ele><time>2026-05-01T13:44:23Z</time></trkpt><trkpt lat="42.43884937095429" lon="8.661976714524089"><ele>117.0</ele><time>2026-05-01T13:44:24Z</time></trkpt><trkpt lat="42.43870987544372" lon="8.662046341566757"><ele>117.0</ele><time>2026-05-01T13:44:25Z</time></trkpt><trkpt lat="42.43857206739242" lon="8.662138632989775"><ele>117.0</ele><time>2026-05-01T13:44:26Z</time></trkpt><trkpt lat="42.43844326119057" lon="8.662230721911444"><ele>117.0</ele><time>2026-05-01T13:44:27Z</time></trkpt><trkpt lat="42.43831209699506" lon="8.662308787251817"><ele>117.0</ele><time>2026-05-01T13:44:28Z</time></trkpt><trkpt lat="42.438173528554316" lon="8.662350100231873"><ele>117.0</ele><time>2026-05-01T13:44:29Z</time></trkpt><trkpt lat="42.43803254360419" lon="8.662347921676657"><ele>117.0</ele><time>2026-05-01T13:44:30Z</time></trkpt><trkpt lat="42.437894995387296" lon="8.662325801299039"><ele>117.0</ele><time>2026-05-01T13:44:31Z</time></trkpt><trkpt lat="42.43776508061571" lon="8.66231571218692"><ele>117.0</ele><time>2026-05-01T13:44:32Z</time></trkpt><trkpt lat="42.43764686322162" lon="8.662341274656407"><ele>118.0</ele><time>2026-05-01T13:44:33Z</time></trkpt><trkpt lat="42.43754576145258" lon="8.662424810848378"><ele>119.0</ele><time>2026-05-01T13:44:34Z</time></trkpt><trkpt lat="42.4374593064675" lon="8.662548529379698"><ele>120.0</ele><time>2026-05-01T13:44:35Z</time></trkpt><trkpt lat="42.43738284676729" lon="8.662696034297339"><ele>121.0</ele><time>2026-05-01T13:44:36Z</time></trkpt><trkpt lat="42.43731313852684" lon="8.662857864439014"><ele>121.0</ele><time>2026-05-01T13:44:37Z</time></trkpt><trkpt lat="42.43724377938087" lon="8.663029811413638"><ele>121.0</ele><time>2026-05-01T13:44:38Z</time></trkpt><trkpt lat="42.43717178158825" lon="8.663207339179039"><ele>121.0</ele><time>2026-05-01T13:44:39Z</time></trkpt><trkpt lat="42.4371030822323" lon="8.663388287975968"><ele>121.0</ele><time>2026-05-01T13:44:40Z</time></trkpt><trkpt lat="42.437048110929226" lon="8.66357532189441"><ele>112.0</ele><time>2026-05-01T13:44:41Z</time></trkpt><trkpt lat="42.437004461391886" lon="8.663767212045231"><ele>103.0</ele><time>2026-05-01T13:44:42Z</time></trkpt><trkpt lat="42.436967321160736" lon="8.663957058079964"><ele>94.0</ele><time>2026-05-01T13:44:43Z</time></trkpt><trkpt lat="42.436944547905284" lon="8.664150253185184"><ele>85.0</ele><time>2026-05-01T13:44:44Z</time></trkpt><trkpt lat="42.436945935320615" lon="8.664346413268955"><ele>83.5</ele><time>2026-05-01T13:44:45Z</time></trkpt><trkpt lat="42.436952583084484" lon="8.664539548432145"><ele>82.0</ele><time>2026-05-01T13:44:46Z</time></trkpt><trkpt lat="42.43695231929904" lon="8.664728874267597"><ele>80.5</ele><time>2026-05-01T13:44:47Z</time></trkpt><trkpt lat="42.43695475939102" lon="8.664901553134372"><ele>79.0</ele><time>2026-05-01T13:44:48Z</time></trkpt><trkpt lat="42.436979280581696" lon="8.665064826872978"><ele>79.0</ele><time>2026-05-01T13:44:49Z</time></trkpt><trkpt lat="42.437030884529555" lon="8.665214566701309"><ele>79.0</ele><time>2026-05-01T13:44:50Z</time></trkpt><trkpt lat="42.437110391186216" lon="8.665349306848197"><ele>79.0</ele><time>2026-05-01T13:44:51Z</time></trkpt><trkpt lat="42.43719049816795" lon="8.66548850552412"><ele>79.0</ele><time>2026-05-01T13:44:52Z</time></trkpt><trkpt lat="42.437240066775594" lon="8.665633159063312"><ele>79.75</ele><time>2026-05-01T13:44:53Z</time></trkpt><trkpt lat="42.43724762043544" lon="8.665795028039536"><ele>80.5</ele><time>2026-05-01T13:44:54Z</time></trkpt><trkpt lat="42.43721189115532" lon="8.665959434074102"><ele>81.25</ele><time>2026-05-01T13:44:55Z</time></trkpt><trkpt lat="42.437140746176205" lon="8.666114755459182"><ele>82.0</ele><time>2026-05-01T13:44:56Z</time></trkpt><trkpt lat="42.43705122659898" lon="8.666250490963254"><ele>82.0</ele><time>2026-05-01T13:44:57Z</time></trkpt><trkpt lat="42.43697174167302" lon="8.666372607785322"><ele>82.0</ele><time>2026-05-01T13:44:58Z</time></trkpt><trkpt lat="42.43690953122584" lon="8.666494150414344"><ele>82.0</ele><time>2026-05-01T13:44:59Z</time></trkpt><trkpt lat="42.436871464655034" lon="8.666620041773253"><ele>82.0</ele><time>2026-05-01T13:45:00Z</time></trkpt><trkpt lat="42.43686377968478" lon="8.666743819565559"><ele>82.0</ele><time>2026-05-01T13:45:01Z</time></trkpt><trkpt lat="42.43688855492292" lon="8.666856372751452"><ele>82.19999999999999</ele><time>2026-05-01T13:45:02Z</time></trkpt><trkpt lat="42.436924137721775" lon="8.66695970473934"><ele>82.4</ele><time>2026-05-01T13:45:03Z</time></trkpt><trkpt lat="42.436942608383575" lon="8.667083631872144"><ele>82.6</ele><time>2026-05-01T13:45:04Z</time></trkpt><trkpt lat="42.43694658601502" lon="8.667226895556658"><ele>82.80000000000001</ele><time>2026-05-01T13:45:05Z</time></trkpt><trkpt lat="42.43693668350164" lon="8.667390688997102"><ele>83.0</ele><time>2026-05-01T13:45:06Z</time></trkpt><trkpt lat="42.4369156060606" lon="8.667547223657236"><ele>83.0</ele><time>2026-05-01T13:45:07Z</time></trkpt><trkpt lat="42.4368887777347" lon="8.667699707497768"><ele>83.0</ele><time>2026-05-01T13:45:08Z</time></trkpt><trkpt lat="42.436865018480596" lon="8.667861622519892"><ele>83.0</ele><time>2026-05-01T13:45:09Z</time></trkpt><trkpt lat="42.43684710415795" lon="8.668026299123634"><ele>83.0</ele><time>2026-05-01T13:45:10Z</time></trkpt><trkpt lat="42.436830147931275" lon="8.668204324658113"><ele>83.25</ele><time>2026-05-01T13:45:11Z</time></trkpt><trkpt lat="42.436807961827284" lon="8.66837732448774"><ele>83.5</ele><time>2026-05-01T13:45:12Z</time></trkpt><trkpt lat="42.43678436162984" lon="8.668559321452983"><ele>83.75</ele><time>2026-05-01T13:45:13Z</time></trkpt><trkpt lat="42.436763537659616" lon="8.668739990117656"><ele>84.0</ele><time>2026-05-01T13:45:14Z</time></trkpt><trkpt lat="42.436743258346944" lon="8.668914296476066"><ele>84.0</ele><time>2026-05-01T13:45:15Z</time></trkpt><trkpt lat="42.43673866098228" lon="8.669082869910522"><ele>84.0</ele><time>2026-05-01T13:45:16Z</time></trkpt><trkpt lat="42.4367533096091" lon="8.66924506111667"><ele>84.0</ele><time>2026-05-01T13:45:17Z</time></trkpt><trkpt lat="42.43678702198927" lon="8.669406238671682"><ele>84.0</ele><time>2026-05-01T13:45:18Z</time></trkpt><trkpt lat="42.43682433087158" lon="8.669565308842618"><ele>82.4</ele><time>2026-05-01T13:45:19Z</time></trkpt><trkpt lat="42.436861136484524" lon="8.669711618029995"><ele>80.80000000000001</ele><time>2026-05-01T13:45:20Z</time></trkpt><trkpt lat="42.43689938587706" lon="8.669846244727927"><ele>79.19999999999999</ele><time>2026-05-01T13:45:21Z</time></trkpt><trkpt lat="42.436960496908384" lon="8.669948754393381"><ele>77.6</ele><time>2026-05-01T13:45:22Z</time></trkpt><trkpt lat="42.437043721047026" lon="8.670023166842016"><ele>76.0</ele><time>2026-05-01T13:45:23Z</time></trkpt><trkpt lat="42.43712656133435" lon="8.670099885442255"><ele>78.4</ele><time>2026-05-01T13:45:24Z</time></trkpt><trkpt lat="42.43717734254739" lon="8.670208869663487"><ele>80.8</ele><time>2026-05-01T13:45:25Z</time></trkpt><trkpt lat="42.437185135802" lon="8.670342854138834"><ele>83.2</ele><time>2026-05-01T13:45:26Z</time></trkpt><trkpt lat="42.43715015881766" lon="8.670473486743818"><ele>85.60000000000001</ele><time>2026-05-01T13:45:27Z</time></trkpt><trkpt lat="42.43707912545861" lon="8.670589565572545"><ele>88.0</ele><time>2026-05-01T13:45:28Z</time></trkpt><trkpt lat="42.43697811636072" lon="8.6706545555641"><ele>88.0</ele><time>2026-05-01T13:45:29Z</time></trkpt><trkpt lat="42.436868161805606" lon="8.670699793378887"><ele>88.0</ele><time>2026-05-01T13:45:30Z</time></trkpt><trkpt lat="42.43675401160928" lon="8.670757408580725"><ele>88.0</ele><time>2026-05-01T13:45:31Z</time></trkpt><trkpt lat="42.436646443339626" lon="8.67082674799798"><ele>88.0</ele><time>2026-05-01T13:45:32Z</time></trkpt><trkpt lat="42.436542910738595" lon="8.670902588743804"><ele>88.0</ele><time>2026-05-01T13:45:33Z</time></trkpt><trkpt lat="42.43644560250521" lon="8.670993724089907"><ele>88.0</ele><time>2026-05-01T13:45:34Z</time></trkpt><trkpt lat="42.436366647229455" lon="8.671077696826032"><ele>88.0</ele><time>2026-05-01T13:45:35Z</time></trkpt><trkpt lat="42.43626985416569" lon="8.671111558094601"><ele>88.0</ele><time>2026-05-01T13:45:36Z</time></trkpt><trkpt lat="42.43617671095461" lon="8.671076352835914"><ele>88.0</ele><time>2026-05-01T13:45:37Z</time></trkpt><trkpt lat="42.43610126531871" lon="8.670979388370185"><ele>89.25</ele><time>2026-05-01T13:45:38Z</time></trkpt><trkpt lat="42.43603672071237" lon="8.670847582963416"><ele>90.5</ele><time>2026-05-01T13:45:39Z</time></trkpt><trkpt lat="42.43595884791153" lon="8.670708494612425"><ele>91.75</ele><time>2026-05-01T13:45:40Z</time></trkpt><trkpt lat="42.435860199859675" lon="8.670585709661902"><ele>93.0</ele><time>2026-05-01T13:45:41Z</time></trkpt><trkpt lat="42.43576097975386" lon="8.670455612176616"><ele>93.0</ele><time>2026-05-01T13:45:42Z</time></trkpt><trkpt lat="42.43566173180698" lon="8.670313971645724"><ele>93.0</ele><time>2026-05-01T13:45:43Z</time></trkpt><trkpt lat="42.43556818182264" lon="8.670166985467903"><ele>93.0</ele><time>2026-05-01T13:45:44Z</time></trkpt><trkpt lat="42.435486041825214" lon="8.670003068222298"><ele>93.0</ele><time>2026-05-01T13:45:45Z</time></trkpt><trkpt lat="42.43541765193101" lon="8.66982630270467"><ele>90.0</ele><time>2026-05-01T13:45:46Z</time></trkpt><trkpt lat="42.43534778637793" lon="8.66964230841525"><ele>87.0</ele><time>2026-05-01T13:45:47Z</time></trkpt><trkpt lat="42.43526614099282" lon="8.6694751964204"><ele>84.0</ele><time>2026-05-01T13:45:48Z</time></trkpt><trkpt lat="42.435161856752664" lon="8.669319126012219"><ele>84.0</ele><time>2026-05-01T13:45:49Z</time></trkpt><trkpt lat="42.435057627836706" lon="8.669179150211766"><ele>84.0</ele><time>2026-05-01T13:45:50Z</time></trkpt><trkpt lat="42.43497744610006" lon="8.669031192714082"><ele>84.0</ele><time>2026-05-01T13:45:51Z</time></trkpt><trkpt lat="42.43493617838953" lon="8.668865405460195"><ele>84.0</ele><time>2026-05-01T13:45:52Z</time></trkpt><trkpt lat="42.43491166472878" lon="8.66868089834842"><ele>87.5</ele><time>2026-05-01T13:45:53Z</time></trkpt><trkpt lat="42.43486368644217" lon="8.668499436632297"><ele>91.0</ele><time>2026-05-01T13:45:54Z</time></trkpt><trkpt lat="42.434791900034476" lon="8.668322198849765"><ele>94.5</ele><time>2026-05-01T13:45:55Z</time></trkpt><trkpt lat="42.43470095522086" lon="8.668162117143561"><ele>98.0</ele><time>2026-05-01T13:45:56Z</time></trkpt><trkpt lat="42.43458958751348" lon="8.668023849131217"><ele>98.0</ele><time>2026-05-01T13:45:57Z</time></trkpt><trkpt lat="42.43446466388724" lon="8.667904428057094"><ele>98.0</ele><time>2026-05-01T13:45:58Z</time></trkpt><trkpt lat="42.434331693702845" lon="8.667786574031522"><ele>98.0</ele><time>2026-05-01T13:45:59Z</time></trkpt><trkpt lat="42.434201697957015" lon="8.66765374698531"><ele>90.66666666666666</ele><time>2026-05-01T13:46:00Z</time></trkpt><trkpt lat="42.434078874482985" lon="8.667497035194016"><ele>83.33333333333333</ele><time>2026-05-01T13:46:01Z</time></trkpt><trkpt lat="42.43397689314288" lon="8.6673240166458"><ele>76.0</ele><time>2026-05-01T13:46:02Z</time></trkpt><trkpt lat="42.433873392073025" lon="8.667157373797794"><ele>76.33333333333333</ele><time>2026-05-01T13:46:03Z</time></trkpt><trkpt lat="42.43376774795943" lon="8.667003254984806"><ele>76.66666666666667</ele><time>2026-05-01T13:46:04Z</time></trkpt><trkpt lat="42.433660420505696" lon="8.666850734906124"><ele>77.0</ele><time>2026-05-01T13:46:05Z</time></trkpt><trkpt lat="42.433554408745316" lon="8.666698000003866"><ele>77.0</ele><time>2026-05-01T13:46:06Z</time></trkpt><trkpt lat="42.43344884835589" lon="8.666550756559726"><ele>77.0</ele><time>2026-05-01T13:46:07Z</time></trkpt><trkpt lat="42.43334214538147" lon="8.666414287361397"><ele>77.0</ele><time>2026-05-01T13:46:08Z</time></trkpt><trkpt lat="42.43323369082565" lon="8.666296879070822"><ele>77.0</ele><time>2026-05-01T13:46:09Z</time></trkpt><trkpt lat="42.43312240169294" lon="8.666198835175603"><ele>77.0</ele><time>2026-05-01T13:46:10Z</time></trkpt><trkpt lat="42.43299742333843" lon="8.666125631199018"><ele>77.0</ele><time>2026-05-01T13:46:11Z</time></trkpt><trkpt lat="42.43285972564056" lon="8.666089295098486"><ele>77.0</ele><time>2026-05-01T13:46:12Z</time></trkpt><trkpt lat="42.432718713312" lon="8.66608722276777"><ele>77.0</ele><time>2026-05-01T13:46:13Z</time></trkpt><trkpt lat="42.43258461010287" lon="8.66613167496995"><ele>76.5</ele><time>2026-05-01T13:46:14Z</time></trkpt><trkpt lat="42.43245970503506" lon="8.666226357654843"><ele>76.0</ele><time>2026-05-01T13:46:15Z</time></trkpt><trkpt lat="42.43235090649625" lon="8.666347673448469"><ele>75.5</ele><time>2026-05-01T13:46:16Z</time></trkpt><trkpt lat="42.43225761744683" lon="8.6664900796557"><ele>75.0</ele><time>2026-05-01T13:46:17Z</time></trkpt><trkpt lat="42.432190139477214" lon="8.666661271179121"><ele>74.25</ele><time>2026-05-01T13:46:18Z</time></trkpt><trkpt lat="42.43213869373161" lon="8.66684968577924"><ele>73.5</ele><time>2026-05-01T13:46:19Z</time></trkpt><trkpt lat="42.4320853703467" lon="8.667041263784743"><ele>72.75</ele><time>2026-05-01T13:46:20Z</time></trkpt><trkpt lat="42.432017433490756" lon="8.667219805130106"><ele>72.0</ele><time>2026-05-01T13:46:21Z</time></trkpt><trkpt lat="42.43193998540684" lon="8.667382209295711"><ele>72.0</ele><time>2026-05-01T13:46:22Z</time></trkpt><trkpt lat="42.43186502371115" lon="8.667522952483141"><ele>72.0</ele><time>2026-05-01T13:46:23Z</time></trkpt><trkpt lat="42.43179575258526" lon="8.66764246805344"><ele>72.0</ele><time>2026-05-01T13:46:24Z</time></trkpt><trkpt lat="42.431718772291795" lon="8.667727514708838"><ele>72.0</ele><time>2026-05-01T13:46:25Z</time></trkpt><trkpt lat="42.43162272970002" lon="8.667759149367285"><ele>72.0</ele><time>2026-05-01T13:46:26Z</time></trkpt><trkpt lat="42.431506918783526" lon="8.66772965964307"><ele>72.0</ele><time>2026-05-01T13:46:27Z</time></trkpt><trkpt lat="42.43139135232835" lon="8.66767286106717"><ele>72.0</ele><time>2026-05-01T13:46:28Z</time></trkpt><trkpt lat="42.43130211090778" lon="8.667581370642672"><ele>72.0</ele><time>2026-05-01T13:46:29Z</time></trkpt><trkpt lat="42.43123678419115" lon="8.667436684307686"><ele>72.0</ele><time>2026-05-01T13:46:30Z</time></trkpt><trkpt lat="42.431171830680654" lon="8.667285088232134"><ele>71.5</ele><time>2026-05-01T13:46:31Z</time></trkpt><trkpt lat="42.43110624089277" lon="8.667135728886153"><ele>71.0</ele><time>2026-05-01T13:46:32Z</time></trkpt><trkpt lat="42.43104798998255" lon="8.66697512753816"><ele>70.5</ele><time>2026-05-01T13:46:33Z</time></trkpt><trkpt lat="42.430994354628695" lon="8.666802346699907"><ele>70.0</ele><time>2026-05-01T13:46:34Z</time></trkpt><trkpt lat="42.43093669776051" lon="8.666628323230894"><ele>70.0</ele><time>2026-05-01T13:46:35Z</time></trkpt><trkpt lat="42.430876296299544" lon="8.66645537605325"><ele>70.0</ele><time>2026-05-01T13:46:36Z</time></trkpt><trkpt lat="42.43081837012404" lon="8.66628529157178"><ele>70.0</ele><time>2026-05-01T13:46:37Z</time></trkpt><trkpt lat="42.43076614034546" lon="8.666128315625082"><ele>70.0</ele><time>2026-05-01T13:46:38Z</time></trkpt><trkpt lat="42.430718208794666" lon="8.665989293056207"><ele>67.4</ele><time>2026-05-01T13:46:39Z</time></trkpt><trkpt lat="42.43066389735535" lon="8.665892661386973"><ele>64.8</ele><time>2026-05-01T13:46:40Z</time></trkpt><trkpt lat="42.430581638732825" lon="8.665844022949052"><ele>62.2</ele><time>2026-05-01T13:46:41Z</time></trkpt><trkpt lat="42.430483868475214" lon="8.665864371477463"><ele>59.6</ele><time>2026-05-01T13:46:42Z</time></trkpt><trkpt lat="42.430380608393705" lon="8.665930072263235"><ele>57.0</ele><time>2026-05-01T13:46:43Z</time></trkpt><trkpt lat="42.43026765769117" lon="8.665998247014478"><ele>57.0</ele><time>2026-05-01T13:46:44Z</time></trkpt><trkpt lat="42.43014135320336" lon="8.666047515027062"><ele>57.0</ele><time>2026-05-01T13:46:45Z</time></trkpt><trkpt lat="42.43001203688777" lon="8.66608996121652"><ele>57.0</ele><time>2026-05-01T13:46:46Z</time></trkpt><trkpt lat="42.42987641278771" lon="8.66612571999595"><ele>57.0</ele><time>2026-05-01T13:46:47Z</time></trkpt><trkpt lat="42.42974185204098" lon="8.666127563275259"><ele>56.5</ele><time>2026-05-01T13:46:48Z</time></trkpt><trkpt lat="42.4296090319906" lon="8.66608239942301"><ele>56.0</ele><time>2026-05-01T13:46:49Z</time></trkpt><trkpt lat="42.42948277872087" lon="8.666003630553845"><ele>55.5</ele><time>2026-05-01T13:46:50Z</time></trkpt><trkpt lat="42.42936882167908" lon="8.665940611422403"><ele>55.0</ele><time>2026-05-01T13:46:51Z</time></trkpt><trkpt lat="42.42925685522188" lon="8.66589691938232"><ele>55.0</ele><time>2026-05-01T13:46:52Z</time></trkpt><trkpt lat="42.42915170552383" lon="8.665879708719928"><ele>55.0</ele><time>2026-05-01T13:46:53Z</time></trkpt><trkpt lat="42.4290594602058" lon="8.665904336129579"><ele>55.0</ele><time>2026-05-01T13:46:54Z</time></trkpt><trkpt lat="42.42899080598881" lon="8.665982695534954"><ele>55.0</ele><time>2026-05-01T13:46:55Z</time></trkpt><trkpt lat="42.42895122519316" lon="8.666105661274717"><ele>55.0</ele><time>2026-05-01T13:46:56Z</time></trkpt><trkpt lat="42.428925142258585" lon="8.666246021379626"><ele>58.5</ele><time>2026-05-01T13:46:57Z</time></trkpt><trkpt lat="42.42889141217908" lon="8.666392924391461"><ele>62.0</ele><time>2026-05-01T13:46:58Z</time></trkpt><trkpt lat="42.42886607116615" lon="8.666545657805983"><ele>65.5</ele><time>2026-05-01T13:46:59Z</time></trkpt><trkpt lat="42.428864633643876" lon="8.666710305212968"><ele>69.0</ele><time>2026-05-01T13:47:00Z</time></trkpt><trkpt lat="42.42887532107875" lon="8.666886672169348"><ele>70.4</ele><time>2026-05-01T13:47:01Z</time></trkpt><trkpt lat="42.42888311325586" lon="8.667047942318963"><ele>71.80000000000001</ele><time>2026-05-01T13:47:02Z</time></trkpt><trkpt lat="42.428863649728434" lon="8.667182100068146"><ele>73.19999999999999</ele><time>2026-05-01T13:47:03Z</time></trkpt><trkpt lat="42.42881051415582" lon="8.667278357852823"><ele>74.6</ele><time>2026-05-01T13:47:04Z</time></trkpt><trkpt lat="42.428727873407816" lon="8.667307579675095"><ele>76.0</ele><time>2026-05-01T13:47:05Z</time></trkpt><trkpt lat="42.42864007281561" lon="8.667269748271181"><ele>76.0</ele><time>2026-05-01T13:47:06Z</time></trkpt><trkpt lat="42.42856145678027" lon="8.667179220104662"><ele>76.0</ele><time>2026-05-01T13:47:07Z</time></trkpt><trkpt lat="42.428469485754015" lon="8.667083670615833"><ele>76.0</ele><time>2026-05-01T13:47:08Z</time></trkpt><trkpt lat="42.428354777650476" lon="8.667009769422549"><ele>76.0</ele><time>2026-05-01T13:47:09Z</time></trkpt><trkpt lat="42.428229621076724" lon="8.666937555824537"><ele>74.0</ele><time>2026-05-01T13:47:10Z</time></trkpt><trkpt lat="42.42811508393044" lon="8.666831942162325"><ele>72.0</ele><time>2026-05-01T13:47:11Z</time></trkpt><trkpt lat="42.42803114182229" lon="8.666677262042798"><ele>70.0</ele><time>2026-05-01T13:47:12Z</time></trkpt><trkpt lat="42.42795666803071" lon="8.66651739388851"><ele>68.0</ele><time>2026-05-01T13:47:13Z</time></trkpt><trkpt lat="42.42786054054547" lon="8.666407867294216"><ele>68.0</ele><time>2026-05-01T13:47:14Z</time></trkpt><trkpt lat="42.427739095893884" lon="8.666345329627438"><ele>68.0</ele><time>2026-05-01T13:47:15Z</time></trkpt><trkpt lat="42.427623421920906" lon="8.666269656270444"><ele>68.0</ele><time>2026-05-01T13:47:16Z</time></trkpt><trkpt lat="42.42754269979845" lon="8.66614732594264"><ele>68.0</ele><time>2026-05-01T13:47:17Z</time></trkpt><trkpt lat="42.427493186917346" lon="8.665996559185611"><ele>65.0</ele><time>2026-05-01T13:47:18Z</time></trkpt><trkpt lat="42.42745533481735" lon="8.665858800041594"><ele>62.0</ele><time>2026-05-01T13:47:19Z</time></trkpt><trkpt lat="42.42739180159278" lon="8.66575319196149"><ele>59.0</ele><time>2026-05-01T13:47:20Z</time></trkpt><trkpt lat="42.42729055253313" lon="8.66569613983007"><ele>56.0</ele><time>2026-05-01T13:47:21Z</time></trkpt><trkpt lat="42.427167458447656" lon="8.665680846889465"><ele>53.0</ele><time>2026-05-01T13:47:22Z</time></trkpt><trkpt lat="42.42703892438344" lon="8.665693295134918"><ele>52.5</ele><time>2026-05-01T13:47:23Z</time></trkpt><trkpt lat="42.42690872979789" lon="8.665742069986939"><ele>52.0</ele><time>2026-05-01T13:47:24Z</time></trkpt><trkpt lat="42.42678283742109" lon="8.665814307170397"><ele>51.5</ele><time>2026-05-01T13:47:25Z</time></trkpt><trkpt lat="42.42666768620201" lon="8.665895777902984"><ele>51.0</ele><time>2026-05-01T13:47:26Z</time></trkpt><trkpt lat="42.426581370313556" lon="8.66600962964023"><ele>53.5</ele><time>2026-05-01T13:47:27Z</time></trkpt><trkpt lat="42.42651900256669" lon="8.666163375901467"><ele>56.0</ele><time>2026-05-01T13:47:28Z</time></trkpt><trkpt lat="42.42647394774959" lon="8.66633305407767"><ele>58.5</ele><time>2026-05-01T13:47:29Z</time></trkpt><trkpt lat="42.42643231125565" lon="8.666506499023265"><ele>61.0</ele><time>2026-05-01T13:47:30Z</time></trkpt><trkpt lat="42.426396901626795" lon="8.666670680379436"><ele>61.0</ele><time>2026-05-01T13:47:31Z</time></trkpt><trkpt lat="42.42637818812468" lon="8.666831899350194"><ele>61.0</ele><time>2026-05-01T13:47:32Z</time></trkpt><trkpt lat="42.42638890670517" lon="8.66698574362807"><ele>61.0</ele><time>2026-05-01T13:47:33Z</time></trkpt><trkpt lat="42.426437439386696" lon="8.667128910345236"><ele>61.0</ele><time>2026-05-01T13:47:34Z</time></trkpt><trkpt lat="42.426512385851865" lon="8.667265854508642"><ele>59.75</ele><time>2026-05-01T13:47:35Z</time></trkpt><trkpt lat="42.42659405227915" lon="8.667404700196558"><ele>58.5</ele><time>2026-05-01T13:47:36Z</time></trkpt><trkpt lat="42.426661067247345" lon="8.667564854031449"><ele>57.25</ele><time>2026-05-01T13:47:37Z</time></trkpt><trkpt lat="42.42671203440713" lon="8.66773651693556"><ele>56.0</ele><time>2026-05-01T13:47:38Z</time></trkpt><trkpt lat="42.42675632708047" lon="8.66790467865886"><ele>55.5</ele><time>2026-05-01T13:47:39Z</time></trkpt><trkpt lat="42.42679235532512" lon="8.668074100188372"><ele>55.0</ele><time>2026-05-01T13:47:40Z</time></trkpt><trkpt lat="42.42680611499825" lon="8.66824930100919"><ele>54.5</ele><time>2026-05-01T13:47:41Z</time></trkpt><trkpt lat="42.42679033363939" lon="8.668421411984124"><ele>54.0</ele><time>2026-05-01T13:47:42Z</time></trkpt><trkpt lat="42.42674435819923" lon="8.66858094202199"><ele>55.5</ele><time>2026-05-01T13:47:43Z</time></trkpt><trkpt lat="42.42666318783258" lon="8.668719592412836"><ele>57.0</ele><time>2026-05-01T13:47:44Z</time></trkpt><trkpt lat="42.42655316116589" lon="8.668822765121034"><ele>58.5</ele><time>2026-05-01T13:47:45Z</time></trkpt><trkpt lat="42.426437418183546" lon="8.668917331591986"><ele>60.0</ele><time>2026-05-01T13:47:46Z</time></trkpt><trkpt lat="42.42632916556354" lon="8.669022164517239"><ele>55.0</ele><time>2026-05-01T13:47:47Z</time></trkpt><trkpt lat="42.42623227138622" lon="8.66913408858489"><ele>50.0</ele><time>2026-05-01T13:47:48Z</time></trkpt><trkpt lat="42.42614923633738" lon="8.669247622084816"><ele>45.0</ele><time>2026-05-01T13:47:49Z</time></trkpt><trkpt lat="42.42609216904149" lon="8.669369903146526"><ele>40.0</ele><time>2026-05-01T13:47:50Z</time></trkpt><trkpt lat="42.42605750397345" lon="8.669521532643495"><ele>39.75</ele><time>2026-05-01T13:47:51Z</time></trkpt><trkpt lat="42.42606074915325" lon="8.669691043122809"><ele>39.5</ele><time>2026-05-01T13:47:52Z</time></trkpt><trkpt lat="42.42608719323206" lon="8.669855081320893"><ele>39.25</ele><time>2026-05-01T13:47:53Z</time></trkpt><trkpt lat="42.426135142852914" lon="8.670018695297903"><ele>39.0</ele><time>2026-05-01T13:47:54Z</time></trkpt><trkpt lat="42.42619637776754" lon="8.670174860055914"><ele>39.2</ele><time>2026-05-01T13:47:55Z</time></trkpt><trkpt lat="42.426268159470844" lon="8.670309669743897"><ele>39.4</ele><time>2026-05-01T13:47:56Z</time></trkpt><trkpt lat="42.426356854127036" lon="8.67039587562316"><ele>39.6</ele><time>2026-05-01T13:47:57Z</time></trkpt><trkpt lat="42.426464250668666" lon="8.67043513199902"><ele>39.8</ele><time>2026-05-01T13:47:58Z</time></trkpt><trkpt lat="42.426561909771586" lon="8.670472907098246"><ele>40.0</ele><time>2026-05-01T13:47:59Z</time></trkpt><trkpt lat="42.426609481738616" lon="8.670564159841815"><ele>41.6</ele><time>2026-05-01T13:48:00Z</time></trkpt><trkpt lat="42.42660468806516" lon="8.67067620608542"><ele>43.2</ele><time>2026-05-01T13:48:01Z</time></trkpt><trkpt lat="42.42654550055443" lon="8.67077746209034"><ele>44.8</ele><time>2026-05-01T13:48:02Z</time></trkpt><trkpt lat="42.42645331475485" lon="8.670877912299543"><ele>46.4</ele><time>2026-05-01T13:48:03Z</time></trkpt><trkpt lat="42.42636975193748" lon="8.670986328482707"><ele>48.0</ele><time>2026-05-01T13:48:04Z</time></trkpt><trkpt lat="42.426289851586226" lon="8.671114557615338"><ele>48.0</ele><time>2026-05-01T13:48:05Z</time></trkpt><trkpt lat="42.426207777645736" lon="8.671248138615535"><ele>48.0</ele><time>2026-05-01T13:48:06Z</time></trkpt><trkpt lat="42.42612249161765" lon="8.671378439689697"><ele>48.0</ele><time>2026-05-01T13:48:07Z</time></trkpt><trkpt lat="42.42603804247293" lon="8.671510674289602"><ele>48.0</ele><time>2026-05-01T13:48:08Z</time></trkpt><trkpt lat="42.42596193390535" lon="8.671631472285606"><ele>48.0</ele><time>2026-05-01T13:48:09Z</time></trkpt><trkpt lat="42.42587841314127" lon="8.671731589351928"><ele>48.0</ele><time>2026-05-01T13:48:10Z</time></trkpt><trkpt lat="42.425778028347935" lon="8.671778355330423"><ele>48.0</ele><time>2026-05-01T13:48:11Z</time></trkpt><trkpt lat="42.425662682820956" lon="8.671762081848229"><ele>48.0</ele><time>2026-05-01T13:48:12Z</time></trkpt><trkpt lat="42.4255537102188" lon="8.671671770956692"><ele>46.5</ele><time>2026-05-01T13:48:13Z</time></trkpt><trkpt lat="42.42545552878853" lon="8.671545857800417"><ele>45.0</ele><time>2026-05-01T13:48:14Z</time></trkpt><trkpt lat="42.42537363590998" lon="8.671426903791238"><ele>43.5</ele><time>2026-05-01T13:48:15Z</time></trkpt><trkpt lat="42.42528746803875" lon="8.671354162423087"><ele>42.0</ele><time>2026-05-01T13:48:16Z</time></trkpt><trkpt lat="42.425185651055635" lon="8.671341162217988"><ele>42.0</ele><time>2026-05-01T13:48:17Z</time></trkpt><trkpt lat="42.42507970139766" lon="8.671394013135075"><ele>42.0</ele><time>2026-05-01T13:48:18Z</time></trkpt><trkpt lat="42.42499207963057" lon="8.671494022361824"><ele>42.0</ele><time>2026-05-01T13:48:19Z</time></trkpt><trkpt lat="42.424929301708616" lon="8.671636044016774"><ele>42.0</ele><time>2026-05-01T13:48:20Z</time></trkpt><trkpt lat="42.424885934420715" lon="8.67180117938006"><ele>41.25</ele><time>2026-05-01T13:48:21Z</time></trkpt><trkpt lat="42.424865721277726" lon="8.6719669945442"><ele>40.5</ele><time>2026-05-01T13:48:22Z</time></trkpt><trkpt lat="42.42489151778596" lon="8.672131025236995"><ele>39.75</ele><time>2026-05-01T13:48:23Z</time></trkpt><trkpt lat="42.42495343341156" lon="8.672296635447477"><ele>39.0</ele><time>2026-05-01T13:48:24Z</time></trkpt><trkpt lat="42.4250385040337" lon="8.672444111725563"><ele>39.0</ele><time>2026-05-01T13:48:25Z</time></trkpt><trkpt lat="42.42515086690383" lon="8.672556594722128"><ele>39.0</ele><time>2026-05-01T13:48:26Z</time></trkpt><trkpt lat="42.42527266244543" lon="8.672649719353943"><ele>39.0</ele><time>2026-05-01T13:48:27Z</time></trkpt><trkpt lat="42.4253942332387" lon="8.672753905497306"><ele>39.0</ele><time>2026-05-01T13:48:28Z</time></trkpt><trkpt lat="42.425506272938044" lon="8.672883540911794"><ele>41.25</ele><time>2026-05-01T13:48:29Z</time></trkpt><trkpt lat="42.42560978215864" lon="8.673025555374304"><ele>43.5</ele><time>2026-05-01T13:48:30Z</time></trkpt><trkpt lat="42.42569905259507" lon="8.673145100955441"><ele>45.75</ele><time>2026-05-01T13:48:31Z</time></trkpt><trkpt lat="42.42575848144677" lon="8.673250524045399"><ele>48.0</ele><time>2026-05-01T13:48:32Z</time></trkpt><trkpt lat="42.425777906902795" lon="8.673362915059688"><ele>48.0</ele><time>2026-05-01T13:48:33Z</time></trkpt><trkpt lat="42.4257558720805" lon="8.673487044799607"><ele>48.0</ele><time>2026-05-01T13:48:34Z</time></trkpt><trkpt lat="42.42569360719869" lon="8.673575462703187"><ele>48.0</ele><time>2026-05-01T13:48:35Z</time></trkpt><trkpt lat="42.42559833469833" lon="8.673614423047104"><ele>48.0</ele><time>2026-05-01T13:48:36Z</time></trkpt><trkpt lat="42.42548458097693" lon="8.673610603241107"><ele>48.0</ele><time>2026-05-01T13:48:37Z</time></trkpt><trkpt lat="42.425361109769995" lon="8.67361589011474"><ele>47.0</ele><time>2026-05-01T13:48:38Z</time></trkpt><trkpt lat="42.425241119808646" lon="8.673682678257961"><ele>46.0</ele><time>2026-05-01T13:48:39Z</time></trkpt><trkpt lat="42.425125397574355" lon="8.673783119924666"><ele>45.0</ele><time>2026-05-01T13:48:40Z</time></trkpt><trkpt lat="42.42500453342953" lon="8.673865017349671"><ele>44.0</ele><time>2026-05-01T13:48:41Z</time></trkpt><trkpt lat="42.42487368255139" lon="8.673898911029621"><ele>44.0</ele><time>2026-05-01T13:48:42Z</time></trkpt><trkpt lat="42.42474010676174" lon="8.673884508093568"><ele>44.0</ele><time>2026-05-01T13:48:43Z</time></trkpt><trkpt lat="42.42462079112134" lon="8.67382802353108"><ele>44.0</ele><time>2026-05-01T13:48:44Z</time></trkpt><trkpt lat="42.42451896234569" lon="8.673768090948673"><ele>44.0</ele><time>2026-05-01T13:48:45Z</time></trkpt><trkpt lat="42.424420141864836" lon="8.673755706312214"><ele>41.75</ele><time>2026-05-01T13:48:46Z</time></trkpt><trkpt lat="42.42433321070454" lon="8.673814309904973"><ele>39.5</ele><time>2026-05-01T13:48:47Z</time></trkpt><trkpt lat="42.42426127525527" lon="8.673932017600265"><ele>37.25</ele><time>2026-05-01T13:48:48Z</time></trkpt><trkpt lat="42.42419717805451" lon="8.674086736880474"><ele>35.0</ele><time>2026-05-01T13:48:49Z</time></trkpt><trkpt lat="42.42413783079906" lon="8.674259574744092"><ele>36.75</ele><time>2026-05-01T13:48:50Z</time></trkpt><trkpt lat="42.424082433427046" lon="8.674439399509074"><ele>38.5</ele><time>2026-05-01T13:48:51Z</time></trkpt><trkpt lat="42.424032143335936" lon="8.674626955160896"><ele>40.25</ele><time>2026-05-01T13:48:52Z</time></trkpt><trkpt lat="42.42398511032488" lon="8.674822000691247"><ele>42.0</ele><time>2026-05-01T13:48:53Z</time></trkpt><trkpt lat="42.423924522577366" lon="8.675018996782988"><ele>42.0</ele><time>2026-05-01T13:48:54Z</time></trkpt><trkpt lat="42.423842116412146" lon="8.675194530680976"><ele>42.0</ele><time>2026-05-01T13:48:55Z</time></trkpt><trkpt lat="42.423744826601144" lon="8.675363745704031"><ele>42.0</ele><time>2026-05-01T13:48:56Z</time></trkpt><trkpt lat="42.42364433825587" lon="8.675523031454153"><ele>40.5</ele><time>2026-05-01T13:48:57Z</time></trkpt><trkpt lat="42.423546978233425" lon="8.675678858296319"><ele>39.0</ele><time>2026-05-01T13:48:58Z</time></trkpt><trkpt lat="42.42344695862384" lon="8.67581611674583"><ele>37.5</ele><time>2026-05-01T13:48:59Z</time></trkpt><trkpt lat="42.42332606092362" lon="8.675925693275422"><ele>36.0</ele><time>2026-05-01T13:49:00Z</time></trkpt><trkpt lat="42.42319409593799" lon="8.675995063709035"><ele>36.0</ele><time>2026-05-01T13:49:01Z</time></trkpt><trkpt lat="42.423054807917076" lon="8.676050895622764"><ele>36.0</ele><time>2026-05-01T13:49:02Z</time></trkpt><trkpt lat="42.42292303695662" lon="8.676102286318251"><ele>36.0</ele><time>2026-05-01T13:49:03Z</time></trkpt><trkpt lat="42.42280832015892" lon="8.676168710968609"><ele>36.0</ele><time>2026-05-01T13:49:04Z</time></trkpt><trkpt lat="42.422717422683135" lon="8.676283578854637"><ele>35.25</ele><time>2026-05-01T13:49:05Z</time></trkpt><trkpt lat="42.42264436883125" lon="8.676445348920957"><ele>34.5</ele><time>2026-05-01T13:49:06Z</time></trkpt><trkpt lat="42.422582767623766" lon="8.676621519888077"><ele>33.75</ele><time>2026-05-01T13:49:07Z</time></trkpt><trkpt lat="42.422523409893095" lon="8.676805535957872"><ele>33.0</ele><time>2026-05-01T13:49:08Z</time></trkpt><trkpt lat="42.422470442101606" lon="8.676997794251943"><ele>33.0</ele><time>2026-05-01T13:49:09Z</time></trkpt><trkpt lat="42.42243779129381" lon="8.67720192122007"><ele>33.0</ele><time>2026-05-01T13:49:10Z</time></trkpt><trkpt lat="42.422418974435814" lon="8.677417254314294"><ele>33.0</ele><time>2026-05-01T13:49:11Z</time></trkpt><trkpt lat="42.4224107992942" lon="8.67762679764833"><ele>32.333333333333336</ele><time>2026-05-01T13:49:12Z</time></trkpt><trkpt lat="42.42241719120467" lon="8.677833706122467"><ele>31.666666666666668</ele><time>2026-05-01T13:49:13Z</time></trkpt><trkpt lat="42.42243232750196" lon="8.67804434262821"><ele>31.0</ele><time>2026-05-01T13:49:14Z</time></trkpt><trkpt lat="42.42246293900487" lon="8.678243115662658"><ele>31.0</ele><time>2026-05-01T13:49:15Z</time></trkpt><trkpt lat="42.42250588628512" lon="8.678435052127668"><ele>31.0</ele><time>2026-05-01T13:49:16Z</time></trkpt><trkpt lat="42.42256339393035" lon="8.678622113766737"><ele>31.0</ele><time>2026-05-01T13:49:17Z</time></trkpt><trkpt lat="42.42264409360507" lon="8.678783040555473"><ele>31.0</ele><time>2026-05-01T13:49:18Z</time></trkpt><trkpt lat="42.4227455978065" lon="8.67890685360623"><ele>30.8</ele><time>2026-05-01T13:49:19Z</time></trkpt><trkpt lat="42.42283625106855" lon="8.679009457726547"><ele>30.6</ele><time>2026-05-01T13:49:20Z</time></trkpt><trkpt lat="42.422895640825594" lon="8.679124319537593"><ele>30.4</ele><time>2026-05-01T13:49:21Z</time></trkpt><trkpt lat="42.422903642078886" lon="8.679259574024124"><ele>30.2</ele><time>2026-05-01T13:49:22Z</time></trkpt><trkpt lat="42.42287281570312" lon="8.679392889358356"><ele>30.0</ele><time>2026-05-01T13:49:23Z</time></trkpt><trkpt lat="42.422807985340214" lon="8.679489658734038"><ele>30.0</ele><time>2026-05-01T13:49:24Z</time></trkpt><trkpt lat="42.422718940231746" lon="8.679545022575034"><ele>30.0</ele><time>2026-05-01T13:49:25Z</time></trkpt><trkpt lat="42.42261826213368" lon="8.679526992923806"><ele>30.0</ele><time>2026-05-01T13:49:26Z</time></trkpt><trkpt lat="42.42252239884443" lon="8.679457952580547"><ele>30.0</ele><time>2026-05-01T13:49:27Z</time></trkpt><trkpt lat="42.42242066930579" lon="8.679380344016755"><ele>30.0</ele><time>2026-05-01T13:49:28Z</time></trkpt><trkpt lat="42.42230923240534" lon="8.679309780659738"><ele>30.0</ele><time>2026-05-01T13:49:29Z</time></trkpt><trkpt lat="42.422193467528835" lon="8.67922796798389"><ele>30.0</ele><time>2026-05-01T13:49:30Z</time></trkpt><trkpt lat="42.42207958475598" lon="8.6791298807315"><ele>30.0</ele><time>2026-05-01T13:49:31Z</time></trkpt><trkpt lat="42.42198091517095" lon="8.679000489907732"><ele>30.0</ele><time>2026-05-01T13:49:32Z</time></trkpt><trkpt lat="42.421912605275345" lon="8.67883282494723"><ele>30.0</ele><time>2026-05-01T13:49:33Z</time></trkpt><trkpt lat="42.42187007305293" lon="8.678644485687018"><ele>30.0</ele><time>2026-05-01T13:49:34Z</time></trkpt><trkpt lat="42.42180512398677" lon="8.678468995096445"><ele>30.0</ele><time>2026-05-01T13:49:35Z</time></trkpt><trkpt lat="42.42171479461928" lon="8.678315953127804"><ele>30.0</ele><time>2026-05-01T13:49:36Z</time></trkpt><trkpt lat="42.42161750964326" lon="8.678167890855974"><ele>30.0</ele><time>2026-05-01T13:49:37Z</time></trkpt><trkpt lat="42.42152458657463" lon="8.678017588521737"><ele>30.0</ele><time>2026-05-01T13:49:38Z</time></trkpt><trkpt lat="42.421435046614086" lon="8.677864216806114"><ele>30.0</ele><time>2026-05-01T13:49:39Z</time></trkpt><trkpt lat="42.42135268662784" lon="8.677717682775455"><ele>30.0</ele><time>2026-05-01T13:49:40Z</time></trkpt><trkpt lat="42.42127754738376" lon="8.677577524289461"><ele>30.0</ele><time>2026-05-01T13:49:41Z</time></trkpt><trkpt lat="42.42119601246785" lon="8.677453714329026"><ele>30.0</ele><time>2026-05-01T13:49:42Z</time></trkpt><trkpt lat="42.421097471848256" lon="8.677348025870403"><ele>30.0</ele><time>2026-05-01T13:49:43Z</time></trkpt><trkpt lat="42.42098024313953" lon="8.677258850636704"><ele>30.0</ele><time>2026-05-01T13:49:44Z</time></trkpt><trkpt lat="42.420853714572864" lon="8.677179355221863"><ele>30.0</ele><time>2026-05-01T13:49:45Z</time></trkpt><trkpt lat="42.42073311658884" lon="8.677090850148069"><ele>30.0</ele><time>2026-05-01T13:49:46Z</time></trkpt><trkpt lat="42.42061545987708" lon="8.676989554774758"><ele>30.0</ele><time>2026-05-01T13:49:47Z</time></trkpt><trkpt lat="42.42050002961865" lon="8.676876502649762"><ele>30.0</ele><time>2026-05-01T13:49:48Z</time></trkpt><trkpt lat="42.42039369621888" lon="8.676755250438369"><ele>28.0</ele><time>2026-05-01T13:49:49Z</time></trkpt><trkpt lat="42.42028277127052" lon="8.676642863837285"><ele>26.0</ele><time>2026-05-01T13:49:50Z</time></trkpt><trkpt lat="42.42015887043341" lon="8.676555079659824"><ele>24.0</ele><time>2026-05-01T13:49:51Z</time></trkpt><trkpt lat="42.420032037466925" lon="8.676493430852007"><ele>22.0</ele><time>2026-05-01T13:49:52Z</time></trkpt><trkpt lat="42.41992022301814" lon="8.676462503495399"><ele>22.0</ele><time>2026-05-01T13:49:53Z</time></trkpt><trkpt lat="42.41981641801971" lon="8.67647714080017"><ele>22.0</ele><time>2026-05-01T13:49:54Z</time></trkpt><trkpt lat="42.41970984577952" lon="8.67654589286032"><ele>22.0</ele><time>2026-05-01T13:49:55Z</time></trkpt><trkpt lat="42.419606116287" lon="8.676613178131062"><ele>22.0</ele><time>2026-05-01T13:49:56Z</time></trkpt><trkpt lat="42.419497638334754" lon="8.676617192796492"><ele>22.0</ele><time>2026-05-01T13:49:57Z</time></trkpt><trkpt lat="42.41940501729346" lon="8.67655300988514"><ele>22.0</ele><time>2026-05-01T13:49:58Z</time></trkpt><trkpt lat="42.419333767342614" lon="8.676440042637225"><ele>22.0</ele><time>2026-05-01T13:49:59Z</time></trkpt><trkpt lat="42.419256307774724" lon="8.67633777519629"><ele>22.0</ele><time>2026-05-01T13:50:00Z</time></trkpt><trkpt lat="42.41916255995685" lon="8.676271101849835"><ele>22.0</ele><time>2026-05-01T13:50:01Z</time></trkpt><trkpt lat="42.41905733139036" lon="8.676248444778073"><ele>22.0</ele><time>2026-05-01T13:50:02Z</time></trkpt><trkpt lat="42.4189576569503" lon="8.676293057234664"><ele>22.0</ele><time>2026-05-01T13:50:03Z</time></trkpt><trkpt lat="42.418874023828536" lon="8.676401426506834"><ele>22.0</ele><time>2026-05-01T13:50:04Z</time></trkpt><trkpt lat="42.41880650071103" lon="8.676547851876823"><ele>22.0</ele><time>2026-05-01T13:50:05Z</time></trkpt><trkpt lat="42.41875248165787" lon="8.676712589811517"><ele>22.0</ele><time>2026-05-01T13:50:06Z</time></trkpt><trkpt lat="42.41869044672833" lon="8.67687292819146"><ele>20.0</ele><time>2026-05-01T13:50:07Z</time></trkpt><trkpt lat="42.418627359297695" lon="8.677040905002356"><ele>18.0</ele><time>2026-05-01T13:50:08Z</time></trkpt><trkpt lat="42.418576796364206" lon="8.677225044046931"><ele>16.0</ele><time>2026-05-01T13:50:09Z</time></trkpt><trkpt lat="42.41854069916201" lon="8.677420751535744"><ele>14.0</ele><time>2026-05-01T13:50:10Z</time></trkpt><trkpt lat="42.418505828987385" lon="8.677617275160712"><ele>14.666666666666668</ele><time>2026-05-01T13:50:11Z</time></trkpt><trkpt lat="42.41846362904497" lon="8.677817382545772"><ele>15.333333333333332</ele><time>2026-05-01T13:50:12Z</time></trkpt><trkpt lat="42.41841976441452" lon="8.678017874602267"><ele>16.0</ele><time>2026-05-01T13:50:13Z</time></trkpt><trkpt lat="42.418379833674315" lon="8.67821860283242"><ele>16.0</ele><time>2026-05-01T13:50:14Z</time></trkpt><trkpt lat="42.41835567666298" lon="8.67842970084389"><ele>16.0</ele><time>2026-05-01T13:50:15Z</time></trkpt><trkpt lat="42.418343724454786" lon="8.67864793798476"><ele>16.0</ele><time>2026-05-01T13:50:16Z</time></trkpt><trkpt lat="42.418318890329374" lon="8.678868023546155"><ele>16.333333333333332</ele><time>2026-05-01T13:50:17Z</time></trkpt><trkpt lat="42.418285019028886" lon="8.679071543429302"><ele>16.666666666666668</ele><time>2026-05-01T13:50:18Z</time></trkpt><trkpt lat="42.41824596820889" lon="8.679279787217352"><ele>17.0</ele><time>2026-05-01T13:50:19Z</time></trkpt><trkpt lat="42.418213578355854" lon="8.679480160303264"><ele>17.75</ele><time>2026-05-01T13:50:20Z</time></trkpt><trkpt lat="42.4181712078711" lon="8.679663097561585"><ele>18.5</ele><time>2026-05-01T13:50:21Z</time></trkpt><trkpt lat="42.418102622869846" lon="8.679831197766449"><ele>19.25</ele><time>2026-05-01T13:50:22Z</time></trkpt><trkpt lat="42.41801690265326" lon="8.679980017130106"><ele>20.0</ele><time>2026-05-01T13:50:23Z</time></trkpt><trkpt lat="42.417924050620144" lon="8.680117958755778"><ele>19.75</ele><time>2026-05-01T13:50:24Z</time></trkpt><trkpt lat="42.41781512948326" lon="8.680234549756634"><ele>19.5</ele><time>2026-05-01T13:50:25Z</time></trkpt><trkpt lat="42.417682478199474" lon="8.680310802799399"><ele>19.25</ele><time>2026-05-01T13:50:26Z</time></trkpt><trkpt lat="42.417545072200156" lon="8.680364597995382"><ele>19.0</ele><time>2026-05-01T13:50:27Z</time></trkpt><trkpt lat="42.41742067066532" lon="8.680453022900748"><ele>19.0</ele><time>2026-05-01T13:50:28Z</time></trkpt><trkpt lat="42.417311299044485" lon="8.680582363981532"><ele>19.0</ele><time>2026-05-01T13:50:29Z</time></trkpt><trkpt lat="42.41721863094945" lon="8.680730928078072"><ele>19.0</ele><time>2026-05-01T13:50:30Z</time></trkpt><trkpt lat="42.41712877942297" lon="8.68088684468495"><ele>19.0</ele><time>2026-05-01T13:50:31Z</time></trkpt><trkpt lat="42.41704232210574" lon="8.68104996057226"><ele>17.5</ele><time>2026-05-01T13:50:32Z</time></trkpt><trkpt lat="42.41696203578119" lon="8.681213439474975"><ele>16.0</ele><time>2026-05-01T13:50:33Z</time></trkpt><trkpt lat="42.41688790474604" lon="8.681379047024915"><ele>14.5</ele><time>2026-05-01T13:50:34Z</time></trkpt><trkpt lat="42.41681407579617" lon="8.681546584422676"><ele>13.0</ele><time>2026-05-01T13:50:35Z</time></trkpt><trkpt lat="42.4167398529714" lon="8.68170985474968"><ele>13.0</ele><time>2026-05-01T13:50:36Z</time></trkpt><trkpt lat="42.41666669317991" lon="8.681867718160314"><ele>13.0</ele><time>2026-05-01T13:50:37Z</time></trkpt><trkpt lat="42.41659641969924" lon="8.682020084966977"><ele>13.0</ele><time>2026-05-01T13:50:38Z</time></trkpt><trkpt lat="42.416532562283095" lon="8.682170660015908"><ele>13.0</ele><time>2026-05-01T13:50:39Z</time></trkpt><trkpt lat="42.41646837597" lon="8.682316108213367"><ele>13.0</ele><time>2026-05-01T13:50:40Z</time></trkpt><trkpt lat="42.41640954259722" lon="8.682457679873579"><ele>13.0</ele><time>2026-05-01T13:50:41Z</time></trkpt><trkpt lat="42.41635838117326" lon="8.682595509781489"><ele>13.0</ele><time>2026-05-01T13:50:42Z</time></trkpt><trkpt lat="42.41630800221291" lon="8.682714997373084"><ele>13.0</ele><time>2026-05-01T13:50:43Z</time></trkpt><trkpt lat="42.4162554478066" lon="8.682813284777762"><ele>13.0</ele><time>2026-05-01T13:50:44Z</time></trkpt><trkpt lat="42.416193337863106" lon="8.682859032781664"><ele>13.0</ele><time>2026-05-01T13:50:45Z</time></trkpt><trkpt lat="42.41612247440157" lon="8.68285548972157"><ele>13.0</ele><time>2026-05-01T13:50:46Z</time></trkpt><trkpt lat="42.41604174771699" lon="8.682814552897646"><ele>13.0</ele><time>2026-05-01T13:50:47Z</time></trkpt><trkpt lat="42.41595742504979" lon="8.682748356344307"><ele>13.0</ele><time>2026-05-01T13:50:48Z</time></trkpt><trkpt lat="42.41587047954734" lon="8.682681752293382"><ele>13.0</ele><time>2026-05-01T13:50:49Z</time></trkpt><trkpt lat="42.41577880112966" lon="8.682611493319312"><ele>11.75</ele><time>2026-05-01T13:50:50Z</time></trkpt><trkpt lat="42.4156769801776" lon="8.682538610098009"><ele>10.5</ele><time>2026-05-01T13:50:51Z</time></trkpt><trkpt lat="42.415570077485114" lon="8.682468120014683"><ele>9.25</ele><time>2026-05-01T13:50:52Z</time></trkpt><trkpt lat="42.41546524845877" lon="8.682391002037374"><ele>8.0</ele><time>2026-05-01T13:50:53Z</time></trkpt><trkpt lat="42.415363955592724" lon="8.682314359324726"><ele>7.75</ele><time>2026-05-01T13:50:54Z</time></trkpt><trkpt lat="42.41525914092074" lon="8.682243162870657"><ele>7.5</ele><time>2026-05-01T13:50:55Z</time></trkpt><trkpt lat="42.41515885978512" lon="8.682173543289714"><ele>7.25</ele><time>2026-05-01T13:50:56Z</time></trkpt><trkpt lat="42.41505782088425" lon="8.682103792882886"><ele>7.0</ele><time>2026-05-01T13:50:57Z</time></trkpt><trkpt lat="42.41495711371579" lon="8.682032910430559"><ele>7.0</ele><time>2026-05-01T13:50:58Z</time></trkpt><trkpt lat="42.414850915169" lon="8.68196383112054"><ele>7.0</ele><time>2026-05-01T13:50:59Z</time></trkpt><trkpt lat="42.41473446480738" lon="8.681904775439445"><ele>7.0</ele><time>2026-05-01T13:51:00Z</time></trkpt><trkpt lat="42.41460716011119" lon="8.681852545922318"><ele>7.0</ele><time>2026-05-01T13:51:01Z</time></trkpt><trkpt lat="42.41448195025459" lon="8.68181492746053"><ele>7.75</ele><time>2026-05-01T13:51:02Z</time></trkpt><trkpt lat="42.414354923881554" lon="8.681780476185287"><ele>8.5</ele><time>2026-05-01T13:51:03Z</time></trkpt><trkpt lat="42.41422776732671" lon="8.681753668135983"><ele>9.25</ele><time>2026-05-01T13:51:04Z</time></trkpt><trkpt lat="42.41410151641088" lon="8.681738121577357"><ele>10.0</ele><time>2026-05-01T13:51:05Z</time></trkpt><trkpt lat="42.41397271795535" lon="8.681724169915361"><ele>10.0</ele><time>2026-05-01T13:51:06Z</time></trkpt><trkpt lat="42.41383559986547" lon="8.681725153138748"><ele>10.0</ele><time>2026-05-01T13:51:07Z</time></trkpt><trkpt lat="42.41369722817652" lon="8.681724015395641"><ele>10.0</ele><time>2026-05-01T13:51:08Z</time></trkpt><trkpt lat="42.41355782716981" lon="8.681717547867756"><ele>10.0</ele><time>2026-05-01T13:51:09Z</time></trkpt><trkpt lat="42.41341904903518" lon="8.681706331214194"><ele>9.75</ele><time>2026-05-01T13:51:10Z</time></trkpt><trkpt lat="42.413282657482576" lon="8.681695982707833"><ele>9.5</ele><time>2026-05-01T13:51:11Z</time></trkpt><trkpt lat="42.413151122454614" lon="8.68168321572025"><ele>9.25</ele><time>2026-05-01T13:51:12Z</time></trkpt><trkpt lat="42.41302015085898" lon="8.681670299710348"><ele>9.0</ele><time>2026-05-01T13:51:13Z</time></trkpt><trkpt lat="42.412891965280934" lon="8.681667817016306"><ele>9.75</ele><time>2026-05-01T13:51:14Z</time></trkpt><trkpt lat="42.41276559670229" lon="8.681663792568505"><ele>10.5</ele><time>2026-05-01T13:51:15Z</time></trkpt><trkpt lat="42.41264114749041" lon="8.681652793981616"><ele>11.25</ele><time>2026-05-01T13:51:16Z</time></trkpt><trkpt lat="42.41251806534529" lon="8.68164351575278"><ele>12.0</ele><time>2026-05-01T13:51:17Z</time></trkpt><trkpt lat="42.412395624077796" lon="8.681631857075283"><ele>12.0</ele><time>2026-05-01T13:51:18Z</time></trkpt><trkpt lat="42.412271773112955" lon="8.681620811083846"><ele>12.0</ele><time>2026-05-01T13:51:19Z</time></trkpt><trkpt lat="42.4121481779493" lon="8.681612918312"><ele>12.0</ele><time>2026-05-01T13:51:20Z</time></trkpt><trkpt lat="42.41203474103855" lon="8.681611900013737"><ele>12.0</ele><time>2026-05-01T13:51:21Z</time></trkpt><trkpt lat="42.411932924933765" lon="8.681608276461855"><ele>13.6</ele><time>2026-05-01T13:51:22Z</time></trkpt><trkpt lat="42.41182490771795" lon="8.681595404149254"><ele>15.2</ele><time>2026-05-01T13:51:23Z</time></trkpt><trkpt lat="42.411719787700434" lon="8.681580605818933"><ele>16.8</ele><time>2026-05-01T13:51:24Z</time></trkpt><trkpt lat="42.41162640900623" lon="8.68158634774307"><ele>18.4</ele><time>2026-05-01T13:51:25Z</time></trkpt><trkpt lat="42.41155386351474" lon="8.68163137897504"><ele>20.0</ele><time>2026-05-01T13:51:26Z</time></trkpt><trkpt lat="42.41151618793381" lon="8.681723146750281"><ele>20.0</ele><time>2026-05-01T13:51:27Z</time></trkpt><trkpt lat="42.411505669889785" lon="8.681841187147784"><ele>20.0</ele><time>2026-05-01T13:51:28Z</time></trkpt><trkpt lat="42.411515534588894" lon="8.681966082879747"><ele>20.0</ele><time>2026-05-01T13:51:29Z</time></trkpt><trkpt lat="42.41152884193204" lon="8.682111316549262"><ele>20.0</ele><time>2026-05-01T13:51:30Z</time></trkpt><trkpt lat="42.41153374608086" lon="8.682259667011966"><ele>20.0</ele><time>2026-05-01T13:51:31Z</time></trkpt><trkpt lat="42.41151950194338" lon="8.682421332413401"><ele>20.0</ele><time>2026-05-01T13:51:32Z</time></trkpt><trkpt lat="42.411489588936895" lon="8.682592502516426"><ele>20.0</ele><time>2026-05-01T13:51:33Z</time></trkpt><trkpt lat="42.41144197368288" lon="8.68275974409675"><ele>20.0</ele><time>2026-05-01T13:51:34Z</time></trkpt><trkpt lat="42.41137790197273" lon="8.682930059376417"><ele>20.0</ele><time>2026-05-01T13:51:35Z</time></trkpt><trkpt lat="42.41131157552583" lon="8.683106492333613"><ele>20.333333333333336</ele><time>2026-05-01T13:51:36Z</time></trkpt><trkpt lat="42.41124464457045" lon="8.683290021641339"><ele>20.666666666666668</ele><time>2026-05-01T13:51:37Z</time></trkpt><trkpt lat="42.41117602127058" lon="8.683482751163142"><ele>21.0</ele><time>2026-05-01T13:51:38Z</time></trkpt><trkpt lat="42.411104624607646" lon="8.68367659009106"><ele>21.0</ele><time>2026-05-01T13:51:39Z</time></trkpt><trkpt lat="42.41103119068414" lon="8.683875979719518"><ele>21.0</ele><time>2026-05-01T13:51:40Z</time></trkpt><trkpt lat="42.41095850961155" lon="8.684077991017375"><ele>21.0</ele><time>2026-05-01T13:51:41Z</time></trkpt><trkpt lat="42.4108843203178" lon="8.684284164040548"><ele>20.666666666666668</ele><time>2026-05-01T13:51:42Z</time></trkpt><trkpt lat="42.410811021576016" lon="8.684496753860879"><ele>20.333333333333336</ele><time>2026-05-01T13:51:43Z</time></trkpt><trkpt lat="42.41073383469476" lon="8.684703948111293"><ele>20.0</ele><time>2026-05-01T13:51:43.999Z</time></trkpt><trkpt lat="42.410658187125065" lon="8.684916743020935"><ele>20.0</ele><time>2026-05-01T13:51:44.999Z</time></trkpt><trkpt lat="42.410586595353195" lon="8.685129714528514"><ele>20.0</ele><time>2026-05-01T13:51:45.999Z</time></trkpt><trkpt lat="42.41051294077601" lon="8.685343976873972"><ele>20.0</ele><time>2026-05-01T13:51:46.999Z</time></trkpt><trkpt lat="42.410437930148824" lon="8.685552343597337"><ele>21.0</ele><time>2026-05-01T13:51:47.999Z</time></trkpt><trkpt lat="42.410362795029506" lon="8.685766918391044"><ele>22.0</ele><time>2026-05-01T13:51:48.999Z</time></trkpt><trkpt lat="42.41028775963154" lon="8.68597444767781"><ele>23.0</ele><time>2026-05-01T13:51:49.999Z</time></trkpt><trkpt lat="42.41021176451215" lon="8.686188040426433"><ele>23.0</ele><time>2026-05-01T13:51:50.999Z</time></trkpt><trkpt lat="42.41013547809956" lon="8.686400245476774"><ele>23.0</ele><time>2026-05-01T13:51:51.999Z</time></trkpt><trkpt lat="42.410062588165225" lon="8.68661307329245"><ele>23.0</ele><time>2026-05-01T13:51:52.999Z</time></trkpt><trkpt lat="42.409993090791026" lon="8.686831285555769"><ele>21.333333333333336</ele><time>2026-05-01T13:51:53.999Z</time></trkpt><trkpt lat="42.40991839796394" lon="8.687048208149422"><ele>19.666666666666668</ele><time>2026-05-01T13:51:54.999Z</time></trkpt><trkpt lat="42.40983567969639" lon="8.687256987155903"><ele>18.0</ele><time>2026-05-01T13:51:55.999Z</time></trkpt><trkpt lat="42.40973224280871" lon="8.687456378824676"><ele>19.0</ele><time>2026-05-01T13:51:56.999Z</time></trkpt><trkpt lat="42.409608268164526" lon="8.687635634616637"><ele>20.0</ele><time>2026-05-01T13:51:57.999Z</time></trkpt><trkpt lat="42.409468632245556" lon="8.687796602848469"><ele>21.0</ele><time>2026-05-01T13:51:58.999Z</time></trkpt><trkpt lat="42.40932585566689" lon="8.687947747352702"><ele>21.0</ele><time>2026-05-01T13:51:59.999Z</time></trkpt><trkpt lat="42.40917640661651" lon="8.688099797233598"><ele>21.0</ele><time>2026-05-01T13:52:01Z</time></trkpt><trkpt lat="42.40903961092958" lon="8.68826268832775"><ele>21.0</ele><time>2026-05-01T13:52:02Z</time></trkpt><trkpt lat="42.40889303320385" lon="8.688423165456584"><ele>22.0</ele><time>2026-05-01T13:52:03Z</time></trkpt><trkpt lat="42.408745543700384" lon="8.688587199926154"><ele>23.0</ele><time>2026-05-01T13:52:04Z</time></trkpt><trkpt lat="42.408598178866804" lon="8.688753814716232"><ele>24.0</ele><time>2026-05-01T13:52:05Z</time></trkpt><trkpt lat="42.40845321998547" lon="8.688918440383253"><ele>24.0</ele><time>2026-05-01T13:52:06Z</time></trkpt><trkpt lat="42.408308488455624" lon="8.689086822712598"><ele>24.0</ele><time>2026-05-01T13:52:07Z</time></trkpt><trkpt lat="42.40816638300875" lon="8.689260720522846"><ele>24.0</ele><time>2026-05-01T13:52:08Z</time></trkpt><trkpt lat="42.40802358919488" lon="8.689425271905693"><ele>25.333333333333336</ele><time>2026-05-01T13:52:09Z</time></trkpt><trkpt lat="42.4078763996574" lon="8.689586288385897"><ele>26.666666666666668</ele><time>2026-05-01T13:52:10Z</time></trkpt><trkpt lat="42.407733283902125" lon="8.689748964596603"><ele>28.0</ele><time>2026-05-01T13:52:11Z</time></trkpt><trkpt lat="42.407590230568445" lon="8.689917673025437"><ele>28.0</ele><time>2026-05-01T13:52:12Z</time></trkpt><trkpt lat="42.40745730428645" lon="8.690096796695439"><ele>28.0</ele><time>2026-05-01T13:52:13Z</time></trkpt><trkpt lat="42.40732610428293" lon="8.690282641674914"><ele>28.0</ele><time>2026-05-01T13:52:14Z</time></trkpt><trkpt lat="42.40719892396709" lon="8.690470106905448"><ele>30.666666666666668</ele><time>2026-05-01T13:52:15Z</time></trkpt><trkpt lat="42.40707268968479" lon="8.690647541791074"><ele>33.333333333333336</ele><time>2026-05-01T13:52:16Z</time></trkpt><trkpt lat="42.40695181264376" lon="8.69081485155172"><ele>36.0</ele><time>2026-05-01T13:52:17Z</time></trkpt><trkpt lat="42.40684374005847" lon="8.690976555985557"><ele>32.0</ele><time>2026-05-01T13:52:18Z</time></trkpt><trkpt lat="42.4067502115324" lon="8.691149264004101"><ele>28.0</ele><time>2026-05-01T13:52:19Z</time></trkpt><trkpt lat="42.40668683117973" lon="8.691352119794551"><ele>24.0</ele><time>2026-05-01T13:52:20Z</time></trkpt><trkpt lat="42.406646866230496" lon="8.691576093498336"><ele>24.0</ele><time>2026-05-01T13:52:21Z</time></trkpt><trkpt lat="42.406622212418995" lon="8.691805144829061"><ele>24.0</ele><time>2026-05-01T13:52:22Z</time></trkpt><trkpt lat="42.40660075425539" lon="8.692027758135612"><ele>24.0</ele><time>2026-05-01T13:52:23Z</time></trkpt><trkpt lat="42.4065691845015" lon="8.692235453751179"><ele>22.666666666666668</ele><time>2026-05-01T13:52:24Z</time></trkpt><trkpt lat="42.406513427115854" lon="8.69242805317872"><ele>21.333333333333336</ele><time>2026-05-01T13:52:25Z</time></trkpt><trkpt lat="42.40643034784838" lon="8.692613729576177"><ele>20.0</ele><time>2026-05-01T13:52:26Z</time></trkpt><trkpt lat="42.40633751975787" lon="8.692790839752984"><ele>21.333333333333336</ele><time>2026-05-01T13:52:27Z</time></trkpt><trkpt lat="42.406231237890815" lon="8.692958690856594"><ele>22.666666666666668</ele><time>2026-05-01T13:52:28Z</time></trkpt><trkpt lat="42.40610929655316" lon="8.693106862176236"><ele>24.0</ele><time>2026-05-01T13:52:29Z</time></trkpt><trkpt lat="42.40597301741309" lon="8.693231263765307"><ele>24.0</ele><time>2026-05-01T13:52:30Z</time></trkpt><trkpt lat="42.405835860928995" lon="8.693349018128986"><ele>24.0</ele><time>2026-05-01T13:52:31Z</time></trkpt><trkpt lat="42.4057036820945" lon="8.693492913599751"><ele>24.0</ele><time>2026-05-01T13:52:32Z</time></trkpt><trkpt lat="42.40558548124895" lon="8.693658064809325"><ele>24.666666666666664</ele><time>2026-05-01T13:52:33Z</time></trkpt><trkpt lat="42.40546872019978" lon="8.693830740606076"><ele>25.333333333333332</ele><time>2026-05-01T13:52:34Z</time></trkpt><trkpt lat="42.40534737651249" lon="8.694003786671113"><ele>26.0</ele><time>2026-05-01T13:52:35Z</time></trkpt><trkpt lat="42.40521871142955" lon="8.694186793486844"><ele>26.0</ele><time>2026-05-01T13:52:36Z</time></trkpt><trkpt lat="42.40509639160836" lon="8.694369245172947"><ele>26.0</ele><time>2026-05-01T13:52:37Z</time></trkpt><trkpt lat="42.4049773509211" lon="8.694551144495934"><ele>26.0</ele><time>2026-05-01T13:52:38Z</time></trkpt><trkpt lat="42.404859275619685" lon="8.694734027995336"><ele>23.333333333333332</ele><time>2026-05-01T13:52:39Z</time></trkpt><trkpt lat="42.404750311539665" lon="8.69489907083393"><ele>20.666666666666664</ele><time>2026-05-01T13:52:40Z</time></trkpt><trkpt lat="42.404636648710046" lon="8.695054811679988"><ele>18.0</ele><time>2026-05-01T13:52:41Z</time></trkpt><trkpt lat="42.404511142302276" lon="8.695186045490656"><ele>19.333333333333332</ele><time>2026-05-01T13:52:42Z</time></trkpt><trkpt lat="42.40437189556948" lon="8.695280671835407"><ele>20.666666666666664</ele><time>2026-05-01T13:52:43Z</time></trkpt><trkpt lat="42.404219613646404" lon="8.695304813506763"><ele>22.0</ele><time>2026-05-01T13:52:44Z</time></trkpt><trkpt lat="42.404063259162335" lon="8.695295828365653"><ele>22.0</ele><time>2026-05-01T13:52:45Z</time></trkpt><trkpt lat="42.40390101787392" lon="8.695323492680185"><ele>22.0</ele><time>2026-05-01T13:52:46Z</time></trkpt><trkpt lat="42.4037449813385" lon="8.69539177826078"><ele>22.0</ele><time>2026-05-01T13:52:47Z</time></trkpt><trkpt lat="42.40359786830523" lon="8.695473291524591"><ele>23.25</ele><time>2026-05-01T13:52:48Z</time></trkpt><trkpt lat="42.40346634718634" lon="8.695556586445633"><ele>24.5</ele><time>2026-05-01T13:52:49Z</time></trkpt><trkpt lat="42.40335111091916" lon="8.695627296391507"><ele>25.75</ele><time>2026-05-01T13:52:50Z</time></trkpt><trkpt lat="42.40325037396121" lon="8.695679138841145"><ele>27.0</ele><time>2026-05-01T13:52:51Z</time></trkpt><trkpt lat="42.40315961851549" lon="8.695725460466813"><ele>27.0</ele><time>2026-05-01T13:52:52Z</time></trkpt><trkpt lat="42.40309424150906" lon="8.695777681999447"><ele>27.0</ele><time>2026-05-01T13:52:53Z</time></trkpt><trkpt lat="42.40305109182065" lon="8.69585729006676"><ele>27.0</ele><time>2026-05-01T13:52:54Z</time></trkpt><trkpt lat="42.403030821394616" lon="8.695964097619932"><ele>27.0</ele><time>2026-05-01T13:52:55Z</time></trkpt><trkpt lat="42.403038764851736" lon="8.69609168568212"><ele>27.0</ele><time>2026-05-01T13:52:56Z</time></trkpt><trkpt lat="42.40306138865993" lon="8.696222275111136"><ele>27.0</ele><time>2026-05-01T13:52:57Z</time></trkpt><trkpt lat="42.40306839423467" lon="8.696365130506537"><ele>27.25</ele><time>2026-05-01T13:52:58Z</time></trkpt><trkpt lat="42.40305294825504" lon="8.696512856377089"><ele>27.5</ele><time>2026-05-01T13:52:59Z</time></trkpt><trkpt lat="42.40301106159184" lon="8.6966629175794"><ele>27.75</ele><time>2026-05-01T13:53:00Z</time></trkpt><trkpt lat="42.40294593856075" lon="8.696808976269352"><ele>28.0</ele><time>2026-05-01T13:53:01Z</time></trkpt><trkpt lat="42.40287020763532" lon="8.696953045186833"><ele>27.25</ele><time>2026-05-01T13:53:02Z</time></trkpt><trkpt lat="42.40278685945697" lon="8.697089938802591"><ele>26.5</ele><time>2026-05-01T13:53:03Z</time></trkpt><trkpt lat="42.40270339505453" lon="8.697217987208418"><ele>25.75</ele><time>2026-05-01T13:53:04Z</time></trkpt><trkpt lat="42.40261706555806" lon="8.697337388177992"><ele>25.0</ele><time>2026-05-01T13:53:05Z</time></trkpt><trkpt lat="42.402527319955745" lon="8.697444010164142"><ele>25.0</ele><time>2026-05-01T13:53:06Z</time></trkpt><trkpt lat="42.40243068355594" lon="8.697535265318635"><ele>25.0</ele><time>2026-05-01T13:53:07Z</time></trkpt><trkpt lat="42.40233012867796" lon="8.697613334542632"><ele>25.0</ele><time>2026-05-01T13:53:08Z</time></trkpt><trkpt lat="42.40222214010199" lon="8.697669625090306"><ele>25.0</ele><time>2026-05-01T13:53:09Z</time></trkpt><trkpt lat="42.402108764534546" lon="8.697695842075682"><ele>26.0</ele><time>2026-05-01T13:53:10Z</time></trkpt><trkpt lat="42.402009559117545" lon="8.697704146905211"><ele>27.0</ele><time>2026-05-01T13:53:11Z</time></trkpt><trkpt lat="42.401927887811524" lon="8.69770513912386"><ele>28.0</ele><time>2026-05-01T13:53:12Z</time></trkpt><trkpt lat="42.4018435429063" lon="8.697707594623152"><ele>29.0</ele><time>2026-05-01T13:53:13Z</time></trkpt><trkpt lat="42.40173476682315" lon="8.697709745771844"><ele>30.0</ele><time>2026-05-01T13:53:14Z</time></trkpt><trkpt lat="42.40161753176699" lon="8.697700142203004"><ele>30.0</ele><time>2026-05-01T13:53:15Z</time></trkpt><trkpt lat="42.40148798131822" lon="8.697687567615521"><ele>30.0</ele><time>2026-05-01T13:53:16Z</time></trkpt><trkpt lat="42.40134796773424" lon="8.6976788350125"><ele>30.0</ele><time>2026-05-01T13:53:17Z</time></trkpt><trkpt lat="42.40118495058291" lon="8.697671108902934"><ele>30.0</ele><time>2026-05-01T13:53:18Z</time></trkpt><trkpt lat="42.40098207010912" lon="8.69765258403304"><ele>30.333333333333336</ele><time>2026-05-01T13:53:19Z</time></trkpt><trkpt lat="42.40076272948103" lon="8.697636041799909"><ele>30.666666666666668</ele><time>2026-05-01T13:53:20Z</time></trkpt><trkpt lat="42.40055349365972" lon="8.697622540196535"><ele>31.0</ele><time>2026-05-01T13:53:21Z</time></trkpt><trkpt lat="42.40037462019735" lon="8.697606873480765"><ele>32.0</ele><time>2026-05-01T13:53:22Z</time></trkpt><trkpt lat="42.400203817792175" lon="8.697596231842956"><ele>33.0</ele><time>2026-05-01T13:53:23Z</time></trkpt><trkpt lat="42.400036886777094" lon="8.697587653635981"><ele>34.0</ele><time>2026-05-01T13:53:24Z</time></trkpt><trkpt lat="42.39987061244112" lon="8.697577176190892"><ele>34.0</ele><time>2026-05-01T13:53:25Z</time></trkpt><trkpt lat="42.39970212781364" lon="8.697567822975483"><ele>34.0</ele><time>2026-05-01T13:53:26Z</time></trkpt><trkpt lat="42.39952986902847" lon="8.69756096727089"><ele>34.0</ele><time>2026-05-01T13:53:27Z</time></trkpt><trkpt lat="42.39935448138342" lon="8.697554343219712"><ele>35.333333333333336</ele><time>2026-05-01T13:53:28Z</time></trkpt><trkpt lat="42.39917474084998" lon="8.69754167109377"><ele>36.666666666666664</ele><time>2026-05-01T13:53:29Z</time></trkpt><trkpt lat="42.39899257171585" lon="8.697524894644708"><ele>38.0</ele><time>2026-05-01T13:53:30Z</time></trkpt><trkpt lat="42.39881359476517" lon="8.697509328362171"><ele>39.0</ele><time>2026-05-01T13:53:31Z</time></trkpt><trkpt lat="42.39863220998217" lon="8.697503461237982"><ele>40.0</ele><time>2026-05-01T13:53:32Z</time></trkpt><trkpt lat="42.39845193019251" lon="8.697498342835392"><ele>41.0</ele><time>2026-05-01T13:53:33Z</time></trkpt><trkpt lat="42.39826739573998" lon="8.69749216970367"><ele>41.0</ele><time>2026-05-01T13:53:34Z</time></trkpt><trkpt lat="42.3980856896133" lon="8.69747008411401"><ele>41.0</ele><time>2026-05-01T13:53:35Z</time></trkpt><trkpt lat="42.397901793181084" lon="8.69743879108123"><ele>41.0</ele><time>2026-05-01T13:53:36Z</time></trkpt><trkpt lat="42.397720846228346" lon="8.697393776144777"><ele>45.0</ele><time>2026-05-01T13:53:37Z</time></trkpt><trkpt lat="42.39754492514911" lon="8.697341300064704"><ele>49.0</ele><time>2026-05-01T13:53:38Z</time></trkpt><trkpt lat="42.39737821318006" lon="8.697273053893552"><ele>53.0</ele><time>2026-05-01T13:53:39Z</time></trkpt><trkpt lat="42.39721843226848" lon="8.697198923381473"><ele>56.66666666666667</ele><time>2026-05-01T13:53:40Z</time></trkpt><trkpt lat="42.39704471460693" lon="8.697145223553445"><ele>60.33333333333333</ele><time>2026-05-01T13:53:41Z</time></trkpt><trkpt lat="42.396869639454664" lon="8.697101652081969"><ele>64.0</ele><time>2026-05-01T13:53:42Z</time></trkpt><trkpt lat="42.39669854703232" lon="8.69705612208129"><ele>64.0</ele><time>2026-05-01T13:53:43Z</time></trkpt><trkpt lat="42.39652797382124" lon="8.697009336576944"><ele>64.0</ele><time>2026-05-01T13:53:44Z</time></trkpt><trkpt lat="42.396357896914985" lon="8.696959416122503"><ele>64.0</ele><time>2026-05-01T13:53:45Z</time></trkpt><trkpt lat="42.39618828176304" lon="8.696909731912893"><ele>61.0</ele><time>2026-05-01T13:53:46Z</time></trkpt><trkpt lat="42.39601226095637" lon="8.69686344407429"><ele>58.0</ele><time>2026-05-01T13:53:47Z</time></trkpt><trkpt lat="42.395835016684266" lon="8.696846994286837"><ele>55.0</ele><time>2026-05-01T13:53:48Z</time></trkpt><trkpt lat="42.39565804468938" lon="8.696877107221555"><ele>60.33333333333333</ele><time>2026-05-01T13:53:49Z</time></trkpt><trkpt lat="42.395490684051374" lon="8.696945907987224"><ele>65.66666666666667</ele><time>2026-05-01T13:53:49.999Z</time></trkpt><trkpt lat="42.39533359286023" lon="8.697048071962152"><ele>71.0</ele><time>2026-05-01T13:53:50.999Z</time></trkpt><trkpt lat="42.39518967441998" lon="8.697164226849022"><ele>71.0</ele><time>2026-05-01T13:53:51.999Z</time></trkpt><trkpt lat="42.395065735674386" lon="8.697273443181317"><ele>71.0</ele><time>2026-05-01T13:53:52.999Z</time></trkpt><trkpt lat="42.3949339529746" lon="8.697308968288556"><ele>71.0</ele><time>2026-05-01T13:53:53.999Z</time></trkpt><trkpt lat="42.394797281243804" lon="8.697257958101881"><ele>71.0</ele><time>2026-05-01T13:53:54.999Z</time></trkpt><trkpt lat="42.39467366707043" lon="8.697138488233868"><ele>71.66666666666667</ele><time>2026-05-01T13:53:55.999Z</time></trkpt><trkpt lat="42.394565122011926" lon="8.696979304948517"><ele>72.33333333333333</ele><time>2026-05-01T13:53:56.999Z</time></trkpt><trkpt lat="42.39444634680844" lon="8.69682791840891"><ele>73.0</ele><time>2026-05-01T13:53:58Z</time></trkpt><trkpt lat="42.39431550899352" lon="8.696694965964053"><ele>73.0</ele><time>2026-05-01T13:53:59Z</time></trkpt><trkpt lat="42.394179838917076" lon="8.696568408017503"><ele>73.0</ele><time>2026-05-01T13:54:00Z</time></trkpt><trkpt lat="42.394038388693026" lon="8.696442386408126"><ele>73.0</ele><time>2026-05-01T13:54:01Z</time></trkpt><trkpt lat="42.39389685421403" lon="8.696323210025026"><ele>74.33333333333333</ele><time>2026-05-01T13:54:02Z</time></trkpt><trkpt lat="42.3937566860125" lon="8.696210154380871"><ele>75.66666666666667</ele><time>2026-05-01T13:54:03Z</time></trkpt><trkpt lat="42.39361903171838" lon="8.696074886390582"><ele>77.0</ele><time>2026-05-01T13:54:04Z</time></trkpt><trkpt lat="42.39350111423827" lon="8.695910263224365"><ele>77.0</ele><time>2026-05-01T13:54:05Z</time></trkpt><trkpt lat="42.39340907027885" lon="8.695716019490856"><ele>77.0</ele><time>2026-05-01T13:54:06Z</time></trkpt><trkpt lat="42.393329373858435" lon="8.695515203502877"><ele>77.0</ele><time>2026-05-01T13:54:07Z</time></trkpt><trkpt lat="42.39324284438661" lon="8.695324140338103"><ele>79.66666666666667</ele><time>2026-05-01T13:54:08Z</time></trkpt><trkpt lat="42.393137650383764" lon="8.695139718234902"><ele>82.33333333333333</ele><time>2026-05-01T13:54:09Z</time></trkpt><trkpt lat="42.39301322581091" lon="8.694979568679356"><ele>85.0</ele><time>2026-05-01T13:54:10Z</time></trkpt><trkpt lat="42.39287350262812" lon="8.694835802688177"><ele>85.0</ele><time>2026-05-01T13:54:11Z</time></trkpt><trkpt lat="42.39272458033999" lon="8.6947091563385"><ele>85.0</ele><time>2026-05-01T13:54:12Z</time></trkpt><trkpt lat="42.392568924430904" lon="8.694594977065078"><ele>85.0</ele><time>2026-05-01T13:54:13Z</time></trkpt><trkpt lat="42.39241592253445" lon="8.694480211651372"><ele>86.33333333333333</ele><time>2026-05-01T13:54:14Z</time></trkpt><trkpt lat="42.39226439231954" lon="8.694378089560555"><ele>87.66666666666667</ele><time>2026-05-01T13:54:15Z</time></trkpt><trkpt lat="42.392103675636484" lon="8.694299718897602"><ele>89.0</ele><time>2026-05-01T13:54:16Z</time></trkpt><trkpt lat="42.39195789102859" lon="8.694201401278125"><ele>89.0</ele><time>2026-05-01T13:54:17Z</time></trkpt><trkpt lat="42.39184237738904" lon="8.694035848211154"><ele>89.0</ele><time>2026-05-01T13:54:18Z</time></trkpt><trkpt lat="42.391737030402545" lon="8.693832603715522"><ele>89.0</ele><time>2026-05-01T13:54:19Z</time></trkpt><trkpt lat="42.391626640141524" lon="8.6936406071692"><ele>84.66666666666667</ele><time>2026-05-01T13:54:20Z</time></trkpt><trkpt lat="42.391493621183294" lon="8.693455905107585"><ele>80.33333333333333</ele><time>2026-05-01T13:54:21Z</time></trkpt><trkpt lat="42.391356132744974" lon="8.693283392221813"><ele>76.0</ele><time>2026-05-01T13:54:22Z</time></trkpt><trkpt lat="42.39121984504867" lon="8.693105573560834"><ele>79.66666666666666</ele><time>2026-05-01T13:54:23Z</time></trkpt><trkpt lat="42.39108725921198" lon="8.692923822275027"><ele>83.33333333333333</ele><time>2026-05-01T13:54:24Z</time></trkpt><trkpt lat="42.390964020508186" lon="8.692732012745749"><ele>87.0</ele><time>2026-05-01T13:54:25Z</time></trkpt><trkpt lat="42.39084969638305" lon="8.69252797838772"><ele>87.0</ele><time>2026-05-01T13:54:26Z</time></trkpt><trkpt lat="42.390745262514486" lon="8.692318209607873"><ele>87.0</ele><time>2026-05-01T13:54:27Z</time></trkpt><trkpt lat="42.39063731863155" lon="8.692105722850602"><ele>87.0</ele><time>2026-05-01T13:54:28Z</time></trkpt><trkpt lat="42.39052964608273" lon="8.691903095845152"><ele>91.33333333333334</ele><time>2026-05-01T13:54:29Z</time></trkpt><trkpt lat="42.390420997993765" lon="8.691706526052023"><ele>95.66666666666667</ele><time>2026-05-01T13:54:30Z</time></trkpt><trkpt lat="42.390315863567004" lon="8.691521737534147"><ele>100.0</ele><time>2026-05-01T13:54:31Z</time></trkpt><trkpt lat="42.390210444790746" lon="8.691358476147123"><ele>100.0</ele><time>2026-05-01T13:54:32Z</time></trkpt><trkpt lat="42.390092568134726" lon="8.691212523037695"><ele>100.0</ele><time>2026-05-01T13:54:33Z</time></trkpt><trkpt lat="42.389968350166086" lon="8.691094625180074"><ele>100.0</ele><time>2026-05-01T13:54:34Z</time></trkpt><trkpt lat="42.38983555034573" lon="8.69102429207037"><ele>100.0</ele><time>2026-05-01T13:54:35Z</time></trkpt><trkpt lat="42.389693077562306" lon="8.691020496158856"><ele>100.0</ele><time>2026-05-01T13:54:36Z</time></trkpt><trkpt lat="42.38954446381859" lon="8.691079172617352"><ele>100.0</ele><time>2026-05-01T13:54:37Z</time></trkpt><trkpt lat="42.3893937946759" lon="8.691171508181693"><ele>100.0</ele><time>2026-05-01T13:54:38Z</time></trkpt><trkpt lat="42.38924601054677" lon="8.691260976674311"><ele>100.0</ele><time>2026-05-01T13:54:39Z</time></trkpt><trkpt lat="42.389102840270226" lon="8.691336714536344"><ele>100.0</ele><time>2026-05-01T13:54:40Z</time></trkpt><trkpt lat="42.38897974141072" lon="8.691435303303594"><ele>100.0</ele><time>2026-05-01T13:54:41Z</time></trkpt><trkpt lat="42.38888175184533" lon="8.691588496461481"><ele>100.0</ele><time>2026-05-01T13:54:42Z</time></trkpt><trkpt lat="42.38880210148879" lon="8.691773382221083"><ele>100.0</ele><time>2026-05-01T13:54:43Z</time></trkpt><trkpt lat="42.38872294761414" lon="8.69194164227149"><ele>99.0</ele><time>2026-05-01T13:54:44Z</time></trkpt><trkpt lat="42.38863589961282" lon="8.692051097206322"><ele>98.0</ele><time>2026-05-01T13:54:45Z</time></trkpt><trkpt lat="42.38855441803579" lon="8.692073009898795"><ele>97.0</ele><time>2026-05-01T13:54:46Z</time></trkpt><trkpt lat="42.388471082458466" lon="8.69202775075025"><ele>96.0</ele><time>2026-05-01T13:54:47Z</time></trkpt><trkpt lat="42.38838372074173" lon="8.691925389619277"><ele>95.0</ele><time>2026-05-01T13:54:48Z</time></trkpt><trkpt lat="42.388282247223664" lon="8.69180454994789"><ele>95.0</ele><time>2026-05-01T13:54:49Z</time></trkpt><trkpt lat="42.38816278600963" lon="8.691696102484185"><ele>95.0</ele><time>2026-05-01T13:54:50Z</time></trkpt><trkpt lat="42.388040967944185" lon="8.691589207991402"><ele>95.0</ele><time>2026-05-01T13:54:51Z</time></trkpt><trkpt lat="42.38791780575193" lon="8.691491161878794"><ele>95.0</ele><time>2026-05-01T13:54:52Z</time></trkpt><trkpt lat="42.38778958748138" lon="8.691428409611593"><ele>97.0</ele><time>2026-05-01T13:54:53Z</time></trkpt><trkpt lat="42.3876659771648" lon="8.691401154917031"><ele>99.0</ele><time>2026-05-01T13:54:54Z</time></trkpt><trkpt lat="42.38754735345727" lon="8.691395387006185"><ele>101.0</ele><time>2026-05-01T13:54:55Z</time></trkpt><trkpt lat="42.38744165920136" lon="8.691433633393078"><ele>103.0</ele><time>2026-05-01T13:54:56Z</time></trkpt><trkpt lat="42.38733596366083" lon="8.691491709865348"><ele>103.0</ele><time>2026-05-01T13:54:57Z</time></trkpt><trkpt lat="42.387224140385605" lon="8.691535990086475"><ele>103.0</ele><time>2026-05-01T13:54:58Z</time></trkpt><trkpt lat="42.38710966067854" lon="8.691552828675016"><ele>103.0</ele><time>2026-05-01T13:54:59Z</time></trkpt><trkpt lat="42.38699814125566" lon="8.691564625212765"><ele>103.0</ele><time>2026-05-01T13:55:00Z</time></trkpt><trkpt lat="42.386893745423684" lon="8.691613445108441"><ele>101.75</ele><time>2026-05-01T13:55:01Z</time></trkpt><trkpt lat="42.38679998042646" lon="8.691700715051482"><ele>100.5</ele><time>2026-05-01T13:55:02Z</time></trkpt><trkpt lat="42.38671607151507" lon="8.691831613752896"><ele>99.25</ele><time>2026-05-01T13:55:03Z</time></trkpt><trkpt lat="42.38663429192093" lon="8.692016823763154"><ele>98.0</ele><time>2026-05-01T13:55:04Z</time></trkpt><trkpt lat="42.3865346695605" lon="8.692239495229758"><ele>96.5</ele><time>2026-05-01T13:55:05Z</time></trkpt><trkpt lat="42.38640860767802" lon="8.692479229919732"><ele>95.0</ele><time>2026-05-01T13:55:06Z</time></trkpt><trkpt lat="42.38625424370396" lon="8.692721914555111"><ele>103.5</ele><time>2026-05-01T13:55:07Z</time></trkpt><trkpt lat="42.38607580065638" lon="8.692971566367282"><ele>112.0</ele><time>2026-05-01T13:55:08Z</time></trkpt><trkpt lat="42.38588858395907" lon="8.693222012312704"><ele>112.0</ele><time>2026-05-01T13:55:09Z</time></trkpt><trkpt lat="42.385698753416996" lon="8.693462835931335"><ele>112.0</ele><time>2026-05-01T13:55:10Z</time></trkpt><trkpt lat="42.38552260736834" lon="8.693683141935905"><ele>111.0</ele><time>2026-05-01T13:55:11Z</time></trkpt><trkpt lat="42.385360893218056" lon="8.693874913529335"><ele>110.0</ele><time>2026-05-01T13:55:12Z</time></trkpt><trkpt lat="42.38521108320828" lon="8.694056061953653"><ele>109.0</ele><time>2026-05-01T13:55:13Z</time></trkpt><trkpt lat="42.38507767212334" lon="8.694248125633226"><ele>112.0</ele><time>2026-05-01T13:55:14Z</time></trkpt><trkpt lat="42.3849663919732" lon="8.69445378450864"><ele>115.0</ele><time>2026-05-01T13:55:15Z</time></trkpt><trkpt lat="42.38489123092655" lon="8.694641756527952"><ele>118.0</ele><time>2026-05-01T13:55:16Z</time></trkpt><trkpt lat="42.384850678345025" lon="8.6948300778847"><ele>118.0</ele><time>2026-05-01T13:55:17Z</time></trkpt><trkpt lat="42.38485129559495" lon="8.695046576381507"><ele>118.0</ele><time>2026-05-01T13:55:18Z</time></trkpt><trkpt lat="42.384884910396536" lon="8.695285341332351"><ele>118.0</ele><time>2026-05-01T13:55:19Z</time></trkpt><trkpt lat="42.38491198001793" lon="8.69554552888735"><ele>119.66666666666667</ele><time>2026-05-01T13:55:20Z</time></trkpt><trkpt lat="42.38491216880933" lon="8.69579841150557"><ele>121.33333333333334</ele><time>2026-05-01T13:55:21Z</time></trkpt><trkpt lat="42.38490257081141" lon="8.69601722130715"><ele>123.0</ele><time>2026-05-01T13:55:22Z</time></trkpt><trkpt lat="42.38487818801923" lon="8.696193753909627"><ele>120.0</ele><time>2026-05-01T13:55:23Z</time></trkpt><trkpt lat="42.384813233724294" lon="8.69633042028594"><ele>117.0</ele><time>2026-05-01T13:55:24Z</time></trkpt><trkpt lat="42.384698077453564" lon="8.69645705613098"><ele>114.0</ele><time>2026-05-01T13:55:25Z</time></trkpt><trkpt lat="42.3845524370775" lon="8.696595348945033"><ele>111.0</ele><time>2026-05-01T13:55:26Z</time></trkpt><trkpt lat="42.384417887078854" lon="8.69674426507205"><ele>111.0</ele><time>2026-05-01T13:55:27Z</time></trkpt><trkpt lat="42.384313191522416" lon="8.696890114119716"><ele>111.0</ele><time>2026-05-01T13:55:28Z</time></trkpt><trkpt lat="42.384242574455904" lon="8.697056046452719"><ele>111.0</ele><time>2026-05-01T13:55:29Z</time></trkpt><trkpt lat="42.38420763325633" lon="8.697265466299859"><ele>114.0</ele><time>2026-05-01T13:55:30Z</time></trkpt><trkpt lat="42.38418173835964" lon="8.697495512243064"><ele>117.0</ele><time>2026-05-01T13:55:31Z</time></trkpt><trkpt lat="42.384155687257206" lon="8.69773476979164"><ele>120.0</ele><time>2026-05-01T13:55:32Z</time></trkpt><trkpt lat="42.38412909293497" lon="8.697971804728105"><ele>124.0</ele><time>2026-05-01T13:55:33Z</time></trkpt><trkpt lat="42.384097097049654" lon="8.698206437810695"><ele>128.0</ele><time>2026-05-01T13:55:34Z</time></trkpt><trkpt lat="42.38404389245783" lon="8.69842763001667"><ele>132.0</ele><time>2026-05-01T13:55:35Z</time></trkpt><trkpt lat="42.38395722280093" lon="8.698606413713035"><ele>131.33333333333334</ele><time>2026-05-01T13:55:36Z</time></trkpt><trkpt lat="42.383844695826525" lon="8.698744115984836"><ele>130.66666666666669</ele><time>2026-05-01T13:55:37Z</time></trkpt><trkpt lat="42.3837105150553" lon="8.698862022446342"><ele>130.0</ele><time>2026-05-01T13:55:38Z</time></trkpt><trkpt lat="42.38357603510951" lon="8.69895808388732"><ele>130.0</ele><time>2026-05-01T13:55:39Z</time></trkpt><trkpt lat="42.38346255882769" lon="8.699003616336986"><ele>130.0</ele><time>2026-05-01T13:55:40Z</time></trkpt><trkpt lat="42.38337739271545" lon="8.699004319130506"><ele>130.0</ele><time>2026-05-01T13:55:41Z</time></trkpt><trkpt lat="42.38330746920525" lon="8.698952871072674"><ele>130.0</ele><time>2026-05-01T13:55:42Z</time></trkpt><trkpt lat="42.383259667722164" lon="8.698843859078444"><ele>130.0</ele><time>2026-05-01T13:55:43Z</time></trkpt><trkpt lat="42.38324103629261" lon="8.698693606189886"><ele>127.25</ele><time>2026-05-01T13:55:44Z</time></trkpt><trkpt lat="42.383268392966215" lon="8.698526633550335"><ele>124.5</ele><time>2026-05-01T13:55:45Z</time></trkpt><trkpt lat="42.38334725169028" lon="8.698366070571453"><ele>121.75</ele><time>2026-05-01T13:55:46Z</time></trkpt><trkpt lat="42.3834483455204" lon="8.698209628880697"><ele>119.0</ele><time>2026-05-01T13:55:47Z</time></trkpt><trkpt lat="42.38352174763908" lon="8.698045573292175"><ele>119.0</ele><time>2026-05-01T13:55:48Z</time></trkpt><trkpt lat="42.38351361152088" lon="8.697840475184382"><ele>119.0</ele><time>2026-05-01T13:55:49Z</time></trkpt><trkpt lat="42.383503593474586" lon="8.697598358100581"><ele>119.0</ele><time>2026-05-01T13:55:50Z</time></trkpt><trkpt lat="42.38351917793366" lon="8.697350279238464"><ele>120.66666666666666</ele><time>2026-05-01T13:55:51Z</time></trkpt><trkpt lat="42.38355284439152" lon="8.697094088444672"><ele>122.33333333333334</ele><time>2026-05-01T13:55:52Z</time></trkpt><trkpt lat="42.38358285418956" lon="8.696821843022459"><ele>124.0</ele><time>2026-05-01T13:55:53Z</time></trkpt><trkpt lat="42.383615056189164" lon="8.696553068831815"><ele>126.66666666666667</ele><time>2026-05-01T13:55:54Z</time></trkpt><trkpt lat="42.383674978122905" lon="8.696311659376807"><ele>129.33333333333334</ele><time>2026-05-01T13:55:55Z</time></trkpt><trkpt lat="42.38376198617484" lon="8.69611239068336"><ele>132.0</ele><time>2026-05-01T13:55:56Z</time></trkpt><trkpt lat="42.38386825596776" lon="8.69595444503357"><ele>126.5</ele><time>2026-05-01T13:55:57Z</time></trkpt><trkpt lat="42.38396546465801" lon="8.695839537551391"><ele>121.0</ele><time>2026-05-01T13:55:58Z</time></trkpt><trkpt lat="42.38401168020036" lon="8.69569563350864"><ele>115.5</ele><time>2026-05-01T13:55:59Z</time></trkpt><trkpt lat="42.38399732575894" lon="8.695507310996017"><ele>110.0</ele><time>2026-05-01T13:56:00Z</time></trkpt><trkpt lat="42.38395264749538" lon="8.695294319599482"><ele>108.66666666666666</ele><time>2026-05-01T13:56:01Z</time></trkpt><trkpt lat="42.38390361308423" lon="8.695058162274295"><ele>107.33333333333334</ele><time>2026-05-01T13:56:02Z</time></trkpt><trkpt lat="42.38384202156363" lon="8.694819694661609"><ele>106.0</ele><time>2026-05-01T13:56:03Z</time></trkpt><trkpt lat="42.383764167445364" lon="8.694576818120868"><ele>117.66666666666667</ele><time>2026-05-01T13:56:04Z</time></trkpt><trkpt lat="42.38369865753134" lon="8.69432856336426"><ele>129.33333333333334</ele><time>2026-05-01T13:56:05Z</time></trkpt><trkpt lat="42.38366625563002" lon="8.694067926252552"><ele>141.0</ele><time>2026-05-01T13:56:06Z</time></trkpt><trkpt lat="42.38365499527936" lon="8.693805632251431"><ele>143.0</ele><time>2026-05-01T13:56:07Z</time></trkpt><trkpt lat="42.38366127377728" lon="8.693565632910325"><ele>145.0</ele><time>2026-05-01T13:56:08Z</time></trkpt><trkpt lat="42.383700297733895" lon="8.693321746831"><ele>147.0</ele><time>2026-05-01T13:56:09Z</time></trkpt><trkpt lat="42.38378464225849" lon="8.693084044800676"><ele>137.66666666666666</ele><time>2026-05-01T13:56:10Z</time></trkpt><trkpt lat="42.383863845293575" lon="8.692833809582975"><ele>128.33333333333331</ele><time>2026-05-01T13:56:11Z</time></trkpt><trkpt lat="42.383926988693" lon="8.692574431273563"><ele>119.0</ele><time>2026-05-01T13:56:12Z</time></trkpt><trkpt lat="42.383992992191345" lon="8.692310852741176"><ele>119.0</ele><time>2026-05-01T13:56:13Z</time></trkpt><trkpt lat="42.384061414931814" lon="8.692050463965435"><ele>119.0</ele><time>2026-05-01T13:56:14Z</time></trkpt><trkpt lat="42.384127020307616" lon="8.69178733777805"><ele>119.0</ele><time>2026-05-01T13:56:15Z</time></trkpt><trkpt lat="42.38420108009164" lon="8.691524672199321"><ele>124.0</ele><time>2026-05-01T13:56:16Z</time></trkpt><trkpt lat="42.38426618539741" lon="8.691268114950985"><ele>129.0</ele><time>2026-05-01T13:56:17Z</time></trkpt><trkpt lat="42.384329922876" lon="8.691004780993616"><ele>134.0</ele><time>2026-05-01T13:56:18Z</time></trkpt><trkpt lat="42.38439090782479" lon="8.690741299571714"><ele>137.66666666666666</ele><time>2026-05-01T13:56:19Z</time></trkpt><trkpt lat="42.38445730274542" lon="8.690481783030247"><ele>141.33333333333334</ele><time>2026-05-01T13:56:20Z</time></trkpt><trkpt lat="42.38452464627106" lon="8.690213088482277"><ele>145.0</ele><time>2026-05-01T13:56:21Z</time></trkpt><trkpt lat="42.38456710381171" lon="8.689946004830398"><ele>148.33333333333334</ele><time>2026-05-01T13:56:22Z</time></trkpt><trkpt lat="42.38459218454127" lon="8.689670485555089"><ele>151.66666666666666</ele><time>2026-05-01T13:56:23Z</time></trkpt><trkpt lat="42.38462212052424" lon="8.68939967794061"><ele>155.0</ele><time>2026-05-01T13:56:24Z</time></trkpt><trkpt lat="42.38466666077964" lon="8.689151011201496"><ele>154.25</ele><time>2026-05-01T13:56:25Z</time></trkpt><trkpt lat="42.38471700149261" lon="8.688928078116755"><ele>153.5</ele><time>2026-05-01T13:56:26Z</time></trkpt><trkpt lat="42.38476825351766" lon="8.68873929208379"><ele>152.75</ele><time>2026-05-01T13:56:27Z</time></trkpt><trkpt lat="42.38482251567187" lon="8.688602881650956"><ele>152.0</ele><time>2026-05-01T13:56:28Z</time></trkpt><trkpt lat="42.38489012377458" lon="8.688542864605829"><ele>152.0</ele><time>2026-05-01T13:56:29Z</time></trkpt><trkpt lat="42.38497772958943" lon="8.688556123310482"><ele>152.0</ele><time>2026-05-01T13:56:30Z</time></trkpt><trkpt lat="42.38509565931044" lon="8.688617566504284"><ele>152.0</ele><time>2026-05-01T13:56:31Z</time></trkpt><trkpt lat="42.38522800276124" lon="8.688685189253134"><ele>152.0</ele><time>2026-05-01T13:56:32Z</time></trkpt><trkpt lat="42.385371601520625" lon="8.688732082338516"><ele>142.33333333333331</ele><time>2026-05-01T13:56:33Z</time></trkpt><trkpt lat="42.385519970564346" lon="8.688752800846975"><ele>132.66666666666666</ele><time>2026-05-01T13:56:34Z</time></trkpt><trkpt lat="42.38566901799585" lon="8.688722423444087"><ele>123.0</ele><time>2026-05-01T13:56:35Z</time></trkpt><trkpt lat="42.38580859939275" lon="8.688635418079752"><ele>131.33333333333334</ele><time>2026-05-01T13:56:36Z</time></trkpt><trkpt lat="42.385919608196026" lon="8.688498491582411"><ele>139.66666666666669</ele><time>2026-05-01T13:56:37Z</time></trkpt><trkpt lat="42.3860186622425" lon="8.688323893968924"><ele>148.0</ele><time>2026-05-01T13:56:38Z</time></trkpt><trkpt lat="42.38611141735549" lon="8.688138117632302"><ele>148.0</ele><time>2026-05-01T13:56:39Z</time></trkpt><trkpt lat="42.386195632157424" lon="8.687933534392487"><ele>148.0</ele><time>2026-05-01T13:56:40Z</time></trkpt><trkpt lat="42.38627863411888" lon="8.68771636807063"><ele>148.0</ele><time>2026-05-01T13:56:41Z</time></trkpt><trkpt lat="42.38636625848952" lon="8.687502269667517"><ele>145.33333333333334</ele><time>2026-05-01T13:56:42Z</time></trkpt><trkpt lat="42.38645844061009" lon="8.68729507399153"><ele>142.66666666666666</ele><time>2026-05-01T13:56:43Z</time></trkpt><trkpt lat="42.386540403984434" lon="8.687108536777341"><ele>140.0</ele><time>2026-05-01T13:56:44Z</time></trkpt><trkpt lat="42.386598349263075" lon="8.686959655493892"><ele>141.25</ele><time>2026-05-01T13:56:45Z</time></trkpt><trkpt lat="42.38661886477625" lon="8.686820964775075"><ele>142.5</ele><time>2026-05-01T13:56:46Z</time></trkpt><trkpt lat="42.38658304837865" lon="8.686683129873588"><ele>143.75</ele><time>2026-05-01T13:56:47Z</time></trkpt><trkpt lat="42.3864948143962" lon="8.686563923850038"><ele>145.0</ele><time>2026-05-01T13:56:48Z</time></trkpt><trkpt lat="42.3863689855532" lon="8.686465551755598"><ele>150.33333333333334</ele><time>2026-05-01T13:56:49Z</time></trkpt><trkpt lat="42.38621458222054" lon="8.686416324950814"><ele>155.66666666666666</ele><time>2026-05-01T13:56:50Z</time></trkpt><trkpt lat="42.38605177701243" lon="8.686365673530867"><ele>161.0</ele><time>2026-05-01T13:56:51Z</time></trkpt><trkpt lat="42.385889252253925" lon="8.68626872702035"><ele>161.0</ele><time>2026-05-01T13:56:52Z</time></trkpt><trkpt lat="42.3857362226585" lon="8.686128974210176"><ele>161.0</ele><time>2026-05-01T13:56:53Z</time></trkpt><trkpt lat="42.385595608718006" lon="8.685944130279148"><ele>161.0</ele><time>2026-05-01T13:56:54Z</time></trkpt><trkpt lat="42.38547266403112" lon="8.685733161720252"><ele>164.66666666666666</ele><time>2026-05-01T13:56:55Z</time></trkpt><trkpt lat="42.385337933876265" lon="8.685554725025334"><ele>168.33333333333334</ele><time>2026-05-01T13:56:56Z</time></trkpt><trkpt lat="42.38517422736376" lon="8.685443185583363"><ele>172.0</ele><time>2026-05-01T13:56:57Z</time></trkpt><trkpt lat="42.384980449041585" lon="8.685391389164254"><ele>172.0</ele><time>2026-05-01T13:56:58Z</time></trkpt><trkpt lat="42.38477497626498" lon="8.685352759304111"><ele>172.0</ele><time>2026-05-01T13:56:59Z</time></trkpt><trkpt lat="42.38457525194193" lon="8.685280218133949"><ele>172.0</ele><time>2026-05-01T13:57:00Z</time></trkpt><trkpt lat="42.384385843548976" lon="8.685169448677401"><ele>172.66666666666669</ele><time>2026-05-01T13:57:01Z</time></trkpt><trkpt lat="42.38421806722394" lon="8.685009215033078"><ele>173.33333333333334</ele><time>2026-05-01T13:57:02Z</time></trkpt><trkpt lat="42.384100708762425" lon="8.68483725776405"><ele>174.0</ele><time>2026-05-01T13:57:03Z</time></trkpt><trkpt lat="42.384025082815405" lon="8.684634585351626"><ele>174.66666666666666</ele><time>2026-05-01T13:57:04Z</time></trkpt><trkpt lat="42.38398092745778" lon="8.684386590054695"><ele>175.33333333333331</ele><time>2026-05-01T13:57:05Z</time></trkpt><trkpt lat="42.3839331742254" lon="8.684124693341312"><ele>176.0</ele><time>2026-05-01T13:57:06Z</time></trkpt><trkpt lat="42.38384053986846" lon="8.683893713724617"><ele>176.0</ele><time>2026-05-01T13:57:07Z</time></trkpt><trkpt lat="42.38372816282018" lon="8.683706921365982"><ele>176.0</ele><time>2026-05-01T13:57:08Z</time></trkpt><trkpt lat="42.38362204760749" lon="8.68359379698596"><ele>176.0</ele><time>2026-05-01T13:57:09Z</time></trkpt><trkpt lat="42.38351394350241" lon="8.68356270302262"><ele>176.0</ele><time>2026-05-01T13:57:10Z</time></trkpt><trkpt lat="42.38340080925791" lon="8.68360278655305"><ele>176.0</ele><time>2026-05-01T13:57:11Z</time></trkpt><trkpt lat="42.38328582966437" lon="8.68371767278582"><ele>176.0</ele><time>2026-05-01T13:57:12Z</time></trkpt><trkpt lat="42.383187444367415" lon="8.683890383076331"><ele>176.0</ele><time>2026-05-01T13:57:13Z</time></trkpt><trkpt lat="42.383131270873214" lon="8.684110738488764"><ele>176.0</ele><time>2026-05-01T13:57:14Z</time></trkpt><trkpt lat="42.38308827461287" lon="8.684307298432076"><ele>176.0</ele><time>2026-05-01T13:57:15Z</time></trkpt><trkpt lat="42.38300603010937" lon="8.684408423136922"><ele>176.0</ele><time>2026-05-01T13:57:16Z</time></trkpt><trkpt lat="42.38289231070349" lon="8.684435357939948"><ele>176.0</ele><time>2026-05-01T13:57:17Z</time></trkpt><trkpt lat="42.382741472380424" lon="8.684391298510317"><ele>175.0</ele><time>2026-05-01T13:57:18Z</time></trkpt><trkpt lat="42.38257632394938" lon="8.684290370955011"><ele>174.0</ele><time>2026-05-01T13:57:19Z</time></trkpt><trkpt lat="42.382410418731865" lon="8.684200451270364"><ele>173.0</ele><time>2026-05-01T13:57:20Z</time></trkpt><trkpt lat="42.38224940399851" lon="8.684190214899411"><ele>171.66666666666666</ele><time>2026-05-01T13:57:21Z</time></trkpt><trkpt lat="42.382093157587555" lon="8.684258423128"><ele>170.33333333333334</ele><time>2026-05-01T13:57:22Z</time></trkpt><trkpt lat="42.381951368036354" lon="8.684387702020063"><ele>169.0</ele><time>2026-05-01T13:57:23Z</time></trkpt><trkpt lat="42.3818029884572" lon="8.684536047647567"><ele>176.0</ele><time>2026-05-01T13:57:24Z</time></trkpt><trkpt lat="42.38166655254277" lon="8.684630120189034"><ele>183.0</ele><time>2026-05-01T13:57:25Z</time></trkpt><trkpt lat="42.38155207014849" lon="8.684643832061587"><ele>190.0</ele><time>2026-05-01T13:57:26Z</time></trkpt><trkpt lat="42.38144552050405" lon="8.684581688755662"><ele>197.0</ele><time>2026-05-01T13:57:27Z</time></trkpt><trkpt lat="42.38133758126206" lon="8.684531610588957"><ele>198.0</ele><time>2026-05-01T13:57:28Z</time></trkpt><trkpt lat="42.38122796559311" lon="8.684592313992251"><ele>199.0</ele><time>2026-05-01T13:57:29Z</time></trkpt><trkpt lat="42.38112399100394" lon="8.684753749526319"><ele>200.0</ele><time>2026-05-01T13:57:30Z</time></trkpt><trkpt lat="42.38103727990832" lon="8.684919360729216"><ele>201.0</ele><time>2026-05-01T13:57:31Z</time></trkpt><trkpt lat="42.38095805245169" lon="8.684997034503295"><ele>201.0</ele><time>2026-05-01T13:57:32Z</time></trkpt><trkpt lat="42.380871707088026" lon="8.684969471277464"><ele>201.0</ele><time>2026-05-01T13:57:33Z</time></trkpt><trkpt lat="42.38079391316374" lon="8.684863167273196"><ele>201.0</ele><time>2026-05-01T13:57:34Z</time></trkpt><trkpt lat="42.38075151277713" lon="8.684726862426855"><ele>201.0</ele><time>2026-05-01T13:57:35Z</time></trkpt><trkpt lat="42.38077353094106" lon="8.68456886073699"><ele>201.0</ele><time>2026-05-01T13:57:36Z</time></trkpt><trkpt lat="42.380841934488274" lon="8.6843706367487"><ele>198.33333333333331</ele><time>2026-05-01T13:57:37Z</time></trkpt><trkpt lat="42.380924688152106" lon="8.684140457337259"><ele>195.66666666666666</ele><time>2026-05-01T13:57:38Z</time></trkpt><trkpt lat="42.38100553894583" lon="8.683886914893186"><ele>193.0</ele><time>2026-05-01T13:57:39Z</time></trkpt><trkpt lat="42.3810914665931" lon="8.683638602135808"><ele>191.75</ele><time>2026-05-01T13:57:40Z</time></trkpt><trkpt lat="42.381160059552165" lon="8.683434063972772"><ele>190.5</ele><time>2026-05-01T13:57:41Z</time></trkpt><trkpt lat="42.38118820353615" lon="8.683245932718888"><ele>189.25</ele><time>2026-05-01T13:57:42Z</time></trkpt><trkpt lat="42.3811635885593" lon="8.683070092571603"><ele>188.0</ele><time>2026-05-01T13:57:43Z</time></trkpt><trkpt lat="42.38108622765553" lon="8.68293118302575"><ele>188.0</ele><time>2026-05-01T13:57:44Z</time></trkpt><trkpt lat="42.380967389940224" lon="8.68284985428837"><ele>188.0</ele><time>2026-05-01T13:57:45Z</time></trkpt><trkpt lat="42.38082159274754" lon="8.682834703354478"><ele>188.0</ele><time>2026-05-01T13:57:46Z</time></trkpt><trkpt lat="42.38067308953017" lon="8.68289072002392"><ele>188.0</ele><time>2026-05-01T13:57:47Z</time></trkpt><trkpt lat="42.380530699359255" lon="8.68300611616332"><ele>192.25</ele><time>2026-05-01T13:57:48Z</time></trkpt><trkpt lat="42.38040851508735" lon="8.683145548780047"><ele>196.5</ele><time>2026-05-01T13:57:49Z</time></trkpt><trkpt lat="42.3802945702681" lon="8.683227321924154"><ele>200.75</ele><time>2026-05-01T13:57:50Z</time></trkpt><trkpt lat="42.38019119445864" lon="8.683221279134168"><ele>205.0</ele><time>2026-05-01T13:57:51Z</time></trkpt><trkpt lat="42.38011192321113" lon="8.683128270227929"><ele>205.0</ele><time>2026-05-01T13:57:52Z</time></trkpt><trkpt lat="42.38005405959567" lon="8.682979368680888"><ele>205.0</ele><time>2026-05-01T13:57:53Z</time></trkpt><trkpt lat="42.38001852463364" lon="8.682794767691249"><ele>205.0</ele><time>2026-05-01T13:57:54Z</time></trkpt><trkpt lat="42.379990964924204" lon="8.682598128947584"><ele>205.0</ele><time>2026-05-01T13:57:55Z</time></trkpt><trkpt lat="42.379944967141014" lon="8.682431546818693"><ele>204.5</ele><time>2026-05-01T13:57:56Z</time></trkpt><trkpt lat="42.37984942410761" lon="8.682331475712859"><ele>204.0</ele><time>2026-05-01T13:57:57.001Z</time></trkpt><trkpt lat="42.37970583836203" lon="8.682292781125332"><ele>203.5</ele><time>2026-05-01T13:57:58.001Z</time></trkpt><trkpt lat="42.37953516835252" lon="8.682286730989446"><ele>203.0</ele><time>2026-05-01T13:57:59.001Z</time></trkpt><trkpt lat="42.37934937562247" lon="8.682274358991485"><ele>203.0</ele><time>2026-05-01T13:58:00.001Z</time></trkpt><trkpt lat="42.37919147471592" lon="8.682249218704833"><ele>203.0</ele><time>2026-05-01T13:58:01.001Z</time></trkpt><trkpt lat="42.379087636448176" lon="8.682200411666315"><ele>203.0</ele><time>2026-05-01T13:58:02Z</time></trkpt><trkpt lat="42.379030532160215" lon="8.682111564217328"><ele>203.0</ele><time>2026-05-01T13:58:03Z</time></trkpt><trkpt lat="42.37902524215987" lon="8.681989471616374"><ele>203.0</ele><time>2026-05-01T13:58:04Z</time></trkpt><trkpt lat="42.37906721233915" lon="8.681838489181608"><ele>202.66666666666669</ele><time>2026-05-01T13:58:05Z</time></trkpt><trkpt lat="42.37916538013669" lon="8.681677906045548"><ele>202.33333333333331</ele><time>2026-05-01T13:58:06Z</time></trkpt><trkpt lat="42.37930716370109" lon="8.681536480825406"><ele>202.0</ele><time>2026-05-01T13:58:07Z</time></trkpt><trkpt lat="42.379487183916275" lon="8.681436472947626"><ele>202.0</ele><time>2026-05-01T13:58:08Z</time></trkpt><trkpt lat="42.379666664022764" lon="8.681337916962176"><ele>202.0</ele><time>2026-05-01T13:58:09Z</time></trkpt><trkpt lat="42.379809375535054" lon="8.68118361754105"><ele>202.0</ele><time>2026-05-01T13:58:10Z</time></trkpt><trkpt lat="42.379923771278705" lon="8.68099732153242"><ele>199.33333333333331</ele><time>2026-05-01T13:58:11Z</time></trkpt><trkpt lat="42.38004092308091" lon="8.680868502575427"><ele>196.66666666666669</ele><time>2026-05-01T13:58:12Z</time></trkpt><trkpt lat="42.38018317087095" lon="8.680773455697475"><ele>194.0</ele><time>2026-05-01T13:58:13Z</time></trkpt><trkpt lat="42.38028950450136" lon="8.680616297286033"><ele>194.0</ele><time>2026-05-01T13:58:14Z</time></trkpt><trkpt lat="42.3803670405554" lon="8.680415020408658"><ele>194.0</ele><time>2026-05-01T13:58:15Z</time></trkpt><trkpt lat="42.38047118299338" lon="8.680279342132286"><ele>194.0</ele><time>2026-05-01T13:58:16Z</time></trkpt><trkpt lat="42.380594227015095" lon="8.680222069710437"><ele>194.0</ele><time>2026-05-01T13:58:17Z</time></trkpt><trkpt lat="42.38067383314495" lon="8.68013236491006"><ele>193.25</ele><time>2026-05-01T13:58:18Z</time></trkpt><trkpt lat="42.380689424420105" lon="8.679981410115557"><ele>192.5</ele><time>2026-05-01T13:58:19Z</time></trkpt><trkpt lat="42.38064166098584" lon="8.679825181054891"><ele>191.75</ele><time>2026-05-01T13:58:20Z</time></trkpt><trkpt lat="42.380537686249845" lon="8.679678403463207"><ele>191.0</ele><time>2026-05-01T13:58:21Z</time></trkpt><trkpt lat="42.38042049250226" lon="8.679505847320081"><ele>193.33333333333331</ele><time>2026-05-01T13:58:22Z</time></trkpt><trkpt lat="42.38034615654887" lon="8.679287524928524"><ele>195.66666666666666</ele><time>2026-05-01T13:58:23Z</time></trkpt><trkpt lat="42.38027693022099" lon="8.679109023281113"><ele>198.0</ele><time>2026-05-01T13:58:24Z</time></trkpt><trkpt lat="42.38016732885012" lon="8.679007165668896"><ele>198.0</ele><time>2026-05-01T13:58:25Z</time></trkpt><trkpt lat="42.38002167961776" lon="8.678980451771178"><ele>198.0</ele><time>2026-05-01T13:58:26Z</time></trkpt><trkpt lat="42.37983621046709" lon="8.67900431592333"><ele>198.0</ele><time>2026-05-01T13:58:27Z</time></trkpt><trkpt lat="42.379615211629755" lon="8.679029853502254"><ele>201.5</ele><time>2026-05-01T13:58:28Z</time></trkpt><trkpt lat="42.379385704876874" lon="8.679024460082974"><ele>205.0</ele><time>2026-05-01T13:58:29Z</time></trkpt><trkpt lat="42.37914444381372" lon="8.679006206148758"><ele>205.0</ele><time>2026-05-01T13:58:30Z</time></trkpt><trkpt lat="42.378893574592226" lon="8.679043035889679"><ele>205.0</ele><time>2026-05-01T13:58:31Z</time></trkpt><trkpt lat="42.37867446986961" lon="8.679098443616875"><ele>207.25</ele><time>2026-05-01T13:58:32Z</time></trkpt><trkpt lat="42.37849716047266" lon="8.679144107837004"><ele>209.5</ele><time>2026-05-01T13:58:33Z</time></trkpt><trkpt lat="42.37837009912171" lon="8.679151692996712"><ele>211.75</ele><time>2026-05-01T13:58:34Z</time></trkpt><trkpt lat="42.378286023861826" lon="8.679113198156843"><ele>214.0</ele><time>2026-05-01T13:58:35Z</time></trkpt><trkpt lat="42.378241210562166" lon="8.679008365625638"><ele>214.0</ele><time>2026-05-01T13:58:36Z</time></trkpt><trkpt lat="42.378233665713914" lon="8.67883872803215"><ele>214.0</ele><time>2026-05-01T13:58:37Z</time></trkpt><trkpt lat="42.37824644621118" lon="8.678618059622925"><ele>214.0</ele><time>2026-05-01T13:58:38Z</time></trkpt><trkpt lat="42.37821365152596" lon="8.67839373856648"><ele>212.25</ele><time>2026-05-01T13:58:39Z</time></trkpt><trkpt lat="42.378180879327374" lon="8.67820526909668"><ele>210.5</ele><time>2026-05-01T13:58:40Z</time></trkpt><trkpt lat="42.378223110245415" lon="8.678063295091974"><ele>208.75</ele><time>2026-05-01T13:58:41Z</time></trkpt><trkpt lat="42.378336990984266" lon="8.677943367354041"><ele>207.0</ele><time>2026-05-01T13:58:42Z</time></trkpt><trkpt lat="42.378464999200446" lon="8.677787985931635"><ele>209.0</ele><time>2026-05-01T13:58:43Z</time></trkpt><trkpt lat="42.37854578995365" lon="8.677565383683529"><ele>211.0</ele><time>2026-05-01T13:58:44Z</time></trkpt><trkpt lat="42.37859461725596" lon="8.677343056395173"><ele>213.0</ele><time>2026-05-01T13:58:45Z</time></trkpt><trkpt lat="42.37860311934719" lon="8.677160708887289"><ele>213.0</ele><time>2026-05-01T13:58:46Z</time></trkpt><trkpt lat="42.37855744262125" lon="8.67697981518961"><ele>213.0</ele><time>2026-05-01T13:58:47Z</time></trkpt><trkpt lat="42.37846841464903" lon="8.67678323924078"><ele>213.0</ele><time>2026-05-01T13:58:48Z</time></trkpt><trkpt lat="42.37836461224035" lon="8.676619695473438"><ele>210.75</ele><time>2026-05-01T13:58:49Z</time></trkpt><trkpt lat="42.378253842574885" lon="8.676543846201044"><ele>208.5</ele><time>2026-05-01T13:58:50Z</time></trkpt><trkpt lat="42.37813880026348" lon="8.676559909281474"><ele>206.25</ele><time>2026-05-01T13:58:51Z</time></trkpt><trkpt lat="42.37802976811235" lon="8.67665533739436"><ele>204.0</ele><time>2026-05-01T13:58:52Z</time></trkpt><trkpt lat="42.3779179950382" lon="8.676801804909202"><ele>209.66666666666669</ele><time>2026-05-01T13:58:53Z</time></trkpt><trkpt lat="42.37780575288394" lon="8.676998189275547"><ele>215.33333333333334</ele><time>2026-05-01T13:58:54Z</time></trkpt><trkpt lat="42.37771304361952" lon="8.677208038139973"><ele>221.0</ele><time>2026-05-01T13:58:55Z</time></trkpt><trkpt lat="42.37763275199135" lon="8.677330695630856"><ele>221.0</ele><time>2026-05-01T13:58:56Z</time></trkpt><trkpt lat="42.377532465113454" lon="8.677346508563994"><ele>221.0</ele><time>2026-05-01T13:58:57Z</time></trkpt><trkpt lat="42.37740226677759" lon="8.677264802051393"><ele>221.0</ele><time>2026-05-01T13:58:58Z</time></trkpt><trkpt lat="42.37725495698551" lon="8.677130118325685"><ele>221.0</ele><time>2026-05-01T13:58:59Z</time></trkpt><trkpt lat="42.37709309739723" lon="8.677006439711791"><ele>223.33333333333334</ele><time>2026-05-01T13:59:00Z</time></trkpt><trkpt lat="42.3769394679912" lon="8.676959583847376"><ele>225.66666666666669</ele><time>2026-05-01T13:59:01Z</time></trkpt><trkpt lat="42.3767845850601" lon="8.676971910638041"><ele>228.0</ele><time>2026-05-01T13:59:02Z</time></trkpt><trkpt lat="42.37662004828544" lon="8.67704762837922"><ele>228.0</ele><time>2026-05-01T13:59:03Z</time></trkpt><trkpt lat="42.37644781715185" lon="8.677148682736085"><ele>228.0</ele><time>2026-05-01T13:59:04Z</time></trkpt><trkpt lat="42.37631171741411" lon="8.677232370489419"><ele>228.0</ele><time>2026-05-01T13:59:05Z</time></trkpt><trkpt lat="42.37622933906948" lon="8.677352203390738"><ele>231.0</ele><time>2026-05-01T13:59:06Z</time></trkpt><trkpt lat="42.3761781920679" lon="8.67753794822004"><ele>234.0</ele><time>2026-05-01T13:59:07Z</time></trkpt><trkpt lat="42.37610189549139" lon="8.677721878302007"><ele>237.0</ele><time>2026-05-01T13:59:08Z</time></trkpt><trkpt lat="42.3759611201798" lon="8.677835918752917"><ele>237.0</ele><time>2026-05-01T13:59:09Z</time></trkpt><trkpt lat="42.375767420837256" lon="8.677921351044509"><ele>237.0</ele><time>2026-05-01T13:59:10Z</time></trkpt><trkpt lat="42.37558342022658" lon="8.678057850297554"><ele>237.0</ele><time>2026-05-01T13:59:11Z</time></trkpt><trkpt lat="42.375410234532104" lon="8.678220937971291"><ele>237.0</ele><time>2026-05-01T13:59:12Z</time></trkpt><trkpt lat="42.37528091534898" lon="8.678325730872992"><ele>237.0</ele><time>2026-05-01T13:59:13Z</time></trkpt><trkpt lat="42.37518923378155" lon="8.678347175714714"><ele>237.0</ele><time>2026-05-01T13:59:14Z</time></trkpt><trkpt lat="42.37512290292502" lon="8.678301022177772"><ele>237.0</ele><time>2026-05-01T13:59:15Z</time></trkpt><trkpt lat="42.37508379016904" lon="8.678187635002045"><ele>237.0</ele><time>2026-05-01T13:59:16Z</time></trkpt><trkpt lat="42.37507224470324" lon="8.678017235988138"><ele>237.0</ele><time>2026-05-01T13:59:17Z</time></trkpt><trkpt lat="42.37508125427938" lon="8.677789075333814"><ele>237.0</ele><time>2026-05-01T13:59:18.001Z</time></trkpt><trkpt lat="42.37507249285995" lon="8.677525966595589"><ele>237.0</ele><time>2026-05-01T13:59:19.001Z</time></trkpt><trkpt lat="42.37503204964" lon="8.677235267152078"><ele>234.33333333333331</ele><time>2026-05-01T13:59:20.001Z</time></trkpt><trkpt lat="42.37497955331738" lon="8.676941323208645"><ele>231.66666666666666</ele><time>2026-05-01T13:59:21.001Z</time></trkpt><trkpt lat="42.374926634972965" lon="8.676718319596358"><ele>229.0</ele><time>2026-05-01T13:59:22.001Z</time></trkpt><trkpt lat="42.37486859746407" lon="8.676571402203345"><ele>225.0</ele><time>2026-05-01T13:59:23.001Z</time></trkpt><trkpt lat="42.37477019198092" lon="8.676473903921512"><ele>221.0</ele><time>2026-05-01T13:59:24.001Z</time></trkpt><trkpt lat="42.37462255487515" lon="8.676435004379874"><ele>217.0</ele><time>2026-05-01T13:59:25.001Z</time></trkpt><trkpt lat="42.37442593813358" lon="8.676406347023832"><ele>224.0</ele><time>2026-05-01T13:59:26.001Z</time></trkpt><trkpt lat="42.37423280350479" lon="8.67632200201467"><ele>231.0</ele><time>2026-05-01T13:59:27.001Z</time></trkpt><trkpt lat="42.374028425816306" lon="8.676183128600792"><ele>238.0</ele><time>2026-05-01T13:59:28.001Z</time></trkpt><trkpt lat="42.37382541079318" lon="8.676087520046314"><ele>238.0</ele><time>2026-05-01T13:59:29.001Z</time></trkpt><trkpt lat="42.37363738886586" lon="8.676045584601365"><ele>238.0</ele><time>2026-05-01T13:59:30.001Z</time></trkpt><trkpt lat="42.373456450593366" lon="8.676035963704598"><ele>238.0</ele><time>2026-05-01T13:59:31.001Z</time></trkpt><trkpt lat="42.37329760418558" lon="8.676007535274847"><ele>238.0</ele><time>2026-05-01T13:59:32.001Z</time></trkpt><trkpt lat="42.37319101279085" lon="8.675935406925813"><ele>238.0</ele><time>2026-05-01T13:59:33.001Z</time></trkpt><trkpt lat="42.373140800548754" lon="8.675825953742118"><ele>238.0</ele><time>2026-05-01T13:59:34.001Z</time></trkpt><trkpt lat="42.37314228353532" lon="8.675682468418275"><ele>238.0</ele><time>2026-05-01T13:59:35.001Z</time></trkpt><trkpt lat="42.37319973061454" lon="8.675513963411545"><ele>238.0</ele><time>2026-05-01T13:59:36.001Z</time></trkpt><trkpt lat="42.37329709784153" lon="8.67535604414712"><ele>238.0</ele><time>2026-05-01T13:59:37.001Z</time></trkpt><trkpt lat="42.37342398344334" lon="8.675275554083349"><ele>238.0</ele><time>2026-05-01T13:59:38.001Z</time></trkpt><trkpt lat="42.37357561958484" lon="8.675253607156531"><ele>238.0</ele><time>2026-05-01T13:59:39.001Z</time></trkpt><trkpt lat="42.37372919933831" lon="8.6751863856701"><ele>241.25</ele><time>2026-05-01T13:59:40.001Z</time></trkpt><trkpt lat="42.37384774008207" lon="8.675045012955644"><ele>244.5</ele><time>2026-05-01T13:59:41.001Z</time></trkpt><trkpt lat="42.37391271874917" lon="8.67489775832592"><ele>247.75</ele><time>2026-05-01T13:59:42.001Z</time></trkpt><trkpt lat="42.373922781323344" lon="8.674730991588671"><ele>251.0</ele><time>2026-05-01T13:59:43.001Z</time></trkpt><trkpt lat="42.37389464996666" lon="8.67452866800603"><ele>249.5</ele><time>2026-05-01T13:59:44.001Z</time></trkpt><trkpt lat="42.37389680853952" lon="8.67432906390642"><ele>248.0</ele><time>2026-05-01T13:59:45.001Z</time></trkpt><trkpt lat="42.373967023614085" lon="8.674196914263769"><ele>246.5</ele><time>2026-05-01T13:59:46.001Z</time></trkpt><trkpt lat="42.37408624540956" lon="8.674151726804586"><ele>245.0</ele><time>2026-05-01T13:59:47.001Z</time></trkpt><trkpt lat="42.37424543125239" lon="8.674174734647888"><ele>245.0</ele><time>2026-05-01T13:59:48.001Z</time></trkpt><trkpt lat="42.37443150170335" lon="8.674216115244398"><ele>245.0</ele><time>2026-05-01T13:59:49.001Z</time></trkpt><trkpt lat="42.3745928163" lon="8.674220072833963"><ele>245.0</ele><time>2026-05-01T13:59:50.001Z</time></trkpt><trkpt lat="42.374715177676066" lon="8.67414880687195"><ele>241.33333333333334</ele><time>2026-05-01T13:59:51.001Z</time></trkpt><trkpt lat="42.37483557467215" lon="8.674013140040808"><ele>237.66666666666669</ele><time>2026-05-01T13:59:52.001Z</time></trkpt><trkpt lat="42.374989524830234" lon="8.673855491857015"><ele>234.0</ele><time>2026-05-01T13:59:53.001Z</time></trkpt><trkpt lat="42.37517548892487" lon="8.673756005209558"><ele>234.0</ele><time>2026-05-01T13:59:54.001Z</time></trkpt><trkpt lat="42.37533263748165" lon="8.67370381579392"><ele>234.0</ele><time>2026-05-01T13:59:55.001Z</time></trkpt><trkpt lat="42.37541763002275" lon="8.673653087236074"><ele>234.0</ele><time>2026-05-01T13:59:56.001Z</time></trkpt><trkpt lat="42.37545208084007" lon="8.673529650758747"><ele>234.0</ele><time>2026-05-01T13:59:57.001Z</time></trkpt><trkpt lat="42.37546724509432" lon="8.673331704803179"><ele>233.0</ele><time>2026-05-01T13:59:58.001Z</time></trkpt><trkpt lat="42.375516263984785" lon="8.673112268182843"><ele>232.0</ele><time>2026-05-01T13:59:59.001Z</time></trkpt><trkpt lat="42.37564217803179" lon="8.672945130002528"><ele>231.0</ele><time>2026-05-01T14:00:00.001Z</time></trkpt><trkpt lat="42.3757534248511" lon="8.672817912996742"><ele>231.75</ele><time>2026-05-01T14:00:01.001Z</time></trkpt><trkpt lat="42.37577124823514" lon="8.672685143819283"><ele>232.5</ele><time>2026-05-01T14:00:02.001Z</time></trkpt><trkpt lat="42.37571292929497" lon="8.672543097117181"><ele>233.25</ele><time>2026-05-01T14:00:03.001Z</time></trkpt><trkpt lat="42.37559933668532" lon="8.672380501258685"><ele>234.0</ele><time>2026-05-01T14:00:04.001Z</time></trkpt><trkpt lat="42.37545586336104" lon="8.672204867815589"><ele>237.33333333333331</ele><time>2026-05-01T14:00:05.001Z</time></trkpt><trkpt lat="42.37529454006174" lon="8.672028320095507"><ele>240.66666666666666</ele><time>2026-05-01T14:00:06.001Z</time></trkpt><trkpt lat="42.37511757338219" lon="8.671895472090364"><ele>244.0</ele><time>2026-05-01T14:00:07.001Z</time></trkpt><trkpt lat="42.37489783317" lon="8.671784327443943"><ele>257.0</ele><time>2026-05-01T14:00:08.002Z</time></trkpt><trkpt lat="42.374657184836046" lon="8.671682553874062"><ele>270.0</ele><time>2026-05-01T14:00:09.002Z</time></trkpt><trkpt lat="42.37440977646156" lon="8.671564221393693"><ele>270.0</ele><time>2026-05-01T14:00:10.002Z</time></trkpt><trkpt lat="42.37416176094067" lon="8.671436180886493"><ele>270.0</ele><time>2026-05-01T14:00:11.002Z</time></trkpt><trkpt lat="42.373960580834726" lon="8.671288932676331"><ele>275.0</ele><time>2026-05-01T14:00:12.002Z</time></trkpt><trkpt lat="42.373811195660736" lon="8.671131280253205"><ele>280.0</ele><time>2026-05-01T14:00:13.002Z</time></trkpt><trkpt lat="42.37371794171491" lon="8.670964111242373"><ele>285.0</ele><time>2026-05-01T14:00:14.002Z</time></trkpt><trkpt lat="42.37367201937739" lon="8.670776363244995"><ele>285.0</ele><time>2026-05-01T14:00:15.002Z</time></trkpt><trkpt lat="42.373672109573995" lon="8.670548030519441"><ele>285.0</ele><time>2026-05-01T14:00:16.002Z</time></trkpt><trkpt lat="42.37364466158848" lon="8.670318033702104"><ele>285.0</ele><time>2026-05-01T14:00:17.002Z</time></trkpt><trkpt lat="42.37355739971624" lon="8.670115665641621"><ele>278.6666666666667</ele><time>2026-05-01T14:00:18.002Z</time></trkpt><trkpt lat="42.3734367317798" lon="8.66996298777459"><ele>272.33333333333337</ele><time>2026-05-01T14:00:19.002Z</time></trkpt><trkpt lat="42.37329154887174" lon="8.669832783068738"><ele>266.0</ele><time>2026-05-01T14:00:20.002Z</time></trkpt><trkpt lat="42.373113334997576" lon="8.669717109646646"><ele>266.33333333333337</ele><time>2026-05-01T14:00:21.002Z</time></trkpt><trkpt lat="42.37291101938592" lon="8.669620408626818"><ele>266.6666666666667</ele><time>2026-05-01T14:00:22.002Z</time></trkpt><trkpt lat="42.37270893431355" lon="8.669488822176035"><ele>267.0</ele><time>2026-05-01T14:00:23.002Z</time></trkpt><trkpt lat="42.37253866912858" lon="8.669314198785433"><ele>267.0</ele><time>2026-05-01T14:00:24.001Z</time></trkpt><trkpt lat="42.37241776419446" lon="8.669124478887817"><ele>267.0</ele><time>2026-05-01T14:00:25.001Z</time></trkpt><trkpt lat="42.37232166001201" lon="8.668970923140453"><ele>267.0</ele><time>2026-05-01T14:00:26.001Z</time></trkpt><trkpt lat="42.37220850145727" lon="8.668890019449039"><ele>269.0</ele><time>2026-05-01T14:00:27.001Z</time></trkpt><trkpt lat="42.37208387442937" lon="8.668891353990393"><ele>271.0</ele><time>2026-05-01T14:00:28.001Z</time></trkpt><trkpt lat="42.37195151230939" lon="8.668978164855996"><ele>273.0</ele><time>2026-05-01T14:00:29.001Z</time></trkpt><trkpt lat="42.37180281924316" lon="8.669119334580653"><ele>273.0</ele><time>2026-05-01T14:00:30.001Z</time></trkpt><trkpt lat="42.37163158298395" lon="8.669279259398072"><ele>273.0</ele><time>2026-05-01T14:00:31.001Z</time></trkpt><trkpt lat="42.37143322620001" lon="8.669419179820613"><ele>273.0</ele><time>2026-05-01T14:00:32.001Z</time></trkpt><trkpt lat="42.37122939650115" lon="8.669556124548365"><ele>275.3333333333333</ele><time>2026-05-01T14:00:33.001Z</time></trkpt><trkpt lat="42.37103089903217" lon="8.669706632988083"><ele>277.66666666666663</ele><time>2026-05-01T14:00:34.001Z</time></trkpt><trkpt lat="42.37087076039676" lon="8.669846646148498"><ele>280.0</ele><time>2026-05-01T14:00:35.001Z</time></trkpt><trkpt lat="42.370759205728646" lon="8.66995547579282"><ele>280.0</ele><time>2026-05-01T14:00:36.001Z</time></trkpt><trkpt lat="42.37068610646196" lon="8.670074111278435"><ele>280.0</ele><time>2026-05-01T14:00:37.001Z</time></trkpt><trkpt lat="42.37065792162318" lon="8.670231026575076"><ele>280.0</ele><time>2026-05-01T14:00:38.001Z</time></trkpt><trkpt lat="42.370640532360724" lon="8.670410045150854"><ele>280.0</ele><time>2026-05-01T14:00:39.001Z</time></trkpt><trkpt lat="42.37059309432774" lon="8.67054350154824"><ele>281.75</ele><time>2026-05-01T14:00:40.001Z</time></trkpt><trkpt lat="42.370513876282466" lon="8.670598921705377"><ele>283.5</ele><time>2026-05-01T14:00:41.001Z</time></trkpt><trkpt lat="42.37040729351385" lon="8.6705839207137"><ele>285.25</ele><time>2026-05-01T14:00:42.001Z</time></trkpt><trkpt lat="42.370275195407736" lon="8.670535061239436"><ele>287.0</ele><time>2026-05-01T14:00:43.001Z</time></trkpt><trkpt lat="42.37014526066309" lon="8.670526537787216"><ele>287.0</ele><time>2026-05-01T14:00:44.001Z</time></trkpt><trkpt lat="42.37003539361534" lon="8.670574579503889"><ele>287.0</ele><time>2026-05-01T14:00:45.001Z</time></trkpt><trkpt lat="42.369930209717815" lon="8.670689456260234"><ele>287.0</ele><time>2026-05-01T14:00:46.001Z</time></trkpt><trkpt lat="42.369832247463265" lon="8.670861306125019"><ele>287.0</ele><time>2026-05-01T14:00:47.001Z</time></trkpt><trkpt lat="42.36972403834532" lon="8.67101885714864"><ele>289.0</ele><time>2026-05-01T14:00:48.001Z</time></trkpt><trkpt lat="42.3695849642616" lon="8.67109850338128"><ele>291.0</ele><time>2026-05-01T14:00:49.001Z</time></trkpt><trkpt lat="42.36944223954013" lon="8.671113264446936"><ele>293.0</ele><time>2026-05-01T14:00:50.001Z</time></trkpt><trkpt lat="42.369322310679316" lon="8.671168223923758"><ele>295.0</ele><time>2026-05-01T14:00:51.001Z</time></trkpt><trkpt lat="42.36920156887104" lon="8.671312108124257"><ele>295.0</ele><time>2026-05-01T14:00:52.001Z</time></trkpt><trkpt lat="42.36906474716185" lon="8.671492643472078"><ele>295.0</ele><time>2026-05-01T14:00:53.001Z</time></trkpt><trkpt lat="42.3689253454597" lon="8.67169251293005"><ele>295.0</ele><time>2026-05-01T14:00:54.001Z</time></trkpt><trkpt lat="42.36878017166465" lon="8.671919147677992"><ele>298.66666666666663</ele><time>2026-05-01T14:00:55.001Z</time></trkpt><trkpt lat="42.36860114188827" lon="8.672098983204608"><ele>302.3333333333333</ele><time>2026-05-01T14:00:56.001Z</time></trkpt><trkpt lat="42.368430261063345" lon="8.672214600753316"><ele>306.0</ele><time>2026-05-01T14:00:57.001Z</time></trkpt><trkpt lat="42.368281358958605" lon="8.672290581772671"><ele>306.0</ele><time>2026-05-01T14:00:58.001Z</time></trkpt><trkpt lat="42.368155368488" lon="8.672333866088763"><ele>306.0</ele><time>2026-05-01T14:00:59.001Z</time></trkpt><trkpt lat="42.36805389264685" lon="8.672326267536386"><ele>306.0</ele><time>2026-05-01T14:01:00.001Z</time></trkpt><trkpt lat="42.367968384971796" lon="8.672254405173087"><ele>306.0</ele><time>2026-05-01T14:01:01.001Z</time></trkpt><trkpt lat="42.36790352531732" lon="8.672131414180258"><ele>306.0</ele><time>2026-05-01T14:01:02.001Z</time></trkpt><trkpt lat="42.367883865436475" lon="8.671985164510234"><ele>302.5</ele><time>2026-05-01T14:01:03.001Z</time></trkpt><trkpt lat="42.367924278070944" lon="8.671851791616431"><ele>299.0</ele><time>2026-05-01T14:01:04.001Z</time></trkpt><trkpt lat="42.368014843601216" lon="8.671743880045938"><ele>295.5</ele><time>2026-05-01T14:01:05.001Z</time></trkpt><trkpt lat="42.36814275631154" lon="8.671649116715397"><ele>292.0</ele><time>2026-05-01T14:01:06.001Z</time></trkpt><trkpt lat="42.36825820880718" lon="8.671532367489483"><ele>292.0</ele><time>2026-05-01T14:01:07.001Z</time></trkpt><trkpt lat="42.36831419841914" lon="8.671360846527552"><ele>292.0</ele><time>2026-05-01T14:01:08.001Z</time></trkpt><trkpt lat="42.36832313058097" lon="8.671162468539672"><ele>292.0</ele><time>2026-05-01T14:01:09.001Z</time></trkpt><trkpt lat="42.368336215626776" lon="8.670971651969275"><ele>292.0</ele><time>2026-05-01T14:01:10.001Z</time></trkpt><trkpt lat="42.36837310246855" lon="8.670831911149728"><ele>293.4</ele><time>2026-05-01T14:01:11.001Z</time></trkpt><trkpt lat="42.36838260801987" lon="8.670709752539024"><ele>294.79999999999995</ele><time>2026-05-01T14:01:12.001Z</time></trkpt><trkpt lat="42.36833248583386" lon="8.670575581337804"><ele>296.2</ele><time>2026-05-01T14:01:13.001Z</time></trkpt><trkpt lat="42.36827152377721" lon="8.670432018875061"><ele>297.59999999999997</ele><time>2026-05-01T14:01:14.001Z</time></trkpt><trkpt lat="42.36826778209041" lon="8.670287897227624"><ele>299.0</ele><time>2026-05-01T14:01:15.001Z</time></trkpt><trkpt lat="42.36829934903875" lon="8.67017095307984"><ele>300.83333333333337</ele><time>2026-05-01T14:01:16.001Z</time></trkpt><trkpt lat="42.368341031414396" lon="8.670079775471505"><ele>302.6666666666667</ele><time>2026-05-01T14:01:17.001Z</time></trkpt><trkpt lat="42.36838847155572" lon="8.670003886558064"><ele>304.5</ele><time>2026-05-01T14:01:19.001Z</time></trkpt><trkpt lat="42.3684347209115" lon="8.670076871138782"><ele>306.3333333333333</ele><time>2026-05-01T14:01:31.001Z</time></trkpt><trkpt lat="42.36850088665284" lon="8.66999709011953"><ele>308.16666666666663</ele><time>2026-05-01T14:02:39.001Z</time></trkpt><trkpt lat="42.368555864020514" lon="8.669923628235356"><ele>310.0</ele><time>2026-05-01T14:02:40.001Z</time></trkpt><trkpt lat="42.368598479588115" lon="8.66981395337918"><ele>310.0</ele><time>2026-05-01T14:02:41.001Z</time></trkpt><trkpt lat="42.3686530280976" lon="8.669676153355944"><ele>310.0</ele><time>2026-05-01T14:02:42.001Z</time></trkpt><trkpt lat="42.368728749500754" lon="8.669501655884815"><ele>310.0</ele><time>2026-05-01T14:02:43.001Z</time></trkpt><trkpt lat="42.3687795554997" lon="8.669299007018704"><ele>310.0</ele><time>2026-05-01T14:02:44.001Z</time></trkpt><trkpt lat="42.36879799499763" lon="8.669065663119124"><ele>316.0</ele><time>2026-05-01T14:02:45.001Z</time></trkpt><trkpt lat="42.36878983903063" lon="8.668808456500527"><ele>322.0</ele><time>2026-05-01T14:02:46.001Z</time></trkpt><trkpt lat="42.368810313992284" lon="8.66853457881914"><ele>328.0</ele><time>2026-05-01T14:02:47.001Z</time></trkpt><trkpt lat="42.368865611836156" lon="8.668266127827088"><ele>316.3333333333333</ele><time>2026-05-01T14:02:48.001Z</time></trkpt><trkpt lat="42.36891976970597" lon="8.667990725029346"><ele>304.6666666666667</ele><time>2026-05-01T14:02:49.001Z</time></trkpt><trkpt lat="42.368947730506974" lon="8.667745537636558"><ele>293.0</ele><time>2026-05-01T14:02:50.001Z</time></trkpt><trkpt lat="42.368980466927304" lon="8.667546592903197"><ele>293.0</ele><time>2026-05-01T14:02:51.001Z</time></trkpt><trkpt lat="42.36899987363974" lon="8.667374448232623"><ele>293.0</ele><time>2026-05-01T14:02:52.001Z</time></trkpt><trkpt lat="42.36897750089962" lon="8.66721931119669"><ele>293.0</ele><time>2026-05-01T14:02:53.001Z</time></trkpt><trkpt lat="42.36891154964451" lon="8.667066367614323"><ele>293.0</ele><time>2026-05-01T14:02:54.001Z</time></trkpt><trkpt lat="42.36883041799768" lon="8.666915343898642"><ele>294.0</ele><time>2026-05-01T14:02:55.001Z</time></trkpt><trkpt lat="42.36878078583995" lon="8.66677210008772"><ele>295.0</ele><time>2026-05-01T14:02:56.001Z</time></trkpt><trkpt lat="42.36878016567392" lon="8.666637558513788"><ele>296.0</ele><time>2026-05-01T14:02:57Z</time></trkpt><trkpt lat="42.368835765110404" lon="8.666531608685665"><ele>297.0</ele><time>2026-05-01T14:02:58Z</time></trkpt><trkpt lat="42.36893232718784" lon="8.666445956024573"><ele>298.0</ele><time>2026-05-01T14:02:59Z</time></trkpt><trkpt lat="42.36905402068775" lon="8.666348591563816"><ele>298.0</ele><time>2026-05-01T14:03:00Z</time></trkpt><trkpt lat="42.3691799645308" lon="8.666242047001367"><ele>298.0</ele><time>2026-05-01T14:03:01Z</time></trkpt><trkpt lat="42.36931163720743" lon="8.666135261297555"><ele>298.0</ele><time>2026-05-01T14:03:02Z</time></trkpt><trkpt lat="42.36941970645003" lon="8.66603226776171"><ele>298.0</ele><time>2026-05-01T14:03:03Z</time></trkpt><trkpt lat="42.369489796797836" lon="8.665911290870794"><ele>301.2</ele><time>2026-05-01T14:03:04Z</time></trkpt><trkpt lat="42.36952069636358" lon="8.665781326732773"><ele>304.4</ele><time>2026-05-01T14:03:05Z</time></trkpt><trkpt lat="42.36950244893527" lon="8.665650059618406"><ele>307.59999999999997</ele><time>2026-05-01T14:03:06Z</time></trkpt><trkpt lat="42.369452603430325" lon="8.665538429049478"><ele>310.8</ele><time>2026-05-01T14:03:07Z</time></trkpt><trkpt lat="42.36938604750501" lon="8.665438997007527"><ele>314.0</ele><time>2026-05-01T14:03:08Z</time></trkpt><trkpt lat="42.36930916326623" lon="8.665348050998897"><ele>311.59999999999997</ele><time>2026-05-01T14:03:09Z</time></trkpt><trkpt lat="42.36922763535735" lon="8.66526840031524"><ele>309.2</ele><time>2026-05-01T14:03:10Z</time></trkpt><trkpt lat="42.36914967988449" lon="8.665198097505417"><ele>306.79999999999995</ele><time>2026-05-01T14:03:11Z</time></trkpt><trkpt lat="42.369070094157976" lon="8.665135483037231"><ele>304.4</ele><time>2026-05-01T14:03:12Z</time></trkpt><trkpt lat="42.3689856030768" lon="8.665064674636243"><ele>302.0</ele><time>2026-05-01T14:03:13Z</time></trkpt><trkpt lat="42.368885677643036" lon="8.664999755063375"><ele>306.6</ele><time>2026-05-01T14:03:14Z</time></trkpt><trkpt lat="42.368780897027214" lon="8.664936472661813"><ele>311.2</ele><time>2026-05-01T14:03:15Z</time></trkpt><trkpt lat="42.36867992231475" lon="8.664885174689747"><ele>315.8</ele><time>2026-05-01T14:03:16Z</time></trkpt><trkpt lat="42.368578962178894" lon="8.664841381396311"><ele>320.4</ele><time>2026-05-01T14:03:17Z</time></trkpt><trkpt lat="42.368473921997705" lon="8.664793509496135"><ele>325.0</ele><time>2026-05-01T14:03:18Z</time></trkpt><trkpt lat="42.36836814079544" lon="8.664736311840699"><ele>325.0</ele><time>2026-05-01T14:03:19Z</time></trkpt><trkpt lat="42.368265558937146" lon="8.664681514897302"><ele>325.0</ele><time>2026-05-01T14:03:20Z</time></trkpt><trkpt lat="42.36815875163184" lon="8.664618930753669"><ele>325.0</ele><time>2026-05-01T14:03:21Z</time></trkpt><trkpt lat="42.36805540102906" lon="8.664560899694164"><ele>325.0</ele><time>2026-05-01T14:03:22Z</time></trkpt><trkpt lat="42.36794813386813" lon="8.664520268269417"><ele>325.6</ele><time>2026-05-01T14:03:23Z</time></trkpt><trkpt lat="42.3678434265617" lon="8.664508767293377"><ele>326.2</ele><time>2026-05-01T14:03:24Z</time></trkpt><trkpt lat="42.367744989712826" lon="8.664525949980485"><ele>326.79999999999995</ele><time>2026-05-01T14:03:25Z</time></trkpt><trkpt lat="42.36766024269667" lon="8.66456684483438"><ele>327.4</ele><time>2026-05-01T14:03:26Z</time></trkpt><trkpt lat="42.367582216058686" lon="8.664649269920137"><ele>328.0</ele><time>2026-05-01T14:03:27Z</time></trkpt><trkpt lat="42.36750112236023" lon="8.664762107895752"><ele>328.0</ele><time>2026-05-01T14:03:28Z</time></trkpt><trkpt lat="42.36740880181718" lon="8.664872764531648"><ele>328.0</ele><time>2026-05-01T14:03:29Z</time></trkpt><trkpt lat="42.367295219647865" lon="8.664947257713676"><ele>328.0</ele><time>2026-05-01T14:03:30Z</time></trkpt><trkpt lat="42.36716307070665" lon="8.664968696820457"><ele>328.0</ele><time>2026-05-01T14:03:31Z</time></trkpt><trkpt lat="42.36701673529878" lon="8.664925666750696"><ele>325.5</ele><time>2026-05-01T14:03:32Z</time></trkpt><trkpt lat="42.36686675030164" lon="8.66485244870565"><ele>323.0</ele><time>2026-05-01T14:03:33Z</time></trkpt><trkpt lat="42.36673257710799" lon="8.664817730639179"><ele>320.5</ele><time>2026-05-01T14:03:34Z</time></trkpt><trkpt lat="42.36661569434706" lon="8.664870708108449"><ele>318.0</ele><time>2026-05-01T14:03:35Z</time></trkpt><trkpt lat="42.36653413515079" lon="8.664990998749373"><ele>318.0</ele><time>2026-05-01T14:03:36Z</time></trkpt><trkpt lat="42.36648240135705" lon="8.665136186242057"><ele>318.0</ele><time>2026-05-01T14:03:37Z</time></trkpt><trkpt lat="42.36639968012717" lon="8.66525824984808"><ele>318.0</ele><time>2026-05-01T14:03:38Z</time></trkpt><trkpt lat="42.36625326966348" lon="8.665340514362704"><ele>318.0</ele><time>2026-05-01T14:03:39Z</time></trkpt><trkpt lat="42.366084494231494" lon="8.665387540440843"><ele>318.5</ele><time>2026-05-01T14:03:40Z</time></trkpt><trkpt lat="42.36593509304908" lon="8.665388305949987"><ele>319.0</ele><time>2026-05-01T14:03:41Z</time></trkpt><trkpt lat="42.36579933451834" lon="8.665326785235786"><ele>319.5</ele><time>2026-05-01T14:03:42Z</time></trkpt><trkpt lat="42.36566117769411" lon="8.66523396213604"><ele>320.0</ele><time>2026-05-01T14:03:43Z</time></trkpt><trkpt lat="42.36549771626491" lon="8.665211348420435"><ele>320.0</ele><time>2026-05-01T14:03:44Z</time></trkpt><trkpt lat="42.3652959908746" lon="8.66524816320252"><ele>320.0</ele><time>2026-05-01T14:03:45Z</time></trkpt><trkpt lat="42.365126494559895" lon="8.665234695139835"><ele>320.0</ele><time>2026-05-01T14:03:46Z</time></trkpt><trkpt lat="42.36498952310271" lon="8.665147405857166"><ele>320.0</ele><time>2026-05-01T14:03:47Z</time></trkpt><trkpt lat="42.36486742694286" lon="8.665019256621168"><ele>320.0</ele><time>2026-05-01T14:03:48Z</time></trkpt><trkpt lat="42.36472970903123" lon="8.664945413090294"><ele>320.0</ele><time>2026-05-01T14:03:49Z</time></trkpt><trkpt lat="42.364570678427114" lon="8.664938806186976"><ele>323.0</ele><time>2026-05-01T14:03:50Z</time></trkpt><trkpt lat="42.36444017704081" lon="8.665001949675414"><ele>326.0</ele><time>2026-05-01T14:03:51Z</time></trkpt><trkpt lat="42.364331654091266" lon="8.66507549836213"><ele>329.0</ele><time>2026-05-01T14:03:52Z</time></trkpt><trkpt lat="42.36424746186491" lon="8.665056857148254"><ele>332.0</ele><time>2026-05-01T14:03:53Z</time></trkpt><trkpt lat="42.3642049950869" lon="8.664954040467432"><ele>335.0</ele><time>2026-05-01T14:03:54Z</time></trkpt><trkpt lat="42.364209797089366" lon="8.664812819359788"><ele>335.0</ele><time>2026-05-01T14:03:55Z</time></trkpt><trkpt lat="42.3642590788889" lon="8.664622808472002"><ele>335.0</ele><time>2026-05-01T14:03:56Z</time></trkpt><trkpt lat="42.3643215373505" lon="8.664401662664444"><ele>335.0</ele><time>2026-05-01T14:03:57Z</time></trkpt><trkpt lat="42.36443005126176" lon="8.664183459078508"><ele>338.0</ele><time>2026-05-01T14:03:58Z</time></trkpt><trkpt lat="42.364582908630005" lon="8.664009380690144"><ele>341.0</ele><time>2026-05-01T14:03:59Z</time></trkpt><trkpt lat="42.36470715998896" lon="8.66389495878174"><ele>344.0</ele><time>2026-05-01T14:04:00Z</time></trkpt><trkpt lat="42.3647549616421" lon="8.663775976232413"><ele>345.5</ele><time>2026-05-01T14:04:01Z</time></trkpt><trkpt lat="42.36472735642248" lon="8.663644095292794"><ele>347.0</ele><time>2026-05-01T14:04:02Z</time></trkpt><trkpt lat="42.3646529885187" lon="8.663482516249825"><ele>348.5</ele><time>2026-05-01T14:04:03Z</time></trkpt><trkpt lat="42.364533219693556" lon="8.663288551603815"><ele>350.0</ele><time>2026-05-01T14:04:04Z</time></trkpt><trkpt lat="42.36439862003386" lon="8.663060227478947"><ele>350.0</ele><time>2026-05-01T14:04:05Z</time></trkpt><trkpt lat="42.36424962586442" lon="8.6628104322433"><ele>350.0</ele><time>2026-05-01T14:04:06Z</time></trkpt><trkpt lat="42.36411827600863" lon="8.662602161224703"><ele>350.0</ele><time>2026-05-01T14:04:07Z</time></trkpt><trkpt lat="42.364038701620366" lon="8.662444351207204"><ele>348.0</ele><time>2026-05-01T14:04:08Z</time></trkpt><trkpt lat="42.36400983051703" lon="8.66231682608209"><ele>346.0</ele><time>2026-05-01T14:04:09Z</time></trkpt><trkpt lat="42.36404031077973" lon="8.662211456344844"><ele>344.0</ele><time>2026-05-01T14:04:10Z</time></trkpt><trkpt lat="42.36413287477708" lon="8.662127735070413"><ele>342.0</ele><time>2026-05-01T14:04:11Z</time></trkpt><trkpt lat="42.36428208546291" lon="8.662051365702043"><ele>342.0</ele><time>2026-05-01T14:04:12Z</time></trkpt><trkpt lat="42.36445879753347" lon="8.66195347513866"><ele>342.0</ele><time>2026-05-01T14:04:13Z</time></trkpt><trkpt lat="42.3646107067083" lon="8.661795840080755"><ele>342.0</ele><time>2026-05-01T14:04:14Z</time></trkpt><trkpt lat="42.364716107519" lon="8.66164040357294"><ele>343.25</ele><time>2026-05-01T14:04:15Z</time></trkpt><trkpt lat="42.36481459189382" lon="8.661591136415245"><ele>344.5</ele><time>2026-05-01T14:04:16Z</time></trkpt><trkpt lat="42.36491448019572" lon="8.661645170472152"><ele>345.75</ele><time>2026-05-01T14:04:17Z</time></trkpt><trkpt lat="42.36504634348857" lon="8.661757355844143"><ele>347.0</ele><time>2026-05-01T14:04:18Z</time></trkpt><trkpt lat="42.365192124409646" lon="8.661841093575614"><ele>347.0</ele><time>2026-05-01T14:04:19Z</time></trkpt><trkpt lat="42.36534439574629" lon="8.661816201456897"><ele>347.0</ele><time>2026-05-01T14:04:20.001Z</time></trkpt><trkpt lat="42.365483524521686" lon="8.661716668652677"><ele>347.0</ele><time>2026-05-01T14:04:21.001Z</time></trkpt><trkpt lat="42.36557518507768" lon="8.661573836168616"><ele>347.0</ele><time>2026-05-01T14:04:22.001Z</time></trkpt><trkpt lat="42.36563444461366" lon="8.66137640472893"><ele>347.0</ele><time>2026-05-01T14:04:23.001Z</time></trkpt><trkpt lat="42.36568526628733" lon="8.661107402067703"><ele>347.0</ele><time>2026-05-01T14:04:24.001Z</time></trkpt><trkpt lat="42.365767522918894" lon="8.660824374680338"><ele>347.0</ele><time>2026-05-01T14:04:25.001Z</time></trkpt><trkpt lat="42.36588665207151" lon="8.660591097584089"><ele>347.0</ele><time>2026-05-01T14:04:26.001Z</time></trkpt><trkpt lat="42.36601113414998" lon="8.66044399785863"><ele>347.0</ele><time>2026-05-01T14:04:27.001Z</time></trkpt><trkpt lat="42.366100674514286" lon="8.660317144146038"><ele>349.5</ele><time>2026-05-01T14:04:28.001Z</time></trkpt><trkpt lat="42.366110378065265" lon="8.660177504688507"><ele>352.0</ele><time>2026-05-01T14:04:29.001Z</time></trkpt><trkpt lat="42.36604693912059" lon="8.660021581955935"><ele>354.5</ele><time>2026-05-01T14:04:30.001Z</time></trkpt><trkpt lat="42.36593255514372" lon="8.659860980912514"><ele>357.0</ele><time>2026-05-01T14:04:31.001Z</time></trkpt><trkpt lat="42.36578721802086" lon="8.65969876271742"><ele>357.0</ele><time>2026-05-01T14:04:32.001Z</time></trkpt><trkpt lat="42.36567699512841" lon="8.65949889885947"><ele>357.0</ele><time>2026-05-01T14:04:33.001Z</time></trkpt><trkpt lat="42.3656497883814" lon="8.659279506038136"><ele>357.0</ele><time>2026-05-01T14:04:34.001Z</time></trkpt><trkpt lat="42.36568441681209" lon="8.659043201002927"><ele>354.6666666666667</ele><time>2026-05-01T14:04:35.001Z</time></trkpt><trkpt lat="42.365739424093285" lon="8.658806070408268"><ele>352.33333333333337</ele><time>2026-05-01T14:04:36.001Z</time></trkpt><trkpt lat="42.36574029997965" lon="8.658557759118295"><ele>350.0</ele><time>2026-05-01T14:04:37.001Z</time></trkpt><trkpt lat="42.365681558984434" lon="8.658324726016659"><ele>348.6666666666667</ele><time>2026-05-01T14:04:38.001Z</time></trkpt><trkpt lat="42.3655689516845" lon="8.65813384586349"><ele>347.3333333333333</ele><time>2026-05-01T14:04:39.001Z</time></trkpt><trkpt lat="42.36541136788645" lon="8.657986679797084"><ele>346.0</ele><time>2026-05-01T14:04:40.001Z</time></trkpt><trkpt lat="42.36524219496987" lon="8.657903274445188"><ele>355.0</ele><time>2026-05-01T14:04:41.001Z</time></trkpt><trkpt lat="42.3651056222275" lon="8.657823622579368"><ele>364.0</ele><time>2026-05-01T14:04:42.001Z</time></trkpt><trkpt lat="42.36502639922666" lon="8.657667294524291"><ele>373.0</ele><time>2026-05-01T14:04:43.001Z</time></trkpt><trkpt lat="42.36499322567503" lon="8.657431567836626"><ele>373.0</ele><time>2026-05-01T14:04:44.001Z</time></trkpt><trkpt lat="42.36497266128944" lon="8.657129138620022"><ele>373.0</ele><time>2026-05-01T14:04:45.001Z</time></trkpt><trkpt lat="42.36496145919517" lon="8.656827290527715"><ele>373.0</ele><time>2026-05-01T14:04:46.001Z</time></trkpt><trkpt lat="42.36493513618784" lon="8.656598848200241"><ele>371.0</ele><time>2026-05-01T14:04:47.001Z</time></trkpt><trkpt lat="42.36487422693895" lon="8.656436463008674"><ele>369.0</ele><time>2026-05-01T14:04:48.001Z</time></trkpt><trkpt lat="42.364750882672084" lon="8.65629434458429"><ele>367.0</ele><time>2026-05-01T14:04:49.001Z</time></trkpt><trkpt lat="42.36457071514765" lon="8.65619142399607"><ele>368.3333333333333</ele><time>2026-05-01T14:04:50.001Z</time></trkpt><trkpt lat="42.36435972159396" lon="8.656108481866802"><ele>369.6666666666667</ele><time>2026-05-01T14:04:51Z</time></trkpt><trkpt lat="42.36413659881481" lon="8.656068217623206"><ele>371.0</ele><time>2026-05-01T14:04:52Z</time></trkpt><trkpt lat="42.36395788164339" lon="8.656024953988805"><ele>381.25</ele><time>2026-05-01T14:04:53Z</time></trkpt><trkpt lat="42.363844556039915" lon="8.655957685578674"><ele>391.5</ele><time>2026-05-01T14:04:54Z</time></trkpt><trkpt lat="42.363792943350994" lon="8.655837378700618"><ele>401.75</ele><time>2026-05-01T14:04:55Z</time></trkpt><trkpt lat="42.363794089065706" lon="8.65565481637702"><ele>412.0</ele><time>2026-05-01T14:04:56Z</time></trkpt><trkpt lat="42.363790419257484" lon="8.65541101226203"><ele>412.0</ele><time>2026-05-01T14:04:57Z</time></trkpt><trkpt lat="42.36376530979837" lon="8.655157886233582"><ele>412.0</ele><time>2026-05-01T14:04:58Z</time></trkpt><trkpt lat="42.363778987970406" lon="8.654943755794907"><ele>412.0</ele><time>2026-05-01T14:04:59Z</time></trkpt><trkpt lat="42.36386471036118" lon="8.654732896437082"><ele>397.0</ele><time>2026-05-01T14:05:00Z</time></trkpt><trkpt lat="42.36396931675447" lon="8.654523423581688"><ele>382.0</ele><time>2026-05-01T14:05:01Z</time></trkpt><trkpt lat="42.36401868671591" lon="8.654326551673364"><ele>367.0</ele><time>2026-05-01T14:05:02Z</time></trkpt><trkpt lat="42.36400202756182" lon="8.654103142756185"><ele>367.0</ele><time>2026-05-01T14:05:03Z</time></trkpt><trkpt lat="42.36394212994626" lon="8.653868565457914"><ele>367.0</ele><time>2026-05-01T14:05:04Z</time></trkpt><trkpt lat="42.36385226489308" lon="8.65368208390188"><ele>367.0</ele><time>2026-05-01T14:05:05Z</time></trkpt><trkpt lat="42.36371571331233" lon="8.653533222224883"><ele>377.25</ele><time>2026-05-01T14:05:06Z</time></trkpt><trkpt lat="42.36355302377131" lon="8.653407559683862"><ele>387.5</ele><time>2026-05-01T14:05:07Z</time></trkpt><trkpt lat="42.3634528675528" lon="8.653276991318341"><ele>397.75</ele><time>2026-05-01T14:05:08Z</time></trkpt><trkpt lat="42.36343007850458" lon="8.653132339068494"><ele>408.0</ele><time>2026-05-01T14:05:09Z</time></trkpt><trkpt lat="42.363466762694586" lon="8.652963378372732"><ele>409.33333333333337</ele><time>2026-05-01T14:05:10Z</time></trkpt><trkpt lat="42.36355659813801" lon="8.652769436569397"><ele>410.6666666666667</ele><time>2026-05-01T14:05:11Z</time></trkpt><trkpt lat="42.3636851362921" lon="8.652569010797981"><ele>412.0</ele><time>2026-05-01T14:05:12Z</time></trkpt><trkpt lat="42.3638038341695" lon="8.652382857693958"><ele>412.75</ele><time>2026-05-01T14:05:13Z</time></trkpt><trkpt lat="42.363873783269185" lon="8.652200205013212"><ele>413.5</ele><time>2026-05-01T14:05:14Z</time></trkpt><trkpt lat="42.363888940148705" lon="8.652019114804519"><ele>414.25</ele><time>2026-05-01T14:05:15Z</time></trkpt><trkpt lat="42.36383312738222" lon="8.65183968301614"><ele>415.0</ele><time>2026-05-01T14:05:16Z</time></trkpt><trkpt lat="42.363732611542915" lon="8.651620294786834"><ele>415.0</ele><time>2026-05-01T14:05:17Z</time></trkpt><trkpt lat="42.36360818242545" lon="8.651367755555365"><ele>415.0</ele><time>2026-05-01T14:05:18Z</time></trkpt><trkpt lat="42.36349449894866" lon="8.651081559218898"><ele>413.0</ele><time>2026-05-01T14:05:19Z</time></trkpt><trkpt lat="42.36340495900046" lon="8.65079035801213"><ele>411.0</ele><time>2026-05-01T14:05:20Z</time></trkpt><trkpt lat="42.36336989280651" lon="8.650552156742053"><ele>409.0</ele><time>2026-05-01T14:05:21Z</time></trkpt><trkpt lat="42.363381407268136" lon="8.650379381087719"><ele>410.0</ele><time>2026-05-01T14:05:22Z</time></trkpt><trkpt lat="42.36345115034845" lon="8.650248108663455"><ele>411.0</ele><time>2026-05-01T14:05:23Z</time></trkpt><trkpt lat="42.36357467511859" lon="8.650103051059551"><ele>412.0</ele><time>2026-05-01T14:05:24Z</time></trkpt><trkpt lat="42.363688405529125" lon="8.649920297303465"><ele>412.0</ele><time>2026-05-01T14:05:25Z</time></trkpt><trkpt lat="42.363755045170315" lon="8.64967015215476"><ele>412.0</ele><time>2026-05-01T14:05:26Z</time></trkpt><trkpt lat="42.363782995195095" lon="8.649372588678988"><ele>412.0</ele><time>2026-05-01T14:05:27Z</time></trkpt><trkpt lat="42.363828567426644" lon="8.649062049299129"><ele>409.6666666666667</ele><time>2026-05-01T14:05:28Z</time></trkpt><trkpt lat="42.36391794160261" lon="8.648793782733865"><ele>407.33333333333337</ele><time>2026-05-01T14:05:29Z</time></trkpt><trkpt lat="42.363985627832584" lon="8.648589079922882"><ele>405.0</ele><time>2026-05-01T14:05:30Z</time></trkpt><trkpt lat="42.363994870213006" lon="8.648439973654828"><ele>405.0</ele><time>2026-05-01T14:05:31Z</time></trkpt><trkpt lat="42.36393749376802" lon="8.648336324593435"><ele>405.0</ele><time>2026-05-01T14:05:32Z</time></trkpt><trkpt lat="42.36384050245523" lon="8.648260824038125"><ele>405.0</ele><time>2026-05-01T14:05:33Z</time></trkpt><trkpt lat="42.363745504392234" lon="8.648246867061426"><ele>405.0</ele><time>2026-05-01T14:05:34Z</time></trkpt><trkpt lat="42.3636648399783" lon="8.648295715136062"><ele>405.0</ele><time>2026-05-01T14:05:36Z</time></trkpt><trkpt lat="42.363600787938324" lon="8.648329507170772"><ele>404.8333333333333</ele><time>2026-05-01T14:05:38Z</time></trkpt><trkpt lat="42.363533070776306" lon="8.648354789623742"><ele>404.66666666666663</ele><time>2026-05-01T14:05:40Z</time></trkpt><trkpt lat="42.36346501691691" lon="8.64837923284972"><ele>404.5</ele><time>2026-05-01T14:05:42Z</time></trkpt><trkpt lat="42.363375768849124" lon="8.648386088462347"><ele>404.3333333333333</ele><time>2026-05-01T14:05:43Z</time></trkpt><trkpt lat="42.36329200384582" lon="8.648375999634935"><ele>404.16666666666663</ele><time>2026-05-01T14:05:44Z</time></trkpt><trkpt lat="42.3632061515018" lon="8.648353016360451"><ele>404.0</ele><time>2026-05-01T14:05:45Z</time></trkpt><trkpt lat="42.36310092488857" lon="8.64834495142932"><ele>402.3333333333333</ele><time>2026-05-01T14:05:46Z</time></trkpt><trkpt lat="42.36301939725247" lon="8.648333499571095"><ele>400.66666666666663</ele><time>2026-05-01T14:05:47Z</time></trkpt><trkpt lat="42.36294165619122" lon="8.648340687487376"><ele>399.0</ele><time>2026-05-01T14:05:48Z</time></trkpt><trkpt lat="42.36287371086512" lon="8.648334415754713"><ele>397.33333333333337</ele><time>2026-05-01T14:05:49Z</time></trkpt><trkpt lat="42.36276719689813" lon="8.648336911735413"><ele>395.6666666666667</ele><time>2026-05-01T14:05:51Z</time></trkpt><trkpt lat="42.36269412383502" lon="8.648387411817584"><ele>394.0</ele><time>2026-05-01T14:05:54Z</time></trkpt><trkpt lat="42.362638210058385" lon="8.648502038744475"><ele>394.0</ele><time>2026-05-01T14:06:34.001Z</time></trkpt><trkpt lat="42.362572897968974" lon="8.648529553420158"><ele>394.0</ele><time>2026-05-01T14:06:35.001Z</time></trkpt><trkpt lat="42.3624858239765" lon="8.64853970704951"><ele>394.0</ele><time>2026-05-01T14:06:36.001Z</time></trkpt><trkpt lat="42.36238542400797" lon="8.648549221761337"><ele>394.0</ele><time>2026-05-01T14:06:37.001Z</time></trkpt><trkpt lat="42.36227804061946" lon="8.648558912825905"><ele>394.0</ele><time>2026-05-01T14:06:38.001Z</time></trkpt><trkpt lat="42.362173761887064" lon="8.648551175026844"><ele>392.6</ele><time>2026-05-01T14:06:39.001Z</time></trkpt><trkpt lat="42.36209051260645" lon="8.648491002568347"><ele>391.2</ele><time>2026-05-01T14:06:40.001Z</time></trkpt><trkpt lat="42.362032407480605" lon="8.648378817323762"><ele>389.8</ele><time>2026-05-01T14:06:41.001Z</time></trkpt><trkpt lat="42.361966364055114" lon="8.648284115754809"><ele>388.40000000000003</ele><time>2026-05-01T14:06:42.001Z</time></trkpt><trkpt lat="42.361883352605886" lon="8.648256778616277"><ele>387.0</ele><time>2026-05-01T14:06:43.001Z</time></trkpt><trkpt lat="42.361794895968494" lon="8.648276794647861"><ele>387.0</ele><time>2026-05-01T14:06:44.001Z</time></trkpt><trkpt lat="42.36170022263729" lon="8.648316614612328"><ele>387.0</ele><time>2026-05-01T14:06:45.001Z</time></trkpt><trkpt lat="42.361617602659756" lon="8.64830541797859"><ele>387.0</ele><time>2026-05-01T14:06:46.001Z</time></trkpt><trkpt lat="42.3615375762156" lon="8.648317574642666"><ele>387.0</ele><time>2026-05-01T14:06:47.001Z</time></trkpt><trkpt lat="42.36149518960461" lon="8.648399674864148"><ele>387.0</ele><time>2026-05-01T14:06:48.001Z</time></trkpt><trkpt lat="42.36147805546552" lon="8.648537203924452"><ele>387.0</ele><time>2026-05-01T14:06:49.001Z</time></trkpt><trkpt lat="42.361480559223395" lon="8.648716551091827"><ele>393.66666666666663</ele><time>2026-05-01T14:06:50.001Z</time></trkpt><trkpt lat="42.36148730308578" lon="8.648913062397455"><ele>400.3333333333333</ele><time>2026-05-01T14:06:51.001Z</time></trkpt><trkpt lat="42.36148037856913" lon="8.649130747465891"><ele>407.0</ele><time>2026-05-01T14:06:52.001Z</time></trkpt><trkpt lat="42.36146225788603" lon="8.649375798634296"><ele>408.3333333333333</ele><time>2026-05-01T14:06:53.001Z</time></trkpt><trkpt lat="42.36145626961789" lon="8.649646822590462"><ele>409.66666666666663</ele><time>2026-05-01T14:06:54.001Z</time></trkpt><trkpt lat="42.36147871722025" lon="8.649910804021443"><ele>411.0</ele><time>2026-05-01T14:06:55.001Z</time></trkpt><trkpt lat="42.36150327792432" lon="8.650140019175497"><ele>413.75</ele><time>2026-05-01T14:06:56.001Z</time></trkpt><trkpt lat="42.36152100734585" lon="8.650338019341394"><ele>416.5</ele><time>2026-05-01T14:06:57Z</time></trkpt><trkpt lat="42.36151459941852" lon="8.650500129598912"><ele>419.25</ele><time>2026-05-01T14:06:58Z</time></trkpt><trkpt lat="42.361485290996995" lon="8.650627120911619"><ele>422.0</ele><time>2026-05-01T14:06:59Z</time></trkpt><trkpt lat="42.36140109451486" lon="8.650718625598811"><ele>412.25</ele><time>2026-05-01T14:07:00Z</time></trkpt><trkpt lat="42.36127922052012" lon="8.65077590237082"><ele>402.5</ele><time>2026-05-01T14:07:01Z</time></trkpt><trkpt lat="42.361128967728" lon="8.65080720654299"><ele>392.75</ele><time>2026-05-01T14:07:02Z</time></trkpt><trkpt lat="42.36098482377738" lon="8.6508526750009"><ele>383.0</ele><time>2026-05-01T14:07:03Z</time></trkpt><trkpt lat="42.36087431825685" lon="8.650933505914026"><ele>383.0</ele><time>2026-05-01T14:07:04Z</time></trkpt><trkpt lat="42.36079931027921" lon="8.651069404857328"><ele>383.0</ele><time>2026-05-01T14:07:05Z</time></trkpt><trkpt lat="42.36078005533948" lon="8.651246897213193"><ele>383.0</ele><time>2026-05-01T14:07:06Z</time></trkpt><trkpt lat="42.36080642489839" lon="8.65142663284206"><ele>383.0</ele><time>2026-05-01T14:07:07Z</time></trkpt><trkpt lat="42.360820231896945" lon="8.65160080733093"><ele>379.0</ele><time>2026-05-01T14:07:08Z</time></trkpt><trkpt lat="42.36077434532553" lon="8.65175992703655"><ele>375.0</ele><time>2026-05-01T14:07:09Z</time></trkpt><trkpt lat="42.360677887758094" lon="8.651866567129991"><ele>371.0</ele><time>2026-05-01T14:07:10Z</time></trkpt><trkpt lat="42.36054862814944" lon="8.651925884477112"><ele>367.0</ele><time>2026-05-01T14:07:11Z</time></trkpt><trkpt lat="42.36043805389244" lon="8.651990321557182"><ele>367.0</ele><time>2026-05-01T14:07:12Z</time></trkpt><trkpt lat="42.36037099581397" lon="8.652112472697219"><ele>367.0</ele><time>2026-05-01T14:07:13Z</time></trkpt><trkpt lat="42.36037116079237" lon="8.652291776725637"><ele>367.0</ele><time>2026-05-01T14:07:14Z</time></trkpt><trkpt lat="42.36040483482508" lon="8.652453282744084"><ele>367.0</ele><time>2026-05-01T14:07:15Z</time></trkpt><trkpt lat="42.360446349720476" lon="8.652590898025313"><ele>367.0</ele><time>2026-05-01T14:07:16Z</time></trkpt><trkpt lat="42.36042323909008" lon="8.652737775885587"><ele>367.0</ele><time>2026-05-01T14:07:17Z</time></trkpt><trkpt lat="42.360340414855045" lon="8.652856236429912"><ele>367.0</ele><time>2026-05-01T14:07:18Z</time></trkpt><trkpt lat="42.36022342486237" lon="8.652924919448632"><ele>367.0</ele><time>2026-05-01T14:07:19Z</time></trkpt><trkpt lat="42.360121332402166" lon="8.652985619471142"><ele>373.25</ele><time>2026-05-01T14:07:20Z</time></trkpt><trkpt lat="42.36006899459052" lon="8.653108840164476"><ele>379.5</ele><time>2026-05-01T14:07:21Z</time></trkpt><trkpt lat="42.36001896488461" lon="8.6532953610779"><ele>385.75</ele><time>2026-05-01T14:07:22Z</time></trkpt><trkpt lat="42.359983781949715" lon="8.653480999088675"><ele>392.0</ele><time>2026-05-01T14:07:23Z</time></trkpt><trkpt lat="42.35992376167248" lon="8.653648676118024"><ele>397.75</ele><time>2026-05-01T14:07:24Z</time></trkpt><trkpt lat="42.35983891117482" lon="8.653775774776355"><ele>403.5</ele><time>2026-05-01T14:07:25Z</time></trkpt><trkpt lat="42.359730196508394" lon="8.653857966313803"><ele>409.25</ele><time>2026-05-01T14:07:26Z</time></trkpt><trkpt lat="42.359614035952696" lon="8.653887157317303"><ele>415.0</ele><time>2026-05-01T14:07:27Z</time></trkpt><trkpt lat="42.359493777102664" lon="8.65383845220653"><ele>415.0</ele><time>2026-05-01T14:07:28Z</time></trkpt><trkpt lat="42.359378516982936" lon="8.653725507598438"><ele>415.0</ele><time>2026-05-01T14:07:29Z</time></trkpt><trkpt lat="42.359284487839176" lon="8.653577864725602"><ele>415.0</ele><time>2026-05-01T14:07:30Z</time></trkpt><trkpt lat="42.35919882440414" lon="8.65338629162503"><ele>405.0</ele><time>2026-05-01T14:07:31Z</time></trkpt><trkpt lat="42.35911178537091" lon="8.653197931274548"><ele>395.0</ele><time>2026-05-01T14:07:32Z</time></trkpt><trkpt lat="42.3590073272605" lon="8.653020919718825"><ele>385.0</ele><time>2026-05-01T14:07:33Z</time></trkpt><trkpt lat="42.358894530960704" lon="8.65288878946812"><ele>385.5</ele><time>2026-05-01T14:07:34Z</time></trkpt><trkpt lat="42.358795762843656" lon="8.652837195993781"><ele>386.0</ele><time>2026-05-01T14:07:35Z</time></trkpt><trkpt lat="42.35865358106946" lon="8.652835924937373"><ele>386.5</ele><time>2026-05-01T14:07:36Z</time></trkpt><trkpt lat="42.35852039310512" lon="8.652840119510262"><ele>387.0</ele><time>2026-05-01T14:07:37Z</time></trkpt><trkpt lat="42.358403214989" lon="8.652775733410229"><ele>387.0</ele><time>2026-05-01T14:07:38Z</time></trkpt><trkpt lat="42.3583285944069" lon="8.652638917443491"><ele>387.0</ele><time>2026-05-01T14:07:39Z</time></trkpt><trkpt lat="42.35831005700271" lon="8.652442843559099"><ele>387.0</ele><time>2026-05-01T14:07:40Z</time></trkpt><trkpt lat="42.35830260953667" lon="8.652239914553729"><ele>387.0</ele><time>2026-05-01T14:07:41Z</time></trkpt><trkpt lat="42.358283733893614" lon="8.652017492736988"><ele>380.0</ele><time>2026-05-01T14:07:42Z</time></trkpt><trkpt lat="42.35823776318862" lon="8.651798535662266"><ele>373.0</ele><time>2026-05-01T14:07:43Z</time></trkpt><trkpt lat="42.358167429664356" lon="8.651607937614607"><ele>366.0</ele><time>2026-05-01T14:07:44Z</time></trkpt><trkpt lat="42.35807038783962" lon="8.651474918271614"><ele>375.0</ele><time>2026-05-01T14:07:45Z</time></trkpt><trkpt lat="42.35795582356595" lon="8.65142564812609"><ele>384.0</ele><time>2026-05-01T14:07:46Z</time></trkpt><trkpt lat="42.357819605917996" lon="8.651395079329552"><ele>393.0</ele><time>2026-05-01T14:07:47Z</time></trkpt><trkpt lat="42.35768287888233" lon="8.651338474572741"><ele>402.0</ele><time>2026-05-01T14:07:48Z</time></trkpt><trkpt lat="42.35758110443087" lon="8.651226833840045"><ele>396.25</ele><time>2026-05-01T14:07:49Z</time></trkpt><trkpt lat="42.35751760202069" lon="8.651074844151411"><ele>390.5</ele><time>2026-05-01T14:07:50Z</time></trkpt><trkpt lat="42.357496848031126" lon="8.650902176579875"><ele>384.75</ele><time>2026-05-01T14:07:51Z</time></trkpt><trkpt lat="42.35751531613916" lon="8.650699150826826"><ele>379.0</ele><time>2026-05-01T14:07:52Z</time></trkpt><trkpt lat="42.35751289896398" lon="8.650476224106123"><ele>372.66666666666663</ele><time>2026-05-01T14:07:53Z</time></trkpt><trkpt lat="42.35747496906876" lon="8.650227032724176"><ele>366.3333333333333</ele><time>2026-05-01T14:07:54Z</time></trkpt><trkpt lat="42.35741068258566" lon="8.649979501010652"><ele>360.0</ele><time>2026-05-01T14:07:55Z</time></trkpt><trkpt lat="42.35737791394813" lon="8.649739090454975"><ele>360.0</ele><time>2026-05-01T14:07:56Z</time></trkpt><trkpt lat="42.35732631502883" lon="8.649524166336322"><ele>360.0</ele><time>2026-05-01T14:07:57Z</time></trkpt><trkpt lat="42.357225678928685" lon="8.649353724891807"><ele>360.0</ele><time>2026-05-01T14:07:58Z</time></trkpt><trkpt lat="42.35709124248375" lon="8.649210156475931"><ele>368.0</ele><time>2026-05-01T14:07:59Z</time></trkpt><trkpt lat="42.356933389253214" lon="8.649090708125446"><ele>376.0</ele><time>2026-05-01T14:08:00Z</time></trkpt><trkpt lat="42.35680976179656" lon="8.648960518133658"><ele>384.0</ele><time>2026-05-01T14:08:01Z</time></trkpt><trkpt lat="42.35674299991227" lon="8.648780398613392"><ele>379.3333333333333</ele><time>2026-05-01T14:08:02Z</time></trkpt><trkpt lat="42.356732926773155" lon="8.648569298930399"><ele>374.66666666666663</ele><time>2026-05-01T14:08:03Z</time></trkpt><trkpt lat="42.35675547930442" lon="8.648325440401576"><ele>370.0</ele><time>2026-05-01T14:08:04Z</time></trkpt><trkpt lat="42.35677223756224" lon="8.648073361175499"><ele>370.0</ele><time>2026-05-01T14:08:05Z</time></trkpt><trkpt lat="42.35677863438988" lon="8.647813340794261"><ele>370.0</ele><time>2026-05-01T14:08:06Z</time></trkpt><trkpt lat="42.35678275970211" lon="8.647578281382236"><ele>370.0</ele><time>2026-05-01T14:08:07Z</time></trkpt><trkpt lat="42.35676469440765" lon="8.64736979468525"><ele>366.3333333333333</ele><time>2026-05-01T14:08:08Z</time></trkpt><trkpt lat="42.3567008885998" lon="8.647172569729666"><ele>362.6666666666667</ele><time>2026-05-01T14:08:08.999Z</time></trkpt><trkpt lat="42.35659643622106" lon="8.6469826267627"><ele>359.0</ele><time>2026-05-01T14:08:09.999Z</time></trkpt><trkpt lat="42.356486837020284" lon="8.646785987238543"><ele>358.5</ele><time>2026-05-01T14:08:10.999Z</time></trkpt><trkpt lat="42.35639052092925" lon="8.646609627194778"><ele>358.0</ele><time>2026-05-01T14:08:11.999Z</time></trkpt><trkpt lat="42.35628811274069" lon="8.646498388683439"><ele>357.5</ele><time>2026-05-01T14:08:12.999Z</time></trkpt><trkpt lat="42.356151256886015" lon="8.64644467602201"><ele>357.0</ele><time>2026-05-01T14:08:13.999Z</time></trkpt><trkpt lat="42.355985027249524" lon="8.646428146968681"><ele>357.0</ele><time>2026-05-01T14:08:14.999Z</time></trkpt><trkpt lat="42.35580095454665" lon="8.646417413559362"><ele>357.0</ele><time>2026-05-01T14:08:15.999Z</time></trkpt><trkpt lat="42.35561325255476" lon="8.646441539698449"><ele>357.0</ele><time>2026-05-01T14:08:16.999Z</time></trkpt><trkpt lat="42.355407336832336" lon="8.646512861938772"><ele>354.0</ele><time>2026-05-01T14:08:17.999Z</time></trkpt><trkpt lat="42.35520806136747" lon="8.646579098986702"><ele>351.0</ele><time>2026-05-01T14:08:18.999Z</time></trkpt><trkpt lat="42.35499213223312" lon="8.646623263700608"><ele>348.0</ele><time>2026-05-01T14:08:19.999Z</time></trkpt><trkpt lat="42.354777058555925" lon="8.646672790343853"><ele>349.6666666666667</ele><time>2026-05-01T14:08:20.999Z</time></trkpt><trkpt lat="42.35460186250882" lon="8.646732364773134"><ele>351.33333333333337</ele><time>2026-05-01T14:08:21.999Z</time></trkpt><trkpt lat="42.35444294623104" lon="8.6467617291747"><ele>353.0</ele><time>2026-05-01T14:08:22.999Z</time></trkpt><trkpt lat="42.354296158068706" lon="8.646730519096158"><ele>353.0</ele><time>2026-05-01T14:08:23.999Z</time></trkpt><trkpt lat="42.35415355368672" lon="8.646629315139696"><ele>353.0</ele><time>2026-05-01T14:08:24.999Z</time></trkpt><trkpt lat="42.354005479930116" lon="8.646485149737286"><ele>353.0</ele><time>2026-05-01T14:08:25.999Z</time></trkpt><trkpt lat="42.353856574123576" lon="8.646343029241965"><ele>351.0</ele><time>2026-05-01T14:08:26.999Z</time></trkpt><trkpt lat="42.35372614649635" lon="8.646189189917969"><ele>349.0</ele><time>2026-05-01T14:08:27.999Z</time></trkpt><trkpt lat="42.353630890012376" lon="8.646000196362975"><ele>347.0</ele><time>2026-05-01T14:08:28.999Z</time></trkpt><trkpt lat="42.353542235048735" lon="8.64582610918009"><ele>347.0</ele><time>2026-05-01T14:08:29.999Z</time></trkpt><trkpt lat="42.3534327273718" lon="8.645690731044274"><ele>347.0</ele><time>2026-05-01T14:08:30.999Z</time></trkpt><trkpt lat="42.353292566500016" lon="8.645610984123211"><ele>347.0</ele><time>2026-05-01T14:08:32.001Z</time></trkpt><trkpt lat="42.35314734775017" lon="8.645521711055878"><ele>347.75</ele><time>2026-05-01T14:08:33.001Z</time></trkpt><trkpt lat="42.35303006744957" lon="8.645393665336659"><ele>348.5</ele><time>2026-05-01T14:08:34.001Z</time></trkpt><trkpt lat="42.35292767029224" lon="8.645247771442296"><ele>349.25</ele><time>2026-05-01T14:08:35.001Z</time></trkpt><trkpt lat="42.35282393519803" lon="8.645144083453784"><ele>350.0</ele><time>2026-05-01T14:08:36.001Z</time></trkpt><trkpt lat="42.3527080668985" lon="8.645095416120993"><ele>348.0</ele><time>2026-05-01T14:08:37.001Z</time></trkpt><trkpt lat="42.352599157864724" lon="8.64506614036836"><ele>346.0</ele><time>2026-05-01T14:08:38.001Z</time></trkpt><trkpt lat="42.352517275836185" lon="8.64499706171495"><ele>344.0</ele><time>2026-05-01T14:08:39.001Z</time></trkpt><trkpt lat="42.35247455277332" lon="8.644883352259766"><ele>342.0</ele><time>2026-05-01T14:08:40.001Z</time></trkpt><trkpt lat="42.35243333396146" lon="8.644743298530386"><ele>340.0</ele><time>2026-05-01T14:08:41.001Z</time></trkpt><trkpt lat="42.352404273242755" lon="8.644591334694997"><ele>338.8</ele><time>2026-05-01T14:08:42.001Z</time></trkpt><trkpt lat="42.352388975484736" lon="8.644442489081255"><ele>337.6</ele><time>2026-05-01T14:08:43.001Z</time></trkpt><trkpt lat="42.35235814028118" lon="8.644327753582346"><ele>336.4</ele><time>2026-05-01T14:08:44.001Z</time></trkpt><trkpt lat="42.352309875705025" lon="8.644221113389884"><ele>335.2</ele><time>2026-05-01T14:08:45.001Z</time></trkpt><trkpt lat="42.35222986158835" lon="8.644152981062602"><ele>334.0</ele><time>2026-05-01T14:08:46.001Z</time></trkpt><trkpt lat="42.35214350337302" lon="8.644113351039673"><ele>334.0</ele><time>2026-05-01T14:08:47.001Z</time></trkpt><trkpt lat="42.35205649462033" lon="8.644079857406252"><ele>334.0</ele><time>2026-05-01T14:08:48.001Z</time></trkpt><trkpt lat="42.351969369570995" lon="8.644043160563731"><ele>334.0</ele><time>2026-05-01T14:08:49.001Z</time></trkpt><trkpt lat="42.35187856224708" lon="8.644007606686326"><ele>334.0</ele><time>2026-05-01T14:08:50.001Z</time></trkpt><trkpt lat="42.35178873137856" lon="8.643999802865691"><ele>334.0</ele><time>2026-05-01T14:08:51.001Z</time></trkpt><trkpt lat="42.35169484747504" lon="8.644021597495376"><ele>334.0</ele><time>2026-05-01T14:08:52Z</time></trkpt><trkpt lat="42.35161206078145" lon="8.644080395243801"><ele>334.0</ele><time>2026-05-01T14:08:53Z</time></trkpt><trkpt lat="42.35154870195692" lon="8.644167416674888"><ele>334.0</ele><time>2026-05-01T14:08:54Z</time></trkpt><trkpt lat="42.351504583921816" lon="8.644289980282426"><ele>334.0</ele><time>2026-05-01T14:08:55Z</time></trkpt><trkpt lat="42.35148911201985" lon="8.644427168009601"><ele>334.0</ele><time>2026-05-01T14:08:56Z</time></trkpt><trkpt lat="42.351502801771296" lon="8.644562305643493"><ele>332.25</ele><time>2026-05-01T14:08:57Z</time></trkpt><trkpt lat="42.351531025597716" lon="8.644696334912133"><ele>330.5</ele><time>2026-05-01T14:08:58Z</time></trkpt><trkpt lat="42.35155439931361" lon="8.644833221387414"><ele>328.75</ele><time>2026-05-01T14:08:59Z</time></trkpt><trkpt lat="42.35156650413224" lon="8.64500253214157"><ele>327.0</ele><time>2026-05-01T14:09:00Z</time></trkpt><trkpt lat="42.35157277021334" lon="8.645177921574183"><ele>325.25</ele><time>2026-05-01T14:09:01Z</time></trkpt><trkpt lat="42.35156825044841" lon="8.645345340128445"><ele>323.5</ele><time>2026-05-01T14:09:02Z</time></trkpt><trkpt lat="42.351558764928306" lon="8.645502110190249"><ele>321.75</ele><time>2026-05-01T14:09:03Z</time></trkpt><trkpt lat="42.35157722406477" lon="8.645652321004937"><ele>320.0</ele><time>2026-05-01T14:09:04Z</time></trkpt><trkpt lat="42.35162318858886" lon="8.64579469109794"><ele>320.0</ele><time>2026-05-01T14:09:05Z</time></trkpt><trkpt lat="42.35168856372591" lon="8.645931727808957"><ele>320.0</ele><time>2026-05-01T14:09:06Z</time></trkpt><trkpt lat="42.35175816723744" lon="8.64606312665984"><ele>320.0</ele><time>2026-05-01T14:09:07Z</time></trkpt><trkpt lat="42.35181143738752" lon="8.646202635011143"><ele>320.0</ele><time>2026-05-01T14:09:08Z</time></trkpt><trkpt lat="42.35183494938479" lon="8.646339021699141"><ele>318.0</ele><time>2026-05-01T14:09:09Z</time></trkpt><trkpt lat="42.3518311130497" lon="8.646494046517653"><ele>316.0</ele><time>2026-05-01T14:09:10Z</time></trkpt><trkpt lat="42.35181615035354" lon="8.646702135326418"><ele>314.0</ele><time>2026-05-01T14:09:11Z</time></trkpt><trkpt lat="42.35179526992019" lon="8.646959169071035"><ele>315.33333333333337</ele><time>2026-05-01T14:09:12Z</time></trkpt><trkpt lat="42.35175616799867" lon="8.647245811258644"><ele>316.6666666666667</ele><time>2026-05-01T14:09:13Z</time></trkpt><trkpt lat="42.35170335402861" lon="8.647508464525584"><ele>318.0</ele><time>2026-05-01T14:09:14Z</time></trkpt><trkpt lat="42.351633815477186" lon="8.647726106149062"><ele>313.6666666666667</ele><time>2026-05-01T14:09:15Z</time></trkpt><trkpt lat="42.351542256505404" lon="8.647886472904096"><ele>309.33333333333337</ele><time>2026-05-01T14:09:16Z</time></trkpt><trkpt lat="42.35141886627758" lon="8.648024118211698"><ele>305.0</ele><time>2026-05-01T14:09:17Z</time></trkpt><trkpt lat="42.35126778694251" lon="8.648146660078767"><ele>305.0</ele><time>2026-05-01T14:09:18Z</time></trkpt><trkpt lat="42.3511163350468" lon="8.648280288849474"><ele>305.0</ele><time>2026-05-01T14:09:19Z</time></trkpt><trkpt lat="42.350974613071116" lon="8.648414775305605"><ele>305.0</ele><time>2026-05-01T14:09:20Z</time></trkpt><trkpt lat="42.35083873231855" lon="8.648546577988009"><ele>304.6666666666667</ele><time>2026-05-01T14:09:21Z</time></trkpt><trkpt lat="42.35070561412601" lon="8.64867501951708"><ele>304.3333333333333</ele><time>2026-05-01T14:09:22Z</time></trkpt><trkpt lat="42.35056473568244" lon="8.648809962607867"><ele>304.0</ele><time>2026-05-01T14:09:23Z</time></trkpt><trkpt lat="42.35043054953465" lon="8.64892166867384"><ele>304.0</ele><time>2026-05-01T14:09:24Z</time></trkpt><trkpt lat="42.35029372292864" lon="8.648990143005257"><ele>304.0</ele><time>2026-05-01T14:09:25Z</time></trkpt><trkpt lat="42.35015186419462" lon="8.648997107328137"><ele>304.0</ele><time>2026-05-01T14:09:26Z</time></trkpt><trkpt lat="42.350016136107584" lon="8.648964343562751"><ele>304.0</ele><time>2026-05-01T14:09:27Z</time></trkpt><trkpt lat="42.349908412696784" lon="8.648945693804063"><ele>304.0</ele><time>2026-05-01T14:09:28Z</time></trkpt><trkpt lat="42.34981919070808" lon="8.64901613488086"><ele>304.0</ele><time>2026-05-01T14:09:29Z</time></trkpt><trkpt lat="42.349777109010724" lon="8.649153636270439"><ele>304.0</ele><time>2026-05-01T14:09:30Z</time></trkpt><trkpt lat="42.349770578911794" lon="8.649317835999641"><ele>304.0</ele><time>2026-05-01T14:09:31Z</time></trkpt><trkpt lat="42.34981225571328" lon="8.649487903443182"><ele>301.3333333333333</ele><time>2026-05-01T14:09:32Z</time></trkpt><trkpt lat="42.34988234463045" lon="8.649661891586419"><ele>298.6666666666667</ele><time>2026-05-01T14:09:33Z</time></trkpt><trkpt lat="42.34995736816569" lon="8.649860206468302"><ele>296.0</ele><time>2026-05-01T14:09:34Z</time></trkpt><trkpt lat="42.350042621232085" lon="8.650032267201913"><ele>296.0</ele><time>2026-05-01T14:09:35Z</time></trkpt><trkpt lat="42.35014748811011" lon="8.650122262855763"><ele>296.0</ele><time>2026-05-01T14:09:36Z</time></trkpt><trkpt lat="42.350267239043006" lon="8.650136112009829"><ele>296.0</ele><time>2026-05-01T14:09:37Z</time></trkpt><trkpt lat="42.35039145581076" lon="8.650080654204789"><ele>296.0</ele><time>2026-05-01T14:09:38Z</time></trkpt><trkpt lat="42.35050987585932" lon="8.64997601563925"><ele>298.25</ele><time>2026-05-01T14:09:39Z</time></trkpt><trkpt lat="42.35063853554465" lon="8.649888865417672"><ele>300.5</ele><time>2026-05-01T14:09:40Z</time></trkpt><trkpt lat="42.350760874707035" lon="8.649888550547162"><ele>302.75</ele><time>2026-05-01T14:09:41Z</time></trkpt><trkpt lat="42.350885290633954" lon="8.649963077196352"><ele>305.0</ele><time>2026-05-01T14:09:42Z</time></trkpt><trkpt lat="42.351017122340764" lon="8.650034153545596"><ele>305.0</ele><time>2026-05-01T14:09:43Z</time></trkpt><trkpt lat="42.351170328817624" lon="8.650062745227027"><ele>305.0</ele><time>2026-05-01T14:09:44Z</time></trkpt><trkpt lat="42.35135783131872" lon="8.65007575237904"><ele>305.0</ele><time>2026-05-01T14:09:45Z</time></trkpt><trkpt lat="42.35158165969792" lon="8.650092140597245"><ele>306.75</ele><time>2026-05-01T14:09:46Z</time></trkpt><trkpt lat="42.35176073227968" lon="8.650122740668996"><ele>308.5</ele><time>2026-05-01T14:09:47Z</time></trkpt><trkpt lat="42.35188544982119" lon="8.650182939110001"><ele>310.25</ele><time>2026-05-01T14:09:47.999Z</time></trkpt><trkpt lat="42.35197207511162" lon="8.650286451251839"><ele>312.0</ele><time>2026-05-01T14:09:48.999Z</time></trkpt><trkpt lat="42.35203511211593" lon="8.650433678567241"><ele>311.75</ele><time>2026-05-01T14:09:49.999Z</time></trkpt><trkpt lat="42.35208005354601" lon="8.650610177693622"><ele>311.5</ele><time>2026-05-01T14:09:50.999Z</time></trkpt><trkpt lat="42.35212429516152" lon="8.65078755756927"><ele>311.25</ele><time>2026-05-01T14:09:51.999Z</time></trkpt><trkpt lat="42.352199985526035" lon="8.650945427947708"><ele>311.0</ele><time>2026-05-01T14:09:52.999Z</time></trkpt><trkpt lat="42.35232675820802" lon="8.651065237386687"><ele>301.33333333333337</ele><time>2026-05-01T14:09:53.999Z</time></trkpt><trkpt lat="42.35249032615719" lon="8.651165336834724"><ele>291.6666666666667</ele><time>2026-05-01T14:09:54.999Z</time></trkpt><trkpt lat="42.35269076790292" lon="8.651275315155925"><ele>282.0</ele><time>2026-05-01T14:09:55.999Z</time></trkpt><trkpt lat="42.35288732553085" lon="8.65138849566018"><ele>290.25</ele><time>2026-05-01T14:09:56.999Z</time></trkpt><trkpt lat="42.3530447737198" lon="8.651490512080132"><ele>298.5</ele><time>2026-05-01T14:09:57.999Z</time></trkpt><trkpt lat="42.3531375540456" lon="8.651604131935851"><ele>306.75</ele><time>2026-05-01T14:09:58.999Z</time></trkpt><trkpt lat="42.35318135608747" lon="8.651722891977416"><ele>315.0</ele><time>2026-05-01T14:09:59.999Z</time></trkpt><trkpt lat="42.353160879518526" lon="8.65185570551464"><ele>316.3333333333333</ele><time>2026-05-01T14:10:00.999Z</time></trkpt><trkpt lat="42.35311447261124" lon="8.652043671270231"><ele>317.66666666666663</ele><time>2026-05-01T14:10:01.999Z</time></trkpt><trkpt lat="42.353030722779295" lon="8.652266042393926"><ele>319.0</ele><time>2026-05-01T14:10:02.999Z</time></trkpt><trkpt lat="42.3529270155445" lon="8.65248704178083"><ele>309.3333333333333</ele><time>2026-05-01T14:10:03.999Z</time></trkpt><trkpt lat="42.352863850510104" lon="8.652699534075088"><ele>299.6666666666667</ele><time>2026-05-01T14:10:04.999Z</time></trkpt><trkpt lat="42.35285114763244" lon="8.652908385138902"><ele>290.0</ele><time>2026-05-01T14:10:05.999Z</time></trkpt><trkpt lat="42.35286356169747" lon="8.653127264492062"><ele>290.0</ele><time>2026-05-01T14:10:06.999Z</time></trkpt><trkpt lat="42.35283927534574" lon="8.653280660594163"><ele>290.0</ele><time>2026-05-01T14:10:07.999Z</time></trkpt><trkpt lat="42.35279221877498" lon="8.653357820396582"><ele>290.0</ele><time>2026-05-01T14:10:08.999Z</time></trkpt><trkpt lat="42.35272717628333" lon="8.653388593003063"><ele>290.0</ele><time>2026-05-01T14:10:09.999Z</time></trkpt><trkpt lat="42.35263114978136" lon="8.65340551220696"><ele>290.0</ele><time>2026-05-01T14:10:10.999Z</time></trkpt><trkpt lat="42.35249405997601" lon="8.65341425451119"><ele>290.0</ele><time>2026-05-01T14:10:11.999Z</time></trkpt><trkpt lat="42.352330315100446" lon="8.65343743764763"><ele>290.0</ele><time>2026-05-01T14:10:12.999Z</time></trkpt><trkpt lat="42.35214598761326" lon="8.653476021182936"><ele>290.0</ele><time>2026-05-01T14:10:13.999Z</time></trkpt><trkpt lat="42.35196728356355" lon="8.653518559640032"><ele>290.75</ele><time>2026-05-01T14:10:14.999Z</time></trkpt><trkpt lat="42.35181653312023" lon="8.653554849210758"><ele>291.5</ele><time>2026-05-01T14:10:15.999Z</time></trkpt><trkpt lat="42.35170731582243" lon="8.653628310817767"><ele>292.25</ele><time>2026-05-01T14:10:16.999Z</time></trkpt><trkpt lat="42.35163666253605" lon="8.653761632727594"><ele>293.0</ele><time>2026-05-01T14:10:17.999Z</time></trkpt><trkpt lat="42.351591633922276" lon="8.653959570989041"><ele>293.0</ele><time>2026-05-01T14:10:18.999Z</time></trkpt><trkpt lat="42.35158198756003" lon="8.654194103250873"><ele>293.0</ele><time>2026-05-01T14:10:19.999Z</time></trkpt><trkpt lat="42.351556619955375" lon="8.654417166394193"><ele>293.0</ele><time>2026-05-01T14:10:20.999Z</time></trkpt><trkpt lat="42.35146745564872" lon="8.654580434373594"><ele>285.5</ele><time>2026-05-01T14:10:21.999Z</time></trkpt><trkpt lat="42.35134470601165" lon="8.654706992327327"><ele>278.0</ele><time>2026-05-01T14:10:22.999Z</time></trkpt><trkpt lat="42.35125094443759" lon="8.654836558205336"><ele>270.5</ele><time>2026-05-01T14:10:23.999Z</time></trkpt><trkpt lat="42.351220988290926" lon="8.654973215115254"><ele>263.0</ele><time>2026-05-01T14:10:24.999Z</time></trkpt><trkpt lat="42.351260481051085" lon="8.655108650441793"><ele>263.0</ele><time>2026-05-01T14:10:25.999Z</time></trkpt><trkpt lat="42.351349315913524" lon="8.655256589700377"><ele>263.0</ele><time>2026-05-01T14:10:26.999Z</time></trkpt><trkpt lat="42.351487187604405" lon="8.655407545036612"><ele>263.0</ele><time>2026-05-01T14:10:27.999Z</time></trkpt><trkpt lat="42.35163174813488" lon="8.65553774171496"><ele>263.33333333333337</ele><time>2026-05-01T14:10:28.999Z</time></trkpt><trkpt lat="42.35170824153357" lon="8.655689373627059"><ele>263.6666666666667</ele><time>2026-05-01T14:10:29.999Z</time></trkpt><trkpt lat="42.35171768568569" lon="8.655901753656055"><ele>264.0</ele><time>2026-05-01T14:10:30.999Z</time></trkpt><trkpt lat="42.35175135581447" lon="8.656153327208107"><ele>264.0</ele><time>2026-05-01T14:10:31.999Z</time></trkpt><trkpt lat="42.351832342899826" lon="8.656348927250095"><ele>264.0</ele><time>2026-05-01T14:10:32.999Z</time></trkpt><trkpt lat="42.351921084035574" lon="8.656481690890539"><ele>264.0</ele><time>2026-05-01T14:10:33.999Z</time></trkpt><trkpt lat="42.35199938093998" lon="8.656566298054685"><ele>264.0</ele><time>2026-05-01T14:10:34.999Z</time></trkpt><trkpt lat="42.352075011066326" lon="8.656601683938163"><ele>264.0</ele><time>2026-05-01T14:10:35.999Z</time></trkpt><trkpt lat="42.35217490273991" lon="8.65660590814275"><ele>264.0</ele><time>2026-05-01T14:10:36.999Z</time></trkpt><trkpt lat="42.35226819952081" lon="8.656646957329428"><ele>264.0</ele><time>2026-05-01T14:10:38Z</time></trkpt><trkpt lat="42.352344813325075" lon="8.656710769193909"><ele>264.0</ele><time>2026-05-01T14:10:39Z</time></trkpt><trkpt lat="42.35238002479282" lon="8.656820330499395"><ele>264.0</ele><time>2026-05-01T14:10:40Z</time></trkpt><trkpt lat="42.35235712110989" lon="8.65695535676683"><ele>259.75</ele><time>2026-05-01T14:10:41Z</time></trkpt><trkpt lat="42.35230169075059" lon="8.657117067332168"><ele>255.5</ele><time>2026-05-01T14:10:42Z</time></trkpt><trkpt lat="42.35221490762092" lon="8.657271699566273"><ele>251.25</ele><time>2026-05-01T14:10:43Z</time></trkpt><trkpt lat="42.35215442180365" lon="8.65741423152596"><ele>247.0</ele><time>2026-05-01T14:10:44Z</time></trkpt><trkpt lat="42.35215545528455" lon="8.657555601239808"><ele>257.66666666666663</ele><time>2026-05-01T14:10:45Z</time></trkpt><trkpt lat="42.35222235112631" lon="8.657713448184648"><ele>268.3333333333333</ele><time>2026-05-01T14:10:46Z</time></trkpt><trkpt lat="42.352335184867705" lon="8.657892486550828"><ele>279.0</ele><time>2026-05-01T14:10:47Z</time></trkpt><trkpt lat="42.352476737973376" lon="8.65808191930587"><ele>279.0</ele><time>2026-05-01T14:10:48Z</time></trkpt><trkpt lat="42.35260745115454" lon="8.658241071956585"><ele>279.0</ele><time>2026-05-01T14:10:49Z</time></trkpt><trkpt lat="42.35268612371938" lon="8.658393052941838"><ele>279.0</ele><time>2026-05-01T14:10:50Z</time></trkpt><trkpt lat="42.35270423121415" lon="8.658555960356836"><ele>279.0</ele><time>2026-05-01T14:10:51Z</time></trkpt><trkpt lat="42.35269075053793" lon="8.658707342510262"><ele>280.75</ele><time>2026-05-01T14:10:52Z</time></trkpt><trkpt lat="42.352721379450514" lon="8.65884317531185"><ele>282.5</ele><time>2026-05-01T14:10:53Z</time></trkpt><trkpt lat="42.35282314607471" lon="8.658956254430606"><ele>284.25</ele><time>2026-05-01T14:10:54Z</time></trkpt><trkpt lat="42.35296253715709" lon="8.659016814659143"><ele>286.0</ele><time>2026-05-01T14:10:55Z</time></trkpt><trkpt lat="42.35308439820765" lon="8.659062657632633"><ele>286.0</ele><time>2026-05-01T14:10:56Z</time></trkpt><trkpt lat="42.35315155324792" lon="8.65915805131651"><ele>286.0</ele><time>2026-05-01T14:10:57Z</time></trkpt><trkpt lat="42.353167436301355" lon="8.659287750090128"><ele>286.0</ele><time>2026-05-01T14:10:58Z</time></trkpt><trkpt lat="42.353152460856826" lon="8.659437765934443"><ele>286.0</ele><time>2026-05-01T14:10:59Z</time></trkpt><trkpt lat="42.353101529188066" lon="8.659574159542156"><ele>286.0</ele><time>2026-05-01T14:11:00Z</time></trkpt><trkpt lat="42.353006912145034" lon="8.659670299324887"><ele>286.66666666666663</ele><time>2026-05-01T14:11:01Z</time></trkpt><trkpt lat="42.352878071350816" lon="8.659762424817645"><ele>287.3333333333333</ele><time>2026-05-01T14:11:02Z</time></trkpt><trkpt lat="42.352720920846295" lon="8.659869605168684"><ele>288.0</ele><time>2026-05-01T14:11:03Z</time></trkpt><trkpt lat="42.35255787397404" lon="8.659949980463411"><ele>288.0</ele><time>2026-05-01T14:11:04Z</time></trkpt><trkpt lat="42.352380893948826" lon="8.659964637264169"><ele>288.0</ele><time>2026-05-01T14:11:05Z</time></trkpt><trkpt lat="42.352195354339074" lon="8.659911147036135"><ele>288.0</ele><time>2026-05-01T14:11:06Z</time></trkpt><trkpt lat="42.35200998267834" lon="8.659803792768901"><ele>287.6666666666667</ele><time>2026-05-01T14:11:07Z</time></trkpt><trkpt lat="42.35184155059886" lon="8.659676297696011"><ele>287.33333333333337</ele><time>2026-05-01T14:11:08Z</time></trkpt><trkpt lat="42.35170060909059" lon="8.659549153872408"><ele>287.0</ele><time>2026-05-01T14:11:09Z</time></trkpt><trkpt lat="42.35157974027903" lon="8.659448118786623"><ele>289.0</ele><time>2026-05-01T14:11:10Z</time></trkpt><trkpt lat="42.3514521645128" lon="8.659417578066822"><ele>291.0</ele><time>2026-05-01T14:11:11Z</time></trkpt><trkpt lat="42.3513192430538" lon="8.659484352243224"><ele>293.0</ele><time>2026-05-01T14:11:12Z</time></trkpt><trkpt lat="42.351171565953315" lon="8.659580819118235"><ele>295.0</ele><time>2026-05-01T14:11:13Z</time></trkpt><trkpt lat="42.35102213198137" lon="8.659594107045269"><ele>295.0</ele><time>2026-05-01T14:11:14Z</time></trkpt><trkpt lat="42.35084941650429" lon="8.659513158753603"><ele>295.0</ele><time>2026-05-01T14:11:15Z</time></trkpt><trkpt lat="42.350658865473406" lon="8.659388352403463"><ele>295.0</ele><time>2026-05-01T14:11:16Z</time></trkpt><trkpt lat="42.350460646847246" lon="8.659300514891159"><ele>288.66666666666663</ele><time>2026-05-01T14:11:17Z</time></trkpt><trkpt lat="42.35028434431523" lon="8.659246100541077"><ele>282.3333333333333</ele><time>2026-05-01T14:11:18Z</time></trkpt><trkpt lat="42.350144273941034" lon="8.65915521532066"><ele>276.0</ele><time>2026-05-01T14:11:19Z</time></trkpt><trkpt lat="42.35003963176981" lon="8.65900620113873"><ele>276.0</ele><time>2026-05-01T14:11:20Z</time></trkpt><trkpt lat="42.34996401836226" lon="8.658827483672466"><ele>276.0</ele><time>2026-05-01T14:11:21Z</time></trkpt><trkpt lat="42.34990971651884" lon="8.65863877486424"><ele>276.0</ele><time>2026-05-01T14:11:22Z</time></trkpt><trkpt lat="42.349823796267025" lon="8.658505998330016"><ele>276.0</ele><time>2026-05-01T14:11:23Z</time></trkpt><trkpt lat="42.349695052626004" lon="8.658456710399633"><ele>274.6666666666667</ele><time>2026-05-01T14:11:24Z</time></trkpt><trkpt lat="42.34953212029127" lon="8.658480158367679"><ele>273.33333333333337</ele><time>2026-05-01T14:11:25Z</time></trkpt><trkpt lat="42.34936778473678" lon="8.658579610461254"><ele>272.0</ele><time>2026-05-01T14:11:26Z</time></trkpt><trkpt lat="42.349217774832724" lon="8.658687141677284"><ele>272.0</ele><time>2026-05-01T14:11:27Z</time></trkpt><trkpt lat="42.34908852586225" lon="8.658711675422168"><ele>272.0</ele><time>2026-05-01T14:11:28Z</time></trkpt><trkpt lat="42.34896559222089" lon="8.658640942438689"><ele>272.0</ele><time>2026-05-01T14:11:29Z</time></trkpt><trkpt lat="42.348860727743904" lon="8.658546262557364"><ele>272.0</ele><time>2026-05-01T14:11:30Z</time></trkpt><trkpt lat="42.34875863603493" lon="8.658549505623334"><ele>262.5</ele><time>2026-05-01T14:11:31Z</time></trkpt><trkpt lat="42.34868991603939" lon="8.658643985586544"><ele>253.0</ele><time>2026-05-01T14:11:32Z</time></trkpt><trkpt lat="42.34867199866745" lon="8.65879591358402"><ele>243.5</ele><time>2026-05-01T14:11:33Z</time></trkpt><trkpt lat="42.34871053708792" lon="8.658986369618079"><ele>234.0</ele><time>2026-05-01T14:11:34Z</time></trkpt><trkpt lat="42.34880778370808" lon="8.65918822105626"><ele>246.66666666666669</ele><time>2026-05-01T14:11:35Z</time></trkpt><trkpt lat="42.34889342330606" lon="8.65940986345431"><ele>259.33333333333337</ele><time>2026-05-01T14:11:36Z</time></trkpt><trkpt lat="42.3489321149036" lon="8.659610695040351"><ele>272.0</ele><time>2026-05-01T14:11:36.999Z</time></trkpt><trkpt lat="42.34891062061734" lon="8.659789836119009"><ele>261.0</ele><time>2026-05-01T14:11:37.999Z</time></trkpt><trkpt lat="42.34883946297897" lon="8.659956586158561"><ele>250.0</ele><time>2026-05-01T14:11:38.999Z</time></trkpt><trkpt lat="42.34876160144964" lon="8.660132750502283"><ele>239.0</ele><time>2026-05-01T14:11:39.999Z</time></trkpt><trkpt lat="42.348713650073925" lon="8.6603178720723"><ele>228.0</ele><time>2026-05-01T14:11:40.999Z</time></trkpt><trkpt lat="42.34869809514673" lon="8.660533349388556"><ele>227.0</ele><time>2026-05-01T14:11:41.999Z</time></trkpt><trkpt lat="42.34873527592779" lon="8.660762673182916"><ele>226.0</ele><time>2026-05-01T14:11:42.999Z</time></trkpt><trkpt lat="42.34882523685542" lon="8.660975592652893"><ele>225.0</ele><time>2026-05-01T14:11:43.999Z</time></trkpt><trkpt lat="42.34893231275121" lon="8.661142997179265"><ele>225.75</ele><time>2026-05-01T14:11:44.999Z</time></trkpt><trkpt lat="42.3489846002578" lon="8.66130174984138"><ele>226.5</ele><time>2026-05-01T14:11:45.999Z</time></trkpt><trkpt lat="42.348961639097524" lon="8.661457883033984"><ele>227.25</ele><time>2026-05-01T14:11:46.999Z</time></trkpt><trkpt lat="42.34887931490818" lon="8.66162427023558"><ele>228.0</ele><time>2026-05-01T14:11:47.999Z</time></trkpt><trkpt lat="42.3487773215135" lon="8.661788960602715"><ele>224.75</ele><time>2026-05-01T14:11:48.999Z</time></trkpt><trkpt lat="42.34872325611416" lon="8.661952441333733"><ele>221.5</ele><time>2026-05-01T14:11:49.999Z</time></trkpt><trkpt lat="42.34872005563308" lon="8.662111884804979"><ele>218.25</ele><time>2026-05-01T14:11:50.999Z</time></trkpt><trkpt lat="42.348778169213624" lon="8.662261801669837"><ele>215.0</ele><time>2026-05-01T14:11:51.999Z</time></trkpt><trkpt lat="42.34888581387785" lon="8.662414904962256"><ele>223.33333333333334</ele><time>2026-05-01T14:11:52.999Z</time></trkpt><trkpt lat="42.34902714217957" lon="8.66257438292818"><ele>231.66666666666669</ele><time>2026-05-01T14:11:53.999Z</time></trkpt><trkpt lat="42.34916701560199" lon="8.66279381464312"><ele>240.0</ele><time>2026-05-01T14:11:54.999Z</time></trkpt><trkpt lat="42.34928019362863" lon="8.66298670599218"><ele>240.0</ele><time>2026-05-01T14:11:55.999Z</time></trkpt><trkpt lat="42.34933692324591" lon="8.663148145572936"><ele>240.0</ele><time>2026-05-01T14:11:56.999Z</time></trkpt><trkpt lat="42.34934066756672" lon="8.663278632203468"><ele>240.0</ele><time>2026-05-01T14:11:57.999Z</time></trkpt><trkpt lat="42.34927735289434" lon="8.663416789707464"><ele>240.0</ele><time>2026-05-01T14:11:58.999Z</time></trkpt><trkpt lat="42.34917770827679" lon="8.663598277666107"><ele>240.33333333333331</ele><time>2026-05-01T14:11:59.999Z</time></trkpt><trkpt lat="42.3490669216858" lon="8.663790099608844"><ele>240.66666666666666</ele><time>2026-05-01T14:12:00.999Z</time></trkpt><trkpt lat="42.34899403492063" lon="8.663980571252644"><ele>241.0</ele><time>2026-05-01T14:12:01.999Z</time></trkpt><trkpt lat="42.34895935977514" lon="8.664187539564162"><ele>241.0</ele><time>2026-05-01T14:12:02.999Z</time></trkpt><trkpt lat="42.348970294797105" lon="8.664374850334438"><ele>241.0</ele><time>2026-05-01T14:12:03.999Z</time></trkpt><trkpt lat="42.34904697895803" lon="8.664525386167561"><ele>241.0</ele><time>2026-05-01T14:12:04.999Z</time></trkpt><trkpt lat="42.349141647066894" lon="8.664701359331614"><ele>241.0</ele><time>2026-05-01T14:12:05.999Z</time></trkpt><trkpt lat="42.349214439583676" lon="8.66485347544534"><ele>239.75</ele><time>2026-05-01T14:12:06.999Z</time></trkpt><trkpt lat="42.34922361087155" lon="8.665036377570628"><ele>238.5</ele><time>2026-05-01T14:12:07.999Z</time></trkpt><trkpt lat="42.34916535057195" lon="8.665208043799204"><ele>237.25</ele><time>2026-05-01T14:12:08.999Z</time></trkpt><trkpt lat="42.349068850508466" lon="8.665336906184029"><ele>236.0</ele><time>2026-05-01T14:12:09.999Z</time></trkpt><trkpt lat="42.348943213437394" lon="8.66540547634407"><ele>237.66666666666669</ele><time>2026-05-01T14:12:10.999Z</time></trkpt><trkpt lat="42.34879692382887" lon="8.665406454860555"><ele>239.33333333333331</ele><time>2026-05-01T14:12:11.999Z</time></trkpt><trkpt lat="42.3486285247381" lon="8.665355824619395"><ele>241.0</ele><time>2026-05-01T14:12:12.999Z</time></trkpt><trkpt lat="42.34847015574006" lon="8.665266558500539"><ele>241.0</ele><time>2026-05-01T14:12:13.999Z</time></trkpt><trkpt lat="42.348346330790754" lon="8.665099537946869"><ele>241.0</ele><time>2026-05-01T14:12:14.999Z</time></trkpt><trkpt lat="42.348251411061156" lon="8.664943754899529"><ele>241.0</ele><time>2026-05-01T14:12:15.999Z</time></trkpt><trkpt lat="42.3481805811135" lon="8.664745792064917"><ele>241.0</ele><time>2026-05-01T14:12:16.999Z</time></trkpt><trkpt lat="42.34812754146258" lon="8.664503666850592"><ele>241.0</ele><time>2026-05-01T14:12:17.999Z</time></trkpt><trkpt lat="42.34805661898713" lon="8.664263186273573"><ele>241.0</ele><time>2026-05-01T14:12:18.999Z</time></trkpt><trkpt lat="42.34795193246194" lon="8.664026972031229"><ele>247.0</ele><time>2026-05-01T14:12:19.999Z</time></trkpt><trkpt lat="42.34781050830966" lon="8.663789287796622"><ele>253.0</ele><time>2026-05-01T14:12:20.999Z</time></trkpt><trkpt lat="42.34764945084816" lon="8.663574179095816"><ele>257.3333333333333</ele><time>2026-05-01T14:12:21.999Z</time></trkpt><trkpt lat="42.34747118151143" lon="8.663441509637531"><ele>261.6666666666667</ele><time>2026-05-01T14:12:22.999Z</time></trkpt><trkpt lat="42.347298099890274" lon="8.663346737983204"><ele>266.0</ele><time>2026-05-01T14:12:23.999Z</time></trkpt><trkpt lat="42.34714731860582" lon="8.66324383513877"><ele>266.0</ele><time>2026-05-01T14:12:24.999Z</time></trkpt><trkpt lat="42.347035404341945" lon="8.663083069739331"><ele>266.0</ele><time>2026-05-01T14:12:25.999Z</time></trkpt><trkpt lat="42.34693007473948" lon="8.662882276085325"><ele>266.0</ele><time>2026-05-01T14:12:26.999Z</time></trkpt><trkpt lat="42.34677587782714" lon="8.662698353296014"><ele>254.66666666666669</ele><time>2026-05-01T14:12:27.999Z</time></trkpt><trkpt lat="42.34663276988863" lon="8.662495216496858"><ele>243.33333333333331</ele><time>2026-05-01T14:12:28.999Z</time></trkpt><trkpt lat="42.34651637767293" lon="8.662248529642497"><ele>232.0</ele><time>2026-05-01T14:12:29.999Z</time></trkpt><trkpt lat="42.34644331207665" lon="8.662002273932938"><ele>234.5</ele><time>2026-05-01T14:12:30.999Z</time></trkpt><trkpt lat="42.34638896636236" lon="8.661809307725248"><ele>237.0</ele><time>2026-05-01T14:12:31.999Z</time></trkpt><trkpt lat="42.34631731954333" lon="8.66169339769538"><ele>239.5</ele><time>2026-05-01T14:12:32.999Z</time></trkpt><trkpt lat="42.346193814051574" lon="8.661647160461852"><ele>242.0</ele><time>2026-05-01T14:12:33.999Z</time></trkpt><trkpt lat="42.346045448544714" lon="8.661678535862704"><ele>242.0</ele><time>2026-05-01T14:12:34.999Z</time></trkpt><trkpt lat="42.345877255711834" lon="8.661657789629936"><ele>242.0</ele><time>2026-05-01T14:12:35.999Z</time></trkpt><trkpt lat="42.345763372328435" lon="8.66153330623791"><ele>242.0</ele><time>2026-05-01T14:12:36.999Z</time></trkpt><trkpt lat="42.345663674363195" lon="8.661322745728997"><ele>237.33333333333334</ele><time>2026-05-01T14:12:37.999Z</time></trkpt><trkpt lat="42.34552199948757" lon="8.661089939199142"><ele>232.66666666666669</ele><time>2026-05-01T14:12:38.999Z</time></trkpt><trkpt lat="42.34536859372513" lon="8.660908230975881"><ele>228.0</ele><time>2026-05-01T14:12:39.999Z</time></trkpt><trkpt lat="42.34519603428616" lon="8.66073725610037"><ele>228.0</ele><time>2026-05-01T14:12:40.999Z</time></trkpt><trkpt lat="42.345035724537055" lon="8.66061090589061"><ele>228.0</ele><time>2026-05-01T14:12:41.998Z</time></trkpt><trkpt lat="42.344914455728464" lon="8.660552763909289"><ele>228.0</ele><time>2026-05-01T14:12:42.998Z</time></trkpt><trkpt lat="42.34483283528559" lon="8.660572940806876"><ele>228.0</ele><time>2026-05-01T14:12:44Z</time></trkpt><trkpt lat="42.344757847973796" lon="8.660663712065775"><ele>229.0</ele><time>2026-05-01T14:12:45Z</time></trkpt><trkpt lat="42.344704926261905" lon="8.660819305805322"><ele>230.0</ele><time>2026-05-01T14:12:46Z</time></trkpt><trkpt lat="42.34466046115732" lon="8.661027420608129"><ele>231.0</ele><time>2026-05-01T14:12:47Z</time></trkpt><trkpt lat="42.34457419376324" lon="8.661262441053083"><ele>231.0</ele><time>2026-05-01T14:12:48Z</time></trkpt><trkpt lat="42.34447894156039" lon="8.661524074632982"><ele>231.0</ele><time>2026-05-01T14:12:49Z</time></trkpt><trkpt lat="42.34438045670016" lon="8.661798604109952"><ele>231.0</ele><time>2026-05-01T14:12:50Z</time></trkpt><trkpt lat="42.34431961795226" lon="8.662072428909246"><ele>234.0</ele><time>2026-05-01T14:12:51Z</time></trkpt><trkpt lat="42.344261319241724" lon="8.662287266106645"><ele>237.0</ele><time>2026-05-01T14:12:52Z</time></trkpt><trkpt lat="42.34419486236121" lon="8.662438764590274"><ele>240.0</ele><time>2026-05-01T14:12:53Z</time></trkpt><trkpt lat="42.344118627046804" lon="8.662537747991456"><ele>243.0</ele><time>2026-05-01T14:12:54Z</time></trkpt><trkpt lat="42.34405121150022" lon="8.662592471198446"><ele>243.0</ele><time>2026-05-01T14:12:55Z</time></trkpt><trkpt lat="42.34398479563688" lon="8.662605845549244"><ele>243.0</ele><time>2026-05-01T14:12:56Z</time></trkpt><trkpt lat="42.34391789003528" lon="8.662592025257457"><ele>243.0</ele><time>2026-05-01T14:12:57Z</time></trkpt><trkpt lat="42.34384762972478" lon="8.662518196523289"><ele>243.0</ele><time>2026-05-01T14:12:58Z</time></trkpt><trkpt lat="42.34378353421282" lon="8.662426218231959"><ele>243.0</ele><time>2026-05-01T14:12:59Z</time></trkpt><trkpt lat="42.34373180680463" lon="8.662281146120824"><ele>243.0</ele><time>2026-05-01T14:13:00Z</time></trkpt><trkpt lat="42.34370227183321" lon="8.662076602440438"><ele>247.0</ele><time>2026-05-01T14:13:01Z</time></trkpt><trkpt lat="42.343655894444126" lon="8.661832815766598"><ele>251.0</ele><time>2026-05-01T14:13:02Z</time></trkpt><trkpt lat="42.34360955752297" lon="8.661572639853064"><ele>255.0</ele><time>2026-05-01T14:13:03Z</time></trkpt><trkpt lat="42.34355847786089" lon="8.661288090881046"><ele>251.5</ele><time>2026-05-01T14:13:04Z</time></trkpt><trkpt lat="42.34353152726749" lon="8.6609842317811"><ele>248.0</ele><time>2026-05-01T14:13:05Z</time></trkpt><trkpt lat="42.343529983191935" lon="8.660654507770104"><ele>248.0</ele><time>2026-05-01T14:13:06Z</time></trkpt><trkpt lat="42.34355112337341" lon="8.660324631402055"><ele>248.0</ele><time>2026-05-01T14:13:07Z</time></trkpt><trkpt lat="42.343590275416744" lon="8.65999082305001"><ele>246.33333333333334</ele><time>2026-05-01T14:13:08Z</time></trkpt><trkpt lat="42.34363309723387" lon="8.65969442915135"><ele>244.66666666666669</ele><time>2026-05-01T14:13:09Z</time></trkpt><trkpt lat="42.34365928331215" lon="8.659442186912875"><ele>243.0</ele><time>2026-05-01T14:13:10Z</time></trkpt><trkpt lat="42.34365734311767" lon="8.659232127950172"><ele>239.8</ele><time>2026-05-01T14:13:11Z</time></trkpt><trkpt lat="42.343631849707876" lon="8.659071371456283"><ele>236.60000000000002</ele><time>2026-05-01T14:13:12Z</time></trkpt><trkpt lat="42.343565191102876" lon="8.658963712584356"><ele>233.39999999999998</ele><time>2026-05-01T14:13:13Z</time></trkpt><trkpt lat="42.34346161646746" lon="8.658919295469936"><ele>230.2</ele><time>2026-05-01T14:13:14Z</time></trkpt><trkpt lat="42.34335484408585" lon="8.658952244722252"><ele>227.0</ele><time>2026-05-01T14:13:15Z</time></trkpt><trkpt lat="42.34324442526654" lon="8.65904913434952"><ele>227.0</ele><time>2026-05-01T14:13:16Z</time></trkpt><trkpt lat="42.343150681101264" lon="8.659207094452029"><ele>227.0</ele><time>2026-05-01T14:13:17Z</time></trkpt><trkpt lat="42.3430490475384" lon="8.659369575896923"><ele>227.0</ele><time>2026-05-01T14:13:18Z</time></trkpt><trkpt lat="42.34292199489149" lon="8.659505408290467"><ele>233.33333333333334</ele><time>2026-05-01T14:13:19Z</time></trkpt><trkpt lat="42.34276276062996" lon="8.659605815727238"><ele>239.66666666666669</ele><time>2026-05-01T14:13:20Z</time></trkpt><trkpt lat="42.34256711091351" lon="8.659659847435657"><ele>246.0</ele><time>2026-05-01T14:13:21Z</time></trkpt><trkpt lat="42.34236283118368" lon="8.659658747305036"><ele>243.0</ele><time>2026-05-01T14:13:22Z</time></trkpt><trkpt lat="42.342166308859454" lon="8.659662254731819"><ele>240.0</ele><time>2026-05-01T14:13:23Z</time></trkpt><trkpt lat="42.34199294239438" lon="8.659694474995609"><ele>237.0</ele><time>2026-05-01T14:13:24Z</time></trkpt><trkpt lat="42.34183555462204" lon="8.659749188055857"><ele>237.0</ele><time>2026-05-01T14:13:25Z</time></trkpt><trkpt lat="42.34169522446152" lon="8.659804635479523"><ele>237.0</ele><time>2026-05-01T14:13:26Z</time></trkpt><trkpt lat="42.341557895873734" lon="8.659848364009981"><ele>237.0</ele><time>2026-05-01T14:13:27Z</time></trkpt><trkpt lat="42.341432666173965" lon="8.659870205676368"><ele>237.0</ele><time>2026-05-01T14:13:27.999Z</time></trkpt><trkpt lat="42.34132366543001" lon="8.659888365966513"><ele>237.0</ele><time>2026-05-01T14:13:28.999Z</time></trkpt><trkpt lat="42.3412511750968" lon="8.659907312901336"><ele>237.0</ele><time>2026-05-01T14:13:29.999Z</time></trkpt><trkpt lat="42.34118107914211" lon="8.659992559838246"><ele>237.0</ele><time>2026-05-01T14:13:31.999Z</time></trkpt><trkpt lat="42.341141185575125" lon="8.660100104178058"><ele>237.0</ele><time>2026-05-01T14:13:33.999Z</time></trkpt><trkpt lat="42.3410945922124" lon="8.660251339931804"><ele>237.0</ele><time>2026-05-01T14:13:35.999Z</time></trkpt><trkpt lat="42.341067056050775" lon="8.660337124795587"><ele>237.0</ele><time>2026-05-01T14:13:36.999Z</time></trkpt><trkpt lat="42.34099381036052" lon="8.660358644086543"><ele>237.0</ele><time>2026-05-01T14:13:49.999Z</time></trkpt><trkpt lat="42.34094409916321" lon="8.660304729826581"><ele>237.0</ele><time>2026-05-01T14:13:53.999Z</time></trkpt><trkpt lat="42.341008659196675" lon="8.660361579012726"><ele>237.0</ele><time>2026-05-01T14:15:17.999Z</time></trkpt><trkpt lat="42.3409211572146" lon="8.660338805153286"><ele>237.0</ele><time>2026-05-01T14:15:36.999Z</time></trkpt><trkpt lat="42.340848282157445" lon="8.660311966759082"><ele>237.0</ele><time>2026-05-01T14:15:37.999Z</time></trkpt><trkpt lat="42.34076573384315" lon="8.66024641365117"><ele>237.0</ele><time>2026-05-01T14:15:38.999Z</time></trkpt><trkpt lat="42.34068971921543" lon="8.660130117405176"><ele>237.0</ele><time>2026-05-01T14:15:39.999Z</time></trkpt><trkpt lat="42.340649130506364" lon="8.65997942742089"><ele>237.0</ele><time>2026-05-01T14:15:40.999Z</time></trkpt><trkpt lat="42.34063733085907" lon="8.659808239595142"><ele>237.0</ele><time>2026-05-01T14:15:41.999Z</time></trkpt><trkpt lat="42.34061995351858" lon="8.659619482380629"><ele>237.0</ele><time>2026-05-01T14:15:42.999Z</time></trkpt><trkpt lat="42.34059350691834" lon="8.659426810972688"><ele>234.0</ele><time>2026-05-01T14:15:43.999Z</time></trkpt><trkpt lat="42.340573029887544" lon="8.659261389550831"><ele>231.0</ele><time>2026-05-01T14:15:44.999Z</time></trkpt><trkpt lat="42.340629688493365" lon="8.659092057987943"><ele>228.0</ele><time>2026-05-01T14:15:45.999Z</time></trkpt><trkpt lat="42.34071371730863" lon="8.658933611979316"><ele>225.0</ele><time>2026-05-01T14:15:46.999Z</time></trkpt><trkpt lat="42.3407899320143" lon="8.658763765987999"><ele>228.5</ele><time>2026-05-01T14:15:47.999Z</time></trkpt><trkpt lat="42.34085215778236" lon="8.658582074366091"><ele>232.0</ele><time>2026-05-01T14:15:48.999Z</time></trkpt><trkpt lat="42.34091849494576" lon="8.658404412428837"><ele>235.5</ele><time>2026-05-01T14:15:49.999Z</time></trkpt><trkpt lat="42.340990210368155" lon="8.658258874252123"><ele>239.0</ele><time>2026-05-01T14:15:50.999Z</time></trkpt><trkpt lat="42.34105166862243" lon="8.658128448437562"><ele>239.0</ele><time>2026-05-01T14:15:51.999Z</time></trkpt><trkpt lat="42.34108468098856" lon="8.657990511139184"><ele>238.99999999999997</ele><time>2026-05-01T14:15:52.999Z</time></trkpt><trkpt lat="42.34107008138648" lon="8.657857467060495"><ele>238.99999999999997</ele><time>2026-05-01T14:15:53.999Z</time></trkpt><trkpt lat="42.34103003227589" lon="8.657742087630771"><ele>239.0</ele><time>2026-05-01T14:15:54.999Z</time></trkpt><trkpt lat="42.34098880170945" lon="8.657634535101126"><ele>239.0</ele><time>2026-05-01T14:15:56.999Z</time></trkpt><trkpt lat="42.340959151654936" lon="8.657493966159368"><ele>239.00000000000003</ele><time>2026-05-01T14:15:59.999Z</time></trkpt><trkpt lat="42.34094210509693" lon="8.657404887641405"><ele>239.0</ele><time>2026-05-01T14:16:00.999Z</time></trkpt><trkpt lat="42.34092333123744" lon="8.657298817584527"><ele>239.0</ele><time>2026-05-01T14:16:01.999Z</time></trkpt><trkpt lat="42.34090053924445" lon="8.657179118657425"><ele>239.0</ele><time>2026-05-01T14:16:02.999Z</time></trkpt><trkpt lat="42.34087474387018" lon="8.657064263136045"><ele>239.00000000000003</ele><time>2026-05-01T14:16:03.999Z</time></trkpt><trkpt lat="42.340849485374385" lon="8.656983499881294"><ele>239.0</ele><time>2026-05-01T14:16:04.999Z</time></trkpt><trkpt lat="42.34080499929695" lon="8.656878844825167"><ele>240.2</ele><time>2026-05-01T14:16:06.999Z</time></trkpt><trkpt lat="42.34071252931815" lon="8.656742111279636"><ele>241.39999999999998</ele><time>2026-05-01T14:16:08.999Z</time></trkpt><trkpt lat="42.340641332619086" lon="8.65667485287239"><ele>242.6</ele><time>2026-05-01T14:16:09.999Z</time></trkpt><trkpt lat="42.34056054507553" lon="8.656622298006633"><ele>243.8</ele><time>2026-05-01T14:16:10.999Z</time></trkpt><trkpt lat="42.34048988403214" lon="8.6566003247521"><ele>245.0</ele><time>2026-05-01T14:16:11.999Z</time></trkpt><trkpt lat="42.34042411703829" lon="8.656591573079512"><ele>245.00000000000003</ele><time>2026-05-01T14:16:12.999Z</time></trkpt><trkpt lat="42.34030360532094" lon="8.656583225120817"><ele>245.0</ele><time>2026-05-01T14:16:14.999Z</time></trkpt><trkpt lat="42.340224199721355" lon="8.65657914739432"><ele>245.0</ele><time>2026-05-01T14:16:15.999Z</time></trkpt><trkpt lat="42.34014488506864" lon="8.656575812919971"><ele>245.0</ele><time>2026-05-01T14:16:16.999Z</time></trkpt><trkpt lat="42.34006503029587" lon="8.656564704094313"><ele>245.00000000000003</ele><time>2026-05-01T14:16:17.999Z</time></trkpt><trkpt lat="42.33998725887803" lon="8.65655380496147"><ele>245.0</ele><time>2026-05-01T14:16:18.999Z</time></trkpt><trkpt lat="42.339902781198475" lon="8.65652695922963"><ele>245.00000000000003</ele><time>2026-05-01T14:16:19.999Z</time></trkpt><trkpt lat="42.3398258063877" lon="8.656471751297117"><ele>245.0</ele><time>2026-05-01T14:16:20.999Z</time></trkpt><trkpt lat="42.33977377681669" lon="8.656374287453387"><ele>245.0</ele><time>2026-05-01T14:16:21.999Z</time></trkpt><trkpt lat="42.33974547532715" lon="8.656258041096892"><ele>245.0</ele><time>2026-05-01T14:16:22.999Z</time></trkpt><trkpt lat="42.33972414348726" lon="8.656137822430649"><ele>245.00000000000003</ele><time>2026-05-01T14:16:23.999Z</time></trkpt><trkpt lat="42.339697023288366" lon="8.65602755699634"><ele>245.0</ele><time>2026-05-01T14:16:24.999Z</time></trkpt><trkpt lat="42.33966637179451" lon="8.655905191965626"><ele>244.6</ele><time>2026-05-01T14:16:25.998Z</time></trkpt><trkpt lat="42.33964535392838" lon="8.655779374191066"><ele>244.2</ele><time>2026-05-01T14:16:26.998Z</time></trkpt><trkpt lat="42.339637596948" lon="8.655647172425178"><ele>243.8</ele><time>2026-05-01T14:16:27.998Z</time></trkpt><trkpt lat="42.339639138910464" lon="8.655511650510405"><ele>243.4</ele><time>2026-05-01T14:16:28.998Z</time></trkpt><trkpt lat="42.33964546896625" lon="8.655374817713616"><ele>243.0</ele><time>2026-05-01T14:16:29.998Z</time></trkpt><trkpt lat="42.339645957955405" lon="8.655242681724415"><ele>243.0</ele><time>2026-05-01T14:16:30.998Z</time></trkpt><trkpt lat="42.339638134822124" lon="8.655105083447122"><ele>243.0</ele><time>2026-05-01T14:16:31.998Z</time></trkpt><trkpt lat="42.339610239100026" lon="8.65496652928636"><ele>243.0</ele><time>2026-05-01T14:16:32.998Z</time></trkpt><trkpt lat="42.33955930123851" lon="8.654853511672174"><ele>243.0</ele><time>2026-05-01T14:16:33.998Z</time></trkpt><trkpt lat="42.33950920213945" lon="8.654786909904912"><ele>243.0</ele><time>2026-05-01T14:16:34.998Z</time></trkpt><trkpt lat="42.33942490142509" lon="8.654724694876718"><ele>243.0</ele><time>2026-05-01T14:16:37.998Z</time></trkpt><trkpt lat="42.33936138195956" lon="8.654692873630509"><ele>243.0</ele><time>2026-05-01T14:16:39.998Z</time></trkpt><trkpt lat="42.3392995509754" lon="8.65466673829105"><ele>243.0</ele><time>2026-05-01T14:16:41.998Z</time></trkpt><trkpt lat="42.33923255327164" lon="8.654664044456226"><ele>243.0</ele><time>2026-05-01T14:16:43.998Z</time></trkpt><trkpt lat="42.33914098420975" lon="8.654666116146357"><ele>243.0</ele><time>2026-05-01T14:16:45.998Z</time></trkpt><trkpt lat="42.33903689095914" lon="8.654686201907213"><ele>243.0</ele><time>2026-05-01T14:16:47.998Z</time></trkpt><trkpt lat="42.33893329080507" lon="8.654710943906705"><ele>245.4</ele><time>2026-05-01T14:16:49.998Z</time></trkpt><trkpt lat="42.338817368093196" lon="8.654729373789154"><ele>247.8</ele><time>2026-05-01T14:16:51.998Z</time></trkpt><trkpt lat="42.33869715559948" lon="8.654711793977917"><ele>250.2</ele><time>2026-05-01T14:16:53.998Z</time></trkpt><trkpt lat="42.33863060098717" lon="8.654681903829058"><ele>252.6</ele><time>2026-05-01T14:16:54.998Z</time></trkpt><trkpt lat="42.338557993303674" lon="8.65463524716864"><ele>255.0</ele><time>2026-05-01T14:16:55.999Z</time></trkpt><trkpt lat="42.33848196487268" lon="8.6545656887064"><ele>255.0</ele><time>2026-05-01T14:16:56.999Z</time></trkpt><trkpt lat="42.33842030746189" lon="8.654459488130922"><ele>255.0</ele><time>2026-05-01T14:16:57.999Z</time></trkpt><trkpt lat="42.338375434987356" lon="8.654338661440807"><ele>255.0</ele><time>2026-05-01T14:16:58.999Z</time></trkpt><trkpt lat="42.33834576966546" lon="8.654191186345866"><ele>255.0</ele><time>2026-05-01T14:16:59.999Z</time></trkpt><trkpt lat="42.33831507143003" lon="8.65403616334049"><ele>255.0</ele><time>2026-05-01T14:17:00.999Z</time></trkpt><trkpt lat="42.338258535982575" lon="8.653887653608347"><ele>255.5</ele><time>2026-05-01T14:17:01.999Z</time></trkpt><trkpt lat="42.338162819879486" lon="8.653755107069346"><ele>256.0</ele><time>2026-05-01T14:17:02.999Z</time></trkpt><trkpt lat="42.3380415501191" lon="8.653630510052793"><ele>256.5</ele><time>2026-05-01T14:17:03.999Z</time></trkpt><trkpt lat="42.33792076748741" lon="8.653502776292735"><ele>257.0</ele><time>2026-05-01T14:17:04.999Z</time></trkpt><trkpt lat="42.33781056484935" lon="8.65335983881768"><ele>257.0</ele><time>2026-05-01T14:17:05.999Z</time></trkpt><trkpt lat="42.337727977493934" lon="8.65321356568054"><ele>257.0</ele><time>2026-05-01T14:17:06.999Z</time></trkpt><trkpt lat="42.337668027334075" lon="8.653037456661211"><ele>257.0</ele><time>2026-05-01T14:17:07.999Z</time></trkpt><trkpt lat="42.33764295117764" lon="8.652845556389243"><ele>257.0</ele><time>2026-05-01T14:17:08.999Z</time></trkpt><trkpt lat="42.33765215176084" lon="8.65264095514292"><ele>253.75</ele><time>2026-05-01T14:17:09.999Z</time></trkpt><trkpt lat="42.33768778352724" lon="8.652452723379893"><ele>250.5</ele><time>2026-05-01T14:17:10.999Z</time></trkpt><trkpt lat="42.33771399594061" lon="8.652270582029884"><ele>247.25</ele><time>2026-05-01T14:17:11.999Z</time></trkpt><trkpt lat="42.33770728071721" lon="8.65208830658535"><ele>244.0</ele><time>2026-05-01T14:17:12.999Z</time></trkpt><trkpt lat="42.33765164799807" lon="8.651919808191629"><ele>244.75</ele><time>2026-05-01T14:17:13.999Z</time></trkpt><trkpt lat="42.33755772839055" lon="8.651784436020613"><ele>245.5</ele><time>2026-05-01T14:17:14.999Z</time></trkpt><trkpt lat="42.33744069871231" lon="8.651687457852782"><ele>246.25</ele><time>2026-05-01T14:17:15.999Z</time></trkpt><trkpt lat="42.33730610937343" lon="8.651655648395582"><ele>247.0</ele><time>2026-05-01T14:17:16.999Z</time></trkpt><trkpt lat="42.3371657354173" lon="8.651677964146051"><ele>247.0</ele><time>2026-05-01T14:17:17.999Z</time></trkpt><trkpt lat="42.33702305348936" lon="8.651705192809022"><ele>247.0</ele><time>2026-05-01T14:17:18.999Z</time></trkpt><trkpt lat="42.33688418891949" lon="8.651705381430437"><ele>247.0</ele><time>2026-05-01T14:17:19.999Z</time></trkpt><trkpt lat="42.336746611870616" lon="8.651670717348276"><ele>247.0</ele><time>2026-05-01T14:17:20.999Z</time></trkpt><trkpt lat="42.33662411211829" lon="8.651594684762498"><ele>247.0</ele><time>2026-05-01T14:17:21.999Z</time></trkpt><trkpt lat="42.336525846573494" lon="8.651474601245944"><ele>247.0</ele><time>2026-05-01T14:17:22.999Z</time></trkpt><trkpt lat="42.33645192345397" lon="8.651329164376087"><ele>247.0</ele><time>2026-05-01T14:17:23.999Z</time></trkpt><trkpt lat="42.33638123498171" lon="8.651212867867196"><ele>247.0</ele><time>2026-05-01T14:17:24.999Z</time></trkpt><trkpt lat="42.3362882159281" lon="8.651136066617932"><ele>243.5</ele><time>2026-05-01T14:17:25.999Z</time></trkpt><trkpt lat="42.33616776767781" lon="8.651117952567159"><ele>240.0</ele><time>2026-05-01T14:17:26.999Z</time></trkpt><trkpt lat="42.33603897671239" lon="8.651119528185696"><ele>236.5</ele><time>2026-05-01T14:17:27.999Z</time></trkpt><trkpt lat="42.33590862058896" lon="8.651121392098608"><ele>233.0</ele><time>2026-05-01T14:17:28.999Z</time></trkpt><trkpt lat="42.33577455235749" lon="8.65111508856147"><ele>233.0</ele><time>2026-05-01T14:17:29.999Z</time></trkpt><trkpt lat="42.33564054421905" lon="8.65110012495103"><ele>233.0</ele><time>2026-05-01T14:17:30.999Z</time></trkpt><trkpt lat="42.3355170348801" lon="8.651083349700302"><ele>233.0</ele><time>2026-05-01T14:17:31.999Z</time></trkpt><trkpt lat="42.33540891369106" lon="8.651040364201549"><ele>233.0</ele><time>2026-05-01T14:17:32.999Z</time></trkpt><trkpt lat="42.33533328496004" lon="8.650959555668127"><ele>238.60000000000002</ele><time>2026-05-01T14:17:33.999Z</time></trkpt><trkpt lat="42.33528983375559" lon="8.65083907922705"><ele>244.20000000000002</ele><time>2026-05-01T14:17:34.999Z</time></trkpt><trkpt lat="42.33527360958577" lon="8.650690997150175"><ele>249.8</ele><time>2026-05-01T14:17:35.999Z</time></trkpt><trkpt lat="42.33529114879787" lon="8.650534973451386"><ele>255.4</ele><time>2026-05-01T14:17:36.999Z</time></trkpt><trkpt lat="42.33532376253651" lon="8.65038321773565"><ele>261.0</ele><time>2026-05-01T14:17:37.999Z</time></trkpt><trkpt lat="42.33532637786002" lon="8.650230630824247"><ele>261.0</ele><time>2026-05-01T14:17:38.999Z</time></trkpt><trkpt lat="42.33526576880098" lon="8.650096252092057"><ele>261.0</ele><time>2026-05-01T14:17:39.999Z</time></trkpt><trkpt lat="42.33519155624256" lon="8.649957716852544"><ele>261.0</ele><time>2026-05-01T14:17:40.999Z</time></trkpt><trkpt lat="42.335155867484964" lon="8.649803580795883"><ele>261.0</ele><time>2026-05-01T14:17:41.999Z</time></trkpt><trkpt lat="42.33517933411596" lon="8.649657911804335"><ele>261.0</ele><time>2026-05-01T14:17:42.999Z</time></trkpt><trkpt lat="42.33524656117095" lon="8.649548735714184"><ele>261.0</ele><time>2026-05-01T14:17:43.999Z</time></trkpt><trkpt lat="42.33534073439575" lon="8.649463495701196"><ele>261.0</ele><time>2026-05-01T14:17:44.999Z</time></trkpt><trkpt lat="42.33543307651767" lon="8.649369219013735"><ele>261.0</ele><time>2026-05-01T14:17:45.999Z</time></trkpt><trkpt lat="42.335517249729165" lon="8.649236836800043"><ele>255.0</ele><time>2026-05-01T14:17:46.999Z</time></trkpt><trkpt lat="42.3356073395818" lon="8.64910130939214"><ele>249.0</ele><time>2026-05-01T14:17:47.999Z</time></trkpt><trkpt lat="42.33572967544638" lon="8.649017461132075"><ele>243.0</ele><time>2026-05-01T14:17:48.999Z</time></trkpt><trkpt lat="42.33586994591901" lon="8.648983393045668"><ele>237.0</ele><time>2026-05-01T14:17:49.999Z</time></trkpt><trkpt lat="42.336001323791564" lon="8.648950931171573"><ele>237.0</ele><time>2026-05-01T14:17:50.999Z</time></trkpt><trkpt lat="42.33611770512062" lon="8.648868591066373"><ele>237.0</ele><time>2026-05-01T14:17:51.999Z</time></trkpt><trkpt lat="42.33620847837928" lon="8.648728955140488"><ele>237.0</ele><time>2026-05-01T14:17:52.999Z</time></trkpt><trkpt lat="42.33626797815805" lon="8.64856172220982"><ele>237.0</ele><time>2026-05-01T14:17:53.999Z</time></trkpt><trkpt lat="42.33629267582579" lon="8.648384219562487"><ele>243.5</ele><time>2026-05-01T14:17:54.999Z</time></trkpt><trkpt lat="42.33628511856236" lon="8.64819374679238"><ele>250.0</ele><time>2026-05-01T14:17:55.999Z</time></trkpt><trkpt lat="42.33627505642809" lon="8.648004487138742"><ele>256.5</ele><time>2026-05-01T14:17:56.999Z</time></trkpt><trkpt lat="42.336260240380064" lon="8.647822791796894"><ele>263.0</ele><time>2026-05-01T14:17:57.999Z</time></trkpt><trkpt lat="42.3362162142534" lon="8.64765559975252"><ele>263.0</ele><time>2026-05-01T14:17:58.999Z</time></trkpt><trkpt lat="42.336129893004276" lon="8.647511234023916"><ele>263.0</ele><time>2026-05-01T14:17:59.999Z</time></trkpt><trkpt lat="42.33602891635702" lon="8.64737284048557"><ele>263.0</ele><time>2026-05-01T14:18:00.999Z</time></trkpt><trkpt lat="42.33595704082784" lon="8.647207826909241"><ele>263.0</ele><time>2026-05-01T14:18:01.999Z</time></trkpt><trkpt lat="42.335936630713434" lon="8.647015700161127"><ele>261.75</ele><time>2026-05-01T14:18:02.999Z</time></trkpt><trkpt lat="42.33594097694668" lon="8.646814417522961"><ele>260.5</ele><time>2026-05-01T14:18:03.999Z</time></trkpt><trkpt lat="42.33593215403631" lon="8.64661653409515"><ele>259.25</ele><time>2026-05-01T14:18:04.999Z</time></trkpt><trkpt lat="42.33590151968499" lon="8.646436740489696"><ele>258.0</ele><time>2026-05-01T14:18:05.999Z</time></trkpt><trkpt lat="42.33591873098695" lon="8.646252532360917"><ele>256.0</ele><time>2026-05-01T14:18:06.999Z</time></trkpt><trkpt lat="42.335980278414354" lon="8.64608007715676"><ele>254.0</ele><time>2026-05-01T14:18:07.999Z</time></trkpt><trkpt lat="42.33602209375811" lon="8.645911645971442"><ele>252.0</ele><time>2026-05-01T14:18:08.999Z</time></trkpt><trkpt lat="42.336007665785765" lon="8.645752435582288"><ele>250.0</ele><time>2026-05-01T14:18:09.999Z</time></trkpt><trkpt lat="42.33593453251114" lon="8.645620319417961"><ele>250.0</ele><time>2026-05-01T14:18:10.999Z</time></trkpt><trkpt lat="42.33582762891961" lon="8.645524622867264"><ele>250.0</ele><time>2026-05-01T14:18:11.999Z</time></trkpt><trkpt lat="42.33570368305368" lon="8.64544063447883"><ele>250.0</ele><time>2026-05-01T14:18:12.999Z</time></trkpt><trkpt lat="42.335583739156384" lon="8.645331467417186"><ele>250.0</ele><time>2026-05-01T14:18:13.999Z</time></trkpt><trkpt lat="42.33547799233178" lon="8.64517969425372"><ele>257.3333333333333</ele><time>2026-05-01T14:18:14.999Z</time></trkpt><trkpt lat="42.33538688114346" lon="8.644999946704816"><ele>264.6666666666667</ele><time>2026-05-01T14:18:15.999Z</time></trkpt><trkpt lat="42.33529687092103" lon="8.644819562152101"><ele>272.0</ele><time>2026-05-01T14:18:16.999Z</time></trkpt><trkpt lat="42.33519752255701" lon="8.644642581336376"><ele>272.0</ele><time>2026-05-01T14:18:17.999Z</time></trkpt><trkpt lat="42.335104872707035" lon="8.644487426180799"><ele>272.0</ele><time>2026-05-01T14:18:18.999Z</time></trkpt><trkpt lat="42.3350046444912" lon="8.644359090252106"><ele>272.0</ele><time>2026-05-01T14:18:19.999Z</time></trkpt><trkpt lat="42.334899143995976" lon="8.644242764727556"><ele>272.0</ele><time>2026-05-01T14:18:20.999Z</time></trkpt><trkpt lat="42.33479681615466" lon="8.644133931475885"><ele>273.8</ele><time>2026-05-01T14:18:21.999Z</time></trkpt><trkpt lat="42.33470485175835" lon="8.644042661743166"><ele>275.6</ele><time>2026-05-01T14:18:22.999Z</time></trkpt><trkpt lat="42.33461413969384" lon="8.643976556404288"><ele>277.40000000000003</ele><time>2026-05-01T14:18:23.999Z</time></trkpt><trkpt lat="42.33452081742589" lon="8.643942104999642"><ele>279.2</ele><time>2026-05-01T14:18:24.999Z</time></trkpt><trkpt lat="42.33441542338025" lon="8.643923141630323"><ele>281.0</ele><time>2026-05-01T14:18:25.999Z</time></trkpt><trkpt lat="42.33432326244515" lon="8.6438787602404"><ele>281.0</ele><time>2026-05-01T14:18:26.999Z</time></trkpt><trkpt lat="42.334234307261255" lon="8.643808415099997"><ele>281.0</ele><time>2026-05-01T14:18:27.999Z</time></trkpt><trkpt lat="42.33416075161695" lon="8.643734905310929"><ele>281.0</ele><time>2026-05-01T14:18:28.999Z</time></trkpt><trkpt lat="42.33410649641405" lon="8.643678892233481"><ele>281.0</ele><time>2026-05-01T14:18:29.999Z</time></trkpt><trkpt lat="42.334039868906" lon="8.643579891220663"><ele>281.0</ele><time>2026-05-01T14:18:31.999Z</time></trkpt><trkpt lat="42.334016337307915" lon="8.643461519102154"><ele>280.6</ele><time>2026-05-01T14:18:33.999Z</time></trkpt><trkpt lat="42.33403815206623" lon="8.643290516926273"><ele>280.20000000000005</ele><time>2026-05-01T14:18:35.999Z</time></trkpt><trkpt lat="42.33407061531711" lon="8.643187053180455"><ele>279.79999999999995</ele><time>2026-05-01T14:18:36.999Z</time></trkpt><trkpt lat="42.3341076805902" lon="8.643074058497085"><ele>279.4</ele><time>2026-05-01T14:18:37.999Z</time></trkpt><trkpt lat="42.3341511083295" lon="8.642936187762068"><ele>279.0</ele><time>2026-05-01T14:18:38.999Z</time></trkpt><trkpt lat="42.33420009446063" lon="8.642788026356131"><ele>279.0</ele><time>2026-05-01T14:18:39.999Z</time></trkpt><trkpt lat="42.33427819869565" lon="8.642653291342635"><ele>279.0</ele><time>2026-05-01T14:18:40.999Z</time></trkpt><trkpt lat="42.334393585560285" lon="8.642551099921675"><ele>279.0</ele><time>2026-05-01T14:18:41.999Z</time></trkpt><trkpt lat="42.33450992262247" lon="8.642448416676734"><ele>279.0</ele><time>2026-05-01T14:18:42.999Z</time></trkpt><trkpt lat="42.33460122066425" lon="8.64233546766152"><ele>279.0</ele><time>2026-05-01T14:18:43.999Z</time></trkpt><trkpt lat="42.33468101027539" lon="8.64220477221261"><ele>279.0</ele><time>2026-05-01T14:18:44.999Z</time></trkpt><trkpt lat="42.33476898810359" lon="8.642081721543015"><ele>279.0</ele><time>2026-05-01T14:18:45.999Z</time></trkpt><trkpt lat="42.33487823428401" lon="8.642009764841687"><ele>279.0</ele><time>2026-05-01T14:18:46.999Z</time></trkpt><trkpt lat="42.33497798895425" lon="8.641949394436812"><ele>271.25</ele><time>2026-05-01T14:18:47.999Z</time></trkpt><trkpt lat="42.335045538100744" lon="8.641858402389705"><ele>263.5</ele><time>2026-05-01T14:18:48.999Z</time></trkpt><trkpt lat="42.3350878450671" lon="8.641710440455107"><ele>255.75</ele><time>2026-05-01T14:18:49.999Z</time></trkpt><trkpt lat="42.335109226861974" lon="8.641544515439945"><ele>248.0</ele><time>2026-05-01T14:18:50.999Z</time></trkpt><trkpt lat="42.335101775018636" lon="8.641367117672974"><ele>248.0</ele><time>2026-05-01T14:18:51.999Z</time></trkpt><trkpt lat="42.335064902935045" lon="8.641187883018972"><ele>248.0</ele><time>2026-05-01T14:18:52.999Z</time></trkpt><trkpt lat="42.33499045454103" lon="8.641014793749811"><ele>248.0</ele><time>2026-05-01T14:18:53.999Z</time></trkpt><trkpt lat="42.334898950449166" lon="8.640843837302679"><ele>248.0</ele><time>2026-05-01T14:18:54.999Z</time></trkpt><trkpt lat="42.33479438599318" lon="8.640679145069482"><ele>256.0</ele><time>2026-05-01T14:18:55.999Z</time></trkpt><trkpt lat="42.33466288882074" lon="8.640540500018739"><ele>264.0</ele><time>2026-05-01T14:18:56.999Z</time></trkpt><trkpt lat="42.33452076614672" lon="8.64040312421016"><ele>272.0</ele><time>2026-05-01T14:18:57.999Z</time></trkpt><trkpt lat="42.33440484951841" lon="8.640265924905853"><ele>272.0</ele><time>2026-05-01T14:18:58.998Z</time></trkpt><trkpt lat="42.33431951282326" lon="8.64010398265068"><ele>272.0</ele><time>2026-05-01T14:18:59.998Z</time></trkpt><trkpt lat="42.334277823987335" lon="8.639909205842406"><ele>272.0</ele><time>2026-05-01T14:19:00.998Z</time></trkpt><trkpt lat="42.334275082626625" lon="8.63970367423727"><ele>272.0</ele><time>2026-05-01T14:19:02Z</time></trkpt><trkpt lat="42.33430213428911" lon="8.639487195879198"><ele>272.0</ele><time>2026-05-01T14:19:03Z</time></trkpt><trkpt lat="42.33435658598215" lon="8.639278491065536"><ele>272.0</ele><time>2026-05-01T14:19:04Z</time></trkpt><trkpt lat="42.33442860460308" lon="8.639065781987593"><ele>272.0</ele><time>2026-05-01T14:19:05Z</time></trkpt><trkpt lat="42.33449669608026" lon="8.638862324292393"><ele>272.0</ele><time>2026-05-01T14:19:06Z</time></trkpt><trkpt lat="42.33455702623448" lon="8.638642239338527"><ele>272.0</ele><time>2026-05-01T14:19:07Z</time></trkpt><trkpt lat="42.33459307226975" lon="8.638414619761946"><ele>272.0</ele><time>2026-05-01T14:19:08Z</time></trkpt><trkpt lat="42.33462040630532" lon="8.638172622033212"><ele>272.0</ele><time>2026-05-01T14:19:09Z</time></trkpt><trkpt lat="42.33462786338932" lon="8.637942195298455"><ele>272.0</ele><time>2026-05-01T14:19:10Z</time></trkpt><trkpt lat="42.33464975379032" lon="8.637737852465458"><ele>272.0</ele><time>2026-05-01T14:19:11Z</time></trkpt><trkpt lat="42.33469653890515" lon="8.637558743025227"><ele>263.6666666666667</ele><time>2026-05-01T14:19:12Z</time></trkpt><trkpt lat="42.33477052229836" lon="8.63737550028802"><ele>255.33333333333331</ele><time>2026-05-01T14:19:13Z</time></trkpt><trkpt lat="42.33487168130693" lon="8.637209088062548"><ele>247.0</ele><time>2026-05-01T14:19:14Z</time></trkpt><trkpt lat="42.334993854980624" lon="8.637076235427102"><ele>248.75</ele><time>2026-05-01T14:19:15Z</time></trkpt><trkpt lat="42.335106805358286" lon="8.63695578572143"><ele>250.5</ele><time>2026-05-01T14:19:16Z</time></trkpt><trkpt lat="42.33516547951036" lon="8.636806692287946"><ele>252.25</ele><time>2026-05-01T14:19:17Z</time></trkpt><trkpt lat="42.33518761728532" lon="8.636623963133385"><ele>254.0</ele><time>2026-05-01T14:19:18Z</time></trkpt><trkpt lat="42.33516681090138" lon="8.63642678648832"><ele>254.0</ele><time>2026-05-01T14:19:19Z</time></trkpt><trkpt lat="42.335127640033704" lon="8.636249860818259"><ele>254.0</ele><time>2026-05-01T14:19:20Z</time></trkpt><trkpt lat="42.335046276031015" lon="8.636147967342811"><ele>254.0</ele><time>2026-05-01T14:19:21Z</time></trkpt><trkpt lat="42.33494930726372" lon="8.636100629687858"><ele>254.0</ele><time>2026-05-01T14:19:22Z</time></trkpt><trkpt lat="42.334829725501436" lon="8.636148626149787"><ele>254.0</ele><time>2026-05-01T14:19:23Z</time></trkpt><trkpt lat="42.33473064914341" lon="8.636231555641867"><ele>254.0</ele><time>2026-05-01T14:19:24Z</time></trkpt><trkpt lat="42.33465051584462" lon="8.636363311386791"><ele>254.0</ele><time>2026-05-01T14:19:25Z</time></trkpt><trkpt lat="42.334559765860206" lon="8.636498082510988"><ele>254.0</ele><time>2026-05-01T14:19:26Z</time></trkpt><trkpt lat="42.334431793130406" lon="8.63661622392428"><ele>253.0</ele><time>2026-05-01T14:19:27Z</time></trkpt><trkpt lat="42.3342806860695" lon="8.636721176023547"><ele>252.0</ele><time>2026-05-01T14:19:28Z</time></trkpt><trkpt lat="42.334113166868605" lon="8.636829019854849"><ele>251.0</ele><time>2026-05-01T14:19:29Z</time></trkpt><trkpt lat="42.33393884799738" lon="8.636939811553876"><ele>255.33333333333334</ele><time>2026-05-01T14:19:30Z</time></trkpt><trkpt lat="42.33376115771441" lon="8.637055195214895"><ele>259.6666666666667</ele><time>2026-05-01T14:19:31Z</time></trkpt><trkpt lat="42.33358600683196" lon="8.63716296319002"><ele>264.0</ele><time>2026-05-01T14:19:32Z</time></trkpt><trkpt lat="42.33341056627757" lon="8.637256894004848"><ele>264.0</ele><time>2026-05-01T14:19:33Z</time></trkpt><trkpt lat="42.333247890376526" lon="8.637307874131452"><ele>264.0</ele><time>2026-05-01T14:19:34Z</time></trkpt><trkpt lat="42.33310174731951" lon="8.637348617855517"><ele>264.0</ele><time>2026-05-01T14:19:35Z</time></trkpt><trkpt lat="42.332969791241354" lon="8.637422483896708"><ele>267.0</ele><time>2026-05-01T14:19:36Z</time></trkpt><trkpt lat="42.33285911466577" lon="8.637554644263563"><ele>270.0</ele><time>2026-05-01T14:19:37Z</time></trkpt><trkpt lat="42.33277105833576" lon="8.637723721087163"><ele>273.0</ele><time>2026-05-01T14:19:38Z</time></trkpt><trkpt lat="42.33267236128998" lon="8.637871315864835"><ele>276.0</ele><time>2026-05-01T14:19:39Z</time></trkpt><trkpt lat="42.332536385912455" lon="8.63797627678971"><ele>276.0</ele><time>2026-05-01T14:19:40Z</time></trkpt><trkpt lat="42.332387795534295" lon="8.638025913825206"><ele>276.0</ele><time>2026-05-01T14:19:41Z</time></trkpt><trkpt lat="42.33223467048788" lon="8.638048383547789"><ele>276.0</ele><time>2026-05-01T14:19:42Z</time></trkpt><trkpt lat="42.332087487179265" lon="8.638046344610794"><ele>278.75</ele><time>2026-05-01T14:19:43Z</time></trkpt><trkpt lat="42.33195215422018" lon="8.63799210548889"><ele>281.5</ele><time>2026-05-01T14:19:44Z</time></trkpt><trkpt lat="42.33182730030707" lon="8.63788673490981"><ele>284.25</ele><time>2026-05-01T14:19:45Z</time></trkpt><trkpt lat="42.33172365207729" lon="8.63773513449219"><ele>287.0</ele><time>2026-05-01T14:19:46Z</time></trkpt><trkpt lat="42.33163055992876" lon="8.637555734567558"><ele>279.33333333333337</ele><time>2026-05-01T14:19:47Z</time></trkpt><trkpt lat="42.33153010988982" lon="8.63735839154948"><ele>271.6666666666667</ele><time>2026-05-01T14:19:48Z</time></trkpt><trkpt lat="42.331426377295195" lon="8.637161941574847"><ele>264.0</ele><time>2026-05-01T14:19:49Z</time></trkpt><trkpt lat="42.33131643618774" lon="8.63696367764897"><ele>264.0</ele><time>2026-05-01T14:19:50Z</time></trkpt><trkpt lat="42.33122186623967" lon="8.636789381213527"><ele>264.0</ele><time>2026-05-01T14:19:51Z</time></trkpt><trkpt lat="42.33113334593815" lon="8.636629588027056"><ele>264.0</ele><time>2026-05-01T14:19:52Z</time></trkpt><trkpt lat="42.33103407428021" lon="8.63650351958056"><ele>264.0</ele><time>2026-05-01T14:19:53Z</time></trkpt><trkpt lat="42.33091269338513" lon="8.636440451415831"><ele>264.0</ele><time>2026-05-01T14:19:54Z</time></trkpt><trkpt lat="42.33077796434743" lon="8.636448923974863"><ele>264.0</ele><time>2026-05-01T14:19:55Z</time></trkpt><trkpt lat="42.330633096681474" lon="8.636497462333278"><ele>264.0</ele><time>2026-05-01T14:19:56Z</time></trkpt><trkpt lat="42.33048479200728" lon="8.636569654977057"><ele>264.0</ele><time>2026-05-01T14:19:57Z</time></trkpt><trkpt lat="42.33033817832931" lon="8.636645141627785"><ele>260.0</ele><time>2026-05-01T14:19:58Z</time></trkpt><trkpt lat="42.33019213299846" lon="8.636713100741524"><ele>256.0</ele><time>2026-05-01T14:19:59Z</time></trkpt><trkpt lat="42.330054154996645" lon="8.636787819094076"><ele>252.0</ele><time>2026-05-01T14:20:00Z</time></trkpt><trkpt lat="42.32992870960044" lon="8.636896370099748"><ele>260.75</ele><time>2026-05-01T14:20:01Z</time></trkpt><trkpt lat="42.32982560636497" lon="8.637015585715783"><ele>269.5</ele><time>2026-05-01T14:20:01.999Z</time></trkpt><trkpt lat="42.32971567153569" lon="8.63709434368994"><ele>278.25</ele><time>2026-05-01T14:20:02.999Z</time></trkpt><trkpt lat="42.32959205859967" lon="8.637127973327928"><ele>287.0</ele><time>2026-05-01T14:20:03.999Z</time></trkpt><trkpt lat="42.32946075376986" lon="8.637119953980099"><ele>288.0</ele><time>2026-05-01T14:20:04.999Z</time></trkpt><trkpt lat="42.32933313934448" lon="8.637052131639255"><ele>289.0</ele><time>2026-05-01T14:20:05.999Z</time></trkpt><trkpt lat="42.32921964417651" lon="8.636939517132708"><ele>290.0</ele><time>2026-05-01T14:20:06.999Z</time></trkpt><trkpt lat="42.329110950010396" lon="8.636792359439267"><ele>291.0</ele><time>2026-05-01T14:20:07.999Z</time></trkpt><trkpt lat="42.32900486931892" lon="8.636642886077807"><ele>292.75</ele><time>2026-05-01T14:20:08.999Z</time></trkpt><trkpt lat="42.32891062749698" lon="8.636530464404036"><ele>294.5</ele><time>2026-05-01T14:20:09.999Z</time></trkpt><trkpt lat="42.328830247738246" lon="8.636423885865414"><ele>296.25</ele><time>2026-05-01T14:20:10.999Z</time></trkpt><trkpt lat="42.3287667645077" lon="8.636315603770662"><ele>298.0</ele><time>2026-05-01T14:20:11.999Z</time></trkpt><trkpt lat="42.32871150632101" lon="8.636186234308058"><ele>291.25</ele><time>2026-05-01T14:20:12.999Z</time></trkpt><trkpt lat="42.32867405498768" lon="8.636040946259525"><ele>284.5</ele><time>2026-05-01T14:20:13.999Z</time></trkpt><trkpt lat="42.32862014894434" lon="8.635904430285159"><ele>277.75</ele><time>2026-05-01T14:20:14.999Z</time></trkpt><trkpt lat="42.32852876348469" lon="8.6357943187869"><ele>271.0</ele><time>2026-05-01T14:20:15.999Z</time></trkpt><trkpt lat="42.32840394753996" lon="8.635726185100108"><ele>271.0</ele><time>2026-05-01T14:20:16.999Z</time></trkpt><trkpt lat="42.32825946908286" lon="8.635687050812525"><ele>271.0</ele><time>2026-05-01T14:20:17.999Z</time></trkpt><trkpt lat="42.32812356417578" lon="8.635633349700875"><ele>271.0</ele><time>2026-05-01T14:20:18.999Z</time></trkpt><trkpt lat="42.3280160083975" lon="8.63553628021031"><ele>271.0</ele><time>2026-05-01T14:20:19.999Z</time></trkpt><trkpt lat="42.32794512645644" lon="8.635393051104671"><ele>274.0</ele><time>2026-05-01T14:20:20.999Z</time></trkpt><trkpt lat="42.327898296986305" lon="8.635213364300238"><ele>277.0</ele><time>2026-05-01T14:20:21.999Z</time></trkpt><trkpt lat="42.32784798074537" lon="8.635028318713758"><ele>280.0</ele><time>2026-05-01T14:20:22.999Z</time></trkpt><trkpt lat="42.32778166271338" lon="8.63484481412282"><ele>283.0</ele><time>2026-05-01T14:20:23.999Z</time></trkpt><trkpt lat="42.327709987346374" lon="8.634654598430782"><ele>277.66666666666663</ele><time>2026-05-01T14:20:24.999Z</time></trkpt><trkpt lat="42.327628876107504" lon="8.634461336066037"><ele>272.3333333333333</ele><time>2026-05-01T14:20:25.999Z</time></trkpt><trkpt lat="42.32753816161144" lon="8.63426413787363"><ele>267.0</ele><time>2026-05-01T14:20:26.999Z</time></trkpt><trkpt lat="42.32743705794747" lon="8.634067491805707"><ele>267.0</ele><time>2026-05-01T14:20:27.999Z</time></trkpt><trkpt lat="42.327328364212036" lon="8.63385736711435"><ele>267.0</ele><time>2026-05-01T14:20:28.999Z</time></trkpt><trkpt lat="42.327225530507384" lon="8.633652565499546"><ele>267.0</ele><time>2026-05-01T14:20:29.999Z</time></trkpt><trkpt lat="42.327119619227176" lon="8.633452963984064"><ele>267.6666666666667</ele><time>2026-05-01T14:20:30.999Z</time></trkpt><trkpt lat="42.327023811129514" lon="8.63326281038092"><ele>268.33333333333337</ele><time>2026-05-01T14:20:31.999Z</time></trkpt><trkpt lat="42.32694973212984" lon="8.633086877034396"><ele>269.0</ele><time>2026-05-01T14:20:32.999Z</time></trkpt><trkpt lat="42.32690791611717" lon="8.632895283866096"><ele>268.2</ele><time>2026-05-01T14:20:33.999Z</time></trkpt><trkpt lat="42.32691129819563" lon="8.632710135181547"><ele>267.4</ele><time>2026-05-01T14:20:34.999Z</time></trkpt><trkpt lat="42.326924007624285" lon="8.63254626736782"><ele>266.6</ele><time>2026-05-01T14:20:35.999Z</time></trkpt><trkpt lat="42.32690028813461" lon="8.632427048599448"><ele>265.8</ele><time>2026-05-01T14:20:36.999Z</time></trkpt><trkpt lat="42.326848978080044" lon="8.632347924148235"><ele>265.0</ele><time>2026-05-01T14:20:37.999Z</time></trkpt><trkpt lat="42.32678051722398" lon="8.632326842771022"><ele>265.0</ele><time>2026-05-01T14:20:38.999Z</time></trkpt><trkpt lat="42.32670556713019" lon="8.632357206094742"><ele>265.0</ele><time>2026-05-01T14:20:39.999Z</time></trkpt><trkpt lat="42.32663605115305" lon="8.632430819851283"><ele>265.0</ele><time>2026-05-01T14:20:40.999Z</time></trkpt><trkpt lat="42.32657739278248" lon="8.632557074343989"><ele>265.0</ele><time>2026-05-01T14:20:41.999Z</time></trkpt><trkpt lat="42.32652572811865" lon="8.632699077864544"><ele>265.0</ele><time>2026-05-01T14:20:42.999Z</time></trkpt><trkpt lat="42.32644742854001" lon="8.632858170084162"><ele>260.5</ele><time>2026-05-01T14:20:43.999Z</time></trkpt><trkpt lat="42.32637414905497" lon="8.633022027189352"><ele>256.0</ele><time>2026-05-01T14:20:44.999Z</time></trkpt><trkpt lat="42.3262977054163" lon="8.633161690006826"><ele>251.5</ele><time>2026-05-01T14:20:45.999Z</time></trkpt><trkpt lat="42.32624659139462" lon="8.633302456361662"><ele>247.0</ele><time>2026-05-01T14:20:46.999Z</time></trkpt><trkpt lat="42.32623056244815" lon="8.63344489452788"><ele>247.0</ele><time>2026-05-01T14:20:47.999Z</time></trkpt><trkpt lat="42.32623232016817" lon="8.633568994426424"><ele>247.0</ele><time>2026-05-01T14:20:48.999Z</time></trkpt><trkpt lat="42.326228503643115" lon="8.633689166189466"><ele>247.0</ele><time>2026-05-01T14:20:49.999Z</time></trkpt><trkpt lat="42.32621181410733" lon="8.633811355745243"><ele>247.0</ele><time>2026-05-01T14:20:50.999Z</time></trkpt><trkpt lat="42.32617495543404" lon="8.633944151645098"><ele>247.0</ele><time>2026-05-01T14:20:51.999Z</time></trkpt><trkpt lat="42.32611821298577" lon="8.634084331846955"><ele>248.8</ele><time>2026-05-01T14:20:52.999Z</time></trkpt><trkpt lat="42.32605940821758" lon="8.634216462056349"><ele>250.6</ele><time>2026-05-01T14:20:53.999Z</time></trkpt><trkpt lat="42.326013806454164" lon="8.634342758929996"><ele>252.40000000000003</ele><time>2026-05-01T14:20:54.999Z</time></trkpt><trkpt lat="42.32597747352421" lon="8.634468490340492"><ele>254.20000000000002</ele><time>2026-05-01T14:20:55.999Z</time></trkpt><trkpt lat="42.3259378430475" lon="8.63458815515536"><ele>256.0</ele><time>2026-05-01T14:20:56.999Z</time></trkpt><trkpt lat="42.32588387380106" lon="8.634702817865543"><ele>254.8</ele><time>2026-05-01T14:20:57.999Z</time></trkpt><trkpt lat="42.32581589933228" lon="8.63481192452884"><ele>253.60000000000002</ele><time>2026-05-01T14:20:58.999Z</time></trkpt><trkpt lat="42.325743463414014" lon="8.634917228145737"><ele>252.4</ele><time>2026-05-01T14:20:59.999Z</time></trkpt><trkpt lat="42.32567329132479" lon="8.635017177771752"><ele>251.2</ele><time>2026-05-01T14:21:00.999Z</time></trkpt><trkpt lat="42.325602629475476" lon="8.635106116053816"><ele>250.0</ele><time>2026-05-01T14:21:01.999Z</time></trkpt><trkpt lat="42.32552553152332" lon="8.6351677234732"><ele>250.0</ele><time>2026-05-01T14:21:02.999Z</time></trkpt><trkpt lat="42.32543717218535" lon="8.635198803456982"><ele>250.0</ele><time>2026-05-01T14:21:03.999Z</time></trkpt><trkpt lat="42.325349970440946" lon="8.635218924560947"><ele>250.0</ele><time>2026-05-01T14:21:04.999Z</time></trkpt><trkpt lat="42.32527821378038" lon="8.635222655195095"><ele>250.0</ele><time>2026-05-01T14:21:05.999Z</time></trkpt><trkpt lat="42.3251768409502" lon="8.63528064416177"><ele>250.0</ele><time>2026-05-01T14:21:08Z</time></trkpt><trkpt lat="42.32511490175857" lon="8.635366098523665"><ele>253.16666666666666</ele><time>2026-05-01T14:21:10Z</time></trkpt><trkpt lat="42.32504324932298" lon="8.635443095262943"><ele>256.3333333333333</ele><time>2026-05-01T14:21:12Z</time></trkpt><trkpt lat="42.32498023061957" lon="8.635528699187482"><ele>259.5</ele><time>2026-05-01T14:21:14Z</time></trkpt><trkpt lat="42.32493611427928" lon="8.635610326053268"><ele>262.6666666666667</ele><time>2026-05-01T14:21:16Z</time></trkpt><trkpt lat="42.32490000104143" lon="8.635715000793555"><ele>265.83333333333337</ele><time>2026-05-01T14:21:18Z</time></trkpt><trkpt lat="42.324865975268764" lon="8.635788894009501"><ele>269.0</ele><time>2026-05-01T14:21:21Z</time></trkpt><trkpt lat="42.32483744462574" lon="8.63593028261993"><ele>269.0</ele><time>2026-05-01T14:22:30.999Z</time></trkpt><trkpt lat="42.32482855864293" lon="8.6360227016007"><ele>269.0</ele><time>2026-05-01T14:22:31.999Z</time></trkpt><trkpt lat="42.3248186968057" lon="8.636123564929159"><ele>269.0</ele><time>2026-05-01T14:22:32.999Z</time></trkpt><trkpt lat="42.324813404599574" lon="8.636233860935423"><ele>269.0</ele><time>2026-05-01T14:22:33.999Z</time></trkpt><trkpt lat="42.32482345020053" lon="8.636354973991768"><ele>269.0</ele><time>2026-05-01T14:22:34.999Z</time></trkpt><trkpt lat="42.32483959320155" lon="8.636483355698985"><ele>269.0</ele><time>2026-05-01T14:22:35.999Z</time></trkpt><trkpt lat="42.32485041565852" lon="8.636622060621352"><ele>270.5</ele><time>2026-05-01T14:22:36.999Z</time></trkpt><trkpt lat="42.32484947716729" lon="8.636779150484363"><ele>272.0</ele><time>2026-05-01T14:22:37.999Z</time></trkpt><trkpt lat="42.32481165258245" lon="8.636976922692591"><ele>273.5</ele><time>2026-05-01T14:22:38.999Z</time></trkpt><trkpt lat="42.324759977596734" lon="8.637201635819082"><ele>275.0</ele><time>2026-05-01T14:22:39.999Z</time></trkpt><trkpt lat="42.32470493264749" lon="8.637434714477628"><ele>270.0</ele><time>2026-05-01T14:22:40.999Z</time></trkpt><trkpt lat="42.324656928817085" lon="8.637655727867978"><ele>265.0</ele><time>2026-05-01T14:22:41.999Z</time></trkpt><trkpt lat="42.32460670031743" lon="8.637859858311097"><ele>260.0</ele><time>2026-05-01T14:22:42.999Z</time></trkpt><trkpt lat="42.32455379547557" lon="8.638049057064432"><ele>260.0</ele><time>2026-05-01T14:22:43.999Z</time></trkpt><trkpt lat="42.32446894571046" lon="8.63822765019991"><ele>260.0</ele><time>2026-05-01T14:22:44.999Z</time></trkpt><trkpt lat="42.324363030496386" lon="8.638390800139096"><ele>260.0</ele><time>2026-05-01T14:22:45.999Z</time></trkpt><trkpt lat="42.32424792010345" lon="8.638560816602705"><ele>259.33333333333337</ele><time>2026-05-01T14:22:46.999Z</time></trkpt><trkpt lat="42.32413382915633" lon="8.638729523494684"><ele>258.6666666666667</ele><time>2026-05-01T14:22:47.999Z</time></trkpt><trkpt lat="42.32399282530899" lon="8.63887147203737"><ele>258.0</ele><time>2026-05-01T14:22:48.999Z</time></trkpt><trkpt lat="42.32382799895033" lon="8.638989843237743"><ele>258.0</ele><time>2026-05-01T14:22:49.999Z</time></trkpt><trkpt lat="42.32365349807763" lon="8.639099783728593"><ele>258.0</ele><time>2026-05-01T14:22:50.999Z</time></trkpt><trkpt lat="42.3234859381465" lon="8.639204547233966"><ele>258.0</ele><time>2026-05-01T14:22:51.999Z</time></trkpt><trkpt lat="42.32335273171991" lon="8.63930507011601"><ele>258.0</ele><time>2026-05-01T14:22:52.999Z</time></trkpt><trkpt lat="42.32322725164986" lon="8.639406026704169"><ele>258.0</ele><time>2026-05-01T14:22:53.999Z</time></trkpt><trkpt lat="42.323133002331936" lon="8.639503049647415"><ele>258.0</ele><time>2026-05-01T14:22:54.999Z</time></trkpt><trkpt lat="42.323080359061485" lon="8.639609684017977"><ele>258.0</ele><time>2026-05-01T14:22:55.999Z</time></trkpt><trkpt lat="42.323082390684974" lon="8.639727983342121"><ele>258.0</ele><time>2026-05-01T14:22:56.999Z</time></trkpt><trkpt lat="42.32313793132822" lon="8.63984068651874"><ele>260.6666666666667</ele><time>2026-05-01T14:22:57.999Z</time></trkpt><trkpt lat="42.323239404121566" lon="8.639947321825133"><ele>263.33333333333337</ele><time>2026-05-01T14:22:58.999Z</time></trkpt><trkpt lat="42.32337563512579" lon="8.64005005182331"><ele>266.0</ele><time>2026-05-01T14:22:59.999Z</time></trkpt><trkpt lat="42.323519226065855" lon="8.640179173026223"><ele>261.0</ele><time>2026-05-01T14:23:00.999Z</time></trkpt><trkpt lat="42.32365825161401" lon="8.640340775070346"><ele>256.0</ele><time>2026-05-01T14:23:01.999Z</time></trkpt><trkpt lat="42.323777477801336" lon="8.640538776820334"><ele>251.0</ele><time>2026-05-01T14:23:02.999Z</time></trkpt><trkpt lat="42.323888755806344" lon="8.64073947747017"><ele>260.6666666666667</ele><time>2026-05-01T14:23:03.999Z</time></trkpt><trkpt lat="42.32399499425008" lon="8.640907130581393"><ele>270.3333333333333</ele><time>2026-05-01T14:23:04.999Z</time></trkpt><trkpt lat="42.32405261184546" lon="8.641087797250435"><ele>280.0</ele><time>2026-05-01T14:23:05.999Z</time></trkpt><trkpt lat="42.32405814022813" lon="8.641296812553984"><ele>280.25</ele><time>2026-05-01T14:23:06.999Z</time></trkpt><trkpt lat="42.32404010886912" lon="8.641502051200181"><ele>280.5</ele><time>2026-05-01T14:23:07.999Z</time></trkpt><trkpt lat="42.32399781625838" lon="8.641669534467864"><ele>280.75</ele><time>2026-05-01T14:23:08.999Z</time></trkpt><trkpt lat="42.32392741370039" lon="8.641782338002207"><ele>281.0</ele><time>2026-05-01T14:23:09.999Z</time></trkpt><trkpt lat="42.323824180386104" lon="8.641817767828675"><ele>276.5</ele><time>2026-05-01T14:23:10.999Z</time></trkpt><trkpt lat="42.323697761852635" lon="8.641784893319945"><ele>272.0</ele><time>2026-05-01T14:23:11.999Z</time></trkpt><trkpt lat="42.32355534394987" lon="8.641723507447718"><ele>267.5</ele><time>2026-05-01T14:23:12.999Z</time></trkpt><trkpt lat="42.32340611736125" lon="8.641706601867597"><ele>263.0</ele><time>2026-05-01T14:23:14.001Z</time></trkpt><trkpt lat="42.3232429478965" lon="8.641721667969174"><ele>263.0</ele><time>2026-05-01T14:23:15.001Z</time></trkpt><trkpt lat="42.32308086601452" lon="8.641804323202113"><ele>263.0</ele><time>2026-05-01T14:23:16Z</time></trkpt><trkpt lat="42.322919683856064" lon="8.641926135400665"><ele>263.0</ele><time>2026-05-01T14:23:17Z</time></trkpt><trkpt lat="42.322761937559186" lon="8.642048441145644"><ele>266.33333333333337</ele><time>2026-05-01T14:23:18Z</time></trkpt><trkpt lat="42.32258263354964" lon="8.642116194674315"><ele>269.6666666666667</ele><time>2026-05-01T14:23:19Z</time></trkpt><trkpt lat="42.32241812080219" lon="8.64214771353161"><ele>273.0</ele><time>2026-05-01T14:23:20Z</time></trkpt><trkpt lat="42.322285244368544" lon="8.642180440854863"><ele>269.8</ele><time>2026-05-01T14:23:21Z</time></trkpt><trkpt lat="42.3221834575104" lon="8.642209181550998"><ele>266.6</ele><time>2026-05-01T14:23:22Z</time></trkpt><trkpt lat="42.32209461693189" lon="8.642219290360215"><ele>263.4</ele><time>2026-05-01T14:23:23Z</time></trkpt><trkpt lat="42.32202176121095" lon="8.642235257846123"><ele>260.2</ele><time>2026-05-01T14:23:24Z</time></trkpt><trkpt lat="42.32191800342223" lon="8.642274279764472"><ele>257.0</ele><time>2026-05-01T14:23:26Z</time></trkpt><trkpt lat="42.321838730676" lon="8.642299109575784"><ele>257.0</ele><time>2026-05-01T14:23:28Z</time></trkpt><trkpt lat="42.32181857601596" lon="8.642402755032496"><ele>257.0</ele><time>2026-05-01T14:36:41.999Z</time></trkpt><trkpt lat="42.3218541064911" lon="8.642474814900943"><ele>257.0</ele><time>2026-05-01T14:36:43.999Z</time></trkpt><trkpt lat="42.321905050350736" lon="8.642554048176848"><ele>257.0</ele><time>2026-05-01T14:36:49.999Z</time></trkpt><trkpt lat="42.32195297985429" lon="8.642610861417989"><ele>257.0</ele><time>2026-05-01T14:36:51.999Z</time></trkpt><trkpt lat="42.32201766278981" lon="8.642682776923218"><ele>257.0</ele><time>2026-05-01T14:36:53.999Z</time></trkpt><trkpt lat="42.322109700044294" lon="8.642782635389503"><ele>258.6666666666667</ele><time>2026-05-01T14:36:55.999Z</time></trkpt><trkpt lat="42.3221612373324" lon="8.642835175529624"><ele>260.33333333333337</ele><time>2026-05-01T14:36:56.999Z</time></trkpt><trkpt lat="42.32221394522069" lon="8.64289605693678"><ele>262.0</ele><time>2026-05-01T14:36:57.999Z</time></trkpt><trkpt lat="42.32227440815873" lon="8.64296728190571"><ele>263.6666666666667</ele><time>2026-05-01T14:36:58.999Z</time></trkpt><trkpt lat="42.322332046545505" lon="8.643031502057275"><ele>265.3333333333333</ele><time>2026-05-01T14:36:59.999Z</time></trkpt><trkpt lat="42.32239526168462" lon="8.643107187653452"><ele>267.0</ele><time>2026-05-01T14:37:00.999Z</time></trkpt><trkpt lat="42.322463229790934" lon="8.64318605515554"><ele>267.0</ele><time>2026-05-01T14:37:01.999Z</time></trkpt><trkpt lat="42.32253245896014" lon="8.643286757814932"><ele>267.0</ele><time>2026-05-01T14:37:02.999Z</time></trkpt><trkpt lat="42.32263025887238" lon="8.643424411366864"><ele>267.0</ele><time>2026-05-01T14:37:03.999Z</time></trkpt><trkpt lat="42.32276635421371" lon="8.643613527963655"><ele>267.0</ele><time>2026-05-01T14:37:04.999Z</time></trkpt><trkpt lat="42.32291207257798" lon="8.643817782160495"><ele>266.25</ele><time>2026-05-01T14:37:05.999Z</time></trkpt><trkpt lat="42.323016270992" lon="8.643998968491255"><ele>265.5</ele><time>2026-05-01T14:37:06.999Z</time></trkpt><trkpt lat="42.32306169219991" lon="8.64418320455949"><ele>264.75</ele><time>2026-05-01T14:37:07.999Z</time></trkpt><trkpt lat="42.3230856447722" lon="8.64434479849666"><ele>264.0</ele><time>2026-05-01T14:37:08.999Z</time></trkpt><trkpt lat="42.323101526711234" lon="8.644466080848291"><ele>264.0</ele><time>2026-05-01T14:37:09.999Z</time></trkpt><trkpt lat="42.323139459402405" lon="8.644588854062032"><ele>264.0</ele><time>2026-05-01T14:37:11.999Z</time></trkpt><trkpt lat="42.32319598668886" lon="8.644636040250337"><ele>264.0</ele><time>2026-05-01T14:37:36.999Z</time></trkpt><trkpt lat="42.32317166378999" lon="8.644523971827345"><ele>264.0</ele><time>2026-05-01T14:37:39.999Z</time></trkpt><trkpt lat="42.32312102014661" lon="8.644449434511243"><ele>264.0</ele><time>2026-05-01T14:37:40.999Z</time></trkpt><trkpt lat="42.323081696527765" lon="8.644343849985159"><ele>264.0</ele><time>2026-05-01T14:37:41.999Z</time></trkpt><trkpt lat="42.32305996872807" lon="8.644221336949771"><ele>259.4</ele><time>2026-05-01T14:37:42.999Z</time></trkpt><trkpt lat="42.32302923090475" lon="8.644078980628978"><ele>254.79999999999998</ele><time>2026-05-01T14:37:43.999Z</time></trkpt><trkpt lat="42.322971225817064" lon="8.643929230091178"><ele>250.20000000000002</ele><time>2026-05-01T14:37:44.999Z</time></trkpt><trkpt lat="42.322902263515374" lon="8.643797009472983"><ele>245.60000000000002</ele><time>2026-05-01T14:37:45.999Z</time></trkpt><trkpt lat="42.32284728032248" lon="8.643710030909208"><ele>241.0</ele><time>2026-05-01T14:37:46.999Z</time></trkpt><trkpt lat="42.322803918551436" lon="8.643641041713387"><ele>240.99999999999997</ele><time>2026-05-01T14:37:47.999Z</time></trkpt><trkpt lat="42.322726977565424" lon="8.64352654401677"><ele>241.0</ele><time>2026-05-01T14:37:49.998Z</time></trkpt><trkpt lat="42.322673228540985" lon="8.643440881296481"><ele>241.0</ele><time>2026-05-01T14:37:51.998Z</time></trkpt><trkpt lat="42.322652365258804" lon="8.64352533987748"><ele>241.0</ele><time>2026-05-01T14:37:54.998Z</time></trkpt><trkpt lat="42.3226993259154" lon="8.64358746883056"><ele>240.99999999999997</ele><time>2026-05-01T14:37:58Z</time></trkpt><trkpt lat="42.32275998888459" lon="8.643642151411107"><ele>241.0</ele><time>2026-05-01T14:38:47.999Z</time></trkpt><trkpt lat="42.3228205148437" lon="8.643717234782462"><ele>241.0</ele><time>2026-05-01T14:38:48.999Z</time></trkpt><trkpt lat="42.32288203775224" lon="8.643800980306246"><ele>241.00000000000003</ele><time>2026-05-01T14:38:49.999Z</time></trkpt><trkpt lat="42.3229428727566" lon="8.643890678995017"><ele>241.00000000000003</ele><time>2026-05-01T14:38:50.999Z</time></trkpt><trkpt lat="42.322991000416465" lon="8.643998727026387"><ele>241.0</ele><time>2026-05-01T14:38:51.999Z</time></trkpt><trkpt lat="42.323024346230525" lon="8.64412458178803"><ele>241.0</ele><time>2026-05-01T14:38:52.999Z</time></trkpt><trkpt lat="42.32304331123811" lon="8.644249670521006"><ele>246.75</ele><time>2026-05-01T14:38:53.999Z</time></trkpt><trkpt lat="42.32306964208218" lon="8.644381893828863"><ele>252.5</ele><time>2026-05-01T14:38:54.999Z</time></trkpt><trkpt lat="42.323115526021795" lon="8.644522150330465"><ele>258.25</ele><time>2026-05-01T14:38:55.999Z</time></trkpt><trkpt lat="42.32318407599814" lon="8.644655020890676"><ele>264.0</ele><time>2026-05-01T14:38:56.999Z</time></trkpt><trkpt lat="42.323270185390044" lon="8.644788531459525"><ele>264.0</ele><time>2026-05-01T14:38:57.999Z</time></trkpt><trkpt lat="42.32337889712154" lon="8.644921825628307"><ele>264.0</ele><time>2026-05-01T14:38:58.999Z</time></trkpt><trkpt lat="42.323502367082575" lon="8.64506561191653"><ele>264.0</ele><time>2026-05-01T14:38:59.999Z</time></trkpt><trkpt lat="42.323625514165585" lon="8.645227182660621"><ele>269.0</ele><time>2026-05-01T14:39:00.999Z</time></trkpt><trkpt lat="42.323753876277486" lon="8.645382811009489"><ele>274.0</ele><time>2026-05-01T14:39:01.999Z</time></trkpt><trkpt lat="42.32387982376728" lon="8.645538474727598"><ele>279.0</ele><time>2026-05-01T14:39:02.999Z</time></trkpt><trkpt lat="42.323987299864626" lon="8.64570332818454"><ele>279.0</ele><time>2026-05-01T14:39:03.999Z</time></trkpt><trkpt lat="42.32406108095964" lon="8.645864707391786"><ele>279.0</ele><time>2026-05-01T14:39:04.999Z</time></trkpt><trkpt lat="42.324107151270795" lon="8.6460180095188"><ele>279.0</ele><time>2026-05-01T14:39:05.999Z</time></trkpt><trkpt lat="42.32410990950876" lon="8.646168000412201"><ele>279.0</ele><time>2026-05-01T14:39:06.999Z</time></trkpt><trkpt lat="42.32406269241302" lon="8.64630917137346"><ele>279.0</ele><time>2026-05-01T14:39:07.999Z</time></trkpt><trkpt lat="42.323978328961154" lon="8.64644569999211"><ele>279.0</ele><time>2026-05-01T14:39:08.999Z</time></trkpt><trkpt lat="42.323874115798795" lon="8.646589888050144"><ele>279.0</ele><time>2026-05-01T14:39:09.999Z</time></trkpt><trkpt lat="42.32378701704458" lon="8.64675834342331"><ele>279.0</ele><time>2026-05-01T14:39:10.999Z</time></trkpt><trkpt lat="42.32370530746442" lon="8.646938393614292"><ele>277.6666666666667</ele><time>2026-05-01T14:39:11.999Z</time></trkpt><trkpt lat="42.32358842218715" lon="8.647100329497139"><ele>276.33333333333337</ele><time>2026-05-01T14:39:12.999Z</time></trkpt><trkpt lat="42.323445111191845" lon="8.6472172134022"><ele>275.0</ele><time>2026-05-01T14:39:13.999Z</time></trkpt><trkpt lat="42.323284467023896" lon="8.647282322871845"><ele>275.0</ele><time>2026-05-01T14:39:14.999Z</time></trkpt><trkpt lat="42.32311814876853" lon="8.647350078852932"><ele>275.0</ele><time>2026-05-01T14:39:15.999Z</time></trkpt><trkpt lat="42.32295125234304" lon="8.647404512717905"><ele>275.0</ele><time>2026-05-01T14:39:16.999Z</time></trkpt><trkpt lat="42.32276997112632" lon="8.647423119942507"><ele>274.6666666666667</ele><time>2026-05-01T14:39:17.999Z</time></trkpt><trkpt lat="42.32258005207193" lon="8.647404472159366"><ele>274.3333333333333</ele><time>2026-05-01T14:39:18.999Z</time></trkpt><trkpt lat="42.322399819086236" lon="8.647357758190616"><ele>274.0</ele><time>2026-05-01T14:39:19.999Z</time></trkpt><trkpt lat="42.32223587471784" lon="8.647302378932089"><ele>271.3333333333333</ele><time>2026-05-01T14:39:20.999Z</time></trkpt><trkpt lat="42.322062343960496" lon="8.647285878196667"><ele>268.6666666666667</ele><time>2026-05-01T14:39:21.999Z</time></trkpt><trkpt lat="42.32188700010119" lon="8.64732325413887"><ele>266.0</ele><time>2026-05-01T14:39:22.999Z</time></trkpt><trkpt lat="42.32172559855727" lon="8.647367004122836"><ele>266.0</ele><time>2026-05-01T14:39:23.999Z</time></trkpt><trkpt lat="42.32158617848997" lon="8.647412358459123"><ele>266.0</ele><time>2026-05-01T14:39:24.999Z</time></trkpt><trkpt lat="42.32145585335052" lon="8.647506635752702"><ele>266.0</ele><time>2026-05-01T14:39:25.999Z</time></trkpt><trkpt lat="42.321338300159006" lon="8.647664486343508"><ele>265.0</ele><time>2026-05-01T14:39:26.999Z</time></trkpt><trkpt lat="42.321238321619866" lon="8.647863913554353"><ele>264.0</ele><time>2026-05-01T14:39:27.999Z</time></trkpt><trkpt lat="42.321161931472794" lon="8.64808909808066"><ele>263.0</ele><time>2026-05-01T14:39:28.999Z</time></trkpt><trkpt lat="42.321077681624104" lon="8.648302452023657"><ele>263.0</ele><time>2026-05-01T14:39:29.999Z</time></trkpt><trkpt lat="42.32098291745909" lon="8.648500244560323"><ele>263.0</ele><time>2026-05-01T14:39:30.999Z</time></trkpt><trkpt lat="42.320910202017444" lon="8.648692576352104"><ele>263.0</ele><time>2026-05-01T14:39:31.999Z</time></trkpt><trkpt lat="42.320881918842346" lon="8.648912503474257"><ele>262.33333333333337</ele><time>2026-05-01T14:39:32.999Z</time></trkpt><trkpt lat="42.32088527485539" lon="8.649150718828107"><ele>261.6666666666667</ele><time>2026-05-01T14:39:33.999Z</time></trkpt><trkpt lat="42.320914173604685" lon="8.649370242101645"><ele>261.0</ele><time>2026-05-01T14:39:34.999Z</time></trkpt><trkpt lat="42.320983100027306" lon="8.649577322377905"><ele>261.0</ele><time>2026-05-01T14:39:35.999Z</time></trkpt><trkpt lat="42.32109363045279" lon="8.649816072367061"><ele>261.0</ele><time>2026-05-01T14:39:36.999Z</time></trkpt><trkpt lat="42.321179609195745" lon="8.650094010313861"><ele>261.0</ele><time>2026-05-01T14:39:37.999Z</time></trkpt><trkpt lat="42.32123277494431" lon="8.650409891510645"><ele>258.5</ele><time>2026-05-01T14:39:38.999Z</time></trkpt><trkpt lat="42.32126571326619" lon="8.65073036620181"><ele>256.0</ele><time>2026-05-01T14:39:39.999Z</time></trkpt><trkpt lat="42.32126693079716" lon="8.651042748793211"><ele>258.0</ele><time>2026-05-01T14:39:40.999Z</time></trkpt><trkpt lat="42.32123118573846" lon="8.651335434533838"><ele>260.0</ele><time>2026-05-01T14:39:41.999Z</time></trkpt><trkpt lat="42.321181838838314" lon="8.651607966730204"><ele>262.0</ele><time>2026-05-01T14:39:42.999Z</time></trkpt><trkpt lat="42.32113829158953" lon="8.65184871515917"><ele>266.3333333333333</ele><time>2026-05-01T14:39:43.999Z</time></trkpt><trkpt lat="42.321072391496465" lon="8.65204662207761"><ele>270.6666666666667</ele><time>2026-05-01T14:39:44.999Z</time></trkpt><trkpt lat="42.32095863542011" lon="8.652193038184938"><ele>275.0</ele><time>2026-05-01T14:39:45.999Z</time></trkpt><trkpt lat="42.32078527704201" lon="8.652305668058913"><ele>275.0</ele><time>2026-05-01T14:39:46.999Z</time></trkpt><trkpt lat="42.32059951774418" lon="8.652423480655823"><ele>275.0</ele><time>2026-05-01T14:39:47.999Z</time></trkpt><trkpt lat="42.32046325275243" lon="8.652564516869582"><ele>275.0</ele><time>2026-05-01T14:39:48.999Z</time></trkpt><trkpt lat="42.320377174225214" lon="8.652720901170547"><ele>274.25</ele><time>2026-05-01T14:39:49.999Z</time></trkpt><trkpt lat="42.320344818859844" lon="8.65288257653782"><ele>273.5</ele><time>2026-05-01T14:39:50.999Z</time></trkpt><trkpt lat="42.32037379970853" lon="8.65302872286336"><ele>272.75</ele><time>2026-05-01T14:39:51.999Z</time></trkpt><trkpt lat="42.320463108028115" lon="8.653153323861456"><ele>272.0</ele><time>2026-05-01T14:39:52.999Z</time></trkpt><trkpt lat="42.32059730300334" lon="8.653272272797658"><ele>272.0</ele><time>2026-05-01T14:39:53.999Z</time></trkpt><trkpt lat="42.32074119321011" lon="8.65341742936992"><ele>272.0</ele><time>2026-05-01T14:39:54.999Z</time></trkpt><trkpt lat="42.3208705535619" lon="8.653564971820638"><ele>272.0</ele><time>2026-05-01T14:39:55.998Z</time></trkpt><trkpt lat="42.32100539226096" lon="8.653647433988114"><ele>272.0</ele><time>2026-05-01T14:39:56.998Z</time></trkpt><trkpt lat="42.32116969129678" lon="8.653650033526985"><ele>272.0</ele><time>2026-05-01T14:39:57.998Z</time></trkpt><trkpt lat="42.32136675540754" lon="8.653593465045171"><ele>272.0</ele><time>2026-05-01T14:39:58.998Z</time></trkpt><trkpt lat="42.32159001743888" lon="8.653559554059337"><ele>277.5</ele><time>2026-05-01T14:39:59.998Z</time></trkpt><trkpt lat="42.32181521623822" lon="8.65361045994756"><ele>283.0</ele><time>2026-05-01T14:40:00.998Z</time></trkpt><trkpt lat="42.32207320180691" lon="8.65365925885642"><ele>285.0</ele><time>2026-05-01T14:40:02Z</time></trkpt><trkpt lat="42.32231451482358" lon="8.65361363826388"><ele>287.0</ele><time>2026-05-01T14:40:03Z</time></trkpt><trkpt lat="42.322509279359444" lon="8.653555344195516"><ele>289.0</ele><time>2026-05-01T14:40:04Z</time></trkpt><trkpt lat="42.32266564175896" lon="8.65357568383104"><ele>279.3333333333333</ele><time>2026-05-01T14:40:05Z</time></trkpt><trkpt lat="42.32283521989072" lon="8.653690098190541"><ele>269.6666666666667</ele><time>2026-05-01T14:40:06Z</time></trkpt><trkpt lat="42.323027893759054" lon="8.653805293632303"><ele>260.0</ele><time>2026-05-01T14:40:07Z</time></trkpt><trkpt lat="42.32323863834641" lon="8.653824956117106"><ele>260.0</ele><time>2026-05-01T14:40:08Z</time></trkpt><trkpt lat="42.3234511558997" lon="8.653753903819284"><ele>260.0</ele><time>2026-05-01T14:40:09Z</time></trkpt><trkpt lat="42.32363615059034" lon="8.65365463036419"><ele>260.0</ele><time>2026-05-01T14:40:10Z</time></trkpt><trkpt lat="42.32378664399525" lon="8.653610711336864"><ele>261.25</ele><time>2026-05-01T14:40:11Z</time></trkpt><trkpt lat="42.3239018075924" lon="8.653659698346665"><ele>262.5</ele><time>2026-05-01T14:40:12Z</time></trkpt><trkpt lat="42.32399852245513" lon="8.653803264542178"><ele>263.75</ele><time>2026-05-01T14:40:13Z</time></trkpt><trkpt lat="42.32409788500772" lon="8.653960376027163"><ele>265.0</ele><time>2026-05-01T14:40:14Z</time></trkpt><trkpt lat="42.324225328307826" lon="8.654026560440913"><ele>265.0</ele><time>2026-05-01T14:40:15Z</time></trkpt><trkpt lat="42.32435649962006" lon="8.65398845175426"><ele>265.0</ele><time>2026-05-01T14:40:16Z</time></trkpt><trkpt lat="42.32449171900297" lon="8.653870463956208"><ele>265.0</ele><time>2026-05-01T14:40:17Z</time></trkpt><trkpt lat="42.32463213341807" lon="8.65368483406336"><ele>272.66666666666663</ele><time>2026-05-01T14:40:18Z</time></trkpt><trkpt lat="42.32478060893878" lon="8.65349800570371"><ele>280.3333333333333</ele><time>2026-05-01T14:40:19Z</time></trkpt><trkpt lat="42.324954415363756" lon="8.653398766200517"><ele>288.0</ele><time>2026-05-01T14:40:20Z</time></trkpt><trkpt lat="42.32512616072872" lon="8.653396103891295"><ele>288.0</ele><time>2026-05-01T14:40:21Z</time></trkpt><trkpt lat="42.32525635955039" lon="8.653461459407147"><ele>288.0</ele><time>2026-05-01T14:40:22Z</time></trkpt><trkpt lat="42.32535743529846" lon="8.65359637102992"><ele>288.0</ele><time>2026-05-01T14:40:23Z</time></trkpt><trkpt lat="42.32543390336306" lon="8.653808830700745"><ele>282.6666666666667</ele><time>2026-05-01T14:40:24Z</time></trkpt><trkpt lat="42.325481222746475" lon="8.654072832761276"><ele>277.33333333333337</ele><time>2026-05-01T14:40:25Z</time></trkpt><trkpt lat="42.325529027401565" lon="8.654329613709747"><ele>272.0</ele><time>2026-05-01T14:40:26Z</time></trkpt><trkpt lat="42.325620560328005" lon="8.654564659701323"><ele>272.0</ele><time>2026-05-01T14:40:27Z</time></trkpt><trkpt lat="42.325759026588834" lon="8.654786957090268"><ele>272.0</ele><time>2026-05-01T14:40:28Z</time></trkpt><trkpt lat="42.32592726068023" lon="8.654977969127586"><ele>272.0</ele><time>2026-05-01T14:40:29Z</time></trkpt><trkpt lat="42.326101638093974" lon="8.655165438661621"><ele>275.0</ele><time>2026-05-01T14:40:30Z</time></trkpt><trkpt lat="42.32629240869483" lon="8.655320112932111"><ele>278.0</ele><time>2026-05-01T14:40:31Z</time></trkpt><trkpt lat="42.32648803723125" lon="8.655454259113515"><ele>281.0</ele><time>2026-05-01T14:40:32Z</time></trkpt><trkpt lat="42.32664308410355" lon="8.655618296569461"><ele>281.0</ele><time>2026-05-01T14:40:33Z</time></trkpt><trkpt lat="42.32675054827159" lon="8.655865741185588"><ele>281.0</ele><time>2026-05-01T14:40:34Z</time></trkpt><trkpt lat="42.32683800592033" lon="8.656152815933902"><ele>281.0</ele><time>2026-05-01T14:40:35Z</time></trkpt><trkpt lat="42.32695731790384" lon="8.656425534652202"><ele>283.33333333333337</ele><time>2026-05-01T14:40:36Z</time></trkpt><trkpt lat="42.32711252510289" lon="8.65665347134404"><ele>285.6666666666667</ele><time>2026-05-01T14:40:37Z</time></trkpt><trkpt lat="42.32729021850653" lon="8.656812847818552"><ele>288.0</ele><time>2026-05-01T14:40:37.999Z</time></trkpt><trkpt lat="42.32745890398199" lon="8.65695719581943"><ele>288.0</ele><time>2026-05-01T14:40:38.999Z</time></trkpt><trkpt lat="42.32758300482952" lon="8.657112844836117"><ele>288.0</ele><time>2026-05-01T14:40:39.999Z</time></trkpt><trkpt lat="42.32764674743858" lon="8.657277460515951"><ele>288.0</ele><time>2026-05-01T14:40:40.999Z</time></trkpt><trkpt lat="42.32765282004845" lon="8.65742261662222"><ele>288.0</ele><time>2026-05-01T14:40:41.999Z</time></trkpt><trkpt lat="42.327587515882044" lon="8.657539551181515"><ele>288.0</ele><time>2026-05-01T14:40:42.999Z</time></trkpt><trkpt lat="42.32746039301428" lon="8.657640923661472"><ele>288.0</ele><time>2026-05-01T14:40:43.999Z</time></trkpt><trkpt lat="42.32728043352095" lon="8.657711536639802"><ele>288.0</ele><time>2026-05-01T14:40:44.999Z</time></trkpt><trkpt lat="42.32706934293281" lon="8.657741987821254"><ele>282.0</ele><time>2026-05-01T14:40:45.999Z</time></trkpt><trkpt lat="42.32683493523414" lon="8.657748716082079"><ele>276.0</ele><time>2026-05-01T14:40:46.999Z</time></trkpt><trkpt lat="42.3265768073176" lon="8.65772391358991"><ele>278.0</ele><time>2026-05-01T14:40:47.999Z</time></trkpt><trkpt lat="42.32631012458252" lon="8.657632078121294"><ele>280.0</ele><time>2026-05-01T14:40:48.999Z</time></trkpt><trkpt lat="42.32605175517217" lon="8.657495784097478"><ele>280.0</ele><time>2026-05-01T14:40:49.999Z</time></trkpt><trkpt lat="42.32581344944487" lon="8.657404895967879"><ele>280.0</ele><time>2026-05-01T14:40:50.999Z</time></trkpt><trkpt lat="42.3255952838146" lon="8.657378806900258"><ele>281.66666666666663</ele><time>2026-05-01T14:40:51.999Z</time></trkpt><trkpt lat="42.32538609431105" lon="8.657376946371572"><ele>283.3333333333333</ele><time>2026-05-01T14:40:52.999Z</time></trkpt><trkpt lat="42.32519854360719" lon="8.657349669897538"><ele>285.0</ele><time>2026-05-01T14:40:53.999Z</time></trkpt><trkpt lat="42.32502907814356" lon="8.657300032786656"><ele>285.0</ele><time>2026-05-01T14:40:54.999Z</time></trkpt><trkpt lat="42.324881334539214" lon="8.657274456493887"><ele>285.0</ele><time>2026-05-01T14:40:55.999Z</time></trkpt><trkpt lat="42.324765070072026" lon="8.65728843592649"><ele>285.0</ele><time>2026-05-01T14:40:56.999Z</time></trkpt><trkpt lat="42.32463944600188" lon="8.657376467756949"><ele>285.0</ele><time>2026-05-01T14:40:57.999Z</time></trkpt><trkpt lat="42.32450647534613" lon="8.657509163129287"><ele>282.25</ele><time>2026-05-01T14:40:58.999Z</time></trkpt><trkpt lat="42.324386097596644" lon="8.657642365553924"><ele>279.5</ele><time>2026-05-01T14:40:59.999Z</time></trkpt><trkpt lat="42.324302722232716" lon="8.657783598050534"><ele>276.75</ele><time>2026-05-01T14:41:00.999Z</time></trkpt><trkpt lat="42.324257181050925" lon="8.6579394324562"><ele>274.0</ele><time>2026-05-01T14:41:01.999Z</time></trkpt><trkpt lat="42.324265111245886" lon="8.65812408627314"><ele>274.0</ele><time>2026-05-01T14:41:02.999Z</time></trkpt><trkpt lat="42.32430915945648" lon="8.658320275992848"><ele>274.0</ele><time>2026-05-01T14:41:03.999Z</time></trkpt><trkpt lat="42.324356504832075" lon="8.658495310246904"><ele>274.0</ele><time>2026-05-01T14:41:04.999Z</time></trkpt><trkpt lat="42.32438019021954" lon="8.658630709293842"><ele>274.0</ele><time>2026-05-01T14:41:05.999Z</time></trkpt><trkpt lat="42.3243933171663" lon="8.658741769313966"><ele>273.5</ele><time>2026-05-01T14:41:06.999Z</time></trkpt><trkpt lat="42.32441384493187" lon="8.658860351048647"><ele>273.0</ele><time>2026-05-01T14:41:07.999Z</time></trkpt><trkpt lat="42.3244381831575" lon="8.65900366064301"><ele>272.5</ele><time>2026-05-01T14:41:08.999Z</time></trkpt><trkpt lat="42.324455645745395" lon="8.659174292176461"><ele>272.0</ele><time>2026-05-01T14:41:09.999Z</time></trkpt><trkpt lat="42.32447195234904" lon="8.659377546031356"><ele>274.0</ele><time>2026-05-01T14:41:10.999Z</time></trkpt><trkpt lat="42.32447684358611" lon="8.659634381185557"><ele>276.0</ele><time>2026-05-01T14:41:11.999Z</time></trkpt><trkpt lat="42.32446406757929" lon="8.659906690919863"><ele>278.0</ele><time>2026-05-01T14:41:12.999Z</time></trkpt><trkpt lat="42.32444638717376" lon="8.660152091909541"><ele>283.5</ele><time>2026-05-01T14:41:13.999Z</time></trkpt><trkpt lat="42.32441857512421" lon="8.66034249769098"><ele>289.0</ele><time>2026-05-01T14:41:14.999Z</time></trkpt><trkpt lat="42.32436462534528" lon="8.660470489103396"><ele>294.5</ele><time>2026-05-01T14:41:15.999Z</time></trkpt><trkpt lat="42.32427066188954" lon="8.660523041906805"><ele>300.0</ele><time>2026-05-01T14:41:16.999Z</time></trkpt><trkpt lat="42.324119208911846" lon="8.660544601620515"><ele>300.0</ele><time>2026-05-01T14:41:17.999Z</time></trkpt><trkpt lat="42.32392702731092" lon="8.660563848438606"><ele>300.0</ele><time>2026-05-01T14:41:18.999Z</time></trkpt><trkpt lat="42.32374340726869" lon="8.660561414312603"><ele>300.0</ele><time>2026-05-01T14:41:19.999Z</time></trkpt><trkpt lat="42.32359594624731" lon="8.660521640837631"><ele>301.0</ele><time>2026-05-01T14:41:20.999Z</time></trkpt><trkpt lat="42.323489789605176" lon="8.660416071338345"><ele>302.0</ele><time>2026-05-01T14:41:21.999Z</time></trkpt><trkpt lat="42.32337544026283" lon="8.66026322314315"><ele>303.0</ele><time>2026-05-01T14:41:22.999Z</time></trkpt><trkpt lat="42.323253785398805" lon="8.660104179659223"><ele>297.0</ele><time>2026-05-01T14:41:23.999Z</time></trkpt><trkpt lat="42.323080705637345" lon="8.660005971986628"><ele>291.0</ele><time>2026-05-01T14:41:24.999Z</time></trkpt><trkpt lat="42.32287923166956" lon="8.659914012486473"><ele>285.0</ele><time>2026-05-01T14:41:25.999Z</time></trkpt><trkpt lat="42.32265723838812" lon="8.659841401051974"><ele>285.0</ele><time>2026-05-01T14:41:26.999Z</time></trkpt><trkpt lat="42.32246092742359" lon="8.659818435165942"><ele>285.0</ele><time>2026-05-01T14:41:27.999Z</time></trkpt><trkpt lat="42.322315124855116" lon="8.659810392682589"><ele>285.0</ele><time>2026-05-01T14:41:28.999Z</time></trkpt><trkpt lat="42.32218538153313" lon="8.659841104743405"><ele>280.0</ele><time>2026-05-01T14:41:29.999Z</time></trkpt><trkpt lat="42.322053021911266" lon="8.659944189873716"><ele>275.0</ele><time>2026-05-01T14:41:30.999Z</time></trkpt><trkpt lat="42.321882098380485" lon="8.660076846667279"><ele>270.0</ele><time>2026-05-01T14:41:31.999Z</time></trkpt><trkpt lat="42.32169505798289" lon="8.660159081859838"><ele>270.0</ele><time>2026-05-01T14:41:32.999Z</time></trkpt><trkpt lat="42.3215352277996" lon="8.660222784584503"><ele>270.0</ele><time>2026-05-01T14:41:33.999Z</time></trkpt><trkpt lat="42.321407393431244" lon="8.660360806059776"><ele>270.0</ele><time>2026-05-01T14:41:34.999Z</time></trkpt><trkpt lat="42.32129498826477" lon="8.660588777309862"><ele>267.6666666666667</ele><time>2026-05-01T14:41:35.999Z</time></trkpt><trkpt lat="42.321198684467134" lon="8.660846669083458"><ele>265.33333333333337</ele><time>2026-05-01T14:41:36.999Z</time></trkpt><trkpt lat="42.321129433443396" lon="8.66111133283191"><ele>263.0</ele><time>2026-05-01T14:41:37.999Z</time></trkpt><trkpt lat="42.32107899953859" lon="8.661376474549565"><ele>268.0</ele><time>2026-05-01T14:41:38.999Z</time></trkpt><trkpt lat="42.32101714405426" lon="8.661589883246592"><ele>273.0</ele><time>2026-05-01T14:41:39.999Z</time></trkpt><trkpt lat="42.3209363964616" lon="8.661739225963212"><ele>278.0</ele><time>2026-05-01T14:41:40.999Z</time></trkpt><trkpt lat="42.320853802989916" lon="8.66185580062061"><ele>283.0</ele><time>2026-05-01T14:41:41.999Z</time></trkpt><trkpt lat="42.320755346788" lon="8.661929986509842"><ele>278.3333333333333</ele><time>2026-05-01T14:41:42.999Z</time></trkpt><trkpt lat="42.320640500939525" lon="8.661961044369036"><ele>273.6666666666667</ele><time>2026-05-01T14:41:43.999Z</time></trkpt><trkpt lat="42.32047978777696" lon="8.661947470896015"><ele>269.0</ele><time>2026-05-01T14:41:44.999Z</time></trkpt><trkpt lat="42.3202743391357" lon="8.661890905004029"><ele>269.0</ele><time>2026-05-01T14:41:45.999Z</time></trkpt><trkpt lat="42.32003746044945" lon="8.661871669944041"><ele>269.0</ele><time>2026-05-01T14:41:46.999Z</time></trkpt><trkpt lat="42.319837165783376" lon="8.66189366277632"><ele>269.0</ele><time>2026-05-01T14:41:47.999Z</time></trkpt><trkpt lat="42.31967211419519" lon="8.66193859165945"><ele>275.6666666666667</ele><time>2026-05-01T14:41:48.999Z</time></trkpt><trkpt lat="42.31952202664921" lon="8.662021979982967"><ele>282.3333333333333</ele><time>2026-05-01T14:41:49.999Z</time></trkpt><trkpt lat="42.31937472369872" lon="8.66217493916486"><ele>289.0</ele><time>2026-05-01T14:41:50.999Z</time></trkpt><trkpt lat="42.319202487781666" lon="8.662339023240317"><ele>289.0</ele><time>2026-05-01T14:41:51.999Z</time></trkpt><trkpt lat="42.31900995218782" lon="8.662431862047708"><ele>289.0</ele><time>2026-05-01T14:41:52.999Z</time></trkpt><trkpt lat="42.31882706023404" lon="8.662461284336795"><ele>289.0</ele><time>2026-05-01T14:41:53.999Z</time></trkpt><trkpt lat="42.318624911357254" lon="8.662431631506255"><ele>289.66666666666663</ele><time>2026-05-01T14:41:54.999Z</time></trkpt><trkpt lat="42.318429713535934" lon="8.662352321103908"><ele>290.3333333333333</ele><time>2026-05-01T14:41:55.999Z</time></trkpt><trkpt lat="42.3182830853678" lon="8.662206837909842"><ele>291.0</ele><time>2026-05-01T14:41:56.999Z</time></trkpt><trkpt lat="42.318167909557744" lon="8.661996282003805"><ele>292.3333333333333</ele><time>2026-05-01T14:41:57.999Z</time></trkpt><trkpt lat="42.31808726245239" lon="8.661737380850385"><ele>293.66666666666663</ele><time>2026-05-01T14:41:58.999Z</time></trkpt><trkpt lat="42.317970782780854" lon="8.661506005298204"><ele>295.0</ele><time>2026-05-01T14:41:59.999Z</time></trkpt><trkpt lat="42.31783334065268" lon="8.661344817905228"><ele>295.0</ele><time>2026-05-01T14:42:00.999Z</time></trkpt><trkpt lat="42.31769061422695" lon="8.661234499392913"><ele>295.0</ele><time>2026-05-01T14:42:01.999Z</time></trkpt><trkpt lat="42.317539932955555" lon="8.661187997721495"><ele>295.0</ele><time>2026-05-01T14:42:02.999Z</time></trkpt><trkpt lat="42.31735438671523" lon="8.661166563146244"><ele>290.66666666666663</ele><time>2026-05-01T14:42:03.999Z</time></trkpt><trkpt lat="42.3171653107634" lon="8.661072859822195"><ele>286.3333333333333</ele><time>2026-05-01T14:42:04.999Z</time></trkpt><trkpt lat="42.31698324325862" lon="8.660928279217968"><ele>282.0</ele><time>2026-05-01T14:42:05.999Z</time></trkpt><trkpt lat="42.31680196717493" lon="8.660803805220045"><ele>282.0</ele><time>2026-05-01T14:42:06.999Z</time></trkpt><trkpt lat="42.316610189802496" lon="8.66073589779028"><ele>282.0</ele><time>2026-05-01T14:42:08Z</time></trkpt><trkpt lat="42.3164280721296" lon="8.660698992520981"><ele>282.0</ele><time>2026-05-01T14:42:09Z</time></trkpt><trkpt lat="42.31628166946386" lon="8.660682630932266"><ele>281.8</ele><time>2026-05-01T14:42:10Z</time></trkpt><trkpt lat="42.31617801054749" lon="8.660704485951205"><ele>281.6</ele><time>2026-05-01T14:42:11Z</time></trkpt><trkpt lat="42.316118803761064" lon="8.660799392370606"><ele>281.40000000000003</ele><time>2026-05-01T14:42:12Z</time></trkpt><trkpt lat="42.31609325749898" lon="8.6609549086117"><ele>281.2</ele><time>2026-05-01T14:42:13Z</time></trkpt><trkpt lat="42.31612550932008" lon="8.661120692769897"><ele>281.0</ele><time>2026-05-01T14:42:14Z</time></trkpt><trkpt lat="42.31621571577453" lon="8.661292789703714"><ele>281.33333333333337</ele><time>2026-05-01T14:42:15Z</time></trkpt><trkpt lat="42.31634790570699" lon="8.661484829403097"><ele>281.6666666666667</ele><time>2026-05-01T14:42:16Z</time></trkpt><trkpt lat="42.31647321871312" lon="8.661730307710164"><ele>282.0</ele><time>2026-05-01T14:42:17Z</time></trkpt><trkpt lat="42.3165720329243" lon="8.662023150260422"><ele>282.0</ele><time>2026-05-01T14:42:18Z</time></trkpt><trkpt lat="42.31664070989153" lon="8.662353432236275"><ele>282.0</ele><time>2026-05-01T14:42:19Z</time></trkpt><trkpt lat="42.31667120604082" lon="8.662711013508448"><ele>277.0</ele><time>2026-05-01T14:42:20Z</time></trkpt><trkpt lat="42.31669350223725" lon="8.663044947495175"><ele>272.0</ele><time>2026-05-01T14:42:21Z</time></trkpt><trkpt lat="42.31675627510722" lon="8.66335008080139"><ele>265.5</ele><time>2026-05-01T14:42:22Z</time></trkpt><trkpt lat="42.316876864076235" lon="8.663664860792128"><ele>259.0</ele><time>2026-05-01T14:42:23Z</time></trkpt><trkpt lat="42.31700487124138" lon="8.664001160684991"><ele>259.0</ele><time>2026-05-01T14:42:24Z</time></trkpt><trkpt lat="42.31709777110066" lon="8.664376884812656"><ele>259.0</ele><time>2026-05-01T14:42:25Z</time></trkpt><trkpt lat="42.31715568779086" lon="8.664725514713892"><ele>255.5</ele><time>2026-05-01T14:42:26Z</time></trkpt><trkpt lat="42.31720632614021" lon="8.665052350869216"><ele>252.0</ele><time>2026-05-01T14:42:27Z</time></trkpt><trkpt lat="42.31722605552029" lon="8.665367850471057"><ele>251.5</ele><time>2026-05-01T14:42:28Z</time></trkpt><trkpt lat="42.31719130446126" lon="8.665670944569593"><ele>251.0</ele><time>2026-05-01T14:42:29Z</time></trkpt><trkpt lat="42.317119450344556" lon="8.665957053756495"><ele>253.0</ele><time>2026-05-01T14:42:30Z</time></trkpt><trkpt lat="42.317041700717304" lon="8.666184422695293"><ele>255.0</ele><time>2026-05-01T14:42:31Z</time></trkpt><trkpt lat="42.31700462483026" lon="8.666365301116322"><ele>257.0</ele><time>2026-05-01T14:42:32Z</time></trkpt><trkpt lat="42.317029545359404" lon="8.666535588044049"><ele>257.0</ele><time>2026-05-01T14:42:33Z</time></trkpt><trkpt lat="42.31711593640228" lon="8.666734318876577"><ele>257.0</ele><time>2026-05-01T14:42:34Z</time></trkpt><trkpt lat="42.31724575233909" lon="8.666968584753262"><ele>257.0</ele><time>2026-05-01T14:42:35Z</time></trkpt><trkpt lat="42.31740246627273" lon="8.667212444630474"><ele>259.0</ele><time>2026-05-01T14:42:36Z</time></trkpt><trkpt lat="42.31756812225988" lon="8.667434867832936"><ele>261.0</ele><time>2026-05-01T14:42:37Z</time></trkpt><trkpt lat="42.317709692388895" lon="8.667578340844843"><ele>263.0</ele><time>2026-05-01T14:42:38Z</time></trkpt><trkpt lat="42.317820574776775" lon="8.667645387708141"><ele>263.0</ele><time>2026-05-01T14:42:39Z</time></trkpt><trkpt lat="42.31791214131606" lon="8.667650647328891"><ele>263.0</ele><time>2026-05-01T14:42:40Z</time></trkpt><trkpt lat="42.31801126194912" lon="8.667579915006353"><ele>263.0</ele><time>2026-05-01T14:42:41Z</time></trkpt><trkpt lat="42.31811814207663" lon="8.667429447374662"><ele>263.0</ele><time>2026-05-01T14:42:42Z</time></trkpt><trkpt lat="42.31822084581996" lon="8.667214351995497"><ele>260.33333333333337</ele><time>2026-05-01T14:42:43Z</time></trkpt><trkpt lat="42.31834019241624" lon="8.666972924263774"><ele>257.6666666666667</ele><time>2026-05-01T14:42:44Z</time></trkpt><trkpt lat="42.318471012882796" lon="8.666772212049862"><ele>255.0</ele><time>2026-05-01T14:42:45Z</time></trkpt><trkpt lat="42.318658692099376" lon="8.666631030687958"><ele>257.0</ele><time>2026-05-01T14:42:46Z</time></trkpt><trkpt lat="42.31885619583438" lon="8.666526546308063"><ele>259.0</ele><time>2026-05-01T14:42:47Z</time></trkpt><trkpt lat="42.319062634355255" lon="8.666473096374318"><ele>261.0</ele><time>2026-05-01T14:42:48Z</time></trkpt><trkpt lat="42.31926514161929" lon="8.666464786812114"><ele>261.0</ele><time>2026-05-01T14:42:49Z</time></trkpt><trkpt lat="42.31942770525109" lon="8.666506455574577"><ele>261.0</ele><time>2026-05-01T14:42:50Z</time></trkpt><trkpt lat="42.31956561032915" lon="8.666589434408108"><ele>261.0</ele><time>2026-05-01T14:42:51Z</time></trkpt><trkpt lat="42.31967363499361" lon="8.66674522664088"><ele>260.6666666666667</ele><time>2026-05-01T14:42:52Z</time></trkpt><trkpt lat="42.31975991857585" lon="8.666948500141656"><ele>260.33333333333337</ele><time>2026-05-01T14:42:53Z</time></trkpt><trkpt lat="42.31983978945465" lon="8.667144488477105"><ele>260.0</ele><time>2026-05-01T14:42:54Z</time></trkpt><trkpt lat="42.31989952638319" lon="8.667294959685744"><ele>260.0</ele><time>2026-05-01T14:42:55Z</time></trkpt><trkpt lat="42.319955467715765" lon="8.66741737279879"><ele>260.0</ele><time>2026-05-01T14:42:56Z</time></trkpt><trkpt lat="42.32001438426047" lon="8.667560319342734"><ele>260.0</ele><time>2026-05-01T14:42:57Z</time></trkpt><trkpt lat="42.32008381383775" lon="8.667714809785313"><ele>260.0</ele><time>2026-05-01T14:42:58Z</time></trkpt><trkpt lat="42.32016655088321" lon="8.667865893436828"><ele>259.25</ele><time>2026-05-01T14:42:58.999Z</time></trkpt><trkpt lat="42.320252325969356" lon="8.667988260927697"><ele>258.5</ele><time>2026-05-01T14:42:59.999Z</time></trkpt><trkpt lat="42.320340986689054" lon="8.668078976636528"><ele>257.75</ele><time>2026-05-01T14:43:00.999Z</time></trkpt><trkpt lat="42.32044767448829" lon="8.668183082922248"><ele>257.0</ele><time>2026-05-01T14:43:01.999Z</time></trkpt><trkpt lat="42.32057812336725" lon="8.668293676235406"><ele>257.0</ele><time>2026-05-01T14:43:02.999Z</time></trkpt><trkpt lat="42.320713166344234" lon="8.668398690123464"><ele>257.0</ele><time>2026-05-01T14:43:03.999Z</time></trkpt><trkpt lat="42.32084541512879" lon="8.668446472088212"><ele>257.0</ele><time>2026-05-01T14:43:04.999Z</time></trkpt><trkpt lat="42.320962804397816" lon="8.668439563740927"><ele>257.0</ele><time>2026-05-01T14:43:05.999Z</time></trkpt><trkpt lat="42.32106130525962" lon="8.668420330892891"><ele>257.0</ele><time>2026-05-01T14:43:06.999Z</time></trkpt><trkpt lat="42.3211656469622" lon="8.668415045996294"><ele>257.0</ele><time>2026-05-01T14:43:07.999Z</time></trkpt><trkpt lat="42.3212586697561" lon="8.668450115951762"><ele>257.0</ele><time>2026-05-01T14:43:08.999Z</time></trkpt><trkpt lat="42.321326196443955" lon="8.668534951865995"><ele>257.0</ele><time>2026-05-01T14:43:09.999Z</time></trkpt><trkpt lat="42.321347068485814" lon="8.66864628159944"><ele>257.0</ele><time>2026-05-01T14:43:10.999Z</time></trkpt><trkpt lat="42.32131610672699" lon="8.668780999498988"><ele>253.5</ele><time>2026-05-01T14:43:11.999Z</time></trkpt><trkpt lat="42.3212437266855" lon="8.668926275041498"><ele>250.0</ele><time>2026-05-01T14:43:12.999Z</time></trkpt><trkpt lat="42.32118505170472" lon="8.669079354379832"><ele>246.5</ele><time>2026-05-01T14:43:13.999Z</time></trkpt><trkpt lat="42.321190258080634" lon="8.669240656741364"><ele>243.0</ele><time>2026-05-01T14:43:14.999Z</time></trkpt><trkpt lat="42.3212016467373" lon="8.669415524886704"><ele>245.25</ele><time>2026-05-01T14:43:15.999Z</time></trkpt><trkpt lat="42.3211620928537" lon="8.669545293821155"><ele>247.5</ele><time>2026-05-01T14:43:16.999Z</time></trkpt><trkpt lat="42.321053161705166" lon="8.669604320873695"><ele>249.75</ele><time>2026-05-01T14:43:17.999Z</time></trkpt><trkpt lat="42.320907234936385" lon="8.669616676587692"><ele>252.0</ele><time>2026-05-01T14:43:18.999Z</time></trkpt><trkpt lat="42.32078129159165" lon="8.669663615056283"><ele>252.0</ele><time>2026-05-01T14:43:19.999Z</time></trkpt><trkpt lat="42.32069505749843" lon="8.66979791161396"><ele>252.0</ele><time>2026-05-01T14:43:20.999Z</time></trkpt><trkpt lat="42.32061914171995" lon="8.670011376667343"><ele>252.0</ele><time>2026-05-01T14:43:21.999Z</time></trkpt><trkpt lat="42.320524764950335" lon="8.670230334177884"><ele>252.33333333333331</ele><time>2026-05-01T14:43:22.999Z</time></trkpt><trkpt lat="42.32040131762317" lon="8.670403937108942"><ele>252.66666666666666</ele><time>2026-05-01T14:43:23.999Z</time></trkpt><trkpt lat="42.32027209333318" lon="8.670488504909839"><ele>253.0</ele><time>2026-05-01T14:43:24.999Z</time></trkpt><trkpt lat="42.3201230709277" lon="8.670494710866326"><ele>253.0</ele><time>2026-05-01T14:43:25.999Z</time></trkpt><trkpt lat="42.31995445063745" lon="8.670452465435863"><ele>253.0</ele><time>2026-05-01T14:43:26.999Z</time></trkpt><trkpt lat="42.31978418974672" lon="8.670474002785623"><ele>253.0</ele><time>2026-05-01T14:43:27.999Z</time></trkpt><trkpt lat="42.31963332004044" lon="8.670574485386785"><ele>245.66666666666666</ele><time>2026-05-01T14:43:28.999Z</time></trkpt><trkpt lat="42.31949808913428" lon="8.670740936096598"><ele>238.33333333333331</ele><time>2026-05-01T14:43:29.999Z</time></trkpt><trkpt lat="42.31939708364487" lon="8.670922817744698"><ele>231.0</ele><time>2026-05-01T14:43:30.999Z</time></trkpt><trkpt lat="42.319300135358716" lon="8.671093939676236"><ele>237.66666666666669</ele><time>2026-05-01T14:43:31.999Z</time></trkpt><trkpt lat="42.31917666043458" lon="8.671291856889777"><ele>244.33333333333334</ele><time>2026-05-01T14:43:32.999Z</time></trkpt><trkpt lat="42.31906365294385" lon="8.671461482721007"><ele>251.0</ele><time>2026-05-01T14:43:33.999Z</time></trkpt><trkpt lat="42.31892315648066" lon="8.671585296350088"><ele>246.0</ele><time>2026-05-01T14:43:34.999Z</time></trkpt><trkpt lat="42.318771067743754" lon="8.671635713019127"><ele>241.0</ele><time>2026-05-01T14:43:35.999Z</time></trkpt><trkpt lat="42.3185752112949" lon="8.671620160584048"><ele>236.0</ele><time>2026-05-01T14:43:36.999Z</time></trkpt><trkpt lat="42.3183383006724" lon="8.671588699179573"><ele>236.0</ele><time>2026-05-01T14:43:37.999Z</time></trkpt><trkpt lat="42.31808191934598" lon="8.671624142994922"><ele>236.0</ele><time>2026-05-01T14:43:38.999Z</time></trkpt><trkpt lat="42.31783568562453" lon="8.671712601246567"><ele>243.5</ele><time>2026-05-01T14:43:39.999Z</time></trkpt><trkpt lat="42.31759699078265" lon="8.671854108732624"><ele>251.0</ele><time>2026-05-01T14:43:40.999Z</time></trkpt><trkpt lat="42.3173521222707" lon="8.672025133101503"><ele>238.5</ele><time>2026-05-01T14:43:41.999Z</time></trkpt><trkpt lat="42.31713239820617" lon="8.672195280977363"><ele>226.0</ele><time>2026-05-01T14:43:42.999Z</time></trkpt><trkpt lat="42.316962332317466" lon="8.672349844419081"><ele>226.0</ele><time>2026-05-01T14:43:43.999Z</time></trkpt><trkpt lat="42.316846199259636" lon="8.672479740940208"><ele>226.0</ele><time>2026-05-01T14:43:44.999Z</time></trkpt><trkpt lat="42.31677534413082" lon="8.672619666120886"><ele>226.0</ele><time>2026-05-01T14:43:45.999Z</time></trkpt><trkpt lat="42.316771753299975" lon="8.67278482060169"><ele>226.0</ele><time>2026-05-01T14:43:46.999Z</time></trkpt><trkpt lat="42.31682421980622" lon="8.672968270353374"><ele>222.0</ele><time>2026-05-01T14:43:47.999Z</time></trkpt><trkpt lat="42.31692770475972" lon="8.673142166046016"><ele>218.0</ele><time>2026-05-01T14:43:48.999Z</time></trkpt><trkpt lat="42.31708777464481" lon="8.673318314331242"><ele>214.0</ele><time>2026-05-01T14:43:49.999Z</time></trkpt><trkpt lat="42.31728619413691" lon="8.6734952303458"><ele>219.0</ele><time>2026-05-01T14:43:50.999Z</time></trkpt><trkpt lat="42.31747565252409" lon="8.673735870231347"><ele>224.0</ele><time>2026-05-01T14:43:51.999Z</time></trkpt><trkpt lat="42.31762756354812" lon="8.674022735977799"><ele>224.0</ele><time>2026-05-01T14:43:52.999Z</time></trkpt><trkpt lat="42.31773811979855" lon="8.67431313262226"><ele>224.0</ele><time>2026-05-01T14:43:53.999Z</time></trkpt><trkpt lat="42.317800036960236" lon="8.674569981688721"><ele>224.0</ele><time>2026-05-01T14:43:54.999Z</time></trkpt><trkpt lat="42.317870972767196" lon="8.674773680810604"><ele>223.66666666666669</ele><time>2026-05-01T14:43:55.999Z</time></trkpt><trkpt lat="42.31800948500079" lon="8.674932878667125"><ele>223.33333333333331</ele><time>2026-05-01T14:43:56.999Z</time></trkpt><trkpt lat="42.3181914768917" lon="8.675095270658453"><ele>223.0</ele><time>2026-05-01T14:43:57.999Z</time></trkpt><trkpt lat="42.31830843603444" lon="8.675284096917066"><ele>223.0</ele><time>2026-05-01T14:43:58.999Z</time></trkpt><trkpt lat="42.31835401952251" lon="8.675523298625917"><ele>223.0</ele><time>2026-05-01T14:43:59.999Z</time></trkpt><trkpt lat="42.318348628713174" lon="8.675789518951296"><ele>223.0</ele><time>2026-05-01T14:44:00.999Z</time></trkpt><trkpt lat="42.318368360481806" lon="8.676016390837566"><ele>218.0</ele><time>2026-05-01T14:44:01.999Z</time></trkpt><trkpt lat="42.31846955514559" lon="8.676180756103996"><ele>213.0</ele><time>2026-05-01T14:44:02.999Z</time></trkpt><trkpt lat="42.31862721708012" lon="8.67632387923324"><ele>208.0</ele><time>2026-05-01T14:44:03.999Z</time></trkpt><trkpt lat="42.318777835272144" lon="8.6764697146589"><ele>208.0</ele><time>2026-05-01T14:44:04.999Z</time></trkpt><trkpt lat="42.31885058556714" lon="8.676672396366381"><ele>208.0</ele><time>2026-05-01T14:44:05.999Z</time></trkpt><trkpt lat="42.318866739250026" lon="8.676919478491815"><ele>208.0</ele><time>2026-05-01T14:44:06.999Z</time></trkpt><trkpt lat="42.3189244400014" lon="8.67716029509934"><ele>212.33333333333331</ele><time>2026-05-01T14:44:07.999Z</time></trkpt><trkpt lat="42.31905357289154" lon="8.677363908915586"><ele>216.66666666666669</ele><time>2026-05-01T14:44:08.999Z</time></trkpt><trkpt lat="42.31920144618658" lon="8.677507920818105"><ele>221.0</ele><time>2026-05-01T14:44:09.999Z</time></trkpt><trkpt lat="42.31930216013813" lon="8.67760897615646"><ele>221.0</ele><time>2026-05-01T14:44:10.999Z</time></trkpt><trkpt lat="42.31931286558575" lon="8.677732009469715"><ele>221.0</ele><time>2026-05-01T14:44:11.999Z</time></trkpt><trkpt lat="42.31924641558618" lon="8.677863494425393"><ele>221.0</ele><time>2026-05-01T14:44:12.999Z</time></trkpt><trkpt lat="42.31911765331476" lon="8.677999972151275"><ele>221.0</ele><time>2026-05-01T14:44:14Z</time></trkpt><trkpt lat="42.31895652903217" lon="8.678113313473279"><ele>226.33333333333334</ele><time>2026-05-01T14:44:15Z</time></trkpt><trkpt lat="42.31879475572783" lon="8.678125163483534"><ele>231.66666666666669</ele><time>2026-05-01T14:44:16Z</time></trkpt><trkpt lat="42.31861813721506" lon="8.678025983879326"><ele>237.0</ele><time>2026-05-01T14:44:17Z</time></trkpt><trkpt lat="42.31843882516533" lon="8.677866160558564"><ele>230.5</ele><time>2026-05-01T14:44:18Z</time></trkpt><trkpt lat="42.318239074560566" lon="8.677708955021544"><ele>224.0</ele><time>2026-05-01T14:44:19Z</time></trkpt><trkpt lat="42.317993868067106" lon="8.677576512769681"><ele>224.0</ele><time>2026-05-01T14:44:20Z</time></trkpt><trkpt lat="42.31776333722334" lon="8.677439215212734"><ele>224.0</ele><time>2026-05-01T14:44:21Z</time></trkpt><trkpt lat="42.317583504888646" lon="8.677297330011998"><ele>224.0</ele><time>2026-05-01T14:44:22Z</time></trkpt><trkpt lat="42.31742959361548" lon="8.677152707766155"><ele>224.0</ele><time>2026-05-01T14:44:23Z</time></trkpt><trkpt lat="42.31727918694018" lon="8.67701814578179"><ele>224.0</ele><time>2026-05-01T14:44:24Z</time></trkpt><trkpt lat="42.31710340638268" lon="8.67692457956425"><ele>219.33333333333334</ele><time>2026-05-01T14:44:25Z</time></trkpt><trkpt lat="42.31688994128937" lon="8.676889909136658"><ele>214.66666666666669</ele><time>2026-05-01T14:44:26Z</time></trkpt><trkpt lat="42.31666305772202" lon="8.676838088896627"><ele>210.0</ele><time>2026-05-01T14:44:27Z</time></trkpt><trkpt lat="42.31642680038171" lon="8.676726278717037"><ele>214.5</ele><time>2026-05-01T14:44:28Z</time></trkpt><trkpt lat="42.316177594394816" lon="8.676600582713824"><ele>219.0</ele><time>2026-05-01T14:44:29Z</time></trkpt><trkpt lat="42.3159349478595" lon="8.676494945323205"><ele>219.0</ele><time>2026-05-01T14:44:30Z</time></trkpt><trkpt lat="42.31571564288751" lon="8.67640571471444"><ele>219.0</ele><time>2026-05-01T14:44:31Z</time></trkpt><trkpt lat="42.31552157756174" lon="8.676339916306077"><ele>219.0</ele><time>2026-05-01T14:44:32Z</time></trkpt><trkpt lat="42.315344833747574" lon="8.676313385858194"><ele>217.25</ele><time>2026-05-01T14:44:33Z</time></trkpt><trkpt lat="42.315192395218524" lon="8.676326747104712"><ele>215.5</ele><time>2026-05-01T14:44:34Z</time></trkpt><trkpt lat="42.315075556846224" lon="8.676378511964584"><ele>213.75</ele><time>2026-05-01T14:44:35Z</time></trkpt><trkpt lat="42.314996811465925" lon="8.676480485552238"><ele>212.0</ele><time>2026-05-01T14:44:36Z</time></trkpt><trkpt lat="42.314963720471304" lon="8.676623833428208"><ele>212.0</ele><time>2026-05-01T14:44:37Z</time></trkpt><trkpt lat="42.314973065160345" lon="8.67678002180159"><ele>212.0</ele><time>2026-05-01T14:44:38Z</time></trkpt><trkpt lat="42.31503451689277" lon="8.676934817084446"><ele>212.0</ele><time>2026-05-01T14:44:39Z</time></trkpt><trkpt lat="42.31514629969361" lon="8.67709162593061"><ele>212.0</ele><time>2026-05-01T14:44:40Z</time></trkpt><trkpt lat="42.31527718136591" lon="8.677251834285654"><ele>208.33333333333334</ele><time>2026-05-01T14:44:41Z</time></trkpt><trkpt lat="42.31540490330155" lon="8.6774313730999"><ele>204.66666666666669</ele><time>2026-05-01T14:44:42Z</time></trkpt><trkpt lat="42.31549873721397" lon="8.677643606515572"><ele>201.0</ele><time>2026-05-01T14:44:43Z</time></trkpt><trkpt lat="42.315538121133386" lon="8.677897498307974"><ele>205.66666666666669</ele><time>2026-05-01T14:44:44Z</time></trkpt><trkpt lat="42.3155616487978" lon="8.678160817585892"><ele>210.33333333333334</ele><time>2026-05-01T14:44:45Z</time></trkpt><trkpt lat="42.31561849053633" lon="8.678424738053303"><ele>215.0</ele><time>2026-05-01T14:44:46Z</time></trkpt><trkpt lat="42.31571569580957" lon="8.678685629114245"><ele>215.0</ele><time>2026-05-01T14:44:47Z</time></trkpt><trkpt lat="42.315824940875345" lon="8.678948982298227"><ele>215.0</ele><time>2026-05-01T14:44:48Z</time></trkpt><trkpt lat="42.31593938931227" lon="8.679212611473924"><ele>215.0</ele><time>2026-05-01T14:44:49Z</time></trkpt><trkpt lat="42.31606016988695" lon="8.67945886381165"><ele>220.0</ele><time>2026-05-01T14:44:50Z</time></trkpt><trkpt lat="42.31621017150195" lon="8.679663920903282"><ele>225.0</ele><time>2026-05-01T14:44:51Z</time></trkpt><trkpt lat="42.31637455256521" lon="8.679829078424463"><ele>230.0</ele><time>2026-05-01T14:44:52Z</time></trkpt><trkpt lat="42.31651636157576" lon="8.680001928355155"><ele>230.0</ele><time>2026-05-01T14:44:53Z</time></trkpt><trkpt lat="42.316621745006096" lon="8.680199802664895"><ele>230.0</ele><time>2026-05-01T14:44:54Z</time></trkpt><trkpt lat="42.316700635493326" lon="8.680403537261512"><ele>230.0</ele><time>2026-05-01T14:44:55Z</time></trkpt><trkpt lat="42.316739940463805" lon="8.680598745432283"><ele>230.5</ele><time>2026-05-01T14:44:56Z</time></trkpt><trkpt lat="42.31672191468554" lon="8.680788983812937"><ele>231.0</ele><time>2026-05-01T14:44:57Z</time></trkpt><trkpt lat="42.316651062671234" lon="8.68095820753271"><ele>231.5</ele><time>2026-05-01T14:44:58Z</time></trkpt><trkpt lat="42.316538194976786" lon="8.681098234582631"><ele>232.0</ele><time>2026-05-01T14:44:59Z</time></trkpt><trkpt lat="42.316379638687884" lon="8.681185183421375"><ele>232.0</ele><time>2026-05-01T14:45:00Z</time></trkpt><trkpt lat="42.316179061207336" lon="8.681226226899174"><ele>232.0</ele><time>2026-05-01T14:45:01Z</time></trkpt><trkpt lat="42.31596245196169" lon="8.6812564300689"><ele>232.0</ele><time>2026-05-01T14:45:02Z</time></trkpt><trkpt lat="42.31574290580931" lon="8.681284213242765"><ele>229.33333333333331</ele><time>2026-05-01T14:45:03Z</time></trkpt><trkpt lat="42.31553478129918" lon="8.681321434977063"><ele>226.66666666666669</ele><time>2026-05-01T14:45:04Z</time></trkpt><trkpt lat="42.315340651612324" lon="8.681349866122858"><ele>224.0</ele><time>2026-05-01T14:45:05Z</time></trkpt><trkpt lat="42.31515865422553" lon="8.68133614804199"><ele>224.0</ele><time>2026-05-01T14:45:06Z</time></trkpt><trkpt lat="42.314998718735396" lon="8.681277406575418"><ele>224.0</ele><time>2026-05-01T14:45:07Z</time></trkpt><trkpt lat="42.31487288998032" lon="8.68122195582972"><ele>224.0</ele><time>2026-05-01T14:45:08Z</time></trkpt><trkpt lat="42.31477860365052" lon="8.681223991301893"><ele>224.0</ele><time>2026-05-01T14:45:09Z</time></trkpt><trkpt lat="42.31469667867942" lon="8.681311067645067"><ele>216.0</ele><time>2026-05-01T14:45:10Z</time></trkpt><trkpt lat="42.31460748327444" lon="8.68147728245938"><ele>208.0</ele><time>2026-05-01T14:45:10.999Z</time></trkpt><trkpt lat="42.31450628780876" lon="8.68166606880273"><ele>200.0</ele><time>2026-05-01T14:45:11.999Z</time></trkpt><trkpt lat="42.31439289673512" lon="8.681868115960729"><ele>205.33333333333334</ele><time>2026-05-01T14:45:12.999Z</time></trkpt><trkpt lat="42.31428275638415" lon="8.68208943035994"><ele>210.66666666666669</ele><time>2026-05-01T14:45:13.999Z</time></trkpt><trkpt lat="42.314206308805694" lon="8.6823303190621"><ele>216.0</ele><time>2026-05-01T14:45:14.999Z</time></trkpt><trkpt lat="42.31416155683438" lon="8.682561393577634"><ele>216.0</ele><time>2026-05-01T14:45:15.999Z</time></trkpt><trkpt lat="42.31412017935421" lon="8.682763784072884"><ele>216.0</ele><time>2026-05-01T14:45:16.999Z</time></trkpt><trkpt lat="42.31404772884113" lon="8.682942248447972"><ele>216.0</ele><time>2026-05-01T14:45:17.999Z</time></trkpt><trkpt lat="42.313952597727805" lon="8.683076470710432"><ele>216.0</ele><time>2026-05-01T14:45:18.999Z</time></trkpt><trkpt lat="42.313850443176236" lon="8.683191426111105"><ele>217.60000000000002</ele><time>2026-05-01T14:45:19.999Z</time></trkpt><trkpt lat="42.3137613991534" lon="8.683271950934683"><ele>219.20000000000002</ele><time>2026-05-01T14:45:20.999Z</time></trkpt><trkpt lat="42.31366103397608" lon="8.683310959284878"><ele>220.79999999999998</ele><time>2026-05-01T14:45:21.999Z</time></trkpt><trkpt lat="42.31355789207955" lon="8.68328486427902"><ele>222.39999999999998</ele><time>2026-05-01T14:45:22.999Z</time></trkpt><trkpt lat="42.31347084241798" lon="8.683207399469108"><ele>224.0</ele><time>2026-05-01T14:45:23.999Z</time></trkpt><trkpt lat="42.31340222303289" lon="8.68314953262733"><ele>224.0</ele><time>2026-05-01T14:45:24.999Z</time></trkpt><trkpt lat="42.313329748909034" lon="8.683125112514436"><ele>223.99999999999997</ele><time>2026-05-01T14:45:25.999Z</time></trkpt><trkpt lat="42.31325262263868" lon="8.683097664675104"><ele>223.99999999999997</ele><time>2026-05-01T14:45:26.999Z</time></trkpt><trkpt lat="42.31315830689671" lon="8.683038175607026"><ele>224.0</ele><time>2026-05-01T14:45:27.999Z</time></trkpt><trkpt lat="42.31306724366269" lon="8.682929495919248"><ele>224.0</ele><time>2026-05-01T14:45:28.999Z</time></trkpt><trkpt lat="42.31297171356199" lon="8.682766992566354"><ele>225.33333333333334</ele><time>2026-05-01T14:45:29.999Z</time></trkpt><trkpt lat="42.312854362113086" lon="8.682559902072976"><ele>226.66666666666669</ele><time>2026-05-01T14:45:30.999Z</time></trkpt><trkpt lat="42.31272418735768" lon="8.682343238464478"><ele>228.0</ele><time>2026-05-01T14:45:31.999Z</time></trkpt><trkpt lat="42.31261287377943" lon="8.682135491946186"><ele>228.0</ele><time>2026-05-01T14:45:32.999Z</time></trkpt><trkpt lat="42.31253102903096" lon="8.681971526705397"><ele>228.0</ele><time>2026-05-01T14:45:33.999Z</time></trkpt><trkpt lat="42.31245476215637" lon="8.681836885720228"><ele>228.0</ele><time>2026-05-01T14:45:34.999Z</time></trkpt><trkpt lat="42.312368801219" lon="8.681732120113072"><ele>228.0</ele><time>2026-05-01T14:45:35.999Z</time></trkpt><trkpt lat="42.31229481690047" lon="8.681667502614674"><ele>226.4</ele><time>2026-05-01T14:45:36.999Z</time></trkpt><trkpt lat="42.31222434140074" lon="8.681615429303578"><ele>224.8</ele><time>2026-05-01T14:45:37.999Z</time></trkpt><trkpt lat="42.31214842305421" lon="8.68156452033747"><ele>223.2</ele><time>2026-05-01T14:45:38.999Z</time></trkpt><trkpt lat="42.31206708304477" lon="8.681512204391161"><ele>221.6</ele><time>2026-05-01T14:45:39.999Z</time></trkpt><trkpt lat="42.311971317405046" lon="8.68146586433001"><ele>220.0</ele><time>2026-05-01T14:45:40.999Z</time></trkpt><trkpt lat="42.31186034782485" lon="8.681433792951664"><ele>220.0</ele><time>2026-05-01T14:45:41.999Z</time></trkpt><trkpt lat="42.311737007836996" lon="8.681403196861405"><ele>220.0</ele><time>2026-05-01T14:45:42.999Z</time></trkpt><trkpt lat="42.31160830843561" lon="8.681362159776024"><ele>220.0</ele><time>2026-05-01T14:45:43.999Z</time></trkpt><trkpt lat="42.31148616522811" lon="8.681326973451778"><ele>220.0</ele><time>2026-05-01T14:45:44.999Z</time></trkpt><trkpt lat="42.31137411763727" lon="8.68132105688393"><ele>214.75</ele><time>2026-05-01T14:45:45.999Z</time></trkpt><trkpt lat="42.31127541332588" lon="8.68139480760317"><ele>209.5</ele><time>2026-05-01T14:45:46.999Z</time></trkpt><trkpt lat="42.311197487269006" lon="8.681538447968936"><ele>204.25</ele><time>2026-05-01T14:45:47.999Z</time></trkpt><trkpt lat="42.311137294140366" lon="8.681706426925139"><ele>199.0</ele><time>2026-05-01T14:45:48.999Z</time></trkpt><trkpt lat="42.311093499288354" lon="8.681857863763865"><ele>202.79999999999998</ele><time>2026-05-01T14:45:49.999Z</time></trkpt><trkpt lat="42.31104180821042" lon="8.681990377416664"><ele>206.6</ele><time>2026-05-01T14:45:50.999Z</time></trkpt><trkpt lat="42.31099360788541" lon="8.682113935649769"><ele>210.4</ele><time>2026-05-01T14:45:51.999Z</time></trkpt><trkpt lat="42.310946265915376" lon="8.682234765414833"><ele>214.2</ele><time>2026-05-01T14:45:52.999Z</time></trkpt><trkpt lat="42.31089820476236" lon="8.682353301901118"><ele>218.0</ele><time>2026-05-01T14:45:53.999Z</time></trkpt><trkpt lat="42.31085154394699" lon="8.682472027193667"><ele>218.0</ele><time>2026-05-01T14:45:54.999Z</time></trkpt><trkpt lat="42.310804646811626" lon="8.682596143440216"><ele>218.0</ele><time>2026-05-01T14:45:55.999Z</time></trkpt><trkpt lat="42.31074474973525" lon="8.682712577903018"><ele>218.0</ele><time>2026-05-01T14:45:56.999Z</time></trkpt><trkpt lat="42.310663968481144" lon="8.682818764348225"><ele>218.0</ele><time>2026-05-01T14:45:57.999Z</time></trkpt><trkpt lat="42.310570955293976" lon="8.682906650836857"><ele>218.0</ele><time>2026-05-01T14:45:58.999Z</time></trkpt><trkpt lat="42.3104815735218" lon="8.682961507798678"><ele>220.5</ele><time>2026-05-01T14:45:59.999Z</time></trkpt><trkpt lat="42.31038372104739" lon="8.682985533869656"><ele>223.0</ele><time>2026-05-01T14:46:00.999Z</time></trkpt><trkpt lat="42.31026198185335" lon="8.682954515558457"><ele>225.5</ele><time>2026-05-01T14:46:01.999Z</time></trkpt><trkpt lat="42.310134572661894" lon="8.68287213281582"><ele>228.0</ele><time>2026-05-01T14:46:02.999Z</time></trkpt><trkpt lat="42.31000052998103" lon="8.682779798298434"><ele>228.25</ele><time>2026-05-01T14:46:03.999Z</time></trkpt><trkpt lat="42.30985308740162" lon="8.682721058191655"><ele>228.5</ele><time>2026-05-01T14:46:04.999Z</time></trkpt><trkpt lat="42.30970607294002" lon="8.682703362757165"><ele>228.75</ele><time>2026-05-01T14:46:05.999Z</time></trkpt><trkpt lat="42.30958921483781" lon="8.682734825919418"><ele>229.0</ele><time>2026-05-01T14:46:06.999Z</time></trkpt><trkpt lat="42.30950018399099" lon="8.682806230570382"><ele>229.0</ele><time>2026-05-01T14:46:07.999Z</time></trkpt><trkpt lat="42.309430473810444" lon="8.682899126338357"><ele>228.99999999999997</ele><time>2026-05-01T14:46:08.999Z</time></trkpt><trkpt lat="42.309365677620875" lon="8.682987492257581"><ele>228.99999999999997</ele><time>2026-05-01T14:46:09.999Z</time></trkpt><trkpt lat="42.30927566229821" lon="8.683021862828845"><ele>229.0</ele><time>2026-05-01T14:46:10.999Z</time></trkpt><trkpt lat="42.309165590543245" lon="8.683000971976897"><ele>229.0</ele><time>2026-05-01T14:46:11.999Z</time></trkpt><trkpt lat="42.3090617054553" lon="8.682910107018207"><ele>229.5</ele><time>2026-05-01T14:46:12.999Z</time></trkpt><trkpt lat="42.30898489576227" lon="8.68276137403143"><ele>230.0</ele><time>2026-05-01T14:46:13.999Z</time></trkpt><trkpt lat="42.30890861621808" lon="8.682596510090365"><ele>230.5</ele><time>2026-05-01T14:46:14.999Z</time></trkpt><trkpt lat="42.30879761298412" lon="8.682473561621276"><ele>231.0</ele><time>2026-05-01T14:46:15.999Z</time></trkpt><trkpt lat="42.30866295798005" lon="8.682383398030344"><ele>231.0</ele><time>2026-05-01T14:46:16.999Z</time></trkpt><trkpt lat="42.30857916562478" lon="8.682248683315105"><ele>231.0</ele><time>2026-05-01T14:46:17.999Z</time></trkpt><trkpt lat="42.308560364937534" lon="8.682055658194207"><ele>231.0</ele><time>2026-05-01T14:46:18.999Z</time></trkpt><trkpt lat="42.30854844899137" lon="8.681881072396704"><ele>231.0</ele><time>2026-05-01T14:46:20Z</time></trkpt><trkpt lat="42.308495715864424" lon="8.681730694659716"><ele>229.75</ele><time>2026-05-01T14:46:21Z</time></trkpt><trkpt lat="42.308414955567336" lon="8.68159986652876"><ele>228.5</ele><time>2026-05-01T14:46:22Z</time></trkpt><trkpt lat="42.30831495744942" lon="8.68149600540193"><ele>227.25</ele><time>2026-05-01T14:46:23Z</time></trkpt><trkpt lat="42.308183709570535" lon="8.68142296932122"><ele>226.0</ele><time>2026-05-01T14:46:24Z</time></trkpt><trkpt lat="42.308032995576625" lon="8.681380285755589"><ele>226.0</ele><time>2026-05-01T14:46:25Z</time></trkpt><trkpt lat="42.30787480893325" lon="8.681327951823691"><ele>226.0</ele><time>2026-05-01T14:46:26Z</time></trkpt><trkpt lat="42.307720787897345" lon="8.681249303855937"><ele>226.0</ele><time>2026-05-01T14:46:27Z</time></trkpt><trkpt lat="42.3075800338451" lon="8.681119914079185"><ele>219.75</ele><time>2026-05-01T14:46:28Z</time></trkpt><trkpt lat="42.30744982950419" lon="8.680974527379414"><ele>213.5</ele><time>2026-05-01T14:46:29Z</time></trkpt><trkpt lat="42.30732582158142" lon="8.68087761594275"><ele>207.25</ele><time>2026-05-01T14:46:30Z</time></trkpt><trkpt lat="42.30720991144954" lon="8.680849827177145"><ele>201.0</ele><time>2026-05-01T14:46:31Z</time></trkpt><trkpt lat="42.30710658100767" lon="8.680862249057629"><ele>199.25</ele><time>2026-05-01T14:46:32Z</time></trkpt><trkpt lat="42.306999925223344" lon="8.680925957491105"><ele>197.5</ele><time>2026-05-01T14:46:33Z</time></trkpt><trkpt lat="42.30689740337153" lon="8.681058752284356"><ele>195.75</ele><time>2026-05-01T14:46:34Z</time></trkpt><trkpt lat="42.30684266532631" lon="8.681245449379837"><ele>194.0</ele><time>2026-05-01T14:46:35Z</time></trkpt><trkpt lat="42.306806663851745" lon="8.681469221569744"><ele>198.75</ele><time>2026-05-01T14:46:36Z</time></trkpt><trkpt lat="42.306756843346214" lon="8.68167617121483"><ele>203.5</ele><time>2026-05-01T14:46:37Z</time></trkpt><trkpt lat="42.306689824373116" lon="8.681824359939373"><ele>208.25</ele><time>2026-05-01T14:46:38Z</time></trkpt><trkpt lat="42.30659293937454" lon="8.681907612580085"><ele>213.0</ele><time>2026-05-01T14:46:39Z</time></trkpt><trkpt lat="42.30646365180986" lon="8.681929810748574"><ele>212.25</ele><time>2026-05-01T14:46:40Z</time></trkpt><trkpt lat="42.30632386576654" lon="8.681923550727397"><ele>211.5</ele><time>2026-05-01T14:46:41Z</time></trkpt><trkpt lat="42.30620065553977" lon="8.681905082757616"><ele>210.75</ele><time>2026-05-01T14:46:42Z</time></trkpt><trkpt lat="42.30609140855213" lon="8.681839140149684"><ele>210.0</ele><time>2026-05-01T14:46:43Z</time></trkpt><trkpt lat="42.30600950953108" lon="8.681719483930893"><ele>210.0</ele><time>2026-05-01T14:46:44Z</time></trkpt><trkpt lat="42.30595236396991" lon="8.681588541955922"><ele>210.0</ele><time>2026-05-01T14:46:45Z</time></trkpt><trkpt lat="42.30587983634456" lon="8.68150159796585"><ele>210.0</ele><time>2026-05-01T14:46:46Z</time></trkpt><trkpt lat="42.305796845173134" lon="8.681482593063091"><ele>210.0</ele><time>2026-05-01T14:46:47Z</time></trkpt><trkpt lat="42.305710296952356" lon="8.681532898719023"><ele>210.0</ele><time>2026-05-01T14:46:48Z</time></trkpt><trkpt lat="42.305613597649106" lon="8.681600393447743"><ele>213.4</ele><time>2026-05-01T14:46:49Z</time></trkpt><trkpt lat="42.30551368263189" lon="8.681652084888032"><ele>216.8</ele><time>2026-05-01T14:46:50Z</time></trkpt><trkpt lat="42.30544828580256" lon="8.681680596719948"><ele>220.2</ele><time>2026-05-01T14:46:51Z</time></trkpt><trkpt lat="42.30534080038154" lon="8.681694791000204"><ele>223.6</ele><time>2026-05-01T14:46:53Z</time></trkpt><trkpt lat="42.30524747996145" lon="8.681666431563963"><ele>227.0</ele><time>2026-05-01T14:46:55Z</time></trkpt><trkpt lat="42.30518411983773" lon="8.681570445208244"><ele>227.00000000000003</ele><time>2026-05-01T14:46:57Z</time></trkpt><trkpt lat="42.305168391134586" lon="8.681408129607094"><ele>227.0</ele><time>2026-05-01T14:46:59Z</time></trkpt><trkpt lat="42.30517359801331" lon="8.681315848596691"><ele>227.0</ele><time>2026-05-01T14:47:00Z</time></trkpt><trkpt lat="42.30518594444304" lon="8.68122679122095"><ele>227.0</ele><time>2026-05-01T14:47:01Z</time></trkpt><trkpt lat="42.305191483718346" lon="8.681135964206815"><ele>227.00000000000003</ele><time>2026-05-01T14:47:02Z</time></trkpt><trkpt lat="42.30520013248288" lon="8.681050885586343"><ele>227.0</ele><time>2026-05-01T14:47:03Z</time></trkpt><trkpt lat="42.305208429336595" lon="8.680956122540538"><ele>226.14285714285717</ele><time>2026-05-01T14:47:04Z</time></trkpt><trkpt lat="42.30521864344091" lon="8.680863318257346"><ele>225.2857142857143</ele><time>2026-05-01T14:47:05Z</time></trkpt><trkpt lat="42.305232640219" lon="8.680774119824699"><ele>224.42857142857144</ele><time>2026-05-01T14:47:06Z</time></trkpt><trkpt lat="42.305248849677575" lon="8.680684582525663"><ele>223.57142857142858</ele><time>2026-05-01T14:47:07Z</time></trkpt><trkpt lat="42.30526301291746" lon="8.680586518330523"><ele>222.71428571428572</ele><time>2026-05-01T14:47:08Z</time></trkpt><trkpt lat="42.30527705593738" lon="8.680486564332826"><ele>221.8571428571429</ele><time>2026-05-01T14:47:09Z</time></trkpt><trkpt lat="42.305292357484035" lon="8.680376304790999"><ele>221.0</ele><time>2026-05-01T14:47:10Z</time></trkpt><trkpt lat="42.3053072698659" lon="8.68028524107182"><ele>220.42857142857144</ele><time>2026-05-01T14:47:11Z</time></trkpt><trkpt lat="42.30532211164403" lon="8.680191922950577"><ele>219.85714285714286</ele><time>2026-05-01T14:47:12Z</time></trkpt><trkpt lat="42.30533322114515" lon="8.680096218866286"><ele>219.28571428571428</ele><time>2026-05-01T14:47:13Z</time></trkpt><trkpt lat="42.30533950720974" lon="8.67999990725937"><ele>218.71428571428572</ele><time>2026-05-01T14:47:14Z</time></trkpt><trkpt lat="42.30533649507214" lon="8.679903860019069"><ele>218.14285714285714</ele><time>2026-05-01T14:47:15Z</time></trkpt><trkpt lat="42.30531861688885" lon="8.679810987267146"><ele>217.57142857142858</ele><time>2026-05-01T14:47:16Z</time></trkpt><trkpt lat="42.305282398269" lon="8.67972572494473"><ele>217.0</ele><time>2026-05-01T14:47:17Z</time></trkpt><trkpt lat="42.30522794561666" lon="8.679646143900818"><ele>216.99999999999997</ele><time>2026-05-01T14:47:18Z</time></trkpt><trkpt lat="42.30517068919888" lon="8.679572490658797"><ele>217.0</ele><time>2026-05-01T14:47:19Z</time></trkpt><trkpt lat="42.305111849985835" lon="8.67950961693218"><ele>217.0</ele><time>2026-05-01T14:47:20Z</time></trkpt><trkpt lat="42.305054704813756" lon="8.679460225165961"><ele>217.0</ele><time>2026-05-01T14:47:21Z</time></trkpt><trkpt lat="42.304951740154706" lon="8.679404215193124"><ele>216.99999999999997</ele><time>2026-05-01T14:47:23Z</time></trkpt><trkpt lat="42.30487511655202" lon="8.679391721832802"><ele>217.0</ele><time>2026-05-01T14:47:24.999Z</time></trkpt><trkpt lat="42.30480879290045" lon="8.679370456681482"><ele>215.25</ele><time>2026-05-01T14:47:26.999Z</time></trkpt><trkpt lat="42.30465624309064" lon="8.679353483519066"><ele>213.5</ele><time>2026-05-01T14:47:59.999Z</time></trkpt><trkpt lat="42.30454203834339" lon="8.67933800106171"><ele>211.75</ele><time>2026-05-01T14:48:00.999Z</time></trkpt><trkpt lat="42.304404318170995" lon="8.679327442346555"><ele>210.0</ele><time>2026-05-01T14:48:01.999Z</time></trkpt><trkpt lat="42.304210394282" lon="8.679312611940663"><ele>210.0</ele><time>2026-05-01T14:48:02.999Z</time></trkpt><trkpt lat="42.30404234131268" lon="8.67925484686757"><ele>210.0</ele><time>2026-05-01T14:48:03.999Z</time></trkpt><trkpt lat="42.30390138413326" lon="8.679180241263781"><ele>210.0</ele><time>2026-05-01T14:48:04.999Z</time></trkpt><trkpt lat="42.30380482290781" lon="8.67909898380401"><ele>210.0</ele><time>2026-05-01T14:48:05.999Z</time></trkpt><trkpt lat="42.303735790865495" lon="8.679009228505205"><ele>214.75</ele><time>2026-05-01T14:48:06.999Z</time></trkpt><trkpt lat="42.3037078964199" lon="8.678880813958333"><ele>219.5</ele><time>2026-05-01T14:48:07.999Z</time></trkpt><trkpt lat="42.303729504690224" lon="8.678732285381479"><ele>224.25</ele><time>2026-05-01T14:48:08.999Z</time></trkpt><trkpt lat="42.303793546709755" lon="8.678570851600904"><ele>229.0</ele><time>2026-05-01T14:48:09.999Z</time></trkpt><trkpt lat="42.30387500426385" lon="8.678418522628707"><ele>229.0</ele><time>2026-05-01T14:48:10.999Z</time></trkpt><trkpt lat="42.30389441000709" lon="8.678279149608748"><ele>229.0</ele><time>2026-05-01T14:48:11.999Z</time></trkpt><trkpt lat="42.3038596492029" lon="8.678153030714416"><ele>229.0</ele><time>2026-05-01T14:48:12.999Z</time></trkpt><trkpt lat="42.30376044862139" lon="8.67803261745014"><ele>229.0</ele><time>2026-05-01T14:48:13.999Z</time></trkpt><trkpt lat="42.303618213094744" lon="8.677919252395796"><ele>229.0</ele><time>2026-05-01T14:48:14.999Z</time></trkpt><trkpt lat="42.30347571355189" lon="8.677821669710134"><ele>229.0</ele><time>2026-05-01T14:48:15.999Z</time></trkpt><trkpt lat="42.30336289306144" lon="8.677736595317153"><ele>229.0</ele><time>2026-05-01T14:48:16.999Z</time></trkpt><trkpt lat="42.30326777705644" lon="8.6776066367759"><ele>229.0</ele><time>2026-05-01T14:48:17.999Z</time></trkpt><trkpt lat="42.30320562044504" lon="8.677432888824175"><ele>222.66666666666666</ele><time>2026-05-01T14:48:18.999Z</time></trkpt><trkpt lat="42.303169556331824" lon="8.67722050218224"><ele>216.33333333333331</ele><time>2026-05-01T14:48:19.999Z</time></trkpt><trkpt lat="42.30316101224797" lon="8.677001563691253"><ele>210.0</ele><time>2026-05-01T14:48:20.999Z</time></trkpt><trkpt lat="42.3031788022839" lon="8.676783820171188"><ele>207.0</ele><time>2026-05-01T14:48:21.999Z</time></trkpt><trkpt lat="42.303231842018384" lon="8.676569047679752"><ele>204.0</ele><time>2026-05-01T14:48:22.999Z</time></trkpt><trkpt lat="42.30327866524893" lon="8.6763727040259"><ele>201.0</ele><time>2026-05-01T14:48:23.999Z</time></trkpt><trkpt lat="42.30326836646974" lon="8.676188160165477"><ele>198.0</ele><time>2026-05-01T14:48:24.999Z</time></trkpt><trkpt lat="42.303204456274194" lon="8.67600754047869"><ele>195.0</ele><time>2026-05-01T14:48:26Z</time></trkpt><trkpt lat="42.30309414426946" lon="8.675818619890645"><ele>192.0</ele><time>2026-05-01T14:48:27Z</time></trkpt><trkpt lat="42.30299949976255" lon="8.6756052424039"><ele>201.66666666666669</ele><time>2026-05-01T14:48:28Z</time></trkpt><trkpt lat="42.30296146024627" lon="8.675350923230864"><ele>211.33333333333334</ele><time>2026-05-01T14:48:29Z</time></trkpt><trkpt lat="42.3029872095454" lon="8.675066222092763"><ele>221.0</ele><time>2026-05-01T14:48:30Z</time></trkpt><trkpt lat="42.30299149398937" lon="8.674795621705414"><ele>221.0</ele><time>2026-05-01T14:48:31Z</time></trkpt><trkpt lat="42.30294627812953" lon="8.674534828610382"><ele>221.0</ele><time>2026-05-01T14:48:32Z</time></trkpt><trkpt lat="42.30287022402013" lon="8.674294400513334"><ele>221.0</ele><time>2026-05-01T14:48:33Z</time></trkpt><trkpt lat="42.30276299203708" lon="8.674064231854908"><ele>217.66666666666669</ele><time>2026-05-01T14:48:34Z</time></trkpt><trkpt lat="42.30265744838614" lon="8.673846327095173"><ele>214.33333333333331</ele><time>2026-05-01T14:48:35Z</time></trkpt><trkpt lat="42.30259288781219" lon="8.673639134200476"><ele>211.0</ele><time>2026-05-01T14:48:36Z</time></trkpt><trkpt lat="42.30256271991292" lon="8.673479807454795"><ele>208.60000000000002</ele><time>2026-05-01T14:48:37Z</time></trkpt><trkpt lat="42.302517713703146" lon="8.67334778337892"><ele>206.2</ele><time>2026-05-01T14:48:38Z</time></trkpt><trkpt lat="42.30245143484263" lon="8.67326729114332"><ele>203.8</ele><time>2026-05-01T14:48:39Z</time></trkpt><trkpt lat="42.30235855441145" lon="8.673257533075516"><ele>201.39999999999998</ele><time>2026-05-01T14:48:40Z</time></trkpt><trkpt lat="42.30224960766358" lon="8.67333553807049"><ele>199.0</ele><time>2026-05-01T14:48:41Z</time></trkpt><trkpt lat="42.30214840330192" lon="8.673473600764792"><ele>196.0</ele><time>2026-05-01T14:48:42Z</time></trkpt><trkpt lat="42.30204159255512" lon="8.673694756746814"><ele>193.0</ele><time>2026-05-01T14:48:43Z</time></trkpt><trkpt lat="42.30192097670492" lon="8.673942080098435"><ele>190.0</ele><time>2026-05-01T14:48:44Z</time></trkpt><trkpt lat="42.30181880295318" lon="8.67413969789071"><ele>190.0</ele><time>2026-05-01T14:48:45Z</time></trkpt><trkpt lat="42.301770738481075" lon="8.674334451863919"><ele>190.0</ele><time>2026-05-01T14:48:46Z</time></trkpt><trkpt lat="42.30176325059196" lon="8.674578803853407"><ele>190.0</ele><time>2026-05-01T14:48:47Z</time></trkpt><trkpt lat="42.30176633136379" lon="8.674836866352475"><ele>190.75</ele><time>2026-05-01T14:48:48Z</time></trkpt><trkpt lat="42.301731999462405" lon="8.675052777965327"><ele>191.5</ele><time>2026-05-01T14:48:49Z</time></trkpt><trkpt lat="42.3016630907632" lon="8.675201989027274"><ele>192.25</ele><time>2026-05-01T14:48:50Z</time></trkpt><trkpt lat="42.30152551606868" lon="8.675284690041337"><ele>193.0</ele><time>2026-05-01T14:48:51Z</time></trkpt><trkpt lat="42.301366754280124" lon="8.675376676065413"><ele>193.0</ele><time>2026-05-01T14:48:52Z</time></trkpt><trkpt lat="42.30123963249056" lon="8.675565614759423"><ele>193.0</ele><time>2026-05-01T14:48:53Z</time></trkpt><trkpt lat="42.30113420245315" lon="8.67579814183459"><ele>193.0</ele><time>2026-05-01T14:48:54Z</time></trkpt><trkpt lat="42.30098744328207" lon="8.675974090388532"><ele>193.0</ele><time>2026-05-01T14:48:55Z</time></trkpt><trkpt lat="42.300848909439644" lon="8.67608365612568"><ele>193.0</ele><time>2026-05-01T14:48:56Z</time></trkpt><trkpt lat="42.300724878354" lon="8.676097963626567"><ele>193.0</ele><time>2026-05-01T14:48:57Z</time></trkpt><trkpt lat="42.30058904157847" lon="8.67603089394121"><ele>193.0</ele><time>2026-05-01T14:48:58Z</time></trkpt><trkpt lat="42.300448087744336" lon="8.675972710807283"><ele>187.75</ele><time>2026-05-01T14:48:59Z</time></trkpt><trkpt lat="42.30032604188184" lon="8.676021856345502"><ele>182.5</ele><time>2026-05-01T14:49:00Z</time></trkpt><trkpt lat="42.300221074978694" lon="8.676167127556909"><ele>177.25</ele><time>2026-05-01T14:49:01Z</time></trkpt><trkpt lat="42.30012833409283" lon="8.67635326041668"><ele>172.0</ele><time>2026-05-01T14:49:02Z</time></trkpt><trkpt lat="42.300008261013396" lon="8.67648195902494"><ele>185.33333333333334</ele><time>2026-05-01T14:49:03Z</time></trkpt><trkpt lat="42.29984857405783" lon="8.67649671652856"><ele>198.66666666666669</ele><time>2026-05-01T14:49:04Z</time></trkpt><trkpt lat="42.29968042801012" lon="8.676453394732857"><ele>212.0</ele><time>2026-05-01T14:49:05Z</time></trkpt><trkpt lat="42.29951962675551" lon="8.676376269927582"><ele>212.0</ele><time>2026-05-01T14:49:06Z</time></trkpt><trkpt lat="42.29938367030801" lon="8.676242470359432"><ele>212.0</ele><time>2026-05-01T14:49:07Z</time></trkpt><trkpt lat="42.29924757761453" lon="8.676100985345029"><ele>212.0</ele><time>2026-05-01T14:49:08Z</time></trkpt><trkpt lat="42.299087041099995" lon="8.676019827701655"><ele>208.75</ele><time>2026-05-01T14:49:09Z</time></trkpt><trkpt lat="42.298945224145434" lon="8.675995481034672"><ele>205.5</ele><time>2026-05-01T14:49:10Z</time></trkpt><trkpt lat="42.298813175061575" lon="8.676013806573168"><ele>202.25</ele><time>2026-05-01T14:49:11Z</time></trkpt><trkpt lat="42.298678184763595" lon="8.676101835111638"><ele>199.0</ele><time>2026-05-01T14:49:12Z</time></trkpt><trkpt lat="42.29852057628504" lon="8.676243301750121"><ele>199.0</ele><time>2026-05-01T14:49:13Z</time></trkpt><trkpt lat="42.29833688053596" lon="8.676346702103546"><ele>199.0</ele><time>2026-05-01T14:49:14Z</time></trkpt><trkpt lat="42.298114146939206" lon="8.67635967685442"><ele>199.0</ele><time>2026-05-01T14:49:15Z</time></trkpt><trkpt lat="42.29787441968443" lon="8.67636223858332"><ele>195.0</ele><time>2026-05-01T14:49:16Z</time></trkpt><trkpt lat="42.29764481070974" lon="8.67639716617478"><ele>191.0</ele><time>2026-05-01T14:49:17Z</time></trkpt><trkpt lat="42.297453671251" lon="8.676371860124055"><ele>187.0</ele><time>2026-05-01T14:49:18Z</time></trkpt><trkpt lat="42.29732929916609" lon="8.6763232529133"><ele>183.8</ele><time>2026-05-01T14:49:19Z</time></trkpt><trkpt lat="42.297245505121104" lon="8.676311032797958"><ele>180.6</ele><time>2026-05-01T14:49:20Z</time></trkpt><trkpt lat="42.2971554460984" lon="8.676364060099662"><ele>177.4</ele><time>2026-05-01T14:49:21Z</time></trkpt><trkpt lat="42.29709813564885" lon="8.676494288974169"><ele>174.20000000000002</ele><time>2026-05-01T14:49:22Z</time></trkpt><trkpt lat="42.297085601979965" lon="8.676645933868468"><ele>171.0</ele><time>2026-05-01T14:49:23Z</time></trkpt><trkpt lat="42.29713790556209" lon="8.676798578993493"><ele>175.60000000000002</ele><time>2026-05-01T14:49:24Z</time></trkpt><trkpt lat="42.29720123020718" lon="8.67693666976231"><ele>180.2</ele><time>2026-05-01T14:49:25Z</time></trkpt><trkpt lat="42.29720942358642" lon="8.677058688318716"><ele>184.8</ele><time>2026-05-01T14:49:26Z</time></trkpt><trkpt lat="42.29715806640547" lon="8.677162627473653"><ele>189.39999999999998</ele><time>2026-05-01T14:49:27Z</time></trkpt><trkpt lat="42.29705486990765" lon="8.677213237313053"><ele>194.0</ele><time>2026-05-01T14:49:28Z</time></trkpt><trkpt lat="42.296925187803666" lon="8.67719905843649"><ele>194.0</ele><time>2026-05-01T14:49:29Z</time></trkpt><trkpt lat="42.296776393308036" lon="8.677130241682477"><ele>194.0</ele><time>2026-05-01T14:49:30Z</time></trkpt><trkpt lat="42.29661276515984" lon="8.677068311385957"><ele>194.0</ele><time>2026-05-01T14:49:31Z</time></trkpt><trkpt lat="42.2964840749729" lon="8.67704997770735"><ele>190.6</ele><time>2026-05-01T14:49:32Z</time></trkpt><trkpt lat="42.29640027142054" lon="8.677105014135813"><ele>187.2</ele><time>2026-05-01T14:49:33Z</time></trkpt><trkpt lat="42.296347805951186" lon="8.67722481242862"><ele>183.79999999999998</ele><time>2026-05-01T14:49:34Z</time></trkpt><trkpt lat="42.29633046327706" lon="8.677395713685176"><ele>180.39999999999998</ele><time>2026-05-01T14:49:35Z</time></trkpt><trkpt lat="42.29626837572563" lon="8.677532399491232"><ele>177.0</ele><time>2026-05-01T14:49:36Z</time></trkpt><trkpt lat="42.29614275019571" lon="8.677588366737794"><ele>177.0</ele><time>2026-05-01T14:49:37Z</time></trkpt><trkpt lat="42.2959938778462" lon="8.677570082904714"><ele>177.0</ele><time>2026-05-01T14:49:38Z</time></trkpt><trkpt lat="42.29584186750948" lon="8.67748985469744"><ele>177.0</ele><time>2026-05-01T14:49:38.999Z</time></trkpt><trkpt lat="42.295696221686065" lon="8.677412294529347"><ele>173.2</ele><time>2026-05-01T14:49:39.999Z</time></trkpt><trkpt lat="42.29556747806642" lon="8.67739661321173"><ele>169.39999999999998</ele><time>2026-05-01T14:49:40.999Z</time></trkpt><trkpt lat="42.29546723965535" lon="8.67741677224068"><ele>165.60000000000002</ele><time>2026-05-01T14:49:41.999Z</time></trkpt><trkpt lat="42.295396450072" lon="8.677444101054897"><ele>161.8</ele><time>2026-05-01T14:49:42.999Z</time></trkpt><trkpt lat="42.29534396213643" lon="8.677506895250723"><ele>158.0</ele><time>2026-05-01T14:49:43.999Z</time></trkpt><trkpt lat="42.295340224664606" lon="8.677617216371456"><ele>158.0</ele><time>2026-05-01T14:49:44.999Z</time></trkpt><trkpt lat="42.29539399292647" lon="8.677766090809872"><ele>158.0</ele><time>2026-05-01T14:49:45.999Z</time></trkpt><trkpt lat="42.29546313528519" lon="8.677952647487981"><ele>158.0</ele><time>2026-05-01T14:49:46.999Z</time></trkpt><trkpt lat="42.29552965926862" lon="8.678197901558882"><ele>155.5</ele><time>2026-05-01T14:49:47.999Z</time></trkpt><trkpt lat="42.29557081445742" lon="8.678483895050103"><ele>153.0</ele><time>2026-05-01T14:49:48.999Z</time></trkpt><trkpt lat="42.295596810426204" lon="8.678800855087106"><ele>153.66666666666666</ele><time>2026-05-01T14:49:49.999Z</time></trkpt><trkpt lat="42.29559514088657" lon="8.679097250804356"><ele>154.33333333333331</ele><time>2026-05-01T14:49:50.999Z</time></trkpt><trkpt lat="42.295579082386425" lon="8.679332871980273"><ele>155.0</ele><time>2026-05-01T14:49:51.999Z</time></trkpt><trkpt lat="42.29561077251302" lon="8.67953649599402"><ele>163.66666666666666</ele><time>2026-05-01T14:49:52.999Z</time></trkpt><trkpt lat="42.29570874726373" lon="8.679721371946522"><ele>172.33333333333334</ele><time>2026-05-01T14:49:53.999Z</time></trkpt><trkpt lat="42.295829121591474" lon="8.679887863509897"><ele>181.0</ele><time>2026-05-01T14:49:54.999Z</time></trkpt><trkpt lat="42.2958966568008" lon="8.680064339247684"><ele>181.0</ele><time>2026-05-01T14:49:55.999Z</time></trkpt><trkpt lat="42.295884520097204" lon="8.680248614162494"><ele>181.0</ele><time>2026-05-01T14:49:56.999Z</time></trkpt><trkpt lat="42.295821343385896" lon="8.680432037191586"><ele>181.0</ele><time>2026-05-01T14:49:57.999Z</time></trkpt><trkpt lat="42.29572216098018" lon="8.680544553350574"><ele>181.0</ele><time>2026-05-01T14:49:58.999Z</time></trkpt><trkpt lat="42.29558951410698" lon="8.680553683253663"><ele>185.33333333333334</ele><time>2026-05-01T14:49:59.999Z</time></trkpt><trkpt lat="42.29543257302339" lon="8.680509686873142"><ele>189.66666666666669</ele><time>2026-05-01T14:50:00.999Z</time></trkpt><trkpt lat="42.29524127260546" lon="8.6804362503413"><ele>194.0</ele><time>2026-05-01T14:50:01.999Z</time></trkpt><trkpt lat="42.29501670874606" lon="8.680362612190601"><ele>190.0</ele><time>2026-05-01T14:50:02.999Z</time></trkpt><trkpt lat="42.29478492432256" lon="8.68025763584125"><ele>186.0</ele><time>2026-05-01T14:50:03.999Z</time></trkpt><trkpt lat="42.29458637605518" lon="8.680152705584954"><ele>186.0</ele><time>2026-05-01T14:50:04.999Z</time></trkpt><trkpt lat="42.29443420789054" lon="8.680046600870426"><ele>186.0</ele><time>2026-05-01T14:50:05.999Z</time></trkpt><trkpt lat="42.29433184429779" lon="8.67988864561556"><ele>186.0</ele><time>2026-05-01T14:50:06.999Z</time></trkpt><trkpt lat="42.29426199985128" lon="8.679666422997188"><ele>178.66666666666666</ele><time>2026-05-01T14:50:07.999Z</time></trkpt><trkpt lat="42.294181126078314" lon="8.67942426755779"><ele>171.33333333333331</ele><time>2026-05-01T14:50:08.999Z</time></trkpt><trkpt lat="42.294079516954504" lon="8.679240615122577"><ele>164.0</ele><time>2026-05-01T14:50:09.999Z</time></trkpt><trkpt lat="42.29395635023143" lon="8.67910306120085"><ele>165.25</ele><time>2026-05-01T14:50:10.999Z</time></trkpt><trkpt lat="42.29380909038943" lon="8.679033417297282"><ele>166.5</ele><time>2026-05-01T14:50:11.999Z</time></trkpt><trkpt lat="42.29366863001859" lon="8.679033286903447"><ele>167.75</ele><time>2026-05-01T14:50:12.999Z</time></trkpt><trkpt lat="42.293549843348316" lon="8.679122153834813"><ele>169.0</ele><time>2026-05-01T14:50:13.999Z</time></trkpt><trkpt lat="42.29346067871393" lon="8.679288454061954"><ele>173.5</ele><time>2026-05-01T14:50:14.999Z</time></trkpt><trkpt lat="42.293365020895415" lon="8.679453713140488"><ele>178.0</ele><time>2026-05-01T14:50:15.999Z</time></trkpt><trkpt lat="42.293242276194064" lon="8.679540578913551"><ele>182.5</ele><time>2026-05-01T14:50:16.999Z</time></trkpt><trkpt lat="42.2931002049519" lon="8.679518261977707"><ele>187.0</ele><time>2026-05-01T14:50:17.999Z</time></trkpt><trkpt lat="42.29295497388955" lon="8.679399747689844"><ele>187.0</ele><time>2026-05-01T14:50:18.999Z</time></trkpt><trkpt lat="42.292813680224874" lon="8.679211142149265"><ele>187.0</ele><time>2026-05-01T14:50:19.999Z</time></trkpt><trkpt lat="42.29267103212114" lon="8.679013565487342"><ele>187.0</ele><time>2026-05-01T14:50:20.999Z</time></trkpt><trkpt lat="42.292513444980926" lon="8.678883629109825"><ele>187.0</ele><time>2026-05-01T14:50:21.999Z</time></trkpt><trkpt lat="42.292309717662725" lon="8.678812950002987"><ele>187.0</ele><time>2026-05-01T14:50:22.999Z</time></trkpt><trkpt lat="42.2921175638717" lon="8.67875954128434"><ele>187.0</ele><time>2026-05-01T14:50:23.999Z</time></trkpt><trkpt lat="42.29196951923424" lon="8.678748642311785"><ele>187.5</ele><time>2026-05-01T14:50:24.999Z</time></trkpt><trkpt lat="42.291820525006784" lon="8.678799527894691"><ele>188.0</ele><time>2026-05-01T14:50:25.999Z</time></trkpt><trkpt lat="42.29167914666236" lon="8.678857308878829"><ele>188.5</ele><time>2026-05-01T14:50:26.999Z</time></trkpt><trkpt lat="42.291537393118844" lon="8.67881580539361"><ele>189.0</ele><time>2026-05-01T14:50:27.999Z</time></trkpt><trkpt lat="42.29142229305115" lon="8.678748807590724"><ele>183.0</ele><time>2026-05-01T14:50:28.999Z</time></trkpt><trkpt lat="42.29135750466902" lon="8.678739059469795"><ele>177.0</ele><time>2026-05-01T14:50:29.999Z</time></trkpt><trkpt lat="42.29130256153205" lon="8.678806897304202"><ele>171.0</ele><time>2026-05-01T14:50:30.999Z</time></trkpt><trkpt lat="42.291261874851486" lon="8.678942349656383"><ele>165.0</ele><time>2026-05-01T14:50:32.001Z</time></trkpt><trkpt lat="42.291193214207425" lon="8.67904522661608"><ele>159.0</ele><time>2026-05-01T14:50:33.001Z</time></trkpt><trkpt lat="42.291080014599295" lon="8.67905704362017"><ele>159.0</ele><time>2026-05-01T14:50:34.001Z</time></trkpt><trkpt lat="42.290965422964206" lon="8.67902209041787"><ele>159.0</ele><time>2026-05-01T14:50:35.001Z</time></trkpt><trkpt lat="42.29089163685591" lon="8.679054824893143"><ele>159.0</ele><time>2026-05-01T14:50:36.001Z</time></trkpt><trkpt lat="42.290863737252934" lon="8.67915041971307"><ele>159.0</ele><time>2026-05-01T14:50:37.001Z</time></trkpt><trkpt lat="42.290878762438844" lon="8.679265529250971"><ele>159.0</ele><time>2026-05-01T14:50:38.001Z</time></trkpt><trkpt lat="42.29093620691554" lon="8.6793770510411"><ele>168.0</ele><time>2026-05-01T14:50:39Z</time></trkpt><trkpt lat="42.29099511795471" lon="8.679517815852385"><ele>177.0</ele><time>2026-05-01T14:50:40Z</time></trkpt><trkpt lat="42.29099905833946" lon="8.679666834638377"><ele>186.0</ele><time>2026-05-01T14:50:41Z</time></trkpt><trkpt lat="42.290930092385814" lon="8.6798168875093"><ele>195.0</ele><time>2026-05-01T14:50:42Z</time></trkpt><trkpt lat="42.29083466443367" lon="8.679962747890574"><ele>195.0</ele><time>2026-05-01T14:50:43Z</time></trkpt><trkpt lat="42.290748982480245" lon="8.680114826113467"><ele>195.0</ele><time>2026-05-01T14:50:44Z</time></trkpt><trkpt lat="42.290653190572826" lon="8.680260322853872"><ele>195.0</ele><time>2026-05-01T14:50:45Z</time></trkpt><trkpt lat="42.29051079955641" lon="8.68036099125136"><ele>195.0</ele><time>2026-05-01T14:50:46Z</time></trkpt><trkpt lat="42.29034448308674" lon="8.680443214997794"><ele>197.66666666666669</ele><time>2026-05-01T14:50:47Z</time></trkpt><trkpt lat="42.290174776776794" lon="8.680499945762659"><ele>200.33333333333334</ele><time>2026-05-01T14:50:48Z</time></trkpt><trkpt lat="42.29002799845733" lon="8.680502590600756"><ele>203.0</ele><time>2026-05-01T14:50:49Z</time></trkpt><trkpt lat="42.28989951283652" lon="8.680455856192332"><ele>203.0</ele><time>2026-05-01T14:50:50Z</time></trkpt><trkpt lat="42.28980948332703" lon="8.680441406469528"><ele>203.0</ele><time>2026-05-01T14:50:51Z</time></trkpt><trkpt lat="42.28974340619938" lon="8.680507005402132"><ele>203.0</ele><time>2026-05-01T14:50:52Z</time></trkpt><trkpt lat="42.28969150726999" lon="8.680662676162552"><ele>203.0</ele><time>2026-05-01T14:50:53Z</time></trkpt><trkpt lat="42.28960957244501" lon="8.680828747151647"><ele>203.0</ele><time>2026-05-01T14:50:54Z</time></trkpt><trkpt lat="42.289470280261874" lon="8.680915202061847"><ele>201.5</ele><time>2026-05-01T14:50:55Z</time></trkpt><trkpt lat="42.28932760426085" lon="8.680947291230195"><ele>200.0</ele><time>2026-05-01T14:50:56Z</time></trkpt><trkpt lat="42.28921302854425" lon="8.68098710929367"><ele>198.5</ele><time>2026-05-01T14:50:57Z</time></trkpt><trkpt lat="42.28913291991715" lon="8.681080832031483"><ele>197.0</ele><time>2026-05-01T14:50:58Z</time></trkpt><trkpt lat="42.28905468312741" lon="8.681240553351598"><ele>197.0</ele><time>2026-05-01T14:50:59Z</time></trkpt><trkpt lat="42.288945757082445" lon="8.681395184772725"><ele>197.0</ele><time>2026-05-01T14:51:00Z</time></trkpt><trkpt lat="42.28881849321335" lon="8.681536792090057"><ele>197.0</ele><time>2026-05-01T14:51:01Z</time></trkpt><trkpt lat="42.288738245771775" lon="8.681678604496364"><ele>196.0</ele><time>2026-05-01T14:51:02Z</time></trkpt><trkpt lat="42.288714618731376" lon="8.68182093727561"><ele>195.0</ele><time>2026-05-01T14:51:03Z</time></trkpt><trkpt lat="42.28876640194198" lon="8.68197010095627"><ele>194.0</ele><time>2026-05-01T14:51:04Z</time></trkpt><trkpt lat="42.28886702671262" lon="8.682121446137355"><ele>193.0</ele><time>2026-05-01T14:51:05Z</time></trkpt><trkpt lat="42.28902427902857" lon="8.682295683708944"><ele>189.0</ele><time>2026-05-01T14:51:06Z</time></trkpt><trkpt lat="42.28923277892357" lon="8.682447932214359"><ele>185.0</ele><time>2026-05-01T14:51:07Z</time></trkpt><trkpt lat="42.2894551049973" lon="8.682684615305568"><ele>181.0</ele><time>2026-05-01T14:51:08Z</time></trkpt><trkpt lat="42.28967800317874" lon="8.682939869865573"><ele>177.0</ele><time>2026-05-01T14:51:09Z</time></trkpt><trkpt lat="42.28988145794687" lon="8.683163362688777"><ele>177.0</ele><time>2026-05-01T14:51:10Z</time></trkpt><trkpt lat="42.290054435819876" lon="8.683381959384016"><ele>177.0</ele><time>2026-05-01T14:51:11Z</time></trkpt><trkpt lat="42.290208740761095" lon="8.683608510404007"><ele>170.33333333333334</ele><time>2026-05-01T14:51:12Z</time></trkpt><trkpt lat="42.29033801407843" lon="8.683815848879492"><ele>163.66666666666669</ele><time>2026-05-01T14:51:13Z</time></trkpt><trkpt lat="42.2904590149384" lon="8.684010315908985"><ele>157.0</ele><time>2026-05-01T14:51:14Z</time></trkpt><trkpt lat="42.29054658590931" lon="8.684196789525528"><ele>157.0</ele><time>2026-05-01T14:51:15Z</time></trkpt><trkpt lat="42.29056239826853" lon="8.684397461423153"><ele>157.0</ele><time>2026-05-01T14:51:16Z</time></trkpt><trkpt lat="42.290529953145516" lon="8.684620022073085"><ele>157.0</ele><time>2026-05-01T14:51:17Z</time></trkpt><trkpt lat="42.29046327449707" lon="8.684844589442532"><ele>155.33333333333334</ele><time>2026-05-01T14:51:18Z</time></trkpt><trkpt lat="42.29038951985256" lon="8.68505948748257"><ele>153.66666666666666</ele><time>2026-05-01T14:51:19Z</time></trkpt><trkpt lat="42.290345829617905" lon="8.6852761244038"><ele>152.0</ele><time>2026-05-01T14:51:20Z</time></trkpt><trkpt lat="42.29034390269367" lon="8.685503177102715"><ele>150.33333333333331</ele><time>2026-05-01T14:51:21Z</time></trkpt><trkpt lat="42.290374718417006" lon="8.685746608666195"><ele>148.66666666666666</ele><time>2026-05-01T14:51:22Z</time></trkpt><trkpt lat="42.290439500505016" lon="8.685993393894151"><ele>147.0</ele><time>2026-05-01T14:51:23Z</time></trkpt><trkpt lat="42.290502842036524" lon="8.686246327427222"><ele>143.33333333333334</ele><time>2026-05-01T14:51:24Z</time></trkpt><trkpt lat="42.29055641021515" lon="8.686492539674251"><ele>139.66666666666669</ele><time>2026-05-01T14:51:25Z</time></trkpt><trkpt lat="42.29060252093847" lon="8.68670508164345"><ele>136.0</ele><time>2026-05-01T14:51:26Z</time></trkpt><trkpt lat="42.29064490653129" lon="8.686875689977152"><ele>140.25</ele><time>2026-05-01T14:51:27Z</time></trkpt><trkpt lat="42.29068950307999" lon="8.687019315112133"><ele>144.5</ele><time>2026-05-01T14:51:28Z</time></trkpt><trkpt lat="42.29074049521178" lon="8.687154391390083"><ele>148.75</ele><time>2026-05-01T14:51:29Z</time></trkpt><trkpt lat="42.29082097454209" lon="8.687272826747625"><ele>153.0</ele><time>2026-05-01T14:51:30Z</time></trkpt><trkpt lat="42.29094088234544" lon="8.687339337004426"><ele>153.0</ele><time>2026-05-01T14:51:31Z</time></trkpt><trkpt lat="42.29108767587318" lon="8.687324879699482"><ele>153.0</ele><time>2026-05-01T14:51:31.999Z</time></trkpt><trkpt lat="42.29123294753692" lon="8.68725057614291"><ele>153.0</ele><time>2026-05-01T14:51:32.999Z</time></trkpt><trkpt lat="42.291363775839066" lon="8.68715146712166"><ele>153.5</ele><time>2026-05-01T14:51:33.999Z</time></trkpt><trkpt lat="42.29147551733959" lon="8.687039268771509"><ele>154.0</ele><time>2026-05-01T14:51:34.999Z</time></trkpt><trkpt lat="42.29155110790683" lon="8.686893208792513"><ele>154.5</ele><time>2026-05-01T14:51:35.999Z</time></trkpt><trkpt lat="42.29156629968657" lon="8.686718475102069"><ele>155.0</ele><time>2026-05-01T14:51:36.999Z</time></trkpt><trkpt lat="42.2915726943015" lon="8.686556973714822"><ele>155.0</ele><time>2026-05-01T14:51:37.999Z</time></trkpt><trkpt lat="42.29162948493424" lon="8.686439001748326"><ele>155.0</ele><time>2026-05-01T14:51:38.999Z</time></trkpt><trkpt lat="42.29175676048429" lon="8.686376056894444"><ele>155.0</ele><time>2026-05-01T14:51:39.999Z</time></trkpt><trkpt lat="42.2919208630665" lon="8.686368621373827"><ele>155.0</ele><time>2026-05-01T14:51:40.999Z</time></trkpt><trkpt lat="42.29209663377574" lon="8.68637511917589"><ele>147.33333333333331</ele><time>2026-05-01T14:51:41.999Z</time></trkpt><trkpt lat="42.292269478193724" lon="8.686348931158264"><ele>139.66666666666666</ele><time>2026-05-01T14:51:42.999Z</time></trkpt><trkpt lat="42.29242285536249" lon="8.686284816185662"><ele>132.0</ele><time>2026-05-01T14:51:43.999Z</time></trkpt><trkpt lat="42.292549932533355" lon="8.68623029159545"><ele>132.0</ele><time>2026-05-01T14:51:44.999Z</time></trkpt><trkpt lat="42.29266100382326" lon="8.686186617789117"><ele>132.0</ele><time>2026-05-01T14:51:45.999Z</time></trkpt><trkpt lat="42.29274072176913" lon="8.686101416665306"><ele>132.0</ele><time>2026-05-01T14:51:46.999Z</time></trkpt><trkpt lat="42.29278204289305" lon="8.685959085530225"><ele>132.0</ele><time>2026-05-01T14:51:47.999Z</time></trkpt><trkpt lat="42.292796361229556" lon="8.685779785104796"><ele>132.0</ele><time>2026-05-01T14:51:48.999Z</time></trkpt><trkpt lat="42.292814205644945" lon="8.685622374641671"><ele>132.0</ele><time>2026-05-01T14:51:49.999Z</time></trkpt><trkpt lat="42.29288177301407" lon="8.68549692580577"><ele>132.0</ele><time>2026-05-01T14:51:50.999Z</time></trkpt><trkpt lat="42.293003851460426" lon="8.685392133335952"><ele>132.0</ele><time>2026-05-01T14:51:51.999Z</time></trkpt><trkpt lat="42.293153648805664" lon="8.68530359915024"><ele>136.75</ele><time>2026-05-01T14:51:52.999Z</time></trkpt><trkpt lat="42.29330776384919" lon="8.68521684874307"><ele>141.5</ele><time>2026-05-01T14:51:53.999Z</time></trkpt><trkpt lat="42.29343908218798" lon="8.685143329269634"><ele>146.25</ele><time>2026-05-01T14:51:54.999Z</time></trkpt><trkpt lat="42.29355429051549" lon="8.685089640631032"><ele>151.0</ele><time>2026-05-01T14:51:55.999Z</time></trkpt><trkpt lat="42.29366895720026" lon="8.685088523758614"><ele>151.0</ele><time>2026-05-01T14:51:56.999Z</time></trkpt><trkpt lat="42.29377075817789" lon="8.685179220045137"><ele>151.0</ele><time>2026-05-01T14:51:57.999Z</time></trkpt><trkpt lat="42.293846768949656" lon="8.685307929007164"><ele>151.0</ele><time>2026-05-01T14:51:58.999Z</time></trkpt><trkpt lat="42.293912306861195" lon="8.6854563947385"><ele>151.0</ele><time>2026-05-01T14:51:59.999Z</time></trkpt><trkpt lat="42.293975144449334" lon="8.68557808127726"><ele>145.75</ele><time>2026-05-01T14:52:00.999Z</time></trkpt><trkpt lat="42.29406995504333" lon="8.685667371956647"><ele>140.5</ele><time>2026-05-01T14:52:01.999Z</time></trkpt><trkpt lat="42.294190142865006" lon="8.685697389543042"><ele>135.25</ele><time>2026-05-01T14:52:02.999Z</time></trkpt><trkpt lat="42.29434288696132" lon="8.685647725950226"><ele>130.0</ele><time>2026-05-01T14:52:03.999Z</time></trkpt><trkpt lat="42.294530213309216" lon="8.685647251578834"><ele>130.0</ele><time>2026-05-01T14:52:04.999Z</time></trkpt><trkpt lat="42.2947192912578" lon="8.685685386876967"><ele>130.0</ele><time>2026-05-01T14:52:05.999Z</time></trkpt><trkpt lat="42.29491568746856" lon="8.685747348027705"><ele>130.0</ele><time>2026-05-01T14:52:06.999Z</time></trkpt><trkpt lat="42.295095054506255" lon="8.685801607058451"><ele>130.4</ele><time>2026-05-01T14:52:07.999Z</time></trkpt><trkpt lat="42.29524625252337" lon="8.68583959492564"><ele>130.8</ele><time>2026-05-01T14:52:08.999Z</time></trkpt><trkpt lat="42.29534361957735" lon="8.685873237109693"><ele>131.2</ele><time>2026-05-01T14:52:09.999Z</time></trkpt><trkpt lat="42.295420338144424" lon="8.685933249161714"><ele>131.6</ele><time>2026-05-01T14:52:10.999Z</time></trkpt><trkpt lat="42.29545706626946" lon="8.686024269346298"><ele>132.0</ele><time>2026-05-01T14:52:11.999Z</time></trkpt><trkpt lat="42.29545373188027" lon="8.686144748079952"><ele>132.0</ele><time>2026-05-01T14:52:12.999Z</time></trkpt><trkpt lat="42.29540302151144" lon="8.68627009021815"><ele>132.0</ele><time>2026-05-01T14:52:13.999Z</time></trkpt><trkpt lat="42.295297935612055" lon="8.686373669059124"><ele>132.0</ele><time>2026-05-01T14:52:14.999Z</time></trkpt><trkpt lat="42.29512961765026" lon="8.68647213922247"><ele>132.0</ele><time>2026-05-01T14:52:15.999Z</time></trkpt><trkpt lat="42.29491331220189" lon="8.686548372709936"><ele>127.0</ele><time>2026-05-01T14:52:16.999Z</time></trkpt><trkpt lat="42.294740513321784" lon="8.686623136089084"><ele>122.0</ele><time>2026-05-01T14:52:17.999Z</time></trkpt><trkpt lat="42.29461781395189" lon="8.686719196723248"><ele>117.0</ele><time>2026-05-01T14:52:18.999Z</time></trkpt><trkpt lat="42.29452080939408" lon="8.686886796485076"><ele>118.25</ele><time>2026-05-01T14:52:19.999Z</time></trkpt><trkpt lat="42.294418072014636" lon="8.687052123972045"><ele>119.5</ele><time>2026-05-01T14:52:20.999Z</time></trkpt><trkpt lat="42.294295034470835" lon="8.687134901567171"><ele>120.75</ele><time>2026-05-01T14:52:21.999Z</time></trkpt><trkpt lat="42.29416696308265" lon="8.687217277022299"><ele>122.0</ele><time>2026-05-01T14:52:22.999Z</time></trkpt><trkpt lat="42.294046813071375" lon="8.68738243449479"><ele>122.0</ele><time>2026-05-01T14:52:23.999Z</time></trkpt><trkpt lat="42.293932723604954" lon="8.687635926995986"><ele>122.0</ele><time>2026-05-01T14:52:24.999Z</time></trkpt><trkpt lat="42.29378950027319" lon="8.687904251528545"><ele>117.5</ele><time>2026-05-01T14:52:25.999Z</time></trkpt><trkpt lat="42.29364558744981" lon="8.688036221463822"><ele>113.0</ele><time>2026-05-01T14:52:26.999Z</time></trkpt><trkpt lat="42.293537734192135" lon="8.688143598208175"><ele>108.5</ele><time>2026-05-01T14:52:27.999Z</time></trkpt><trkpt lat="42.29350639397458" lon="8.688299303524674"><ele>104.0</ele><time>2026-05-01T14:52:28.999Z</time></trkpt><trkpt lat="42.293553676663" lon="8.688458958132502"><ele>104.0</ele><time>2026-05-01T14:52:29.999Z</time></trkpt><trkpt lat="42.293670406824816" lon="8.688587750784485"><ele>104.0</ele><time>2026-05-01T14:52:30.999Z</time></trkpt><trkpt lat="42.293793202463625" lon="8.68871914664707"><ele>104.0</ele><time>2026-05-01T14:52:31.999Z</time></trkpt><trkpt lat="42.29383598049116" lon="8.688885686085817"><ele>104.0</ele><time>2026-05-01T14:52:32.999Z</time></trkpt><trkpt lat="42.2937885681154" lon="8.689088768237156"><ele>103.33333333333333</ele><time>2026-05-01T14:52:33.999Z</time></trkpt><trkpt lat="42.29369263329773" lon="8.689311921537792"><ele>102.66666666666666</ele><time>2026-05-01T14:52:34.999Z</time></trkpt><trkpt lat="42.293622434896164" lon="8.689557332740359"><ele>102.0</ele><time>2026-05-01T14:52:35.999Z</time></trkpt><trkpt lat="42.29361448593075" lon="8.689815311956863"><ele>102.0</ele><time>2026-05-01T14:52:36.999Z</time></trkpt><trkpt lat="42.29367456658287" lon="8.690061740295072"><ele>102.0</ele><time>2026-05-01T14:52:38Z</time></trkpt><trkpt lat="42.29378480862032" lon="8.690337662716892"><ele>102.0</ele><time>2026-05-01T14:52:39Z</time></trkpt><trkpt lat="42.29390639178846" lon="8.690636086640612"><ele>103.75</ele><time>2026-05-01T14:52:40Z</time></trkpt><trkpt lat="42.29396353935713" lon="8.690872074728235"><ele>105.5</ele><time>2026-05-01T14:52:41Z</time></trkpt><trkpt lat="42.293951573757376" lon="8.69102842053162"><ele>107.25</ele><time>2026-05-01T14:52:42Z</time></trkpt><trkpt lat="42.29390814700975" lon="8.691122553777678"><ele>109.0</ele><time>2026-05-01T14:52:43Z</time></trkpt><trkpt lat="42.29381076419424" lon="8.691142565166297"><ele>109.0</ele><time>2026-05-01T14:52:44Z</time></trkpt><trkpt lat="42.29367752528843" lon="8.691118896115121"><ele>109.0</ele><time>2026-05-01T14:52:45Z</time></trkpt><trkpt lat="42.2935473478561" lon="8.69107228730351"><ele>109.0</ele><time>2026-05-01T14:52:46Z</time></trkpt><trkpt lat="42.29340918178633" lon="8.6911368932706"><ele>109.0</ele><time>2026-05-01T14:52:47Z</time></trkpt><trkpt lat="42.29326636177068" lon="8.691314582008395"><ele>109.0</ele><time>2026-05-01T14:52:48Z</time></trkpt><trkpt lat="42.293104665830846" lon="8.691493356816729"><ele>109.0</ele><time>2026-05-01T14:52:49Z</time></trkpt><trkpt lat="42.29294341937558" lon="8.691568233268491"><ele>109.0</ele><time>2026-05-01T14:52:50Z</time></trkpt><trkpt lat="42.29276688372965" lon="8.691568968476664"><ele>102.33333333333334</ele><time>2026-05-01T14:52:51Z</time></trkpt><trkpt lat="42.29263020783313" lon="8.691611729066208"><ele>95.66666666666667</ele><time>2026-05-01T14:52:52Z</time></trkpt><trkpt lat="42.292491432431085" lon="8.691704925510496"><ele>89.0</ele><time>2026-05-01T14:52:53Z</time></trkpt><trkpt lat="42.292324029372686" lon="8.691765640217522"><ele>86.75</ele><time>2026-05-01T14:52:54Z</time></trkpt><trkpt lat="42.29216489802626" lon="8.691799931226377"><ele>84.5</ele><time>2026-05-01T14:52:55Z</time></trkpt><trkpt lat="42.29206221015658" lon="8.691879862533282"><ele>82.25</ele><time>2026-05-01T14:52:56Z</time></trkpt><trkpt lat="42.2919815614244" lon="8.692044622672237"><ele>80.0</ele><time>2026-05-01T14:52:57Z</time></trkpt><trkpt lat="42.291915610371795" lon="8.692280735780722"><ele>80.0</ele><time>2026-05-01T14:52:58Z</time></trkpt><trkpt lat="42.291868474717106" lon="8.69253812658006"><ele>80.0</ele><time>2026-05-01T14:52:59Z</time></trkpt><trkpt lat="42.29182139488665" lon="8.692776478233547"><ele>80.0</ele><time>2026-05-01T14:53:00Z</time></trkpt><trkpt lat="42.291738531127905" lon="8.692951596774781"><ele>77.0</ele><time>2026-05-01T14:53:01Z</time></trkpt><trkpt lat="42.291610083671806" lon="8.693048245127835"><ele>74.0</ele><time>2026-05-01T14:53:02Z</time></trkpt><trkpt lat="42.291440876637" lon="8.693098743117025"><ele>71.0</ele><time>2026-05-01T14:53:03Z</time></trkpt><trkpt lat="42.29127230282008" lon="8.693203494788662"><ele>71.0</ele><time>2026-05-01T14:53:04Z</time></trkpt><trkpt lat="42.29110712158514" lon="8.693364376283208"><ele>71.0</ele><time>2026-05-01T14:53:05Z</time></trkpt><trkpt lat="42.290962555405706" lon="8.693523602540722"><ele>71.0</ele><time>2026-05-01T14:53:06Z</time></trkpt><trkpt lat="42.29085489861153" lon="8.693700969763134"><ele>72.75</ele><time>2026-05-01T14:53:07Z</time></trkpt><trkpt lat="42.29080295907816" lon="8.693873596688414"><ele>74.5</ele><time>2026-05-01T14:53:08Z</time></trkpt><trkpt lat="42.290803658296504" lon="8.694027039433369"><ele>76.25</ele><time>2026-05-01T14:53:09Z</time></trkpt><trkpt lat="42.29086060882546" lon="8.694174519711906"><ele>78.0</ele><time>2026-05-01T14:53:10Z</time></trkpt><trkpt lat="42.29096828333455" lon="8.694347875510001"><ele>75.0</ele><time>2026-05-01T14:53:11Z</time></trkpt><trkpt lat="42.291058476855575" lon="8.694575149697666"><ele>72.0</ele><time>2026-05-01T14:53:12Z</time></trkpt><trkpt lat="42.29108779989694" lon="8.694840545106855"><ele>69.0</ele><time>2026-05-01T14:53:13Z</time></trkpt><trkpt lat="42.29105377560687" lon="8.695130162869342"><ele>67.0</ele><time>2026-05-01T14:53:14Z</time></trkpt><trkpt lat="42.290995500671734" lon="8.695365358247816"><ele>65.0</ele><time>2026-05-01T14:53:15Z</time></trkpt><trkpt lat="42.290971076173896" lon="8.695571269749657"><ele>63.0</ele><time>2026-05-01T14:53:16Z</time></trkpt><trkpt lat="42.29101249816762" lon="8.695768102333744"><ele>63.0</ele><time>2026-05-01T14:53:17Z</time></trkpt><trkpt lat="42.29112514971777" lon="8.695966074692636"><ele>63.0</ele><time>2026-05-01T14:53:18Z</time></trkpt><trkpt lat="42.29123373135563" lon="8.696198491923898"><ele>63.0</ele><time>2026-05-01T14:53:19Z</time></trkpt><trkpt lat="42.29127668497637" lon="8.696459235357999"><ele>59.33333333333333</ele><time>2026-05-01T14:53:20Z</time></trkpt><trkpt lat="42.29128195485348" lon="8.696691471294884"><ele>55.666666666666664</ele><time>2026-05-01T14:53:21Z</time></trkpt><trkpt lat="42.291316036256866" lon="8.69689383867393"><ele>52.0</ele><time>2026-05-01T14:53:22Z</time></trkpt><trkpt lat="42.291417240067744" lon="8.697103345302821"><ele>56.0</ele><time>2026-05-01T14:53:23Z</time></trkpt><trkpt lat="42.29153557549014" lon="8.697338690366541"><ele>60.0</ele><time>2026-05-01T14:53:24Z</time></trkpt><trkpt lat="42.29165231047585" lon="8.697586205552744"><ele>64.0</ele><time>2026-05-01T14:53:25Z</time></trkpt><trkpt lat="42.29180293517869" lon="8.697797661759028"><ele>57.666666666666664</ele><time>2026-05-01T14:53:26Z</time></trkpt><trkpt lat="42.29197994836945" lon="8.697942059665424"><ele>51.33333333333333</ele><time>2026-05-01T14:53:27Z</time></trkpt><trkpt lat="42.29214488747885" lon="8.698056353604835"><ele>45.0</ele><time>2026-05-01T14:53:28Z</time></trkpt><trkpt lat="42.292306393901015" lon="8.698107386221519"><ele>45.0</ele><time>2026-05-01T14:53:29Z</time></trkpt><trkpt lat="42.292465018203394" lon="8.698114889276981"><ele>45.0</ele><time>2026-05-01T14:53:30Z</time></trkpt><trkpt lat="42.292608727827954" lon="8.698071769320357"><ele>45.0</ele><time>2026-05-01T14:53:30.999Z</time></trkpt><trkpt lat="42.29275812470082" lon="8.697976685192897"><ele>45.0</ele><time>2026-05-01T14:53:31.999Z</time></trkpt><trkpt lat="42.29292087791499" lon="8.697863289805758"><ele>45.0</ele><time>2026-05-01T14:53:32.999Z</time></trkpt><trkpt lat="42.2930975456981" lon="8.697763838016556"><ele>45.0</ele><time>2026-05-01T14:53:33.999Z</time></trkpt><trkpt lat="42.29328917917963" lon="8.697686253233117"><ele>52.33333333333333</ele><time>2026-05-01T14:53:34.999Z</time></trkpt><trkpt lat="42.29348568183746" lon="8.697622174238408"><ele>59.666666666666664</ele><time>2026-05-01T14:53:35.999Z</time></trkpt><trkpt lat="42.29369725514762" lon="8.697595585765349"><ele>67.0</ele><time>2026-05-01T14:53:36.999Z</time></trkpt><trkpt lat="42.29390300179888" lon="8.697606220973674"><ele>63.0</ele><time>2026-05-01T14:53:37.999Z</time></trkpt><trkpt lat="42.29409164025511" lon="8.69760413310233"><ele>59.0</ele><time>2026-05-01T14:53:38.999Z</time></trkpt><trkpt lat="42.29427159815425" lon="8.697592799153044"><ele>55.0</ele><time>2026-05-01T14:53:39.999Z</time></trkpt><trkpt lat="42.29444198964355" lon="8.697602568133684"><ele>55.0</ele><time>2026-05-01T14:53:40.999Z</time></trkpt><trkpt lat="42.29460298909944" lon="8.69766808753573"><ele>55.0</ele><time>2026-05-01T14:53:41.999Z</time></trkpt><trkpt lat="42.294769023434135" lon="8.697780106626642"><ele>55.0</ele><time>2026-05-01T14:53:42.999Z</time></trkpt><trkpt lat="42.294934987781396" lon="8.697926431715528"><ele>49.0</ele><time>2026-05-01T14:53:43.999Z</time></trkpt><trkpt lat="42.29509254929846" lon="8.698110686323067"><ele>43.0</ele><time>2026-05-01T14:53:44.999Z</time></trkpt><trkpt lat="42.29523959618256" lon="8.698301042701651"><ele>37.0</ele><time>2026-05-01T14:53:45.999Z</time></trkpt><trkpt lat="42.295360502988395" lon="8.698488213389743"><ele>35.66666666666667</ele><time>2026-05-01T14:53:46.999Z</time></trkpt><trkpt lat="42.295479457106346" lon="8.698662962520446"><ele>34.333333333333336</ele><time>2026-05-01T14:53:47.999Z</time></trkpt><trkpt lat="42.29562345754681" lon="8.698796587126594"><ele>33.0</ele><time>2026-05-01T14:53:48.999Z</time></trkpt><trkpt lat="42.295797417296015" lon="8.698880891478153"><ele>33.0</ele><time>2026-05-01T14:53:49.999Z</time></trkpt><trkpt lat="42.295973500136824" lon="8.69892964464034"><ele>33.0</ele><time>2026-05-01T14:53:50.999Z</time></trkpt><trkpt lat="42.29613735904318" lon="8.698933310071475"><ele>33.0</ele><time>2026-05-01T14:53:51.999Z</time></trkpt><trkpt lat="42.29631277980787" lon="8.698888833762142"><ele>33.333333333333336</ele><time>2026-05-01T14:53:52.999Z</time></trkpt><trkpt lat="42.296492570271496" lon="8.698781612516731"><ele>33.66666666666667</ele><time>2026-05-01T14:53:53.999Z</time></trkpt><trkpt lat="42.296669682335306" lon="8.698672740499177"><ele>34.0</ele><time>2026-05-01T14:53:54.999Z</time></trkpt><trkpt lat="42.296813449016895" lon="8.698599085374878"><ele>34.0</ele><time>2026-05-01T14:53:55.999Z</time></trkpt><trkpt lat="42.296924103097886" lon="8.698578593701948"><ele>34.0</ele><time>2026-05-01T14:53:56.999Z</time></trkpt><trkpt lat="42.29701247428118" lon="8.698596186478323"><ele>34.0</ele><time>2026-05-01T14:53:57.999Z</time></trkpt><trkpt lat="42.297065809689855" lon="8.698668488859836"><ele>34.0</ele><time>2026-05-01T14:53:58.999Z</time></trkpt><trkpt lat="42.297085747570954" lon="8.698792479826437"><ele>34.0</ele><time>2026-05-01T14:53:59.999Z</time></trkpt><trkpt lat="42.29707122482338" lon="8.698929609000048"><ele>34.0</ele><time>2026-05-01T14:54:00.999Z</time></trkpt><trkpt lat="42.29701787180665" lon="8.699050992916874"><ele>34.0</ele><time>2026-05-01T14:54:01.999Z</time></trkpt><trkpt lat="42.296921421706934" lon="8.69915213006104"><ele>34.0</ele><time>2026-05-01T14:54:02.999Z</time></trkpt><trkpt lat="42.29681114466158" lon="8.69924671128315"><ele>34.0</ele><time>2026-05-01T14:54:03.999Z</time></trkpt><trkpt lat="42.29666778540453" lon="8.69935469270731"><ele>35.0</ele><time>2026-05-01T14:54:04.999Z</time></trkpt><trkpt lat="42.296487535628856" lon="8.69949699213343"><ele>36.0</ele><time>2026-05-01T14:54:05.999Z</time></trkpt><trkpt lat="42.29626732435369" lon="8.699643300822629"><ele>36.0</ele><time>2026-05-01T14:54:06.999Z</time></trkpt><trkpt lat="42.29605911178907" lon="8.6997514954176"><ele>36.0</ele><time>2026-05-01T14:54:07.999Z</time></trkpt><trkpt lat="42.295886018856656" lon="8.699810813116798"><ele>36.0</ele><time>2026-05-01T14:54:08.999Z</time></trkpt><trkpt lat="42.295717084844014" lon="8.699828437029181"><ele>35.0</ele><time>2026-05-01T14:54:09.999Z</time></trkpt><trkpt lat="42.29556964344084" lon="8.699797534983658"><ele>34.0</ele><time>2026-05-01T14:54:10.999Z</time></trkpt><trkpt lat="42.295450582262525" lon="8.699745299315127"><ele>33.0</ele><time>2026-05-01T14:54:11.999Z</time></trkpt><trkpt lat="42.2953481942952" lon="8.699701128991654"><ele>32.0</ele><time>2026-05-01T14:54:12.999Z</time></trkpt><trkpt lat="42.29525800427287" lon="8.699691012304788"><ele>32.0</ele><time>2026-05-01T14:54:13.999Z</time></trkpt><trkpt lat="42.295171417714826" lon="8.699757830045241"><ele>32.0</ele><time>2026-05-01T14:54:14.999Z</time></trkpt><trkpt lat="42.295108489623445" lon="8.699859796009326"><ele>32.0</ele><time>2026-05-01T14:54:15.999Z</time></trkpt><trkpt lat="42.29504778309194" lon="8.70002014337272"><ele>32.0</ele><time>2026-05-01T14:54:16.999Z</time></trkpt><trkpt lat="42.29498617606" lon="8.700209685552899"><ele>31.333333333333332</ele><time>2026-05-01T14:54:17.999Z</time></trkpt><trkpt lat="42.29492251615927" lon="8.700401487982155"><ele>30.666666666666664</ele><time>2026-05-01T14:54:18.999Z</time></trkpt><trkpt lat="42.29486624688425" lon="8.700597481838223"><ele>30.0</ele><time>2026-05-01T14:54:19.999Z</time></trkpt><trkpt lat="42.29480650710001" lon="8.700794253792658"><ele>29.0</ele><time>2026-05-01T14:54:20.999Z</time></trkpt><trkpt lat="42.29473887954913" lon="8.700990344167122"><ele>28.0</ele><time>2026-05-01T14:54:21.999Z</time></trkpt><trkpt lat="42.294674694500216" lon="8.701181339856793"><ele>27.0</ele><time>2026-05-01T14:54:22.999Z</time></trkpt><trkpt lat="42.29462067774274" lon="8.701351160275568"><ele>29.8</ele><time>2026-05-01T14:54:23.999Z</time></trkpt><trkpt lat="42.29456270253613" lon="8.70150110576847"><ele>32.6</ele><time>2026-05-01T14:54:24.999Z</time></trkpt><trkpt lat="42.29449782350932" lon="8.701619741978499"><ele>35.4</ele><time>2026-05-01T14:54:25.999Z</time></trkpt><trkpt lat="42.29440636184021" lon="8.701679093242934"><ele>38.199999999999996</ele><time>2026-05-01T14:54:26.999Z</time></trkpt><trkpt lat="42.294314086939416" lon="8.701695181644746"><ele>41.0</ele><time>2026-05-01T14:54:27.999Z</time></trkpt><trkpt lat="42.29422260535387" lon="8.701642367762302"><ele>41.0</ele><time>2026-05-01T14:54:28.999Z</time></trkpt><trkpt lat="42.2941212397995" lon="8.701531618984085"><ele>41.0</ele><time>2026-05-01T14:54:29.999Z</time></trkpt><trkpt lat="42.29399668312064" lon="8.70139878703162"><ele>41.0</ele><time>2026-05-01T14:54:30.999Z</time></trkpt><trkpt lat="42.29384676338437" lon="8.701247235878732"><ele>40.0</ele><time>2026-05-01T14:54:31.999Z</time></trkpt><trkpt lat="42.2937136760342" lon="8.701076858148179"><ele>39.0</ele><time>2026-05-01T14:54:32.999Z</time></trkpt><trkpt lat="42.29360235010259" lon="8.700909363022518"><ele>38.0</ele><time>2026-05-01T14:54:33.999Z</time></trkpt><trkpt lat="42.29347641738651" lon="8.70077978475834"><ele>38.0</ele><time>2026-05-01T14:54:34.999Z</time></trkpt><trkpt lat="42.29334538904022" lon="8.700670066879923"><ele>38.0</ele><time>2026-05-01T14:54:35.999Z</time></trkpt><trkpt lat="42.29319437869672" lon="8.700600878977044"><ele>38.0</ele><time>2026-05-01T14:54:36.999Z</time></trkpt><trkpt lat="42.293016543251184" lon="8.700571552814331"><ele>39.666666666666664</ele><time>2026-05-01T14:54:37.999Z</time></trkpt><trkpt lat="42.2928396923677" lon="8.700592594976618"><ele>41.333333333333336</ele><time>2026-05-01T14:54:38.998Z</time></trkpt><trkpt lat="42.29267522595065" lon="8.700600567098164"><ele>43.0</ele><time>2026-05-01T14:54:39.998Z</time></trkpt><trkpt lat="42.29252764528633" lon="8.700542795454457"><ele>43.0</ele><time>2026-05-01T14:54:40.998Z</time></trkpt><trkpt lat="42.292385460085235" lon="8.700429055460589"><ele>43.0</ele><time>2026-05-01T14:54:41.998Z</time></trkpt><trkpt lat="42.29222871254211" lon="8.700318219032352"><ele>43.0</ele><time>2026-05-01T14:54:42.998Z</time></trkpt><trkpt lat="42.29206835477658" lon="8.700238918188695"><ele>44.25</ele><time>2026-05-01T14:54:44Z</time></trkpt><trkpt lat="42.29192571178607" lon="8.700185142993954"><ele>45.5</ele><time>2026-05-01T14:54:45Z</time></trkpt><trkpt lat="42.291794460408006" lon="8.700165626152234"><ele>46.75</ele><time>2026-05-01T14:54:46Z</time></trkpt><trkpt lat="42.29165539210383" lon="8.700211874144802"><ele>48.0</ele><time>2026-05-01T14:54:47Z</time></trkpt><trkpt lat="42.29150447651185" lon="8.700259877818855"><ele>48.5</ele><time>2026-05-01T14:54:48Z</time></trkpt><trkpt lat="42.291344573716906" lon="8.700284409702133"><ele>49.0</ele><time>2026-05-01T14:54:49Z</time></trkpt><trkpt lat="42.29119318075289" lon="8.700265850106648"><ele>49.5</ele><time>2026-05-01T14:54:50Z</time></trkpt><trkpt lat="42.29106359325913" lon="8.700254502628738"><ele>50.0</ele><time>2026-05-01T14:54:51Z</time></trkpt><trkpt lat="42.290938251365006" lon="8.700250080393499"><ele>47.0</ele><time>2026-05-01T14:54:52Z</time></trkpt><trkpt lat="42.29083302278853" lon="8.7002071852149"><ele>44.0</ele><time>2026-05-01T14:54:53Z</time></trkpt><trkpt lat="42.2907424080474" lon="8.700119489862402"><ele>41.0</ele><time>2026-05-01T14:54:54Z</time></trkpt><trkpt lat="42.29069215300734" lon="8.699953525498971"><ele>38.0</ele><time>2026-05-01T14:54:55Z</time></trkpt><trkpt lat="42.29066371174992" lon="8.699774873611865"><ele>38.0</ele><time>2026-05-01T14:54:56Z</time></trkpt><trkpt lat="42.290627887505" lon="8.699601848636755"><ele>38.0</ele><time>2026-05-01T14:54:57Z</time></trkpt><trkpt lat="42.290550511687734" lon="8.699476097242735"><ele>38.0</ele><time>2026-05-01T14:54:58Z</time></trkpt><trkpt lat="42.29043457378904" lon="8.699393346452474"><ele>38.0</ele><time>2026-05-01T14:54:59Z</time></trkpt><trkpt lat="42.290315610290456" lon="8.69937148020891"><ele>39.5</ele><time>2026-05-01T14:55:00Z</time></trkpt><trkpt lat="42.29019086251228" lon="8.699434726395806"><ele>41.0</ele><time>2026-05-01T14:55:01Z</time></trkpt><trkpt lat="42.2900890398723" lon="8.699561057604896"><ele>42.5</ele><time>2026-05-01T14:55:02Z</time></trkpt><trkpt lat="42.290024230574986" lon="8.699754216413341"><ele>44.0</ele><time>2026-05-01T14:55:03Z</time></trkpt><trkpt lat="42.28995087406731" lon="8.699964526925616"><ele>44.0</ele><time>2026-05-01T14:55:04Z</time></trkpt><trkpt lat="42.28985531059301" lon="8.700122085367227"><ele>44.0</ele><time>2026-05-01T14:55:05Z</time></trkpt><trkpt lat="42.28971654270905" lon="8.700221354015417"><ele>44.0</ele><time>2026-05-01T14:55:06Z</time></trkpt><trkpt lat="42.28957186085131" lon="8.700293597525205"><ele>45.75</ele><time>2026-05-01T14:55:07Z</time></trkpt><trkpt lat="42.2894259639455" lon="8.700318721644628"><ele>47.5</ele><time>2026-05-01T14:55:08Z</time></trkpt><trkpt lat="42.28929065279549" lon="8.700264382950527"><ele>49.25</ele><time>2026-05-01T14:55:09Z</time></trkpt><trkpt lat="42.28916809467993" lon="8.700155632694123"><ele>51.0</ele><time>2026-05-01T14:55:10Z</time></trkpt><trkpt lat="42.2890665429073" lon="8.70000769794968"><ele>51.0</ele><time>2026-05-01T14:55:11Z</time></trkpt><trkpt lat="42.28899569537424" lon="8.699856276193863"><ele>51.0</ele><time>2026-05-01T14:55:12Z</time></trkpt><trkpt lat="42.28897969479388" lon="8.699725684239715"><ele>51.0</ele><time>2026-05-01T14:55:13Z</time></trkpt><trkpt lat="42.28900493735973" lon="8.699531643578833"><ele>51.0</ele><time>2026-05-01T14:55:14Z</time></trkpt><trkpt lat="42.28902680521609" lon="8.699365188380039"><ele>49.5</ele><time>2026-05-01T14:55:15Z</time></trkpt><trkpt lat="42.28898886231573" lon="8.699208464755054"><ele>48.0</ele><time>2026-05-01T14:55:16Z</time></trkpt><trkpt lat="42.288885596373774" lon="8.699079409568784"><ele>46.5</ele><time>2026-05-01T14:55:17Z</time></trkpt><trkpt lat="42.2887625719303" lon="8.698978468883825"><ele>45.0</ele><time>2026-05-01T14:55:18Z</time></trkpt><trkpt lat="42.28861662680185" lon="8.698930498421905"><ele>51.33333333333333</ele><time>2026-05-01T14:55:19Z</time></trkpt><trkpt lat="42.28845499753449" lon="8.698939365846254"><ele>57.666666666666664</ele><time>2026-05-01T14:55:20Z</time></trkpt><trkpt lat="42.28829338126393" lon="8.698920126405563"><ele>64.0</ele><time>2026-05-01T14:55:21Z</time></trkpt><trkpt lat="42.28814797596417" lon="8.698830421639729"><ele>65.0</ele><time>2026-05-01T14:55:22Z</time></trkpt><trkpt lat="42.288030353109235" lon="8.698696353724367"><ele>66.0</ele><time>2026-05-01T14:55:23Z</time></trkpt><trkpt lat="42.28794689871631" lon="8.698537461196501"><ele>67.0</ele><time>2026-05-01T14:55:24Z</time></trkpt><trkpt lat="42.287857179563815" lon="8.698387796826596"><ele>68.0</ele><time>2026-05-01T14:55:25Z</time></trkpt><trkpt lat="42.287745405426804" lon="8.698280905041175"><ele>68.0</ele><time>2026-05-01T14:55:26Z</time></trkpt><trkpt lat="42.287641299068355" lon="8.698202460432517"><ele>68.0</ele><time>2026-05-01T14:55:27Z</time></trkpt><trkpt lat="42.287549055973116" lon="8.698129677784676"><ele>68.0</ele><time>2026-05-01T14:55:28Z</time></trkpt><trkpt lat="42.28747078856376" lon="8.69806531961907"><ele>68.0</ele><time>2026-05-01T14:55:29Z</time></trkpt><trkpt lat="42.287398434117854" lon="8.698006205184216"><ele>68.0</ele><time>2026-05-01T14:55:30Z</time></trkpt><trkpt lat="42.28733478831147" lon="8.697958129917883"><ele>68.0</ele><time>2026-05-01T14:55:31Z</time></trkpt><trkpt lat="42.28727959629495" lon="8.697916795128855"><ele>68.0</ele><time>2026-05-01T14:55:32Z</time></trkpt><trkpt lat="42.287215790144245" lon="8.697871313339645"><ele>68.0</ele><time>2026-05-01T14:55:33Z</time></trkpt><trkpt lat="42.28713152260508" lon="8.697834830310935"><ele>68.0</ele><time>2026-05-01T14:55:34Z</time></trkpt><trkpt lat="42.28701637254119" lon="8.697813145936305"><ele>68.0</ele><time>2026-05-01T14:55:34.999Z</time></trkpt><trkpt lat="42.28689796232483" lon="8.697809018311228"><ele>68.4</ele><time>2026-05-01T14:55:35.999Z</time></trkpt><trkpt lat="42.28680723408158" lon="8.697813560922988"><ele>68.8</ele><time>2026-05-01T14:55:36.999Z</time></trkpt><trkpt lat="42.28673558937768" lon="8.697825695957935"><ele>69.2</ele><time>2026-05-01T14:55:37.999Z</time></trkpt><trkpt lat="42.286631377324106" lon="8.697904931801046"><ele>69.6</ele><time>2026-05-01T14:55:39.999Z</time></trkpt><trkpt lat="42.28657277369333" lon="8.698012524175617"><ele>70.0</ele><time>2026-05-01T14:55:40.999Z</time></trkpt><trkpt lat="42.286523668982134" lon="8.698176631066348"><ele>70.0</ele><time>2026-05-01T14:55:41.999Z</time></trkpt><trkpt lat="42.28647220647523" lon="8.698382777477065"><ele>70.0</ele><time>2026-05-01T14:55:42.999Z</time></trkpt><trkpt lat="42.286400242137276" lon="8.698607011191264"><ele>70.0</ele><time>2026-05-01T14:55:43.999Z</time></trkpt><trkpt lat="42.286318207200495" lon="8.698846027442254"><ele>70.0</ele><time>2026-05-01T14:55:44.999Z</time></trkpt><trkpt lat="42.28623583313815" lon="8.699103997617364"><ele>70.0</ele><time>2026-05-01T14:55:45.999Z</time></trkpt><trkpt lat="42.286153627307755" lon="8.699373134731223"><ele>70.0</ele><time>2026-05-01T14:55:46.999Z</time></trkpt><trkpt lat="42.28605886955105" lon="8.699602260209168"><ele>73.25</ele><time>2026-05-01T14:55:47.999Z</time></trkpt><trkpt lat="42.28595298667219" lon="8.699769359323566"><ele>76.5</ele><time>2026-05-01T14:55:48.999Z</time></trkpt><trkpt lat="42.28584472868729" lon="8.69984595031159"><ele>79.75</ele><time>2026-05-01T14:55:49.999Z</time></trkpt><trkpt lat="42.28572676309772" lon="8.699839851867681"><ele>83.0</ele><time>2026-05-01T14:55:50.999Z</time></trkpt><trkpt lat="42.28557310984095" lon="8.69978929750676"><ele>85.33333333333334</ele><time>2026-05-01T14:55:51.999Z</time></trkpt><trkpt lat="42.2853920530604" lon="8.699702908281008"><ele>87.66666666666667</ele><time>2026-05-01T14:55:52.999Z</time></trkpt><trkpt lat="42.2851837629967" lon="8.699628682136353"><ele>90.0</ele><time>2026-05-01T14:55:53.999Z</time></trkpt><trkpt lat="42.28495240394311" lon="8.699578226181814"><ele>94.33333333333334</ele><time>2026-05-01T14:55:54.999Z</time></trkpt><trkpt lat="42.28474739272218" lon="8.699537498552877"><ele>98.66666666666667</ele><time>2026-05-01T14:55:55.999Z</time></trkpt><trkpt lat="42.28459789318795" lon="8.699481621198498"><ele>103.0</ele><time>2026-05-01T14:55:56.999Z</time></trkpt><trkpt lat="42.28449976703434" lon="8.699399299301193"><ele>103.0</ele><time>2026-05-01T14:55:57.999Z</time></trkpt><trkpt lat="42.2844447270412" lon="8.699284446056188"><ele>103.0</ele><time>2026-05-01T14:55:58.999Z</time></trkpt><trkpt lat="42.284454057960154" lon="8.699125519574691"><ele>103.0</ele><time>2026-05-01T14:55:59.999Z</time></trkpt><trkpt lat="42.28450049041139" lon="8.69893103194728"><ele>103.0</ele><time>2026-05-01T14:56:00.999Z</time></trkpt><trkpt lat="42.28457589156984" lon="8.698674154186975"><ele>110.0</ele><time>2026-05-01T14:56:01.999Z</time></trkpt><trkpt lat="42.28464027157004" lon="8.698386232094983"><ele>117.0</ele><time>2026-05-01T14:56:02.999Z</time></trkpt><trkpt lat="42.28467827461948" lon="8.698046026829726"><ele>121.5</ele><time>2026-05-01T14:56:03.999Z</time></trkpt><trkpt lat="42.284704319279925" lon="8.697691252583521"><ele>126.0</ele><time>2026-05-01T14:56:04.999Z</time></trkpt><trkpt lat="42.28472620485571" lon="8.697378555737057"><ele>126.0</ele><time>2026-05-01T14:56:05.999Z</time></trkpt><trkpt lat="42.284736109833396" lon="8.697126713328663"><ele>126.0</ele><time>2026-05-01T14:56:06.999Z</time></trkpt><trkpt lat="42.28473855484775" lon="8.696916978305696"><ele>126.0</ele><time>2026-05-01T14:56:07.999Z</time></trkpt><trkpt lat="42.284730404726425" lon="8.696728534033301"><ele>123.66666666666666</ele><time>2026-05-01T14:56:08.999Z</time></trkpt><trkpt lat="42.28467967202893" lon="8.696560961256736"><ele>121.33333333333333</ele><time>2026-05-01T14:56:09.999Z</time></trkpt><trkpt lat="42.28458535687158" lon="8.6963779562225"><ele>119.0</ele><time>2026-05-01T14:56:10.999Z</time></trkpt><trkpt lat="42.28448345018208" lon="8.696166940034026"><ele>114.25</ele><time>2026-05-01T14:56:11.999Z</time></trkpt><trkpt lat="42.28443761590938" lon="8.695948072001922"><ele>109.5</ele><time>2026-05-01T14:56:12.999Z</time></trkpt><trkpt lat="42.284413451416164" lon="8.695745997603938"><ele>104.75</ele><time>2026-05-01T14:56:13.999Z</time></trkpt><trkpt lat="42.28436747112803" lon="8.695594635924156"><ele>100.0</ele><time>2026-05-01T14:56:14.999Z</time></trkpt><trkpt lat="42.284270884711006" lon="8.69551838471612"><ele>100.0</ele><time>2026-05-01T14:56:15.999Z</time></trkpt><trkpt lat="42.284105717870865" lon="8.695453528566034"><ele>100.0</ele><time>2026-05-01T14:56:16.999Z</time></trkpt><trkpt lat="42.283940531117636" lon="8.69542422593967"><ele>100.0</ele><time>2026-05-01T14:56:17.999Z</time></trkpt><trkpt lat="42.28380464072088" lon="8.695448584387753"><ele>97.33333333333334</ele><time>2026-05-01T14:56:18.999Z</time></trkpt><trkpt lat="42.283711665442894" lon="8.695552362532172"><ele>94.66666666666667</ele><time>2026-05-01T14:56:19.999Z</time></trkpt><trkpt lat="42.28361006590559" lon="8.695740406735819"><ele>92.0</ele><time>2026-05-01T14:56:20.999Z</time></trkpt><trkpt lat="42.28349295997808" lon="8.695956629006465"><ele>103.5</ele><time>2026-05-01T14:56:21.999Z</time></trkpt><trkpt lat="42.28334331313459" lon="8.696188674493516"><ele>115.0</ele><time>2026-05-01T14:56:22.999Z</time></trkpt><trkpt lat="42.283147977711906" lon="8.696388884668671"><ele>110.66666666666667</ele><time>2026-05-01T14:56:23.999Z</time></trkpt><trkpt lat="42.282938345079934" lon="8.696557388500564"><ele>106.33333333333334</ele><time>2026-05-01T14:56:24.999Z</time></trkpt><trkpt lat="42.28275894652698" lon="8.696677857897573"><ele>102.0</ele><time>2026-05-01T14:56:25.999Z</time></trkpt><trkpt lat="42.28260367743364" lon="8.696751073515102"><ele>102.0</ele><time>2026-05-01T14:56:26.999Z</time></trkpt><trkpt lat="42.282454193774136" lon="8.696819740734789"><ele>102.0</ele><time>2026-05-01T14:56:27.999Z</time></trkpt><trkpt lat="42.28230839447331" lon="8.696917493439603"><ele>102.0</ele><time>2026-05-01T14:56:28.999Z</time></trkpt><trkpt lat="42.282168119710775" lon="8.697035652357767"><ele>109.75</ele><time>2026-05-01T14:56:29.999Z</time></trkpt><trkpt lat="42.28204160388388" lon="8.697137859684785"><ele>117.5</ele><time>2026-05-01T14:56:30.999Z</time></trkpt><trkpt lat="42.2819290729848" lon="8.697196119411121"><ele>125.25</ele><time>2026-05-01T14:56:31.999Z</time></trkpt><trkpt lat="42.281818221402595" lon="8.697199955123523"><ele>133.0</ele><time>2026-05-01T14:56:32.999Z</time></trkpt><trkpt lat="42.281720513654506" lon="8.697131991490746"><ele>133.0</ele><time>2026-05-01T14:56:33.999Z</time></trkpt><trkpt lat="42.281644424135976" lon="8.697001690211628"><ele>133.0</ele><time>2026-05-01T14:56:34.999Z</time></trkpt><trkpt lat="42.281569841003815" lon="8.696809405019781"><ele>133.0</ele><time>2026-05-01T14:56:35.999Z</time></trkpt><trkpt lat="42.28148716103522" lon="8.696565888672492"><ele>133.66666666666669</ele><time>2026-05-01T14:56:36.999Z</time></trkpt><trkpt lat="42.28138386566774" lon="8.696324888794113"><ele>134.33333333333334</ele><time>2026-05-01T14:56:37.999Z</time></trkpt><trkpt lat="42.28126396710758" lon="8.696061466515726"><ele>135.0</ele><time>2026-05-01T14:56:38.999Z</time></trkpt><trkpt lat="42.28110867760567" lon="8.695804180997598"><ele>135.0</ele><time>2026-05-01T14:56:39.999Z</time></trkpt><trkpt lat="42.28095579480765" lon="8.695602070364911"><ele>135.0</ele><time>2026-05-01T14:56:40.999Z</time></trkpt><trkpt lat="42.280844146464354" lon="8.695415979810807"><ele>135.0</ele><time>2026-05-01T14:56:41.999Z</time></trkpt><trkpt lat="42.28077934562901" lon="8.695239010220677"><ele>135.66666666666666</ele><time>2026-05-01T14:56:42.998Z</time></trkpt><trkpt lat="42.28070303374803" lon="8.695082803594795"><ele>136.33333333333331</ele><time>2026-05-01T14:56:43.998Z</time></trkpt><trkpt lat="42.28056281905978" lon="8.694943061424215"><ele>137.0</ele><time>2026-05-01T14:56:44.998Z</time></trkpt><trkpt lat="42.28037229350027" lon="8.694818098165428"><ele>137.0</ele><time>2026-05-01T14:56:45.998Z</time></trkpt><trkpt lat="42.28021098061241" lon="8.694661767070565"><ele>137.0</ele><time>2026-05-01T14:56:46.998Z</time></trkpt><trkpt lat="42.28009828885179" lon="8.69447136179127"><ele>137.0</ele><time>2026-05-01T14:56:47.998Z</time></trkpt><trkpt lat="42.280003229441284" lon="8.694281887094567"><ele>140.0</ele><time>2026-05-01T14:56:48.998Z</time></trkpt><trkpt lat="42.27986555223159" lon="8.694138949145328"><ele>143.0</ele><time>2026-05-01T14:56:50Z</time></trkpt><trkpt lat="42.27969018372558" lon="8.694056682828794"><ele>146.0</ele><time>2026-05-01T14:56:51Z</time></trkpt><trkpt lat="42.279532697866216" lon="8.693971069168185"><ele>146.0</ele><time>2026-05-01T14:56:52Z</time></trkpt><trkpt lat="42.27942225604751" lon="8.693841243170152"><ele>146.0</ele><time>2026-05-01T14:56:53Z</time></trkpt><trkpt lat="42.27935536243194" lon="8.693663519622913"><ele>146.0</ele><time>2026-05-01T14:56:54Z</time></trkpt><trkpt lat="42.27931293518943" lon="8.693437313556501"><ele>144.0</ele><time>2026-05-01T14:56:55Z</time></trkpt><trkpt lat="42.27928836982392" lon="8.693187811325137"><ele>142.0</ele><time>2026-05-01T14:56:56Z</time></trkpt><trkpt lat="42.27925614554009" lon="8.692948722453712"><ele>140.0</ele><time>2026-05-01T14:56:57Z</time></trkpt><trkpt lat="42.27921449988667" lon="8.692742952350207"><ele>138.8</ele><time>2026-05-01T14:56:58Z</time></trkpt><trkpt lat="42.27918098315072" lon="8.692567325993107"><ele>137.6</ele><time>2026-05-01T14:56:59Z</time></trkpt><trkpt lat="42.27916914829523" lon="8.692412059274735"><ele>136.4</ele><time>2026-05-01T14:57:00Z</time></trkpt><trkpt lat="42.279161790403286" lon="8.692273385397597"><ele>135.2</ele><time>2026-05-01T14:57:01Z</time></trkpt><trkpt lat="42.27912321206536" lon="8.692165470955722"><ele>134.0</ele><time>2026-05-01T14:57:02Z</time></trkpt><trkpt lat="42.27904958327303" lon="8.692079965410063"><ele>134.0</ele><time>2026-05-01T14:57:03Z</time></trkpt><trkpt lat="42.27894579649416" lon="8.692054650078493"><ele>134.0</ele><time>2026-05-01T14:57:04Z</time></trkpt><trkpt lat="42.27883094172383" lon="8.692102424614648"><ele>134.0</ele><time>2026-05-01T14:57:05Z</time></trkpt><trkpt lat="42.27870702971931" lon="8.692210007482378"><ele>134.0</ele><time>2026-05-01T14:57:06Z</time></trkpt><trkpt lat="42.278594480130444" lon="8.692324897826756"><ele>130.0</ele><time>2026-05-01T14:57:07Z</time></trkpt><trkpt lat="42.27851912038197" lon="8.69244670784564"><ele>126.0</ele><time>2026-05-01T14:57:08Z</time></trkpt><trkpt lat="42.278470216464115" lon="8.692610571669096"><ele>122.0</ele><time>2026-05-01T14:57:09Z</time></trkpt><trkpt lat="42.278430815445326" lon="8.692796144127199"><ele>118.0</ele><time>2026-05-01T14:57:10Z</time></trkpt><trkpt lat="42.27835881967706" lon="8.692950425379657"><ele>125.75</ele><time>2026-05-01T14:57:11Z</time></trkpt><trkpt lat="42.27824893030174" lon="8.693064310404868"><ele>133.5</ele><time>2026-05-01T14:57:12Z</time></trkpt><trkpt lat="42.27814185430108" lon="8.693126303564917"><ele>141.25</ele><time>2026-05-01T14:57:13Z</time></trkpt><trkpt lat="42.278030610844446" lon="8.693126364564375"><ele>149.0</ele><time>2026-05-01T14:57:14Z</time></trkpt><trkpt lat="42.2779112902547" lon="8.693143885135617"><ele>149.0</ele><time>2026-05-01T14:57:15Z</time></trkpt><trkpt lat="42.27779687074334" lon="8.693227218975958"><ele>149.0</ele><time>2026-05-01T14:57:16Z</time></trkpt><trkpt lat="42.277681135321885" lon="8.693317091754164"><ele>149.0</ele><time>2026-05-01T14:57:17Z</time></trkpt><trkpt lat="42.2775443339983" lon="8.693371984102896"><ele>149.0</ele><time>2026-05-01T14:57:18Z</time></trkpt><trkpt lat="42.277414904927596" lon="8.693393731549115"><ele>149.0</ele><time>2026-05-01T14:57:19Z</time></trkpt><trkpt lat="42.277295523330864" lon="8.693356342944478"><ele>149.0</ele><time>2026-05-01T14:57:20Z</time></trkpt><trkpt lat="42.27718916977993" lon="8.693270043254103"><ele>149.0</ele><time>2026-05-01T14:57:21Z</time></trkpt><trkpt lat="42.277103469634255" lon="8.693136089559259"><ele>149.0</ele><time>2026-05-01T14:57:22Z</time></trkpt><trkpt lat="42.277008940215254" lon="8.693010626570912"><ele>144.75</ele><time>2026-05-01T14:57:23Z</time></trkpt><trkpt lat="42.276895783324385" lon="8.692941102845836"><ele>140.5</ele><time>2026-05-01T14:57:24Z</time></trkpt><trkpt lat="42.276765931578424" lon="8.692904642660489"><ele>136.25</ele><time>2026-05-01T14:57:25Z</time></trkpt><trkpt lat="42.27665308697015" lon="8.692837365958445"><ele>132.0</ele><time>2026-05-01T14:57:26Z</time></trkpt><trkpt lat="42.27656480007141" lon="8.692717092557078"><ele>132.0</ele><time>2026-05-01T14:57:27Z</time></trkpt><trkpt lat="42.276508841788484" lon="8.69257950543378"><ele>132.0</ele><time>2026-05-01T14:57:28Z</time></trkpt><trkpt lat="42.27648650818861" lon="8.692436482700195"><ele>132.0</ele><time>2026-05-01T14:57:29Z</time></trkpt><trkpt lat="42.276468979738034" lon="8.692322836385493"><ele>132.0</ele><time>2026-05-01T14:57:30Z</time></trkpt><trkpt lat="42.27640225976773" lon="8.692253620579345"><ele>132.0</ele><time>2026-05-01T14:57:31Z</time></trkpt><trkpt lat="42.276288275362106" lon="8.692188028790676"><ele>141.75</ele><time>2026-05-01T14:57:32Z</time></trkpt><trkpt lat="42.27616453296908" lon="8.692136340201786"><ele>151.5</ele><time>2026-05-01T14:57:33Z</time></trkpt><trkpt lat="42.27605879175934" lon="8.692118374713814"><ele>161.25</ele><time>2026-05-01T14:57:34Z</time></trkpt><trkpt lat="42.275981171353735" lon="8.692108854003756"><ele>171.0</ele><time>2026-05-01T14:57:35Z</time></trkpt><trkpt lat="42.27584403388885" lon="8.692031735968648"><ele>171.0</ele><time>2026-05-01T14:57:37Z</time></trkpt><trkpt lat="42.275763498439105" lon="8.691985104146003"><ele>171.0</ele><time>2026-05-01T14:57:38Z</time></trkpt><trkpt lat="42.2756842420989" lon="8.69197791205659"><ele>171.0</ele><time>2026-05-01T14:57:39Z</time></trkpt><trkpt lat="42.27559431900895" lon="8.69204747497228"><ele>171.0</ele><time>2026-05-01T14:57:39.999Z</time></trkpt><trkpt lat="42.275527398744885" lon="8.692114810485668"><ele>171.0</ele><time>2026-05-01T14:57:40.999Z</time></trkpt><trkpt lat="42.27544577247361" lon="8.692123079904688"><ele>171.0</ele><time>2026-05-01T14:57:41.999Z</time></trkpt><trkpt lat="42.27534387700747" lon="8.692160781016923"><ele>172.8</ele><time>2026-05-01T14:57:43.999Z</time></trkpt><trkpt lat="42.27524944822806" lon="8.692151393800396"><ele>174.60000000000002</ele><time>2026-05-01T14:57:45.999Z</time></trkpt><trkpt lat="42.27518327265006" lon="8.691990832802336"><ele>176.4</ele><time>2026-05-01T14:57:47.999Z</time></trkpt><trkpt lat="42.275164316696205" lon="8.691852011449965"><ele>178.2</ele><time>2026-05-01T14:57:48.999Z</time></trkpt><trkpt lat="42.275104534447124" lon="8.691725214802945"><ele>180.0</ele><time>2026-05-01T14:57:49.999Z</time></trkpt><trkpt lat="42.275024241417064" lon="8.691637149819703"><ele>180.8</ele><time>2026-05-01T14:57:50.999Z</time></trkpt><trkpt lat="42.274942859874905" lon="8.691603033478598"><ele>181.6</ele><time>2026-05-01T14:57:51.999Z</time></trkpt><trkpt lat="42.274867331490825" lon="8.691648921333146"><ele>182.39999999999998</ele><time>2026-05-01T14:57:52.999Z</time></trkpt><trkpt lat="42.27481637616922" lon="8.69175421255541"><ele>183.2</ele><time>2026-05-01T14:57:53.999Z</time></trkpt><trkpt lat="42.274767058772284" lon="8.691893292067139"><ele>184.0</ele><time>2026-05-01T14:57:54.999Z</time></trkpt><trkpt lat="42.27467725172554" lon="8.691970594254384"><ele>184.0</ele><time>2026-05-01T14:57:55.999Z</time></trkpt><trkpt lat="42.2745737036935" lon="8.692010985556266"><ele>184.0</ele><time>2026-05-01T14:57:56.999Z</time></trkpt><trkpt lat="42.27448707286381" lon="8.69202811917021"><ele>184.0</ele><time>2026-05-01T14:57:57.999Z</time></trkpt><trkpt lat="42.27441355698888" lon="8.691991443171336"><ele>184.0</ele><time>2026-05-01T14:57:58.999Z</time></trkpt><trkpt lat="42.274371581156565" lon="8.691901642753573"><ele>184.0</ele><time>2026-05-01T14:57:59.999Z</time></trkpt><trkpt lat="42.2743415143749" lon="8.691781150890792"><ele>184.0</ele><time>2026-05-01T14:58:00.999Z</time></trkpt><trkpt lat="42.274310302152244" lon="8.691680274551704"><ele>175.2</ele><time>2026-05-01T14:58:01.999Z</time></trkpt><trkpt lat="42.274239812204854" lon="8.6916126027366"><ele>166.39999999999998</ele><time>2026-05-01T14:58:02.999Z</time></trkpt><trkpt lat="42.27414837573801" lon="8.69159311270067"><ele>157.6</ele><time>2026-05-01T14:58:03.999Z</time></trkpt><trkpt lat="42.27404401331446" lon="8.69165074064621"><ele>148.8</ele><time>2026-05-01T14:58:04.999Z</time></trkpt><trkpt lat="42.2739711872721" lon="8.691755072941469"><ele>140.0</ele><time>2026-05-01T14:58:05.999Z</time></trkpt><trkpt lat="42.273897937093246" lon="8.691847195980138"><ele>140.0</ele><time>2026-05-01T14:58:06.999Z</time></trkpt><trkpt lat="42.273809353075386" lon="8.691881590224959"><ele>140.0</ele><time>2026-05-01T14:58:07.999Z</time></trkpt><trkpt lat="42.273699224152615" lon="8.691890102640565"><ele>140.0</ele><time>2026-05-01T14:58:08.999Z</time></trkpt><trkpt lat="42.27359399861069" lon="8.691949178696703"><ele>140.0</ele><time>2026-05-01T14:58:09.999Z</time></trkpt><trkpt lat="42.27351306835561" lon="8.692009785364315"><ele>140.0</ele><time>2026-05-01T14:58:10.999Z</time></trkpt><trkpt lat="42.27344075015971" lon="8.692017437564944"><ele>140.0</ele><time>2026-05-01T14:58:11.999Z</time></trkpt><trkpt lat="42.27337733908926" lon="8.691993013672134"><ele>140.0</ele><time>2026-05-01T14:58:12.999Z</time></trkpt><trkpt lat="42.27332157430909" lon="8.69194302026652"><ele>140.0</ele><time>2026-05-01T14:58:13.999Z</time></trkpt><trkpt lat="42.27328225363121" lon="8.691869262738058"><ele>140.0</ele><time>2026-05-01T14:58:14.999Z</time></trkpt><trkpt lat="42.27326008347496" lon="8.691775442758669"><ele>140.0</ele><time>2026-05-01T14:58:15.999Z</time></trkpt><trkpt lat="42.27323316045434" lon="8.691677394720111"><ele>140.0</ele><time>2026-05-01T14:58:16.999Z</time></trkpt><trkpt lat="42.273173919137434" lon="8.69162407784884"><ele>140.0</ele><time>2026-05-01T14:58:17.999Z</time></trkpt><trkpt lat="42.27308697457246" lon="8.691647770794562"><ele>139.75</ele><time>2026-05-01T14:58:18.999Z</time></trkpt><trkpt lat="42.272983845693865" lon="8.69174777647883"><ele>139.5</ele><time>2026-05-01T14:58:19.999Z</time></trkpt><trkpt lat="42.2728757953689" lon="8.691847562092711"><ele>139.25</ele><time>2026-05-01T14:58:20.999Z</time></trkpt><trkpt lat="42.272765877617125" lon="8.69192026028457"><ele>139.0</ele><time>2026-05-01T14:58:21.999Z</time></trkpt><trkpt lat="42.27268068816144" lon="8.691993517110928"><ele>139.0</ele><time>2026-05-01T14:58:22.999Z</time></trkpt><trkpt lat="42.2726291226546" lon="8.69211789842773"><ele>139.0</ele><time>2026-05-01T14:58:23.999Z</time></trkpt><trkpt lat="42.272606897287254" lon="8.6922784999667"><ele>139.0</ele><time>2026-05-01T14:58:24.999Z</time></trkpt><trkpt lat="42.272620659762076" lon="8.692453647454677"><ele>139.0</ele><time>2026-05-01T14:58:25.999Z</time></trkpt><trkpt lat="42.27262027251846" lon="8.692619606041896"><ele>143.25</ele><time>2026-05-01T14:58:26.999Z</time></trkpt><trkpt lat="42.272581076728244" lon="8.692762176028454"><ele>147.5</ele><time>2026-05-01T14:58:27.999Z</time></trkpt><trkpt lat="42.27248852684014" lon="8.692865534602419"><ele>151.75</ele><time>2026-05-01T14:58:28.999Z</time></trkpt><trkpt lat="42.272358131089035" lon="8.69293550323711"><ele>156.0</ele><time>2026-05-01T14:58:29.999Z</time></trkpt><trkpt lat="42.27222461454243" lon="8.693005096288662"><ele>145.75</ele><time>2026-05-01T14:58:30.999Z</time></trkpt><trkpt lat="42.272116298949015" lon="8.693078251059738"><ele>135.5</ele><time>2026-05-01T14:58:31.999Z</time></trkpt><trkpt lat="42.272027553832245" lon="8.693168086019284"><ele>125.25</ele><time>2026-05-01T14:58:32.999Z</time></trkpt><trkpt lat="42.271965824383074" lon="8.693306636046765"><ele>115.0</ele><time>2026-05-01T14:58:33.999Z</time></trkpt><trkpt lat="42.27192034614181" lon="8.693480281569162"><ele>120.25</ele><time>2026-05-01T14:58:34.999Z</time></trkpt><trkpt lat="42.271867841563264" lon="8.693662967721172"><ele>125.5</ele><time>2026-05-01T14:58:35.999Z</time></trkpt><trkpt lat="42.271807140100776" lon="8.693845538475163"><ele>130.75</ele><time>2026-05-01T14:58:36.999Z</time></trkpt><trkpt lat="42.27175131461294" lon="8.694004924061316"><ele>136.0</ele><time>2026-05-01T14:58:37.999Z</time></trkpt><trkpt lat="42.2716818964678" lon="8.69414284845142"><ele>136.0</ele><time>2026-05-01T14:58:38.999Z</time></trkpt><trkpt lat="42.271588056259866" lon="8.694242371697989"><ele>136.0</ele><time>2026-05-01T14:58:39.999Z</time></trkpt><trkpt lat="42.271466329356805" lon="8.694262560664084"><ele>136.0</ele><time>2026-05-01T14:58:40.999Z</time></trkpt><trkpt lat="42.27134895190019" lon="8.694302662158748"><ele>136.0</ele><time>2026-05-01T14:58:41.999Z</time></trkpt><trkpt lat="42.27126410586612" lon="8.694419288376867"><ele>135.0</ele><time>2026-05-01T14:58:42.999Z</time></trkpt><trkpt lat="42.27121519152688" lon="8.694588459794199"><ele>134.0</ele><time>2026-05-01T14:58:43.999Z</time></trkpt><trkpt lat="42.271190674205585" lon="8.694766043650372"><ele>133.0</ele><time>2026-05-01T14:58:44.999Z</time></trkpt><trkpt lat="42.2711284766311" lon="8.694895419426233"><ele>132.0</ele><time>2026-05-01T14:58:45.998Z</time></trkpt><trkpt lat="42.27101018055013" lon="8.694967389987886"><ele>132.0</ele><time>2026-05-01T14:58:46.998Z</time></trkpt><trkpt lat="42.2708638586852" lon="8.695000426296414"><ele>132.0</ele><time>2026-05-01T14:58:47.998Z</time></trkpt><trkpt lat="42.27069183612898" lon="8.694980346787942"><ele>132.0</ele><time>2026-05-01T14:58:48.998Z</time></trkpt><trkpt lat="42.27052589346149" lon="8.694918498129864"><ele>128.0</ele><time>2026-05-01T14:58:49.998Z</time></trkpt><trkpt lat="42.27037114569687" lon="8.694834002226214"><ele>124.0</ele><time>2026-05-01T14:58:50.998Z</time></trkpt><trkpt lat="42.27024067209367" lon="8.694776174412073"><ele>120.0</ele><time>2026-05-01T14:58:51.998Z</time></trkpt><trkpt lat="42.27011015530023" lon="8.694773288554924"><ele>116.0</ele><time>2026-05-01T14:58:52.998Z</time></trkpt><trkpt lat="42.269975531572655" lon="8.694832328269062"><ele>116.0</ele><time>2026-05-01T14:58:53.998Z</time></trkpt><trkpt lat="42.26983958609368" lon="8.69494170205425"><ele>116.0</ele><time>2026-05-01T14:58:54.998Z</time></trkpt><trkpt lat="42.26972943519224" lon="8.695061249368488"><ele>116.0</ele><time>2026-05-01T14:58:56Z</time></trkpt><trkpt lat="42.26964501756101" lon="8.695204217722837"><ele>116.0</ele><time>2026-05-01T14:58:57Z</time></trkpt><trkpt lat="42.26960619809311" lon="8.695405305195756"><ele>107.33333333333333</ele><time>2026-05-01T14:58:58Z</time></trkpt><trkpt lat="42.26958808299969" lon="8.695643735630684"><ele>98.66666666666666</ele><time>2026-05-01T14:58:59Z</time></trkpt><trkpt lat="42.2695672503915" lon="8.695866353759396"><ele>90.0</ele><time>2026-05-01T14:59:00Z</time></trkpt><trkpt lat="42.26952695355277" lon="8.696060389903103"><ele>94.5</ele><time>2026-05-01T14:59:01Z</time></trkpt><trkpt lat="42.26945130124264" lon="8.696224530661619"><ele>99.0</ele><time>2026-05-01T14:59:02Z</time></trkpt><trkpt lat="42.26933443020115" lon="8.696353024350003"><ele>103.5</ele><time>2026-05-01T14:59:03Z</time></trkpt><trkpt lat="42.26921219812386" lon="8.696467702008583"><ele>108.0</ele><time>2026-05-01T14:59:04Z</time></trkpt><trkpt lat="42.26910849681195" lon="8.696602394217011"><ele>108.0</ele><time>2026-05-01T14:59:05Z</time></trkpt><trkpt lat="42.26903199970356" lon="8.696780269912535"><ele>108.0</ele><time>2026-05-01T14:59:06Z</time></trkpt><trkpt lat="42.26897439754681" lon="8.696980847187282"><ele>108.0</ele><time>2026-05-01T14:59:07Z</time></trkpt><trkpt lat="42.268923168406644" lon="8.697195747826362"><ele>97.33333333333333</ele><time>2026-05-01T14:59:08Z</time></trkpt><trkpt lat="42.26887442809651" lon="8.69741238881627"><ele>86.66666666666666</ele><time>2026-05-01T14:59:09Z</time></trkpt><trkpt lat="42.268831291567864" lon="8.697636056604699"><ele>76.0</ele><time>2026-05-01T14:59:10Z</time></trkpt><trkpt lat="42.26879922249951" lon="8.697846997523154"><ele>76.0</ele><time>2026-05-01T14:59:11Z</time></trkpt><trkpt lat="42.26876142699116" lon="8.698048501376123"><ele>76.0</ele><time>2026-05-01T14:59:12Z</time></trkpt><trkpt lat="42.26872369621873" lon="8.698232387783593"><ele>76.0</ele><time>2026-05-01T14:59:13Z</time></trkpt><trkpt lat="42.268663648856965" lon="8.698388289332803"><ele>76.0</ele><time>2026-05-01T14:59:14Z</time></trkpt><trkpt lat="42.2686056082951" lon="8.698551404392054"><ele>78.5</ele><time>2026-05-01T14:59:15Z</time></trkpt><trkpt lat="42.268569994204675" lon="8.698727594315024"><ele>81.0</ele><time>2026-05-01T14:59:16Z</time></trkpt><trkpt lat="42.26855251799002" lon="8.698914294989361"><ele>83.5</ele><time>2026-05-01T14:59:17Z</time></trkpt><trkpt lat="42.268535352482914" lon="8.699099249720666"><ele>86.0</ele><time>2026-05-01T14:59:18Z</time></trkpt><trkpt lat="42.268515518554565" lon="8.699276905934639"><ele>88.5</ele><time>2026-05-01T14:59:19Z</time></trkpt><trkpt lat="42.268494986425" lon="8.699450818705984"><ele>91.0</ele><time>2026-05-01T14:59:20Z</time></trkpt><trkpt lat="42.26847587196682" lon="8.699617488623455"><ele>93.5</ele><time>2026-05-01T14:59:21Z</time></trkpt><trkpt lat="42.26844590802002" lon="8.699774892154563"><ele>96.0</ele><time>2026-05-01T14:59:22Z</time></trkpt><trkpt lat="42.26838922051763" lon="8.699915582757303"><ele>96.0</ele><time>2026-05-01T14:59:23Z</time></trkpt><trkpt lat="42.26829959436417" lon="8.700023930219665"><ele>96.0</ele><time>2026-05-01T14:59:24Z</time></trkpt><trkpt lat="42.26821128776214" lon="8.70012205042529"><ele>96.0</ele><time>2026-05-01T14:59:25Z</time></trkpt><trkpt lat="42.26812367964095" lon="8.70024275644846"><ele>96.0</ele><time>2026-05-01T14:59:26Z</time></trkpt><trkpt lat="42.26804410442758" lon="8.70038861760712"><ele>87.75</ele><time>2026-05-01T14:59:27Z</time></trkpt><trkpt lat="42.26798697462699" lon="8.700551719665132"><ele>79.5</ele><time>2026-05-01T14:59:28Z</time></trkpt><trkpt lat="42.267946219513995" lon="8.700712450866218"><ele>71.25</ele><time>2026-05-01T14:59:29Z</time></trkpt><trkpt lat="42.26792411442897" lon="8.700867753672654"><ele>63.0</ele><time>2026-05-01T14:59:30Z</time></trkpt><trkpt lat="42.26790589709946" lon="8.701012841594228"><ele>64.6</ele><time>2026-05-01T14:59:31Z</time></trkpt><trkpt lat="42.26788597762111" lon="8.701152979674795"><ele>66.19999999999999</ele><time>2026-05-01T14:59:32Z</time></trkpt><trkpt lat="42.26786538299479" lon="8.701286770214445"><ele>67.8</ele><time>2026-05-01T14:59:33Z</time></trkpt><trkpt lat="42.26784611774559" lon="8.701415897100972"><ele>69.39999999999999</ele><time>2026-05-01T14:59:34Z</time></trkpt><trkpt lat="42.26783315427935" lon="8.701538869303338"><ele>71.0</ele><time>2026-05-01T14:59:35Z</time></trkpt><trkpt lat="42.26783703936157" lon="8.701666346168368"><ele>71.0</ele><time>2026-05-01T14:59:36Z</time></trkpt><trkpt lat="42.26785866782093" lon="8.70179122485884"><ele>71.0</ele><time>2026-05-01T14:59:37Z</time></trkpt><trkpt lat="42.26788263630751" lon="8.70191342930972"><ele>71.0</ele><time>2026-05-01T14:59:38Z</time></trkpt><trkpt lat="42.267896827186554" lon="8.702037130280134"><ele>71.0</ele><time>2026-05-01T14:59:39Z</time></trkpt><trkpt lat="42.26788832267137" lon="8.702164621621332"><ele>71.0</ele><time>2026-05-01T14:59:40Z</time></trkpt><trkpt lat="42.26784229967074" lon="8.702286464653032"><ele>72.0</ele><time>2026-05-01T14:59:41Z</time></trkpt><trkpt lat="42.267752003182764" lon="8.702385645571493"><ele>73.0</ele><time>2026-05-01T14:59:42Z</time></trkpt><trkpt lat="42.26764151918097" lon="8.702463048111511"><ele>74.0</ele><time>2026-05-01T14:59:43Z</time></trkpt><trkpt lat="42.2675571577184" lon="8.70255237021322"><ele>75.0</ele><time>2026-05-01T14:59:44Z</time></trkpt><trkpt lat="42.267503513579314" lon="8.702685065414977"><ele>76.25</ele><time>2026-05-01T14:59:45Z</time></trkpt><trkpt lat="42.26748057767538" lon="8.70284752859712"><ele>77.5</ele><time>2026-05-01T14:59:45.999Z</time></trkpt><trkpt lat="42.26747297384021" lon="8.703020490700613"><ele>78.75</ele><time>2026-05-01T14:59:46.999Z</time></trkpt><trkpt lat="42.26746370389547" lon="8.703186876665274"><ele>80.0</ele><time>2026-05-01T14:59:47.999Z</time></trkpt><trkpt lat="42.26743235563556" lon="8.703328187332673"><ele>80.0</ele><time>2026-05-01T14:59:48.999Z</time></trkpt><trkpt lat="42.26738179259575" lon="8.70345208051451"><ele>80.0</ele><time>2026-05-01T14:59:49.999Z</time></trkpt><trkpt lat="42.267320899848336" lon="8.703577652424793"><ele>80.0</ele><time>2026-05-01T14:59:50.999Z</time></trkpt><trkpt lat="42.26726241375917" lon="8.703718208819897"><ele>80.0</ele><time>2026-05-01T14:59:51.999Z</time></trkpt><trkpt lat="42.26720832408669" lon="8.703859724262761"><ele>76.6</ele><time>2026-05-01T14:59:52.999Z</time></trkpt><trkpt lat="42.267137349645886" lon="8.703971631469702"><ele>73.2</ele><time>2026-05-01T14:59:53.999Z</time></trkpt><trkpt lat="42.26705642572745" lon="8.704058939751516"><ele>69.8</ele><time>2026-05-01T14:59:54.999Z</time></trkpt><trkpt lat="42.26697841052235" lon="8.704138489991404"><ele>66.4</ele><time>2026-05-01T14:59:55.999Z</time></trkpt><trkpt lat="42.266907051056016" lon="8.704217472560122"><ele>63.0</ele><time>2026-05-01T14:59:56.999Z</time></trkpt><trkpt lat="42.26684354048641" lon="8.704294770660638"><ele>63.0</ele><time>2026-05-01T14:59:57.999Z</time></trkpt><trkpt lat="42.26678868840812" lon="8.704375249545008"><ele>63.0</ele><time>2026-05-01T14:59:58.999Z</time></trkpt><trkpt lat="42.266746591560825" lon="8.704449705720531"><ele>63.0</ele><time>2026-05-01T14:59:59.999Z</time></trkpt><trkpt lat="42.26670407914848" lon="8.704588902061356"><ele>63.0</ele><time>2026-05-01T15:00:01.999Z</time></trkpt><trkpt lat="42.2666758245204" lon="8.704751449589796"><ele>63.0</ele><time>2026-05-01T15:00:03.999Z</time></trkpt><trkpt lat="42.26665973331961" lon="8.704840815871657"><ele>63.666666666666664</ele><time>2026-05-01T15:00:04.999Z</time></trkpt><trkpt lat="42.266642639625736" lon="8.704937850668273"><ele>64.33333333333333</ele><time>2026-05-01T15:00:05.999Z</time></trkpt><trkpt lat="42.26661814964535" lon="8.705040864800026"><ele>65.0</ele><time>2026-05-01T15:00:06.999Z</time></trkpt><trkpt lat="42.26658486528423" lon="8.705141366541264"><ele>65.66666666666666</ele><time>2026-05-01T15:00:07.999Z</time></trkpt><trkpt lat="42.266543617112085" lon="8.705241775930553"><ele>66.33333333333333</ele><time>2026-05-01T15:00:08.999Z</time></trkpt><trkpt lat="42.26649230407993" lon="8.705328984941302"><ele>67.0</ele><time>2026-05-01T15:00:09.999Z</time></trkpt><trkpt lat="42.2664509361357" lon="8.705397580779104"><ele>64.16666666666666</ele><time>2026-05-01T15:00:10.999Z</time></trkpt><trkpt lat="42.26639133997036" lon="8.705489818047669"><ele>61.33333333333333</ele><time>2026-05-01T15:00:12.999Z</time></trkpt><trkpt lat="42.266321064730015" lon="8.705516201161146"><ele>58.5</ele><time>2026-05-01T15:00:15.999Z</time></trkpt><trkpt lat="42.26626833499784" lon="8.705624154620107"><ele>55.66666666666667</ele><time>2026-05-01T15:01:10Z</time></trkpt><trkpt lat="42.266223454849474" lon="8.705706997655914"><ele>52.833333333333336</ele><time>2026-05-01T15:01:12Z</time></trkpt><trkpt lat="42.26617889401697" lon="8.705794419921924"><ele>50.0</ele><time>2026-05-01T15:01:14Z</time></trkpt><trkpt lat="42.2661353315102" lon="8.705887143256845"><ele>50.0</ele><time>2026-05-01T15:01:16Z</time></trkpt><trkpt lat="42.266086694649715" lon="8.705988653813634"><ele>50.0</ele><time>2026-05-01T15:01:18Z</time></trkpt><trkpt lat="42.266027178536135" lon="8.706096603274327"><ele>50.0</ele><time>2026-05-01T15:01:20Z</time></trkpt><trkpt lat="42.265965949378746" lon="8.706211356927264"><ele>50.0</ele><time>2026-05-01T15:01:22Z</time></trkpt><trkpt lat="42.265893898296916" lon="8.706343018773355"><ele>50.0</ele><time>2026-05-01T15:01:24Z</time></trkpt><trkpt lat="42.26584966474037" lon="8.706418561588983"><ele>48.57142857142858</ele><time>2026-05-01T15:01:25Z</time></trkpt><trkpt lat="42.26579891200976" lon="8.70649531536307"><ele>47.142857142857146</ele><time>2026-05-01T15:01:26Z</time></trkpt><trkpt lat="42.265739125456875" lon="8.706558766263623"><ele>45.714285714285715</ele><time>2026-05-01T15:01:27Z</time></trkpt><trkpt lat="42.265674338990614" lon="8.706606299161752"><ele>44.28571428571429</ele><time>2026-05-01T15:01:28Z</time></trkpt><trkpt lat="42.265611680647446" lon="8.70664575427148"><ele>42.85714285714286</ele><time>2026-05-01T15:01:29Z</time></trkpt><trkpt lat="42.265551793079105" lon="8.706692582626598"><ele>41.42857142857143</ele><time>2026-05-01T15:01:30Z</time></trkpt><trkpt lat="42.26548917636779" lon="8.70674732877773"><ele>40.0</ele><time>2026-05-01T15:01:31Z</time></trkpt><trkpt lat="42.265434023558484" lon="8.706804799701615"><ele>40.0</ele><time>2026-05-01T15:01:32Z</time></trkpt><trkpt lat="42.265382381563654" lon="8.706879436074368"><ele>40.0</ele><time>2026-05-01T15:01:33Z</time></trkpt><trkpt lat="42.26533279710763" lon="8.706961965388027"><ele>40.0</ele><time>2026-05-01T15:01:34Z</time></trkpt><trkpt lat="42.265282808464285" lon="8.707048394534239"><ele>40.0</ele><time>2026-05-01T15:01:35Z</time></trkpt><trkpt lat="42.26522904079948" lon="8.707136132080958"><ele>40.0</ele><time>2026-05-01T15:01:36Z</time></trkpt><trkpt lat="42.265173887486355" lon="8.707218353331713"><ele>40.0</ele><time>2026-05-01T15:01:37Z</time></trkpt><trkpt lat="42.265115632152074" lon="8.707296552755624"><ele>39.66666666666667</ele><time>2026-05-01T15:01:38Z</time></trkpt><trkpt lat="42.26505033456884" lon="8.707367498802233"><ele>39.333333333333336</ele><time>2026-05-01T15:01:39Z</time></trkpt><trkpt lat="42.26497862994543" lon="8.70742340474823"><ele>39.0</ele><time>2026-05-01T15:01:40Z</time></trkpt><trkpt lat="42.264906700860074" lon="8.707476182294476"><ele>38.666666666666664</ele><time>2026-05-01T15:01:41Z</time></trkpt><trkpt lat="42.264841892177394" lon="8.707511350624625"><ele>38.33333333333333</ele><time>2026-05-01T15:01:42Z</time></trkpt><trkpt lat="42.264765677584315" lon="8.707552924835095"><ele>38.0</ele><time>2026-05-01T15:01:43Z</time></trkpt><trkpt lat="42.26469465710275" lon="8.707593397979117"><ele>38.0</ele><time>2026-05-01T15:01:44Z</time></trkpt><trkpt lat="42.26462673806913" lon="8.707631308647331"><ele>38.0</ele><time>2026-05-01T15:01:45Z</time></trkpt><trkpt lat="42.264550643279506" lon="8.707668229968645"><ele>38.0</ele><time>2026-05-01T15:01:46Z</time></trkpt><trkpt lat="42.264473319565575" lon="8.707700625864373"><ele>38.0</ele><time>2026-05-01T15:01:47Z</time></trkpt><trkpt lat="42.26439795858021" lon="8.707725266324157"><ele>38.0</ele><time>2026-05-01T15:01:47.999Z</time></trkpt><trkpt lat="42.26431828917807" lon="8.70774004991818"><ele>38.0</ele><time>2026-05-01T15:01:48.999Z</time></trkpt><trkpt lat="42.26423359536056" lon="8.707754794932626"><ele>39.33333333333333</ele><time>2026-05-01T15:01:49.999Z</time></trkpt><trkpt lat="42.26415917927325" lon="8.707772232414102"><ele>40.666666666666664</ele><time>2026-05-01T15:01:50.999Z</time></trkpt><trkpt lat="42.26408819800414" lon="8.707826412511235"><ele>42.0</ele><time>2026-05-01T15:01:51.999Z</time></trkpt><trkpt lat="42.264032544712" lon="8.707907555135245"><ele>43.333333333333336</ele><time>2026-05-01T15:01:52.999Z</time></trkpt><trkpt lat="42.26399095049151" lon="8.708006079243983"><ele>44.66666666666667</ele><time>2026-05-01T15:01:53.999Z</time></trkpt><trkpt lat="42.26395933445164" lon="8.7081147454338"><ele>46.0</ele><time>2026-05-01T15:01:54.999Z</time></trkpt><trkpt lat="42.26394215246878" lon="8.708222762995812"><ele>46.0</ele><time>2026-05-01T15:01:55.999Z</time></trkpt><trkpt lat="42.26394729438245" lon="8.708341971937925"><ele>46.0</ele><time>2026-05-01T15:01:56.999Z</time></trkpt><trkpt lat="42.26397668530743" lon="8.708459440686376"><ele>46.0</ele><time>2026-05-01T15:01:57.999Z</time></trkpt><trkpt lat="42.26402461987804" lon="8.70855625061184"><ele>46.0</ele><time>2026-05-01T15:01:58.999Z</time></trkpt><trkpt lat="42.264067224855836" lon="8.708648245647005"><ele>46.0</ele><time>2026-05-01T15:01:59.999Z</time></trkpt><trkpt lat="42.26410454744849" lon="8.708744509318366"><ele>46.0</ele><time>2026-05-01T15:02:00.999Z</time></trkpt><trkpt lat="42.26412756955552" lon="8.708829852191107"><ele>45.8</ele><time>2026-05-01T15:02:01.999Z</time></trkpt><trkpt lat="42.26413386366864" lon="8.708915891945644"><ele>45.599999999999994</ele><time>2026-05-01T15:02:02.999Z</time></trkpt><trkpt lat="42.26407512675983" lon="8.709055352750498"><ele>45.4</ele><time>2026-05-01T15:02:04.999Z</time></trkpt><trkpt lat="42.26398600640354" lon="8.709165515364683"><ele>45.2</ele><time>2026-05-01T15:02:06.999Z</time></trkpt><trkpt lat="42.26393680130671" lon="8.709241151230419"><ele>45.0</ele><time>2026-05-01T15:02:07.999Z</time></trkpt><trkpt lat="42.26388072303347" lon="8.709313328860757"><ele>42.5</ele><time>2026-05-01T15:02:08.999Z</time></trkpt><trkpt lat="42.26381039922201" lon="8.709374823414253"><ele>40.0</ele><time>2026-05-01T15:02:09.999Z</time></trkpt><trkpt lat="42.26373690370437" lon="8.709395407418464"><ele>37.5</ele><time>2026-05-01T15:02:10.999Z</time></trkpt><trkpt lat="42.263660773571154" lon="8.709365821351218"><ele>35.0</ele><time>2026-05-01T15:02:11.999Z</time></trkpt><trkpt lat="42.263575354851504" lon="8.70932279315644"><ele>32.5</ele><time>2026-05-01T15:02:12.999Z</time></trkpt><trkpt lat="42.26348577822563" lon="8.70929594458395"><ele>30.0</ele><time>2026-05-01T15:02:13.999Z</time></trkpt><trkpt lat="42.26338671864406" lon="8.709301756305534"><ele>30.0</ele><time>2026-05-01T15:02:14.999Z</time></trkpt><trkpt lat="42.26328746944241" lon="8.709339268305348"><ele>30.0</ele><time>2026-05-01T15:02:15.999Z</time></trkpt><trkpt lat="42.2631999416984" lon="8.709397319540685"><ele>30.0</ele><time>2026-05-01T15:02:16.999Z</time></trkpt><trkpt lat="42.26312063194208" lon="8.709446634880186"><ele>30.0</ele><time>2026-05-01T15:02:17.999Z</time></trkpt><trkpt lat="42.2630537203336" lon="8.709502272685837"><ele>30.0</ele><time>2026-05-01T15:02:18.999Z</time></trkpt><trkpt lat="42.26298659253095" lon="8.709553917638496"><ele>30.0</ele><time>2026-05-01T15:02:19.999Z</time></trkpt><trkpt lat="42.26292825694842" lon="8.709593954487104"><ele>30.6</ele><time>2026-05-01T15:02:20.999Z</time></trkpt><trkpt lat="42.26287222979138" lon="8.709634383327668"><ele>31.2</ele><time>2026-05-01T15:02:21.999Z</time></trkpt><trkpt lat="42.26277065832549" lon="8.709699899360123"><ele>31.799999999999997</ele><time>2026-05-01T15:02:23.999Z</time></trkpt><trkpt lat="42.26265067159874" lon="8.70978695095453"><ele>32.4</ele><time>2026-05-01T15:02:25.999Z</time></trkpt><trkpt lat="42.26257716496611" lon="8.709841341104338"><ele>33.0</ele><time>2026-05-01T15:02:26.999Z</time></trkpt><trkpt lat="42.262502508892524" lon="8.709889811717149"><ele>33.0</ele><time>2026-05-01T15:02:27.999Z</time></trkpt><trkpt lat="42.26242475736594" lon="8.7099370711086"><ele>33.0</ele><time>2026-05-01T15:02:28.999Z</time></trkpt><trkpt lat="42.26236077074211" lon="8.709967693194493"><ele>33.0</ele><time>2026-05-01T15:02:29.999Z</time></trkpt><trkpt lat="42.26229436021264" lon="8.70999146413532"><ele>33.0</ele><time>2026-05-01T15:02:30.999Z</time></trkpt><trkpt lat="42.26217608602974" lon="8.709990663799438"><ele>33.0</ele><time>2026-05-01T15:02:32.999Z</time></trkpt><trkpt lat="42.26209821842192" lon="8.70993609982476"><ele>33.0</ele><time>2026-05-01T15:02:34.999Z</time></trkpt><trkpt lat="42.262029878785235" lon="8.709850890729475"><ele>33.6</ele><time>2026-05-01T15:02:36.999Z</time></trkpt><trkpt lat="42.26197256870617" lon="8.709745722260035"><ele>34.199999999999996</ele><time>2026-05-01T15:02:38.999Z</time></trkpt><trkpt lat="42.26189798669199" lon="8.7096213495999"><ele>34.8</ele><time>2026-05-01T15:02:40.999Z</time></trkpt><trkpt lat="42.26182303601466" lon="8.70950533253501"><ele>35.4</ele><time>2026-05-01T15:02:42.999Z</time></trkpt><trkpt lat="42.2617743791681" lon="8.70941664991349"><ele>36.0</ele><time>2026-05-01T15:02:44.999Z</time></trkpt><trkpt lat="42.26175385447449" lon="8.709330164896446"><ele>36.0</ele><time>2026-05-01T15:02:48.999Z</time></trkpt><trkpt lat="42.26174036089275" lon="8.709214016575467"><ele>36.0</ele><time>2026-05-01T15:04:13.999Z</time></trkpt><trkpt lat="42.26179876341758" lon="8.709087375623541"><ele>36.0</ele><time>2026-05-01T15:04:15.999Z</time></trkpt><trkpt lat="42.26192042672068" lon="8.709042310867178"><ele>36.0</ele><time>2026-05-01T15:04:17.999Z</time></trkpt><trkpt lat="42.261971135498534" lon="8.708976790767784"><ele>36.0</ele><time>2026-05-01T15:04:18.999Z</time></trkpt><trkpt lat="42.26205645204919" lon="8.708942653530485"><ele>36.0</ele><time>2026-05-01T15:04:19.999Z</time></trkpt><trkpt lat="42.26214254942432" lon="8.70890179831971"><ele>36.0</ele><time>2026-05-01T15:04:20.999Z</time></trkpt><trkpt lat="42.26224851227787" lon="8.708872236844112"><ele>36.0</ele><time>2026-05-01T15:04:21.999Z</time></trkpt><trkpt lat="42.26233728095861" lon="8.708801577778814"><ele>36.0</ele><time>2026-05-01T15:04:22.999Z</time></trkpt><trkpt lat="42.26240506253388" lon="8.708698450820018"><ele>36.0</ele><time>2026-05-01T15:04:23.999Z</time></trkpt><trkpt lat="42.26244025899023" lon="8.708553888846016"><ele>34.5</ele><time>2026-05-01T15:04:24.999Z</time></trkpt><trkpt lat="42.26245504556114" lon="8.70838913862458"><ele>33.0</ele><time>2026-05-01T15:04:25.999Z</time></trkpt><trkpt lat="42.2624728804839" lon="8.708226401715724"><ele>31.5</ele><time>2026-05-01T15:04:26.999Z</time></trkpt><trkpt lat="42.26249884430487" lon="8.708067740228215"><ele>30.0</ele><time>2026-05-01T15:04:27.999Z</time></trkpt><trkpt lat="42.26247965036164" lon="8.707920670208274"><ele>30.0</ele><time>2026-05-01T15:04:28.999Z</time></trkpt><trkpt lat="42.26240477354818" lon="8.707815036671404"><ele>30.0</ele><time>2026-05-01T15:04:29.999Z</time></trkpt><trkpt lat="42.26229246803401" lon="8.707808779276727"><ele>30.0</ele><time>2026-05-01T15:04:30.999Z</time></trkpt><trkpt lat="42.26217960666221" lon="8.70784441205058"><ele>30.0</ele><time>2026-05-01T15:04:31.999Z</time></trkpt><trkpt lat="42.26206619049445" lon="8.707909623124989"><ele>33.2</ele><time>2026-05-01T15:04:32.999Z</time></trkpt><trkpt lat="42.26194900464591" lon="8.70795227002018"><ele>36.4</ele><time>2026-05-01T15:04:33.999Z</time></trkpt><trkpt lat="42.26182345023787" lon="8.70795811773796"><ele>39.599999999999994</ele><time>2026-05-01T15:04:34.999Z</time></trkpt><trkpt lat="42.26174330622611" lon="8.707880023936866"><ele>42.8</ele><time>2026-05-01T15:04:35.999Z</time></trkpt><trkpt lat="42.261715382669045" lon="8.7077763700741"><ele>46.0</ele><time>2026-05-01T15:04:36.999Z</time></trkpt><trkpt lat="42.261693472397454" lon="8.707661011946131"><ele>46.75</ele><time>2026-05-01T15:04:37.999Z</time></trkpt><trkpt lat="42.26173544160893" lon="8.707532279969234"><ele>47.5</ele><time>2026-05-01T15:04:38.999Z</time></trkpt><trkpt lat="42.26182645406937" lon="8.707449134528748"><ele>48.25</ele><time>2026-05-01T15:04:39.999Z</time></trkpt><trkpt lat="42.26195477761088" lon="8.70745040592702"><ele>49.0</ele><time>2026-05-01T15:04:40.999Z</time></trkpt><trkpt lat="42.26207372948358" lon="8.70735426157375"><ele>49.0</ele><time>2026-05-01T15:04:41.999Z</time></trkpt><trkpt lat="42.26219925897506" lon="8.707241881064071"><ele>49.0</ele><time>2026-05-01T15:04:42.999Z</time></trkpt><trkpt lat="42.26232325319265" lon="8.707106305423272"><ele>49.0</ele><time>2026-05-01T15:04:43.999Z</time></trkpt><trkpt lat="42.262446165432564" lon="8.706987466294182"><ele>49.5</ele><time>2026-05-01T15:04:44.999Z</time></trkpt><trkpt lat="42.26255008334077" lon="8.706869648734928"><ele>50.0</ele><time>2026-05-01T15:04:45.999Z</time></trkpt><trkpt lat="42.26262375580052" lon="8.706712982327282"><ele>50.5</ele><time>2026-05-01T15:04:46.999Z</time></trkpt><trkpt lat="42.26266853578943" lon="8.706529124663403"><ele>51.0</ele><time>2026-05-01T15:04:47.999Z</time></trkpt><trkpt lat="42.26269949476029" lon="8.706310967717881"><ele>51.0</ele><time>2026-05-01T15:04:48.999Z</time></trkpt><trkpt lat="42.26277279654474" lon="8.706127466788327"><ele>51.0</ele><time>2026-05-01T15:04:49.999Z</time></trkpt><trkpt lat="42.262861434827464" lon="8.705945589364267"><ele>51.0</ele><time>2026-05-01T15:04:50.999Z</time></trkpt><trkpt lat="42.26293942011473" lon="8.705760745334612"><ele>60.33333333333333</ele><time>2026-05-01T15:04:51.999Z</time></trkpt><trkpt lat="42.262999744602" lon="8.705553048783376"><ele>69.66666666666666</ele><time>2026-05-01T15:04:52.999Z</time></trkpt><trkpt lat="42.263044128796146" lon="8.70534558124406"><ele>79.0</ele><time>2026-05-01T15:04:53.999Z</time></trkpt><trkpt lat="42.26310487779099" lon="8.705189368359717"><ele>70.4</ele><time>2026-05-01T15:04:54.999Z</time></trkpt><trkpt lat="42.26315177910079" lon="8.705039037086378"><ele>61.800000000000004</ele><time>2026-05-01T15:04:55.999Z</time></trkpt><trkpt lat="42.263197078149396" lon="8.704899692269699"><ele>53.2</ele><time>2026-05-01T15:04:56.998Z</time></trkpt><trkpt lat="42.26322265664662" lon="8.704779416091258"><ele>44.6</ele><time>2026-05-01T15:04:57.998Z</time></trkpt><trkpt lat="42.26326148729123" lon="8.704687039922527"><ele>36.0</ele><time>2026-05-01T15:04:58.998Z</time></trkpt><trkpt lat="42.26330736604295" lon="8.704569703398487"><ele>36.0</ele><time>2026-05-01T15:05:00.998Z</time></trkpt><trkpt lat="42.263312425099656" lon="8.70447604956716"><ele>36.0</ele><time>2026-05-01T15:05:46.999Z</time></trkpt><trkpt lat="42.26326700552627" lon="8.704348385397244"><ele>36.0</ele><time>2026-05-01T15:05:48.999Z</time></trkpt><trkpt lat="42.26321348489947" lon="8.704287740880757"><ele>36.0</ele><time>2026-05-01T15:05:49.999Z</time></trkpt><trkpt lat="42.263139287862096" lon="8.704224933451018"><ele>36.0</ele><time>2026-05-01T15:05:50.999Z</time></trkpt><trkpt lat="42.263040236525676" lon="8.704156344464241"><ele>36.0</ele><time>2026-05-01T15:05:51.999Z</time></trkpt><trkpt lat="42.262940870544845" lon="8.704109295909964"><ele>43.2</ele><time>2026-05-01T15:05:52.999Z</time></trkpt><trkpt lat="42.262842624928254" lon="8.704064771764946"><ele>50.400000000000006</ele><time>2026-05-01T15:05:53.999Z</time></trkpt><trkpt lat="42.26274263061307" lon="8.704008539994373"><ele>57.6</ele><time>2026-05-01T15:05:54.999Z</time></trkpt><trkpt lat="42.262643887128554" lon="8.703934632623817"><ele>64.8</ele><time>2026-05-01T15:05:55.999Z</time></trkpt><trkpt lat="42.26255017252255" lon="8.703835234039945"><ele>72.0</ele><time>2026-05-01T15:05:56.999Z</time></trkpt><trkpt lat="42.26245800776779" lon="8.703724173153525"><ele>72.0</ele><time>2026-05-01T15:05:57.999Z</time></trkpt><trkpt lat="42.26236591465432" lon="8.70360156836989"><ele>72.0</ele><time>2026-05-01T15:05:58.999Z</time></trkpt><trkpt lat="42.262315413918444" lon="8.703460593205193"><ele>72.0</ele><time>2026-05-01T15:05:59.999Z</time></trkpt><trkpt lat="42.262267968595566" lon="8.70330864120366"><ele>72.0</ele><time>2026-05-01T15:06:00.999Z</time></trkpt><trkpt lat="42.26227006367835" lon="8.70316056555099"><ele>69.5</ele><time>2026-05-01T15:06:01.999Z</time></trkpt><trkpt lat="42.262301572900974" lon="8.702997770165355"><ele>67.0</ele><time>2026-05-01T15:06:02.999Z</time></trkpt><trkpt lat="42.26235431552514" lon="8.702843434816549"><ele>64.5</ele><time>2026-05-01T15:06:03.999Z</time></trkpt><trkpt lat="42.26242612754525" lon="8.702687319764069"><ele>62.0</ele><time>2026-05-01T15:06:04.999Z</time></trkpt><trkpt lat="42.26248281858118" lon="8.702513909736334"><ele>62.0</ele><time>2026-05-01T15:06:05.999Z</time></trkpt><trkpt lat="42.262539948781765" lon="8.702332762630261"><ele>62.0</ele><time>2026-05-01T15:06:06.999Z</time></trkpt><trkpt lat="42.26260094643247" lon="8.702151536225168"><ele>62.0</ele><time>2026-05-01T15:06:07.999Z</time></trkpt><trkpt lat="42.26265181597934" lon="8.701993817608447"><ele>62.0</ele><time>2026-05-01T15:06:08.999Z</time></trkpt><trkpt lat="42.26267846193861" lon="8.701841971521286"><ele>63.75</ele><time>2026-05-01T15:06:09.999Z</time></trkpt><trkpt lat="42.26266847078716" lon="8.701680609977736"><ele>65.5</ele><time>2026-05-01T15:06:10.999Z</time></trkpt><trkpt lat="42.262616414558195" lon="8.701514678818807"><ele>67.25</ele><time>2026-05-01T15:06:11.999Z</time></trkpt><trkpt lat="42.26252517121788" lon="8.701353548905363"><ele>69.0</ele><time>2026-05-01T15:06:12.999Z</time></trkpt><trkpt lat="42.26245295023246" lon="8.701192533789246"><ele>68.75</ele><time>2026-05-01T15:06:13.999Z</time></trkpt><trkpt lat="42.262435224076995" lon="8.700997610259146"><ele>68.5</ele><time>2026-05-01T15:06:14.999Z</time></trkpt><trkpt lat="42.262459512925155" lon="8.700800314907962"><ele>68.25</ele><time>2026-05-01T15:06:15.999Z</time></trkpt><trkpt lat="42.26244884095622" lon="8.700608422379972"><ele>68.0</ele><time>2026-05-01T15:06:16.999Z</time></trkpt><trkpt lat="42.26241924051287" lon="8.70040605216041"><ele>69.66666666666667</ele><time>2026-05-01T15:06:17.999Z</time></trkpt><trkpt lat="42.2625256458518" lon="8.700155347362161"><ele>71.33333333333333</ele><time>2026-05-01T15:06:18.999Z</time></trkpt><trkpt lat="42.262542445347556" lon="8.699923041780435"><ele>73.0</ele><time>2026-05-01T15:06:19.999Z</time></trkpt><trkpt lat="42.26255365873821" lon="8.699682972723757"><ele>73.0</ele><time>2026-05-01T15:06:20.999Z</time></trkpt><trkpt lat="42.26254423597961" lon="8.699423585358213"><ele>73.0</ele><time>2026-05-01T15:06:21.999Z</time></trkpt><trkpt lat="42.26252504206875" lon="8.699158337286482"><ele>73.0</ele><time>2026-05-01T15:06:22.999Z</time></trkpt><trkpt lat="42.26250608812595" lon="8.698894971842565"><ele>74.0</ele><time>2026-05-01T15:06:23.999Z</time></trkpt><trkpt lat="42.262495353086884" lon="8.698647594264319"><ele>75.0</ele><time>2026-05-01T15:06:24.999Z</time></trkpt><trkpt lat="42.26248652614086" lon="8.698401728079478"><ele>76.0</ele><time>2026-05-01T15:06:25.999Z</time></trkpt><trkpt lat="42.262481436742156" lon="8.698153747172315"><ele>76.0</ele><time>2026-05-01T15:06:26.999Z</time></trkpt><trkpt lat="42.26248791055482" lon="8.697918230760992"><ele>76.0</ele><time>2026-05-01T15:06:27.999Z</time></trkpt><trkpt lat="42.26251716979995" lon="8.697694937207968"><ele>76.0</ele><time>2026-05-01T15:06:28.999Z</time></trkpt><trkpt lat="42.262547024031385" lon="8.69747890730501"><ele>78.25</ele><time>2026-05-01T15:06:29.999Z</time></trkpt><trkpt lat="42.262573202039974" lon="8.697268515831386"><ele>80.5</ele><time>2026-05-01T15:06:30.999Z</time></trkpt><trkpt lat="42.262633163570015" lon="8.697090280187572"><ele>82.75</ele><time>2026-05-01T15:06:31.999Z</time></trkpt><trkpt lat="42.262708396658965" lon="8.696938115298677"><ele>85.0</ele><time>2026-05-01T15:06:32.999Z</time></trkpt><trkpt lat="42.26276050700612" lon="8.696786742147388"><ele>86.75</ele><time>2026-05-01T15:06:33.999Z</time></trkpt><trkpt lat="42.26275062943951" lon="8.69662545932743"><ele>88.5</ele><time>2026-05-01T15:06:34.999Z</time></trkpt><trkpt lat="42.262698358449484" lon="8.696462362916744"><ele>90.25</ele><time>2026-05-01T15:06:35.999Z</time></trkpt><trkpt lat="42.26261121520964" lon="8.696306992971794"><ele>92.0</ele><time>2026-05-01T15:06:36.999Z</time></trkpt><trkpt lat="42.26254089988303" lon="8.696149615022321"><ele>90.0</ele><time>2026-05-01T15:06:37.999Z</time></trkpt><trkpt lat="42.26253027763939" lon="8.695977357308287"><ele>88.0</ele><time>2026-05-01T15:06:38.999Z</time></trkpt><trkpt lat="42.262560292094825" lon="8.695821992302507"><ele>86.0</ele><time>2026-05-01T15:06:39.999Z</time></trkpt><trkpt lat="42.26253410783545" lon="8.695673106794889"><ele>84.0</ele><time>2026-05-01T15:06:40.999Z</time></trkpt><trkpt lat="42.26244626450746" lon="8.69553136229311"><ele>84.0</ele><time>2026-05-01T15:06:41.999Z</time></trkpt><trkpt lat="42.262358376014504" lon="8.695390599189281"><ele>84.0</ele><time>2026-05-01T15:06:42.999Z</time></trkpt><trkpt lat="42.262262372185326" lon="8.695269176674511"><ele>84.0</ele><time>2026-05-01T15:06:43.999Z</time></trkpt><trkpt lat="42.2621604460633" lon="8.695165963702696"><ele>84.0</ele><time>2026-05-01T15:06:44.999Z</time></trkpt><trkpt lat="42.262089762196325" lon="8.695051394102311"><ele>81.75</ele><time>2026-05-01T15:06:45.999Z</time></trkpt><trkpt lat="42.26207150662616" lon="8.694928349317614"><ele>79.5</ele><time>2026-05-01T15:06:46.999Z</time></trkpt><trkpt lat="42.26210955034458" lon="8.694804598334633"><ele>77.25</ele><time>2026-05-01T15:06:47.999Z</time></trkpt><trkpt lat="42.262187963161125" lon="8.69468383471595"><ele>75.0</ele><time>2026-05-01T15:06:48.999Z</time></trkpt><trkpt lat="42.26231113801045" lon="8.694583246469547"><ele>75.0</ele><time>2026-05-01T15:06:49.999Z</time></trkpt><trkpt lat="42.26245717364583" lon="8.69453379239776"><ele>75.0</ele><time>2026-05-01T15:06:50.999Z</time></trkpt><trkpt lat="42.262590242640364" lon="8.694484709889347"><ele>75.0</ele><time>2026-05-01T15:06:51.999Z</time></trkpt><trkpt lat="42.26268636620444" lon="8.694384363177539"><ele>75.0</ele><time>2026-05-01T15:06:52.999Z</time></trkpt><trkpt lat="42.26273155274989" lon="8.694236621028404"><ele>80.0</ele><time>2026-05-01T15:06:53.999Z</time></trkpt><trkpt lat="42.26273173624299" lon="8.694055382011028"><ele>85.0</ele><time>2026-05-01T15:06:54.998Z</time></trkpt><trkpt lat="42.2627002015995" lon="8.693853685093993"><ele>90.0</ele><time>2026-05-01T15:06:55.998Z</time></trkpt><trkpt lat="42.26265056458937" lon="8.6936453965916"><ele>95.0</ele><time>2026-05-01T15:06:56.998Z</time></trkpt><trkpt lat="42.262606878318174" lon="8.693442127419235"><ele>97.0</ele><time>2026-05-01T15:06:57.998Z</time></trkpt><trkpt lat="42.262568716348554" lon="8.693233013770946"><ele>99.0</ele><time>2026-05-01T15:06:58.998Z</time></trkpt><trkpt lat="42.262540548281386" lon="8.693042511476875"><ele>101.0</ele><time>2026-05-01T15:06:59.998Z</time></trkpt><trkpt lat="42.26255666135918" lon="8.692878092333352"><ele>103.0</ele><time>2026-05-01T15:07:00.998Z</time></trkpt><trkpt lat="42.26262058631912" lon="8.692733468778924"><ele>104.75</ele><time>2026-05-01T15:07:01.998Z</time></trkpt><trkpt lat="42.26273478805756" lon="8.692627548067158"><ele>106.5</ele><time>2026-05-01T15:07:02.998Z</time></trkpt><trkpt lat="42.26283088446017" lon="8.692494922223615"><ele>108.25</ele><time>2026-05-01T15:07:03.998Z</time></trkpt><trkpt lat="42.26290351073799" lon="8.692320661479217"><ele>110.0</ele><time>2026-05-01T15:07:04.998Z</time></trkpt><trkpt lat="42.262939244180174" lon="8.692086460492714"><ele>112.66666666666666</ele><time>2026-05-01T15:07:05.998Z</time></trkpt><trkpt lat="42.262951916257045" lon="8.691841649211625"><ele>115.33333333333334</ele><time>2026-05-01T15:07:06.998Z</time></trkpt><trkpt lat="42.262963539604215" lon="8.691600571590588"><ele>118.0</ele><time>2026-05-01T15:07:07.998Z</time></trkpt><trkpt lat="42.262985232198886" lon="8.691380922132542"><ele>118.0</ele><time>2026-05-01T15:07:08.998Z</time></trkpt><trkpt lat="42.26300379679851" lon="8.691183119366144"><ele>118.0</ele><time>2026-05-01T15:07:09.998Z</time></trkpt><trkpt lat="42.26297436849767" lon="8.691012087964896"><ele>118.0</ele><time>2026-05-01T15:07:10.998Z</time></trkpt><trkpt lat="42.26289485130471" lon="8.690845162838468"><ele>118.0</ele><time>2026-05-01T15:07:11.998Z</time></trkpt><trkpt lat="42.262787342556734" lon="8.690690821380777"><ele>115.25</ele><time>2026-05-01T15:07:12.998Z</time></trkpt><trkpt lat="42.26267594759385" lon="8.690528151300247"><ele>112.5</ele><time>2026-05-01T15:07:13.998Z</time></trkpt><trkpt lat="42.262573324168805" lon="8.690392445506816"><ele>109.75</ele><time>2026-05-01T15:07:14.998Z</time></trkpt><trkpt lat="42.26247120304818" lon="8.69029839166179"><ele>107.0</ele><time>2026-05-01T15:07:15.998Z</time></trkpt><trkpt lat="42.26234873581301" lon="8.69028819348834"><ele>108.0</ele><time>2026-05-01T15:07:16.998Z</time></trkpt><trkpt lat="42.26222775346937" lon="8.69031703961136"><ele>109.0</ele><time>2026-05-01T15:07:17.998Z</time></trkpt><trkpt lat="42.26211647428649" lon="8.690356271116025"><ele>110.0</ele><time>2026-05-01T15:07:18.998Z</time></trkpt><trkpt lat="42.26202154867035" lon="8.690427055170758"><ele>111.0</ele><time>2026-05-01T15:07:19.999Z</time></trkpt><trkpt lat="42.26194930970614" lon="8.690561618080922"><ele>111.0</ele><time>2026-05-01T15:07:20.999Z</time></trkpt><trkpt lat="42.26186208767926" lon="8.690671367105995"><ele>111.0</ele><time>2026-05-01T15:07:21.999Z</time></trkpt><trkpt lat="42.261735283476696" lon="8.690730581228348"><ele>111.0</ele><time>2026-05-01T15:07:22.999Z</time></trkpt><trkpt lat="42.26160798532928" lon="8.690748389210793"><ele>111.0</ele><time>2026-05-01T15:07:23.999Z</time></trkpt><trkpt lat="42.26148515721707" lon="8.690710400481915"><ele>118.25</ele><time>2026-05-01T15:07:24.999Z</time></trkpt><trkpt lat="42.261332165969165" lon="8.69067773885597"><ele>125.5</ele><time>2026-05-01T15:07:25.999Z</time></trkpt><trkpt lat="42.26119744214333" lon="8.690627109754661"><ele>132.75</ele><time>2026-05-01T15:07:26.999Z</time></trkpt><trkpt lat="42.261089876216126" lon="8.690536032281031"><ele>140.0</ele><time>2026-05-01T15:07:27.999Z</time></trkpt><trkpt lat="42.26099259020437" lon="8.690392588402883"><ele>131.33333333333331</ele><time>2026-05-01T15:07:28.999Z</time></trkpt><trkpt lat="42.260902318929716" lon="8.690209752104158"><ele>122.66666666666666</ele><time>2026-05-01T15:07:29.999Z</time></trkpt><trkpt lat="42.26084297994171" lon="8.690040931280341"><ele>114.0</ele><time>2026-05-01T15:07:30.999Z</time></trkpt><trkpt lat="42.260779350966935" lon="8.689858760044254"><ele>114.0</ele><time>2026-05-01T15:07:31.999Z</time></trkpt><trkpt lat="42.26070982717341" lon="8.689667173552396"><ele>114.0</ele><time>2026-05-01T15:07:32.999Z</time></trkpt><trkpt lat="42.26064176911857" lon="8.689489714718713"><ele>114.0</ele><time>2026-05-01T15:07:34Z</time></trkpt><trkpt lat="42.26057685219755" lon="8.689322570141757"><ele>114.0</ele><time>2026-05-01T15:07:35Z</time></trkpt><trkpt lat="42.260504878888305" lon="8.689191723674822"><ele>116.6</ele><time>2026-05-01T15:07:36Z</time></trkpt><trkpt lat="42.260398646351156" lon="8.689124365506535"><ele>119.2</ele><time>2026-05-01T15:07:37Z</time></trkpt><trkpt lat="42.260280508231226" lon="8.689101337803029"><ele>121.79999999999998</ele><time>2026-05-01T15:07:38Z</time></trkpt><trkpt lat="42.260168123387956" lon="8.689078578475625"><ele>124.39999999999999</ele><time>2026-05-01T15:07:39Z</time></trkpt><trkpt lat="42.26010162042527" lon="8.689015127753963"><ele>127.0</ele><time>2026-05-01T15:07:40Z</time></trkpt><trkpt lat="42.260065044490744" lon="8.688916478709595"><ele>127.0</ele><time>2026-05-01T15:07:41Z</time></trkpt><trkpt lat="42.260076732986555" lon="8.688811841356513"><ele>127.0</ele><time>2026-05-01T15:07:42Z</time></trkpt><trkpt lat="42.26012339139355" lon="8.688685098872627"><ele>127.0</ele><time>2026-05-01T15:07:43Z</time></trkpt><trkpt lat="42.26020589207177" lon="8.68855542338448"><ele>127.0</ele><time>2026-05-01T15:07:44Z</time></trkpt><trkpt lat="42.260312115589386" lon="8.688418526192649"><ele>121.66666666666667</ele><time>2026-05-01T15:07:45Z</time></trkpt><trkpt lat="42.2604190330212" lon="8.688269418723435"><ele>116.33333333333334</ele><time>2026-05-01T15:07:46Z</time></trkpt><trkpt lat="42.260538045492545" lon="8.688133145934064"><ele>111.0</ele><time>2026-05-01T15:07:47Z</time></trkpt><trkpt lat="42.26067082114487" lon="8.688043535267047"><ele>111.0</ele><time>2026-05-01T15:07:48Z</time></trkpt><trkpt lat="42.26078453275726" lon="8.687977432722905"><ele>111.0</ele><time>2026-05-01T15:07:49Z</time></trkpt><trkpt lat="42.260862705066074" lon="8.687888367423417"><ele>111.0</ele><time>2026-05-01T15:07:50Z</time></trkpt><trkpt lat="42.26088540191475" lon="8.687765033880876"><ele>111.0</ele><time>2026-05-01T15:07:51Z</time></trkpt><trkpt lat="42.26086071197271" lon="8.687631890681335"><ele>111.0</ele><time>2026-05-01T15:07:52Z</time></trkpt><trkpt lat="42.260803702079315" lon="8.687507995491623"><ele>114.0</ele><time>2026-05-01T15:07:53Z</time></trkpt><trkpt lat="42.26075355152475" lon="8.68739246220081"><ele>117.0</ele><time>2026-05-01T15:07:54Z</time></trkpt><trkpt lat="42.26071640425451" lon="8.687270522794922"><ele>120.0</ele><time>2026-05-01T15:07:54.999Z</time></trkpt><trkpt lat="42.26069587700983" lon="8.687142344105968"><ele>123.0</ele><time>2026-05-01T15:07:55.999Z</time></trkpt><trkpt lat="42.260738419989046" lon="8.687015878764674"><ele>126.0</ele><time>2026-05-01T15:07:56.999Z</time></trkpt><trkpt lat="42.26082369803571" lon="8.68692704246085"><ele>127.5</ele><time>2026-05-01T15:07:57.999Z</time></trkpt><trkpt lat="42.260922723099014" lon="8.686848080623372"><ele>129.0</ele><time>2026-05-01T15:07:58.999Z</time></trkpt><trkpt lat="42.26097341280828" lon="8.68670317737017"><ele>130.5</ele><time>2026-05-01T15:07:59.999Z</time></trkpt><trkpt lat="42.260972812467685" lon="8.686510402977342"><ele>132.0</ele><time>2026-05-01T15:08:00.999Z</time></trkpt><trkpt lat="42.260971256282424" lon="8.686300402775363"><ele>132.0</ele><time>2026-05-01T15:08:01.999Z</time></trkpt><trkpt lat="42.26100394424303" lon="8.686095879822652"><ele>132.0</ele><time>2026-05-01T15:08:02.999Z</time></trkpt><trkpt lat="42.261052289193316" lon="8.685887751413697"><ele>132.0</ele><time>2026-05-01T15:08:03.999Z</time></trkpt><trkpt lat="42.261075356633725" lon="8.685680872348474"><ele>136.25</ele><time>2026-05-01T15:08:04.999Z</time></trkpt><trkpt lat="42.26112113379118" lon="8.685495044317921"><ele>140.5</ele><time>2026-05-01T15:08:05.999Z</time></trkpt><trkpt lat="42.261167671053556" lon="8.685331118011458"><ele>144.75</ele><time>2026-05-01T15:08:06.999Z</time></trkpt><trkpt lat="42.261167461641506" lon="8.685146971263364"><ele>149.0</ele><time>2026-05-01T15:08:07.999Z</time></trkpt><trkpt lat="42.261125525443425" lon="8.684928766286198"><ele>150.66666666666666</ele><time>2026-05-01T15:08:08.999Z</time></trkpt><trkpt lat="42.26111141882029" lon="8.68470025559244"><ele>152.33333333333334</ele><time>2026-05-01T15:08:09.999Z</time></trkpt><trkpt lat="42.26113702559804" lon="8.68444945332369"><ele>154.0</ele><time>2026-05-01T15:08:10.999Z</time></trkpt><trkpt lat="42.261156190986014" lon="8.684201533610334"><ele>154.33333333333334</ele><time>2026-05-01T15:08:11.999Z</time></trkpt><trkpt lat="42.26115792042359" lon="8.683959832186193"><ele>154.66666666666666</ele><time>2026-05-01T15:08:12.999Z</time></trkpt><trkpt lat="42.26114175437323" lon="8.683746545439815"><ele>155.0</ele><time>2026-05-01T15:08:13.999Z</time></trkpt><trkpt lat="42.26109704382907" lon="8.683561223874683"><ele>153.5</ele><time>2026-05-01T15:08:14.999Z</time></trkpt><trkpt lat="42.26101676434203" lon="8.68339466862996"><ele>152.0</ele><time>2026-05-01T15:08:15.999Z</time></trkpt><trkpt lat="42.26092840347012" lon="8.68323113968312"><ele>150.5</ele><time>2026-05-01T15:08:16.999Z</time></trkpt><trkpt lat="42.26086469573345" lon="8.683083904676193"><ele>149.0</ele><time>2026-05-01T15:08:17.999Z</time></trkpt><trkpt lat="42.260831504147205" lon="8.682929874635684"><ele>149.0</ele><time>2026-05-01T15:08:18.999Z</time></trkpt><trkpt lat="42.260835447030836" lon="8.682764959608775"><ele>149.0</ele><time>2026-05-01T15:08:19.999Z</time></trkpt><trkpt lat="42.26088676096663" lon="8.682598004357349"><ele>149.0</ele><time>2026-05-01T15:08:20.999Z</time></trkpt><trkpt lat="42.26093060592017" lon="8.682442940645203"><ele>149.0</ele><time>2026-05-01T15:08:21.999Z</time></trkpt><trkpt lat="42.2609112437733" lon="8.682325415351034"><ele>146.2</ele><time>2026-05-01T15:08:22.999Z</time></trkpt><trkpt lat="42.26084122513454" lon="8.682239187448326"><ele>143.4</ele><time>2026-05-01T15:08:23.999Z</time></trkpt><trkpt lat="42.260742969025614" lon="8.682194870466539"><ele>140.6</ele><time>2026-05-01T15:08:24.999Z</time></trkpt><trkpt lat="42.260633572796515" lon="8.682183165744496"><ele>137.8</ele><time>2026-05-01T15:08:25.999Z</time></trkpt><trkpt lat="42.260559483540185" lon="8.682155654535233"><ele>135.0</ele><time>2026-05-01T15:08:26.999Z</time></trkpt><trkpt lat="42.26049773230205" lon="8.682046332495363"><ele>142.2</ele><time>2026-05-01T15:08:28.999Z</time></trkpt><trkpt lat="42.26046003518694" lon="8.68196059131367"><ele>149.4</ele><time>2026-05-01T15:08:29.999Z</time></trkpt><trkpt lat="42.26043285517773" lon="8.681849401716345"><ele>156.60000000000002</ele><time>2026-05-01T15:08:30.999Z</time></trkpt><trkpt lat="42.26041974047426" lon="8.68171680425635"><ele>163.8</ele><time>2026-05-01T15:08:31.999Z</time></trkpt><trkpt lat="42.260411913302704" lon="8.681578472237117"><ele>171.0</ele><time>2026-05-01T15:08:32.999Z</time></trkpt><trkpt lat="42.26040504284063" lon="8.681450380250668"><ele>171.0</ele><time>2026-05-01T15:08:33.999Z</time></trkpt><trkpt lat="42.26038860651823" lon="8.681315379611226"><ele>171.0</ele><time>2026-05-01T15:08:34.999Z</time></trkpt><trkpt lat="42.2603616507112" lon="8.681182826471211"><ele>171.0</ele><time>2026-05-01T15:08:35.999Z</time></trkpt><trkpt lat="42.260319409945076" lon="8.681026824961542"><ele>171.0</ele><time>2026-05-01T15:08:36.999Z</time></trkpt><trkpt lat="42.26027230350767" lon="8.680832332119707"><ele>165.0</ele><time>2026-05-01T15:08:37.999Z</time></trkpt><trkpt lat="42.26017973415448" lon="8.680641746035562"><ele>159.0</ele><time>2026-05-01T15:08:38.999Z</time></trkpt><trkpt lat="42.26004332035439" lon="8.680458808091688"><ele>153.0</ele><time>2026-05-01T15:08:39.999Z</time></trkpt><trkpt lat="42.25990366500823" lon="8.680272802639175"><ele>162.33333333333334</ele><time>2026-05-01T15:08:40.999Z</time></trkpt><trkpt lat="42.2597809940421" lon="8.680050121515105"><ele>171.66666666666669</ele><time>2026-05-01T15:08:41.999Z</time></trkpt><trkpt lat="42.259672146537184" lon="8.679802429895023"><ele>181.0</ele><time>2026-05-01T15:08:42.999Z</time></trkpt><trkpt lat="42.259573081180285" lon="8.679533005129223"><ele>175.66666666666669</ele><time>2026-05-01T15:08:43.999Z</time></trkpt><trkpt lat="42.25947837451587" lon="8.679254800927119"><ele>170.33333333333334</ele><time>2026-05-01T15:08:44.999Z</time></trkpt><trkpt lat="42.25939875945863" lon="8.67898681935327"><ele>165.0</ele><time>2026-05-01T15:08:45.999Z</time></trkpt><trkpt lat="42.259312084272594" lon="8.678723748979703"><ele>162.33333333333334</ele><time>2026-05-01T15:08:46.999Z</time></trkpt><trkpt lat="42.25922598631965" lon="8.678467093289427"><ele>159.66666666666669</ele><time>2026-05-01T15:08:47.999Z</time></trkpt><trkpt lat="42.25914654464829" lon="8.678227293094523"><ele>157.0</ele><time>2026-05-01T15:08:48.999Z</time></trkpt><trkpt lat="42.259077742141" lon="8.677981709142596"><ele>155.33333333333334</ele><time>2026-05-01T15:08:49.999Z</time></trkpt><trkpt lat="42.25903284925692" lon="8.677717044383293"><ele>153.66666666666666</ele><time>2026-05-01T15:08:50.999Z</time></trkpt><trkpt lat="42.25903434003741" lon="8.677458665445188"><ele>152.0</ele><time>2026-05-01T15:08:51.999Z</time></trkpt><trkpt lat="42.25902899602597" lon="8.677238222672761"><ele>152.0</ele><time>2026-05-01T15:08:52.999Z</time></trkpt><trkpt lat="42.25898610497961" lon="8.677051698739852"><ele>152.0</ele><time>2026-05-01T15:08:53.999Z</time></trkpt><trkpt lat="42.25889921966539" lon="8.67690025019492"><ele>152.0</ele><time>2026-05-01T15:08:54.999Z</time></trkpt><trkpt lat="42.25878086921098" lon="8.676803347969775"><ele>152.0</ele><time>2026-05-01T15:08:55.999Z</time></trkpt><trkpt lat="42.258637207433985" lon="8.676788724942707"><ele>154.0</ele><time>2026-05-01T15:08:56.999Z</time></trkpt><trkpt lat="42.25848644992044" lon="8.676805156050362"><ele>156.0</ele><time>2026-05-01T15:08:57.999Z</time></trkpt><trkpt lat="42.25832886437642" lon="8.676861746345683"><ele>158.0</ele><time>2026-05-01T15:08:58.999Z</time></trkpt><trkpt lat="42.25815981044754" lon="8.676940390226251"><ele>168.66666666666666</ele><time>2026-05-01T15:08:59.999Z</time></trkpt><trkpt lat="42.257999792694875" lon="8.676982873730905"><ele>179.33333333333334</ele><time>2026-05-01T15:09:00.999Z</time></trkpt><trkpt lat="42.257839539821326" lon="8.676981221340629"><ele>190.0</ele><time>2026-05-01T15:09:01.999Z</time></trkpt><trkpt lat="42.257684551732275" lon="8.676949183410885"><ele>190.0</ele><time>2026-05-01T15:09:02.999Z</time></trkpt><trkpt lat="42.25755611226848" lon="8.676959956585527"><ele>190.0</ele><time>2026-05-01T15:09:03.999Z</time></trkpt><trkpt lat="42.25744022626396" lon="8.676958974506263"><ele>190.0</ele><time>2026-05-01T15:09:04.999Z</time></trkpt><trkpt lat="42.25736502193787" lon="8.67688594295081"><ele>190.0</ele><time>2026-05-01T15:09:05.999Z</time></trkpt><trkpt lat="42.25731197389405" lon="8.676788925641585"><ele>190.0</ele><time>2026-05-01T15:09:06.999Z</time></trkpt><trkpt lat="42.257314211827826" lon="8.676657725035543"><ele>189.5</ele><time>2026-05-01T15:09:07.999Z</time></trkpt><trkpt lat="42.257359861024284" lon="8.67652245223295"><ele>189.0</ele><time>2026-05-01T15:09:08.999Z</time></trkpt><trkpt lat="42.25741944910953" lon="8.676364078521045"><ele>188.5</ele><time>2026-05-01T15:09:09.999Z</time></trkpt><trkpt lat="42.25748694461855" lon="8.676171296396198"><ele>188.0</ele><time>2026-05-01T15:09:10.999Z</time></trkpt><trkpt lat="42.2575727475011" lon="8.675973641926047"><ele>188.0</ele><time>2026-05-01T15:09:11.999Z</time></trkpt><trkpt lat="42.25767966720891" lon="8.675782652483614"><ele>188.0</ele><time>2026-05-01T15:09:12.999Z</time></trkpt><trkpt lat="42.25782880182486" lon="8.67564129367954"><ele>188.0</ele><time>2026-05-01T15:09:13.999Z</time></trkpt><trkpt lat="42.25798465285665" lon="8.67551834969287"><ele>188.0</ele><time>2026-05-01T15:09:14.999Z</time></trkpt><trkpt lat="42.25810503849238" lon="8.675403962826497"><ele>188.0</ele><time>2026-05-01T15:09:15.999Z</time></trkpt><trkpt lat="42.25817801830612" lon="8.675246631982134"><ele>188.0</ele><time>2026-05-01T15:09:16.999Z</time></trkpt><trkpt lat="42.25820598614434" lon="8.675055941994017"><ele>188.0</ele><time>2026-05-01T15:09:17.999Z</time></trkpt><trkpt lat="42.25820890541209" lon="8.674825346463344"><ele>184.0</ele><time>2026-05-01T15:09:18.999Z</time></trkpt><trkpt lat="42.258234477015755" lon="8.674597052782405"><ele>180.0</ele><time>2026-05-01T15:09:19.999Z</time></trkpt><trkpt lat="42.25824632460885" lon="8.674396563513248"><ele>176.0</ele><time>2026-05-01T15:09:20.999Z</time></trkpt><trkpt lat="42.25826276096314" lon="8.674226958839471"><ele>172.0</ele><time>2026-05-01T15:09:21.999Z</time></trkpt><trkpt lat="42.25826620765615" lon="8.674077620625003"><ele>172.0</ele><time>2026-05-01T15:09:22.999Z</time></trkpt><trkpt lat="42.2582332667766" lon="8.673947667578116"><ele>172.0</ele><time>2026-05-01T15:09:23.999Z</time></trkpt><trkpt lat="42.25815596579418" lon="8.673862802007864"><ele>172.0</ele><time>2026-05-01T15:09:24.999Z</time></trkpt><trkpt lat="42.25805125366077" lon="8.673849101303105"><ele>172.0</ele><time>2026-05-01T15:09:26Z</time></trkpt><trkpt lat="42.2579287680074" lon="8.673841362434226"><ele>172.0</ele><time>2026-05-01T15:09:27Z</time></trkpt><trkpt lat="42.25783003006235" lon="8.673769357670206"><ele>175.25</ele><time>2026-05-01T15:09:28Z</time></trkpt><trkpt lat="42.2577619395664" lon="8.67362063045579"><ele>178.5</ele><time>2026-05-01T15:09:29Z</time></trkpt><trkpt lat="42.25771104192738" lon="8.673456919616594"><ele>181.75</ele><time>2026-05-01T15:09:30Z</time></trkpt><trkpt lat="42.25762031936791" lon="8.67334174423948"><ele>185.0</ele><time>2026-05-01T15:09:31Z</time></trkpt><trkpt lat="42.257490528347425" lon="8.673311824045344"><ele>185.0</ele><time>2026-05-01T15:09:32Z</time></trkpt><trkpt lat="42.257365715926994" lon="8.673291435464897"><ele>185.0</ele><time>2026-05-01T15:09:33Z</time></trkpt><trkpt lat="42.25726805702916" lon="8.673200760692248"><ele>185.0</ele><time>2026-05-01T15:09:34Z</time></trkpt><trkpt lat="42.257197736764724" lon="8.673075921187301"><ele>185.0</ele><time>2026-05-01T15:09:35Z</time></trkpt><trkpt lat="42.25714920086864" lon="8.672944679080164"><ele>186.8</ele><time>2026-05-01T15:09:36Z</time></trkpt><trkpt lat="42.25713954843952" lon="8.67279895452334"><ele>188.6</ele><time>2026-05-01T15:09:37Z</time></trkpt><trkpt lat="42.25714014970569" lon="8.672649077521854"><ele>190.39999999999998</ele><time>2026-05-01T15:09:38Z</time></trkpt><trkpt lat="42.25710879605519" lon="8.672526372701492"><ele>192.2</ele><time>2026-05-01T15:09:39Z</time></trkpt><trkpt lat="42.257016895815084" lon="8.672485395832691"><ele>194.0</ele><time>2026-05-01T15:09:40Z</time></trkpt><trkpt lat="42.25690224237514" lon="8.672522235330254"><ele>194.0</ele><time>2026-05-01T15:09:41Z</time></trkpt><trkpt lat="42.256774285484425" lon="8.672554017809444"><ele>194.0</ele><time>2026-05-01T15:09:42Z</time></trkpt><trkpt lat="42.25662586993578" lon="8.672522183672996"><ele>194.0</ele><time>2026-05-01T15:09:43Z</time></trkpt><trkpt lat="42.256477406201604" lon="8.672463942665747"><ele>194.0</ele><time>2026-05-01T15:09:44Z</time></trkpt><trkpt lat="42.25635854373306" lon="8.67240238102179"><ele>192.0</ele><time>2026-05-01T15:09:45Z</time></trkpt><trkpt lat="42.25627903383071" lon="8.672281998103381"><ele>190.0</ele><time>2026-05-01T15:09:46Z</time></trkpt><trkpt lat="42.25621868859582" lon="8.672129818022995"><ele>188.0</ele><time>2026-05-01T15:09:47Z</time></trkpt><trkpt lat="42.25613731202991" lon="8.671995156670649"><ele>186.0</ele><time>2026-05-01T15:09:48Z</time></trkpt><trkpt lat="42.256016215964095" lon="8.671907171759718"><ele>186.0</ele><time>2026-05-01T15:09:49Z</time></trkpt><trkpt lat="42.25586943793374" lon="8.671848592932516"><ele>186.0</ele><time>2026-05-01T15:09:50Z</time></trkpt><trkpt lat="42.25573811525867" lon="8.671815414901117"><ele>186.0</ele><time>2026-05-01T15:09:51Z</time></trkpt><trkpt lat="42.2556443111233" lon="8.671821009364415"><ele>186.0</ele><time>2026-05-01T15:09:52Z</time></trkpt><trkpt lat="42.25557126060268" lon="8.671908244408392"><ele>193.5</ele><time>2026-05-01T15:09:53Z</time></trkpt><trkpt lat="42.25549318022465" lon="8.672047407326412"><ele>201.0</ele><time>2026-05-01T15:09:54Z</time></trkpt><trkpt lat="42.25540023932653" lon="8.672188453231353"><ele>208.5</ele><time>2026-05-01T15:09:55Z</time></trkpt><trkpt lat="42.25527607175237" lon="8.67228277424989"><ele>216.0</ele><time>2026-05-01T15:09:56Z</time></trkpt><trkpt lat="42.255157357098966" lon="8.672359045112264"><ele>216.0</ele><time>2026-05-01T15:09:57Z</time></trkpt><trkpt lat="42.25505960155471" lon="8.672407452373937"><ele>216.00000000000003</ele><time>2026-05-01T15:09:58Z</time></trkpt><trkpt lat="42.254973594796866" lon="8.672397809393933"><ele>216.00000000000003</ele><time>2026-05-01T15:09:59Z</time></trkpt><trkpt lat="42.25491163193594" lon="8.67231285345147"><ele>216.0</ele><time>2026-05-01T15:10:00Z</time></trkpt><trkpt lat="42.25488504274051" lon="8.672206751445296"><ele>216.0</ele><time>2026-05-01T15:10:01Z</time></trkpt><trkpt lat="42.25487787595978" lon="8.672060051040013"><ele>212.75</ele><time>2026-05-01T15:10:02Z</time></trkpt><trkpt lat="42.25485387539833" lon="8.671885395287129"><ele>209.5</ele><time>2026-05-01T15:10:03Z</time></trkpt><trkpt lat="42.254815928732164" lon="8.67170128496494"><ele>206.25</ele><time>2026-05-01T15:10:04Z</time></trkpt><trkpt lat="42.25478388477417" lon="8.671534727475816"><ele>203.0</ele><time>2026-05-01T15:10:05Z</time></trkpt><trkpt lat="42.25477585808125" lon="8.671393633340465"><ele>203.0</ele><time>2026-05-01T15:10:06Z</time></trkpt><trkpt lat="42.25480779601646" lon="8.671265163402053"><ele>203.0</ele><time>2026-05-01T15:10:07Z</time></trkpt><trkpt lat="42.25488229750095" lon="8.671143841847226"><ele>203.0</ele><time>2026-05-01T15:10:08Z</time></trkpt><trkpt lat="42.25495775144392" lon="8.670993332015202"><ele>203.0</ele><time>2026-05-01T15:10:09Z</time></trkpt><trkpt lat="42.25502802738169" lon="8.670843003172488"><ele>206.2</ele><time>2026-05-01T15:10:10Z</time></trkpt><trkpt lat="42.255106910191536" lon="8.670715684210188"><ele>209.4</ele><time>2026-05-01T15:10:11Z</time></trkpt><trkpt lat="42.25518082502782" lon="8.670606820892719"><ele>212.59999999999997</ele><time>2026-05-01T15:10:12Z</time></trkpt><trkpt lat="42.25525174569818" lon="8.670518201156698"><ele>215.79999999999998</ele><time>2026-05-01T15:10:13Z</time></trkpt><trkpt lat="42.25530539176016" lon="8.67045868575878"><ele>219.0</ele><time>2026-05-01T15:10:14Z</time></trkpt><trkpt lat="42.255362316865195" lon="8.670412794672714"><ele>219.0</ele><time>2026-05-01T15:10:15Z</time></trkpt><trkpt lat="42.2554733061702" lon="8.670308756744376"><ele>219.0</ele><time>2026-05-01T15:10:17Z</time></trkpt><trkpt lat="42.25551730545668" lon="8.670218491472962"><ele>219.0</ele><time>2026-05-01T15:10:18Z</time></trkpt><trkpt lat="42.25553138813004" lon="8.670121333239097"><ele>219.0</ele><time>2026-05-01T15:10:19Z</time></trkpt><trkpt lat="42.25552692965495" lon="8.670017726327762"><ele>219.0</ele><time>2026-05-01T15:10:20Z</time></trkpt><trkpt lat="42.25552981329008" lon="8.669922921791287"><ele>219.0</ele><time>2026-05-01T15:10:21Z</time></trkpt><trkpt lat="42.25556074673839" lon="8.669843110885253"><ele>219.2</ele><time>2026-05-01T15:10:22Z</time></trkpt><trkpt lat="42.25561107283385" lon="8.669782638583802"><ele>219.39999999999998</ele><time>2026-05-01T15:10:23Z</time></trkpt><trkpt lat="42.2556819631187" lon="8.669755479310304"><ele>219.6</ele><time>2026-05-01T15:10:24Z</time></trkpt><trkpt lat="42.255762331612495" lon="8.66975925154506"><ele>219.8</ele><time>2026-05-01T15:10:25Z</time></trkpt><trkpt lat="42.25588823666801" lon="8.669777983312775"><ele>220.0</ele><time>2026-05-01T15:10:26Z</time></trkpt><trkpt lat="42.256049013196524" lon="8.6698334078343"><ele>220.0</ele><time>2026-05-01T15:10:27Z</time></trkpt><trkpt lat="42.25621981465896" lon="8.669906293403661"><ele>220.0</ele><time>2026-05-01T15:10:28Z</time></trkpt><trkpt lat="42.25638495960817" lon="8.669928050395127"><ele>220.0</ele><time>2026-05-01T15:10:29Z</time></trkpt><trkpt lat="42.256543405898945" lon="8.669895628161449"><ele>219.33333333333331</ele><time>2026-05-01T15:10:30Z</time></trkpt><trkpt lat="42.25669653866389" lon="8.6698460597034"><ele>218.66666666666669</ele><time>2026-05-01T15:10:31Z</time></trkpt><trkpt lat="42.2568473002295" lon="8.669819830570134"><ele>218.0</ele><time>2026-05-01T15:10:32Z</time></trkpt><trkpt lat="42.25698371234048" lon="8.669776430146854"><ele>218.0</ele><time>2026-05-01T15:10:33Z</time></trkpt><trkpt lat="42.25712490248534" lon="8.669652169654277"><ele>218.0</ele><time>2026-05-01T15:10:34Z</time></trkpt><trkpt lat="42.257270850384344" lon="8.669466755330097"><ele>218.0</ele><time>2026-05-01T15:10:35Z</time></trkpt><trkpt lat="42.25740917204458" lon="8.669290525863588"><ele>220.5</ele><time>2026-05-01T15:10:36Z</time></trkpt><trkpt lat="42.257516448314405" lon="8.669121306925682"><ele>223.0</ele><time>2026-05-01T15:10:37Z</time></trkpt><trkpt lat="42.25756640083177" lon="8.668960295521627"><ele>225.5</ele><time>2026-05-01T15:10:38Z</time></trkpt><trkpt lat="42.257558906274895" lon="8.668824829087288"><ele>228.0</ele><time>2026-05-01T15:10:38.999Z</time></trkpt><trkpt lat="42.25747796455466" lon="8.668750722612542"><ele>228.0</ele><time>2026-05-01T15:10:39.999Z</time></trkpt><trkpt lat="42.25736113865394" lon="8.668724843046546"><ele>228.0</ele><time>2026-05-01T15:10:40.999Z</time></trkpt><trkpt lat="42.25720781962236" lon="8.668735681345451"><ele>228.0</ele><time>2026-05-01T15:10:41.999Z</time></trkpt><trkpt lat="42.257027325574455" lon="8.668723819712826"><ele>232.0</ele><time>2026-05-01T15:10:42.999Z</time></trkpt><trkpt lat="42.25687286533229" lon="8.668675279563326"><ele>236.0</ele><time>2026-05-01T15:10:43.999Z</time></trkpt><trkpt lat="42.256751586785086" lon="8.668599998688569"><ele>240.0</ele><time>2026-05-01T15:10:44.999Z</time></trkpt><trkpt lat="42.256670125345494" lon="8.668466128616679"><ele>244.0</ele><time>2026-05-01T15:10:45.999Z</time></trkpt><trkpt lat="42.25660306769996" lon="8.668317036771452"><ele>244.0</ele><time>2026-05-01T15:10:46.999Z</time></trkpt><trkpt lat="42.25651345402701" lon="8.668185087609881"><ele>244.0</ele><time>2026-05-01T15:10:47.999Z</time></trkpt><trkpt lat="42.256388754875694" lon="8.668095563040168"><ele>244.0</ele><time>2026-05-01T15:10:48.999Z</time></trkpt><trkpt lat="42.25626406698804" lon="8.667987478068394"><ele>244.0</ele><time>2026-05-01T15:10:49.999Z</time></trkpt><trkpt lat="42.25616019298887" lon="8.667824893435274"><ele>252.0</ele><time>2026-05-01T15:10:50.999Z</time></trkpt><trkpt lat="42.25609938724718" lon="8.66761301361347"><ele>260.0</ele><time>2026-05-01T15:10:51.999Z</time></trkpt><trkpt lat="42.256069597519385" lon="8.66741228673644"><ele>268.0</ele><time>2026-05-01T15:10:52.999Z</time></trkpt><trkpt lat="42.25601877195968" lon="8.667260433980767"><ele>276.0</ele><time>2026-05-01T15:10:53.999Z</time></trkpt><trkpt lat="42.25592942402779" lon="8.667155130025742"><ele>276.0</ele><time>2026-05-01T15:10:54.999Z</time></trkpt><trkpt lat="42.25583022024346" lon="8.667043545798547"><ele>276.0</ele><time>2026-05-01T15:10:55.999Z</time></trkpt><trkpt lat="42.255762820826035" lon="8.666924012407835"><ele>276.0</ele><time>2026-05-01T15:10:56.999Z</time></trkpt><trkpt lat="42.255734904079084" lon="8.66679285061364"><ele>276.0</ele><time>2026-05-01T15:10:57.999Z</time></trkpt><trkpt lat="42.25573068535489" lon="8.666648544023095"><ele>276.0</ele><time>2026-05-01T15:10:58.999Z</time></trkpt><trkpt lat="42.25574409652307" lon="8.666520728463837"><ele>274.5</ele><time>2026-05-01T15:10:59.999Z</time></trkpt><trkpt lat="42.25575060850047" lon="8.666414272857452"><ele>273.0</ele><time>2026-05-01T15:11:00.999Z</time></trkpt><trkpt lat="42.25573633881987" lon="8.666326862912797"><ele>271.5</ele><time>2026-05-01T15:11:01.999Z</time></trkpt><trkpt lat="42.25569867769965" lon="8.66625793718602"><ele>270.0</ele><time>2026-05-01T15:11:02.999Z</time></trkpt><trkpt lat="42.255627752314666" lon="8.666199015188015"><ele>268.5</ele><time>2026-05-01T15:11:03.999Z</time></trkpt><trkpt lat="42.25554078597644" lon="8.6661465374606"><ele>267.0</ele><time>2026-05-01T15:11:04.999Z</time></trkpt><trkpt lat="42.255463275498066" lon="8.66610260248894"><ele>267.00000000000006</ele><time>2026-05-01T15:11:05.999Z</time></trkpt><trkpt lat="42.255398066324226" lon="8.66605726376666"><ele>267.0</ele><time>2026-05-01T15:11:06.999Z</time></trkpt><trkpt lat="42.25533810340235" lon="8.666010196285317"><ele>267.0</ele><time>2026-05-01T15:11:07.999Z</time></trkpt><trkpt lat="42.25527011131303" lon="8.66596152472138"><ele>267.0</ele><time>2026-05-01T15:11:08.999Z</time></trkpt><trkpt lat="42.255202602899644" lon="8.665930071969383"><ele>267.0</ele><time>2026-05-01T15:11:09.999Z</time></trkpt><trkpt lat="42.25513058911364" lon="8.665916369240591"><ele>267.00000000000006</ele><time>2026-05-01T15:11:10.999Z</time></trkpt><trkpt lat="42.25506366747845" lon="8.665930150778745"><ele>267.0</ele><time>2026-05-01T15:11:11.999Z</time></trkpt><trkpt lat="42.25499505761543" lon="8.665962677020497"><ele>267.0</ele><time>2026-05-01T15:11:12.999Z</time></trkpt><trkpt lat="42.254923192404185" lon="8.666007454879196"><ele>267.0</ele><time>2026-05-01T15:11:13.999Z</time></trkpt><trkpt lat="42.254847742093126" lon="8.666033883686904"><ele>267.0</ele><time>2026-05-01T15:11:14.999Z</time></trkpt><trkpt lat="42.25477440938742" lon="8.666024810175493"><ele>267.0</ele><time>2026-05-01T15:11:15.999Z</time></trkpt><trkpt lat="42.25471170792072" lon="8.665986725098428"><ele>267.0</ele><time>2026-05-01T15:11:16.999Z</time></trkpt><trkpt lat="42.25465670679893" lon="8.665909055137664"><ele>267.0</ele><time>2026-05-01T15:11:17.999Z</time></trkpt><trkpt lat="42.254614551142026" lon="8.665813557186613"><ele>274.4</ele><time>2026-05-01T15:11:18.999Z</time></trkpt><trkpt lat="42.25458321290324" lon="8.665688459602078"><ele>281.79999999999995</ele><time>2026-05-01T15:11:19.999Z</time></trkpt><trkpt lat="42.25454471807874" lon="8.665564115062137"><ele>289.2</ele><time>2026-05-01T15:11:20.999Z</time></trkpt><trkpt lat="42.254502207045185" lon="8.665432279569181"><ele>296.59999999999997</ele><time>2026-05-01T15:11:21.999Z</time></trkpt><trkpt lat="42.2544673349696" lon="8.665303891268765"><ele>304.0</ele><time>2026-05-01T15:11:22.999Z</time></trkpt><trkpt lat="42.25444427319376" lon="8.66517463595466"><ele>304.0</ele><time>2026-05-01T15:11:23.999Z</time></trkpt><trkpt lat="42.25444389042095" lon="8.665030163605811"><ele>304.0</ele><time>2026-05-01T15:11:24.999Z</time></trkpt><trkpt lat="42.2544621413225" lon="8.664877273964773"><ele>304.0</ele><time>2026-05-01T15:11:25.999Z</time></trkpt><trkpt lat="42.25448646842978" lon="8.664722566647901"><ele>304.0</ele><time>2026-05-01T15:11:26.999Z</time></trkpt><trkpt lat="42.254495544710906" lon="8.664542023641786"><ele>304.0</ele><time>2026-05-01T15:11:27.999Z</time></trkpt><trkpt lat="42.254471326859615" lon="8.664329480540179"><ele>304.0</ele><time>2026-05-01T15:11:28.999Z</time></trkpt><trkpt lat="42.25443884253745" lon="8.664159909687582"><ele>304.0</ele><time>2026-05-01T15:11:29.999Z</time></trkpt><trkpt lat="42.254412202198736" lon="8.664019359276761"><ele>304.0</ele><time>2026-05-01T15:11:30.999Z</time></trkpt><trkpt lat="42.25439549261383" lon="8.663891420218073"><ele>304.0</ele><time>2026-05-01T15:11:32Z</time></trkpt><trkpt lat="42.25440080650095" lon="8.663796279879932"><ele>304.0</ele><time>2026-05-01T15:11:33Z</time></trkpt><trkpt lat="42.25443027155783" lon="8.663718955309966"><ele>304.0</ele><time>2026-05-01T15:11:34Z</time></trkpt><trkpt lat="42.254488197349445" lon="8.663656003770543"><ele>304.0</ele><time>2026-05-01T15:11:35Z</time></trkpt><trkpt lat="42.25454565173754" lon="8.663582014821474"><ele>304.0</ele><time>2026-05-01T15:11:36Z</time></trkpt><trkpt lat="42.25459574415945" lon="8.663512434137859"><ele>304.0</ele><time>2026-05-01T15:11:37Z</time></trkpt><trkpt lat="42.25461834233829" lon="8.663364904182094"><ele>301.8</ele><time>2026-05-01T15:11:39Z</time></trkpt><trkpt lat="42.25452996515461" lon="8.663290346259"><ele>299.59999999999997</ele><time>2026-05-01T15:11:41Z</time></trkpt><trkpt lat="42.25442337235211" lon="8.66328479654977"><ele>297.4</ele><time>2026-05-01T15:11:43Z</time></trkpt><trkpt lat="42.254362173925955" lon="8.663315617983919"><ele>295.2</ele><time>2026-05-01T15:11:44Z</time></trkpt><trkpt lat="42.254296377356226" lon="8.663399171208713"><ele>293.0</ele><time>2026-05-01T15:11:45Z</time></trkpt><trkpt lat="42.25426700025025" lon="8.663541416169485"><ele>296.6666666666667</ele><time>2026-05-01T15:11:46Z</time></trkpt><trkpt lat="42.25427265598125" lon="8.663762699208624"><ele>300.3333333333333</ele><time>2026-05-01T15:11:47Z</time></trkpt><trkpt lat="42.2542750385437" lon="8.6640432518004"><ele>304.0</ele><time>2026-05-01T15:11:48Z</time></trkpt><trkpt lat="42.25424394700772" lon="8.664354536439975"><ele>304.0</ele><time>2026-05-01T15:11:49Z</time></trkpt><trkpt lat="42.25423525519035" lon="8.66469182623142"><ele>304.0</ele><time>2026-05-01T15:11:50Z</time></trkpt><trkpt lat="42.2541829113092" lon="8.664992991864995"><ele>304.0</ele><time>2026-05-01T15:11:51Z</time></trkpt><trkpt lat="42.254130966658856" lon="8.665244434202567"><ele>304.0</ele><time>2026-05-01T15:11:52Z</time></trkpt><trkpt lat="42.25412035452744" lon="8.665456139849763"><ele>304.0</ele><time>2026-05-01T15:11:53Z</time></trkpt><trkpt lat="42.25417128143692" lon="8.665649734792828"><ele>305.0</ele><time>2026-05-01T15:11:54Z</time></trkpt><trkpt lat="42.25425949472059" lon="8.665897145919415"><ele>306.0</ele><time>2026-05-01T15:11:55Z</time></trkpt><trkpt lat="42.2543052298892" lon="8.666197636167116"><ele>307.0</ele><time>2026-05-01T15:11:56Z</time></trkpt><trkpt lat="42.25430219172796" lon="8.666525216660522"><ele>306.66666666666663</ele><time>2026-05-01T15:11:57Z</time></trkpt><trkpt lat="42.25428424089843" lon="8.666801545884462"><ele>306.3333333333333</ele><time>2026-05-01T15:11:58Z</time></trkpt><trkpt lat="42.254277372022784" lon="8.667042707288703"><ele>306.0</ele><time>2026-05-01T15:11:59Z</time></trkpt><trkpt lat="42.25426590042117" lon="8.667242747630759"><ele>306.0</ele><time>2026-05-01T15:12:00Z</time></trkpt><trkpt lat="42.25420935642094" lon="8.667402516095228"><ele>306.0</ele><time>2026-05-01T15:12:01Z</time></trkpt><trkpt lat="42.25412571995877" lon="8.667525017457208"><ele>306.0</ele><time>2026-05-01T15:12:02Z</time></trkpt><trkpt lat="42.25399785793864" lon="8.667623221690262"><ele>306.0</ele><time>2026-05-01T15:12:03Z</time></trkpt><trkpt lat="42.25383371710329" lon="8.667736653086756"><ele>312.6666666666667</ele><time>2026-05-01T15:12:04Z</time></trkpt><trkpt lat="42.25368965077861" lon="8.667926201118576"><ele>319.33333333333337</ele><time>2026-05-01T15:12:05Z</time></trkpt><trkpt lat="42.253590830569166" lon="8.668161146224117"><ele>326.0</ele><time>2026-05-01T15:12:06Z</time></trkpt><trkpt lat="42.25354750330234" lon="8.668371568519039"><ele>326.0</ele><time>2026-05-01T15:12:07Z</time></trkpt><trkpt lat="42.253557128069254" lon="8.66856358179081"><ele>326.0</ele><time>2026-05-01T15:12:08Z</time></trkpt><trkpt lat="42.2536392615323" lon="8.668748248063508"><ele>326.0</ele><time>2026-05-01T15:12:09Z</time></trkpt><trkpt lat="42.25374260571882" lon="8.668925635236905"><ele>323.5</ele><time>2026-05-01T15:12:10Z</time></trkpt><trkpt lat="42.253804606707185" lon="8.669098086787718"><ele>321.0</ele><time>2026-05-01T15:12:11Z</time></trkpt><trkpt lat="42.2538166138177" lon="8.669260920065021"><ele>318.5</ele><time>2026-05-01T15:12:12Z</time></trkpt><trkpt lat="42.253748300994324" lon="8.669398717387018"><ele>316.0</ele><time>2026-05-01T15:12:13Z</time></trkpt><trkpt lat="42.25365113965511" lon="8.669448776969201"><ele>316.0</ele><time>2026-05-01T15:12:14Z</time></trkpt><trkpt lat="42.25353170602743" lon="8.669393847047651"><ele>316.0</ele><time>2026-05-01T15:12:15Z</time></trkpt><trkpt lat="42.253418602539895" lon="8.669292974488956"><ele>316.0</ele><time>2026-05-01T15:12:16Z</time></trkpt><trkpt lat="42.253327129653684" lon="8.669142388496358"><ele>316.0</ele><time>2026-05-01T15:12:17Z</time></trkpt><trkpt lat="42.25328778398577" lon="8.668938298404472"><ele>316.0</ele><time>2026-05-01T15:12:18Z</time></trkpt><trkpt lat="42.25327519039067" lon="8.668721552018976"><ele>316.0</ele><time>2026-05-01T15:12:19Z</time></trkpt><trkpt lat="42.2532574248284" lon="8.668481126056964"><ele>316.0</ele><time>2026-05-01T15:12:20Z</time></trkpt><trkpt lat="42.2532302291957" lon="8.668243620524906"><ele>319.3333333333333</ele><time>2026-05-01T15:12:21Z</time></trkpt><trkpt lat="42.25321068859299" lon="8.668009599344712"><ele>322.6666666666667</ele><time>2026-05-01T15:12:22Z</time></trkpt><trkpt lat="42.25323706017697" lon="8.66780252415618"><ele>326.0</ele><time>2026-05-01T15:12:23Z</time></trkpt><trkpt lat="42.253293584349706" lon="8.66759823110012"><ele>330.0</ele><time>2026-05-01T15:12:24Z</time></trkpt><trkpt lat="42.25336550220548" lon="8.66738891064493"><ele>334.0</ele><time>2026-05-01T15:12:25Z</time></trkpt><trkpt lat="42.25342411584266" lon="8.667167215068545"><ele>338.0</ele><time>2026-05-01T15:12:26Z</time></trkpt><trkpt lat="42.253468328719194" lon="8.666929348177604"><ele>341.33333333333337</ele><time>2026-05-01T15:12:27Z</time></trkpt><trkpt lat="42.25349592082441" lon="8.66671710201242"><ele>344.6666666666667</ele><time>2026-05-01T15:12:28Z</time></trkpt><trkpt lat="42.25352212431173" lon="8.66648289817039"><ele>348.0</ele><time>2026-05-01T15:12:29Z</time></trkpt><trkpt lat="42.253531346406994" lon="8.666254931918697"><ele>350.6666666666667</ele><time>2026-05-01T15:12:30Z</time></trkpt><trkpt lat="42.25354037237716" lon="8.666026718439648"><ele>353.33333333333337</ele><time>2026-05-01T15:12:31Z</time></trkpt><trkpt lat="42.2535362636189" lon="8.665808124623027"><ele>356.0</ele><time>2026-05-01T15:12:32Z</time></trkpt><trkpt lat="42.2535183369199" lon="8.665584209818928"><ele>356.0</ele><time>2026-05-01T15:12:33Z</time></trkpt><trkpt lat="42.25348597733912" lon="8.665358096768324"><ele>356.0</ele><time>2026-05-01T15:12:34Z</time></trkpt><trkpt lat="42.25344883984878" lon="8.66516084075097"><ele>356.0</ele><time>2026-05-01T15:12:35Z</time></trkpt><trkpt lat="42.253437527169616" lon="8.66496366365267"><ele>355.5</ele><time>2026-05-01T15:12:36Z</time></trkpt><trkpt lat="42.253461047560315" lon="8.66476510404575"><ele>355.0</ele><time>2026-05-01T15:12:37Z</time></trkpt><trkpt lat="42.253505494354094" lon="8.664583344743962"><ele>354.5</ele><time>2026-05-01T15:12:38Z</time></trkpt><trkpt lat="42.253525080472166" lon="8.664421337790502"><ele>354.0</ele><time>2026-05-01T15:12:39Z</time></trkpt><trkpt lat="42.25348642208709" lon="8.664299244182567"><ele>354.0</ele><time>2026-05-01T15:12:40Z</time></trkpt><trkpt lat="42.253389647222555" lon="8.664185786431043"><ele>354.0</ele><time>2026-05-01T15:12:41Z</time></trkpt><trkpt lat="42.253275230110596" lon="8.664072823460105"><ele>354.0</ele><time>2026-05-01T15:12:42Z</time></trkpt><trkpt lat="42.25317600023894" lon="8.663903203761523"><ele>354.0</ele><time>2026-05-01T15:12:43Z</time></trkpt><trkpt lat="42.25309657927281" lon="8.663694504859313"><ele>368.0</ele><time>2026-05-01T15:12:44Z</time></trkpt><trkpt lat="42.25302624349566" lon="8.663475338289034"><ele>382.0</ele><time>2026-05-01T15:12:45Z</time></trkpt><trkpt lat="42.25293806786892" lon="8.663268142045098"><ele>396.0</ele><time>2026-05-01T15:12:46Z</time></trkpt><trkpt lat="42.25282614234361" lon="8.663059483761698"><ele>396.0</ele><time>2026-05-01T15:12:47Z</time></trkpt><trkpt lat="42.25274064959341" lon="8.662855232921848"><ele>396.0</ele><time>2026-05-01T15:12:48Z</time></trkpt><trkpt lat="42.25267282802319" lon="8.662613123305142"><ele>396.0</ele><time>2026-05-01T15:12:49Z</time></trkpt><trkpt lat="42.252597345687235" lon="8.662379872400416"><ele>390.6666666666667</ele><time>2026-05-01T15:12:50Z</time></trkpt><trkpt lat="42.25254446807089" lon="8.662130933342805"><ele>385.33333333333337</ele><time>2026-05-01T15:12:51Z</time></trkpt><trkpt lat="42.25251042567222" lon="8.661852299546588"><ele>380.0</ele><time>2026-05-01T15:12:52Z</time></trkpt><trkpt lat="42.252449363223235" lon="8.6615905287765"><ele>379.6666666666667</ele><time>2026-05-01T15:12:53Z</time></trkpt><trkpt lat="42.252393138612945" lon="8.661370167525488"><ele>379.3333333333333</ele><time>2026-05-01T15:12:54Z</time></trkpt><trkpt lat="42.25235023732156" lon="8.661179546790379"><ele>379.0</ele><time>2026-05-01T15:12:55Z</time></trkpt><trkpt lat="42.25233858609543" lon="8.660995652911238"><ele>379.0</ele><time>2026-05-01T15:12:56Z</time></trkpt><trkpt lat="42.25238576511464" lon="8.66081019784804"><ele>379.0</ele><time>2026-05-01T15:12:57Z</time></trkpt><trkpt lat="42.25246917061618" lon="8.66061289660097"><ele>379.0</ele><time>2026-05-01T15:12:58Z</time></trkpt><trkpt lat="42.2525558256505" lon="8.660397492490345"><ele>383.3333333333333</ele><time>2026-05-01T15:12:59Z</time></trkpt><trkpt lat="42.25263645051118" lon="8.660164710261064"><ele>387.66666666666663</ele><time>2026-05-01T15:13:00Z</time></trkpt><trkpt lat="42.252715965243" lon="8.659945073944698"><ele>392.0</ele><time>2026-05-01T15:13:01Z</time></trkpt><trkpt lat="42.252815600028875" lon="8.659773806267985"><ele>392.0</ele><time>2026-05-01T15:13:02Z</time></trkpt><trkpt lat="42.25289876208942" lon="8.65962981178232"><ele>392.0</ele><time>2026-05-01T15:13:03Z</time></trkpt><trkpt lat="42.252927049661444" lon="8.65947390173843"><ele>392.0</ele><time>2026-05-01T15:13:04Z</time></trkpt><trkpt lat="42.25288410128408" lon="8.659319127720714"><ele>392.0</ele><time>2026-05-01T15:13:05Z</time></trkpt><trkpt lat="42.25279871334833" lon="8.659180834160207"><ele>394.25</ele><time>2026-05-01T15:13:06Z</time></trkpt><trkpt lat="42.25270352654847" lon="8.659027732522228"><ele>396.5</ele><time>2026-05-01T15:13:07Z</time></trkpt><trkpt lat="42.252663315157314" lon="8.658828252732476"><ele>398.75</ele><time>2026-05-01T15:13:07.999Z</time></trkpt><trkpt lat="42.252665331016566" lon="8.658631083839092"><ele>401.0</ele><time>2026-05-01T15:13:08.999Z</time></trkpt><trkpt lat="42.25271681450595" lon="8.65848422888054"><ele>401.8333333333333</ele><time>2026-05-01T15:13:09.999Z</time></trkpt><trkpt lat="42.25275545791641" lon="8.658366544729931"><ele>402.66666666666663</ele><time>2026-05-01T15:13:10.999Z</time></trkpt><trkpt lat="42.252789864567355" lon="8.65828495348184"><ele>403.5</ele><time>2026-05-01T15:13:11.999Z</time></trkpt><trkpt lat="42.25281779063243" lon="8.658185839632806"><ele>404.33333333333337</ele><time>2026-05-01T15:13:13.999Z</time></trkpt><trkpt lat="42.252849340208996" lon="8.658056635283788"><ele>405.1666666666667</ele><time>2026-05-01T15:13:15.999Z</time></trkpt><trkpt lat="42.25287333167538" lon="8.657942584622159"><ele>406.0</ele><time>2026-05-01T15:13:17.999Z</time></trkpt><trkpt lat="42.252909106237276" lon="8.65777715046715"><ele>406.33333333333337</ele><time>2026-05-01T15:13:19.999Z</time></trkpt><trkpt lat="42.25292283161079" lon="8.657679272626371"><ele>406.6666666666667</ele><time>2026-05-01T15:13:20.999Z</time></trkpt><trkpt lat="42.25293239135295" lon="8.65758648496882"><ele>407.0</ele><time>2026-05-01T15:13:21.999Z</time></trkpt><trkpt lat="42.252911578069764" lon="8.657495906327394"><ele>407.33333333333337</ele><time>2026-05-01T15:13:22.999Z</time></trkpt><trkpt lat="42.25285970835466" lon="8.657419066382106"><ele>407.6666666666667</ele><time>2026-05-01T15:13:23.999Z</time></trkpt><trkpt lat="42.25277892449419" lon="8.657385623639218"><ele>408.0</ele><time>2026-05-01T15:13:24.999Z</time></trkpt><trkpt lat="42.25268966086015" lon="8.657383510870883"><ele>408.0</ele><time>2026-05-01T15:13:25.999Z</time></trkpt><trkpt lat="42.252594330490965" lon="8.657434681583348"><ele>408.0</ele><time>2026-05-01T15:13:26.999Z</time></trkpt><trkpt lat="42.252514764117024" lon="8.657516730340738"><ele>408.0</ele><time>2026-05-01T15:13:27.999Z</time></trkpt><trkpt lat="42.25246174189744" lon="8.657632323159053"><ele>408.0</ele><time>2026-05-01T15:13:28.999Z</time></trkpt><trkpt lat="42.25242576599692" lon="8.657795802465632"><ele>408.0</ele><time>2026-05-01T15:13:29.999Z</time></trkpt><trkpt lat="42.25238551679183" lon="8.657997742105318"><ele>407.33333333333337</ele><time>2026-05-01T15:13:30.999Z</time></trkpt><trkpt lat="42.25231379531689" lon="8.658212426698018"><ele>406.6666666666667</ele><time>2026-05-01T15:13:31.999Z</time></trkpt><trkpt lat="42.252210814845746" lon="8.6584282625573"><ele>406.0</ele><time>2026-05-01T15:13:32.999Z</time></trkpt><trkpt lat="42.25209938935005" lon="8.658612730228905"><ele>410.33333333333337</ele><time>2026-05-01T15:13:33.999Z</time></trkpt><trkpt lat="42.25195594368402" lon="8.6587515707602"><ele>414.66666666666663</ele><time>2026-05-01T15:13:34.999Z</time></trkpt><trkpt lat="42.25180605756652" lon="8.65883933502903"><ele>419.0</ele><time>2026-05-01T15:13:35.999Z</time></trkpt><trkpt lat="42.25165015805484" lon="8.658899298331061"><ele>419.0</ele><time>2026-05-01T15:13:36.999Z</time></trkpt><trkpt lat="42.25147312573684" lon="8.658949461353894"><ele>419.0</ele><time>2026-05-01T15:13:38.001Z</time></trkpt><trkpt lat="42.25130253898643" lon="8.658987636713903"><ele>419.0</ele><time>2026-05-01T15:13:39.001Z</time></trkpt><trkpt lat="42.25112765088018" lon="8.65901136628008"><ele>420.75</ele><time>2026-05-01T15:13:40.001Z</time></trkpt><trkpt lat="42.2509655011307" lon="8.659025871951293"><ele>422.5</ele><time>2026-05-01T15:13:41.001Z</time></trkpt><trkpt lat="42.25082713359009" lon="8.658994996649204"><ele>424.25</ele><time>2026-05-01T15:13:42.001Z</time></trkpt><trkpt lat="42.250711624964175" lon="8.65892822592971"><ele>426.0</ele><time>2026-05-01T15:13:43.001Z</time></trkpt><trkpt lat="42.25062929542514" lon="8.658828430658192"><ele>423.1666666666667</ele><time>2026-05-01T15:13:44.001Z</time></trkpt><trkpt lat="42.250583294261006" lon="8.658730906098885"><ele>420.33333333333337</ele><time>2026-05-01T15:13:45.001Z</time></trkpt><trkpt lat="42.250550740026064" lon="8.658651496298114"><ele>417.5</ele><time>2026-05-01T15:13:47.001Z</time></trkpt><trkpt lat="42.25047310077197" lon="8.658624734615136"><ele>414.6666666666667</ele><time>2026-05-01T15:13:49.001Z</time></trkpt><trkpt lat="42.2503471923601" lon="8.658672393789583"><ele>411.83333333333337</ele><time>2026-05-01T15:13:51.001Z</time></trkpt><trkpt lat="42.250283501615584" lon="8.6587345994762"><ele>409.0</ele><time>2026-05-01T15:13:52.001Z</time></trkpt><trkpt lat="42.250215820072995" lon="8.658803626885515"><ele>409.00000000000006</ele><time>2026-05-01T15:13:53.001Z</time></trkpt><trkpt lat="42.25015944742162" lon="8.6588721564135"><ele>409.0</ele><time>2026-05-01T15:13:54.001Z</time></trkpt><trkpt lat="42.25011031486244" lon="8.65893594978577"><ele>409.0</ele><time>2026-05-01T15:13:55.001Z</time></trkpt><trkpt lat="42.25005500942605" lon="8.658992633200072"><ele>409.0</ele><time>2026-05-01T15:13:56.001Z</time></trkpt><trkpt lat="42.2499888416921" lon="8.659064761166142"><ele>409.00000000000006</ele><time>2026-05-01T15:13:58.001Z</time></trkpt><trkpt lat="42.249934528885575" lon="8.659140224821812"><ele>409.0</ele><time>2026-05-01T15:14:00Z</time></trkpt><trkpt lat="42.249860905727886" lon="8.659285591166736"><ele>409.00000000000006</ele><time>2026-05-01T15:14:02Z</time></trkpt><trkpt lat="42.24983057873348" lon="8.659374919350073"><ele>409.0</ele><time>2026-05-01T15:14:03Z</time></trkpt><trkpt lat="42.24979924921825" lon="8.659474336687772"><ele>409.0</ele><time>2026-05-01T15:14:04Z</time></trkpt><trkpt lat="42.24976408644521" lon="8.659576002093669"><ele>409.0</ele><time>2026-05-01T15:14:05Z</time></trkpt><trkpt lat="42.249725626067914" lon="8.659667681887763"><ele>409.00000000000006</ele><time>2026-05-01T15:14:06Z</time></trkpt><trkpt lat="42.24969436869308" lon="8.65978513249458"><ele>409.0</ele><time>2026-05-01T15:14:07Z</time></trkpt><trkpt lat="42.24965174724995" lon="8.659898208161987"><ele>410.0</ele><time>2026-05-01T15:14:08Z</time></trkpt><trkpt lat="42.249614529780956" lon="8.660027370310807"><ele>411.0</ele><time>2026-05-01T15:14:09Z</time></trkpt><trkpt lat="42.24956397721996" lon="8.660159161020298"><ele>412.0</ele><time>2026-05-01T15:14:10Z</time></trkpt><trkpt lat="42.24951490912683" lon="8.66029635920908"><ele>413.0</ele><time>2026-05-01T15:14:11Z</time></trkpt><trkpt lat="42.24945056420023" lon="8.66041776376826"><ele>414.0</ele><time>2026-05-01T15:14:12Z</time></trkpt><trkpt lat="42.24937194033722" lon="8.66051458541877"><ele>422.4</ele><time>2026-05-01T15:14:13Z</time></trkpt><trkpt lat="42.24928675435219" lon="8.660569637954643"><ele>430.79999999999995</ele><time>2026-05-01T15:14:14Z</time></trkpt><trkpt lat="42.24918324905995" lon="8.660628385724143"><ele>439.20000000000005</ele><time>2026-05-01T15:14:16Z</time></trkpt><trkpt lat="42.24908703647801" lon="8.660691423739848"><ele>447.6</ele><time>2026-05-01T15:14:18Z</time></trkpt><trkpt lat="42.24896725416069" lon="8.660753668075342"><ele>456.0</ele><time>2026-05-01T15:14:20Z</time></trkpt><trkpt lat="42.2488970676792" lon="8.660761043132702"><ele>454.8333333333333</ele><time>2026-05-01T15:14:21Z</time></trkpt><trkpt lat="42.24882508235082" lon="8.660734984378204"><ele>453.66666666666663</ele><time>2026-05-01T15:14:22Z</time></trkpt><trkpt lat="42.24876231342733" lon="8.66066692488318"><ele>452.5</ele><time>2026-05-01T15:14:23Z</time></trkpt><trkpt lat="42.24872055013767" lon="8.660565927418007"><ele>451.3333333333333</ele><time>2026-05-01T15:14:24Z</time></trkpt><trkpt lat="42.24868537319169" lon="8.66045060656437"><ele>450.16666666666663</ele><time>2026-05-01T15:14:25Z</time></trkpt><trkpt lat="42.24863039839858" lon="8.660312128927895"><ele>449.0</ele><time>2026-05-01T15:14:26Z</time></trkpt><trkpt lat="42.248554130931645" lon="8.660172666874539"><ele>449.0</ele><time>2026-05-01T15:14:27Z</time></trkpt><trkpt lat="42.24843869173301" lon="8.660028312255262"><ele>449.0</ele><time>2026-05-01T15:14:28Z</time></trkpt><trkpt lat="42.24829346811723" lon="8.659884606091607"><ele>449.0</ele><time>2026-05-01T15:14:29Z</time></trkpt><trkpt lat="42.24819570161648" lon="8.659735258779229"><ele>449.0</ele><time>2026-05-01T15:14:30Z</time></trkpt><trkpt lat="42.248136389899926" lon="8.659594065358664"><ele>449.0</ele><time>2026-05-01T15:14:31Z</time></trkpt><trkpt lat="42.248124160809134" lon="8.659445651541875"><ele>449.0</ele><time>2026-05-01T15:14:32Z</time></trkpt><trkpt lat="42.24813723381347" lon="8.659331657034494"><ele>449.0</ele><time>2026-05-01T15:14:33Z</time></trkpt><trkpt lat="42.248149341988935" lon="8.659227762686568"><ele>449.0</ele><time>2026-05-01T15:14:34Z</time></trkpt><trkpt lat="42.248129470784555" lon="8.659109634554362"><ele>453.6</ele><time>2026-05-01T15:14:35Z</time></trkpt><trkpt lat="42.248088236352885" lon="8.658982221163669"><ele>458.2</ele><time>2026-05-01T15:14:36Z</time></trkpt><trkpt lat="42.24803341951817" lon="8.658883342135708"><ele>462.80000000000007</ele><time>2026-05-01T15:14:37Z</time></trkpt><trkpt lat="42.247970685621944" lon="8.658774642302236"><ele>467.40000000000003</ele><time>2026-05-01T15:14:38Z</time></trkpt><trkpt lat="42.24791041681108" lon="8.658671913987138"><ele>472.0</ele><time>2026-05-01T15:14:39Z</time></trkpt><trkpt lat="42.247853474024055" lon="8.658568470718114"><ele>472.00000000000006</ele><time>2026-05-01T15:14:40Z</time></trkpt><trkpt lat="42.24780172319658" lon="8.658463588454083"><ele>472.0</ele><time>2026-05-01T15:14:41Z</time></trkpt><trkpt lat="42.2477629999282" lon="8.658353092500596"><ele>472.0</ele><time>2026-05-01T15:14:42Z</time></trkpt><trkpt lat="42.24774026103268" lon="8.65824763954917"><ele>472.0</ele><time>2026-05-01T15:14:43Z</time></trkpt><trkpt lat="42.2477334915953" lon="8.65814529736152"><ele>472.00000000000006</ele><time>2026-05-01T15:14:44Z</time></trkpt><trkpt lat="42.24774303698183" lon="8.658054005663487"><ele>472.0</ele><time>2026-05-01T15:14:45Z</time></trkpt><trkpt lat="42.24778929703921" lon="8.657986415886732"><ele>472.0</ele><time>2026-05-01T15:14:46Z</time></trkpt><trkpt lat="42.24783503279838" lon="8.657918921365916"><ele>472.00000000000006</ele><time>2026-05-01T15:14:47Z</time></trkpt><trkpt lat="42.24790123736453" lon="8.657855584714108"><ele>472.00000000000006</ele><time>2026-05-01T15:14:48Z</time></trkpt><trkpt lat="42.247951897900144" lon="8.657776708918506"><ele>472.0</ele><time>2026-05-01T15:14:49Z</time></trkpt><trkpt lat="42.24794623997972" lon="8.657639393840316"><ele>472.0</ele><time>2026-05-01T15:14:51Z</time></trkpt><trkpt lat="42.24788478804979" lon="8.657464222016063"><ele>470.6666666666667</ele><time>2026-05-01T15:14:53Z</time></trkpt><trkpt lat="42.247833906324786" lon="8.65737832850511"><ele>469.33333333333337</ele><time>2026-05-01T15:14:54Z</time></trkpt><trkpt lat="42.24781189257694" lon="8.657287896268258"><ele>468.0</ele><time>2026-05-01T15:14:55Z</time></trkpt><trkpt lat="42.24782723982425" lon="8.657189179520454"><ele>466.66666666666663</ele><time>2026-05-01T15:14:56Z</time></trkpt><trkpt lat="42.247848759992735" lon="8.65710740319569"><ele>465.3333333333333</ele><time>2026-05-01T15:14:57Z</time></trkpt><trkpt lat="42.24786474050246" lon="8.65698443110578"><ele>464.0</ele><time>2026-05-01T15:15:00Z</time></trkpt><trkpt lat="42.24783805444782" lon="8.65684851256468"><ele>463.8333333333333</ele><time>2026-05-01T15:15:03Z</time></trkpt><trkpt lat="42.24776342652478" lon="8.656793772668953"><ele>463.66666666666663</ele><time>2026-05-01T15:15:05Z</time></trkpt><trkpt lat="42.24765239862437" lon="8.656804835514567"><ele>463.5</ele><time>2026-05-01T15:15:07.999Z</time></trkpt><trkpt lat="42.247589089185816" lon="8.656817080237571"><ele>463.33333333333337</ele><time>2026-05-01T15:15:08.999Z</time></trkpt><trkpt lat="42.247520030312245" lon="8.656823401355934"><ele>463.1666666666667</ele><time>2026-05-01T15:15:09.999Z</time></trkpt><trkpt lat="42.247453808789025" lon="8.656796714614172"><ele>463.0</ele><time>2026-05-01T15:15:10.999Z</time></trkpt><trkpt lat="42.24738458781533" lon="8.656662242320731"><ele>463.0</ele><time>2026-05-01T15:15:12.999Z</time></trkpt><trkpt lat="42.2473921707776" lon="8.656542133608449"><ele>462.99999999999994</ele><time>2026-05-01T15:15:13.999Z</time></trkpt><trkpt lat="42.24738834440599" lon="8.656429060301075"><ele>462.99999999999994</ele><time>2026-05-01T15:15:14.999Z</time></trkpt><trkpt lat="42.24741397413455" lon="8.656309813405572"><ele>463.0</ele><time>2026-05-01T15:15:15.999Z</time></trkpt><trkpt lat="42.24747201803137" lon="8.65620667127862"><ele>463.0</ele><time>2026-05-01T15:15:16.999Z</time></trkpt><trkpt lat="42.24754789832386" lon="8.65613348533144"><ele>464.00000000000006</ele><time>2026-05-01T15:15:17.999Z</time></trkpt><trkpt lat="42.247612390112444" lon="8.65611445269113"><ele>465.0</ele><time>2026-05-01T15:15:18.999Z</time></trkpt><trkpt lat="42.24771420676516" lon="8.656075943171805"><ele>466.0</ele><time>2026-05-01T15:15:20.999Z</time></trkpt><trkpt lat="42.24780039245179" lon="8.65595280817178"><ele>467.0</ele><time>2026-05-01T15:15:22.999Z</time></trkpt><trkpt lat="42.247819345305835" lon="8.655864985643785"><ele>468.00000000000006</ele><time>2026-05-01T15:15:23.999Z</time></trkpt><trkpt lat="42.24782186716025" lon="8.655767191782418"><ele>469.0</ele><time>2026-05-01T15:15:24.999Z</time></trkpt><trkpt lat="42.24782049332328" lon="8.655669206896059"><ele>469.00000000000006</ele><time>2026-05-01T15:15:25.999Z</time></trkpt><trkpt lat="42.247821654761026" lon="8.65558093691997"><ele>469.0</ele><time>2026-05-01T15:15:26.999Z</time></trkpt><trkpt lat="42.24781231702388" lon="8.655485241781893"><ele>469.0</ele><time>2026-05-01T15:15:27.999Z</time></trkpt><trkpt lat="42.247786448501" lon="8.655380557944008"><ele>469.0</ele><time>2026-05-01T15:15:28.999Z</time></trkpt><trkpt lat="42.24775698410274" lon="8.655272133680606"><ele>469.00000000000006</ele><time>2026-05-01T15:15:29.999Z</time></trkpt><trkpt lat="42.2477213206171" lon="8.655171212231657"><ele>469.0</ele><time>2026-05-01T15:15:30.999Z</time></trkpt><trkpt lat="42.24768552109251" lon="8.655073299689851"><ele>467.79999999999995</ele><time>2026-05-01T15:15:31.999Z</time></trkpt><trkpt lat="42.24765047755977" lon="8.654988596552927"><ele>466.59999999999997</ele><time>2026-05-01T15:15:32.999Z</time></trkpt><trkpt lat="42.24761586310168" lon="8.654913696908036"><ele>465.4</ele><time>2026-05-01T15:15:33.999Z</time></trkpt><trkpt lat="42.24755911142101" lon="8.654782020073535"><ele>464.2</ele><time>2026-05-01T15:15:35.999Z</time></trkpt><trkpt lat="42.24749893988948" lon="8.654669350412101"><ele>463.0</ele><time>2026-05-01T15:15:37.999Z</time></trkpt><trkpt lat="42.24740520539856" lon="8.65458718824799"><ele>468.5</ele><time>2026-05-01T15:15:39.999Z</time></trkpt><trkpt lat="42.24727061764992" lon="8.654562345617547"><ele>474.0</ele><time>2026-05-01T15:15:41.999Z</time></trkpt><trkpt lat="42.24716481228798" lon="8.654615308076034"><ele>479.5</ele><time>2026-05-01T15:15:42.999Z</time></trkpt><trkpt lat="42.24704612273737" lon="8.65467557803703"><ele>485.0</ele><time>2026-05-01T15:15:44.001Z</time></trkpt><trkpt lat="42.24693623981208" lon="8.65469390239283"><ele>484.99999999999994</ele><time>2026-05-01T15:15:45.001Z</time></trkpt><trkpt lat="42.24684133547771" lon="8.654690856991401"><ele>485.0</ele><time>2026-05-01T15:15:46.001Z</time></trkpt><trkpt lat="42.246768844684176" lon="8.654641496366299"><ele>485.0</ele><time>2026-05-01T15:15:47.001Z</time></trkpt><trkpt lat="42.24671354438925" lon="8.654548759463179"><ele>485.0</ele><time>2026-05-01T15:15:48.001Z</time></trkpt><trkpt lat="42.24667718074351" lon="8.654454436684421"><ele>484.99999999999994</ele><time>2026-05-01T15:15:49.001Z</time></trkpt><trkpt lat="42.24664285307389" lon="8.654368208135056"><ele>485.0</ele><time>2026-05-01T15:15:50.001Z</time></trkpt><trkpt lat="42.24658854274507" lon="8.65431887079617"><ele>479.3333333333333</ele><time>2026-05-01T15:15:51.001Z</time></trkpt><trkpt lat="42.24647644990747" lon="8.654328948322247"><ele>473.66666666666663</ele><time>2026-05-01T15:15:53.001Z</time></trkpt><trkpt lat="42.24641056683182" lon="8.654357449297754"><ele>468.0</ele><time>2026-05-01T15:15:54.001Z</time></trkpt><trkpt lat="42.246340902365795" lon="8.654373274569004"><ele>462.33333333333337</ele><time>2026-05-01T15:15:55.001Z</time></trkpt><trkpt lat="42.246262897267435" lon="8.654381743700204"><ele>456.6666666666667</ele><time>2026-05-01T15:15:56.001Z</time></trkpt><trkpt lat="42.246176084736554" lon="8.654352782677101"><ele>451.0</ele><time>2026-05-01T15:15:57.001Z</time></trkpt><trkpt lat="42.24609501112806" lon="8.654317722523682"><ele>451.00000000000006</ele><time>2026-05-01T15:15:58.001Z</time></trkpt><trkpt lat="42.24603194608045" lon="8.654295082424973"><ele>451.0</ele><time>2026-05-01T15:15:59.001Z</time></trkpt><trkpt lat="42.24594645216345" lon="8.6542555084955"><ele>451.0</ele><time>2026-05-01T15:16:02Z</time></trkpt><trkpt lat="42.245873269242125" lon="8.654233600613685"><ele>451.0</ele><time>2026-05-01T15:16:03Z</time></trkpt><trkpt lat="42.24580260263865" lon="8.654212465187042"><ele>451.00000000000006</ele><time>2026-05-01T15:16:04Z</time></trkpt><trkpt lat="42.245733592097324" lon="8.654197883786182"><ele>451.0</ele><time>2026-05-01T15:16:06Z</time></trkpt><trkpt lat="42.24565933311076" lon="8.654169973862503"><ele>454.83333333333337</ele><time>2026-05-01T15:16:08Z</time></trkpt><trkpt lat="42.245544101032245" lon="8.654119744172268"><ele>458.6666666666667</ele><time>2026-05-01T15:16:12Z</time></trkpt><trkpt lat="42.24549592923745" lon="8.654063126775325"><ele>462.5</ele><time>2026-05-01T15:16:13Z</time></trkpt><trkpt lat="42.24545343814388" lon="8.65399562314086"><ele>466.33333333333337</ele><time>2026-05-01T15:16:14Z</time></trkpt><trkpt lat="42.24538379062501" lon="8.653862842682678"><ele>470.1666666666667</ele><time>2026-05-01T15:16:16Z</time></trkpt><trkpt lat="42.24531987008394" lon="8.653825558612366"><ele>474.0</ele><time>2026-05-01T15:16:17Z</time></trkpt><trkpt lat="42.24523997052583" lon="8.65380837808624"><ele>474.0</ele><time>2026-05-01T15:16:18Z</time></trkpt><trkpt lat="42.24516042008822" lon="8.653805915474003"><ele>474.0</ele><time>2026-05-01T15:16:19Z</time></trkpt><trkpt lat="42.24508648908835" lon="8.653800042690326"><ele>474.0</ele><time>2026-05-01T15:16:20Z</time></trkpt><trkpt lat="42.245012921211895" lon="8.653790408412831"><ele>474.0</ele><time>2026-05-01T15:16:21Z</time></trkpt><trkpt lat="42.24490982242115" lon="8.653776526845217"><ele>474.0</ele><time>2026-05-01T15:16:22Z</time></trkpt><trkpt lat="42.24479218810686" lon="8.653769163158048"><ele>474.0</ele><time>2026-05-01T15:16:23Z</time></trkpt><trkpt lat="42.24467006767176" lon="8.65374912214472"><ele>473.25</ele><time>2026-05-01T15:16:24Z</time></trkpt><trkpt lat="42.24455128798816" lon="8.653726047367796"><ele>472.5</ele><time>2026-05-01T15:16:25Z</time></trkpt><trkpt lat="42.24442301968141" lon="8.653708834019746"><ele>471.75</ele><time>2026-05-01T15:16:26Z</time></trkpt><trkpt lat="42.24427490643178" lon="8.65369893484954"><ele>471.0</ele><time>2026-05-01T15:16:27Z</time></trkpt><trkpt lat="42.24415660459875" lon="8.65369266251118"><ele>471.0</ele><time>2026-05-01T15:16:28Z</time></trkpt><trkpt lat="42.244056649580195" lon="8.65369084192"><ele>471.0</ele><time>2026-05-01T15:16:29Z</time></trkpt><trkpt lat="42.24393686500319" lon="8.65372149720372"><ele>471.0</ele><time>2026-05-01T15:16:30Z</time></trkpt><trkpt lat="42.24378841283141" lon="8.65381712282866"><ele>471.0</ele><time>2026-05-01T15:16:31Z</time></trkpt><trkpt lat="42.24363449905129" lon="8.6539299328588"><ele>468.0</ele><time>2026-05-01T15:16:32Z</time></trkpt><trkpt lat="42.2434640377203" lon="8.654055805201796"><ele>465.0</ele><time>2026-05-01T15:16:33Z</time></trkpt><trkpt lat="42.243306140204496" lon="8.654202932513353"><ele>462.0</ele><time>2026-05-01T15:16:34Z</time></trkpt><trkpt lat="42.24317184482067" lon="8.654340415957142"><ele>464.40000000000003</ele><time>2026-05-01T15:16:35Z</time></trkpt><trkpt lat="42.243058721650385" lon="8.654433081075315"><ele>466.80000000000007</ele><time>2026-05-01T15:16:36Z</time></trkpt><trkpt lat="42.24294772653278" lon="8.654463509212642"><ele>469.2</ele><time>2026-05-01T15:16:37Z</time></trkpt><trkpt lat="42.242874492625724" lon="8.654420595624757"><ele>471.6</ele><time>2026-05-01T15:16:38Z</time></trkpt><trkpt lat="42.242810835233186" lon="8.654309982119756"><ele>474.0</ele><time>2026-05-01T15:16:39Z</time></trkpt><trkpt lat="42.24276554781256" lon="8.654139245873619"><ele>474.0</ele><time>2026-05-01T15:16:40Z</time></trkpt><trkpt lat="42.24274800513354" lon="8.653933967704821"><ele>474.0</ele><time>2026-05-01T15:16:41Z</time></trkpt><trkpt lat="42.242745378787326" lon="8.653683287849779"><ele>474.0</ele><time>2026-05-01T15:16:42Z</time></trkpt><trkpt lat="42.242733165879606" lon="8.65340295798487"><ele>471.5</ele><time>2026-05-01T15:16:43Z</time></trkpt><trkpt lat="42.24271684151533" lon="8.653159637265423"><ele>469.0</ele><time>2026-05-01T15:16:44Z</time></trkpt><trkpt lat="42.242690435541505" lon="8.652982204330586"><ele>466.5</ele><time>2026-05-01T15:16:45Z</time></trkpt><trkpt lat="42.242647509813104" lon="8.652877949941802"><ele>464.0</ele><time>2026-05-01T15:16:46Z</time></trkpt><trkpt lat="42.24257180654549" lon="8.65284743509696"><ele>464.0</ele><time>2026-05-01T15:16:47Z</time></trkpt><trkpt lat="42.242475722415904" lon="8.652899011282395"><ele>464.0</ele><time>2026-05-01T15:16:48Z</time></trkpt><trkpt lat="42.24237982038047" lon="8.653020076037881"><ele>464.0</ele><time>2026-05-01T15:16:49Z</time></trkpt><trkpt lat="42.24230211004659" lon="8.653195263123742"><ele>464.0</ele><time>2026-05-01T15:16:50Z</time></trkpt><trkpt lat="42.242212948162695" lon="8.653384442957746"><ele>467.5</ele><time>2026-05-01T15:16:51Z</time></trkpt><trkpt lat="42.242109687483314" lon="8.653516723693215"><ele>471.0</ele><time>2026-05-01T15:16:52Z</time></trkpt><trkpt lat="42.24201090945677" lon="8.653550766634682"><ele>474.5</ele><time>2026-05-01T15:16:53Z</time></trkpt><trkpt lat="42.241924561657044" lon="8.653498995337895"><ele>478.0</ele><time>2026-05-01T15:16:54Z</time></trkpt><trkpt lat="42.24184676577264" lon="8.653389274800176"><ele>478.0</ele><time>2026-05-01T15:16:54.999Z</time></trkpt><trkpt lat="42.24176607399242" lon="8.653211358514621"><ele>478.0</ele><time>2026-05-01T15:16:55.999Z</time></trkpt><trkpt lat="42.241658612441206" lon="8.65302145233704"><ele>478.0</ele><time>2026-05-01T15:16:56.999Z</time></trkpt><trkpt lat="42.24152122510555" lon="8.652835742783083"><ele>476.6666666666667</ele><time>2026-05-01T15:16:57.999Z</time></trkpt><trkpt lat="42.241367606473624" lon="8.652668049175281"><ele>475.33333333333337</ele><time>2026-05-01T15:16:58.999Z</time></trkpt><trkpt lat="42.24118178293174" lon="8.652522682645543"><ele>474.0</ele><time>2026-05-01T15:16:59.999Z</time></trkpt><trkpt lat="42.24100870919226" lon="8.65242104717753"><ele>474.0</ele><time>2026-05-01T15:17:00.999Z</time></trkpt><trkpt lat="42.24086236095923" lon="8.652345123962458"><ele>474.0</ele><time>2026-05-01T15:17:01.999Z</time></trkpt><trkpt lat="42.2407088488457" lon="8.65231668808646"><ele>474.0</ele><time>2026-05-01T15:17:02.999Z</time></trkpt><trkpt lat="42.24051865222507" lon="8.652345399883561"><ele>472.66666666666663</ele><time>2026-05-01T15:17:03.999Z</time></trkpt><trkpt lat="42.24031170694569" lon="8.65238935673372"><ele>471.3333333333333</ele><time>2026-05-01T15:17:04.999Z</time></trkpt><trkpt lat="42.240090288870284" lon="8.652450945403691"><ele>470.0</ele><time>2026-05-01T15:17:05.999Z</time></trkpt><trkpt lat="42.2398605743923" lon="8.652532315946166"><ele>472.3333333333333</ele><time>2026-05-01T15:17:06.999Z</time></trkpt><trkpt lat="42.23963658263525" lon="8.652598457522977"><ele>474.66666666666663</ele><time>2026-05-01T15:17:07.999Z</time></trkpt><trkpt lat="42.23944322939555" lon="8.65264604006803"><ele>477.0</ele><time>2026-05-01T15:17:08.999Z</time></trkpt><trkpt lat="42.23927854110051" lon="8.652661671150144"><ele>477.0</ele><time>2026-05-01T15:17:09.999Z</time></trkpt><trkpt lat="42.23914308776084" lon="8.652630527895594"><ele>477.00000000000006</ele><time>2026-05-01T15:17:10.999Z</time></trkpt><trkpt lat="42.23905331752841" lon="8.652560599630696"><ele>477.00000000000006</ele><time>2026-05-01T15:17:11.999Z</time></trkpt><trkpt lat="42.23901687561526" lon="8.652456351612102"><ele>477.0</ele><time>2026-05-01T15:17:12.999Z</time></trkpt><trkpt lat="42.23902235614981" lon="8.65231461114548"><ele>477.0</ele><time>2026-05-01T15:17:13.999Z</time></trkpt><trkpt lat="42.23908349445195" lon="8.652167010085565"><ele>477.0</ele><time>2026-05-01T15:17:14.999Z</time></trkpt><trkpt lat="42.2392062168235" lon="8.652052849368184"><ele>477.0</ele><time>2026-05-01T15:17:15.999Z</time></trkpt><trkpt lat="42.23934615657734" lon="8.651959559368482"><ele>477.0</ele><time>2026-05-01T15:17:16.999Z</time></trkpt><trkpt lat="42.239423500300845" lon="8.651815787592591"><ele>477.0</ele><time>2026-05-01T15:17:17.999Z</time></trkpt><trkpt lat="42.239440246601" lon="8.651601516159216"><ele>478.0</ele><time>2026-05-01T15:17:18.999Z</time></trkpt><trkpt lat="42.23943466178934" lon="8.651358565540727"><ele>479.0</ele><time>2026-05-01T15:17:19.999Z</time></trkpt><trkpt lat="42.23946992967193" lon="8.65113042851878"><ele>480.0</ele><time>2026-05-01T15:17:20.999Z</time></trkpt><trkpt lat="42.23958550260864" lon="8.650929995318796"><ele>482.66666666666663</ele><time>2026-05-01T15:17:21.999Z</time></trkpt><trkpt lat="42.239748378530216" lon="8.650757868978872"><ele>485.3333333333333</ele><time>2026-05-01T15:17:22.999Z</time></trkpt><trkpt lat="42.23990918977318" lon="8.650643542307613"><ele>488.0</ele><time>2026-05-01T15:17:23.999Z</time></trkpt><trkpt lat="42.24002246655497" lon="8.650503049587115"><ele>485.3333333333333</ele><time>2026-05-01T15:17:24.999Z</time></trkpt><trkpt lat="42.24009306152451" lon="8.65028071900634"><ele>482.66666666666663</ele><time>2026-05-01T15:17:25.999Z</time></trkpt><trkpt lat="42.24016505693653" lon="8.65001507628808"><ele>480.0</ele><time>2026-05-01T15:17:26.999Z</time></trkpt><trkpt lat="42.24024957875966" lon="8.649745810082685"><ele>480.0</ele><time>2026-05-01T15:17:27.999Z</time></trkpt><trkpt lat="42.24031750434616" lon="8.649507781814933"><ele>480.0</ele><time>2026-05-01T15:17:28.999Z</time></trkpt><trkpt lat="42.24034346969508" lon="8.649256887109072"><ele>480.0</ele><time>2026-05-01T15:17:29.999Z</time></trkpt><trkpt lat="42.24034255294495" lon="8.648978837982892"><ele>481.0</ele><time>2026-05-01T15:17:30.999Z</time></trkpt><trkpt lat="42.240302617922644" lon="8.648690474348372"><ele>482.0</ele><time>2026-05-01T15:17:31.999Z</time></trkpt><trkpt lat="42.24023759973453" lon="8.648395664318587"><ele>483.0</ele><time>2026-05-01T15:17:32.999Z</time></trkpt><trkpt lat="42.24020825171102" lon="8.648157451076116"><ele>483.0</ele><time>2026-05-01T15:17:33.999Z</time></trkpt><trkpt lat="42.240235022091895" lon="8.647974297686183"><ele>483.0</ele><time>2026-05-01T15:17:34.999Z</time></trkpt><trkpt lat="42.24032368242832" lon="8.64778374181426"><ele>483.0</ele><time>2026-05-01T15:17:35.999Z</time></trkpt><trkpt lat="42.240441993620735" lon="8.64754072162739"><ele>486.66666666666663</ele><time>2026-05-01T15:17:36.999Z</time></trkpt><trkpt lat="42.24050666661968" lon="8.647253498574814"><ele>490.3333333333333</ele><time>2026-05-01T15:17:37.999Z</time></trkpt><trkpt lat="42.240489367825134" lon="8.646948004152312"><ele>494.0</ele><time>2026-05-01T15:17:38.999Z</time></trkpt><trkpt lat="42.240455253036835" lon="8.646610751393247"><ele>494.0</ele><time>2026-05-01T15:17:39.999Z</time></trkpt><trkpt lat="42.24046270109342" lon="8.646254460091349"><ele>494.0</ele><time>2026-05-01T15:17:40.999Z</time></trkpt><trkpt lat="42.240487670011376" lon="8.645879323090233"><ele>491.66666666666663</ele><time>2026-05-01T15:17:41.999Z</time></trkpt><trkpt lat="42.24049050603062" lon="8.64555521269403"><ele>489.33333333333337</ele><time>2026-05-01T15:17:42.999Z</time></trkpt><trkpt lat="42.24051736431214" lon="8.645333566970079"><ele>487.0</ele><time>2026-05-01T15:17:43.999Z</time></trkpt><trkpt lat="42.2405185252596" lon="8.645192831293661"><ele>487.0</ele><time>2026-05-01T15:17:44.999Z</time></trkpt><trkpt lat="42.24045509270826" lon="8.645060856711781"><ele>487.0</ele><time>2026-05-01T15:17:45.999Z</time></trkpt><trkpt lat="42.24039979816704" lon="8.64491729436831"><ele>487.0</ele><time>2026-05-01T15:17:46.999Z</time></trkpt><trkpt lat="42.240428931463946" lon="8.644716078431875"><ele>487.0</ele><time>2026-05-01T15:17:47.999Z</time></trkpt><trkpt lat="42.240463824478155" lon="8.644464369149098"><ele>484.33333333333337</ele><time>2026-05-01T15:17:48.999Z</time></trkpt><trkpt lat="42.24048919053127" lon="8.644184010058195"><ele>481.66666666666663</ele><time>2026-05-01T15:17:50Z</time></trkpt><trkpt lat="42.24051844630041" lon="8.643956657912588"><ele>479.0</ele><time>2026-05-01T15:17:51Z</time></trkpt><trkpt lat="42.24052465153691" lon="8.643747509534903"><ele>477.3333333333333</ele><time>2026-05-01T15:17:52Z</time></trkpt><trkpt lat="42.24044203273906" lon="8.643509609307621"><ele>475.66666666666663</ele><time>2026-05-01T15:17:53Z</time></trkpt><trkpt lat="42.24038711222259" lon="8.643256290997787"><ele>474.0</ele><time>2026-05-01T15:17:54Z</time></trkpt><trkpt lat="42.24030347917693" lon="8.6430641519382"><ele>474.0</ele><time>2026-05-01T15:17:55Z</time></trkpt><trkpt lat="42.240190324536165" lon="8.64291408311461"><ele>474.0</ele><time>2026-05-01T15:17:56Z</time></trkpt><trkpt lat="42.240085669941664" lon="8.642773329510089"><ele>474.0</ele><time>2026-05-01T15:17:57Z</time></trkpt><trkpt lat="42.24003372939412" lon="8.642579379260217"><ele>470.33333333333337</ele><time>2026-05-01T15:17:58Z</time></trkpt><trkpt lat="42.24003170305933" lon="8.642332188214416"><ele>466.6666666666667</ele><time>2026-05-01T15:17:59Z</time></trkpt><trkpt lat="42.24001895719002" lon="8.642087290842003"><ele>463.0</ele><time>2026-05-01T15:18:00Z</time></trkpt><trkpt lat="42.23996562209797" lon="8.641900386547148"><ele>464.25</ele><time>2026-05-01T15:18:01Z</time></trkpt><trkpt lat="42.23987670172339" lon="8.641742991227748"><ele>465.5</ele><time>2026-05-01T15:18:02Z</time></trkpt><trkpt lat="42.23978030144329" lon="8.641609419595161"><ele>466.75</ele><time>2026-05-01T15:18:03Z</time></trkpt><trkpt lat="42.23969305212712" lon="8.641490951328676"><ele>468.0</ele><time>2026-05-01T15:18:04Z</time></trkpt><trkpt lat="42.23961690529846" lon="8.64137653537506"><ele>468.0</ele><time>2026-05-01T15:18:05Z</time></trkpt><trkpt lat="42.2395591544529" lon="8.641285292664985"><ele>468.00000000000006</ele><time>2026-05-01T15:18:06Z</time></trkpt><trkpt lat="42.23951681455349" lon="8.64122028059397"><ele>468.0</ele><time>2026-05-01T15:18:07Z</time></trkpt><trkpt lat="42.239464139100505" lon="8.641168875395698"><ele>468.0</ele><time>2026-05-01T15:18:08Z</time></trkpt><trkpt lat="42.23940051140241" lon="8.641116685302764"><ele>468.00000000000006</ele><time>2026-05-01T15:18:09Z</time></trkpt><trkpt lat="42.239339723373504" lon="8.641061747068452"><ele>468.0</ele><time>2026-05-01T15:18:10Z</time></trkpt><trkpt lat="42.23927039059348" lon="8.640999068098669"><ele>468.0</ele><time>2026-05-01T15:18:11Z</time></trkpt><trkpt lat="42.23918978624891" lon="8.640931396079482"><ele>468.1666666666667</ele><time>2026-05-01T15:18:12Z</time></trkpt><trkpt lat="42.23910941397331" lon="8.640862170785924"><ele>468.33333333333337</ele><time>2026-05-01T15:18:13Z</time></trkpt><trkpt lat="42.239027782623744" lon="8.640808969666542"><ele>468.5</ele><time>2026-05-01T15:18:14Z</time></trkpt><trkpt lat="42.23896392850764" lon="8.64073794616004"><ele>468.6666666666667</ele><time>2026-05-01T15:18:15Z</time></trkpt><trkpt lat="42.23892406540573" lon="8.64064596230699"><ele>468.83333333333337</ele><time>2026-05-01T15:18:16Z</time></trkpt><trkpt lat="42.23890122814639" lon="8.640550495645954"><ele>469.0</ele><time>2026-05-01T15:18:17Z</time></trkpt><trkpt lat="42.23888662424759" lon="8.640450800421906"><ele>469.00000000000006</ele><time>2026-05-01T15:18:18Z</time></trkpt><trkpt lat="42.238876250116" lon="8.640340740156923"><ele>469.0</ele><time>2026-05-01T15:18:19Z</time></trkpt><trkpt lat="42.23887239750407" lon="8.640227975779128"><ele>469.0</ele><time>2026-05-01T15:18:20Z</time></trkpt><trkpt lat="42.23885093852508" lon="8.640131565028547"><ele>469.0</ele><time>2026-05-01T15:18:21Z</time></trkpt><trkpt lat="42.23881203105214" lon="8.64002899740607"><ele>469.00000000000006</ele><time>2026-05-01T15:18:22Z</time></trkpt><trkpt lat="42.23874739823115" lon="8.63993824279457"><ele>469.0</ele><time>2026-05-01T15:18:23Z</time></trkpt><trkpt lat="42.238686361198475" lon="8.639868333250888"><ele>467.1666666666667</ele><time>2026-05-01T15:18:24Z</time></trkpt><trkpt lat="42.23862088143358" lon="8.639804594456459"><ele>465.33333333333337</ele><time>2026-05-01T15:18:25Z</time></trkpt><trkpt lat="42.238551288527546" lon="8.639742424399783"><ele>463.5</ele><time>2026-05-01T15:18:26Z</time></trkpt><trkpt lat="42.2384918627948" lon="8.639688251278999"><ele>461.66666666666663</ele><time>2026-05-01T15:18:27Z</time></trkpt><trkpt lat="42.23839755947571" lon="8.639578155555077"><ele>459.8333333333333</ele><time>2026-05-01T15:18:29Z</time></trkpt><trkpt lat="42.23832842377445" lon="8.639518065455874"><ele>458.0</ele><time>2026-05-01T15:18:30Z</time></trkpt><trkpt lat="42.23826680057611" lon="8.639449542801922"><ele>456.99999999999994</ele><time>2026-05-01T15:18:31Z</time></trkpt><trkpt lat="42.23820095370453" lon="8.639399425385694"><ele>456.0</ele><time>2026-05-01T15:18:32Z</time></trkpt><trkpt lat="42.23813087628663" lon="8.639373507690843"><ele>455.0</ele><time>2026-05-01T15:18:32.999Z</time></trkpt><trkpt lat="42.238061863034524" lon="8.639358414508067"><ele>454.0</ele><time>2026-05-01T15:18:33.999Z</time></trkpt><trkpt lat="42.2379874634188" lon="8.639344089803503"><ele>452.99999999999994</ele><time>2026-05-01T15:18:34.999Z</time></trkpt><trkpt lat="42.237901064376565" lon="8.639331900514915"><ele>452.0</ele><time>2026-05-01T15:18:35.999Z</time></trkpt><trkpt lat="42.23781705244185" lon="8.6392971250919"><ele>451.99999999999994</ele><time>2026-05-01T15:18:36.999Z</time></trkpt><trkpt lat="42.23774609718693" lon="8.639230668149143"><ele>452.0</ele><time>2026-05-01T15:18:37.999Z</time></trkpt><trkpt lat="42.237700606990295" lon="8.639140313128904"><ele>452.0</ele><time>2026-05-01T15:18:38.999Z</time></trkpt><trkpt lat="42.23766918675823" lon="8.639041445028212"><ele>452.0</ele><time>2026-05-01T15:18:39.999Z</time></trkpt><trkpt lat="42.2376488003929" lon="8.63894106637788"><ele>451.99999999999994</ele><time>2026-05-01T15:18:40.999Z</time></trkpt><trkpt lat="42.23766117512313" lon="8.638822209853497"><ele>452.0</ele><time>2026-05-01T15:18:41.999Z</time></trkpt><trkpt lat="42.23770647626858" lon="8.638711143251331"><ele>451.8333333333333</ele><time>2026-05-01T15:18:42.999Z</time></trkpt><trkpt lat="42.237757604548136" lon="8.638612552108992"><ele>451.66666666666663</ele><time>2026-05-01T15:18:43.999Z</time></trkpt><trkpt lat="42.23779909012347" lon="8.638500087658528"><ele>451.5</ele><time>2026-05-01T15:18:44.999Z</time></trkpt><trkpt lat="42.237828304941466" lon="8.638392339247456"><ele>451.33333333333337</ele><time>2026-05-01T15:18:45.999Z</time></trkpt><trkpt lat="42.237859076421785" lon="8.63829994479228"><ele>451.1666666666667</ele><time>2026-05-01T15:18:46.999Z</time></trkpt><trkpt lat="42.23788784034304" lon="8.638212184102233"><ele>451.0</ele><time>2026-05-01T15:18:47.999Z</time></trkpt><trkpt lat="42.23793163044726" lon="8.638076843190454"><ele>451.0</ele><time>2026-05-01T15:18:49.999Z</time></trkpt><trkpt lat="42.23797671140164" lon="8.637918552368859"><ele>451.0</ele><time>2026-05-01T15:18:51.999Z</time></trkpt><trkpt lat="42.23800345965986" lon="8.63781434501795"><ele>451.0</ele><time>2026-05-01T15:18:52.999Z</time></trkpt><trkpt lat="42.238039381193865" lon="8.637708480182845"><ele>451.0</ele><time>2026-05-01T15:18:53.999Z</time></trkpt><trkpt lat="42.238071839843705" lon="8.637606599420788"><ele>451.0</ele><time>2026-05-01T15:18:54.999Z</time></trkpt><trkpt lat="42.23809973938922" lon="8.637503105398107"><ele>450.6666666666667</ele><time>2026-05-01T15:18:55.999Z</time></trkpt><trkpt lat="42.23812727580566" lon="8.637400273979843"><ele>450.33333333333337</ele><time>2026-05-01T15:18:56.999Z</time></trkpt><trkpt lat="42.238154256552626" lon="8.637299815851362"><ele>450.0</ele><time>2026-05-01T15:18:57.999Z</time></trkpt><trkpt lat="42.23818347825285" lon="8.637205871860083"><ele>449.66666666666663</ele><time>2026-05-01T15:18:58.999Z</time></trkpt><trkpt lat="42.238206721592455" lon="8.637111850057192"><ele>449.3333333333333</ele><time>2026-05-01T15:18:59.999Z</time></trkpt><trkpt lat="42.23823533665032" lon="8.637015612391934"><ele>449.0</ele><time>2026-05-01T15:19:00.999Z</time></trkpt><trkpt lat="42.23826340626532" lon="8.63692839985538"><ele>448.49999999999994</ele><time>2026-05-01T15:19:01.999Z</time></trkpt><trkpt lat="42.23828894758165" lon="8.636847837229332"><ele>448.0</ele><time>2026-05-01T15:19:02.999Z</time></trkpt><trkpt lat="42.23830874484872" lon="8.636761657626769"><ele>447.5</ele><time>2026-05-01T15:19:03.999Z</time></trkpt><trkpt lat="42.23829006696771" lon="8.636624833511842"><ele>447.0</ele><time>2026-05-01T15:19:05.999Z</time></trkpt><trkpt lat="42.23820590601931" lon="8.636520492340791"><ele>446.49999999999994</ele><time>2026-05-01T15:19:07.999Z</time></trkpt><trkpt lat="42.23811059597476" lon="8.636516354845323"><ele>446.0</ele><time>2026-05-01T15:19:09.999Z</time></trkpt><trkpt lat="42.23804591844776" lon="8.6365180143451"><ele>445.99999999999994</ele><time>2026-05-01T15:19:10.999Z</time></trkpt><trkpt lat="42.23796986592209" lon="8.636512579262758"><ele>446.0</ele><time>2026-05-01T15:19:11.999Z</time></trkpt><trkpt lat="42.23788978920703" lon="8.636505920411578"><ele>446.0</ele><time>2026-05-01T15:19:12.999Z</time></trkpt><trkpt lat="42.23780851150093" lon="8.636498353080368"><ele>446.0</ele><time>2026-05-01T15:19:13.999Z</time></trkpt><trkpt lat="42.23772941213712" lon="8.636489771545738"><ele>445.99999999999994</ele><time>2026-05-01T15:19:14.999Z</time></trkpt><trkpt lat="42.237656754300296" lon="8.636479556828034"><ele>446.0</ele><time>2026-05-01T15:19:15.999Z</time></trkpt><trkpt lat="42.2375855700157" lon="8.636469087364643"><ele>445.99999999999994</ele><time>2026-05-01T15:19:16.999Z</time></trkpt><trkpt lat="42.2375150465722" lon="8.636450949543608"><ele>446.0</ele><time>2026-05-01T15:19:17.999Z</time></trkpt><trkpt lat="42.23744127572193" lon="8.63642082074138"><ele>446.0</ele><time>2026-05-01T15:19:18.999Z</time></trkpt><trkpt lat="42.23736214556278" lon="8.636367964890878"><ele>446.0</ele><time>2026-05-01T15:19:19.999Z</time></trkpt><trkpt lat="42.237293154852516" lon="8.63628203404304"><ele>445.99999999999994</ele><time>2026-05-01T15:19:20.999Z</time></trkpt><trkpt lat="42.23724295941378" lon="8.636163753246233"><ele>446.0</ele><time>2026-05-01T15:19:21.999Z</time></trkpt><trkpt lat="42.23721752061174" lon="8.63603307760507"><ele>449.0</ele><time>2026-05-01T15:19:22.999Z</time></trkpt><trkpt lat="42.23721090184568" lon="8.635888344094585"><ele>452.0</ele><time>2026-05-01T15:19:23.999Z</time></trkpt><trkpt lat="42.23722158245375" lon="8.635749946248566"><ele>455.0</ele><time>2026-05-01T15:19:24.999Z</time></trkpt><trkpt lat="42.23721632177908" lon="8.635611926792695"><ele>458.0</ele><time>2026-05-01T15:19:25.999Z</time></trkpt><trkpt lat="42.23720743720874" lon="8.635470274597987"><ele>461.0</ele><time>2026-05-01T15:19:26.999Z</time></trkpt><trkpt lat="42.23720442609315" lon="8.63532656723581"><ele>461.4</ele><time>2026-05-01T15:19:27.999Z</time></trkpt><trkpt lat="42.23721234935365" lon="8.635185318286533"><ele>461.8</ele><time>2026-05-01T15:19:28.999Z</time></trkpt><trkpt lat="42.237240548511615" lon="8.635052561484509"><ele>462.19999999999993</ele><time>2026-05-01T15:19:29.999Z</time></trkpt><trkpt lat="42.237296297213526" lon="8.634942243039738"><ele>462.59999999999997</ele><time>2026-05-01T15:19:30.999Z</time></trkpt><trkpt lat="42.2373686019566" lon="8.634851689575571"><ele>463.0</ele><time>2026-05-01T15:19:31.999Z</time></trkpt><trkpt lat="42.23744447354596" lon="8.634800785834864"><ele>463.50000000000006</ele><time>2026-05-01T15:19:32.999Z</time></trkpt><trkpt lat="42.2375193956714" lon="8.634767604480002"><ele>464.0</ele><time>2026-05-01T15:19:33.999Z</time></trkpt><trkpt lat="42.23759182638526" lon="8.634722587729389"><ele>464.5</ele><time>2026-05-01T15:19:34.999Z</time></trkpt><trkpt lat="42.23766042070249" lon="8.634672806038862"><ele>465.0</ele><time>2026-05-01T15:19:35.999Z</time></trkpt><trkpt lat="42.237726141451304" lon="8.63461527067429"><ele>465.50000000000006</ele><time>2026-05-01T15:19:36.999Z</time></trkpt><trkpt lat="42.237788654593714" lon="8.634532134325845"><ele>466.0</ele><time>2026-05-01T15:19:37.999Z</time></trkpt><trkpt lat="42.237844281187094" lon="8.634426086579507"><ele>466.0</ele><time>2026-05-01T15:19:38.999Z</time></trkpt><trkpt lat="42.2378946091202" lon="8.634308831671706"><ele>466.0</ele><time>2026-05-01T15:19:39.999Z</time></trkpt><trkpt lat="42.23794358682055" lon="8.634182148746769"><ele>466.0</ele><time>2026-05-01T15:19:40.999Z</time></trkpt><trkpt lat="42.237988499886605" lon="8.63404583559595"><ele>466.0</ele><time>2026-05-01T15:19:41.999Z</time></trkpt><trkpt lat="42.238033996195725" lon="8.633908709218318"><ele>466.0</ele><time>2026-05-01T15:19:42.999Z</time></trkpt><trkpt lat="42.23806921971394" lon="8.633766746315022"><ele>467.8</ele><time>2026-05-01T15:19:43.999Z</time></trkpt><trkpt lat="42.23808152702936" lon="8.633618510477717"><ele>469.6</ele><time>2026-05-01T15:19:44.999Z</time></trkpt><trkpt lat="42.238064967166366" lon="8.633485928001038"><ele>471.4</ele><time>2026-05-01T15:19:45.999Z</time></trkpt><trkpt lat="42.23802450605592" lon="8.633351121228964"><ele>473.2</ele><time>2026-05-01T15:19:46.999Z</time></trkpt><trkpt lat="42.23796711097096" lon="8.633233172041857"><ele>475.0</ele><time>2026-05-01T15:19:47.999Z</time></trkpt><trkpt lat="42.2378883070586" lon="8.633131039375584"><ele>475.0</ele><time>2026-05-01T15:19:48.999Z</time></trkpt><trkpt lat="42.237800243762784" lon="8.63304923806103"><ele>475.0</ele><time>2026-05-01T15:19:49.999Z</time></trkpt><trkpt lat="42.237713091892786" lon="8.632968070068733"><ele>475.0</ele><time>2026-05-01T15:19:50.999Z</time></trkpt><trkpt lat="42.23763681627589" lon="8.632881309058993"><ele>475.0</ele><time>2026-05-01T15:19:51.999Z</time></trkpt><trkpt lat="42.237564879642854" lon="8.63280214012533"><ele>475.0</ele><time>2026-05-01T15:19:52.999Z</time></trkpt><trkpt lat="42.237491716208126" lon="8.632726093190616"><ele>474.0</ele><time>2026-05-01T15:19:53.998Z</time></trkpt><trkpt lat="42.23741587165221" lon="8.632645526212801"><ele>473.0</ele><time>2026-05-01T15:19:54.998Z</time></trkpt><trkpt lat="42.23734298369743" lon="8.632559104491044"><ele>472.0</ele><time>2026-05-01T15:19:56Z</time></trkpt><trkpt lat="42.23728128951493" lon="8.632450721227505"><ele>471.0</ele><time>2026-05-01T15:19:57Z</time></trkpt><trkpt lat="42.23725300178893" lon="8.632306203811213"><ele>470.0</ele><time>2026-05-01T15:19:58Z</time></trkpt><trkpt lat="42.23724375734573" lon="8.632153734942735"><ele>474.5</ele><time>2026-05-01T15:19:59Z</time></trkpt><trkpt lat="42.23723707974586" lon="8.631990751338032"><ele>479.0</ele><time>2026-05-01T15:20:00Z</time></trkpt><trkpt lat="42.2372179284567" lon="8.631819308372322"><ele>483.5</ele><time>2026-05-01T15:20:01Z</time></trkpt><trkpt lat="42.23717770087449" lon="8.63163680837021"><ele>488.0</ele><time>2026-05-01T15:20:02Z</time></trkpt><trkpt lat="42.2371113556421" lon="8.631445474487549"><ele>488.5</ele><time>2026-05-01T15:20:03Z</time></trkpt><trkpt lat="42.23704003658726" lon="8.631281893831977"><ele>489.0</ele><time>2026-05-01T15:20:04Z</time></trkpt><trkpt lat="42.23695935326025" lon="8.631142537685497"><ele>489.5</ele><time>2026-05-01T15:20:05Z</time></trkpt><trkpt lat="42.236857928367755" lon="8.63101978292817"><ele>490.0</ele><time>2026-05-01T15:20:06Z</time></trkpt><trkpt lat="42.23676482869979" lon="8.63091603258785"><ele>489.0</ele><time>2026-05-01T15:20:07Z</time></trkpt><trkpt lat="42.23669152912444" lon="8.630821314381926"><ele>488.0</ele><time>2026-05-01T15:20:08Z</time></trkpt><trkpt lat="42.23661158891868" lon="8.630717913169496"><ele>487.0</ele><time>2026-05-01T15:20:09Z</time></trkpt><trkpt lat="42.23652960682908" lon="8.630618703180929"><ele>486.0</ele><time>2026-05-01T15:20:10Z</time></trkpt><trkpt lat="42.236442395342294" lon="8.630520821604344"><ele>485.0</ele><time>2026-05-01T15:20:11Z</time></trkpt><trkpt lat="42.23636184244033" lon="8.630406774702973"><ele>487.5</ele><time>2026-05-01T15:20:12Z</time></trkpt><trkpt lat="42.23628045505133" lon="8.630301275152759"><ele>490.0</ele><time>2026-05-01T15:20:13Z</time></trkpt><trkpt lat="42.236183142725466" lon="8.630184004157972"><ele>492.5</ele><time>2026-05-01T15:20:14Z</time></trkpt><trkpt lat="42.236087609525136" lon="8.630071136160321"><ele>495.0</ele><time>2026-05-01T15:20:15Z</time></trkpt><trkpt lat="42.23599825946913" lon="8.629949042111063"><ele>495.0</ele><time>2026-05-01T15:20:16Z</time></trkpt><trkpt lat="42.23589482190432" lon="8.629829175834978"><ele>495.0</ele><time>2026-05-01T15:20:17Z</time></trkpt><trkpt lat="42.23578052051027" lon="8.629711659720419"><ele>495.0</ele><time>2026-05-01T15:20:18Z</time></trkpt><trkpt lat="42.23568098889892" lon="8.629587932416012"><ele>495.0</ele><time>2026-05-01T15:20:19Z</time></trkpt><trkpt lat="42.235577782048665" lon="8.629461795365069"><ele>494.0</ele><time>2026-05-01T15:20:20Z</time></trkpt><trkpt lat="42.2354594484356" lon="8.629353220257409"><ele>493.0</ele><time>2026-05-01T15:20:21Z</time></trkpt><trkpt lat="42.235324469224665" lon="8.629262044334455"><ele>492.0</ele><time>2026-05-01T15:20:22Z</time></trkpt><trkpt lat="42.23519117550137" lon="8.629169828534039"><ele>491.0</ele><time>2026-05-01T15:20:23Z</time></trkpt><trkpt lat="42.23504743819865" lon="8.629080292468503"><ele>491.0</ele><time>2026-05-01T15:20:24Z</time></trkpt><trkpt lat="42.23489619350108" lon="8.628986590728656"><ele>491.0</ele><time>2026-05-01T15:20:25Z</time></trkpt><trkpt lat="42.23474555064546" lon="8.628884217556626"><ele>491.0</ele><time>2026-05-01T15:20:26Z</time></trkpt><trkpt lat="42.23460073584835" lon="8.628767121023447"><ele>494.66666666666663</ele><time>2026-05-01T15:20:27Z</time></trkpt><trkpt lat="42.23445603620771" lon="8.628653170242568"><ele>498.33333333333337</ele><time>2026-05-01T15:20:28Z</time></trkpt><trkpt lat="42.234324074377824" lon="8.628547039043793"><ele>502.0</ele><time>2026-05-01T15:20:29Z</time></trkpt><trkpt lat="42.23419878693176" lon="8.628445682884323"><ele>496.25</ele><time>2026-05-01T15:20:30Z</time></trkpt><trkpt lat="42.234080783760795" lon="8.628354839750106"><ele>490.5</ele><time>2026-05-01T15:20:31Z</time></trkpt><trkpt lat="42.233948376824046" lon="8.628272811814895"><ele>484.75</ele><time>2026-05-01T15:20:32Z</time></trkpt><trkpt lat="42.233802757311764" lon="8.628206437581492"><ele>479.0</ele><time>2026-05-01T15:20:33Z</time></trkpt><trkpt lat="42.233640623239644" lon="8.628166734520804"><ele>479.0</ele><time>2026-05-01T15:20:34Z</time></trkpt><trkpt lat="42.23346281889239" lon="8.628152741767062"><ele>479.0</ele><time>2026-05-01T15:20:35Z</time></trkpt><trkpt lat="42.23326911204292" lon="8.628148284698634"><ele>479.0</ele><time>2026-05-01T15:20:36Z</time></trkpt><trkpt lat="42.23305123801465" lon="8.62815907947956"><ele>475.5</ele><time>2026-05-01T15:20:37Z</time></trkpt><trkpt lat="42.232813940783" lon="8.628200129961739"><ele>472.0</ele><time>2026-05-01T15:20:38Z</time></trkpt><trkpt lat="42.23255550406015" lon="8.62825095205719"><ele>468.0</ele><time>2026-05-01T15:20:39Z</time></trkpt><trkpt lat="42.23230272027394" lon="8.628286429274038"><ele>464.0</ele><time>2026-05-01T15:20:40Z</time></trkpt><trkpt lat="42.23206961779109" lon="8.628313159698047"><ele>464.0</ele><time>2026-05-01T15:20:41Z</time></trkpt><trkpt lat="42.23185279736815" lon="8.628341236553828"><ele>464.0</ele><time>2026-05-01T15:20:42Z</time></trkpt><trkpt lat="42.23166552989213" lon="8.628362396944967"><ele>464.0</ele><time>2026-05-01T15:20:42.999Z</time></trkpt><trkpt lat="42.2315038055434" lon="8.628372411706897"><ele>463.0</ele><time>2026-05-01T15:20:43.999Z</time></trkpt><trkpt lat="42.23134189362905" lon="8.628370934282461"><ele>462.0</ele><time>2026-05-01T15:20:44.999Z</time></trkpt><trkpt lat="42.23119967564876" lon="8.62833614845094"><ele>461.0</ele><time>2026-05-01T15:20:45.999Z</time></trkpt><trkpt lat="42.231069605277895" lon="8.628291137935909"><ele>460.0</ele><time>2026-05-01T15:20:46.999Z</time></trkpt><trkpt lat="42.23093218967881" lon="8.628268864113675"><ele>460.0</ele><time>2026-05-01T15:20:47.999Z</time></trkpt><trkpt lat="42.23078956622485" lon="8.62829509758641"><ele>460.0</ele><time>2026-05-01T15:20:48.999Z</time></trkpt><trkpt lat="42.230648446582904" lon="8.62837809484862"><ele>460.0</ele><time>2026-05-01T15:20:49.999Z</time></trkpt><trkpt lat="42.23051208013187" lon="8.628499782810799"><ele>459.6666666666667</ele><time>2026-05-01T15:20:50.999Z</time></trkpt><trkpt lat="42.2303918779021" lon="8.628654597282592"><ele>459.33333333333337</ele><time>2026-05-01T15:20:51.999Z</time></trkpt><trkpt lat="42.230281250188376" lon="8.62883051583919"><ele>459.0</ele><time>2026-05-01T15:20:52.999Z</time></trkpt><trkpt lat="42.23016815523378" lon="8.629001332956388"><ele>459.0</ele><time>2026-05-01T15:20:53.999Z</time></trkpt><trkpt lat="42.23006213300571" lon="8.629148713112198"><ele>459.0</ele><time>2026-05-01T15:20:54.999Z</time></trkpt><trkpt lat="42.229964213509504" lon="8.629285782162876"><ele>459.0</ele><time>2026-05-01T15:20:55.999Z</time></trkpt><trkpt lat="42.22987850827161" lon="8.629425545684423"><ele>459.0</ele><time>2026-05-01T15:20:56.999Z</time></trkpt><trkpt lat="42.22980744643501" lon="8.629567011883056"><ele>457.79999999999995</ele><time>2026-05-01T15:20:57.999Z</time></trkpt><trkpt lat="42.22974761774669" lon="8.629704665932005"><ele>456.59999999999997</ele><time>2026-05-01T15:20:58.999Z</time></trkpt><trkpt lat="42.22970026193925" lon="8.629839701002982"><ele>455.4</ele><time>2026-05-01T15:20:59.999Z</time></trkpt><trkpt lat="42.2296591967711" lon="8.629969395107173"><ele>454.2</ele><time>2026-05-01T15:21:00.999Z</time></trkpt><trkpt lat="42.22961572589049" lon="8.63009792593797"><ele>453.0</ele><time>2026-05-01T15:21:01.999Z</time></trkpt><trkpt lat="42.22957086194253" lon="8.630233796230474"><ele>455.0</ele><time>2026-05-01T15:21:02.999Z</time></trkpt><trkpt lat="42.229512906474746" lon="8.630378391171973"><ele>457.0</ele><time>2026-05-01T15:21:03.999Z</time></trkpt><trkpt lat="42.22944308144345" lon="8.630521631245415"><ele>459.0</ele><time>2026-05-01T15:21:04.999Z</time></trkpt><trkpt lat="42.229355479985365" lon="8.630665120491182"><ele>461.0</ele><time>2026-05-01T15:21:05.999Z</time></trkpt><trkpt lat="42.229236081772626" lon="8.630784578613355"><ele>461.0</ele><time>2026-05-01T15:21:06.999Z</time></trkpt><trkpt lat="42.2290981523756" lon="8.630865914712421"><ele>461.0</ele><time>2026-05-01T15:21:07.999Z</time></trkpt><trkpt lat="42.22893369503642" lon="8.630905836502638"><ele>461.0</ele><time>2026-05-01T15:21:08.999Z</time></trkpt><trkpt lat="42.22875412381786" lon="8.630894644956719"><ele>461.3333333333333</ele><time>2026-05-01T15:21:09.999Z</time></trkpt><trkpt lat="42.22855993493615" lon="8.630855001302455"><ele>461.66666666666663</ele><time>2026-05-01T15:21:10.999Z</time></trkpt><trkpt lat="42.22836853455152" lon="8.63082292995383"><ele>462.0</ele><time>2026-05-01T15:21:11.999Z</time></trkpt><trkpt lat="42.22819632208242" lon="8.630800607154429"><ele>462.0</ele><time>2026-05-01T15:21:12.999Z</time></trkpt><trkpt lat="42.22803289150489" lon="8.63077426839954"><ele>462.0</ele><time>2026-05-01T15:21:13.999Z</time></trkpt><trkpt lat="42.2278738450604" lon="8.630728143458288"><ele>462.0</ele><time>2026-05-01T15:21:14.999Z</time></trkpt><trkpt lat="42.227711787685" lon="8.630683158970061"><ele>462.0</ele><time>2026-05-01T15:21:15.999Z</time></trkpt><trkpt lat="42.22754546280841" lon="8.630651480846243"><ele>462.0</ele><time>2026-05-01T15:21:16.999Z</time></trkpt><trkpt lat="42.227374254823545" lon="8.630647184364264"><ele>462.0</ele><time>2026-05-01T15:21:17.999Z</time></trkpt><trkpt lat="42.22719357192737" lon="8.630652759811095"><ele>460.66666666666663</ele><time>2026-05-01T15:21:18.999Z</time></trkpt><trkpt lat="42.22701127813634" lon="8.630676748386342"><ele>459.3333333333333</ele><time>2026-05-01T15:21:19.999Z</time></trkpt><trkpt lat="42.22681888800816" lon="8.630706173690776"><ele>458.0</ele><time>2026-05-01T15:21:20.999Z</time></trkpt><trkpt lat="42.2266282270308" lon="8.63073989781357"><ele>457.3333333333333</ele><time>2026-05-01T15:21:21.999Z</time></trkpt><trkpt lat="42.22643840038995" lon="8.63077471848159"><ele>456.66666666666663</ele><time>2026-05-01T15:21:22.999Z</time></trkpt><trkpt lat="42.22625771129665" lon="8.630804616256478"><ele>456.0</ele><time>2026-05-01T15:21:23.999Z</time></trkpt><trkpt lat="42.22608176106124" lon="8.630818161364727"><ele>456.0</ele><time>2026-05-01T15:21:24.999Z</time></trkpt><trkpt lat="42.22591912676392" lon="8.630792746625408"><ele>456.0</ele><time>2026-05-01T15:21:25.999Z</time></trkpt><trkpt lat="42.225768310268194" lon="8.630732964182712"><ele>456.0</ele><time>2026-05-01T15:21:26.999Z</time></trkpt><trkpt lat="42.22560871172139" lon="8.630680002820908"><ele>455.33333333333337</ele><time>2026-05-01T15:21:27.999Z</time></trkpt><trkpt lat="42.225436500448254" lon="8.630669307955698"><ele>454.6666666666667</ele><time>2026-05-01T15:21:28.999Z</time></trkpt><trkpt lat="42.22526169366525" lon="8.63069874911468"><ele>454.0</ele><time>2026-05-01T15:21:29.999Z</time></trkpt><trkpt lat="42.22508792981536" lon="8.63074189990233"><ele>454.0</ele><time>2026-05-01T15:21:30.999Z</time></trkpt><trkpt lat="42.22492019884019" lon="8.630777382785917"><ele>454.0</ele><time>2026-05-01T15:21:31.999Z</time></trkpt><trkpt lat="42.22476732374254" lon="8.630812446506447"><ele>454.0</ele><time>2026-05-01T15:21:32.999Z</time></trkpt><trkpt lat="42.22462033354344" lon="8.630844685040685"><ele>450.5</ele><time>2026-05-01T15:21:33.999Z</time></trkpt><trkpt lat="42.224482612416594" lon="8.630900740680968"><ele>447.0</ele><time>2026-05-01T15:21:34.999Z</time></trkpt><trkpt lat="42.22436032297115" lon="8.630972892324465"><ele>443.5</ele><time>2026-05-01T15:21:35.999Z</time></trkpt><trkpt lat="42.22424485185087" lon="8.631045506758186"><ele>440.0</ele><time>2026-05-01T15:21:36.999Z</time></trkpt><trkpt lat="42.224131852687286" lon="8.63112548640196"><ele>439.0</ele><time>2026-05-01T15:21:37.999Z</time></trkpt><trkpt lat="42.224021998248254" lon="8.631212416861171"><ele>438.0</ele><time>2026-05-01T15:21:38.999Z</time></trkpt><trkpt lat="42.223917239277974" lon="8.63131718749685"><ele>437.0</ele><time>2026-05-01T15:21:39.999Z</time></trkpt><trkpt lat="42.22382598301895" lon="8.631439809127539"><ele>436.0</ele><time>2026-05-01T15:21:40.999Z</time></trkpt><trkpt lat="42.223745771677876" lon="8.631594267972593"><ele>436.0</ele><time>2026-05-01T15:21:41.999Z</time></trkpt><trkpt lat="42.223670499478" lon="8.63176952609236"><ele>436.0</ele><time>2026-05-01T15:21:42.999Z</time></trkpt><trkpt lat="42.22359196717528" lon="8.631944881941159"><ele>436.0</ele><time>2026-05-01T15:21:43.999Z</time></trkpt><trkpt lat="42.223512536202385" lon="8.632110653849162"><ele>436.0</ele><time>2026-05-01T15:21:44.999Z</time></trkpt><trkpt lat="42.22343330557098" lon="8.632259747401793"><ele>435.25</ele><time>2026-05-01T15:21:45.999Z</time></trkpt><trkpt lat="42.2233455185352" lon="8.632388614832609"><ele>434.5</ele><time>2026-05-01T15:21:46.999Z</time></trkpt><trkpt lat="42.22323798547533" lon="8.632481423550672"><ele>433.75</ele><time>2026-05-01T15:21:47.999Z</time></trkpt><trkpt lat="42.22310907625846" lon="8.632519112909803"><ele>433.0</ele><time>2026-05-01T15:21:48.999Z</time></trkpt><trkpt lat="42.222973551733595" lon="8.632530653085425"><ele>433.0</ele><time>2026-05-01T15:21:49.999Z</time></trkpt><trkpt lat="42.22283356245755" lon="8.632533110170126"><ele>433.0</ele><time>2026-05-01T15:21:50.999Z</time></trkpt><trkpt lat="42.22270915167223" lon="8.632562267671144"><ele>433.0</ele><time>2026-05-01T15:21:51.999Z</time></trkpt><trkpt lat="42.22259581422947" lon="8.632633135929495"><ele>433.0</ele><time>2026-05-01T15:21:52.999Z</time></trkpt><trkpt lat="42.22248668033844" lon="8.632747894217255"><ele>427.6666666666667</ele><time>2026-05-01T15:21:53.999Z</time></trkpt><trkpt lat="42.222378585917276" lon="8.63288751270579"><ele>422.33333333333337</ele><time>2026-05-01T15:21:54.999Z</time></trkpt><trkpt lat="42.22227186873222" lon="8.633032699584955"><ele>417.0</ele><time>2026-05-01T15:21:55.999Z</time></trkpt><trkpt lat="42.22216838701598" lon="8.633187829326403"><ele>417.0</ele><time>2026-05-01T15:21:56.999Z</time></trkpt><trkpt lat="42.222081730590915" lon="8.633370595523377"><ele>417.0</ele><time>2026-05-01T15:21:57.999Z</time></trkpt><trkpt lat="42.222021202354156" lon="8.633560201274777"><ele>417.0</ele><time>2026-05-01T15:21:58.999Z</time></trkpt><trkpt lat="42.22195314289789" lon="8.633737318613415"><ele>420.75</ele><time>2026-05-01T15:21:59.999Z</time></trkpt><trkpt lat="42.22188681909725" lon="8.633896510853909"><ele>424.5</ele><time>2026-05-01T15:22:00.999Z</time></trkpt><trkpt lat="42.22183170663599" lon="8.6340559517632"><ele>428.25</ele><time>2026-05-01T15:22:02Z</time></trkpt><trkpt lat="42.22180454131534" lon="8.63423853194617"><ele>432.0</ele><time>2026-05-01T15:22:03Z</time></trkpt><trkpt lat="42.22179210422656" lon="8.634433161605179"><ele>432.0</ele><time>2026-05-01T15:22:04Z</time></trkpt><trkpt lat="42.22179337319608" lon="8.634625917508684"><ele>432.0</ele><time>2026-05-01T15:22:05Z</time></trkpt><trkpt lat="42.221808166051716" lon="8.6348159409707"><ele>432.0</ele><time>2026-05-01T15:22:06Z</time></trkpt><trkpt lat="42.221849634383354" lon="8.635000653396771"><ele>432.0</ele><time>2026-05-01T15:22:07Z</time></trkpt><trkpt lat="42.22191779219369" lon="8.63516469755644"><ele>430.0</ele><time>2026-05-01T15:22:08Z</time></trkpt><trkpt lat="42.221998918352945" lon="8.635316412673607"><ele>428.0</ele><time>2026-05-01T15:22:09Z</time></trkpt><trkpt lat="42.2220654381344" lon="8.6354748021517"><ele>426.0</ele><time>2026-05-01T15:22:10Z</time></trkpt><trkpt lat="42.22210679970902" lon="8.635645207082998"><ele>424.0</ele><time>2026-05-01T15:22:11Z</time></trkpt><trkpt lat="42.22212525838962" lon="8.635834029343526"><ele>424.0</ele><time>2026-05-01T15:22:12Z</time></trkpt><trkpt lat="42.222130546872606" lon="8.636034338775785"><ele>424.0</ele><time>2026-05-01T15:22:13Z</time></trkpt><trkpt lat="42.222143397068926" lon="8.636249292690062"><ele>424.0</ele><time>2026-05-01T15:22:14Z</time></trkpt><trkpt lat="42.22215958118739" lon="8.63645117645391"><ele>424.0</ele><time>2026-05-01T15:22:15Z</time></trkpt><trkpt lat="42.22217202466451" lon="8.636639375119492"><ele>424.0</ele><time>2026-05-01T15:22:16Z</time></trkpt><trkpt lat="42.22218702752396" lon="8.636814696488367"><ele>424.0</ele><time>2026-05-01T15:22:17Z</time></trkpt><trkpt lat="42.22220302161605" lon="8.636970695927781"><ele>424.0</ele><time>2026-05-01T15:22:18Z</time></trkpt><trkpt lat="42.22222020996082" lon="8.637112845448536"><ele>424.0</ele><time>2026-05-01T15:22:19Z</time></trkpt><trkpt lat="42.22225289004391" lon="8.637249556292659"><ele>424.0</ele><time>2026-05-01T15:22:20Z</time></trkpt><trkpt lat="42.222336387804475" lon="8.63739710860163"><ele>424.0</ele><time>2026-05-01T15:22:21Z</time></trkpt><trkpt lat="42.22246735331613" lon="8.637571718713252"><ele>424.0</ele><time>2026-05-01T15:22:22Z</time></trkpt><trkpt lat="42.222596572907115" lon="8.63778041640178"><ele>427.6666666666667</ele><time>2026-05-01T15:22:23Z</time></trkpt><trkpt lat="42.22269332370648" lon="8.638042240832583"><ele>431.33333333333337</ele><time>2026-05-01T15:22:24Z</time></trkpt><trkpt lat="42.222741425165445" lon="8.638331124830765"><ele>435.0</ele><time>2026-05-01T15:22:25Z</time></trkpt><trkpt lat="42.22277126107588" lon="8.638614970725119"><ele>435.33333333333337</ele><time>2026-05-01T15:22:26Z</time></trkpt><trkpt lat="42.22279231888599" lon="8.638857858517003"><ele>435.6666666666667</ele><time>2026-05-01T15:22:27Z</time></trkpt><trkpt lat="42.22278976240069" lon="8.639065048360397"><ele>436.0</ele><time>2026-05-01T15:22:28Z</time></trkpt><trkpt lat="42.222736500853294" lon="8.63923769978049"><ele>436.0</ele><time>2026-05-01T15:22:29Z</time></trkpt><trkpt lat="42.22264342004329" lon="8.639371860165173"><ele>436.0</ele><time>2026-05-01T15:22:30Z</time></trkpt><trkpt lat="42.22250992532571" lon="8.639448875623629"><ele>436.0</ele><time>2026-05-01T15:22:31Z</time></trkpt><trkpt lat="42.22234490006256" lon="8.639454063820477"><ele>436.0</ele><time>2026-05-01T15:22:32Z</time></trkpt><trkpt lat="42.222168219555094" lon="8.639404831621858"><ele>442.0</ele><time>2026-05-01T15:22:33Z</time></trkpt><trkpt lat="42.221986869511994" lon="8.639421454272748"><ele>448.0</ele><time>2026-05-01T15:22:34Z</time></trkpt><trkpt lat="42.22179834109483" lon="8.639530219061818"><ele>454.0</ele><time>2026-05-01T15:22:35Z</time></trkpt><trkpt lat="42.22160214362863" lon="8.639675410327039"><ele>446.6666666666667</ele><time>2026-05-01T15:22:36Z</time></trkpt><trkpt lat="42.221389972792494" lon="8.639767409202168"><ele>439.33333333333337</ele><time>2026-05-01T15:22:37Z</time></trkpt><trkpt lat="42.22119025539029" lon="8.639816869334476"><ele>432.0</ele><time>2026-05-01T15:22:38Z</time></trkpt><trkpt lat="42.22100524852217" lon="8.63987947973488"><ele>432.0</ele><time>2026-05-01T15:22:39Z</time></trkpt><trkpt lat="42.2208426085025" lon="8.639972495110515"><ele>432.0</ele><time>2026-05-01T15:22:40Z</time></trkpt><trkpt lat="42.22069344717402" lon="8.640083537076112"><ele>432.0</ele><time>2026-05-01T15:22:41Z</time></trkpt><trkpt lat="42.22056285674845" lon="8.640200460242273"><ele>430.33333333333337</ele><time>2026-05-01T15:22:42Z</time></trkpt><trkpt lat="42.22043802879163" lon="8.640321188732312"><ele>428.6666666666667</ele><time>2026-05-01T15:22:43Z</time></trkpt><trkpt lat="42.220312032843836" lon="8.640450892768225"><ele>427.0</ele><time>2026-05-01T15:22:44Z</time></trkpt><trkpt lat="42.220206176482364" lon="8.64060569916125"><ele>427.0</ele><time>2026-05-01T15:22:45Z</time></trkpt><trkpt lat="42.22012820938564" lon="8.640768664931219"><ele>427.0</ele><time>2026-05-01T15:22:46Z</time></trkpt><trkpt lat="42.22005166647826" lon="8.640928029135909"><ele>427.0</ele><time>2026-05-01T15:22:47Z</time></trkpt><trkpt lat="42.21996340044756" lon="8.641064016324764"><ele>427.0</ele><time>2026-05-01T15:22:48Z</time></trkpt><trkpt lat="42.21985907585039" lon="8.641182029668323"><ele>424.25</ele><time>2026-05-01T15:22:49Z</time></trkpt><trkpt lat="42.21975247812023" lon="8.641287578978334"><ele>421.5</ele><time>2026-05-01T15:22:50Z</time></trkpt><trkpt lat="42.219653718086086" lon="8.641387103807956"><ele>418.75</ele><time>2026-05-01T15:22:51Z</time></trkpt><trkpt lat="42.21956089945246" lon="8.641495879605879"><ele>416.0</ele><time>2026-05-01T15:22:52Z</time></trkpt><trkpt lat="42.21946035187221" lon="8.641624508855255"><ele>416.0</ele><time>2026-05-01T15:22:53Z</time></trkpt><trkpt lat="42.21936559102254" lon="8.641768462688114"><ele>416.0</ele><time>2026-05-01T15:22:54Z</time></trkpt><trkpt lat="42.21927187763265" lon="8.641922074782665"><ele>416.0</ele><time>2026-05-01T15:22:55Z</time></trkpt><trkpt lat="42.21918500303163" lon="8.642090011678485"><ele>416.0</ele><time>2026-05-01T15:22:56Z</time></trkpt><trkpt lat="42.21910937477565" lon="8.642256600513786"><ele>418.5</ele><time>2026-05-01T15:22:57Z</time></trkpt><trkpt lat="42.21904590843257" lon="8.642429766562625"><ele>421.0</ele><time>2026-05-01T15:22:58Z</time></trkpt><trkpt lat="42.21897044519298" lon="8.642597494338938"><ele>423.5</ele><time>2026-05-01T15:22:59Z</time></trkpt><trkpt lat="42.21888013142451" lon="8.642728523874476"><ele>426.0</ele><time>2026-05-01T15:23:00Z</time></trkpt><trkpt lat="42.21875955899373" lon="8.64281807475257"><ele>429.0</ele><time>2026-05-01T15:23:01Z</time></trkpt><trkpt lat="42.21862018778386" lon="8.642845509698525"><ele>432.0</ele><time>2026-05-01T15:23:02Z</time></trkpt><trkpt lat="42.21847414910666" lon="8.642843700229049"><ele>435.0</ele><time>2026-05-01T15:23:03Z</time></trkpt><trkpt lat="42.21832620427066" lon="8.642828487276606"><ele>438.0</ele><time>2026-05-01T15:23:04Z</time></trkpt><trkpt lat="42.21817397925551" lon="8.642826895152353"><ele>436.0</ele><time>2026-05-01T15:23:05Z</time></trkpt><trkpt lat="42.218036224473465" lon="8.642840983205431"><ele>434.0</ele><time>2026-05-01T15:23:06Z</time></trkpt><trkpt lat="42.21790173735933" lon="8.642850895504656"><ele>432.0</ele><time>2026-05-01T15:23:07Z</time></trkpt><trkpt lat="42.21776839070254" lon="8.642850841755576"><ele>430.0</ele><time>2026-05-01T15:23:08Z</time></trkpt><trkpt lat="42.21763097750513" lon="8.642851961765889"><ele>430.0</ele><time>2026-05-01T15:23:09Z</time></trkpt><trkpt lat="42.217485056577914" lon="8.642854271301056"><ele>430.0</ele><time>2026-05-01T15:23:10Z</time></trkpt><trkpt lat="42.21733432453264" lon="8.642860373135802"><ele>430.0</ele><time>2026-05-01T15:23:10.999Z</time></trkpt><trkpt lat="42.21717707977245" lon="8.642867949928679"><ele>427.5</ele><time>2026-05-01T15:23:11.999Z</time></trkpt><trkpt lat="42.217022012118456" lon="8.642872372186828"><ele>425.0</ele><time>2026-05-01T15:23:12.999Z</time></trkpt><trkpt lat="42.21687387611913" lon="8.64287223995893"><ele>422.5</ele><time>2026-05-01T15:23:13.999Z</time></trkpt><trkpt lat="42.21674355055757" lon="8.642872626957555"><ele>420.0</ele><time>2026-05-01T15:23:14.999Z</time></trkpt><trkpt lat="42.21661319329997" lon="8.642864185257665"><ele>420.0</ele><time>2026-05-01T15:23:15.999Z</time></trkpt><trkpt lat="42.2164907206319" lon="8.642842294430201"><ele>420.0</ele><time>2026-05-01T15:23:16.999Z</time></trkpt><trkpt lat="42.21636688760012" lon="8.642797776722427"><ele>420.0</ele><time>2026-05-01T15:23:17.999Z</time></trkpt><trkpt lat="42.2162414133197" lon="8.642736522515193"><ele>420.0</ele><time>2026-05-01T15:23:18.999Z</time></trkpt><trkpt lat="42.21612063480853" lon="8.642680848103296"><ele>422.25</ele><time>2026-05-01T15:23:19.999Z</time></trkpt><trkpt lat="42.21600058977363" lon="8.64264649889226"><ele>424.5</ele><time>2026-05-01T15:23:20.999Z</time></trkpt><trkpt lat="42.2158831326628" lon="8.64263767308571"><ele>426.75</ele><time>2026-05-01T15:23:21.999Z</time></trkpt><trkpt lat="42.215768819412304" lon="8.642665361575334"><ele>429.0</ele><time>2026-05-01T15:23:22.999Z</time></trkpt><trkpt lat="42.21566714691793" lon="8.64274235506309"><ele>428.75</ele><time>2026-05-01T15:23:23.999Z</time></trkpt><trkpt lat="42.2155780951879" lon="8.642877319033229"><ele>428.5</ele><time>2026-05-01T15:23:24.999Z</time></trkpt><trkpt lat="42.21550132585811" lon="8.643041852166613"><ele>428.25</ele><time>2026-05-01T15:23:25.999Z</time></trkpt><trkpt lat="42.21542388392462" lon="8.643213306227368"><ele>428.0</ele><time>2026-05-01T15:23:26.999Z</time></trkpt><trkpt lat="42.21532486097327" lon="8.64337945594166"><ele>428.0</ele><time>2026-05-01T15:23:27.999Z</time></trkpt><trkpt lat="42.215208752164024" lon="8.643561667126644"><ele>428.0</ele><time>2026-05-01T15:23:28.999Z</time></trkpt><trkpt lat="42.21509349892569" lon="8.643739403122183"><ele>428.0</ele><time>2026-05-01T15:23:29.999Z</time></trkpt><trkpt lat="42.214980146518414" lon="8.64392348758615"><ele>425.66666666666663</ele><time>2026-05-01T15:23:30.999Z</time></trkpt><trkpt lat="42.214876161663966" lon="8.644095372404097"><ele>423.33333333333337</ele><time>2026-05-01T15:23:31.999Z</time></trkpt><trkpt lat="42.21477512070308" lon="8.644257690474"><ele>421.0</ele><time>2026-05-01T15:23:32.999Z</time></trkpt><trkpt lat="42.21469093990437" lon="8.644404248461333"><ele>419.5</ele><time>2026-05-01T15:23:33.999Z</time></trkpt><trkpt lat="42.21462652454174" lon="8.644550086918018"><ele>418.0</ele><time>2026-05-01T15:23:34.999Z</time></trkpt><trkpt lat="42.21460215270363" lon="8.64471442857005"><ele>416.5</ele><time>2026-05-01T15:23:35.999Z</time></trkpt><trkpt lat="42.21461967522055" lon="8.644905407067972"><ele>415.0</ele><time>2026-05-01T15:23:36.999Z</time></trkpt><trkpt lat="42.214668170175095" lon="8.645129189240796"><ele>414.5</ele><time>2026-05-01T15:23:37.999Z</time></trkpt><trkpt lat="42.214725180881764" lon="8.64534602528297"><ele>414.0</ele><time>2026-05-01T15:23:38.999Z</time></trkpt><trkpt lat="42.2147657378531" lon="8.64553015551035"><ele>413.5</ele><time>2026-05-01T15:23:39.999Z</time></trkpt><trkpt lat="42.21477568469461" lon="8.64570212995655"><ele>413.0</ele><time>2026-05-01T15:23:40.999Z</time></trkpt><trkpt lat="42.21474912860767" lon="8.645873278311027"><ele>413.0</ele><time>2026-05-01T15:23:41.999Z</time></trkpt><trkpt lat="42.214687581315864" lon="8.646034991121333"><ele>413.0</ele><time>2026-05-01T15:23:42.999Z</time></trkpt><trkpt lat="42.214596816046736" lon="8.646188093844819"><ele>413.0</ele><time>2026-05-01T15:23:43.999Z</time></trkpt><trkpt lat="42.214488065315564" lon="8.646306445336657"><ele>413.0</ele><time>2026-05-01T15:23:44.999Z</time></trkpt><trkpt lat="42.214393866139886" lon="8.646412505774896"><ele>411.25</ele><time>2026-05-01T15:23:45.999Z</time></trkpt><trkpt lat="42.214314281740506" lon="8.64652107236895"><ele>409.5</ele><time>2026-05-01T15:23:46.999Z</time></trkpt><trkpt lat="42.21425519581241" lon="8.646649023505557"><ele>407.75</ele><time>2026-05-01T15:23:47.999Z</time></trkpt><trkpt lat="42.214225726511295" lon="8.646792301543133"><ele>406.0</ele><time>2026-05-01T15:23:48.999Z</time></trkpt><trkpt lat="42.214215145448236" lon="8.64694872945634"><ele>405.25</ele><time>2026-05-01T15:23:49.999Z</time></trkpt><trkpt lat="42.214227082100976" lon="8.647114436658041"><ele>404.5</ele><time>2026-05-01T15:23:50.999Z</time></trkpt><trkpt lat="42.214270566830045" lon="8.647285655407854"><ele>403.75</ele><time>2026-05-01T15:23:51.999Z</time></trkpt><trkpt lat="42.214337900572424" lon="8.647457839559179"><ele>403.0</ele><time>2026-05-01T15:23:52.999Z</time></trkpt><trkpt lat="42.21441071489962" lon="8.64760775184971"><ele>403.0</ele><time>2026-05-01T15:23:53.999Z</time></trkpt><trkpt lat="42.214469703119356" lon="8.64775266218152"><ele>403.0</ele><time>2026-05-01T15:23:54.999Z</time></trkpt><trkpt lat="42.21450483758466" lon="8.647906711522463"><ele>403.0</ele><time>2026-05-01T15:23:55.999Z</time></trkpt><trkpt lat="42.214501884667904" lon="8.648071237255436"><ele>403.0</ele><time>2026-05-01T15:23:56.999Z</time></trkpt><trkpt lat="42.21446439244594" lon="8.648246974549654"><ele>403.33333333333337</ele><time>2026-05-01T15:23:57.999Z</time></trkpt><trkpt lat="42.214415171449694" lon="8.648446566660795"><ele>403.66666666666663</ele><time>2026-05-01T15:23:58.999Z</time></trkpt><trkpt lat="42.21436742226187" lon="8.648676166590576"><ele>404.0</ele><time>2026-05-01T15:23:59.999Z</time></trkpt><trkpt lat="42.21432976156349" lon="8.648877241690927"><ele>400.5</ele><time>2026-05-01T15:24:00.999Z</time></trkpt><trkpt lat="42.21430009774189" lon="8.649061495814914"><ele>397.0</ele><time>2026-05-01T15:24:01.999Z</time></trkpt><trkpt lat="42.214266889718154" lon="8.649208061954019"><ele>393.5</ele><time>2026-05-01T15:24:02.999Z</time></trkpt><trkpt lat="42.214219364438605" lon="8.64933810661259"><ele>390.0</ele><time>2026-05-01T15:24:03.999Z</time></trkpt><trkpt lat="42.21415109634926" lon="8.649449027551944"><ele>387.0</ele><time>2026-05-01T15:24:04.999Z</time></trkpt><trkpt lat="42.2140529951088" lon="8.64952944131849"><ele>384.0</ele><time>2026-05-01T15:24:05.999Z</time></trkpt><trkpt lat="42.21393481592985" lon="8.64958002350505"><ele>381.0</ele><time>2026-05-01T15:24:06.999Z</time></trkpt><trkpt lat="42.213816602375786" lon="8.649591595720645"><ele>378.0</ele><time>2026-05-01T15:24:08.001Z</time></trkpt><trkpt lat="42.21369443219441" lon="8.64956265280541"><ele>378.0</ele><time>2026-05-01T15:24:09.001Z</time></trkpt><trkpt lat="42.21357209349753" lon="8.649522774439193"><ele>378.0</ele><time>2026-05-01T15:24:10.001Z</time></trkpt><trkpt lat="42.21345043706124" lon="8.649496703571675"><ele>378.0</ele><time>2026-05-01T15:24:11.001Z</time></trkpt><trkpt lat="42.213334745732446" lon="8.649495099433281"><ele>378.0</ele><time>2026-05-01T15:24:12.001Z</time></trkpt><trkpt lat="42.21322020749292" lon="8.649520555397567"><ele>381.0</ele><time>2026-05-01T15:24:13.001Z</time></trkpt><trkpt lat="42.21311932551842" lon="8.64958540048542"><ele>384.0</ele><time>2026-05-01T15:24:14.001Z</time></trkpt><trkpt lat="42.21302757052981" lon="8.649695680831298"><ele>387.0</ele><time>2026-05-01T15:24:15.001Z</time></trkpt><trkpt lat="42.21294911022078" lon="8.649834998247599"><ele>390.0</ele><time>2026-05-01T15:24:16.001Z</time></trkpt><trkpt lat="42.212898555547696" lon="8.649999109524103"><ele>390.0</ele><time>2026-05-01T15:24:17.001Z</time></trkpt><trkpt lat="42.212864871262205" lon="8.650171401412017"><ele>390.0</ele><time>2026-05-01T15:24:18.001Z</time></trkpt><trkpt lat="42.21282046683546" lon="8.650340401270059"><ele>390.0</ele><time>2026-05-01T15:24:19.001Z</time></trkpt><trkpt lat="42.21276604262701" lon="8.650500520546716"><ele>390.0</ele><time>2026-05-01T15:24:20.001Z</time></trkpt><trkpt lat="42.21269193060791" lon="8.650641755249392"><ele>386.75</ele><time>2026-05-01T15:24:21.001Z</time></trkpt><trkpt lat="42.212626676960944" lon="8.650778244405043"><ele>383.5</ele><time>2026-05-01T15:24:22Z</time></trkpt><trkpt lat="42.21256730888632" lon="8.65091575427037"><ele>380.25</ele><time>2026-05-01T15:24:23Z</time></trkpt><trkpt lat="42.212503614321975" lon="8.651046386499331"><ele>377.0</ele><time>2026-05-01T15:24:24Z</time></trkpt><trkpt lat="42.21244236186368" lon="8.651182450325702"><ele>375.25</ele><time>2026-05-01T15:24:25Z</time></trkpt><trkpt lat="42.21239086414304" lon="8.651329355683176"><ele>373.5</ele><time>2026-05-01T15:24:26Z</time></trkpt><trkpt lat="42.212357434357024" lon="8.651497178614312"><ele>371.75</ele><time>2026-05-01T15:24:27Z</time></trkpt><trkpt lat="42.21234432832213" lon="8.651673804656198"><ele>370.0</ele><time>2026-05-01T15:24:28Z</time></trkpt><trkpt lat="42.21235810125802" lon="8.651867475305732"><ele>370.5</ele><time>2026-05-01T15:24:29Z</time></trkpt><trkpt lat="42.212390891268164" lon="8.652057681240427"><ele>371.0</ele><time>2026-05-01T15:24:30Z</time></trkpt><trkpt lat="42.212436632911576" lon="8.652224098638149"><ele>371.5</ele><time>2026-05-01T15:24:31Z</time></trkpt><trkpt lat="42.21249070798784" lon="8.65237707482282"><ele>372.0</ele><time>2026-05-01T15:24:32Z</time></trkpt><trkpt lat="42.21253802306972" lon="8.652523622203839"><ele>372.0</ele><time>2026-05-01T15:24:33Z</time></trkpt><trkpt lat="42.21256960056692" lon="8.652669520425828"><ele>372.0</ele><time>2026-05-01T15:24:34Z</time></trkpt><trkpt lat="42.212593680666906" lon="8.652833681147365"><ele>372.0</ele><time>2026-05-01T15:24:35Z</time></trkpt><trkpt lat="42.212598285082784" lon="8.653013326284958"><ele>372.0</ele><time>2026-05-01T15:24:36Z</time></trkpt><trkpt lat="42.21256676053935" lon="8.653191266137815"><ele>370.6666666666667</ele><time>2026-05-01T15:24:37Z</time></trkpt><trkpt lat="42.21253673568666" lon="8.653433203438562"><ele>369.33333333333337</ele><time>2026-05-01T15:24:38Z</time></trkpt><trkpt lat="42.21246466796541" lon="8.653689003565358"><ele>368.0</ele><time>2026-05-01T15:24:39Z</time></trkpt><trkpt lat="42.21237103125877" lon="8.653966656534553"><ele>372.5</ele><time>2026-05-01T15:24:40Z</time></trkpt><trkpt lat="42.21230480771382" lon="8.654281519894033"><ele>377.0</ele><time>2026-05-01T15:24:41Z</time></trkpt><trkpt lat="42.21228691123966" lon="8.654643103701211"><ele>377.0</ele><time>2026-05-01T15:24:42Z</time></trkpt><trkpt lat="42.212298497391224" lon="8.654996937460174"><ele>377.0</ele><time>2026-05-01T15:24:43Z</time></trkpt><trkpt lat="42.2123059350389" lon="8.655327139419903"><ele>375.0</ele><time>2026-05-01T15:24:44Z</time></trkpt><trkpt lat="42.21229047280035" lon="8.65563052697248"><ele>373.0</ele><time>2026-05-01T15:24:45Z</time></trkpt><trkpt lat="42.212245230856084" lon="8.655915664580377"><ele>371.0</ele><time>2026-05-01T15:24:46Z</time></trkpt><trkpt lat="42.2121690622357" lon="8.656202568900554"><ele>366.5</ele><time>2026-05-01T15:24:47Z</time></trkpt><trkpt lat="42.21206411601009" lon="8.656508831619709"><ele>362.0</ele><time>2026-05-01T15:24:48Z</time></trkpt><trkpt lat="42.21195821904087" lon="8.656797004900099"><ele>355.6666666666667</ele><time>2026-05-01T15:24:49Z</time></trkpt><trkpt lat="42.21186774951329" lon="8.657022875823527"><ele>349.3333333333333</ele><time>2026-05-01T15:24:50Z</time></trkpt><trkpt lat="42.211783616576405" lon="8.657173553452582"><ele>343.0</ele><time>2026-05-01T15:24:51Z</time></trkpt><trkpt lat="42.211682824366605" lon="8.657304458818368"><ele>343.0</ele><time>2026-05-01T15:24:52Z</time></trkpt><trkpt lat="42.21154686524112" lon="8.657377679222513"><ele>343.0</ele><time>2026-05-01T15:24:53Z</time></trkpt><trkpt lat="42.211383994712456" lon="8.657384603432437"><ele>343.0</ele><time>2026-05-01T15:24:54Z</time></trkpt><trkpt lat="42.21121115565871" lon="8.657326790812398"><ele>344.0</ele><time>2026-05-01T15:24:55Z</time></trkpt><trkpt lat="42.21105677545801" lon="8.657215194211714"><ele>345.0</ele><time>2026-05-01T15:24:56Z</time></trkpt><trkpt lat="42.21093898040964" lon="8.657037719787288"><ele>346.0</ele><time>2026-05-01T15:24:57Z</time></trkpt><trkpt lat="42.21085304697471" lon="8.656798152749777"><ele>346.0</ele><time>2026-05-01T15:24:58Z</time></trkpt><trkpt lat="42.21078804477466" lon="8.656503797361907"><ele>346.0</ele><time>2026-05-01T15:24:59Z</time></trkpt><trkpt lat="42.21071418513651" lon="8.656177248288232"><ele>337.0</ele><time>2026-05-01T15:25:00Z</time></trkpt><trkpt lat="42.21062365958111" lon="8.65583274187448"><ele>328.0</ele><time>2026-05-01T15:25:01Z</time></trkpt><trkpt lat="42.21052675626536" lon="8.655507195278442"><ele>330.3333333333333</ele><time>2026-05-01T15:25:02Z</time></trkpt><trkpt lat="42.21042998283091" lon="8.655232170011967"><ele>332.6666666666667</ele><time>2026-05-01T15:25:03Z</time></trkpt><trkpt lat="42.21031823801499" lon="8.655002178326779"><ele>335.0</ele><time>2026-05-01T15:25:04Z</time></trkpt><trkpt lat="42.21016832334608" lon="8.654845793096673"><ele>335.0</ele><time>2026-05-01T15:25:05Z</time></trkpt><trkpt lat="42.209988282702504" lon="8.654739221966558"><ele>335.0</ele><time>2026-05-01T15:25:06Z</time></trkpt><trkpt lat="42.20977070372353" lon="8.654665558447778"><ele>335.0</ele><time>2026-05-01T15:25:07Z</time></trkpt><trkpt lat="42.209547884887414" lon="8.65456824582949"><ele>332.0</ele><time>2026-05-01T15:25:08Z</time></trkpt><trkpt lat="42.20937985529077" lon="8.654450741945215"><ele>329.0</ele><time>2026-05-01T15:25:09Z</time></trkpt><trkpt lat="42.20926773219217" lon="8.654318420549796"><ele>326.0</ele><time>2026-05-01T15:25:10Z</time></trkpt><trkpt lat="42.2091965866216" lon="8.654148725610357"><ele>326.0</ele><time>2026-05-01T15:25:10.999Z</time></trkpt><trkpt lat="42.209172733493354" lon="8.653921477600543"><ele>326.0</ele><time>2026-05-01T15:25:11.999Z</time></trkpt><trkpt lat="42.20918900941288" lon="8.653654829181198"><ele>326.0</ele><time>2026-05-01T15:25:12.999Z</time></trkpt><trkpt lat="42.209224539571125" lon="8.653377801664936"><ele>327.0</ele><time>2026-05-01T15:25:13.999Z</time></trkpt><trkpt lat="42.20921943389483" lon="8.653120536361708"><ele>328.0</ele><time>2026-05-01T15:25:14.999Z</time></trkpt><trkpt lat="42.20914704261621" lon="8.652904775306602"><ele>329.0</ele><time>2026-05-01T15:25:15.999Z</time></trkpt><trkpt lat="42.20900676881937" lon="8.652760147731769"><ele>322.33333333333337</ele><time>2026-05-01T15:25:16.999Z</time></trkpt><trkpt lat="42.20883266904797" lon="8.65265565928869"><ele>315.6666666666667</ele><time>2026-05-01T15:25:17.999Z</time></trkpt><trkpt lat="42.20864084794705" lon="8.652556105989143"><ele>309.0</ele><time>2026-05-01T15:25:18.999Z</time></trkpt><trkpt lat="42.20847510259977" lon="8.65240913572425"><ele>309.0</ele><time>2026-05-01T15:25:19.999Z</time></trkpt><trkpt lat="42.20834537946041" lon="8.65217265469757"><ele>309.0</ele><time>2026-05-01T15:25:20.999Z</time></trkpt><trkpt lat="42.20822882046421" lon="8.651887514989292"><ele>301.5</ele><time>2026-05-01T15:25:21.999Z</time></trkpt><trkpt lat="42.20811233893178" lon="8.651585334975044"><ele>294.0</ele><time>2026-05-01T15:25:22.999Z</time></trkpt><trkpt lat="42.20799338016698" lon="8.651279307292226"><ele>296.5</ele><time>2026-05-01T15:25:23.999Z</time></trkpt><trkpt lat="42.20789636119373" lon="8.65096403819864"><ele>299.0</ele><time>2026-05-01T15:25:24.999Z</time></trkpt><trkpt lat="42.207833149238326" lon="8.650601288881164"><ele>302.5</ele><time>2026-05-01T15:25:25.999Z</time></trkpt><trkpt lat="42.20776551137769" lon="8.650230204473294"><ele>306.0</ele><time>2026-05-01T15:25:26.999Z</time></trkpt><trkpt lat="42.2076900597772" lon="8.649856807377239"><ele>306.0</ele><time>2026-05-01T15:25:27.999Z</time></trkpt><trkpt lat="42.20761809433581" lon="8.649474770791914"><ele>306.0</ele><time>2026-05-01T15:25:28.999Z</time></trkpt><trkpt lat="42.20755112352258" lon="8.649087227389064"><ele>304.0</ele><time>2026-05-01T15:25:29.999Z</time></trkpt><trkpt lat="42.207491176656966" lon="8.648721791010791"><ele>302.0</ele><time>2026-05-01T15:25:30.999Z</time></trkpt><trkpt lat="42.20743404335408" lon="8.648373153321138"><ele>300.5</ele><time>2026-05-01T15:25:31.999Z</time></trkpt><trkpt lat="42.20738097414628" lon="8.648041110974052"><ele>299.0</ele><time>2026-05-01T15:25:32.999Z</time></trkpt><trkpt lat="42.20734346815667" lon="8.647733632877186"><ele>299.0</ele><time>2026-05-01T15:25:33.999Z</time></trkpt><trkpt lat="42.20732675607822" lon="8.64744483087445"><ele>299.0</ele><time>2026-05-01T15:25:34.999Z</time></trkpt><trkpt lat="42.207347743906475" lon="8.647160770197615"><ele>299.0</ele><time>2026-05-01T15:25:35.999Z</time></trkpt><trkpt lat="42.207387289542126" lon="8.6468991030003"><ele>295.33333333333337</ele><time>2026-05-01T15:25:36.999Z</time></trkpt><trkpt lat="42.20744695069954" lon="8.646705094175298"><ele>291.6666666666667</ele><time>2026-05-01T15:25:37.999Z</time></trkpt><trkpt lat="42.20754281507882" lon="8.646547983323169"><ele>288.0</ele><time>2026-05-01T15:25:38.999Z</time></trkpt><trkpt lat="42.20766904345969" lon="8.646407360635163"><ele>288.0</ele><time>2026-05-01T15:25:39.999Z</time></trkpt><trkpt lat="42.20778568606512" lon="8.646251918053352"><ele>288.0</ele><time>2026-05-01T15:25:40.999Z</time></trkpt><trkpt lat="42.2078377729361" lon="8.646098621224322"><ele>288.0</ele><time>2026-05-01T15:25:41.999Z</time></trkpt><trkpt lat="42.20781069240042" lon="8.645951436010751"><ele>288.0</ele><time>2026-05-01T15:25:42.999Z</time></trkpt><trkpt lat="42.20772964275269" lon="8.645828727185474"><ele>286.0</ele><time>2026-05-01T15:25:43.999Z</time></trkpt><trkpt lat="42.2076010638461" lon="8.64570322505666"><ele>284.0</ele><time>2026-05-01T15:25:44.999Z</time></trkpt><trkpt lat="42.20742235233639" lon="8.645578432838725"><ele>282.0</ele><time>2026-05-01T15:25:45.999Z</time></trkpt><trkpt lat="42.207235847375046" lon="8.645430697452214"><ele>285.3333333333333</ele><time>2026-05-01T15:25:46.999Z</time></trkpt><trkpt lat="42.20705682398852" lon="8.645303976657052"><ele>288.66666666666663</ele><time>2026-05-01T15:25:47.999Z</time></trkpt><trkpt lat="42.206874707104646" lon="8.645269089358026"><ele>292.0</ele><time>2026-05-01T15:25:48.999Z</time></trkpt><trkpt lat="42.206678127985974" lon="8.64530984580982"><ele>283.0</ele><time>2026-05-01T15:25:49.999Z</time></trkpt><trkpt lat="42.20646971316631" lon="8.6453190414856"><ele>274.0</ele><time>2026-05-01T15:25:50.999Z</time></trkpt><trkpt lat="42.20626736978648" lon="8.645249309731154"><ele>265.0</ele><time>2026-05-01T15:25:51.999Z</time></trkpt><trkpt lat="42.20608958536262" lon="8.645090691149772"><ele>265.0</ele><time>2026-05-01T15:25:52.999Z</time></trkpt><trkpt lat="42.20592654166061" lon="8.64487398196106"><ele>265.0</ele><time>2026-05-01T15:25:53.999Z</time></trkpt><trkpt lat="42.205771447163755" lon="8.644621005946442"><ele>263.0</ele><time>2026-05-01T15:25:54.999Z</time></trkpt><trkpt lat="42.20560385595232" lon="8.644377671631647"><ele>261.0</ele><time>2026-05-01T15:25:55.999Z</time></trkpt><trkpt lat="42.20543990235974" lon="8.644208444139089"><ele>261.0</ele><time>2026-05-01T15:25:56.999Z</time></trkpt><trkpt lat="42.2052588846586" lon="8.644110319283826"><ele>261.0</ele><time>2026-05-01T15:25:57.999Z</time></trkpt><trkpt lat="42.205042405148134" lon="8.644049244421998"><ele>261.0</ele><time>2026-05-01T15:25:58.999Z</time></trkpt><trkpt lat="42.20484930494626" lon="8.643928546717438"><ele>261.6666666666667</ele><time>2026-05-01T15:25:59.999Z</time></trkpt><trkpt lat="42.20470643180698" lon="8.643742865439526"><ele>262.33333333333337</ele><time>2026-05-01T15:26:00.999Z</time></trkpt><trkpt lat="42.20460528873941" lon="8.64352453051108"><ele>263.0</ele><time>2026-05-01T15:26:01.999Z</time></trkpt><trkpt lat="42.204501814212215" lon="8.643320831987596"><ele>263.0</ele><time>2026-05-01T15:26:02.999Z</time></trkpt><trkpt lat="42.204378898482126" lon="8.643214623145264"><ele>263.0</ele><time>2026-05-01T15:26:03.999Z</time></trkpt><trkpt lat="42.20422384394293" lon="8.643189664723655"><ele>263.0</ele><time>2026-05-01T15:26:04.999Z</time></trkpt><trkpt lat="42.204046811204016" lon="8.643251391844275"><ele>256.6666666666667</ele><time>2026-05-01T15:26:05.999Z</time></trkpt><trkpt lat="42.203860305338694" lon="8.643315101347117"><ele>250.33333333333331</ele><time>2026-05-01T15:26:06.999Z</time></trkpt><trkpt lat="42.20367249818764" lon="8.64331313804007"><ele>244.0</ele><time>2026-05-01T15:26:07.999Z</time></trkpt><trkpt lat="42.20352350999646" lon="8.643223634667613"><ele>244.0</ele><time>2026-05-01T15:26:08.999Z</time></trkpt><trkpt lat="42.20343202053377" lon="8.643068989639254"><ele>244.0</ele><time>2026-05-01T15:26:09.999Z</time></trkpt><trkpt lat="42.20338201366083" lon="8.642846449366834"><ele>244.0</ele><time>2026-05-01T15:26:10.999Z</time></trkpt><trkpt lat="42.20330850426811" lon="8.642584108939365"><ele>247.66666666666666</ele><time>2026-05-01T15:26:11.999Z</time></trkpt><trkpt lat="42.203198736494954" lon="8.642343383726072"><ele>251.33333333333331</ele><time>2026-05-01T15:26:12.999Z</time></trkpt><trkpt lat="42.20311143752668" lon="8.642141257415725"><ele>255.0</ele><time>2026-05-01T15:26:14Z</time></trkpt><trkpt lat="42.20308675395437" lon="8.641960601156867"><ele>256.0</ele><time>2026-05-01T15:26:15Z</time></trkpt><trkpt lat="42.20312423258537" lon="8.641782136783565"><ele>257.0</ele><time>2026-05-01T15:26:16Z</time></trkpt><trkpt lat="42.203201486029016" lon="8.64161542816403"><ele>258.0</ele><time>2026-05-01T15:26:17Z</time></trkpt><trkpt lat="42.203239186716544" lon="8.641456042035772"><ele>259.0</ele><time>2026-05-01T15:26:18Z</time></trkpt><trkpt lat="42.20318257526688" lon="8.641322505180872"><ele>250.75</ele><time>2026-05-01T15:26:19Z</time></trkpt><trkpt lat="42.20307429024817" lon="8.641288506662102"><ele>242.5</ele><time>2026-05-01T15:26:20Z</time></trkpt><trkpt lat="42.202938190102195" lon="8.641272559289762"><ele>234.25</ele><time>2026-05-01T15:26:21Z</time></trkpt><trkpt lat="42.20279951373088" lon="8.641253994342554"><ele>226.0</ele><time>2026-05-01T15:26:22Z</time></trkpt><trkpt lat="42.202669796294195" lon="8.641180282078318"><ele>229.5</ele><time>2026-05-01T15:26:23Z</time></trkpt><trkpt lat="42.20255872643977" lon="8.641051813325033"><ele>233.0</ele><time>2026-05-01T15:26:24Z</time></trkpt><trkpt lat="42.20245508413963" lon="8.640902848190334"><ele>236.5</ele><time>2026-05-01T15:26:25Z</time></trkpt><trkpt lat="42.202351418109515" lon="8.640776530786894"><ele>240.0</ele><time>2026-05-01T15:26:26Z</time></trkpt><trkpt lat="42.20222377528372" lon="8.640725809084332"><ele>240.0</ele><time>2026-05-01T15:26:27Z</time></trkpt><trkpt lat="42.20207483669102" lon="8.640763423961367"><ele>240.0</ele><time>2026-05-01T15:26:28Z</time></trkpt><trkpt lat="42.20191599238834" lon="8.640870651729822"><ele>240.0</ele><time>2026-05-01T15:26:29Z</time></trkpt><trkpt lat="42.201742587279824" lon="8.640933007129233"><ele>240.0</ele><time>2026-05-01T15:26:30Z</time></trkpt><trkpt lat="42.201555442746105" lon="8.64094063859101"><ele>240.0</ele><time>2026-05-01T15:26:31Z</time></trkpt><trkpt lat="42.20135869317468" lon="8.64092994334952"><ele>240.0</ele><time>2026-05-01T15:26:32Z</time></trkpt><trkpt lat="42.20117388282647" lon="8.640934592700413"><ele>236.25</ele><time>2026-05-01T15:26:33Z</time></trkpt><trkpt lat="42.201019027888485" lon="8.640936494043993"><ele>232.5</ele><time>2026-05-01T15:26:34Z</time></trkpt><trkpt lat="42.200884305339514" lon="8.640895437884321"><ele>228.75</ele><time>2026-05-01T15:26:35Z</time></trkpt><trkpt lat="42.20076248327073" lon="8.6408038506209"><ele>225.0</ele><time>2026-05-01T15:26:36Z</time></trkpt><trkpt lat="42.20066369168621" lon="8.640660236079016"><ele>222.75</ele><time>2026-05-01T15:26:37Z</time></trkpt><trkpt lat="42.20058895427381" lon="8.64047998095679"><ele>220.5</ele><time>2026-05-01T15:26:38Z</time></trkpt><trkpt lat="42.20054986905416" lon="8.64028681845954"><ele>218.25</ele><time>2026-05-01T15:26:39Z</time></trkpt><trkpt lat="42.200534213006044" lon="8.640104480069075"><ele>216.0</ele><time>2026-05-01T15:26:40Z</time></trkpt><trkpt lat="42.200486011693265" lon="8.639967836224015"><ele>216.0</ele><time>2026-05-01T15:26:41Z</time></trkpt><trkpt lat="42.200378812876366" lon="8.639876184482072"><ele>216.0</ele><time>2026-05-01T15:26:42Z</time></trkpt><trkpt lat="42.20023093670756" lon="8.639836363886264"><ele>216.0</ele><time>2026-05-01T15:26:43Z</time></trkpt><trkpt lat="42.200056002971536" lon="8.639850438352125"><ele>216.0</ele><time>2026-05-01T15:26:44Z</time></trkpt><trkpt lat="42.19986786012779" lon="8.639849139463214"><ele>216.0</ele><time>2026-05-01T15:26:45Z</time></trkpt><trkpt lat="42.19968494446965" lon="8.639807428528016"><ele>216.0</ele><time>2026-05-01T15:26:46Z</time></trkpt><trkpt lat="42.19951387162044" lon="8.639701857954554"><ele>218.0</ele><time>2026-05-01T15:26:47Z</time></trkpt><trkpt lat="42.19934046212026" lon="8.639554796977206"><ele>220.0</ele><time>2026-05-01T15:26:48Z</time></trkpt><trkpt lat="42.19915245471716" lon="8.639418797844"><ele>222.0</ele><time>2026-05-01T15:26:49Z</time></trkpt><trkpt lat="42.19894893529671" lon="8.6393350775745"><ele>214.66666666666669</ele><time>2026-05-01T15:26:50Z</time></trkpt><trkpt lat="42.19875462869325" lon="8.639270730467825"><ele>207.33333333333334</ele><time>2026-05-01T15:26:51Z</time></trkpt><trkpt lat="42.19858559997473" lon="8.639199806175707"><ele>200.0</ele><time>2026-05-01T15:26:52Z</time></trkpt><trkpt lat="42.19842721296761" lon="8.639126458400913"><ele>200.0</ele><time>2026-05-01T15:26:53Z</time></trkpt><trkpt lat="42.1982909022407" lon="8.63902746093702"><ele>200.0</ele><time>2026-05-01T15:26:54Z</time></trkpt><trkpt lat="42.19819166805624" lon="8.638869233653724"><ele>200.0</ele><time>2026-05-01T15:26:55Z</time></trkpt><trkpt lat="42.19811724870147" lon="8.638649796675494"><ele>195.66666666666669</ele><time>2026-05-01T15:26:56Z</time></trkpt><trkpt lat="42.19805645391926" lon="8.638425084448748"><ele>191.33333333333334</ele><time>2026-05-01T15:26:57Z</time></trkpt><trkpt lat="42.197936839082516" lon="8.63821985219553"><ele>187.0</ele><time>2026-05-01T15:26:58Z</time></trkpt><trkpt lat="42.19776430782282" lon="8.638046176103535"><ele>187.0</ele><time>2026-05-01T15:26:59Z</time></trkpt><trkpt lat="42.19760543783592" lon="8.637866633439923"><ele>187.0</ele><time>2026-05-01T15:27:00Z</time></trkpt><trkpt lat="42.19745824697134" lon="8.63769223550381"><ele>187.0</ele><time>2026-05-01T15:27:01Z</time></trkpt><trkpt lat="42.19731004211757" lon="8.637541422418227"><ele>189.33333333333334</ele><time>2026-05-01T15:27:02Z</time></trkpt><trkpt lat="42.197152301771666" lon="8.63743311970518"><ele>191.66666666666669</ele><time>2026-05-01T15:27:03Z</time></trkpt><trkpt lat="42.19698348885448" lon="8.63740487267125"><ele>194.0</ele><time>2026-05-01T15:27:04Z</time></trkpt><trkpt lat="42.196802691643605" lon="8.63742439089384"><ele>194.0</ele><time>2026-05-01T15:27:05Z</time></trkpt><trkpt lat="42.196618261175736" lon="8.6374461811951"><ele>194.0</ele><time>2026-05-01T15:27:06Z</time></trkpt><trkpt lat="42.19641917510929" lon="8.637423838313472"><ele>194.0</ele><time>2026-05-01T15:27:07Z</time></trkpt><trkpt lat="42.19622748740029" lon="8.637339360637169"><ele>187.66666666666669</ele><time>2026-05-01T15:27:08Z</time></trkpt><trkpt lat="42.196044858462066" lon="8.637216276958812"><ele>181.33333333333334</ele><time>2026-05-01T15:27:09Z</time></trkpt><trkpt lat="42.195867072507625" lon="8.637091049034712"><ele>175.0</ele><time>2026-05-01T15:27:10Z</time></trkpt><trkpt lat="42.19569010838388" lon="8.637009945837749"><ele>172.5</ele><time>2026-05-01T15:27:11Z</time></trkpt><trkpt lat="42.195520374280214" lon="8.63696598719481"><ele>170.0</ele><time>2026-05-01T15:27:12Z</time></trkpt><trkpt lat="42.19537027863159" lon="8.636945406077334"><ele>167.5</ele><time>2026-05-01T15:27:12.999Z</time></trkpt><trkpt lat="42.19526051953714" lon="8.636895664192194"><ele>165.0</ele><time>2026-05-01T15:27:13.999Z</time></trkpt><trkpt lat="42.19519372718963" lon="8.636803375581534"><ele>165.0</ele><time>2026-05-01T15:27:14.999Z</time></trkpt><trkpt lat="42.19516213098671" lon="8.636676452527297"><ele>165.0</ele><time>2026-05-01T15:27:15.999Z</time></trkpt><trkpt lat="42.19516629621075" lon="8.636537866846165"><ele>165.0</ele><time>2026-05-01T15:27:16.999Z</time></trkpt><trkpt lat="42.19520867554183" lon="8.636387440404059"><ele>165.0</ele><time>2026-05-01T15:27:17.999Z</time></trkpt><trkpt lat="42.195292255336504" lon="8.636220381659255"><ele>162.0</ele><time>2026-05-01T15:27:18.999Z</time></trkpt><trkpt lat="42.19539811714218" lon="8.636053248550702"><ele>159.0</ele><time>2026-05-01T15:27:19.999Z</time></trkpt><trkpt lat="42.19548716781469" lon="8.635871253958554"><ele>156.0</ele><time>2026-05-01T15:27:20.999Z</time></trkpt><trkpt lat="42.19552959113718" lon="8.635662974139748"><ele>156.0</ele><time>2026-05-01T15:27:21.999Z</time></trkpt><trkpt lat="42.19551386151813" lon="8.635464224633973"><ele>156.0</ele><time>2026-05-01T15:27:22.999Z</time></trkpt><trkpt lat="42.19546724331023" lon="8.635275548160083"><ele>156.0</ele><time>2026-05-01T15:27:23.999Z</time></trkpt><trkpt lat="42.19536656035591" lon="8.635116038965657"><ele>159.66666666666666</ele><time>2026-05-01T15:27:24.999Z</time></trkpt><trkpt lat="42.195221267715425" lon="8.635004922071863"><ele>163.33333333333331</ele><time>2026-05-01T15:27:25.999Z</time></trkpt><trkpt lat="42.19504148162683" lon="8.6349116859212"><ele>167.0</ele><time>2026-05-01T15:27:26.999Z</time></trkpt><trkpt lat="42.19486267414071" lon="8.634773203466674"><ele>164.0</ele><time>2026-05-01T15:27:27.999Z</time></trkpt><trkpt lat="42.194719371737705" lon="8.634588571930303"><ele>161.0</ele><time>2026-05-01T15:27:28.999Z</time></trkpt><trkpt lat="42.194583855191105" lon="8.634364391221734"><ele>158.0</ele><time>2026-05-01T15:27:29.999Z</time></trkpt><trkpt lat="42.194431263599576" lon="8.634169214058039"><ele>158.0</ele><time>2026-05-01T15:27:30.999Z</time></trkpt><trkpt lat="42.19422140567025" lon="8.634020972247026"><ele>158.0</ele><time>2026-05-01T15:27:31.999Z</time></trkpt><trkpt lat="42.1939610791933" lon="8.633885030858155"><ele>162.0</ele><time>2026-05-01T15:27:32.999Z</time></trkpt><trkpt lat="42.19370224830734" lon="8.633735972278277"><ele>166.0</ele><time>2026-05-01T15:27:33.999Z</time></trkpt><trkpt lat="42.19346654488352" lon="8.63359901571227"><ele>166.0</ele><time>2026-05-01T15:27:34.999Z</time></trkpt><trkpt lat="42.193234095820166" lon="8.633516866040335"><ele>166.0</ele><time>2026-05-01T15:27:35.999Z</time></trkpt><trkpt lat="42.19300326248343" lon="8.633476683838042"><ele>160.0</ele><time>2026-05-01T15:27:36.999Z</time></trkpt><trkpt lat="42.19278130378542" lon="8.633450634464944"><ele>154.0</ele><time>2026-05-01T15:27:37.999Z</time></trkpt><trkpt lat="42.192586157531196" lon="8.633416491072236"><ele>148.0</ele><time>2026-05-01T15:27:38.999Z</time></trkpt><trkpt lat="42.19244324708776" lon="8.633375101231644"><ele>140.25</ele><time>2026-05-01T15:27:39.999Z</time></trkpt><trkpt lat="42.19233359294239" lon="8.633328962578975"><ele>132.5</ele><time>2026-05-01T15:27:40.999Z</time></trkpt><trkpt lat="42.192237916858616" lon="8.633241999266215"><ele>124.75</ele><time>2026-05-01T15:27:41.999Z</time></trkpt><trkpt lat="42.192171920761346" lon="8.633110338090562"><ele>117.0</ele><time>2026-05-01T15:27:42.999Z</time></trkpt><trkpt lat="42.192139859474594" lon="8.63294104636238"><ele>116.66666666666666</ele><time>2026-05-01T15:27:43.999Z</time></trkpt><trkpt lat="42.19213892062191" lon="8.632753161241075"><ele>116.33333333333333</ele><time>2026-05-01T15:27:44.999Z</time></trkpt><trkpt lat="42.19218105453484" lon="8.632558324054392"><ele>116.0</ele><time>2026-05-01T15:27:45.999Z</time></trkpt><trkpt lat="42.19226650146391" lon="8.632361395343297"><ele>124.0</ele><time>2026-05-01T15:27:46.999Z</time></trkpt><trkpt lat="42.19237502971922" lon="8.632165855873367"><ele>132.0</ele><time>2026-05-01T15:27:47.999Z</time></trkpt><trkpt lat="42.19248310338146" lon="8.631970803302673"><ele>140.0</ele><time>2026-05-01T15:27:48.999Z</time></trkpt><trkpt lat="42.192566250736505" lon="8.631766844199793"><ele>140.0</ele><time>2026-05-01T15:27:49.999Z</time></trkpt><trkpt lat="42.19259888151884" lon="8.63155790111797"><ele>140.0</ele><time>2026-05-01T15:27:50.999Z</time></trkpt><trkpt lat="42.1925975046501" lon="8.631363757665456"><ele>140.0</ele><time>2026-05-01T15:27:51.999Z</time></trkpt><trkpt lat="42.19254945816689" lon="8.631193120546467"><ele>140.0</ele><time>2026-05-01T15:27:52.999Z</time></trkpt><trkpt lat="42.19245391119557" lon="8.631078432450899"><ele>135.33333333333331</ele><time>2026-05-01T15:27:53.999Z</time></trkpt><trkpt lat="42.19230028860438" lon="8.630991772611436"><ele>130.66666666666666</ele><time>2026-05-01T15:27:54.999Z</time></trkpt><trkpt lat="42.19210067900941" lon="8.630934904687106"><ele>126.0</ele><time>2026-05-01T15:27:55.999Z</time></trkpt><trkpt lat="42.19188274291093" lon="8.630877379313631"><ele>126.0</ele><time>2026-05-01T15:27:56.999Z</time></trkpt><trkpt lat="42.19169676192494" lon="8.630802798715608"><ele>126.0</ele><time>2026-05-01T15:27:57.999Z</time></trkpt><trkpt lat="42.191531663441005" lon="8.630717758327094"><ele>126.0</ele><time>2026-05-01T15:27:58.999Z</time></trkpt><trkpt lat="42.191395998521834" lon="8.630630125170724"><ele>122.25</ele><time>2026-05-01T15:27:59.999Z</time></trkpt><trkpt lat="42.19130185982969" lon="8.630523142652663"><ele>118.5</ele><time>2026-05-01T15:28:00.999Z</time></trkpt><trkpt lat="42.191256675952566" lon="8.630397806372612"><ele>114.75</ele><time>2026-05-01T15:28:01.999Z</time></trkpt><trkpt lat="42.19128826401281" lon="8.63025553222183"><ele>111.0</ele><time>2026-05-01T15:28:02.999Z</time></trkpt><trkpt lat="42.19136050550671" lon="8.630115432199462"><ele>111.0</ele><time>2026-05-01T15:28:03.999Z</time></trkpt><trkpt lat="42.19149059746399" lon="8.630007349157918"><ele>111.0</ele><time>2026-05-01T15:28:04.999Z</time></trkpt><trkpt lat="42.191682003553126" lon="8.629937834682389"><ele>111.0</ele><time>2026-05-01T15:28:05.999Z</time></trkpt><trkpt lat="42.19189441964639" lon="8.629886014697743"><ele>113.33333333333334</ele><time>2026-05-01T15:28:06.999Z</time></trkpt><trkpt lat="42.19207184858373" lon="8.629822127674242"><ele>115.66666666666667</ele><time>2026-05-01T15:28:07.999Z</time></trkpt><trkpt lat="42.192248955953715" lon="8.62972168638366"><ele>118.0</ele><time>2026-05-01T15:28:08.999Z</time></trkpt><trkpt lat="42.19243835939527" lon="8.629590441897493"><ele>111.5</ele><time>2026-05-01T15:28:09.999Z</time></trkpt><trkpt lat="42.192635172755395" lon="8.629444417926829"><ele>105.0</ele><time>2026-05-01T15:28:10.999Z</time></trkpt><trkpt lat="42.19283829346853" lon="8.6292976879043"><ele>105.0</ele><time>2026-05-01T15:28:11.999Z</time></trkpt><trkpt lat="42.19304210245875" lon="8.629144677564087"><ele>105.0</ele><time>2026-05-01T15:28:12.999Z</time></trkpt><trkpt lat="42.19323475430895" lon="8.628967066819015"><ele>105.33333333333334</ele><time>2026-05-01T15:28:13.999Z</time></trkpt><trkpt lat="42.19339416381548" lon="8.628765582550281"><ele>105.66666666666667</ele><time>2026-05-01T15:28:14.998Z</time></trkpt><trkpt lat="42.193527689801684" lon="8.628568284696435"><ele>106.0</ele><time>2026-05-01T15:28:15.998Z</time></trkpt><trkpt lat="42.19363452344686" lon="8.628416946730853"><ele>106.0</ele><time>2026-05-01T15:28:16.998Z</time></trkpt><trkpt lat="42.1937026246738" lon="8.628290585676206"><ele>106.0</ele><time>2026-05-01T15:28:17.998Z</time></trkpt><trkpt lat="42.19372300791772" lon="8.628166787270906"><ele>106.0</ele><time>2026-05-01T15:28:18.998Z</time></trkpt><trkpt lat="42.193707040548375" lon="8.628030783829377"><ele>106.0</ele><time>2026-05-01T15:28:20Z</time></trkpt><trkpt lat="42.19365035307842" lon="8.627905279583594"><ele>106.0</ele><time>2026-05-01T15:28:21Z</time></trkpt><trkpt lat="42.19356322598525" lon="8.627831072614212"><ele>106.0</ele><time>2026-05-01T15:28:22Z</time></trkpt><trkpt lat="42.19343534452452" lon="8.627820702111558"><ele>106.0</ele><time>2026-05-01T15:28:23Z</time></trkpt><trkpt lat="42.193295962880846" lon="8.627869592179872"><ele>106.0</ele><time>2026-05-01T15:28:24Z</time></trkpt><trkpt lat="42.19314808969956" lon="8.627958164205781"><ele>106.0</ele><time>2026-05-01T15:28:25Z</time></trkpt><trkpt lat="42.1929927222463" lon="8.628036867076805"><ele>101.33333333333334</ele><time>2026-05-01T15:28:26Z</time></trkpt><trkpt lat="42.192835038138234" lon="8.628031955511233"><ele>96.66666666666667</ele><time>2026-05-01T15:28:27Z</time></trkpt><trkpt lat="42.19266152532687" lon="8.627949317332565"><ele>92.0</ele><time>2026-05-01T15:28:28Z</time></trkpt><trkpt lat="42.19248577329096" lon="8.62785583098567"><ele>89.33333333333334</ele><time>2026-05-01T15:28:29Z</time></trkpt><trkpt lat="42.19230550377607" lon="8.627787222980418"><ele>86.66666666666667</ele><time>2026-05-01T15:28:30Z</time></trkpt><trkpt lat="42.192114655305105" lon="8.627794606601281"><ele>84.0</ele><time>2026-05-01T15:28:31Z</time></trkpt><trkpt lat="42.19191982980776" lon="8.627877280312035"><ele>84.0</ele><time>2026-05-01T15:28:32Z</time></trkpt><trkpt lat="42.19172839423093" lon="8.627962239217462"><ele>84.0</ele><time>2026-05-01T15:28:33Z</time></trkpt><trkpt lat="42.19154529969277" lon="8.627999354367576"><ele>84.0</ele><time>2026-05-01T15:28:34Z</time></trkpt><trkpt lat="42.19134853623275" lon="8.627978557469214"><ele>78.0</ele><time>2026-05-01T15:28:35Z</time></trkpt><trkpt lat="42.19112520790679" lon="8.627919342420302"><ele>72.0</ele><time>2026-05-01T15:28:36Z</time></trkpt><trkpt lat="42.19087391767373" lon="8.62783931579775"><ele>83.5</ele><time>2026-05-01T15:28:37Z</time></trkpt><trkpt lat="42.190594805002284" lon="8.627772128385171"><ele>95.0</ele><time>2026-05-01T15:28:38Z</time></trkpt><trkpt lat="42.19030013836676" lon="8.627731062109545"><ele>95.0</ele><time>2026-05-01T15:28:39Z</time></trkpt><trkpt lat="42.18999321170134" lon="8.62770116064155"><ele>95.0</ele><time>2026-05-01T15:28:40Z</time></trkpt><trkpt lat="42.18970745308043" lon="8.627668343986496"><ele>89.5</ele><time>2026-05-01T15:28:41Z</time></trkpt><trkpt lat="42.1894420804422" lon="8.627623872750373"><ele>84.0</ele><time>2026-05-01T15:28:42Z</time></trkpt><trkpt lat="42.18920302581544" lon="8.627593656532808"><ele>78.66666666666667</ele><time>2026-05-01T15:28:43Z</time></trkpt><trkpt lat="42.18898285286666" lon="8.627574331732514"><ele>73.33333333333334</ele><time>2026-05-01T15:28:44Z</time></trkpt><trkpt lat="42.18878313000765" lon="8.627553415003499"><ele>68.0</ele><time>2026-05-01T15:28:45Z</time></trkpt><trkpt lat="42.18860241647978" lon="8.62751446159831"><ele>68.0</ele><time>2026-05-01T15:28:46Z</time></trkpt><trkpt lat="42.18844596410008" lon="8.627428706281474"><ele>68.0</ele><time>2026-05-01T15:28:47Z</time></trkpt><trkpt lat="42.18830953319805" lon="8.627292865503032"><ele>68.0</ele><time>2026-05-01T15:28:48Z</time></trkpt><trkpt lat="42.1881958412094" lon="8.62712356325722"><ele>59.66666666666667</ele><time>2026-05-01T15:28:49Z</time></trkpt><trkpt lat="42.18810880494228" lon="8.626933526834227"><ele>51.333333333333336</ele><time>2026-05-01T15:28:50Z</time></trkpt><trkpt lat="42.188059329640005" lon="8.626695307798382"><ele>43.0</ele><time>2026-05-01T15:28:51Z</time></trkpt><trkpt lat="42.18802059184732" lon="8.626386994585422"><ele>44.0</ele><time>2026-05-01T15:28:52Z</time></trkpt><trkpt lat="42.187990591836844" lon="8.626022240675724"><ele>45.0</ele><time>2026-05-01T15:28:53Z</time></trkpt><trkpt lat="42.18795363619478" lon="8.62562951555571"><ele>47.0</ele><time>2026-05-01T15:28:54Z</time></trkpt><trkpt lat="42.18791243912534" lon="8.625223350402553"><ele>49.0</ele><time>2026-05-01T15:28:55Z</time></trkpt><trkpt lat="42.18785549667844" lon="8.624843020692662"><ele>49.0</ele><time>2026-05-01T15:28:56Z</time></trkpt><trkpt lat="42.18777744806204" lon="8.624493188318318"><ele>49.0</ele><time>2026-05-01T15:28:57Z</time></trkpt><trkpt lat="42.18771451920741" lon="8.624181945492074"><ele>51.0</ele><time>2026-05-01T15:28:58Z</time></trkpt><trkpt lat="42.18765801120518" lon="8.623895387908808"><ele>53.0</ele><time>2026-05-01T15:28:59Z</time></trkpt><trkpt lat="42.187557223547614" lon="8.623602047346376"><ele>57.5</ele><time>2026-05-01T15:29:00Z</time></trkpt><trkpt lat="42.187396341935234" lon="8.62329171474063"><ele>62.0</ele><time>2026-05-01T15:29:01Z</time></trkpt><trkpt lat="42.187225517876385" lon="8.622957547993686"><ele>50.5</ele><time>2026-05-01T15:29:02Z</time></trkpt><trkpt lat="42.18706841838271" lon="8.622581291096637"><ele>39.0</ele><time>2026-05-01T15:29:03Z</time></trkpt><trkpt lat="42.18694490448222" lon="8.622209095700478"><ele>44.0</ele><time>2026-05-01T15:29:04Z</time></trkpt><trkpt lat="42.18682823221553" lon="8.621877290983864"><ele>49.0</ele><time>2026-05-01T15:29:05Z</time></trkpt><trkpt lat="42.18668078332996" lon="8.62155543279402"><ele>49.0</ele><time>2026-05-01T15:29:06Z</time></trkpt><trkpt lat="42.186516583272834" lon="8.621240179460045"><ele>49.0</ele><time>2026-05-01T15:29:07Z</time></trkpt><trkpt lat="42.18636139890339" lon="8.62093119084434"><ele>40.0</ele><time>2026-05-01T15:29:08Z</time></trkpt><trkpt lat="42.186220177800124" lon="8.620628996530943"><ele>31.0</ele><time>2026-05-01T15:29:09Z</time></trkpt><trkpt lat="42.18608595961336" lon="8.62033783030288"><ele>34.333333333333336</ele><time>2026-05-01T15:29:10Z</time></trkpt><trkpt lat="42.18595716367163" lon="8.62006712417283"><ele>37.666666666666664</ele><time>2026-05-01T15:29:10.999Z</time></trkpt><trkpt lat="42.18582834700646" lon="8.61984235996834"><ele>41.0</ele><time>2026-05-01T15:29:11.999Z</time></trkpt><trkpt lat="42.185696392059995" lon="8.619650446352006"><ele>34.33333333333333</ele><time>2026-05-01T15:29:12.999Z</time></trkpt><trkpt lat="42.1855764575435" lon="8.619468622931832"><ele>27.666666666666664</ele><time>2026-05-01T15:29:13.999Z</time></trkpt><trkpt lat="42.18546658249955" lon="8.619245905077502"><ele>21.0</ele><time>2026-05-01T15:29:14.999Z</time></trkpt><trkpt lat="42.18536876933897" lon="8.618986238033271"><ele>21.0</ele><time>2026-05-01T15:29:15.999Z</time></trkpt><trkpt lat="42.18526419412803" lon="8.618711302179948"><ele>21.0</ele><time>2026-05-01T15:29:16.999Z</time></trkpt><trkpt lat="42.18513962021264" lon="8.618426290470303"><ele>21.0</ele><time>2026-05-01T15:29:17.999Z</time></trkpt><trkpt lat="42.18501653889207" lon="8.618135733933379"><ele>21.0</ele><time>2026-05-01T15:29:18.999Z</time></trkpt><trkpt lat="42.18490812110031" lon="8.617870824553448"><ele>20.25</ele><time>2026-05-01T15:29:19.999Z</time></trkpt><trkpt lat="42.184834540940514" lon="8.617694682609887"><ele>19.5</ele><time>2026-05-01T15:29:20.999Z</time></trkpt><trkpt lat="42.184752375941294" lon="8.617548022640218"><ele>18.75</ele><time>2026-05-01T15:29:21.999Z</time></trkpt><trkpt lat="42.18462494136572" lon="8.617431689939641"><ele>18.0</ele><time>2026-05-01T15:29:22.999Z</time></trkpt><trkpt lat="42.184468770069174" lon="8.6173510368762"><ele>18.0</ele><time>2026-05-01T15:29:23.999Z</time></trkpt><trkpt lat="42.18428354788288" lon="8.61733032023011"><ele>18.0</ele><time>2026-05-01T15:29:24.999Z</time></trkpt><trkpt lat="42.18410519856512" lon="8.617380783540053"><ele>18.0</ele><time>2026-05-01T15:29:25.999Z</time></trkpt><trkpt lat="42.18391917879098" lon="8.61743799755844"><ele>18.666666666666668</ele><time>2026-05-01T15:29:26.999Z</time></trkpt><trkpt lat="42.18373150824132" lon="8.617472229289977"><ele>19.333333333333336</ele><time>2026-05-01T15:29:27.999Z</time></trkpt><trkpt lat="42.183553737734684" lon="8.61749984122502"><ele>20.0</ele><time>2026-05-01T15:29:28.999Z</time></trkpt><trkpt lat="42.18339378475173" lon="8.617527718535737"><ele>20.0</ele><time>2026-05-01T15:29:29.999Z</time></trkpt><trkpt lat="42.18325281501819" lon="8.61753228546362"><ele>20.0</ele><time>2026-05-01T15:29:30.999Z</time></trkpt><trkpt lat="42.18311838591033" lon="8.617482149358848"><ele>20.0</ele><time>2026-05-01T15:29:31.999Z</time></trkpt><trkpt lat="42.18298352128668" lon="8.617367452262648"><ele>20.0</ele><time>2026-05-01T15:29:32.999Z</time></trkpt><trkpt lat="42.18285385125266" lon="8.617205176242791"><ele>20.0</ele><time>2026-05-01T15:29:33.999Z</time></trkpt><trkpt lat="42.1827139340281" lon="8.617017715642458"><ele>20.0</ele><time>2026-05-01T15:29:34.999Z</time></trkpt><trkpt lat="42.182557561669704" lon="8.616829622562"><ele>20.0</ele><time>2026-05-01T15:29:35.999Z</time></trkpt><trkpt lat="42.18240004241541" lon="8.616655459847395"><ele>20.0</ele><time>2026-05-01T15:29:36.999Z</time></trkpt><trkpt lat="42.18224946220014" lon="8.616485269689157"><ele>20.0</ele><time>2026-05-01T15:29:37.999Z</time></trkpt><trkpt lat="42.18210401574993" lon="8.61631127485671"><ele>20.0</ele><time>2026-05-01T15:29:38.999Z</time></trkpt><trkpt lat="42.181954592070085" lon="8.616152595205273"><ele>20.0</ele><time>2026-05-01T15:29:39.999Z</time></trkpt><trkpt lat="42.1817932352138" lon="8.615994804785009"><ele>20.0</ele><time>2026-05-01T15:29:40.999Z</time></trkpt><trkpt lat="42.181612619046675" lon="8.615850030791744"><ele>20.0</ele><time>2026-05-01T15:29:41.999Z</time></trkpt><trkpt lat="42.18142191751418" lon="8.615703673559091"><ele>25.5</ele><time>2026-05-01T15:29:42.999Z</time></trkpt><trkpt lat="42.18122816796143" lon="8.615551319288778"><ele>31.0</ele><time>2026-05-01T15:29:43.999Z</time></trkpt><trkpt lat="42.18103544332408" lon="8.615389375073015"><ele>26.0</ele><time>2026-05-01T15:29:44.999Z</time></trkpt><trkpt lat="42.18084147936227" lon="8.615239722313236"><ele>21.0</ele><time>2026-05-01T15:29:45.999Z</time></trkpt><trkpt lat="42.18063956177687" lon="8.615099463434744"><ele>21.0</ele><time>2026-05-01T15:29:46.999Z</time></trkpt><trkpt lat="42.18044301115085" lon="8.614965963625304"><ele>21.0</ele><time>2026-05-01T15:29:47.999Z</time></trkpt><trkpt lat="42.18023988359126" lon="8.614831615812244"><ele>21.0</ele><time>2026-05-01T15:29:48.999Z</time></trkpt><trkpt lat="42.1800399296168" lon="8.614705390536773"><ele>22.666666666666664</ele><time>2026-05-01T15:29:49.999Z</time></trkpt><trkpt lat="42.179848770866506" lon="8.614577602324868"><ele>24.333333333333332</ele><time>2026-05-01T15:29:50.999Z</time></trkpt><trkpt lat="42.17966104038445" lon="8.614454687511522"><ele>26.0</ele><time>2026-05-01T15:29:51.999Z</time></trkpt><trkpt lat="42.17947278176134" lon="8.614327055914965"><ele>22.0</ele><time>2026-05-01T15:29:52.999Z</time></trkpt><trkpt lat="42.179286806723645" lon="8.61418336931569"><ele>18.0</ele><time>2026-05-01T15:29:53.999Z</time></trkpt><trkpt lat="42.179091277913" lon="8.614053011749316"><ele>14.0</ele><time>2026-05-01T15:29:54.999Z</time></trkpt><trkpt lat="42.17889125495298" lon="8.613928289829495"><ele>13.5</ele><time>2026-05-01T15:29:55.999Z</time></trkpt><trkpt lat="42.17868079667723" lon="8.613801592825633"><ele>13.0</ele><time>2026-05-01T15:29:56.999Z</time></trkpt><trkpt lat="42.17847346350726" lon="8.61367721863113"><ele>11.0</ele><time>2026-05-01T15:29:57.999Z</time></trkpt><trkpt lat="42.17826013731513" lon="8.613559574440364"><ele>9.0</ele><time>2026-05-01T15:29:58.999Z</time></trkpt><trkpt lat="42.17804297003268" lon="8.613434521366253"><ele>8.5</ele><time>2026-05-01T15:29:59.999Z</time></trkpt><trkpt lat="42.17782649204327" lon="8.613315000436266"><ele>8.0</ele><time>2026-05-01T15:30:00.999Z</time></trkpt><trkpt lat="42.17760163354006" lon="8.613189898309269"><ele>8.0</ele><time>2026-05-01T15:30:01.999Z</time></trkpt><trkpt lat="42.17738118354039" lon="8.613064817423208"><ele>8.0</ele><time>2026-05-01T15:30:02.999Z</time></trkpt><trkpt lat="42.177154774152456" lon="8.612937574281185"><ele>6.5</ele><time>2026-05-01T15:30:03.999Z</time></trkpt><trkpt lat="42.17693128202765" lon="8.612812066033754"><ele>5.0</ele><time>2026-05-01T15:30:04.999Z</time></trkpt><trkpt lat="42.17670757407997" lon="8.612689302653358"><ele>6.0</ele><time>2026-05-01T15:30:05.999Z</time></trkpt><trkpt lat="42.17648761336535" lon="8.61256790534059"><ele>7.0</ele><time>2026-05-01T15:30:06.999Z</time></trkpt><trkpt lat="42.17627609393229" lon="8.612451353386874"><ele>7.0</ele><time>2026-05-01T15:30:07.999Z</time></trkpt><trkpt lat="42.1760730362718" lon="8.612339701527908"><ele>7.0</ele><time>2026-05-01T15:30:08.999Z</time></trkpt><trkpt lat="42.175876074941094" lon="8.61223104167848"><ele>7.0</ele><time>2026-05-01T15:30:09.998Z</time></trkpt><trkpt lat="42.175671991502504" lon="8.612109581274215"><ele>8.0</ele><time>2026-05-01T15:30:10.998Z</time></trkpt><trkpt lat="42.17546412353018" lon="8.611991581974058"><ele>9.0</ele><time>2026-05-01T15:30:11.998Z</time></trkpt><trkpt lat="42.17525619236659" lon="8.611874369070616"><ele>9.0</ele><time>2026-05-01T15:30:12.998Z</time></trkpt><trkpt lat="42.175044292083555" lon="8.611758024106555"><ele>9.0</ele><time>2026-05-01T15:30:13.998Z</time></trkpt><trkpt lat="42.17483570104998" lon="8.611646188449258"><ele>8.666666666666666</ele><time>2026-05-01T15:30:14.998Z</time></trkpt><trkpt lat="42.17463539350924" lon="8.611533170253217"><ele>8.333333333333332</ele><time>2026-05-01T15:30:15.998Z</time></trkpt><trkpt lat="42.17443439644503" lon="8.611419075452627"><ele>8.0</ele><time>2026-05-01T15:30:16.998Z</time></trkpt><trkpt lat="42.17423912319148" lon="8.611312238824965"><ele>8.0</ele><time>2026-05-01T15:30:17.998Z</time></trkpt><trkpt lat="42.174049348675176" lon="8.611209595041943"><ele>8.0</ele><time>2026-05-01T15:30:18.998Z</time></trkpt><trkpt lat="42.173863081704134" lon="8.611106346866798"><ele>8.0</ele><time>2026-05-01T15:30:19.998Z</time></trkpt><trkpt lat="42.17368280480452" lon="8.610989171967418"><ele>8.0</ele><time>2026-05-01T15:30:20.998Z</time></trkpt><trkpt lat="42.17351091956294" lon="8.610850270078375"><ele>8.0</ele><time>2026-05-01T15:30:21.998Z</time></trkpt><trkpt lat="42.173367874764025" lon="8.610693522649452"><ele>8.0</ele><time>2026-05-01T15:30:22.998Z</time></trkpt><trkpt lat="42.17325431811292" lon="8.610534530307223"><ele>11.666666666666666</ele><time>2026-05-01T15:30:23.998Z</time></trkpt><trkpt lat="42.173151826972585" lon="8.610375645412807"><ele>15.333333333333332</ele><time>2026-05-01T15:30:25Z</time></trkpt><trkpt lat="42.173066077784505" lon="8.61021185084388"><ele>19.0</ele><time>2026-05-01T15:30:26Z</time></trkpt><trkpt lat="42.17298866055133" lon="8.610029809505741"><ele>19.0</ele><time>2026-05-01T15:30:27Z</time></trkpt><trkpt lat="42.172921674488144" lon="8.60982282444511"><ele>19.0</ele><time>2026-05-01T15:30:28Z</time></trkpt><trkpt lat="42.17285988284188" lon="8.609599621660253"><ele>19.0</ele><time>2026-05-01T15:30:29Z</time></trkpt><trkpt lat="42.17280028989165" lon="8.609367908104957"><ele>18.666666666666664</ele><time>2026-05-01T15:30:30Z</time></trkpt><trkpt lat="42.172738660591264" lon="8.60914429784637"><ele>18.333333333333332</ele><time>2026-05-01T15:30:31Z</time></trkpt><trkpt lat="42.172672193198494" lon="8.608928256174936"><ele>18.0</ele><time>2026-05-01T15:30:32Z</time></trkpt><trkpt lat="42.172593960816016" lon="8.608720537224022"><ele>18.666666666666668</ele><time>2026-05-01T15:30:33Z</time></trkpt><trkpt lat="42.17250301109214" lon="8.60853467670674"><ele>19.333333333333336</ele><time>2026-05-01T15:30:34Z</time></trkpt><trkpt lat="42.172384191209" lon="8.608393844790767"><ele>20.0</ele><time>2026-05-01T15:30:35Z</time></trkpt><trkpt lat="42.1722377678691" lon="8.608316113531027"><ele>20.0</ele><time>2026-05-01T15:30:36Z</time></trkpt><trkpt lat="42.17207048583906" lon="8.608283221378521"><ele>20.0</ele><time>2026-05-01T15:30:37Z</time></trkpt><trkpt lat="42.17191035547156" lon="8.608302459897239"><ele>20.0</ele><time>2026-05-01T15:30:38Z</time></trkpt><trkpt lat="42.17175816788158" lon="8.60838031645077"><ele>20.0</ele><time>2026-05-01T15:30:39Z</time></trkpt><trkpt lat="42.1716098191787" lon="8.608491574916982"><ele>20.0</ele><time>2026-05-01T15:30:40Z</time></trkpt><trkpt lat="42.171456666192725" lon="8.608608234106644"><ele>20.0</ele><time>2026-05-01T15:30:41Z</time></trkpt><trkpt lat="42.1712943128048" lon="8.608723252925172"><ele>21.666666666666668</ele><time>2026-05-01T15:30:42Z</time></trkpt><trkpt lat="42.17113186069791" lon="8.608832346194017"><ele>23.333333333333336</ele><time>2026-05-01T15:30:43Z</time></trkpt><trkpt lat="42.17095655549193" lon="8.608922599423963"><ele>25.0</ele><time>2026-05-01T15:30:44Z</time></trkpt><trkpt lat="42.170777656114794" lon="8.60899308299404"><ele>26.666666666666668</ele><time>2026-05-01T15:30:45Z</time></trkpt><trkpt lat="42.17059619365022" lon="8.609046315118098"><ele>28.333333333333336</ele><time>2026-05-01T15:30:46Z</time></trkpt><trkpt lat="42.170414537000966" lon="8.609091984109144"><ele>30.0</ele><time>2026-05-01T15:30:47Z</time></trkpt><trkpt lat="42.170236705203955" lon="8.60913625323861"><ele>30.0</ele><time>2026-05-01T15:30:48Z</time></trkpt><trkpt lat="42.17006809766867" lon="8.60915657911495"><ele>30.0</ele><time>2026-05-01T15:30:49Z</time></trkpt><trkpt lat="42.169913742922944" lon="8.609140545663363"><ele>30.0</ele><time>2026-05-01T15:30:50Z</time></trkpt><trkpt lat="42.16978650947208" lon="8.609060647158373"><ele>32.666666666666664</ele><time>2026-05-01T15:30:51Z</time></trkpt><trkpt lat="42.16965608348143" lon="8.60893925784269"><ele>35.33333333333333</ele><time>2026-05-01T15:30:52Z</time></trkpt><trkpt lat="42.169527290098124" lon="8.608791474485017"><ele>38.0</ele><time>2026-05-01T15:30:53Z</time></trkpt><trkpt lat="42.16938218219531" lon="8.608635367662968"><ele>38.0</ele><time>2026-05-01T15:30:54Z</time></trkpt><trkpt lat="42.16923404903931" lon="8.608472431025234"><ele>38.0</ele><time>2026-05-01T15:30:55Z</time></trkpt><trkpt lat="42.16908418963808" lon="8.608284779000071"><ele>38.0</ele><time>2026-05-01T15:30:56Z</time></trkpt><trkpt lat="42.168936430670755" lon="8.608089096632748"><ele>40.666666666666664</ele><time>2026-05-01T15:30:57Z</time></trkpt><trkpt lat="42.16879543751022" lon="8.607894091678933"><ele>43.333333333333336</ele><time>2026-05-01T15:30:58Z</time></trkpt><trkpt lat="42.16866782274956" lon="8.60767447962863"><ele>46.0</ele><time>2026-05-01T15:30:59Z</time></trkpt><trkpt lat="42.16856710989796" lon="8.607420623488997"><ele>46.0</ele><time>2026-05-01T15:31:00Z</time></trkpt><trkpt lat="42.16847396461608" lon="8.607129884920178"><ele>46.0</ele><time>2026-05-01T15:31:01Z</time></trkpt><trkpt lat="42.168367805921804" lon="8.60682229443073"><ele>46.0</ele><time>2026-05-01T15:31:02Z</time></trkpt><trkpt lat="42.16825487991119" lon="8.606526610521781"><ele>46.0</ele><time>2026-05-01T15:31:03Z</time></trkpt><trkpt lat="42.16815316885044" lon="8.606245123192743"><ele>52.66666666666667</ele><time>2026-05-01T15:31:04Z</time></trkpt><trkpt lat="42.16806876648756" lon="8.605980581355409"><ele>59.333333333333336</ele><time>2026-05-01T15:31:05Z</time></trkpt><trkpt lat="42.167985466160815" lon="8.605711042807794"><ele>66.0</ele><time>2026-05-01T15:31:06Z</time></trkpt><trkpt lat="42.16790499038415" lon="8.605454759498407"><ele>63.33333333333333</ele><time>2026-05-01T15:31:07Z</time></trkpt><trkpt lat="42.16782884397814" lon="8.605229865605825"><ele>60.666666666666664</ele><time>2026-05-01T15:31:08Z</time></trkpt><trkpt lat="42.167752771693834" lon="8.605039069395765"><ele>58.0</ele><time>2026-05-01T15:31:09Z</time></trkpt><trkpt lat="42.16767120159813" lon="8.604873518764103"><ele>58.0</ele><time>2026-05-01T15:31:10Z</time></trkpt><trkpt lat="42.16757530673565" lon="8.604733250852233"><ele>58.0</ele><time>2026-05-01T15:31:11Z</time></trkpt><trkpt lat="42.167470420028664" lon="8.604613257345484"><ele>58.0</ele><time>2026-05-01T15:31:12Z</time></trkpt><trkpt lat="42.16736091409251" lon="8.60450183675457"><ele>58.0</ele><time>2026-05-01T15:31:13Z</time></trkpt><trkpt lat="42.16724455029002" lon="8.60439272782392"><ele>60.5</ele><time>2026-05-01T15:31:14Z</time></trkpt><trkpt lat="42.16713158307614" lon="8.604279377476194"><ele>63.0</ele><time>2026-05-01T15:31:15Z</time></trkpt><trkpt lat="42.16701554198947" lon="8.604162890837655"><ele>65.5</ele><time>2026-05-01T15:31:16Z</time></trkpt><trkpt lat="42.16689724421718" lon="8.604038213111568"><ele>68.0</ele><time>2026-05-01T15:31:17Z</time></trkpt><trkpt lat="42.166770298539255" lon="8.603904065622922"><ele>68.0</ele><time>2026-05-01T15:31:17.999Z</time></trkpt><trkpt lat="42.16663324724664" lon="8.603761230124489"><ele>68.0</ele><time>2026-05-01T15:31:18.999Z</time></trkpt><trkpt lat="42.166487210732555" lon="8.603605775385663"><ele>68.0</ele><time>2026-05-01T15:31:19.999Z</time></trkpt><trkpt lat="42.166328930218135" lon="8.603437993790838"><ele>71.33333333333334</ele><time>2026-05-01T15:31:20.999Z</time></trkpt><trkpt lat="42.16616340167744" lon="8.603262254762093"><ele>74.66666666666667</ele><time>2026-05-01T15:31:21.999Z</time></trkpt><trkpt lat="42.165988646340296" lon="8.603072783298275"><ele>78.0</ele><time>2026-05-01T15:31:22.999Z</time></trkpt><trkpt lat="42.165809985142964" lon="8.602885328122815"><ele>79.66666666666667</ele><time>2026-05-01T15:31:23.999Z</time></trkpt><trkpt lat="42.16563229591765" lon="8.602698957580358"><ele>81.33333333333334</ele><time>2026-05-01T15:31:24.999Z</time></trkpt><trkpt lat="42.16546427089547" lon="8.602516531724374"><ele>83.0</ele><time>2026-05-01T15:31:25.999Z</time></trkpt><trkpt lat="42.165307362522455" lon="8.602346910815438"><ele>83.0</ele><time>2026-05-01T15:31:26.999Z</time></trkpt><trkpt lat="42.165152054473005" lon="8.602196702172478"><ele>83.0</ele><time>2026-05-01T15:31:27.999Z</time></trkpt><trkpt lat="42.1649938741642" lon="8.602070682963356"><ele>83.0</ele><time>2026-05-01T15:31:28.999Z</time></trkpt><trkpt lat="42.164820108010744" lon="8.601988809406441"><ele>79.33333333333334</ele><time>2026-05-01T15:31:29.999Z</time></trkpt><trkpt lat="42.16464039832603" lon="8.601941957837434"><ele>75.66666666666667</ele><time>2026-05-01T15:31:30.999Z</time></trkpt><trkpt lat="42.16445532260525" lon="8.601918539064892"><ele>72.0</ele><time>2026-05-01T15:31:31.999Z</time></trkpt><trkpt lat="42.16427868472256" lon="8.60189428487861"><ele>72.0</ele><time>2026-05-01T15:31:32.999Z</time></trkpt><trkpt lat="42.16411883212071" lon="8.601869095059586"><ele>72.0</ele><time>2026-05-01T15:31:33.999Z</time></trkpt><trkpt lat="42.16397033636158" lon="8.601830450200422"><ele>72.0</ele><time>2026-05-01T15:31:34.999Z</time></trkpt><trkpt lat="42.163830598548046" lon="8.60176285792693"><ele>80.33333333333334</ele><time>2026-05-01T15:31:35.999Z</time></trkpt><trkpt lat="42.16370742661249" lon="8.601653544472875"><ele>88.66666666666667</ele><time>2026-05-01T15:31:36.999Z</time></trkpt><trkpt lat="42.16359729129128" lon="8.601504807502023"><ele>97.0</ele><time>2026-05-01T15:31:37.999Z</time></trkpt><trkpt lat="42.163512836423955" lon="8.601324155948788"><ele>94.0</ele><time>2026-05-01T15:31:38.999Z</time></trkpt><trkpt lat="42.16343905209975" lon="8.601137330664704"><ele>91.0</ele><time>2026-05-01T15:31:39.999Z</time></trkpt><trkpt lat="42.16337129147624" lon="8.600948972777381"><ele>88.0</ele><time>2026-05-01T15:31:40.999Z</time></trkpt><trkpt lat="42.16331808321291" lon="8.60074517531387"><ele>88.0</ele><time>2026-05-01T15:31:41.999Z</time></trkpt><trkpt lat="42.1632999681617" lon="8.600528015953811"><ele>88.0</ele><time>2026-05-01T15:31:42.999Z</time></trkpt><trkpt lat="42.16331431353804" lon="8.600312670180543"><ele>88.0</ele><time>2026-05-01T15:31:43.999Z</time></trkpt><trkpt lat="42.163332313439994" lon="8.600096992610988"><ele>87.0</ele><time>2026-05-01T15:31:44.999Z</time></trkpt><trkpt lat="42.16333018376564" lon="8.59988155259982"><ele>86.0</ele><time>2026-05-01T15:31:45.999Z</time></trkpt><trkpt lat="42.163315781180295" lon="8.599679843005097"><ele>85.0</ele><time>2026-05-01T15:31:46.999Z</time></trkpt><trkpt lat="42.16328645955924" lon="8.599487236066556"><ele>84.33333333333333</ele><time>2026-05-01T15:31:47.999Z</time></trkpt><trkpt lat="42.16322318095848" lon="8.599306753060755"><ele>83.66666666666667</ele><time>2026-05-01T15:31:48.999Z</time></trkpt><trkpt lat="42.16313312927835" lon="8.599138989720842"><ele>83.0</ele><time>2026-05-01T15:31:49.999Z</time></trkpt><trkpt lat="42.16302127741676" lon="8.598972446570105"><ele>88.33333333333334</ele><time>2026-05-01T15:31:50.999Z</time></trkpt><trkpt lat="42.16289327022625" lon="8.598817404545777"><ele>93.66666666666667</ele><time>2026-05-01T15:31:51.999Z</time></trkpt><trkpt lat="42.1627674368708" lon="8.59867180321229"><ele>99.0</ele><time>2026-05-01T15:31:52.999Z</time></trkpt><trkpt lat="42.162644033939436" lon="8.598514828104168"><ele>99.0</ele><time>2026-05-01T15:31:53.999Z</time></trkpt><trkpt lat="42.16252265398211" lon="8.59835111966851"><ele>99.0</ele><time>2026-05-01T15:31:54.999Z</time></trkpt><trkpt lat="42.16241010364057" lon="8.598195984528559"><ele>99.0</ele><time>2026-05-01T15:31:55.999Z</time></trkpt><trkpt lat="42.16229264328616" lon="8.5980488714801"><ele>100.0</ele><time>2026-05-01T15:31:56.999Z</time></trkpt><trkpt lat="42.1621734953162" lon="8.597900765001354"><ele>101.0</ele><time>2026-05-01T15:31:57.999Z</time></trkpt><trkpt lat="42.16205543141587" lon="8.597744286878124"><ele>102.0</ele><time>2026-05-01T15:31:58.999Z</time></trkpt><trkpt lat="42.161938538897886" lon="8.597590563623944"><ele>102.0</ele><time>2026-05-01T15:31:59.999Z</time></trkpt><trkpt lat="42.16182018664425" lon="8.59744294084324"><ele>102.0</ele><time>2026-05-01T15:32:00.999Z</time></trkpt><trkpt lat="42.16170011327974" lon="8.597301014561163"><ele>102.0</ele><time>2026-05-01T15:32:01.999Z</time></trkpt><trkpt lat="42.16157414811759" lon="8.597163684210669"><ele>101.25</ele><time>2026-05-01T15:32:02.999Z</time></trkpt><trkpt lat="42.16145299209376" lon="8.597043379420313"><ele>100.5</ele><time>2026-05-01T15:32:03.999Z</time></trkpt><trkpt lat="42.16132982151549" lon="8.596933516149383"><ele>99.75</ele><time>2026-05-01T15:32:04.999Z</time></trkpt><trkpt lat="42.16119399167154" lon="8.596858338291002"><ele>99.0</ele><time>2026-05-01T15:32:05.999Z</time></trkpt><trkpt lat="42.16104848015075" lon="8.596823678266453"><ele>95.66666666666667</ele><time>2026-05-01T15:32:06.999Z</time></trkpt><trkpt lat="42.160888610877784" lon="8.596836384873091"><ele>92.33333333333334</ele><time>2026-05-01T15:32:07.999Z</time></trkpt><trkpt lat="42.16072227393637" lon="8.596913541122671"><ele>89.0</ele><time>2026-05-01T15:32:08.999Z</time></trkpt><trkpt lat="42.16054926809411" lon="8.597047625173246"><ele>89.0</ele><time>2026-05-01T15:32:09.999Z</time></trkpt><trkpt lat="42.16036555828759" lon="8.59717370364381"><ele>89.0</ele><time>2026-05-01T15:32:10.999Z</time></trkpt><trkpt lat="42.16017203961907" lon="8.5972437931712"><ele>89.0</ele><time>2026-05-01T15:32:11.999Z</time></trkpt><trkpt lat="42.15997706327678" lon="8.597273349450516"><ele>83.33333333333334</ele><time>2026-05-01T15:32:12.999Z</time></trkpt><trkpt lat="42.15980221031089" lon="8.597298364312879"><ele>77.66666666666667</ele><time>2026-05-01T15:32:13.998Z</time></trkpt><trkpt lat="42.15964332605946" lon="8.597352988191004"><ele>72.0</ele><time>2026-05-01T15:32:14.998Z</time></trkpt><trkpt lat="42.159506555256584" lon="8.597469799961951"><ele>72.0</ele><time>2026-05-01T15:32:15.998Z</time></trkpt><trkpt lat="42.15941512865031" lon="8.597651151020537"><ele>72.0</ele><time>2026-05-01T15:32:16.998Z</time></trkpt><trkpt lat="42.159356853167026" lon="8.597885365734635"><ele>72.0</ele><time>2026-05-01T15:32:17.998Z</time></trkpt><trkpt lat="42.159328807046876" lon="8.598157295755854"><ele>71.66666666666667</ele><time>2026-05-01T15:32:18.998Z</time></trkpt><trkpt lat="42.15932260287139" lon="8.598440258641027"><ele>71.33333333333334</ele><time>2026-05-01T15:32:19.998Z</time></trkpt><trkpt lat="42.15932457106986" lon="8.59874044203356"><ele>71.0</ele><time>2026-05-01T15:32:20.998Z</time></trkpt><trkpt lat="42.15933607014066" lon="8.599047145644118"><ele>71.0</ele><time>2026-05-01T15:32:21.998Z</time></trkpt><trkpt lat="42.15933936973217" lon="8.59935509247976"><ele>71.0</ele><time>2026-05-01T15:32:22.998Z</time></trkpt><trkpt lat="42.15932202152169" lon="8.599660189513187"><ele>71.0</ele><time>2026-05-01T15:32:23.998Z</time></trkpt><trkpt lat="42.1592789951825" lon="8.599960350372502"><ele>71.0</ele><time>2026-05-01T15:32:24.998Z</time></trkpt><trkpt lat="42.15923159088199" lon="8.600239585085749"><ele>71.0</ele><time>2026-05-01T15:32:25.998Z</time></trkpt><trkpt lat="42.159179206678836" lon="8.600511602410895"><ele>70.33333333333334</ele><time>2026-05-01T15:32:26.998Z</time></trkpt><trkpt lat="42.159107803934454" lon="8.60077305270369"><ele>69.66666666666667</ele><time>2026-05-01T15:32:27.998Z</time></trkpt><trkpt lat="42.15899199834448" lon="8.601007408698662"><ele>69.0</ele><time>2026-05-01T15:32:28.998Z</time></trkpt><trkpt lat="42.15883407513531" lon="8.601185524293784"><ele>67.0</ele><time>2026-05-01T15:32:29.998Z</time></trkpt><trkpt lat="42.15863831238788" lon="8.60129926713113"><ele>65.0</ele><time>2026-05-01T15:32:31Z</time></trkpt><trkpt lat="42.15844132533297" lon="8.601350034833596"><ele>63.0</ele><time>2026-05-01T15:32:32Z</time></trkpt><trkpt lat="42.158275123574036" lon="8.601401588977224"><ele>57.0</ele><time>2026-05-01T15:32:33Z</time></trkpt><trkpt lat="42.15815378854128" lon="8.601536268540452"><ele>51.0</ele><time>2026-05-01T15:32:34Z</time></trkpt><trkpt lat="42.15807117655727" lon="8.601737184181726"><ele>45.0</ele><time>2026-05-01T15:32:35Z</time></trkpt><trkpt lat="42.15803576345602" lon="8.601991778099896"><ele>44.666666666666664</ele><time>2026-05-01T15:32:36Z</time></trkpt><trkpt lat="42.158015573336336" lon="8.60227860267478"><ele>44.33333333333333</ele><time>2026-05-01T15:32:37Z</time></trkpt><trkpt lat="42.15800026158722" lon="8.602572622875009"><ele>44.0</ele><time>2026-05-01T15:32:38Z</time></trkpt><trkpt lat="42.158012712836175" lon="8.60286944701855"><ele>42.0</ele><time>2026-05-01T15:32:39Z</time></trkpt><trkpt lat="42.158072390535" lon="8.603171379844849"><ele>40.0</ele><time>2026-05-01T15:32:40Z</time></trkpt><trkpt lat="42.15815095292493" lon="8.603469374705359"><ele>44.0</ele><time>2026-05-01T15:32:41Z</time></trkpt><trkpt lat="42.15825328905863" lon="8.603758586720149"><ele>48.0</ele><time>2026-05-01T15:32:42Z</time></trkpt><trkpt lat="42.1583892437553" lon="8.604027576642919"><ele>48.0</ele><time>2026-05-01T15:32:43Z</time></trkpt><trkpt lat="42.15853844459197" lon="8.60428318974344"><ele>48.0</ele><time>2026-05-01T15:32:44Z</time></trkpt><trkpt lat="42.15865921454173" lon="8.604537421870353"><ele>45.666666666666664</ele><time>2026-05-01T15:32:45Z</time></trkpt><trkpt lat="42.158741154574464" lon="8.604795140296822"><ele>43.33333333333333</ele><time>2026-05-01T15:32:46Z</time></trkpt><trkpt lat="42.15877926887212" lon="8.60505524492477"><ele>41.0</ele><time>2026-05-01T15:32:47Z</time></trkpt><trkpt lat="42.158765224458804" lon="8.605323218244084"><ele>40.33333333333333</ele><time>2026-05-01T15:32:48Z</time></trkpt><trkpt lat="42.15868454934256" lon="8.605603022796771"><ele>39.666666666666664</ele><time>2026-05-01T15:32:49Z</time></trkpt><trkpt lat="42.15856413120822" lon="8.605842169926088"><ele>39.0</ele><time>2026-05-01T15:32:50Z</time></trkpt><trkpt lat="42.15839903122381" lon="8.60603528651753"><ele>38.0</ele><time>2026-05-01T15:32:51Z</time></trkpt><trkpt lat="42.15818776846578" lon="8.606152630704008"><ele>37.0</ele><time>2026-05-01T15:32:52Z</time></trkpt><trkpt lat="42.15796651440467" lon="8.606189890112228"><ele>37.0</ele><time>2026-05-01T15:32:53Z</time></trkpt><trkpt lat="42.15774165719672" lon="8.606158193674029"><ele>37.0</ele><time>2026-05-01T15:32:54Z</time></trkpt><trkpt lat="42.15752222341105" lon="8.606074657788998"><ele>36.0</ele><time>2026-05-01T15:32:55Z</time></trkpt><trkpt lat="42.15731162904068" lon="8.605987467557158"><ele>35.0</ele><time>2026-05-01T15:32:56Z</time></trkpt><trkpt lat="42.15709798380637" lon="8.605920019583957"><ele>34.0</ele><time>2026-05-01T15:32:57Z</time></trkpt><trkpt lat="42.15689803251992" lon="8.605875154673798"><ele>34.0</ele><time>2026-05-01T15:32:58Z</time></trkpt><trkpt lat="42.15670994698224" lon="8.60583241850119"><ele>34.0</ele><time>2026-05-01T15:32:59Z</time></trkpt><trkpt lat="42.156530597187384" lon="8.60580546087691"><ele>34.0</ele><time>2026-05-01T15:33:00Z</time></trkpt><trkpt lat="42.156359337189485" lon="8.605823806009447"><ele>31.666666666666668</ele><time>2026-05-01T15:33:01Z</time></trkpt><trkpt lat="42.15620981598058" lon="8.605884503140473"><ele>29.333333333333336</ele><time>2026-05-01T15:33:02Z</time></trkpt><trkpt lat="42.15607677433545" lon="8.605986301259856"><ele>27.0</ele><time>2026-05-01T15:33:03Z</time></trkpt><trkpt lat="42.15595257098219" lon="8.606108991391093"><ele>26.333333333333336</ele><time>2026-05-01T15:33:04Z</time></trkpt><trkpt lat="42.15584309293103" lon="8.606256768608597"><ele>25.666666666666668</ele><time>2026-05-01T15:33:05Z</time></trkpt><trkpt lat="42.155756246267615" lon="8.606427523564276"><ele>25.0</ele><time>2026-05-01T15:33:06Z</time></trkpt><trkpt lat="42.15569288657818" lon="8.606626126572499"><ele>25.0</ele><time>2026-05-01T15:33:07Z</time></trkpt><trkpt lat="42.15564678719818" lon="8.606826277470415"><ele>25.0</ele><time>2026-05-01T15:33:08Z</time></trkpt><trkpt lat="42.15559742683663" lon="8.60702120399418"><ele>25.0</ele><time>2026-05-01T15:33:09Z</time></trkpt><trkpt lat="42.15553946524229" lon="8.60719084301745"><ele>25.0</ele><time>2026-05-01T15:33:10Z</time></trkpt><trkpt lat="42.155461753151314" lon="8.607341944883741"><ele>25.0</ele><time>2026-05-01T15:33:11Z</time></trkpt><trkpt lat="42.15536430737409" lon="8.607465627261"><ele>25.0</ele><time>2026-05-01T15:33:12Z</time></trkpt><trkpt lat="42.155248829818845" lon="8.607566193772985"><ele>25.0</ele><time>2026-05-01T15:33:13Z</time></trkpt><trkpt lat="42.15514928952624" lon="8.607648328641234"><ele>25.0</ele><time>2026-05-01T15:33:14Z</time></trkpt><trkpt lat="42.15504694253754" lon="8.607717940317755"><ele>25.0</ele><time>2026-05-01T15:33:15Z</time></trkpt><trkpt lat="42.15492731953435" lon="8.60775429922584"><ele>25.0</ele><time>2026-05-01T15:33:16Z</time></trkpt><trkpt lat="42.154802602776144" lon="8.607728762169883"><ele>25.0</ele><time>2026-05-01T15:33:17Z</time></trkpt><trkpt lat="42.15468050544556" lon="8.607650421865447"><ele>25.0</ele><time>2026-05-01T15:33:17.999Z</time></trkpt><trkpt lat="42.15456547743242" lon="8.607534528928564"><ele>26.0</ele><time>2026-05-01T15:33:18.999Z</time></trkpt><trkpt lat="42.15445538409431" lon="8.607413929957282"><ele>27.0</ele><time>2026-05-01T15:33:19.999Z</time></trkpt><trkpt lat="42.15435228245186" lon="8.607301556736578"><ele>28.0</ele><time>2026-05-01T15:33:20.999Z</time></trkpt><trkpt lat="42.15424815555857" lon="8.607198929216247"><ele>29.0</ele><time>2026-05-01T15:33:21.999Z</time></trkpt><trkpt lat="42.15413561055073" lon="8.607105631865707"><ele>29.0</ele><time>2026-05-01T15:33:22.999Z</time></trkpt><trkpt lat="42.15403004401499" lon="8.607004973052264"><ele>29.0</ele><time>2026-05-01T15:33:23.999Z</time></trkpt><trkpt lat="42.153931292512134" lon="8.606903105848309"><ele>29.0</ele><time>2026-05-01T15:33:24.999Z</time></trkpt><trkpt lat="42.153821926277075" lon="8.606802631476745"><ele>29.0</ele><time>2026-05-01T15:33:25.999Z</time></trkpt><trkpt lat="42.153690877455475" lon="8.606710521485764"><ele>29.0</ele><time>2026-05-01T15:33:26.999Z</time></trkpt><trkpt lat="42.153543935037085" lon="8.606636584909689"><ele>29.0</ele><time>2026-05-01T15:33:27.999Z</time></trkpt><trkpt lat="42.153382036095884" lon="8.606595147876508"><ele>29.0</ele><time>2026-05-01T15:33:28.999Z</time></trkpt><trkpt lat="42.15321427559752" lon="8.60656612734563"><ele>30.0</ele><time>2026-05-01T15:33:29.999Z</time></trkpt><trkpt lat="42.15303114589475" lon="8.6065454581387"><ele>31.0</ele><time>2026-05-01T15:33:30.999Z</time></trkpt><trkpt lat="42.15283183640699" lon="8.606512314889757"><ele>32.0</ele><time>2026-05-01T15:33:31.999Z</time></trkpt><trkpt lat="42.15263978257126" lon="8.606473793294422"><ele>32.0</ele><time>2026-05-01T15:33:32.999Z</time></trkpt><trkpt lat="42.152461912770015" lon="8.606432555838197"><ele>32.0</ele><time>2026-05-01T15:33:33.999Z</time></trkpt><trkpt lat="42.15229966325545" lon="8.606392335844903"><ele>32.0</ele><time>2026-05-01T15:33:34.999Z</time></trkpt><trkpt lat="42.15215107545342" lon="8.606366105047828"><ele>32.666666666666664</ele><time>2026-05-01T15:33:35.999Z</time></trkpt><trkpt lat="42.15202201475095" lon="8.606333665257823"><ele>33.33333333333333</ele><time>2026-05-01T15:33:36.999Z</time></trkpt><trkpt lat="42.15192482416083" lon="8.606304931749081"><ele>34.0</ele><time>2026-05-01T15:33:37.999Z</time></trkpt><trkpt lat="42.15186287697432" lon="8.606280325926328"><ele>34.666666666666664</ele><time>2026-05-01T15:33:38.999Z</time></trkpt><trkpt lat="42.151795468247194" lon="8.606264233700944"><ele>35.333333333333336</ele><time>2026-05-01T15:33:41.999Z</time></trkpt><trkpt lat="42.151721208191" lon="8.606270133482566"><ele>36.0</ele><time>2026-05-01T15:42:22.999Z</time></trkpt><trkpt lat="42.15161546942648" lon="8.606239306809739"><ele>36.0</ele><time>2026-05-01T15:42:24.998Z</time></trkpt><trkpt lat="42.151553898738456" lon="8.60622139163524"><ele>36.0</ele><time>2026-05-01T15:42:25.998Z</time></trkpt><trkpt lat="42.15148900460183" lon="8.606205761959583"><ele>36.0</ele><time>2026-05-01T15:42:26.998Z</time></trkpt><trkpt lat="42.15139890936232" lon="8.606177692024767"><ele>36.0</ele><time>2026-05-01T15:42:28.998Z</time></trkpt><trkpt lat="42.15132186236417" lon="8.60615907792162"><ele>36.0</ele><time>2026-05-01T15:42:30.998Z</time></trkpt><trkpt lat="42.151248389122486" lon="8.606139784396749"><ele>36.0</ele><time>2026-05-01T15:42:33.998Z</time></trkpt><trkpt lat="42.15117102036672" lon="8.606130339072763"><ele>36.4</ele><time>2026-05-01T15:42:37.998Z</time></trkpt><trkpt lat="42.15107937556987" lon="8.606112864349376"><ele>36.8</ele><time>2026-05-01T15:42:39.998Z</time></trkpt><trkpt lat="42.15100207134431" lon="8.606088878017614"><ele>37.199999999999996</ele><time>2026-05-01T15:42:40.998Z</time></trkpt><trkpt lat="42.15088904358153" lon="8.606052033500896"><ele>37.6</ele><time>2026-05-01T15:42:41.998Z</time></trkpt><trkpt lat="42.150744675840876" lon="8.605994178453246"><ele>38.0</ele><time>2026-05-01T15:42:42.998Z</time></trkpt><trkpt lat="42.15058683479959" lon="8.605919310087277"><ele>38.0</ele><time>2026-05-01T15:42:43.998Z</time></trkpt><trkpt lat="42.15042561046985" lon="8.605839445834553"><ele>38.0</ele><time>2026-05-01T15:42:44.998Z</time></trkpt><trkpt lat="42.150281178799226" lon="8.605776682222656"><ele>38.0</ele><time>2026-05-01T15:42:45.998Z</time></trkpt><trkpt lat="42.15015370304911" lon="8.605719064234469"><ele>38.0</ele><time>2026-05-01T15:42:46.998Z</time></trkpt><trkpt lat="42.150036108208546" lon="8.6056621820589"><ele>38.0</ele><time>2026-05-01T15:42:47.998Z</time></trkpt><trkpt lat="42.14991392184355" lon="8.605599957912425"><ele>38.0</ele><time>2026-05-01T15:42:48.998Z</time></trkpt><trkpt lat="42.149796643258796" lon="8.605536293753095"><ele>38.0</ele><time>2026-05-01T15:42:49.998Z</time></trkpt><trkpt lat="42.14968430736274" lon="8.6054636525133"><ele>39.0</ele><time>2026-05-01T15:42:50.998Z</time></trkpt><trkpt lat="42.14958045316799" lon="8.605364142033261"><ele>40.0</ele><time>2026-05-01T15:42:51.998Z</time></trkpt><trkpt lat="42.14947623048246" lon="8.605238285733838"><ele>41.0</ele><time>2026-05-01T15:42:52.998Z</time></trkpt><trkpt lat="42.149370925597935" lon="8.605091331626776"><ele>42.0</ele><time>2026-05-01T15:42:53.998Z</time></trkpt><trkpt lat="42.149266150384165" lon="8.604927991649953"><ele>42.0</ele><time>2026-05-01T15:42:54.998Z</time></trkpt><trkpt lat="42.14915308918474" lon="8.604755405094016"><ele>42.0</ele><time>2026-05-01T15:42:55.998Z</time></trkpt><trkpt lat="42.14902870921248" lon="8.60458271008464"><ele>42.0</ele><time>2026-05-01T15:42:56.998Z</time></trkpt><trkpt lat="42.148894848711926" lon="8.60441432352763"><ele>44.33333333333333</ele><time>2026-05-01T15:42:57.998Z</time></trkpt><trkpt lat="42.1487541256739" lon="8.60424710267562"><ele>46.666666666666664</ele><time>2026-05-01T15:42:58.998Z</time></trkpt><trkpt lat="42.1485976181312" lon="8.604077115902752"><ele>49.0</ele><time>2026-05-01T15:42:59.998Z</time></trkpt><trkpt lat="42.14843661893107" lon="8.603915938836073"><ele>49.0</ele><time>2026-05-01T15:43:01Z</time></trkpt><trkpt lat="42.14826931909014" lon="8.603762644076525"><ele>49.0</ele><time>2026-05-01T15:43:02Z</time></trkpt><trkpt lat="42.1480911912161" lon="8.603636427860348"><ele>49.0</ele><time>2026-05-01T15:43:03Z</time></trkpt><trkpt lat="42.14791847962906" lon="8.603521106305013"><ele>49.33333333333333</ele><time>2026-05-01T15:43:04Z</time></trkpt><trkpt lat="42.14775859049163" lon="8.603416004808093"><ele>49.66666666666667</ele><time>2026-05-01T15:43:05Z</time></trkpt><trkpt lat="42.147607866598996" lon="8.603319145726504"><ele>50.0</ele><time>2026-05-01T15:43:06Z</time></trkpt><trkpt lat="42.147449776170454" lon="8.603242260199313"><ele>51.333333333333336</ele><time>2026-05-01T15:43:07Z</time></trkpt><trkpt lat="42.147283961708" lon="8.603193065408222"><ele>52.66666666666667</ele><time>2026-05-01T15:43:08Z</time></trkpt><trkpt lat="42.14710441852553" lon="8.603167534541448"><ele>54.0</ele><time>2026-05-01T15:43:09Z</time></trkpt><trkpt lat="42.14691981554344" lon="8.603159773331107"><ele>54.0</ele><time>2026-05-01T15:43:10Z</time></trkpt><trkpt lat="42.1467297271356" lon="8.603157551865761"><ele>54.0</ele><time>2026-05-01T15:43:11Z</time></trkpt><trkpt lat="42.14654615655264" lon="8.603163043467902"><ele>54.0</ele><time>2026-05-01T15:43:12Z</time></trkpt><trkpt lat="42.146356804683954" lon="8.603172305580971"><ele>54.66666666666667</ele><time>2026-05-01T15:43:13Z</time></trkpt><trkpt lat="42.14616490696276" lon="8.603183138135085"><ele>55.333333333333336</ele><time>2026-05-01T15:43:14Z</time></trkpt><trkpt lat="42.14597981591722" lon="8.603191840718187"><ele>56.0</ele><time>2026-05-01T15:43:15Z</time></trkpt><trkpt lat="42.1457963586608" lon="8.603192058769382"><ele>59.0</ele><time>2026-05-01T15:43:16Z</time></trkpt><trkpt lat="42.145608424547106" lon="8.603160575579125"><ele>62.0</ele><time>2026-05-01T15:43:17Z</time></trkpt><trkpt lat="42.14542158043715" lon="8.60309587225328"><ele>65.0</ele><time>2026-05-01T15:43:18Z</time></trkpt><trkpt lat="42.14524134062518" lon="8.602992605005808"><ele>65.0</ele><time>2026-05-01T15:43:19Z</time></trkpt><trkpt lat="42.1450754894047" lon="8.602848599565272"><ele>65.0</ele><time>2026-05-01T15:43:20Z</time></trkpt><trkpt lat="42.14492168350975" lon="8.602711273542884"><ele>65.0</ele><time>2026-05-01T15:43:21Z</time></trkpt><trkpt lat="42.14476635139057" lon="8.60261422588242"><ele>63.0</ele><time>2026-05-01T15:43:22Z</time></trkpt><trkpt lat="42.14461461402655" lon="8.602590848868076"><ele>61.0</ele><time>2026-05-01T15:43:23Z</time></trkpt><trkpt lat="42.144467828365315" lon="8.60260539486386"><ele>59.0</ele><time>2026-05-01T15:43:24Z</time></trkpt><trkpt lat="42.14431838929748" lon="8.602672727799535"><ele>59.0</ele><time>2026-05-01T15:43:25Z</time></trkpt><trkpt lat="42.144171469138705" lon="8.602786104143712"><ele>59.0</ele><time>2026-05-01T15:43:26Z</time></trkpt><trkpt lat="42.1440259872819" lon="8.602871755650252"><ele>59.0</ele><time>2026-05-01T15:43:27Z</time></trkpt><trkpt lat="42.14387645762647" lon="8.60290541213512"><ele>59.66666666666667</ele><time>2026-05-01T15:43:28Z</time></trkpt><trkpt lat="42.14372273802385" lon="8.602883309773107"><ele>60.33333333333333</ele><time>2026-05-01T15:43:29Z</time></trkpt><trkpt lat="42.14356014616004" lon="8.602823742528823"><ele>61.0</ele><time>2026-05-01T15:43:30Z</time></trkpt><trkpt lat="42.14338465550613" lon="8.602746809908108"><ele>66.33333333333333</ele><time>2026-05-01T15:43:31Z</time></trkpt><trkpt lat="42.14320485893845" lon="8.602683888632875"><ele>71.66666666666667</ele><time>2026-05-01T15:43:32Z</time></trkpt><trkpt lat="42.14302910209169" lon="8.602621893105589"><ele>77.0</ele><time>2026-05-01T15:43:33Z</time></trkpt><trkpt lat="42.142873492352074" lon="8.602513506116185"><ele>77.0</ele><time>2026-05-01T15:43:34Z</time></trkpt><trkpt lat="42.142740383387846" lon="8.602356681163215"><ele>77.0</ele><time>2026-05-01T15:43:35Z</time></trkpt><trkpt lat="42.14261757814036" lon="8.602173836804466"><ele>77.0</ele><time>2026-05-01T15:43:36Z</time></trkpt><trkpt lat="42.1424838868527" lon="8.60199847644766"><ele>75.33333333333334</ele><time>2026-05-01T15:43:37Z</time></trkpt><trkpt lat="42.14234060030142" lon="8.601858045484425"><ele>73.66666666666667</ele><time>2026-05-01T15:43:38Z</time></trkpt><trkpt lat="42.14217743071496" lon="8.601744584278293"><ele>72.0</ele><time>2026-05-01T15:43:39Z</time></trkpt><trkpt lat="42.142005005208446" lon="8.601663335138742"><ele>72.0</ele><time>2026-05-01T15:43:40Z</time></trkpt><trkpt lat="42.14183913632208" lon="8.601594471294314"><ele>72.0</ele><time>2026-05-01T15:43:40.999Z</time></trkpt><trkpt lat="42.14168313411387" lon="8.601536371601668"><ele>72.0</ele><time>2026-05-01T15:43:41.999Z</time></trkpt><trkpt lat="42.14152396959552" lon="8.60150983296301"><ele>72.66666666666667</ele><time>2026-05-01T15:43:42.999Z</time></trkpt><trkpt lat="42.141374484501576" lon="8.601526876868661"><ele>73.33333333333334</ele><time>2026-05-01T15:43:43.999Z</time></trkpt><trkpt lat="42.14122171742331" lon="8.60158738373152"><ele>74.0</ele><time>2026-05-01T15:43:44.999Z</time></trkpt><trkpt lat="42.14107271572442" lon="8.601663892405183"><ele>74.0</ele><time>2026-05-01T15:43:45.999Z</time></trkpt><trkpt lat="42.14092505980294" lon="8.601732580748456"><ele>74.0</ele><time>2026-05-01T15:43:46.999Z</time></trkpt><trkpt lat="42.140775536448565" lon="8.601750472906707"><ele>74.0</ele><time>2026-05-01T15:43:47.999Z</time></trkpt><trkpt lat="42.140623533039026" lon="8.601691634932678"><ele>77.5</ele><time>2026-05-01T15:43:48.999Z</time></trkpt><trkpt lat="42.14047882439816" lon="8.601590304252845"><ele>81.0</ele><time>2026-05-01T15:43:49.999Z</time></trkpt><trkpt lat="42.14034820086928" lon="8.601493503249575"><ele>84.5</ele><time>2026-05-01T15:43:50.999Z</time></trkpt><trkpt lat="42.14023714327733" lon="8.60140427629922"><ele>88.0</ele><time>2026-05-01T15:43:51.999Z</time></trkpt><trkpt lat="42.140154107705136" lon="8.601290556881983"><ele>85.5</ele><time>2026-05-01T15:43:52.999Z</time></trkpt><trkpt lat="42.1401077376725" lon="8.601146869959969"><ele>83.0</ele><time>2026-05-01T15:43:53.999Z</time></trkpt><trkpt lat="42.140090978989775" lon="8.600977657356976"><ele>80.5</ele><time>2026-05-01T15:43:54.999Z</time></trkpt><trkpt lat="42.140071906773116" lon="8.600812252442074"><ele>78.0</ele><time>2026-05-01T15:43:55.999Z</time></trkpt><trkpt lat="42.14003349141789" lon="8.600663401783823"><ele>78.0</ele><time>2026-05-01T15:43:56.999Z</time></trkpt><trkpt lat="42.1399748616598" lon="8.600527502311625"><ele>78.0</ele><time>2026-05-01T15:43:57.999Z</time></trkpt><trkpt lat="42.139892919789716" lon="8.600406375355547"><ele>78.0</ele><time>2026-05-01T15:43:58.999Z</time></trkpt><trkpt lat="42.139800663985675" lon="8.600312901530842"><ele>78.0</ele><time>2026-05-01T15:43:59.999Z</time></trkpt><trkpt lat="42.139727028784826" lon="8.600250386280129"><ele>78.0</ele><time>2026-05-01T15:44:00.999Z</time></trkpt><trkpt lat="42.13964867548826" lon="8.600170292083693"><ele>79.0</ele><time>2026-05-01T15:44:02.999Z</time></trkpt><trkpt lat="42.13958433276974" lon="8.60010879020731"><ele>80.0</ele><time>2026-05-01T15:44:04.999Z</time></trkpt><trkpt lat="42.13950340730742" lon="8.600052775979808"><ele>81.0</ele><time>2026-05-01T15:44:07.999Z</time></trkpt><trkpt lat="42.13941847386097" lon="8.600005450036388"><ele>82.0</ele><time>2026-05-01T15:44:09.999Z</time></trkpt><trkpt lat="42.13931743796008" lon="8.599977825916946"><ele>83.0</ele><time>2026-05-01T15:44:11.999Z</time></trkpt><trkpt lat="42.13920333151942" lon="8.59995640326427"><ele>83.0</ele><time>2026-05-01T15:44:13.999Z</time></trkpt><trkpt lat="42.139103014654445" lon="8.599940671130742"><ele>83.0</ele><time>2026-05-01T15:44:15.999Z</time></trkpt><trkpt lat="42.13897316861447" lon="8.599921453467639"><ele>83.0</ele><time>2026-05-01T15:44:17.999Z</time></trkpt><trkpt lat="42.13889212088187" lon="8.599909121585776"><ele>83.0</ele><time>2026-05-01T15:44:18.999Z</time></trkpt><trkpt lat="42.13880146282473" lon="8.599883044091"><ele>83.0</ele><time>2026-05-01T15:44:19.999Z</time></trkpt><trkpt lat="42.13871215057707" lon="8.599839211256915"><ele>84.4</ele><time>2026-05-01T15:44:20.999Z</time></trkpt><trkpt lat="42.13863505971127" lon="8.599765310138242"><ele>85.80000000000001</ele><time>2026-05-01T15:44:21.999Z</time></trkpt><trkpt lat="42.138572276032356" lon="8.599674440226536"><ele>87.2</ele><time>2026-05-01T15:44:22.999Z</time></trkpt><trkpt lat="42.138521941710614" lon="8.59955835275462"><ele>88.6</ele><time>2026-05-01T15:44:23.999Z</time></trkpt><trkpt lat="42.13849071798046" lon="8.59942209200793"><ele>90.0</ele><time>2026-05-01T15:44:24.999Z</time></trkpt><trkpt lat="42.138472925544455" lon="8.599287496890447"><ele>90.0</ele><time>2026-05-01T15:44:25.999Z</time></trkpt><trkpt lat="42.138465454554535" lon="8.599157732941848"><ele>90.0</ele><time>2026-05-01T15:44:26.999Z</time></trkpt><trkpt lat="42.13846575396701" lon="8.59902977794386"><ele>90.0</ele><time>2026-05-01T15:44:27.999Z</time></trkpt><trkpt lat="42.138466968054814" lon="8.598900120912791"><ele>90.0</ele><time>2026-05-01T15:44:28.999Z</time></trkpt><trkpt lat="42.138472582294206" lon="8.598788564264938"><ele>90.0</ele><time>2026-05-01T15:44:29.999Z</time></trkpt><trkpt lat="42.13847150600318" lon="8.598694421559076"><ele>90.0</ele><time>2026-05-01T15:44:30.999Z</time></trkpt><trkpt lat="42.138469413791086" lon="8.598600711125188"><ele>89.83333333333333</ele><time>2026-05-01T15:44:31.999Z</time></trkpt><trkpt lat="42.13846460267566" lon="8.59848861317551"><ele>89.66666666666667</ele><time>2026-05-01T15:44:32.999Z</time></trkpt><trkpt lat="42.13845777224267" lon="8.598370728825738"><ele>89.5</ele><time>2026-05-01T15:44:33.999Z</time></trkpt><trkpt lat="42.138447959529074" lon="8.598251190049329"><ele>89.33333333333334</ele><time>2026-05-01T15:44:34.999Z</time></trkpt><trkpt lat="42.13843109258619" lon="8.598144671594685"><ele>89.16666666666667</ele><time>2026-05-01T15:44:35.999Z</time></trkpt><trkpt lat="42.13840918460434" lon="8.598056150242195"><ele>89.0</ele><time>2026-05-01T15:44:36.999Z</time></trkpt><trkpt lat="42.13837847917904" lon="8.597978022729604"><ele>89.0</ele><time>2026-05-01T15:44:37.999Z</time></trkpt><trkpt lat="42.13833560488655" lon="8.597894734160782"><ele>89.0</ele><time>2026-05-01T15:44:38.999Z</time></trkpt><trkpt lat="42.13829212979778" lon="8.597825699232635"><ele>89.0</ele><time>2026-05-01T15:44:39.999Z</time></trkpt><trkpt lat="42.13824501553106" lon="8.597759182844673"><ele>89.0</ele><time>2026-05-01T15:44:40.999Z</time></trkpt><trkpt lat="42.138161995361514" lon="8.59765423123515"><ele>89.0</ele><time>2026-05-01T15:44:42.999Z</time></trkpt><trkpt lat="42.13807338428473" lon="8.597566017985"><ele>89.0</ele><time>2026-05-01T15:44:44.998Z</time></trkpt><trkpt lat="42.13802105509188" lon="8.597511837060122"><ele>90.66666666666667</ele><time>2026-05-01T15:44:45.998Z</time></trkpt><trkpt lat="42.13796602619331" lon="8.5974496402087"><ele>92.33333333333334</ele><time>2026-05-01T15:44:46.998Z</time></trkpt><trkpt lat="42.13790208196813" lon="8.597380449149599"><ele>94.0</ele><time>2026-05-01T15:44:47.998Z</time></trkpt><trkpt lat="42.13783255319685" lon="8.597306020176854"><ele>95.66666666666667</ele><time>2026-05-01T15:44:48.998Z</time></trkpt><trkpt lat="42.13776941120069" lon="8.597238234454101"><ele>97.33333333333333</ele><time>2026-05-01T15:44:49.998Z</time></trkpt><trkpt lat="42.13767772424119" lon="8.597137969665349"><ele>99.0</ele><time>2026-05-01T15:44:51.998Z</time></trkpt><trkpt lat="42.13761728586016" lon="8.59707939904626"><ele>99.0</ele><time>2026-05-01T15:44:52.998Z</time></trkpt><trkpt lat="42.13754793946224" lon="8.597012076336197"><ele>99.0</ele><time>2026-05-01T15:44:53.998Z</time></trkpt><trkpt lat="42.137481594992806" lon="8.596947835497451"><ele>99.0</ele><time>2026-05-01T15:44:54.998Z</time></trkpt><trkpt lat="42.13741886082107" lon="8.596891606270516"><ele>99.0</ele><time>2026-05-01T15:44:55.998Z</time></trkpt><trkpt lat="42.13734600753411" lon="8.596837578632256"><ele>99.0</ele><time>2026-05-01T15:44:56.998Z</time></trkpt><trkpt lat="42.137263877806745" lon="8.596788245697587"><ele>99.0</ele><time>2026-05-01T15:44:57.998Z</time></trkpt><trkpt lat="42.137185587580746" lon="8.596743939456646"><ele>98.16666666666667</ele><time>2026-05-01T15:44:58.998Z</time></trkpt><trkpt lat="42.13711447525694" lon="8.596702248084679"><ele>97.33333333333333</ele><time>2026-05-01T15:44:59.998Z</time></trkpt><trkpt lat="42.13704431638166" lon="8.59665978439355"><ele>96.5</ele><time>2026-05-01T15:45:00.998Z</time></trkpt><trkpt lat="42.13696742224414" lon="8.596614318622969"><ele>95.66666666666666</ele><time>2026-05-01T15:45:01.998Z</time></trkpt><trkpt lat="42.13690556974139" lon="8.596573813262177"><ele>94.83333333333333</ele><time>2026-05-01T15:45:02.998Z</time></trkpt><trkpt lat="42.13683429427923" lon="8.596517352361067"><ele>94.0</ele><time>2026-05-01T15:45:04.998Z</time></trkpt><trkpt lat="42.136760939615364" lon="8.596453681349189"><ele>94.0</ele><time>2026-05-01T15:45:08Z</time></trkpt><trkpt lat="42.136684607280245" lon="8.596385387838438"><ele>94.0</ele><time>2026-05-01T15:45:11Z</time></trkpt><trkpt lat="42.13661010700316" lon="8.596316242258538"><ele>94.0</ele><time>2026-05-01T15:45:13Z</time></trkpt><trkpt lat="42.13651976947063" lon="8.596230510315195"><ele>94.0</ele><time>2026-05-01T15:45:15Z</time></trkpt><trkpt lat="42.13642993282236" lon="8.596179322956838"><ele>94.0</ele><time>2026-05-01T15:45:17Z</time></trkpt><trkpt lat="42.136344172186085" lon="8.596189312901267"><ele>93.16666666666666</ele><time>2026-05-01T15:45:19Z</time></trkpt><trkpt lat="42.13631574334866" lon="8.596292807132906"><ele>92.33333333333333</ele><time>2026-05-01T15:45:21Z</time></trkpt><trkpt lat="42.136372812526915" lon="8.596397115163938"><ele>91.5</ele><time>2026-05-01T15:45:23Z</time></trkpt><trkpt lat="42.1364172179898" lon="8.596459997256618"><ele>90.66666666666667</ele><time>2026-05-01T15:45:24Z</time></trkpt><trkpt lat="42.136460018068675" lon="8.596550115463238"><ele>89.83333333333334</ele><time>2026-05-01T15:45:25Z</time></trkpt><trkpt lat="42.13650198286244" lon="8.596660832824423"><ele>89.0</ele><time>2026-05-01T15:45:26Z</time></trkpt><trkpt lat="42.13654940521775" lon="8.596790792363908"><ele>90.25</ele><time>2026-05-01T15:45:27Z</time></trkpt><trkpt lat="42.13659897628287" lon="8.59693108113521"><ele>91.5</ele><time>2026-05-01T15:45:28Z</time></trkpt><trkpt lat="42.13665577291019" lon="8.597080136756123"><ele>92.75</ele><time>2026-05-01T15:45:29Z</time></trkpt><trkpt lat="42.1367169950657" lon="8.597235152848974"><ele>94.0</ele><time>2026-05-01T15:45:30Z</time></trkpt><trkpt lat="42.13677263429271" lon="8.597375424416576"><ele>95.2</ele><time>2026-05-01T15:45:31Z</time></trkpt><trkpt lat="42.13682177036969" lon="8.597491425439989"><ele>96.4</ele><time>2026-05-01T15:45:32Z</time></trkpt><trkpt lat="42.136867435937276" lon="8.597594629976278"><ele>97.6</ele><time>2026-05-01T15:45:33Z</time></trkpt><trkpt lat="42.13691780494848" lon="8.59770509343873"><ele>98.8</ele><time>2026-05-01T15:45:34Z</time></trkpt><trkpt lat="42.13696145775252" lon="8.597803227617"><ele>100.0</ele><time>2026-05-01T15:45:35Z</time></trkpt><trkpt lat="42.137011922232794" lon="8.597923725987608"><ele>101.25</ele><time>2026-05-01T15:45:36Z</time></trkpt><trkpt lat="42.137065874927025" lon="8.598043450161267"><ele>102.5</ele><time>2026-05-01T15:45:37Z</time></trkpt><trkpt lat="42.13713341786938" lon="8.598180622141445"><ele>103.75</ele><time>2026-05-01T15:45:38Z</time></trkpt><trkpt lat="42.13719591621545" lon="8.598338377200495"><ele>105.0</ele><time>2026-05-01T15:45:39Z</time></trkpt><trkpt lat="42.137256978488054" lon="8.598495166465794"><ele>105.0</ele><time>2026-05-01T15:45:40Z</time></trkpt><trkpt lat="42.13730330262486" lon="8.598646298985473"><ele>105.0</ele><time>2026-05-01T15:45:41Z</time></trkpt><trkpt lat="42.13732977675799" lon="8.598790220088043"><ele>105.0</ele><time>2026-05-01T15:45:42Z</time></trkpt><trkpt lat="42.13733504862404" lon="8.598952224020241"><ele>105.0</ele><time>2026-05-01T15:45:43Z</time></trkpt><trkpt lat="42.13732512414024" lon="8.599125635523192"><ele>107.25</ele><time>2026-05-01T15:45:44Z</time></trkpt><trkpt lat="42.137314893649354" lon="8.599304594715106"><ele>109.5</ele><time>2026-05-01T15:45:45Z</time></trkpt><trkpt lat="42.13730737761221" lon="8.599482339608247"><ele>111.75</ele><time>2026-05-01T15:45:46Z</time></trkpt><trkpt lat="42.13729543039517" lon="8.599654430038436"><ele>114.0</ele><time>2026-05-01T15:45:47Z</time></trkpt><trkpt lat="42.137285362438135" lon="8.599826618556937"><ele>115.5</ele><time>2026-05-01T15:45:48Z</time></trkpt><trkpt lat="42.13730304020879" lon="8.600002810997857"><ele>117.0</ele><time>2026-05-01T15:45:49Z</time></trkpt><trkpt lat="42.13735274471024" lon="8.60017390736793"><ele>118.5</ele><time>2026-05-01T15:45:50Z</time></trkpt><trkpt lat="42.137432202646245" lon="8.60034653149075"><ele>120.0</ele><time>2026-05-01T15:45:50.999Z</time></trkpt><trkpt lat="42.13752407373264" lon="8.6005187757841"><ele>120.0</ele><time>2026-05-01T15:45:51.999Z</time></trkpt><trkpt lat="42.137611378566156" lon="8.600706195714201"><ele>120.0</ele><time>2026-05-01T15:45:52.999Z</time></trkpt><trkpt lat="42.13768273988412" lon="8.600909690223029"><ele>120.0</ele><time>2026-05-01T15:45:53.999Z</time></trkpt><trkpt lat="42.137739474292246" lon="8.60112144414635"><ele>121.33333333333334</ele><time>2026-05-01T15:45:54.999Z</time></trkpt><trkpt lat="42.13777820569383" lon="8.601343318912424"><ele>122.66666666666667</ele><time>2026-05-01T15:45:55.999Z</time></trkpt><trkpt lat="42.13779966255057" lon="8.601566917312462"><ele>124.0</ele><time>2026-05-01T15:45:56.999Z</time></trkpt><trkpt lat="42.13781001884298" lon="8.60178055024828"><ele>124.0</ele><time>2026-05-01T15:45:57.999Z</time></trkpt><trkpt lat="42.13781066097678" lon="8.601975595906481"><ele>124.0</ele><time>2026-05-01T15:45:58.999Z</time></trkpt><trkpt lat="42.13780316572971" lon="8.60214567573839"><ele>124.0</ele><time>2026-05-01T15:45:59.999Z</time></trkpt><trkpt lat="42.13779856402165" lon="8.602306321304098"><ele>124.0</ele><time>2026-05-01T15:46:00.999Z</time></trkpt><trkpt lat="42.13781332746447" lon="8.602453931759436"><ele>124.25</ele><time>2026-05-01T15:46:01.999Z</time></trkpt><trkpt lat="42.13785725173508" lon="8.602579221585085"><ele>124.5</ele><time>2026-05-01T15:46:02.999Z</time></trkpt><trkpt lat="42.137932241664906" lon="8.602685740079052"><ele>124.75</ele><time>2026-05-01T15:46:03.999Z</time></trkpt><trkpt lat="42.13803435494024" lon="8.602767722354598"><ele>125.0</ele><time>2026-05-01T15:46:04.999Z</time></trkpt><trkpt lat="42.138160470479534" lon="8.602817775309953"><ele>125.0</ele><time>2026-05-01T15:46:05.999Z</time></trkpt><trkpt lat="42.13831171014044" lon="8.602841755149077"><ele>125.0</ele><time>2026-05-01T15:46:06.999Z</time></trkpt><trkpt lat="42.13846493915249" lon="8.602864971128934"><ele>125.0</ele><time>2026-05-01T15:46:07.999Z</time></trkpt><trkpt lat="42.13860643459047" lon="8.602900450244281"><ele>125.0</ele><time>2026-05-01T15:46:08.999Z</time></trkpt><trkpt lat="42.13872812116588" lon="8.602961958442531"><ele>125.0</ele><time>2026-05-01T15:46:09.999Z</time></trkpt><trkpt lat="42.138822952836726" lon="8.603069170926444"><ele>125.0</ele><time>2026-05-01T15:46:10.999Z</time></trkpt><trkpt lat="42.13889252446493" lon="8.603208947821827"><ele>125.0</ele><time>2026-05-01T15:46:11.999Z</time></trkpt><trkpt lat="42.138926983538674" lon="8.603362452627534"><ele>125.0</ele><time>2026-05-01T15:46:12.999Z</time></trkpt><trkpt lat="42.13893960528363" lon="8.603526688020727"><ele>125.0</ele><time>2026-05-01T15:46:13.999Z</time></trkpt><trkpt lat="42.13894565100715" lon="8.603695024411483"><ele>125.0</ele><time>2026-05-01T15:46:14.999Z</time></trkpt><trkpt lat="42.13894711244153" lon="8.603854699921808"><ele>125.0</ele><time>2026-05-01T15:46:15.999Z</time></trkpt><trkpt lat="42.13892077832158" lon="8.60400471701045"><ele>125.75</ele><time>2026-05-01T15:46:16.999Z</time></trkpt><trkpt lat="42.13886585866016" lon="8.604147490612188"><ele>126.5</ele><time>2026-05-01T15:46:17.999Z</time></trkpt><trkpt lat="42.138794956038545" lon="8.604297232215655"><ele>127.25</ele><time>2026-05-01T15:46:18.999Z</time></trkpt><trkpt lat="42.13872912656412" lon="8.604463913012554"><ele>128.0</ele><time>2026-05-01T15:46:19.999Z</time></trkpt><trkpt lat="42.13865844779752" lon="8.604629953336524"><ele>131.25</ele><time>2026-05-01T15:46:20.999Z</time></trkpt><trkpt lat="42.13858592604002" lon="8.60478657916704"><ele>134.5</ele><time>2026-05-01T15:46:21.999Z</time></trkpt><trkpt lat="42.13852356471074" lon="8.604921344691258"><ele>137.75</ele><time>2026-05-01T15:46:22.999Z</time></trkpt><trkpt lat="42.13846282375776" lon="8.605055713722919"><ele>141.0</ele><time>2026-05-01T15:46:23.999Z</time></trkpt><trkpt lat="42.13840573748836" lon="8.605199028881211"><ele>144.25</ele><time>2026-05-01T15:46:24.999Z</time></trkpt><trkpt lat="42.13835321604298" lon="8.60533840071589"><ele>147.5</ele><time>2026-05-01T15:46:25.999Z</time></trkpt><trkpt lat="42.13830912839912" lon="8.605476997042516"><ele>150.75</ele><time>2026-05-01T15:46:26.999Z</time></trkpt><trkpt lat="42.138273840410946" lon="8.605620049521516"><ele>154.0</ele><time>2026-05-01T15:46:27.999Z</time></trkpt><trkpt lat="42.138242787609734" lon="8.605777972145086"><ele>145.5</ele><time>2026-05-01T15:46:28.999Z</time></trkpt><trkpt lat="42.138212681302186" lon="8.605927542556703"><ele>137.0</ele><time>2026-05-01T15:46:29.999Z</time></trkpt><trkpt lat="42.13817121893577" lon="8.606087428388374"><ele>128.5</ele><time>2026-05-01T15:46:30.999Z</time></trkpt><trkpt lat="42.13813712228846" lon="8.606252471722115"><ele>120.0</ele><time>2026-05-01T15:46:31.999Z</time></trkpt><trkpt lat="42.13812386445012" lon="8.606421889072566"><ele>120.0</ele><time>2026-05-01T15:46:32.999Z</time></trkpt><trkpt lat="42.13813580077154" lon="8.606595160363678"><ele>120.0</ele><time>2026-05-01T15:46:33.999Z</time></trkpt><trkpt lat="42.138177558622665" lon="8.60677522954963"><ele>120.0</ele><time>2026-05-01T15:46:34.999Z</time></trkpt><trkpt lat="42.13823835474622" lon="8.6069576695322"><ele>120.0</ele><time>2026-05-01T15:46:35.999Z</time></trkpt><trkpt lat="42.138312097321666" lon="8.607144443899491"><ele>131.0</ele><time>2026-05-01T15:46:36.999Z</time></trkpt><trkpt lat="42.138391987628076" lon="8.607327267748849"><ele>142.0</ele><time>2026-05-01T15:46:37.999Z</time></trkpt><trkpt lat="42.138483015915845" lon="8.607500817288196"><ele>153.0</ele><time>2026-05-01T15:46:38.999Z</time></trkpt><trkpt lat="42.13859230598302" lon="8.607668471791637"><ele>147.66666666666666</ele><time>2026-05-01T15:46:39.999Z</time></trkpt><trkpt lat="42.1387048631125" lon="8.60783086816069"><ele>142.33333333333331</ele><time>2026-05-01T15:46:40.999Z</time></trkpt><trkpt lat="42.13881677284418" lon="8.60799876950167"><ele>137.0</ele><time>2026-05-01T15:46:41.999Z</time></trkpt><trkpt lat="42.13892753189555" lon="8.60815433549871"><ele>147.66666666666666</ele><time>2026-05-01T15:46:42.999Z</time></trkpt><trkpt lat="42.13905196178854" lon="8.608293106812546"><ele>158.33333333333334</ele><time>2026-05-01T15:46:43.999Z</time></trkpt><trkpt lat="42.13918253501524" lon="8.608389878562294"><ele>169.0</ele><time>2026-05-01T15:46:44.999Z</time></trkpt><trkpt lat="42.13932582756968" lon="8.60847821047862"><ele>169.0</ele><time>2026-05-01T15:46:45.999Z</time></trkpt><trkpt lat="42.13946189472675" lon="8.608571469517297"><ele>169.0</ele><time>2026-05-01T15:46:46.999Z</time></trkpt><trkpt lat="42.13959702673332" lon="8.608684428061087"><ele>169.0</ele><time>2026-05-01T15:46:47.998Z</time></trkpt><trkpt lat="42.13972658363372" lon="8.608804346234837"><ele>172.5</ele><time>2026-05-01T15:46:48.998Z</time></trkpt><trkpt lat="42.139846648931254" lon="8.608922229495665"><ele>176.0</ele><time>2026-05-01T15:46:49.998Z</time></trkpt><trkpt lat="42.13995071909826" lon="8.609046767111783"><ele>179.5</ele><time>2026-05-01T15:46:50.998Z</time></trkpt><trkpt lat="42.14004631583034" lon="8.609175916453452"><ele>183.0</ele><time>2026-05-01T15:46:51.998Z</time></trkpt><trkpt lat="42.14012468698769" lon="8.609302516336772"><ele>183.0</ele><time>2026-05-01T15:46:52.998Z</time></trkpt><trkpt lat="42.140172071661176" lon="8.609416339710473"><ele>183.0</ele><time>2026-05-01T15:46:53.998Z</time></trkpt><trkpt lat="42.14019978352826" lon="8.609532488345009"><ele>183.0</ele><time>2026-05-01T15:46:54.998Z</time></trkpt><trkpt lat="42.14021185800965" lon="8.609655363758108"><ele>183.0</ele><time>2026-05-01T15:46:55.998Z</time></trkpt><trkpt lat="42.14019867709352" lon="8.609791862589365"><ele>183.0</ele><time>2026-05-01T15:46:56.998Z</time></trkpt><trkpt lat="42.14017120521896" lon="8.609956795706498"><ele>183.75</ele><time>2026-05-01T15:46:57.998Z</time></trkpt><trkpt lat="42.14014005451034" lon="8.610103588472368"><ele>184.5</ele><time>2026-05-01T15:46:58.998Z</time></trkpt><trkpt lat="42.14010915294967" lon="8.610260034588071"><ele>185.25</ele><time>2026-05-01T15:46:59.998Z</time></trkpt><trkpt lat="42.14009132052387" lon="8.61042864710166"><ele>186.0</ele><time>2026-05-01T15:47:00.998Z</time></trkpt><trkpt lat="42.14008556365491" lon="8.610604661237476"><ele>188.75</ele><time>2026-05-01T15:47:01.998Z</time></trkpt><trkpt lat="42.140083381285166" lon="8.610788578323582"><ele>191.5</ele><time>2026-05-01T15:47:02.998Z</time></trkpt><trkpt lat="42.14008430798062" lon="8.610971596716167"><ele>194.25</ele><time>2026-05-01T15:47:03.998Z</time></trkpt><trkpt lat="42.140085967218646" lon="8.611148755480285"><ele>197.0</ele><time>2026-05-01T15:47:04.998Z</time></trkpt><trkpt lat="42.140099718706125" lon="8.611343731740437"><ele>198.0</ele><time>2026-05-01T15:47:05.998Z</time></trkpt><trkpt lat="42.14011010858717" lon="8.611591084072025"><ele>199.0</ele><time>2026-05-01T15:47:06.998Z</time></trkpt><trkpt lat="42.140118776183876" lon="8.611817294823657"><ele>200.0</ele><time>2026-05-01T15:47:07.998Z</time></trkpt><trkpt lat="42.140130919282356" lon="8.611998734675762"><ele>200.0</ele><time>2026-05-01T15:47:08.998Z</time></trkpt><trkpt lat="42.14015249806744" lon="8.612140277939828"><ele>200.0</ele><time>2026-05-01T15:47:09.998Z</time></trkpt><trkpt lat="42.14019406159644" lon="8.61225998356169"><ele>200.0</ele><time>2026-05-01T15:47:10.998Z</time></trkpt><trkpt lat="42.14026905017822" lon="8.612363245571728"><ele>200.0</ele><time>2026-05-01T15:47:11.998Z</time></trkpt><trkpt lat="42.14037050831754" lon="8.612440742963189"><ele>200.0</ele><time>2026-05-01T15:47:13Z</time></trkpt><trkpt lat="42.1404927361112" lon="8.6125282270725"><ele>200.0</ele><time>2026-05-01T15:47:14Z</time></trkpt><trkpt lat="42.1406241961708" lon="8.612636775117853"><ele>200.0</ele><time>2026-05-01T15:47:15Z</time></trkpt><trkpt lat="42.14074691592313" lon="8.612780432289542"><ele>200.0</ele><time>2026-05-01T15:47:16Z</time></trkpt><trkpt lat="42.14087145492613" lon="8.612929876068288"><ele>204.0</ele><time>2026-05-01T15:47:17Z</time></trkpt><trkpt lat="42.14099743605318" lon="8.613097571272174"><ele>208.0</ele><time>2026-05-01T15:47:18Z</time></trkpt><trkpt lat="42.14111987608222" lon="8.613266178501844"><ele>212.0</ele><time>2026-05-01T15:47:19Z</time></trkpt><trkpt lat="42.14125537849856" lon="8.613430333724116"><ele>212.0</ele><time>2026-05-01T15:47:20Z</time></trkpt><trkpt lat="42.14138126544806" lon="8.613576737265047"><ele>212.0</ele><time>2026-05-01T15:47:21Z</time></trkpt><trkpt lat="42.14149742266902" lon="8.613701756643497"><ele>212.0</ele><time>2026-05-01T15:47:22Z</time></trkpt><trkpt lat="42.141623189863154" lon="8.613811143659339"><ele>214.0</ele><time>2026-05-01T15:47:23Z</time></trkpt><trkpt lat="42.141763741215925" lon="8.61390235987091"><ele>216.0</ele><time>2026-05-01T15:47:24Z</time></trkpt><trkpt lat="42.14190421898237" lon="8.613983896277709"><ele>218.0</ele><time>2026-05-01T15:47:25Z</time></trkpt><trkpt lat="42.142058050013475" lon="8.614075899489565"><ele>218.0</ele><time>2026-05-01T15:47:26Z</time></trkpt><trkpt lat="42.14220371486099" lon="8.614165114055496"><ele>218.0</ele><time>2026-05-01T15:47:27Z</time></trkpt><trkpt lat="42.14234015495987" lon="8.614277897930513"><ele>218.0</ele><time>2026-05-01T15:47:28Z</time></trkpt><trkpt lat="42.14247060658886" lon="8.614395570045854"><ele>219.5</ele><time>2026-05-01T15:47:29Z</time></trkpt><trkpt lat="42.14257970066856" lon="8.614499114909975"><ele>221.0</ele><time>2026-05-01T15:47:30Z</time></trkpt><trkpt lat="42.142676570507454" lon="8.614608926367298"><ele>222.5</ele><time>2026-05-01T15:47:31Z</time></trkpt><trkpt lat="42.14276100706041" lon="8.614739244380502"><ele>224.0</ele><time>2026-05-01T15:47:32Z</time></trkpt><trkpt lat="42.1428249357316" lon="8.614892259490633"><ele>224.0</ele><time>2026-05-01T15:47:33Z</time></trkpt><trkpt lat="42.14287265477912" lon="8.615073477622332"><ele>224.0</ele><time>2026-05-01T15:47:34Z</time></trkpt><trkpt lat="42.142880874094686" lon="8.615276021085734"><ele>224.0</ele><time>2026-05-01T15:47:35Z</time></trkpt><trkpt lat="42.14288283757366" lon="8.615450083028994"><ele>224.0</ele><time>2026-05-01T15:47:36Z</time></trkpt><trkpt lat="42.142888941593114" lon="8.615621176646892"><ele>221.75</ele><time>2026-05-01T15:47:37Z</time></trkpt><trkpt lat="42.14292627051997" lon="8.615766531990163"><ele>219.5</ele><time>2026-05-01T15:47:38Z</time></trkpt><trkpt lat="42.14300086295394" lon="8.61590680216411"><ele>217.25</ele><time>2026-05-01T15:47:39Z</time></trkpt><trkpt lat="42.143097012588534" lon="8.616039099126743"><ele>215.0</ele><time>2026-05-01T15:47:40Z</time></trkpt><trkpt lat="42.14317813973693" lon="8.616180202312544"><ele>223.75</ele><time>2026-05-01T15:47:41Z</time></trkpt><trkpt lat="42.14323611514159" lon="8.616351051678734"><ele>232.5</ele><time>2026-05-01T15:47:42Z</time></trkpt><trkpt lat="42.14326080536596" lon="8.616534819985231"><ele>241.25</ele><time>2026-05-01T15:47:43Z</time></trkpt><trkpt lat="42.14332040344719" lon="8.616704525051988"><ele>250.0</ele><time>2026-05-01T15:47:44Z</time></trkpt><trkpt lat="42.14341506478763" lon="8.616858590563984"><ele>246.33333333333331</ele><time>2026-05-01T15:47:45Z</time></trkpt><trkpt lat="42.143512797050285" lon="8.617010318076979"><ele>242.66666666666669</ele><time>2026-05-01T15:47:46Z</time></trkpt><trkpt lat="42.143614662525856" lon="8.617182213164954"><ele>239.0</ele><time>2026-05-01T15:47:47Z</time></trkpt><trkpt lat="42.14372353456469" lon="8.617354137867986"><ele>239.0</ele><time>2026-05-01T15:47:48Z</time></trkpt><trkpt lat="42.14383019864867" lon="8.617524802853152"><ele>239.0</ele><time>2026-05-01T15:47:49Z</time></trkpt><trkpt lat="42.14395103081693" lon="8.61767863983581"><ele>239.0</ele><time>2026-05-01T15:47:50Z</time></trkpt><trkpt lat="42.14404805230542" lon="8.61785259546537"><ele>249.66666666666669</ele><time>2026-05-01T15:47:51Z</time></trkpt><trkpt lat="42.14411293925639" lon="8.61803437246348"><ele>260.3333333333333</ele><time>2026-05-01T15:47:52Z</time></trkpt><trkpt lat="42.14415992540715" lon="8.618238821901702"><ele>271.0</ele><time>2026-05-01T15:47:53Z</time></trkpt><trkpt lat="42.14420260380961" lon="8.618436143349477"><ele>271.0</ele><time>2026-05-01T15:47:54Z</time></trkpt><trkpt lat="42.14424162688825" lon="8.618638835485706"><ele>271.0</ele><time>2026-05-01T15:47:55Z</time></trkpt><trkpt lat="42.14425329396129" lon="8.618836198207402"><ele>271.0</ele><time>2026-05-01T15:47:56Z</time></trkpt><trkpt lat="42.144224042950164" lon="8.619005509297814"><ele>271.0</ele><time>2026-05-01T15:47:57Z</time></trkpt><trkpt lat="42.144171050083635" lon="8.619192100274123"><ele>271.75</ele><time>2026-05-01T15:47:58Z</time></trkpt><trkpt lat="42.144118095222154" lon="8.619359160367123"><ele>272.5</ele><time>2026-05-01T15:47:59Z</time></trkpt><trkpt lat="42.144061459119364" lon="8.619534552854834"><ele>273.25</ele><time>2026-05-01T15:47:59.999Z</time></trkpt><trkpt lat="42.14403392945663" lon="8.619711857467438"><ele>274.0</ele><time>2026-05-01T15:48:00.999Z</time></trkpt><trkpt lat="42.14405391022588" lon="8.619894025507678"><ele>275.66666666666663</ele><time>2026-05-01T15:48:01.999Z</time></trkpt><trkpt lat="42.14411309007663" lon="8.62008498731031"><ele>277.3333333333333</ele><time>2026-05-01T15:48:02.999Z</time></trkpt><trkpt lat="42.14418338387556" lon="8.620272251598475"><ele>279.0</ele><time>2026-05-01T15:48:03.999Z</time></trkpt><trkpt lat="42.144247087989356" lon="8.620475681881448"><ele>279.5</ele><time>2026-05-01T15:48:04.999Z</time></trkpt><trkpt lat="42.144293769769874" lon="8.62067188183366"><ele>280.0</ele><time>2026-05-01T15:48:05.999Z</time></trkpt><trkpt lat="42.14432167327592" lon="8.620863384209802"><ele>280.5</ele><time>2026-05-01T15:48:06.999Z</time></trkpt><trkpt lat="42.144323200533265" lon="8.621041780463296"><ele>281.0</ele><time>2026-05-01T15:48:07.999Z</time></trkpt><trkpt lat="42.14428855817302" lon="8.62120377596326"><ele>283.75</ele><time>2026-05-01T15:48:08.999Z</time></trkpt><trkpt lat="42.14421837078586" lon="8.621351928613262"><ele>286.5</ele><time>2026-05-01T15:48:09.999Z</time></trkpt><trkpt lat="42.1441378673263" lon="8.621495822534117"><ele>289.25</ele><time>2026-05-01T15:48:10.999Z</time></trkpt><trkpt lat="42.14408273756813" lon="8.621654256113137"><ele>292.0</ele><time>2026-05-01T15:48:11.999Z</time></trkpt><trkpt lat="42.14407398185099" lon="8.621820532018049"><ele>292.0</ele><time>2026-05-01T15:48:12.999Z</time></trkpt><trkpt lat="42.14412570405413" lon="8.621969168927132"><ele>292.0</ele><time>2026-05-01T15:48:13.999Z</time></trkpt><trkpt lat="42.144211513515394" lon="8.622112254307249"><ele>292.0</ele><time>2026-05-01T15:48:14.999Z</time></trkpt><trkpt lat="42.14429393584243" lon="8.622248361683164"><ele>292.0</ele><time>2026-05-01T15:48:15.999Z</time></trkpt><trkpt lat="42.144379046468664" lon="8.622391302823262"><ele>291.0</ele><time>2026-05-01T15:48:16.999Z</time></trkpt><trkpt lat="42.14446526918588" lon="8.622537239498538"><ele>290.0</ele><time>2026-05-01T15:48:17.999Z</time></trkpt><trkpt lat="42.14456030555392" lon="8.622684142590368"><ele>289.0</ele><time>2026-05-01T15:48:18.999Z</time></trkpt><trkpt lat="42.144653907909344" lon="8.622838370766647"><ele>288.0</ele><time>2026-05-01T15:48:19.999Z</time></trkpt><trkpt lat="42.14474400367877" lon="8.623003242731032"><ele>283.75</ele><time>2026-05-01T15:48:20.999Z</time></trkpt><trkpt lat="42.144831039526956" lon="8.623177521253199"><ele>279.5</ele><time>2026-05-01T15:48:21.999Z</time></trkpt><trkpt lat="42.144911260863864" lon="8.623344836331082"><ele>275.25</ele><time>2026-05-01T15:48:22.999Z</time></trkpt><trkpt lat="42.14498643816294" lon="8.623495441896571"><ele>271.0</ele><time>2026-05-01T15:48:23.999Z</time></trkpt><trkpt lat="42.14503125349661" lon="8.623652703734702"><ele>280.75</ele><time>2026-05-01T15:48:24.999Z</time></trkpt><trkpt lat="42.14505103837815" lon="8.623833838227787"><ele>290.5</ele><time>2026-05-01T15:48:25.999Z</time></trkpt><trkpt lat="42.145041428852" lon="8.624018795533566"><ele>300.25</ele><time>2026-05-01T15:48:26.999Z</time></trkpt><trkpt lat="42.14501340744362" lon="8.624220436619122"><ele>310.0</ele><time>2026-05-01T15:48:27.999Z</time></trkpt><trkpt lat="42.144967552898194" lon="8.624422472475105"><ele>305.3333333333333</ele><time>2026-05-01T15:48:28.999Z</time></trkpt><trkpt lat="42.14490976362058" lon="8.62461899324657"><ele>300.6666666666667</ele><time>2026-05-01T15:48:29.999Z</time></trkpt><trkpt lat="42.14483644636255" lon="8.624810768089484"><ele>296.0</ele><time>2026-05-01T15:48:30.999Z</time></trkpt><trkpt lat="42.144753156848175" lon="8.624989668561998"><ele>296.0</ele><time>2026-05-01T15:48:31.999Z</time></trkpt><trkpt lat="42.144665773725684" lon="8.625159510384233"><ele>296.0</ele><time>2026-05-01T15:48:32.999Z</time></trkpt><trkpt lat="42.14456509709637" lon="8.62532711396425"><ele>296.0</ele><time>2026-05-01T15:48:33.999Z</time></trkpt><trkpt lat="42.14446115108242" lon="8.625447259657719"><ele>301.0</ele><time>2026-05-01T15:48:34.999Z</time></trkpt><trkpt lat="42.14436428423384" lon="8.625558455382949"><ele>306.0</ele><time>2026-05-01T15:48:35.999Z</time></trkpt><trkpt lat="42.144287036039955" lon="8.625655416433915"><ele>311.0</ele><time>2026-05-01T15:48:36.999Z</time></trkpt><trkpt lat="42.14423395050639" lon="8.625781105694509"><ele>316.0</ele><time>2026-05-01T15:48:37.999Z</time></trkpt><trkpt lat="42.14419917152921" lon="8.625944912782847"><ele>316.0</ele><time>2026-05-01T15:48:38.999Z</time></trkpt><trkpt lat="42.14417994320472" lon="8.626128999632105"><ele>316.0</ele><time>2026-05-01T15:48:39.999Z</time></trkpt><trkpt lat="42.14416182326615" lon="8.62632512576061"><ele>316.0</ele><time>2026-05-01T15:48:40.999Z</time></trkpt><trkpt lat="42.144147843374945" lon="8.626518838241436"><ele>316.0</ele><time>2026-05-01T15:48:41.999Z</time></trkpt><trkpt lat="42.144149533099515" lon="8.62672097669433"><ele>317.75</ele><time>2026-05-01T15:48:42.999Z</time></trkpt><trkpt lat="42.14415939923673" lon="8.626917227102401"><ele>319.5</ele><time>2026-05-01T15:48:43.999Z</time></trkpt><trkpt lat="42.144174658865346" lon="8.627101664522462"><ele>321.25</ele><time>2026-05-01T15:48:44.999Z</time></trkpt><trkpt lat="42.14418669048198" lon="8.627270076575684"><ele>323.0</ele><time>2026-05-01T15:48:45.999Z</time></trkpt><trkpt lat="42.1441906360236" lon="8.627433519925658"><ele>324.0</ele><time>2026-05-01T15:48:46.999Z</time></trkpt><trkpt lat="42.14416968039256" lon="8.627589516346813"><ele>325.0</ele><time>2026-05-01T15:48:47.999Z</time></trkpt><trkpt lat="42.14412618286298" lon="8.627719680993586"><ele>326.0</ele><time>2026-05-01T15:48:48.999Z</time></trkpt><trkpt lat="42.14405498381965" lon="8.627839656838097"><ele>327.0</ele><time>2026-05-01T15:48:49.999Z</time></trkpt><trkpt lat="42.143958720482445" lon="8.627926995600665"><ele>330.25</ele><time>2026-05-01T15:48:50.999Z</time></trkpt><trkpt lat="42.14384257000289" lon="8.62798580171368"><ele>333.5</ele><time>2026-05-01T15:48:51.999Z</time></trkpt><trkpt lat="42.14371702086992" lon="8.62801290736273"><ele>336.75</ele><time>2026-05-01T15:48:52.999Z</time></trkpt><trkpt lat="42.143574572299435" lon="8.628009610179989"><ele>340.0</ele><time>2026-05-01T15:48:53.999Z</time></trkpt><trkpt lat="42.1434374201691" lon="8.628012278208699"><ele>340.0</ele><time>2026-05-01T15:48:54.999Z</time></trkpt><trkpt lat="42.14329907693571" lon="8.628039095447324"><ele>340.0</ele><time>2026-05-01T15:48:55.999Z</time></trkpt><trkpt lat="42.14316056771091" lon="8.628097933421943"><ele>340.0</ele><time>2026-05-01T15:48:56.998Z</time></trkpt><trkpt lat="42.14302450699074" lon="8.62815545262938"><ele>340.0</ele><time>2026-05-01T15:48:57.998Z</time></trkpt><trkpt lat="42.14288983217327" lon="8.628205881956886"><ele>337.8</ele><time>2026-05-01T15:48:58.998Z</time></trkpt><trkpt lat="42.1427563446474" lon="8.628226097558954"><ele>335.6</ele><time>2026-05-01T15:48:59.998Z</time></trkpt><trkpt lat="42.1426424089013" lon="8.628252865520246"><ele>333.4</ele><time>2026-05-01T15:49:00.998Z</time></trkpt><trkpt lat="42.14255520547307" lon="8.628309166246774"><ele>331.2</ele><time>2026-05-01T15:49:01.998Z</time></trkpt><trkpt lat="42.14249619069491" lon="8.62837995806464"><ele>329.0</ele><time>2026-05-01T15:49:02.998Z</time></trkpt><trkpt lat="42.14248445413283" lon="8.628471115115893"><ele>329.0</ele><time>2026-05-01T15:49:03.998Z</time></trkpt><trkpt lat="42.14251721415682" lon="8.628575723471304"><ele>329.0</ele><time>2026-05-01T15:49:04.998Z</time></trkpt><trkpt lat="42.14258560796086" lon="8.628661958992616"><ele>329.0</ele><time>2026-05-01T15:49:05.998Z</time></trkpt><trkpt lat="42.1426762419905" lon="8.628699249798592"><ele>329.0</ele><time>2026-05-01T15:49:06.998Z</time></trkpt><trkpt lat="42.142783233566206" lon="8.628686531940135"><ele>329.0</ele><time>2026-05-01T15:49:07.998Z</time></trkpt><trkpt lat="42.14290221644944" lon="8.628632220657405"><ele>329.0</ele><time>2026-05-01T15:49:08.998Z</time></trkpt><trkpt lat="42.143027835178685" lon="8.628547807879292"><ele>329.0</ele><time>2026-05-01T15:49:09.998Z</time></trkpt><trkpt lat="42.14316112106074" lon="8.628476064055404"><ele>329.0</ele><time>2026-05-01T15:49:10.998Z</time></trkpt><trkpt lat="42.143293842550506" lon="8.628442465629789"><ele>329.0</ele><time>2026-05-01T15:49:11.998Z</time></trkpt><trkpt lat="42.14341818414024" lon="8.628459156497774"><ele>331.75</ele><time>2026-05-01T15:49:12.998Z</time></trkpt><trkpt lat="42.143539214917226" lon="8.628522611046279"><ele>334.5</ele><time>2026-05-01T15:49:13.998Z</time></trkpt><trkpt lat="42.14365840332166" lon="8.628616503082766"><ele>337.25</ele><time>2026-05-01T15:49:14.998Z</time></trkpt><trkpt lat="42.14378479951217" lon="8.628722013697363"><ele>340.0</ele><time>2026-05-01T15:49:15.998Z</time></trkpt><trkpt lat="42.14390881341744" lon="8.628812982243195"><ele>343.75</ele><time>2026-05-01T15:49:16.998Z</time></trkpt><trkpt lat="42.144036014843685" lon="8.628886613703736"><ele>347.5</ele><time>2026-05-01T15:49:17.998Z</time></trkpt><trkpt lat="42.144166497397855" lon="8.62891850108567"><ele>351.25</ele><time>2026-05-01T15:49:19Z</time></trkpt><trkpt lat="42.14429995894597" lon="8.628925598391154"><ele>355.0</ele><time>2026-05-01T15:49:20Z</time></trkpt><trkpt lat="42.14441385384116" lon="8.62890816855141"><ele>357.5</ele><time>2026-05-01T15:49:21Z</time></trkpt><trkpt lat="42.144525619796326" lon="8.628881340276711"><ele>360.0</ele><time>2026-05-01T15:49:22Z</time></trkpt><trkpt lat="42.14464578155518" lon="8.628841471950269"><ele>362.5</ele><time>2026-05-01T15:49:23Z</time></trkpt><trkpt lat="42.14476825080166" lon="8.628781128705297"><ele>365.0</ele><time>2026-05-01T15:49:24Z</time></trkpt><trkpt lat="42.14489380405279" lon="8.628724106399146"><ele>367.25</ele><time>2026-05-01T15:49:25Z</time></trkpt><trkpt lat="42.14501825272311" lon="8.6287131712546"><ele>369.5</ele><time>2026-05-01T15:49:26Z</time></trkpt><trkpt lat="42.145144040316445" lon="8.628726979398989"><ele>371.75</ele><time>2026-05-01T15:49:27Z</time></trkpt><trkpt lat="42.1452715761377" lon="8.62873449322302"><ele>374.0</ele><time>2026-05-01T15:49:28Z</time></trkpt><trkpt lat="42.14540112568821" lon="8.628733285312414"><ele>374.0</ele><time>2026-05-01T15:49:29Z</time></trkpt><trkpt lat="42.14553304136873" lon="8.62871617145525"><ele>374.0</ele><time>2026-05-01T15:49:30Z</time></trkpt><trkpt lat="42.145644491739176" lon="8.628669829816724"><ele>374.0</ele><time>2026-05-01T15:49:31Z</time></trkpt><trkpt lat="42.14573458386316" lon="8.628585497837753"><ele>374.0</ele><time>2026-05-01T15:49:32Z</time></trkpt><trkpt lat="42.14580183580992" lon="8.628495527891177"><ele>374.0</ele><time>2026-05-01T15:49:33Z</time></trkpt><trkpt lat="42.145856844294435" lon="8.628364506392957"><ele>374.0</ele><time>2026-05-01T15:49:34Z</time></trkpt><trkpt lat="42.14587789443005" lon="8.628220324036153"><ele>374.0</ele><time>2026-05-01T15:49:35Z</time></trkpt><trkpt lat="42.14589041266099" lon="8.628065909463263"><ele>374.0</ele><time>2026-05-01T15:49:36Z</time></trkpt><trkpt lat="42.14589594138262" lon="8.627912711883232"><ele>374.0</ele><time>2026-05-01T15:49:37Z</time></trkpt><trkpt lat="42.14590153296117" lon="8.627753671715817"><ele>373.79999999999995</ele><time>2026-05-01T15:49:38Z</time></trkpt><trkpt lat="42.14591144033981" lon="8.627600492149064"><ele>373.59999999999997</ele><time>2026-05-01T15:49:39Z</time></trkpt><trkpt lat="42.14593112651278" lon="8.627447813632378"><ele>373.4</ele><time>2026-05-01T15:49:40Z</time></trkpt><trkpt lat="42.145981887438815" lon="8.627318542644652"><ele>373.2</ele><time>2026-05-01T15:49:41Z</time></trkpt><trkpt lat="42.14607331295421" lon="8.62724348121569"><ele>373.0</ele><time>2026-05-01T15:49:42Z</time></trkpt><trkpt lat="42.146179825044996" lon="8.627204118502618"><ele>373.0</ele><time>2026-05-01T15:49:43Z</time></trkpt><trkpt lat="42.146285275172424" lon="8.627215942274777"><ele>373.0</ele><time>2026-05-01T15:49:44Z</time></trkpt><trkpt lat="42.14638194286469" lon="8.627266037685647"><ele>373.0</ele><time>2026-05-01T15:49:45Z</time></trkpt><trkpt lat="42.146479526417366" lon="8.627356610141263"><ele>373.0</ele><time>2026-05-01T15:49:46Z</time></trkpt><trkpt lat="42.146562331218036" lon="8.627465549523203"><ele>373.0</ele><time>2026-05-01T15:49:47Z</time></trkpt><trkpt lat="42.14664885090841" lon="8.627588297566408"><ele>376.25</ele><time>2026-05-01T15:49:48Z</time></trkpt><trkpt lat="42.146709113704055" lon="8.627726450877788"><ele>379.5</ele><time>2026-05-01T15:49:49Z</time></trkpt><trkpt lat="42.14674293526793" lon="8.627883748326106"><ele>382.75</ele><time>2026-05-01T15:49:50Z</time></trkpt><trkpt lat="42.14675186981777" lon="8.628065416837039"><ele>386.0</ele><time>2026-05-01T15:49:51Z</time></trkpt><trkpt lat="42.14675726405233" lon="8.62824101206948"><ele>387.5</ele><time>2026-05-01T15:49:52Z</time></trkpt><trkpt lat="42.146773617623694" lon="8.628424914044917"><ele>389.0</ele><time>2026-05-01T15:49:53Z</time></trkpt><trkpt lat="42.14678441205902" lon="8.628611915390001"><ele>390.5</ele><time>2026-05-01T15:49:54Z</time></trkpt><trkpt lat="42.14677956820575" lon="8.628790901596725"><ele>392.0</ele><time>2026-05-01T15:49:55Z</time></trkpt><trkpt lat="42.14675768910194" lon="8.628975321594442"><ele>394.75</ele><time>2026-05-01T15:49:56Z</time></trkpt><trkpt lat="42.14672234664658" lon="8.629146812759178"><ele>397.5</ele><time>2026-05-01T15:49:57Z</time></trkpt><trkpt lat="42.14667468222152" lon="8.62931361981949"><ele>400.25</ele><time>2026-05-01T15:49:58Z</time></trkpt><trkpt lat="42.14660619420856" lon="8.62945804346797"><ele>403.0</ele><time>2026-05-01T15:49:59Z</time></trkpt><trkpt lat="42.14652446436797" lon="8.6295894198064"><ele>403.25</ele><time>2026-05-01T15:50:00Z</time></trkpt><trkpt lat="42.146441013872334" lon="8.629703082247174"><ele>403.5</ele><time>2026-05-01T15:50:01Z</time></trkpt><trkpt lat="42.14636492264638" lon="8.629813841029284"><ele>403.75</ele><time>2026-05-01T15:50:02Z</time></trkpt><trkpt lat="42.146302593285476" lon="8.629935899281296"><ele>404.0</ele><time>2026-05-01T15:50:02.999Z</time></trkpt><trkpt lat="42.14626141206556" lon="8.630077459902965"><ele>404.0</ele><time>2026-05-01T15:50:03.999Z</time></trkpt><trkpt lat="42.146214280063724" lon="8.630225692740026"><ele>404.0</ele><time>2026-05-01T15:50:04.999Z</time></trkpt><trkpt lat="42.14615035249972" lon="8.630355716481835"><ele>404.0</ele><time>2026-05-01T15:50:05.999Z</time></trkpt><trkpt lat="42.14607675700445" lon="8.630489602101012"><ele>404.0</ele><time>2026-05-01T15:50:06.999Z</time></trkpt><trkpt lat="42.1460080072961" lon="8.63064212064877"><ele>408.5</ele><time>2026-05-01T15:50:07.999Z</time></trkpt><trkpt lat="42.14596078546386" lon="8.630819719998867"><ele>413.0</ele><time>2026-05-01T15:50:08.999Z</time></trkpt><trkpt lat="42.14591357404059" lon="8.63098397254682"><ele>417.5</ele><time>2026-05-01T15:50:09.999Z</time></trkpt><trkpt lat="42.14586772005846" lon="8.631148367749198"><ele>422.0</ele><time>2026-05-01T15:50:10.999Z</time></trkpt><trkpt lat="42.14582566857946" lon="8.631300304051306"><ele>423.6</ele><time>2026-05-01T15:50:11.999Z</time></trkpt><trkpt lat="42.1457788122074" lon="8.631451723564107"><ele>425.20000000000005</ele><time>2026-05-01T15:50:12.999Z</time></trkpt><trkpt lat="42.145721839726086" lon="8.631583557215452"><ele>426.8</ele><time>2026-05-01T15:50:13.999Z</time></trkpt><trkpt lat="42.14566507829117" lon="8.631707921116286"><ele>428.4</ele><time>2026-05-01T15:50:14.999Z</time></trkpt><trkpt lat="42.14562054436432" lon="8.631821595246741"><ele>430.0</ele><time>2026-05-01T15:50:15.999Z</time></trkpt><trkpt lat="42.14559784417868" lon="8.631944347746705"><ele>433.0</ele><time>2026-05-01T15:50:16.999Z</time></trkpt><trkpt lat="42.14561055329202" lon="8.632073223665616"><ele>436.0</ele><time>2026-05-01T15:50:17.999Z</time></trkpt><trkpt lat="42.145632024605625" lon="8.632216346682185"><ele>439.0</ele><time>2026-05-01T15:50:18.999Z</time></trkpt><trkpt lat="42.14566975885156" lon="8.632359794720994"><ele>442.0</ele><time>2026-05-01T15:50:19.999Z</time></trkpt><trkpt lat="42.14571390482236" lon="8.632496280863462"><ele>445.0</ele><time>2026-05-01T15:50:20.999Z</time></trkpt><trkpt lat="42.14577110779064" lon="8.632634589179347"><ele>445.0</ele><time>2026-05-01T15:50:21.999Z</time></trkpt><trkpt lat="42.1458459488663" lon="8.632754685343055"><ele>445.0</ele><time>2026-05-01T15:50:22.999Z</time></trkpt><trkpt lat="42.145939386964315" lon="8.632871491642712"><ele>445.0</ele><time>2026-05-01T15:50:23.999Z</time></trkpt><trkpt lat="42.146055720256726" lon="8.63299417489957"><ele>445.0</ele><time>2026-05-01T15:50:24.999Z</time></trkpt><trkpt lat="42.146189934308424" lon="8.633111921901053"><ele>442.0</ele><time>2026-05-01T15:50:25.999Z</time></trkpt><trkpt lat="42.14632054782529" lon="8.63323949787513"><ele>439.0</ele><time>2026-05-01T15:50:26.999Z</time></trkpt><trkpt lat="42.146455058176294" lon="8.633379221385846"><ele>436.0</ele><time>2026-05-01T15:50:27.999Z</time></trkpt><trkpt lat="42.146581924268276" lon="8.633535555081846"><ele>438.33333333333337</ele><time>2026-05-01T15:50:28.999Z</time></trkpt><trkpt lat="42.14669862482986" lon="8.633696956999549"><ele>440.66666666666663</ele><time>2026-05-01T15:50:29.999Z</time></trkpt><trkpt lat="42.146815448184775" lon="8.633867417772507"><ele>443.0</ele><time>2026-05-01T15:50:30.999Z</time></trkpt><trkpt lat="42.146908043075534" lon="8.63405070282769"><ele>443.0</ele><time>2026-05-01T15:50:31.999Z</time></trkpt><trkpt lat="42.14699715852937" lon="8.634235391229927"><ele>443.0</ele><time>2026-05-01T15:50:32.999Z</time></trkpt><trkpt lat="42.14707993995316" lon="8.634424804057705"><ele>443.0</ele><time>2026-05-01T15:50:33.999Z</time></trkpt><trkpt lat="42.147171319939176" lon="8.63461553467151"><ele>438.0</ele><time>2026-05-01T15:50:34.999Z</time></trkpt><trkpt lat="42.14726107094303" lon="8.634821127370929"><ele>433.0</ele><time>2026-05-01T15:50:35.999Z</time></trkpt><trkpt lat="42.1473434837969" lon="8.635009252037934"><ele>428.0</ele><time>2026-05-01T15:50:36.999Z</time></trkpt><trkpt lat="42.14742261877328" lon="8.635186896758874"><ele>433.0</ele><time>2026-05-01T15:50:37.999Z</time></trkpt><trkpt lat="42.14749053221265" lon="8.635352809752879"><ele>437.99999999999994</ele><time>2026-05-01T15:50:38.999Z</time></trkpt><trkpt lat="42.14754753604945" lon="8.635510324057275"><ele>442.99999999999994</ele><time>2026-05-01T15:50:39.999Z</time></trkpt><trkpt lat="42.14758708270902" lon="8.635614517907428"><ele>448.0</ele><time>2026-05-01T15:50:40.999Z</time></trkpt><trkpt lat="42.14761604134624" lon="8.63569386509921"><ele>453.0</ele><time>2026-05-01T15:50:41.999Z</time></trkpt><trkpt lat="42.14764541766543" lon="8.635769554850647"><ele>453.0</ele><time>2026-05-01T15:50:43.999Z</time></trkpt><trkpt lat="42.1476836390224" lon="8.635864289727564"><ele>453.0</ele><time>2026-05-01T15:50:46.999Z</time></trkpt><trkpt lat="42.14772491868967" lon="8.635962699806052"><ele>453.0</ele><time>2026-05-01T15:50:49.999Z</time></trkpt><trkpt lat="42.14777682992088" lon="8.636045689838488"><ele>453.0</ele><time>2026-05-01T15:50:53.999Z</time></trkpt><trkpt lat="42.14784397101523" lon="8.636155942153538"><ele>453.0</ele><time>2026-05-01T15:50:57.999Z</time></trkpt><trkpt lat="42.147880569880996" lon="8.636265952079171"><ele>453.0</ele><time>2026-05-01T15:50:59.998Z</time></trkpt><trkpt lat="42.14794732867277" lon="8.636397527436817"><ele>451.59999999999997</ele><time>2026-05-01T15:51:01.998Z</time></trkpt><trkpt lat="42.14804306662509" lon="8.636488328426392"><ele>450.19999999999993</ele><time>2026-05-01T15:51:03.998Z</time></trkpt><trkpt lat="42.14815506168974" lon="8.636585239554915"><ele>448.8</ele><time>2026-05-01T15:51:05.998Z</time></trkpt><trkpt lat="42.148218070307394" lon="8.636646149210968"><ele>447.4</ele><time>2026-05-01T15:51:06.998Z</time></trkpt><trkpt lat="42.14829011912867" lon="8.636707452045005"><ele>446.0</ele><time>2026-05-01T15:51:07.998Z</time></trkpt><trkpt lat="42.14836131235516" lon="8.636772260481619"><ele>448.16666666666663</ele><time>2026-05-01T15:51:08.998Z</time></trkpt><trkpt lat="42.1484322964218" lon="8.636844762257242"><ele>450.3333333333333</ele><time>2026-05-01T15:51:09.998Z</time></trkpt><trkpt lat="42.14849633859696" lon="8.636927602463574"><ele>452.5</ele><time>2026-05-01T15:51:10.998Z</time></trkpt><trkpt lat="42.14855769653266" lon="8.637009831404667"><ele>454.66666666666663</ele><time>2026-05-01T15:51:11.998Z</time></trkpt><trkpt lat="42.14862152970621" lon="8.6370982792822"><ele>456.8333333333333</ele><time>2026-05-01T15:51:12.998Z</time></trkpt><trkpt lat="42.14868734065586" lon="8.637166480029673"><ele>459.0</ele><time>2026-05-01T15:51:13.998Z</time></trkpt><trkpt lat="42.148750896437974" lon="8.637210938042562"><ele>459.0</ele><time>2026-05-01T15:51:14.998Z</time></trkpt><trkpt lat="42.14882439439398" lon="8.637266516075371"><ele>459.0</ele><time>2026-05-01T15:51:15.998Z</time></trkpt><trkpt lat="42.14888562425219" lon="8.63730485792957"><ele>459.0</ele><time>2026-05-01T15:51:16.998Z</time></trkpt><trkpt lat="42.148997655307106" lon="8.637395825200242"><ele>459.0</ele><time>2026-05-01T15:51:18.998Z</time></trkpt><trkpt lat="42.1490813115234" lon="8.637508910629949"><ele>459.0</ele><time>2026-05-01T15:51:20.998Z</time></trkpt><trkpt lat="42.14913365257433" lon="8.637619658174524"><ele>460.0</ele><time>2026-05-01T15:51:22.998Z</time></trkpt><trkpt lat="42.14917064909368" lon="8.63776389035652"><ele>461.0</ele><time>2026-05-01T15:51:25Z</time></trkpt><trkpt lat="42.14917176197804" lon="8.637921158947476"><ele>462.0</ele><time>2026-05-01T15:51:27Z</time></trkpt><trkpt lat="42.149160516544974" lon="8.638014020519307"><ele>463.0</ele><time>2026-05-01T15:51:28Z</time></trkpt><trkpt lat="42.149158428813834" lon="8.638106180081916"><ele>464.0</ele><time>2026-05-01T15:51:29Z</time></trkpt><trkpt lat="42.149149540202174" lon="8.638190758503068"><ele>465.0</ele><time>2026-05-01T15:51:30Z</time></trkpt><trkpt lat="42.1491444253785" lon="8.638289117206256"><ele>465.0</ele><time>2026-05-01T15:51:31Z</time></trkpt><trkpt lat="42.14916738951534" lon="8.638449562559583"><ele>465.0</ele><time>2026-05-01T15:51:33Z</time></trkpt><trkpt lat="42.1491864613877" lon="8.63854329683668"><ele>465.0</ele><time>2026-05-01T15:51:34Z</time></trkpt><trkpt lat="42.14922579137481" lon="8.638692737400149"><ele>465.0</ele><time>2026-05-01T15:51:36Z</time></trkpt><trkpt lat="42.14925276520193" lon="8.638785413547431"><ele>465.0</ele><time>2026-05-01T15:51:37Z</time></trkpt><trkpt lat="42.149288190624496" lon="8.63887858706138"><ele>463.0</ele><time>2026-05-01T15:51:38Z</time></trkpt><trkpt lat="42.14932766749007" lon="8.638970719121593"><ele>461.0</ele><time>2026-05-01T15:51:39Z</time></trkpt><trkpt lat="42.14936472231629" lon="8.63905792903155"><ele>459.0</ele><time>2026-05-01T15:51:40Z</time></trkpt><trkpt lat="42.149404285338036" lon="8.639144704472212"><ele>457.0</ele><time>2026-05-01T15:51:41Z</time></trkpt><trkpt lat="42.14944309904163" lon="8.639228525212884"><ele>455.0</ele><time>2026-05-01T15:51:42Z</time></trkpt><trkpt lat="42.14945540999486" lon="8.639347280046684"><ele>453.0</ele><time>2026-05-01T15:51:43Z</time></trkpt><trkpt lat="42.14946006209649" lon="8.63945103213506"><ele>450.8333333333333</ele><time>2026-05-01T15:51:44Z</time></trkpt><trkpt lat="42.14946631203359" lon="8.639573249092765"><ele>448.66666666666663</ele><time>2026-05-01T15:51:45Z</time></trkpt><trkpt lat="42.149467778360254" lon="8.639685866303243"><ele>446.5</ele><time>2026-05-01T15:51:46Z</time></trkpt><trkpt lat="42.149463143813115" lon="8.639805569666391"><ele>444.3333333333333</ele><time>2026-05-01T15:51:47Z</time></trkpt><trkpt lat="42.1494836629304" lon="8.63992478260716"><ele>442.16666666666663</ele><time>2026-05-01T15:51:48Z</time></trkpt><trkpt lat="42.149501140685125" lon="8.640045974242346"><ele>440.0</ele><time>2026-05-01T15:51:49Z</time></trkpt><trkpt lat="42.149525813626404" lon="8.64015721147064"><ele>439.99999999999994</ele><time>2026-05-01T15:51:50Z</time></trkpt><trkpt lat="42.14956597261788" lon="8.640266070725373"><ele>440.0</ele><time>2026-05-01T15:51:51Z</time></trkpt><trkpt lat="42.149607778724345" lon="8.64036631803462"><ele>440.0</ele><time>2026-05-01T15:51:52Z</time></trkpt><trkpt lat="42.14962425062859" lon="8.640495264465798"><ele>440.0</ele><time>2026-05-01T15:51:53Z</time></trkpt><trkpt lat="42.14963307301811" lon="8.640611494875177"><ele>439.99999999999994</ele><time>2026-05-01T15:51:54Z</time></trkpt><trkpt lat="42.14963958612649" lon="8.640728277548117"><ele>440.0</ele><time>2026-05-01T15:51:55Z</time></trkpt><trkpt lat="42.149638031076044" lon="8.640851137914812"><ele>439.66666666666663</ele><time>2026-05-01T15:51:56Z</time></trkpt><trkpt lat="42.1496124504351" lon="8.640944302735317"><ele>439.3333333333333</ele><time>2026-05-01T15:51:57Z</time></trkpt><trkpt lat="42.14958049939025" lon="8.641045310865582"><ele>439.0</ele><time>2026-05-01T15:51:58Z</time></trkpt><trkpt lat="42.14956282037737" lon="8.641132982519027"><ele>438.66666666666663</ele><time>2026-05-01T15:51:59Z</time></trkpt><trkpt lat="42.14955279803107" lon="8.641232997386364"><ele>438.3333333333333</ele><time>2026-05-01T15:52:00Z</time></trkpt><trkpt lat="42.14953809329836" lon="8.641357446673464"><ele>438.0</ele><time>2026-05-01T15:52:01Z</time></trkpt><trkpt lat="42.149505691331775" lon="8.641471993342465"><ele>438.0</ele><time>2026-05-01T15:52:02Z</time></trkpt><trkpt lat="42.149467297295985" lon="8.641571944144228"><ele>438.0</ele><time>2026-05-01T15:52:03Z</time></trkpt><trkpt lat="42.14945798847409" lon="8.641687945645572"><ele>438.0</ele><time>2026-05-01T15:52:04Z</time></trkpt><trkpt lat="42.149442936093344" lon="8.64180861495306"><ele>438.0</ele><time>2026-05-01T15:52:05Z</time></trkpt><trkpt lat="42.149434321130705" lon="8.641934750911185"><ele>438.0</ele><time>2026-05-01T15:52:06Z</time></trkpt><trkpt lat="42.14942303151127" lon="8.642060814512897"><ele>438.0</ele><time>2026-05-01T15:52:07Z</time></trkpt><trkpt lat="42.14940518619304" lon="8.642180798317163"><ele>439.59999999999997</ele><time>2026-05-01T15:52:08Z</time></trkpt><trkpt lat="42.149376549040305" lon="8.642306578766718"><ele>441.19999999999993</ele><time>2026-05-01T15:52:09Z</time></trkpt><trkpt lat="42.14933892403902" lon="8.64242318001343"><ele>442.8</ele><time>2026-05-01T15:52:09.999Z</time></trkpt><trkpt lat="42.14927629201615" lon="8.642526339390079"><ele>444.4</ele><time>2026-05-01T15:52:10.999Z</time></trkpt><trkpt lat="42.14922012755703" lon="8.642648092726052"><ele>446.0</ele><time>2026-05-01T15:52:11.999Z</time></trkpt><trkpt lat="42.149163479110356" lon="8.64277342607726"><ele>446.0</ele><time>2026-05-01T15:52:12.999Z</time></trkpt><trkpt lat="42.1490921735062" lon="8.642879181613011"><ele>446.0</ele><time>2026-05-01T15:52:13.999Z</time></trkpt><trkpt lat="42.14903024033091" lon="8.642986787542144"><ele>446.0</ele><time>2026-05-01T15:52:14.999Z</time></trkpt><trkpt lat="42.148981451118566" lon="8.643092900506636"><ele>446.0</ele><time>2026-05-01T15:52:15.999Z</time></trkpt><trkpt lat="42.1489313676341" lon="8.643192308458032"><ele>446.0</ele><time>2026-05-01T15:52:16.999Z</time></trkpt><trkpt lat="42.14886581449058" lon="8.643269346883864"><ele>443.8</ele><time>2026-05-01T15:52:17.999Z</time></trkpt><trkpt lat="42.14878796064759" lon="8.643325987348708"><ele>441.6</ele><time>2026-05-01T15:52:18.999Z</time></trkpt><trkpt lat="42.148701481635385" lon="8.643345057326194"><ele>439.4</ele><time>2026-05-01T15:52:19.999Z</time></trkpt><trkpt lat="42.14862154441956" lon="8.643344294434526"><ele>437.2</ele><time>2026-05-01T15:52:20.999Z</time></trkpt><trkpt lat="42.14853430084139" lon="8.643427682902109"><ele>435.0</ele><time>2026-05-01T15:52:22.999Z</time></trkpt><trkpt lat="42.14860110066334" lon="8.643556103189583"><ele>435.0</ele><time>2026-05-01T15:52:24.999Z</time></trkpt><trkpt lat="42.1486682004971" lon="8.643546699754433"><ele>435.0</ele><time>2026-05-01T15:52:25.999Z</time></trkpt><trkpt lat="42.14875023313536" lon="8.643521121230435"><ele>435.0</ele><time>2026-05-01T15:52:26.999Z</time></trkpt><trkpt lat="42.14883222641561" lon="8.643527035540815"><ele>435.0</ele><time>2026-05-01T15:52:27.999Z</time></trkpt><trkpt lat="42.14891412856191" lon="8.643581257386643"><ele>435.0</ele><time>2026-05-01T15:52:28.999Z</time></trkpt><trkpt lat="42.148970837987875" lon="8.643661018926101"><ele>435.0</ele><time>2026-05-01T15:52:29.999Z</time></trkpt><trkpt lat="42.149004221602816" lon="8.643760386182514"><ele>436.1666666666667</ele><time>2026-05-01T15:52:30.999Z</time></trkpt><trkpt lat="42.14902553188432" lon="8.643852750955727"><ele>437.33333333333337</ele><time>2026-05-01T15:52:31.999Z</time></trkpt><trkpt lat="42.149041369827025" lon="8.643947877052298"><ele>438.5</ele><time>2026-05-01T15:52:32.999Z</time></trkpt><trkpt lat="42.149058137388344" lon="8.644043611948826"><ele>439.6666666666667</ele><time>2026-05-01T15:52:33.999Z</time></trkpt><trkpt lat="42.14907087071138" lon="8.644148688797618"><ele>440.83333333333337</ele><time>2026-05-01T15:52:34.999Z</time></trkpt><trkpt lat="42.149083334659984" lon="8.644250695861984"><ele>442.0</ele><time>2026-05-01T15:52:35.999Z</time></trkpt><trkpt lat="42.14909782599233" lon="8.644357916048984"><ele>442.6666666666667</ele><time>2026-05-01T15:52:36.999Z</time></trkpt><trkpt lat="42.14910573374228" lon="8.644478740556794"><ele>443.33333333333337</ele><time>2026-05-01T15:52:37.999Z</time></trkpt><trkpt lat="42.14911426435867" lon="8.64459259553848"><ele>444.0</ele><time>2026-05-01T15:52:38.999Z</time></trkpt><trkpt lat="42.149121485179535" lon="8.64469566685745"><ele>444.66666666666663</ele><time>2026-05-01T15:52:39.999Z</time></trkpt><trkpt lat="42.14911937999959" lon="8.6447824653324"><ele>445.3333333333333</ele><time>2026-05-01T15:52:40.999Z</time></trkpt><trkpt lat="42.14907930138439" lon="8.644925471824244"><ele>446.0</ele><time>2026-05-01T15:52:42.999Z</time></trkpt><trkpt lat="42.1490325279291" lon="8.64500411550221"><ele>443.99999999999994</ele><time>2026-05-01T15:52:43.999Z</time></trkpt><trkpt lat="42.148982897923496" lon="8.645072873055923"><ele>442.0</ele><time>2026-05-01T15:52:44.999Z</time></trkpt><trkpt lat="42.14892739742238" lon="8.645168178877544"><ele>440.0</ele><time>2026-05-01T15:52:45.999Z</time></trkpt><trkpt lat="42.148876596108586" lon="8.645280133427319"><ele>438.0</ele><time>2026-05-01T15:52:46.999Z</time></trkpt><trkpt lat="42.14882545954122" lon="8.64538853951011"><ele>435.99999999999994</ele><time>2026-05-01T15:52:47.999Z</time></trkpt><trkpt lat="42.14876886683466" lon="8.645489264356405"><ele>434.0</ele><time>2026-05-01T15:52:48.999Z</time></trkpt><trkpt lat="42.148715116541766" lon="8.64558579959471"><ele>433.99999999999994</ele><time>2026-05-01T15:52:49.999Z</time></trkpt><trkpt lat="42.1486626684839" lon="8.645666381014655"><ele>434.0</ele><time>2026-05-01T15:52:50.999Z</time></trkpt><trkpt lat="42.14861151381552" lon="8.645738112523645"><ele>434.0</ele><time>2026-05-01T15:52:51.999Z</time></trkpt><trkpt lat="42.148551030422176" lon="8.645812831064532"><ele>434.0</ele><time>2026-05-01T15:52:52.999Z</time></trkpt><trkpt lat="42.14850052009671" lon="8.645890512040989"><ele>433.99999999999994</ele><time>2026-05-01T15:52:53.999Z</time></trkpt><trkpt lat="42.14845019665989" lon="8.645979792992224"><ele>434.0</ele><time>2026-05-01T15:52:54.999Z</time></trkpt><trkpt lat="42.14840562583666" lon="8.646054781133664"><ele>436.3333333333333</ele><time>2026-05-01T15:52:55.999Z</time></trkpt><trkpt lat="42.148359779236024" lon="8.646128994721005"><ele>438.66666666666663</ele><time>2026-05-01T15:52:56.999Z</time></trkpt><trkpt lat="42.148311149938415" lon="8.646202290085931"><ele>441.0</ele><time>2026-05-01T15:52:57.999Z</time></trkpt><trkpt lat="42.14826735146267" lon="8.64628712010375"><ele>443.33333333333337</ele><time>2026-05-01T15:52:58.999Z</time></trkpt><trkpt lat="42.14820472947963" lon="8.646361050514265"><ele>445.6666666666667</ele><time>2026-05-01T15:52:59.999Z</time></trkpt><trkpt lat="42.1481439636929" lon="8.646415814244891"><ele>448.0</ele><time>2026-05-01T15:53:00.999Z</time></trkpt><trkpt lat="42.14804864591711" lon="8.646516816776392"><ele>442.2</ele><time>2026-05-01T15:53:02.999Z</time></trkpt><trkpt lat="42.14799629424775" lon="8.646649338522678"><ele>436.4</ele><time>2026-05-01T15:53:04.999Z</time></trkpt><trkpt lat="42.147958731828304" lon="8.646753604157787"><ele>430.59999999999997</ele><time>2026-05-01T15:53:06.998Z</time></trkpt><trkpt lat="42.147883922842624" lon="8.646833065152647"><ele>424.79999999999995</ele><time>2026-05-01T15:53:08.998Z</time></trkpt><trkpt lat="42.14778945891664" lon="8.646867816661695"><ele>419.0</ele><time>2026-05-01T15:53:10.998Z</time></trkpt><trkpt lat="42.147699560849986" lon="8.646907926345241"><ele>419.0</ele><time>2026-05-01T15:53:12.998Z</time></trkpt><trkpt lat="42.14760602460796" lon="8.646934302886539"><ele>419.0</ele><time>2026-05-01T15:53:14.998Z</time></trkpt><trkpt lat="42.147507117583324" lon="8.64702696637832"><ele>419.0</ele><time>2026-05-01T15:53:16.998Z</time></trkpt><trkpt lat="42.14743918848004" lon="8.647085574493843"><ele>419.0</ele><time>2026-05-01T15:53:17.998Z</time></trkpt><trkpt lat="42.147361583177606" lon="8.647158669336509"><ele>419.0</ele><time>2026-05-01T15:53:18.998Z</time></trkpt><trkpt lat="42.14728065053142" lon="8.647239197509672"><ele>418.2857142857143</ele><time>2026-05-01T15:53:19.998Z</time></trkpt><trkpt lat="42.14721652687295" lon="8.64731429601639"><ele>417.57142857142856</ele><time>2026-05-01T15:53:20.998Z</time></trkpt><trkpt lat="42.14714888805003" lon="8.647384034054706"><ele>416.8571428571429</ele><time>2026-05-01T15:53:21.998Z</time></trkpt><trkpt lat="42.14709133311409" lon="8.647446673061872"><ele>416.1428571428571</ele><time>2026-05-01T15:53:22.998Z</time></trkpt><trkpt lat="42.14703907726248" lon="8.647501640578467"><ele>415.42857142857144</ele><time>2026-05-01T15:53:23.998Z</time></trkpt><trkpt lat="42.14700052340157" lon="8.647571309084334"><ele>414.7142857142857</ele><time>2026-05-01T15:53:24.998Z</time></trkpt><trkpt lat="42.146959612517904" lon="8.647650328106232"><ele>414.0</ele><time>2026-05-01T15:53:25.998Z</time></trkpt><trkpt lat="42.146927050529094" lon="8.647742391560108"><ele>413.0</ele><time>2026-05-01T15:53:26.998Z</time></trkpt><trkpt lat="42.14688384114878" lon="8.647829704639001"><ele>412.0</ele><time>2026-05-01T15:53:27.998Z</time></trkpt><trkpt lat="42.146836618410184" lon="8.647922048241302"><ele>411.0</ele><time>2026-05-01T15:53:28.998Z</time></trkpt><trkpt lat="42.1467728704804" lon="8.648001922419098"><ele>410.0</ele><time>2026-05-01T15:53:29.998Z</time></trkpt><trkpt lat="42.14670305104034" lon="8.648083162385946"><ele>409.0</ele><time>2026-05-01T15:53:31Z</time></trkpt><trkpt lat="42.14662081564582" lon="8.648171274969204"><ele>408.0</ele><time>2026-05-01T15:53:32Z</time></trkpt><trkpt lat="42.14653592824226" lon="8.648256523717746"><ele>408.0</ele><time>2026-05-01T15:53:33Z</time></trkpt><trkpt lat="42.146451359887664" lon="8.648344819769848"><ele>408.0</ele><time>2026-05-01T15:53:34Z</time></trkpt><trkpt lat="42.146381241745885" lon="8.64842608318275"><ele>408.0</ele><time>2026-05-01T15:53:35Z</time></trkpt><trkpt lat="42.146322472870544" lon="8.648504637533815"><ele>408.0</ele><time>2026-05-01T15:53:36Z</time></trkpt><trkpt lat="42.146273330035264" lon="8.64858323384521"><ele>408.0</ele><time>2026-05-01T15:53:37Z</time></trkpt><trkpt lat="42.14623143756068" lon="8.648673968799711"><ele>408.0</ele><time>2026-05-01T15:53:38Z</time></trkpt><trkpt lat="42.14619199975899" lon="8.64878612098655"><ele>409.4</ele><time>2026-05-01T15:53:39Z</time></trkpt><trkpt lat="42.14616084572148" lon="8.648910007436141"><ele>410.79999999999995</ele><time>2026-05-01T15:53:40Z</time></trkpt><trkpt lat="42.146138276300945" lon="8.649039742823001"><ele>412.2</ele><time>2026-05-01T15:53:41Z</time></trkpt><trkpt lat="42.14613764264753" lon="8.6491658246088"><ele>413.6</ele><time>2026-05-01T15:53:42Z</time></trkpt><trkpt lat="42.14614601171048" lon="8.649290810223995"><ele>415.0</ele><time>2026-05-01T15:53:43Z</time></trkpt><trkpt lat="42.14615843627747" lon="8.649399336339956"><ele>416.00000000000006</ele><time>2026-05-01T15:53:44Z</time></trkpt><trkpt lat="42.14616285069842" lon="8.649500529134066"><ele>417.0</ele><time>2026-05-01T15:53:45Z</time></trkpt><trkpt lat="42.146145091015605" lon="8.649603186872454"><ele>418.0</ele><time>2026-05-01T15:53:46Z</time></trkpt><trkpt lat="42.146096773717225" lon="8.649686185684086"><ele>419.0</ele><time>2026-05-01T15:53:47Z</time></trkpt><trkpt lat="42.14604310334752" lon="8.649764031596098"><ele>420.00000000000006</ele><time>2026-05-01T15:53:48Z</time></trkpt><trkpt lat="42.145985942466595" lon="8.649821289532209"><ele>421.0</ele><time>2026-05-01T15:53:49Z</time></trkpt><trkpt lat="42.145926183337885" lon="8.649885240751406"><ele>421.00000000000006</ele><time>2026-05-01T15:53:50Z</time></trkpt><trkpt lat="42.14587470010997" lon="8.64994740361145"><ele>421.0</ele><time>2026-05-01T15:53:51Z</time></trkpt><trkpt lat="42.145833213044384" lon="8.650020187124792"><ele>421.0</ele><time>2026-05-01T15:53:52Z</time></trkpt><trkpt lat="42.145798407897324" lon="8.650119374906522"><ele>421.0</ele><time>2026-05-01T15:53:53Z</time></trkpt><trkpt lat="42.14577815646101" lon="8.650229979930149"><ele>421.00000000000006</ele><time>2026-05-01T15:53:54Z</time></trkpt><trkpt lat="42.145767675362976" lon="8.650355462913849"><ele>421.0</ele><time>2026-05-01T15:53:55Z</time></trkpt><trkpt lat="42.14576046242493" lon="8.650505911184528"><ele>421.25</ele><time>2026-05-01T15:53:56Z</time></trkpt><trkpt lat="42.14576633680784" lon="8.650651935305111"><ele>421.5</ele><time>2026-05-01T15:53:57Z</time></trkpt><trkpt lat="42.14577555723637" lon="8.650816564717145"><ele>421.75</ele><time>2026-05-01T15:53:58Z</time></trkpt><trkpt lat="42.14578264627142" lon="8.65097739408847"><ele>422.0</ele><time>2026-05-01T15:53:59Z</time></trkpt><trkpt lat="42.14578841118108" lon="8.651130428639798"><ele>421.0</ele><time>2026-05-01T15:54:00Z</time></trkpt><trkpt lat="42.14579410392381" lon="8.651270274307864"><ele>420.0</ele><time>2026-05-01T15:54:01Z</time></trkpt><trkpt lat="42.1458153830103" lon="8.651386746479293"><ele>419.0</ele><time>2026-05-01T15:54:02Z</time></trkpt><trkpt lat="42.14585944157632" lon="8.651493359833106"><ele>418.0</ele><time>2026-05-01T15:54:03Z</time></trkpt><trkpt lat="42.14591325103876" lon="8.65158992303049"><ele>417.0</ele><time>2026-05-01T15:54:04Z</time></trkpt><trkpt lat="42.145955998833244" lon="8.651680322351046"><ele>417.0</ele><time>2026-05-01T15:54:05Z</time></trkpt><trkpt lat="42.14595184492559" lon="8.651795754556591"><ele>417.0</ele><time>2026-05-01T15:54:06Z</time></trkpt><trkpt lat="42.14590749337136" lon="8.651906378761012"><ele>417.0</ele><time>2026-05-01T15:54:07Z</time></trkpt><trkpt lat="42.14585421672218" lon="8.652037101896125"><ele>417.0</ele><time>2026-05-01T15:54:08Z</time></trkpt><trkpt lat="42.1458060065092" lon="8.652182009459063"><ele>417.0</ele><time>2026-05-01T15:54:09Z</time></trkpt><trkpt lat="42.145760084743614" lon="8.652325859510688"><ele>412.40000000000003</ele><time>2026-05-01T15:54:10Z</time></trkpt><trkpt lat="42.14568523312521" lon="8.652441104530073"><ele>407.8</ele><time>2026-05-01T15:54:11Z</time></trkpt><trkpt lat="42.14559672458843" lon="8.652522685519912"><ele>403.2</ele><time>2026-05-01T15:54:12Z</time></trkpt><trkpt lat="42.14550126942154" lon="8.652578292691953"><ele>398.6</ele><time>2026-05-01T15:54:13Z</time></trkpt><trkpt lat="42.145402038350355" lon="8.652581385031123"><ele>394.0</ele><time>2026-05-01T15:54:14Z</time></trkpt><trkpt lat="42.145306255241984" lon="8.652619723318779"><ele>394.0</ele><time>2026-05-01T15:54:15Z</time></trkpt><trkpt lat="42.14522942037787" lon="8.65270442274499"><ele>394.0</ele><time>2026-05-01T15:54:15.999Z</time></trkpt><trkpt lat="42.14516175964034" lon="8.652830439466355"><ele>394.0</ele><time>2026-05-01T15:54:16.999Z</time></trkpt><trkpt lat="42.145121233884176" lon="8.652967089184692"><ele>394.0</ele><time>2026-05-01T15:54:17.999Z</time></trkpt><trkpt lat="42.14510375571781" lon="8.653105849405776"><ele>394.0</ele><time>2026-05-01T15:54:18.999Z</time></trkpt><trkpt lat="42.14509725486298" lon="8.653266852741863"><ele>394.75</ele><time>2026-05-01T15:54:19.999Z</time></trkpt><trkpt lat="42.145090786506" lon="8.653443747490801"><ele>395.5</ele><time>2026-05-01T15:54:20.999Z</time></trkpt><trkpt lat="42.145085238673815" lon="8.653621188457775"><ele>396.25</ele><time>2026-05-01T15:54:21.999Z</time></trkpt><trkpt lat="42.14509549175221" lon="8.653792748932654"><ele>397.0</ele><time>2026-05-01T15:54:22.999Z</time></trkpt><trkpt lat="42.14511126297137" lon="8.653961958547553"><ele>397.0</ele><time>2026-05-01T15:54:23.999Z</time></trkpt><trkpt lat="42.14513529325843" lon="8.65408421899164"><ele>397.0</ele><time>2026-05-01T15:54:24.999Z</time></trkpt><trkpt lat="42.14516742617236" lon="8.65418323047326"><ele>397.0</ele><time>2026-05-01T15:54:25.999Z</time></trkpt><trkpt lat="42.14522153829361" lon="8.654271944477912"><ele>397.0</ele><time>2026-05-01T15:54:26.999Z</time></trkpt><trkpt lat="42.14528940815925" lon="8.654347237623815"><ele>397.0</ele><time>2026-05-01T15:54:27.999Z</time></trkpt><trkpt lat="42.14540020919341" lon="8.654390438201016"><ele>397.0</ele><time>2026-05-01T15:54:28.999Z</time></trkpt><trkpt lat="42.14552225744347" lon="8.65441292774961"><ele>397.0</ele><time>2026-05-01T15:54:29.999Z</time></trkpt><trkpt lat="42.14565019610052" lon="8.654414024021369"><ele>397.0</ele><time>2026-05-01T15:54:30.999Z</time></trkpt><trkpt lat="42.14575844506769" lon="8.654395557599583"><ele>397.0</ele><time>2026-05-01T15:54:31.999Z</time></trkpt><trkpt lat="42.14585523863655" lon="8.654375351144067"><ele>397.83333333333337</ele><time>2026-05-01T15:54:32.999Z</time></trkpt><trkpt lat="42.14593476218419" lon="8.654354404192"><ele>398.6666666666667</ele><time>2026-05-01T15:54:33.999Z</time></trkpt><trkpt lat="42.146014329162334" lon="8.654352017417473"><ele>399.5</ele><time>2026-05-01T15:54:34.999Z</time></trkpt><trkpt lat="42.146076315218984" lon="8.654372130740226"><ele>400.33333333333337</ele><time>2026-05-01T15:54:35.999Z</time></trkpt><trkpt lat="42.14619507352565" lon="8.654434476265536"><ele>401.1666666666667</ele><time>2026-05-01T15:54:37.999Z</time></trkpt><trkpt lat="42.14625910835113" lon="8.654420504460028"><ele>402.0</ele><time>2026-05-01T15:54:38.999Z</time></trkpt><trkpt lat="42.14638119339622" lon="8.654435006091918"><ele>402.0</ele><time>2026-05-01T15:54:40.999Z</time></trkpt><trkpt lat="42.14650905611704" lon="8.654383061510657"><ele>402.0</ele><time>2026-05-01T15:54:42.999Z</time></trkpt><trkpt lat="42.14657395288721" lon="8.654356700425394"><ele>402.0</ele><time>2026-05-01T15:54:43.999Z</time></trkpt><trkpt lat="42.14664411882344" lon="8.654337371152714"><ele>402.0</ele><time>2026-05-01T15:54:44.999Z</time></trkpt><trkpt lat="42.146709939909314" lon="8.654331338337872"><ele>402.0</ele><time>2026-05-01T15:54:45.999Z</time></trkpt><trkpt lat="42.146769329182874" lon="8.654366597710727"><ele>402.0</ele><time>2026-05-01T15:54:46.999Z</time></trkpt><trkpt lat="42.14682319729965" lon="8.654424395333617"><ele>397.1428571428571</ele><time>2026-05-01T15:54:47.999Z</time></trkpt><trkpt lat="42.14687668778905" lon="8.654473042279458"><ele>392.28571428571433</ele><time>2026-05-01T15:54:48.999Z</time></trkpt><trkpt lat="42.14693059734429" lon="8.654520254833097"><ele>387.42857142857144</ele><time>2026-05-01T15:54:49.999Z</time></trkpt><trkpt lat="42.14699234691911" lon="8.65454455918581"><ele>382.57142857142856</ele><time>2026-05-01T15:54:50.999Z</time></trkpt><trkpt lat="42.147061461547075" lon="8.654546527633048"><ele>377.71428571428567</ele><time>2026-05-01T15:54:51.999Z</time></trkpt><trkpt lat="42.14713655509989" lon="8.654544489235166"><ele>372.8571428571429</ele><time>2026-05-01T15:54:52.999Z</time></trkpt><trkpt lat="42.147203693506555" lon="8.654569492684514"><ele>368.0</ele><time>2026-05-01T15:54:53.999Z</time></trkpt><trkpt lat="42.14727079737017" lon="8.654629899860462"><ele>368.0</ele><time>2026-05-01T15:54:54.999Z</time></trkpt><trkpt lat="42.147322643330774" lon="8.654707863956022"><ele>368.0</ele><time>2026-05-01T15:54:55.999Z</time></trkpt><trkpt lat="42.14736325523609" lon="8.654798033966399"><ele>368.0</ele><time>2026-05-01T15:54:56.999Z</time></trkpt><trkpt lat="42.14741486862978" lon="8.654876651706607"><ele>368.0</ele><time>2026-05-01T15:54:57.999Z</time></trkpt><trkpt lat="42.14748668626463" lon="8.654926138714277"><ele>368.0</ele><time>2026-05-01T15:54:58.999Z</time></trkpt><trkpt lat="42.14755501964576" lon="8.6549463303628"><ele>368.0</ele><time>2026-05-01T15:54:59.999Z</time></trkpt><trkpt lat="42.14761487333306" lon="8.654997217267981"><ele>369.59999999999997</ele><time>2026-05-01T15:55:00.999Z</time></trkpt><trkpt lat="42.147644579891086" lon="8.655074478699056"><ele>371.2</ele><time>2026-05-01T15:55:01.999Z</time></trkpt><trkpt lat="42.147658574202985" lon="8.655159802827118"><ele>372.8</ele><time>2026-05-01T15:55:02.999Z</time></trkpt><trkpt lat="42.14772248955373" lon="8.655299305672342"><ele>374.4</ele><time>2026-05-01T15:55:04.999Z</time></trkpt><trkpt lat="42.14780190164595" lon="8.655398396066976"><ele>376.0</ele><time>2026-05-01T15:55:06.999Z</time></trkpt><trkpt lat="42.147818895857576" lon="8.655527467933078"><ele>376.0</ele><time>2026-05-01T15:55:08.999Z</time></trkpt><trkpt lat="42.14774503455761" lon="8.655620192604022"><ele>376.0</ele><time>2026-05-01T15:55:10.998Z</time></trkpt><trkpt lat="42.14762266728972" lon="8.655671879518424"><ele>376.0</ele><time>2026-05-01T15:55:12.998Z</time></trkpt><trkpt lat="42.14754703494961" lon="8.655692463223145"><ele>376.0</ele><time>2026-05-01T15:55:13.998Z</time></trkpt><trkpt lat="42.14746520202096" lon="8.65571036976537"><ele>376.0</ele><time>2026-05-01T15:55:14.998Z</time></trkpt><trkpt lat="42.147391043539535" lon="8.65574071095016"><ele>372.3333333333333</ele><time>2026-05-01T15:55:15.998Z</time></trkpt><trkpt lat="42.14732266516889" lon="8.655780442602763"><ele>368.66666666666663</ele><time>2026-05-01T15:55:16.998Z</time></trkpt><trkpt lat="42.147260994861604" lon="8.655825714799539"><ele>365.0</ele><time>2026-05-01T15:55:17.998Z</time></trkpt><trkpt lat="42.14720133379317" lon="8.655892030054673"><ele>361.3333333333333</ele><time>2026-05-01T15:55:18.998Z</time></trkpt><trkpt lat="42.14714860420368" lon="8.655978830842866"><ele>357.6666666666667</ele><time>2026-05-01T15:55:19.998Z</time></trkpt><trkpt lat="42.147104994302204" lon="8.656081848669606"><ele>354.0</ele><time>2026-05-01T15:55:20.998Z</time></trkpt><trkpt lat="42.147072835478454" lon="8.656196458776847"><ele>354.0</ele><time>2026-05-01T15:55:21.998Z</time></trkpt><trkpt lat="42.14702982673608" lon="8.656308419411797"><ele>354.0</ele><time>2026-05-01T15:55:22.998Z</time></trkpt><trkpt lat="42.146985652199184" lon="8.656414296644087"><ele>354.0</ele><time>2026-05-01T15:55:23.998Z</time></trkpt><trkpt lat="42.14695937190575" lon="8.656515983616082"><ele>354.0</ele><time>2026-05-01T15:55:24.998Z</time></trkpt><trkpt lat="42.14694032634047" lon="8.656629113866684"><ele>354.0</ele><time>2026-05-01T15:55:25.998Z</time></trkpt><trkpt lat="42.14694726015082" lon="8.656734474555186"><ele>354.0</ele><time>2026-05-01T15:55:26.998Z</time></trkpt><trkpt lat="42.146992055896966" lon="8.656827313219145"><ele>354.0</ele><time>2026-05-01T15:55:27.998Z</time></trkpt><trkpt lat="42.1470638320818" lon="8.656882989396205"><ele>354.0</ele><time>2026-05-01T15:55:28.998Z</time></trkpt><trkpt lat="42.147143871686396" lon="8.656910344796776"><ele>354.0</ele><time>2026-05-01T15:55:29.998Z</time></trkpt><trkpt lat="42.147229657261086" lon="8.65690002439002"><ele>354.0</ele><time>2026-05-01T15:55:30.998Z</time></trkpt><trkpt lat="42.14732104319363" lon="8.656886161139358"><ele>354.0</ele><time>2026-05-01T15:55:31.998Z</time></trkpt><trkpt lat="42.14741393408204" lon="8.656891943790995"><ele>354.0</ele><time>2026-05-01T15:55:32.998Z</time></trkpt><trkpt lat="42.14749359739333" lon="8.656927893266158"><ele>354.5</ele><time>2026-05-01T15:55:33.998Z</time></trkpt><trkpt lat="42.14754886747646" lon="8.656988780845994"><ele>355.0</ele><time>2026-05-01T15:55:34.998Z</time></trkpt><trkpt lat="42.147588443747644" lon="8.657081968316193"><ele>355.5</ele><time>2026-05-01T15:55:35.998Z</time></trkpt><trkpt lat="42.14759754361601" lon="8.657191606104513"><ele>356.0</ele><time>2026-05-01T15:55:37Z</time></trkpt><trkpt lat="42.147615758938215" lon="8.657320147070985"><ele>356.5</ele><time>2026-05-01T15:55:38Z</time></trkpt><trkpt lat="42.14763780406265" lon="8.657449252208053"><ele>357.0</ele><time>2026-05-01T15:55:39Z</time></trkpt><trkpt lat="42.147666169576404" lon="8.657577062089237"><ele>357.0</ele><time>2026-05-01T15:55:40Z</time></trkpt><trkpt lat="42.14770325301936" lon="8.65769551077272"><ele>357.0</ele><time>2026-05-01T15:55:41Z</time></trkpt><trkpt lat="42.147739049860434" lon="8.65780702080234"><ele>357.0</ele><time>2026-05-01T15:55:42Z</time></trkpt><trkpt lat="42.14777405361719" lon="8.657917216687231"><ele>357.0</ele><time>2026-05-01T15:55:43Z</time></trkpt><trkpt lat="42.147810784469364" lon="8.658031626335747"><ele>357.0</ele><time>2026-05-01T15:55:44Z</time></trkpt><trkpt lat="42.14783874689263" lon="8.65813503776134"><ele>357.0</ele><time>2026-05-01T15:55:45Z</time></trkpt><trkpt lat="42.14785322846657" lon="8.658253764978772"><ele>354.5</ele><time>2026-05-01T15:55:46Z</time></trkpt><trkpt lat="42.147857499734656" lon="8.658365626902503"><ele>352.0</ele><time>2026-05-01T15:55:47Z</time></trkpt><trkpt lat="42.14787005844411" lon="8.658474057248476"><ele>349.5</ele><time>2026-05-01T15:55:48Z</time></trkpt><trkpt lat="42.14787895997078" lon="8.658588265505625"><ele>347.0</ele><time>2026-05-01T15:55:49Z</time></trkpt><trkpt lat="42.147877833652366" lon="8.658709861078611"><ele>344.5</ele><time>2026-05-01T15:55:50Z</time></trkpt><trkpt lat="42.147866056773914" lon="8.658844299006141"><ele>342.0</ele><time>2026-05-01T15:55:51Z</time></trkpt><trkpt lat="42.147842516917336" lon="8.658975494187422"><ele>342.0</ele><time>2026-05-01T15:55:52Z</time></trkpt><trkpt lat="42.14781321441539" lon="8.659088230429395"><ele>342.0</ele><time>2026-05-01T15:55:53Z</time></trkpt><trkpt lat="42.14778277804975" lon="8.659191963478529"><ele>342.0</ele><time>2026-05-01T15:55:54Z</time></trkpt><trkpt lat="42.14775916582996" lon="8.659285404397862"><ele>342.0</ele><time>2026-05-01T15:55:55Z</time></trkpt><trkpt lat="42.147736014014356" lon="8.659377313930044"><ele>342.0</ele><time>2026-05-01T15:55:56Z</time></trkpt><trkpt lat="42.14770541297188" lon="8.659458425997794"><ele>342.0</ele><time>2026-05-01T15:55:57Z</time></trkpt><trkpt lat="42.14766626631195" lon="8.659533150799362"><ele>343.57142857142856</ele><time>2026-05-01T15:55:58Z</time></trkpt><trkpt lat="42.14760663008603" lon="8.659602635101471"><ele>345.1428571428571</ele><time>2026-05-01T15:55:59Z</time></trkpt><trkpt lat="42.147535455688555" lon="8.659640652957666"><ele>346.71428571428567</ele><time>2026-05-01T15:56:00Z</time></trkpt><trkpt lat="42.147467440670304" lon="8.659670290788553"><ele>348.2857142857143</ele><time>2026-05-01T15:56:01Z</time></trkpt><trkpt lat="42.14738723784982" lon="8.659664801354406"><ele>349.8571428571429</ele><time>2026-05-01T15:56:02Z</time></trkpt><trkpt lat="42.14731662088399" lon="8.65966853727989"><ele>351.4285714285714</ele><time>2026-05-01T15:56:03Z</time></trkpt><trkpt lat="42.14725007761962" lon="8.659690469524305"><ele>353.0</ele><time>2026-05-01T15:56:04Z</time></trkpt><trkpt lat="42.14718832887679" lon="8.659729079400828"><ele>347.0</ele><time>2026-05-01T15:56:05Z</time></trkpt><trkpt lat="42.147090465073354" lon="8.65985650529387"><ele>341.0</ele><time>2026-05-01T15:56:07Z</time></trkpt><trkpt lat="42.147060871139544" lon="8.659937983319757"><ele>335.0</ele><time>2026-05-01T15:56:08Z</time></trkpt><trkpt lat="42.14706018168701" lon="8.660042679249905"><ele>329.0</ele><time>2026-05-01T15:56:09Z</time></trkpt><trkpt lat="42.147065531512425" lon="8.660155539078714"><ele>323.0</ele><time>2026-05-01T15:56:10Z</time></trkpt><trkpt lat="42.14707038118163" lon="8.660279728839313"><ele>320.79999999999995</ele><time>2026-05-01T15:56:11Z</time></trkpt><trkpt lat="42.14706839720399" lon="8.660407779283064"><ele>318.59999999999997</ele><time>2026-05-01T15:56:12Z</time></trkpt><trkpt lat="42.14705243065023" lon="8.660535837538147"><ele>316.4</ele><time>2026-05-01T15:56:13Z</time></trkpt><trkpt lat="42.14703770305244" lon="8.660662236253946"><ele>314.2</ele><time>2026-05-01T15:56:14Z</time></trkpt><trkpt lat="42.14703519479611" lon="8.660781581444182"><ele>312.0</ele><time>2026-05-01T15:56:15Z</time></trkpt><trkpt lat="42.14705383332665" lon="8.660895165852851"><ele>312.0</ele><time>2026-05-01T15:56:16Z</time></trkpt><trkpt lat="42.147092175544145" lon="8.661007275246762"><ele>312.0</ele><time>2026-05-01T15:56:17Z</time></trkpt><trkpt lat="42.14713452211643" lon="8.661120992036961"><ele>312.0</ele><time>2026-05-01T15:56:17.999Z</time></trkpt><trkpt lat="42.14716889769354" lon="8.661225014937413"><ele>312.0</ele><time>2026-05-01T15:56:18.999Z</time></trkpt><trkpt lat="42.14718342511276" lon="8.661336151889046"><ele>312.0</ele><time>2026-05-01T15:56:19.999Z</time></trkpt><trkpt lat="42.1471717747829" lon="8.66145099299859"><ele>312.0</ele><time>2026-05-01T15:56:20.999Z</time></trkpt><trkpt lat="42.147142451308696" lon="8.661557352067854"><ele>311.1666666666667</ele><time>2026-05-01T15:56:21.999Z</time></trkpt><trkpt lat="42.14710187901712" lon="8.661651871603212"><ele>310.3333333333333</ele><time>2026-05-01T15:56:22.999Z</time></trkpt><trkpt lat="42.1470419884861" lon="8.661752487787316"><ele>309.5</ele><time>2026-05-01T15:56:23.999Z</time></trkpt><trkpt lat="42.14698287603923" lon="8.66183761248391"><ele>308.66666666666663</ele><time>2026-05-01T15:56:24.999Z</time></trkpt><trkpt lat="42.146948674006914" lon="8.661929736555726"><ele>307.8333333333333</ele><time>2026-05-01T15:56:25.999Z</time></trkpt><trkpt lat="42.14692776299428" lon="8.662033511451806"><ele>307.0</ele><time>2026-05-01T15:56:26.999Z</time></trkpt><trkpt lat="42.14692644797704" lon="8.662141105985102"><ele>307.0</ele><time>2026-05-01T15:56:27.999Z</time></trkpt><trkpt lat="42.14692929049973" lon="8.662248531788407"><ele>307.0</ele><time>2026-05-01T15:56:28.999Z</time></trkpt><trkpt lat="42.14692811040911" lon="8.662360862365064"><ele>307.0</ele><time>2026-05-01T15:56:29.999Z</time></trkpt><trkpt lat="42.146921416742465" lon="8.662468036379154"><ele>307.0</ele><time>2026-05-01T15:56:30.999Z</time></trkpt><trkpt lat="42.14692165713289" lon="8.66257597659468"><ele>307.0</ele><time>2026-05-01T15:56:31.999Z</time></trkpt><trkpt lat="42.14691708177756" lon="8.662678781461283"><ele>307.0</ele><time>2026-05-01T15:56:32.999Z</time></trkpt><trkpt lat="42.146931708869964" lon="8.662794542676808"><ele>306.66666666666663</ele><time>2026-05-01T15:56:33.999Z</time></trkpt><trkpt lat="42.14695034691628" lon="8.662902340355094"><ele>306.3333333333333</ele><time>2026-05-01T15:56:34.999Z</time></trkpt><trkpt lat="42.14695260484942" lon="8.663001247249007"><ele>306.0</ele><time>2026-05-01T15:56:35.999Z</time></trkpt><trkpt lat="42.146940771947285" lon="8.663105828746664"><ele>305.6666666666667</ele><time>2026-05-01T15:56:36.999Z</time></trkpt><trkpt lat="42.14690661989263" lon="8.663206979516811"><ele>305.33333333333337</ele><time>2026-05-01T15:56:37.999Z</time></trkpt><trkpt lat="42.14685066572481" lon="8.663280209593593"><ele>305.0</ele><time>2026-05-01T15:56:38.999Z</time></trkpt><trkpt lat="42.14679660473067" lon="8.663370972837765"><ele>305.0</ele><time>2026-05-01T15:56:39.999Z</time></trkpt><trkpt lat="42.146729975825785" lon="8.663432207470619"><ele>305.0</ele><time>2026-05-01T15:56:40.999Z</time></trkpt><trkpt lat="42.146662485047585" lon="8.663486720364274"><ele>305.0</ele><time>2026-05-01T15:56:41.999Z</time></trkpt><trkpt lat="42.14659849633268" lon="8.663533991466563"><ele>305.0</ele><time>2026-05-01T15:56:42.999Z</time></trkpt><trkpt lat="42.14653341897084" lon="8.663588126024388"><ele>305.0</ele><time>2026-05-01T15:56:43.999Z</time></trkpt><trkpt lat="42.146475279753176" lon="8.663637848803724"><ele>305.0</ele><time>2026-05-01T15:56:44.999Z</time></trkpt><trkpt lat="42.14643972372742" lon="8.663717572225108"><ele>305.0</ele><time>2026-05-01T15:56:45.999Z</time></trkpt><trkpt lat="42.14643982372702" lon="8.66381916082636"><ele>305.0</ele><time>2026-05-01T15:56:46.999Z</time></trkpt><trkpt lat="42.14647398923161" lon="8.66391554554501"><ele>305.0</ele><time>2026-05-01T15:56:47.999Z</time></trkpt><trkpt lat="42.14652987553692" lon="8.6639961903646"><ele>305.0</ele><time>2026-05-01T15:56:48.999Z</time></trkpt><trkpt lat="42.14657607002199" lon="8.664079183800618"><ele>305.0</ele><time>2026-05-01T15:56:49.999Z</time></trkpt><trkpt lat="42.146596116187794" lon="8.66418284957555"><ele>305.0</ele><time>2026-05-01T15:56:50.999Z</time></trkpt><trkpt lat="42.146586939393906" lon="8.664294222648087"><ele>305.0</ele><time>2026-05-01T15:56:51.999Z</time></trkpt><trkpt lat="42.146553023664424" lon="8.66440654623541"><ele>300.6</ele><time>2026-05-01T15:56:52.999Z</time></trkpt><trkpt lat="42.146505859996594" lon="8.664512307493343"><ele>296.2</ele><time>2026-05-01T15:56:53.999Z</time></trkpt><trkpt lat="42.146452548864396" lon="8.664621394326376"><ele>291.8</ele><time>2026-05-01T15:56:54.999Z</time></trkpt><trkpt lat="42.14639097412056" lon="8.66472206970854"><ele>287.4</ele><time>2026-05-01T15:56:55.999Z</time></trkpt><trkpt lat="42.146319460357326" lon="8.664802969263071"><ele>283.0</ele><time>2026-05-01T15:56:56.999Z</time></trkpt><trkpt lat="42.14623390328943" lon="8.664853296328117"><ele>283.0</ele><time>2026-05-01T15:56:57.999Z</time></trkpt><trkpt lat="42.14613279906276" lon="8.664855945453109"><ele>283.0</ele><time>2026-05-01T15:56:58.999Z</time></trkpt><trkpt lat="42.14604107544543" lon="8.664814143813883"><ele>283.0</ele><time>2026-05-01T15:56:59.999Z</time></trkpt><trkpt lat="42.14596013937272" lon="8.664782837005557"><ele>283.0</ele><time>2026-05-01T15:57:00.999Z</time></trkpt><trkpt lat="42.145869638868135" lon="8.664786898628897"><ele>283.0</ele><time>2026-05-01T15:57:01.999Z</time></trkpt><trkpt lat="42.145779998157074" lon="8.664807616208732"><ele>279.8333333333333</ele><time>2026-05-01T15:57:02.999Z</time></trkpt><trkpt lat="42.145707946712655" lon="8.66485701778614"><ele>276.66666666666663</ele><time>2026-05-01T15:57:03.999Z</time></trkpt><trkpt lat="42.14565761348102" lon="8.664932559089305"><ele>273.5</ele><time>2026-05-01T15:57:04.999Z</time></trkpt><trkpt lat="42.14563426997076" lon="8.665026476336848"><ele>270.3333333333333</ele><time>2026-05-01T15:57:05.999Z</time></trkpt><trkpt lat="42.14562705607318" lon="8.665137979247566"><ele>267.1666666666667</ele><time>2026-05-01T15:57:06.999Z</time></trkpt><trkpt lat="42.145631901660195" lon="8.665255879641625"><ele>264.0</ele><time>2026-05-01T15:57:07.999Z</time></trkpt><trkpt lat="42.14562641357639" lon="8.665394453236694"><ele>266.0</ele><time>2026-05-01T15:57:08.999Z</time></trkpt><trkpt lat="42.14561312946175" lon="8.665521886621313"><ele>268.0</ele><time>2026-05-01T15:57:09.999Z</time></trkpt><trkpt lat="42.14559989407402" lon="8.66565082667963"><ele>270.0</ele><time>2026-05-01T15:57:10.999Z</time></trkpt><trkpt lat="42.145610495901174" lon="8.665769074449637"><ele>272.0</ele><time>2026-05-01T15:57:11.998Z</time></trkpt><trkpt lat="42.14565402055733" lon="8.665879023395936"><ele>274.0</ele><time>2026-05-01T15:57:12.998Z</time></trkpt><trkpt lat="42.145714021032724" lon="8.665975440436673"><ele>274.0</ele><time>2026-05-01T15:57:13.998Z</time></trkpt><trkpt lat="42.14578304810429" lon="8.666048991788681"><ele>274.0</ele><time>2026-05-01T15:57:14.998Z</time></trkpt><trkpt lat="42.14587345609067" lon="8.666082255350396"><ele>274.0</ele><time>2026-05-01T15:57:15.998Z</time></trkpt><trkpt lat="42.14597488957656" lon="8.666082057822727"><ele>274.0</ele><time>2026-05-01T15:57:16.998Z</time></trkpt><trkpt lat="42.146083818983236" lon="8.666074447959858"><ele>274.0</ele><time>2026-05-01T15:57:17.998Z</time></trkpt><trkpt lat="42.14618941635881" lon="8.666061491317926"><ele>274.0</ele><time>2026-05-01T15:57:18.998Z</time></trkpt><trkpt lat="42.14629319544086" lon="8.666080079162228"><ele>274.0</ele><time>2026-05-01T15:57:19.998Z</time></trkpt><trkpt lat="42.14638431653807" lon="8.666124218295352"><ele>274.0</ele><time>2026-05-01T15:57:20.998Z</time></trkpt><trkpt lat="42.14647447465298" lon="8.666179018001168"><ele>274.0</ele><time>2026-05-01T15:57:21.998Z</time></trkpt><trkpt lat="42.14655524703532" lon="8.66623816206525"><ele>274.0</ele><time>2026-05-01T15:57:22.998Z</time></trkpt><trkpt lat="42.14661238063266" lon="8.66629593219459"><ele>272.66666666666663</ele><time>2026-05-01T15:57:23.998Z</time></trkpt><trkpt lat="42.14664085201991" lon="8.666378529392494"><ele>271.3333333333333</ele><time>2026-05-01T15:57:24.998Z</time></trkpt><trkpt lat="42.14664086877019" lon="8.666479701121752"><ele>270.0</ele><time>2026-05-01T15:57:25.998Z</time></trkpt><trkpt lat="42.14661566905509" lon="8.666589516029072"><ele>268.6666666666667</ele><time>2026-05-01T15:57:26.998Z</time></trkpt><trkpt lat="42.14658670574509" lon="8.666700237554771"><ele>267.33333333333337</ele><time>2026-05-01T15:57:27.998Z</time></trkpt><trkpt lat="42.14655050554304" lon="8.666812273854987"><ele>266.0</ele><time>2026-05-01T15:57:28.998Z</time></trkpt><trkpt lat="42.146493052635066" lon="8.666909429437341"><ele>261.1666666666667</ele><time>2026-05-01T15:57:29.998Z</time></trkpt><trkpt lat="42.14642683346898" lon="8.666978518396816"><ele>256.33333333333337</ele><time>2026-05-01T15:57:30.998Z</time></trkpt><trkpt lat="42.14637961556949" lon="8.667055893270945"><ele>251.5</ele><time>2026-05-01T15:57:31.998Z</time></trkpt><trkpt lat="42.14636130951023" lon="8.667156615815664"><ele>246.66666666666669</ele><time>2026-05-01T15:57:32.998Z</time></trkpt><trkpt lat="42.14635753259089" lon="8.66728510117855"><ele>241.83333333333334</ele><time>2026-05-01T15:57:33.998Z</time></trkpt><trkpt lat="42.14635976561567" lon="8.66742468508509"><ele>237.0</ele><time>2026-05-01T15:57:34.998Z</time></trkpt><trkpt lat="42.14636338574686" lon="8.667566056674612"><ele>237.0</ele><time>2026-05-01T15:57:35.998Z</time></trkpt><trkpt lat="42.14637345747656" lon="8.667700476987939"><ele>237.0</ele><time>2026-05-01T15:57:36.998Z</time></trkpt><trkpt lat="42.14639251312709" lon="8.667833435636604"><ele>237.0</ele><time>2026-05-01T15:57:37.998Z</time></trkpt><trkpt lat="42.146415424397894" lon="8.66796539610256"><ele>237.0</ele><time>2026-05-01T15:57:38.998Z</time></trkpt><trkpt lat="42.146437638186875" lon="8.66808603200886"><ele>237.0</ele><time>2026-05-01T15:57:39.998Z</time></trkpt><trkpt lat="42.14645317895905" lon="8.668204237644073"><ele>236.5</ele><time>2026-05-01T15:57:40.998Z</time></trkpt><trkpt lat="42.14646185324292" lon="8.668311184615355"><ele>236.0</ele><time>2026-05-01T15:57:41.998Z</time></trkpt><trkpt lat="42.14647142736123" lon="8.668409648934862"><ele>235.5</ele><time>2026-05-01T15:57:43Z</time></trkpt><trkpt lat="42.146485203424" lon="8.668497650560768"><ele>235.0</ele><time>2026-05-01T15:57:44Z</time></trkpt><trkpt lat="42.14651930083693" lon="8.668579724400939"><ele>234.5</ele><time>2026-05-01T15:57:45Z</time></trkpt><trkpt lat="42.14657456529063" lon="8.668641308389764"><ele>234.0</ele><time>2026-05-01T15:57:46Z</time></trkpt><trkpt lat="42.14666057388723" lon="8.668683698558723"><ele>234.0</ele><time>2026-05-01T15:57:47Z</time></trkpt><trkpt lat="42.14675275560018" lon="8.66870757242685"><ele>233.99999999999997</ele><time>2026-05-01T15:57:48Z</time></trkpt><trkpt lat="42.146845237051004" lon="8.668741101674474"><ele>233.99999999999997</ele><time>2026-05-01T15:57:49Z</time></trkpt><trkpt lat="42.14693386299989" lon="8.668781267890397"><ele>234.0</ele><time>2026-05-01T15:57:50Z</time></trkpt><trkpt lat="42.147011388757484" lon="8.66882624759286"><ele>234.0</ele><time>2026-05-01T15:57:51Z</time></trkpt><trkpt lat="42.14708857371707" lon="8.668868871474412"><ele>234.0</ele><time>2026-05-01T15:57:52Z</time></trkpt><trkpt lat="42.14715452391711" lon="8.668903152342219"><ele>234.0</ele><time>2026-05-01T15:57:53Z</time></trkpt><trkpt lat="42.14720746905381" lon="8.668970614997264"><ele>234.0</ele><time>2026-05-01T15:57:54Z</time></trkpt><trkpt lat="42.14722574806001" lon="8.669067206295296"><ele>234.0</ele><time>2026-05-01T15:57:55Z</time></trkpt><trkpt lat="42.147220316411016" lon="8.669173819934759"><ele>234.0</ele><time>2026-05-01T15:57:56Z</time></trkpt><trkpt lat="42.14720510865422" lon="8.669276990596295"><ele>234.0</ele><time>2026-05-01T15:57:57Z</time></trkpt><trkpt lat="42.14719491908614" lon="8.669377364196666"><ele>230.6</ele><time>2026-05-01T15:57:58Z</time></trkpt><trkpt lat="42.14718974601136" lon="8.669488051514385"><ele>227.2</ele><time>2026-05-01T15:57:59Z</time></trkpt><trkpt lat="42.147185283945475" lon="8.669611621167254"><ele>223.79999999999998</ele><time>2026-05-01T15:58:00Z</time></trkpt><trkpt lat="42.14717787875633" lon="8.669738763642021"><ele>220.39999999999998</ele><time>2026-05-01T15:58:01Z</time></trkpt><trkpt lat="42.14717120371255" lon="8.669867252427764"><ele>217.0</ele><time>2026-05-01T15:58:02Z</time></trkpt><trkpt lat="42.147167511590794" lon="8.670001558876365"><ele>216.99999999999997</ele><time>2026-05-01T15:58:03Z</time></trkpt><trkpt lat="42.14717758255355" lon="8.670134935656248"><ele>217.0</ele><time>2026-05-01T15:58:04Z</time></trkpt><trkpt lat="42.147196835012906" lon="8.670252305528143"><ele>217.0</ele><time>2026-05-01T15:58:05Z</time></trkpt><trkpt lat="42.14721996931136" lon="8.670350794590352"><ele>217.0</ele><time>2026-05-01T15:58:06Z</time></trkpt><trkpt lat="42.147264096793016" lon="8.670428187716077"><ele>216.99999999999997</ele><time>2026-05-01T15:58:07Z</time></trkpt><trkpt lat="42.14732544118268" lon="8.670490889679378"><ele>217.0</ele><time>2026-05-01T15:58:08Z</time></trkpt><trkpt lat="42.14739722918939" lon="8.670536419089165"><ele>216.83333333333331</ele><time>2026-05-01T15:58:09Z</time></trkpt><trkpt lat="42.14747523549719" lon="8.67058443049182"><ele>216.66666666666666</ele><time>2026-05-01T15:58:10Z</time></trkpt><trkpt lat="42.14755691271091" lon="8.670622488716027"><ele>216.5</ele><time>2026-05-01T15:58:11Z</time></trkpt><trkpt lat="42.14763456748091" lon="8.670665916061834"><ele>216.33333333333331</ele><time>2026-05-01T15:58:12Z</time></trkpt><trkpt lat="42.14770976591499" lon="8.67071259152072"><ele>216.16666666666666</ele><time>2026-05-01T15:58:13Z</time></trkpt><trkpt lat="42.14777113878386" lon="8.670786708633786"><ele>216.0</ele><time>2026-05-01T15:58:14Z</time></trkpt><trkpt lat="42.14781248317675" lon="8.67089334149579"><ele>216.0</ele><time>2026-05-01T15:58:15Z</time></trkpt><trkpt lat="42.14781573168531" lon="8.671005886476612"><ele>216.00000000000003</ele><time>2026-05-01T15:58:16Z</time></trkpt><trkpt lat="42.14778817756748" lon="8.671123944657344"><ele>216.00000000000003</ele><time>2026-05-01T15:58:17Z</time></trkpt><trkpt lat="42.14774990375227" lon="8.67124489502558"><ele>216.0</ele><time>2026-05-01T15:58:18Z</time></trkpt><trkpt lat="42.147727063410805" lon="8.671376129677943"><ele>216.0</ele><time>2026-05-01T15:58:19Z</time></trkpt><trkpt lat="42.147711139152776" lon="8.671513108890016"><ele>214.60000000000002</ele><time>2026-05-01T15:58:20Z</time></trkpt><trkpt lat="42.14771381494663" lon="8.67165535695943"><ele>213.20000000000002</ele><time>2026-05-01T15:58:21Z</time></trkpt><trkpt lat="42.14773247802854" lon="8.67178157770821"><ele>211.8</ele><time>2026-05-01T15:58:22Z</time></trkpt><trkpt lat="42.14775591734481" lon="8.671900193177668"><ele>210.39999999999998</ele><time>2026-05-01T15:58:23Z</time></trkpt><trkpt lat="42.14779286933876" lon="8.67201346476972"><ele>209.0</ele><time>2026-05-01T15:58:24Z</time></trkpt><trkpt lat="42.14785782510327" lon="8.672094178018337"><ele>209.00000000000003</ele><time>2026-05-01T15:58:25Z</time></trkpt><trkpt lat="42.14793734042877" lon="8.672105844215007"><ele>209.0</ele><time>2026-05-01T15:58:25.999Z</time></trkpt><trkpt lat="42.14801347338728" lon="8.672059456212509"><ele>209.0</ele><time>2026-05-01T15:58:26.999Z</time></trkpt><trkpt lat="42.14808097227227" lon="8.671984476229646"><ele>209.0</ele><time>2026-05-01T15:58:27.999Z</time></trkpt><trkpt lat="42.148159460746264" lon="8.671893945719836"><ele>209.00000000000003</ele><time>2026-05-01T15:58:28.999Z</time></trkpt><trkpt lat="42.14822862965094" lon="8.671809124231514"><ele>209.0</ele><time>2026-05-01T15:58:29.999Z</time></trkpt><trkpt lat="42.14828330424083" lon="8.671716061646318"><ele>208.33333333333334</ele><time>2026-05-01T15:58:30.999Z</time></trkpt><trkpt lat="42.14831328720223" lon="8.671607558154687"><ele>207.66666666666669</ele><time>2026-05-01T15:58:31.999Z</time></trkpt><trkpt lat="42.14831226663752" lon="8.671505582199977"><ele>207.0</ele><time>2026-05-01T15:58:32.999Z</time></trkpt><trkpt lat="42.148306070899224" lon="8.671398818738139"><ele>206.33333333333331</ele><time>2026-05-01T15:58:33.999Z</time></trkpt><trkpt lat="42.14831082524349" lon="8.67129868161265"><ele>205.66666666666666</ele><time>2026-05-01T15:58:34.999Z</time></trkpt><trkpt lat="42.14833869873687" lon="8.671220336317027"><ele>205.0</ele><time>2026-05-01T15:58:35.999Z</time></trkpt><trkpt lat="42.14843429952252" lon="8.671134844603042"><ele>204.99999999999997</ele><time>2026-05-01T15:58:37.999Z</time></trkpt><trkpt lat="42.148498665954016" lon="8.671141930129524"><ele>205.0</ele><time>2026-05-01T15:58:38.999Z</time></trkpt><trkpt lat="42.14858186812513" lon="8.671177002021718"><ele>205.0</ele><time>2026-05-01T15:58:39.999Z</time></trkpt><trkpt lat="42.148665625451905" lon="8.671214053049114"><ele>205.0</ele><time>2026-05-01T15:58:40.999Z</time></trkpt><trkpt lat="42.14874530241262" lon="8.671225538267601"><ele>204.99999999999997</ele><time>2026-05-01T15:58:41.999Z</time></trkpt><trkpt lat="42.148826557129354" lon="8.671214519168124"><ele>205.0</ele><time>2026-05-01T15:58:42.999Z</time></trkpt><trkpt lat="42.148906520863314" lon="8.67117213392314"><ele>206.0</ele><time>2026-05-01T15:58:43.999Z</time></trkpt><trkpt lat="42.148975113702924" lon="8.67108774256599"><ele>207.0</ele><time>2026-05-01T15:58:44.999Z</time></trkpt><trkpt lat="42.14903730448697" lon="8.671006041653175"><ele>208.0</ele><time>2026-05-01T15:58:45.999Z</time></trkpt><trkpt lat="42.14908712010269" lon="8.670926168850645"><ele>209.0</ele><time>2026-05-01T15:58:46.999Z</time></trkpt><trkpt lat="42.1491458691389" lon="8.670895623194967"><ele>210.0</ele><time>2026-05-01T15:58:47.999Z</time></trkpt><trkpt lat="42.14920765213079" lon="8.670921503302559"><ele>211.0</ele><time>2026-05-01T15:58:48.999Z</time></trkpt><trkpt lat="42.14925580244638" lon="8.670977148637462"><ele>212.0</ele><time>2026-05-01T15:58:49.999Z</time></trkpt><trkpt lat="42.149285538075915" lon="8.671052752494742"><ele>208.83333333333334</ele><time>2026-05-01T15:58:50.999Z</time></trkpt><trkpt lat="42.14932344382577" lon="8.671133101784166"><ele>205.66666666666669</ele><time>2026-05-01T15:58:51.999Z</time></trkpt><trkpt lat="42.1493656838922" lon="8.671227352336162"><ele>202.5</ele><time>2026-05-01T15:58:52.999Z</time></trkpt><trkpt lat="42.149398827916954" lon="8.67132044548417"><ele>199.33333333333331</ele><time>2026-05-01T15:58:53.999Z</time></trkpt><trkpt lat="42.14945055250915" lon="8.671425249490909"><ele>196.16666666666666</ele><time>2026-05-01T15:58:54.999Z</time></trkpt><trkpt lat="42.14949617152855" lon="8.67153872701109"><ele>193.0</ele><time>2026-05-01T15:58:55.999Z</time></trkpt><trkpt lat="42.14954841543427" lon="8.671657444470386"><ele>193.0</ele><time>2026-05-01T15:58:56.999Z</time></trkpt><trkpt lat="42.14960479152978" lon="8.67177509588323"><ele>193.0</ele><time>2026-05-01T15:58:57.999Z</time></trkpt><trkpt lat="42.14967120838979" lon="8.67188980018451"><ele>193.0</ele><time>2026-05-01T15:58:58.999Z</time></trkpt><trkpt lat="42.14972470765751" lon="8.6720098582252"><ele>193.0</ele><time>2026-05-01T15:58:59.999Z</time></trkpt><trkpt lat="42.14975908515687" lon="8.672118967082152"><ele>193.0</ele><time>2026-05-01T15:59:00.999Z</time></trkpt><trkpt lat="42.14976081562144" lon="8.67222279492157"><ele>193.71428571428572</ele><time>2026-05-01T15:59:01.999Z</time></trkpt><trkpt lat="42.14973809220813" lon="8.672330024665056"><ele>194.42857142857144</ele><time>2026-05-01T15:59:02.999Z</time></trkpt><trkpt lat="42.149717692020104" lon="8.67242359786753"><ele>195.14285714285717</ele><time>2026-05-01T15:59:03.999Z</time></trkpt><trkpt lat="42.14973871615057" lon="8.672512928879078"><ele>195.85714285714286</ele><time>2026-05-01T15:59:04.999Z</time></trkpt><trkpt lat="42.14978685880595" lon="8.672580159587056"><ele>196.57142857142856</ele><time>2026-05-01T15:59:05.999Z</time></trkpt><trkpt lat="42.149850478968446" lon="8.672598231348607"><ele>197.2857142857143</ele><time>2026-05-01T15:59:06.999Z</time></trkpt><trkpt lat="42.149918350024855" lon="8.672616633043656"><ele>198.0</ele><time>2026-05-01T15:59:07.999Z</time></trkpt><trkpt lat="42.14998774442226" lon="8.672739257447093"><ele>196.16666666666666</ele><time>2026-05-01T15:59:09.999Z</time></trkpt><trkpt lat="42.149931069241944" lon="8.672891079433164"><ele>194.33333333333334</ele><time>2026-05-01T15:59:11.999Z</time></trkpt><trkpt lat="42.14991300345782" lon="8.672985221579893"><ele>192.5</ele><time>2026-05-01T15:59:12.999Z</time></trkpt><trkpt lat="42.14992034596049" lon="8.673075630598978"><ele>190.66666666666669</ele><time>2026-05-01T15:59:13.999Z</time></trkpt><trkpt lat="42.14995598634311" lon="8.6731550230445"><ele>188.83333333333334</ele><time>2026-05-01T15:59:14.999Z</time></trkpt><trkpt lat="42.15001520992642" lon="8.67323341145806"><ele>187.0</ele><time>2026-05-01T15:59:15.999Z</time></trkpt><trkpt lat="42.15006544522843" lon="8.673306086310909"><ele>187.0</ele><time>2026-05-01T15:59:16.999Z</time></trkpt><trkpt lat="42.15011947945228" lon="8.673400263188187"><ele>187.0</ele><time>2026-05-01T15:59:17.999Z</time></trkpt><trkpt lat="42.15014601301366" lon="8.673521155187354"><ele>187.0</ele><time>2026-05-01T15:59:18.999Z</time></trkpt><trkpt lat="42.15015936470124" lon="8.673650884024246"><ele>187.0</ele><time>2026-05-01T15:59:19.998Z</time></trkpt><trkpt lat="42.15017134577365" lon="8.673779619941707"><ele>187.0</ele><time>2026-05-01T15:59:20.998Z</time></trkpt><trkpt lat="42.15017900867543" lon="8.673918264922996"><ele>184.6</ele><time>2026-05-01T15:59:21.998Z</time></trkpt><trkpt lat="42.15018772997538" lon="8.674047315932555"><ele>182.2</ele><time>2026-05-01T15:59:22.998Z</time></trkpt><trkpt lat="42.15020009257803" lon="8.674183894635814"><ele>179.8</ele><time>2026-05-01T15:59:23.998Z</time></trkpt><trkpt lat="42.15021684017737" lon="8.674326564295702"><ele>177.4</ele><time>2026-05-01T15:59:24.998Z</time></trkpt><trkpt lat="42.150214705560096" lon="8.6744753118958"><ele>175.0</ele><time>2026-05-01T15:59:25.998Z</time></trkpt><trkpt lat="42.15019553430403" lon="8.674616331831189"><ele>173.2</ele><time>2026-05-01T15:59:26.998Z</time></trkpt><trkpt lat="42.15017464948589" lon="8.67476033801626"><ele>171.4</ele><time>2026-05-01T15:59:27.998Z</time></trkpt><trkpt lat="42.15015248227078" lon="8.67489888256034"><ele>169.60000000000002</ele><time>2026-05-01T15:59:28.998Z</time></trkpt><trkpt lat="42.15014199641366" lon="8.67502804674231"><ele>167.8</ele><time>2026-05-01T15:59:29.998Z</time></trkpt><trkpt lat="42.15015471204569" lon="8.675151777115657"><ele>166.0</ele><time>2026-05-01T15:59:30.998Z</time></trkpt><trkpt lat="42.150194391263916" lon="8.67526301253467"><ele>164.20000000000002</ele><time>2026-05-01T15:59:31.998Z</time></trkpt><trkpt lat="42.150247506858804" lon="8.675377789547765"><ele>162.4</ele><time>2026-05-01T15:59:32.998Z</time></trkpt><trkpt lat="42.15028197403856" lon="8.675504071981125"><ele>160.6</ele><time>2026-05-01T15:59:33.998Z</time></trkpt><trkpt lat="42.1502747742883" lon="8.675629304244987"><ele>158.8</ele><time>2026-05-01T15:59:34.998Z</time></trkpt><trkpt lat="42.15024878082813" lon="8.675751052516286"><ele>157.0</ele><time>2026-05-01T15:59:35.998Z</time></trkpt><trkpt lat="42.150228931870025" lon="8.675865292306348"><ele>157.0</ele><time>2026-05-01T15:59:36.998Z</time></trkpt><trkpt lat="42.150243561371305" lon="8.675964379122904"><ele>157.0</ele><time>2026-05-01T15:59:37.998Z</time></trkpt><trkpt lat="42.15028524503053" lon="8.67604258907101"><ele>157.0</ele><time>2026-05-01T15:59:38.998Z</time></trkpt><trkpt lat="42.15034663630201" lon="8.67609235506485"><ele>157.0</ele><time>2026-05-01T15:59:39.998Z</time></trkpt><trkpt lat="42.15041386343927" lon="8.676108780933927"><ele>157.0</ele><time>2026-05-01T15:59:40.998Z</time></trkpt><trkpt lat="42.150493425379985" lon="8.676085791123597"><ele>157.0</ele><time>2026-05-01T15:59:41.998Z</time></trkpt><trkpt lat="42.150576187258665" lon="8.676028467970074"><ele>157.0</ele><time>2026-05-01T15:59:42.998Z</time></trkpt><trkpt lat="42.15063991099113" lon="8.675920117821907"><ele>157.0</ele><time>2026-05-01T15:59:43.998Z</time></trkpt><trkpt lat="42.15070729597833" lon="8.675824325818745"><ele>157.0</ele><time>2026-05-01T15:59:44.998Z</time></trkpt><trkpt lat="42.150762135987925" lon="8.675725791980131"><ele>157.0</ele><time>2026-05-01T15:59:45.998Z</time></trkpt><trkpt lat="42.15079865674528" lon="8.675621532727146"><ele>157.0</ele><time>2026-05-01T15:59:46.998Z</time></trkpt><trkpt lat="42.15085114550544" lon="8.67555123852359"><ele>158.14285714285714</ele><time>2026-05-01T15:59:47.998Z</time></trkpt><trkpt lat="42.150912244835595" lon="8.675497091017766"><ele>159.28571428571428</ele><time>2026-05-01T15:59:49Z</time></trkpt><trkpt lat="42.15097897630472" lon="8.675488740789918"><ele>160.42857142857144</ele><time>2026-05-01T15:59:50Z</time></trkpt><trkpt lat="42.151037502542785" lon="8.675538850330547"><ele>161.57142857142856</ele><time>2026-05-01T15:59:51Z</time></trkpt><trkpt lat="42.1510668213982" lon="8.675623309616244"><ele>162.71428571428572</ele><time>2026-05-01T15:59:52Z</time></trkpt><trkpt lat="42.15109708682679" lon="8.675717596988854"><ele>163.85714285714286</ele><time>2026-05-01T15:59:53Z</time></trkpt><trkpt lat="42.15113799407336" lon="8.67582330892397"><ele>165.0</ele><time>2026-05-01T15:59:54Z</time></trkpt><trkpt lat="42.15117982206212" lon="8.675944199100341"><ele>165.0</ele><time>2026-05-01T15:59:55Z</time></trkpt><trkpt lat="42.151214077726145" lon="8.676079530350277"><ele>165.0</ele><time>2026-05-01T15:59:56Z</time></trkpt><trkpt lat="42.15124069779305" lon="8.676216126709104"><ele>165.0</ele><time>2026-05-01T15:59:57Z</time></trkpt><trkpt lat="42.15125835657466" lon="8.676322291393438"><ele>165.0</ele><time>2026-05-01T15:59:58Z</time></trkpt><trkpt lat="42.151298799109725" lon="8.676405243157856"><ele>165.0</ele><time>2026-05-01T15:59:59Z</time></trkpt><trkpt lat="42.15135386321092" lon="8.676464818244469"><ele>165.0</ele><time>2026-05-01T16:00:00Z</time></trkpt><trkpt lat="42.15141863108815" lon="8.676532841337155"><ele>164.16666666666666</ele><time>2026-05-01T16:00:01Z</time></trkpt><trkpt lat="42.151485927209535" lon="8.676618431557262"><ele>163.33333333333334</ele><time>2026-05-01T16:00:02Z</time></trkpt><trkpt lat="42.151548876634486" lon="8.676697320861678"><ele>162.5</ele><time>2026-05-01T16:00:03Z</time></trkpt><trkpt lat="42.15160749968455" lon="8.67676018285367"><ele>161.66666666666669</ele><time>2026-05-01T16:00:04Z</time></trkpt><trkpt lat="42.151671060155266" lon="8.676782399294357"><ele>160.83333333333334</ele><time>2026-05-01T16:00:05Z</time></trkpt><trkpt lat="42.151745392758805" lon="8.676781990561278"><ele>160.0</ele><time>2026-05-01T16:00:06Z</time></trkpt><trkpt lat="42.15184218179955" lon="8.67678599094986"><ele>160.0</ele><time>2026-05-01T16:00:07Z</time></trkpt><trkpt lat="42.15192105470165" lon="8.67681096212724"><ele>160.0</ele><time>2026-05-01T16:00:08Z</time></trkpt><trkpt lat="42.15199365114374" lon="8.676875183153562"><ele>160.0</ele><time>2026-05-01T16:00:09Z</time></trkpt><trkpt lat="42.15205226012393" lon="8.676994822733153"><ele>160.0</ele><time>2026-05-01T16:00:10Z</time></trkpt><trkpt lat="42.15210647024624" lon="8.67710925037758"><ele>160.0</ele><time>2026-05-01T16:00:11Z</time></trkpt><trkpt lat="42.15217216102977" lon="8.677221276582006"><ele>157.4</ele><time>2026-05-01T16:00:12Z</time></trkpt><trkpt lat="42.15222228565477" lon="8.677338932196037"><ele>154.8</ele><time>2026-05-01T16:00:13Z</time></trkpt><trkpt lat="42.15224685822402" lon="8.67746246390744"><ele>152.2</ele><time>2026-05-01T16:00:14Z</time></trkpt><trkpt lat="42.15225721139454" lon="8.677580417825032"><ele>149.6</ele><time>2026-05-01T16:00:15Z</time></trkpt><trkpt lat="42.15228868231833" lon="8.677675159778218"><ele>147.0</ele><time>2026-05-01T16:00:16Z</time></trkpt><trkpt lat="42.15234776728834" lon="8.677775464006066"><ele>148.79999999999998</ele><time>2026-05-01T16:00:17Z</time></trkpt><trkpt lat="42.15242461401162" lon="8.677856909082967"><ele>150.6</ele><time>2026-05-01T16:00:18Z</time></trkpt><trkpt lat="42.15250173315186" lon="8.677951853946524"><ele>152.39999999999998</ele><time>2026-05-01T16:00:19Z</time></trkpt><trkpt lat="42.152577331297486" lon="8.678060494905921"><ele>154.2</ele><time>2026-05-01T16:00:20Z</time></trkpt><trkpt lat="42.15265957977429" lon="8.678149056786136"><ele>156.0</ele><time>2026-05-01T16:00:21Z</time></trkpt><trkpt lat="42.15273043379852" lon="8.67822657566508"><ele>156.0</ele><time>2026-05-01T16:00:22Z</time></trkpt><trkpt lat="42.15278268033544" lon="8.678308752388572"><ele>156.0</ele><time>2026-05-01T16:00:23Z</time></trkpt><trkpt lat="42.152788879528885" lon="8.678402450869477"><ele>156.0</ele><time>2026-05-01T16:00:24Z</time></trkpt><trkpt lat="42.15277007053273" lon="8.678498197514353"><ele>156.0</ele><time>2026-05-01T16:00:25Z</time></trkpt><trkpt lat="42.15272194042235" lon="8.678595704667444"><ele>156.0</ele><time>2026-05-01T16:00:26Z</time></trkpt><trkpt lat="42.152666585568824" lon="8.678693929970553"><ele>156.0</ele><time>2026-05-01T16:00:27Z</time></trkpt><trkpt lat="42.15258892389106" lon="8.678804715745201"><ele>154.4</ele><time>2026-05-01T16:00:28Z</time></trkpt><trkpt lat="42.15251313223804" lon="8.678881838183534"><ele>152.8</ele><time>2026-05-01T16:00:29Z</time></trkpt><trkpt lat="42.15246176583092" lon="8.678978159111757"><ele>151.20000000000002</ele><time>2026-05-01T16:00:30Z</time></trkpt><trkpt lat="42.1524532502606" lon="8.679105637194143"><ele>149.6</ele><time>2026-05-01T16:00:31Z</time></trkpt><trkpt lat="42.152467957319224" lon="8.679240108174124"><ele>148.0</ele><time>2026-05-01T16:00:32Z</time></trkpt><trkpt lat="42.152509077886016" lon="8.679376271756627"><ele>146.4</ele><time>2026-05-01T16:00:32.999Z</time></trkpt><trkpt lat="42.152575652832475" lon="8.679502162336618"><ele>144.8</ele><time>2026-05-01T16:00:33.999Z</time></trkpt><trkpt lat="42.15264325844033" lon="8.679618651308058"><ele>143.2</ele><time>2026-05-01T16:00:34.999Z</time></trkpt><trkpt lat="42.1526709952761" lon="8.679713449233963"><ele>141.6</ele><time>2026-05-01T16:00:35.999Z</time></trkpt><trkpt lat="42.152652915091565" lon="8.679797449373442"><ele>140.0</ele><time>2026-05-01T16:00:36.999Z</time></trkpt><trkpt lat="42.152545183018965" lon="8.679878107937377"><ele>140.0</ele><time>2026-05-01T16:00:38.999Z</time></trkpt><trkpt lat="42.15245672241257" lon="8.679875699654257"><ele>140.0</ele><time>2026-05-01T16:00:39.999Z</time></trkpt><trkpt lat="42.15234288455162" lon="8.679853717934332"><ele>140.0</ele><time>2026-05-01T16:00:40.999Z</time></trkpt><trkpt lat="42.15221810260738" lon="8.679828027776802"><ele>140.0</ele><time>2026-05-01T16:00:41.999Z</time></trkpt><trkpt lat="42.152085122630176" lon="8.679810363567492"><ele>137.2</ele><time>2026-05-01T16:00:42.999Z</time></trkpt><trkpt lat="42.151968569455555" lon="8.679791956082928"><ele>134.4</ele><time>2026-05-01T16:00:43.999Z</time></trkpt><trkpt lat="42.15186684082096" lon="8.679784332770144"><ele>131.6</ele><time>2026-05-01T16:00:44.999Z</time></trkpt><trkpt lat="42.151773998149736" lon="8.679726800713118"><ele>128.8</ele><time>2026-05-01T16:00:45.999Z</time></trkpt><trkpt lat="42.15170037087666" lon="8.679655180401516"><ele>126.0</ele><time>2026-05-01T16:00:46.999Z</time></trkpt><trkpt lat="42.1516660317598" lon="8.67952805765815"><ele>126.66666666666667</ele><time>2026-05-01T16:00:47.999Z</time></trkpt><trkpt lat="42.15165107716887" lon="8.679412088849757"><ele>127.33333333333334</ele><time>2026-05-01T16:00:48.999Z</time></trkpt><trkpt lat="42.15162733148186" lon="8.679310003011766"><ele>128.0</ele><time>2026-05-01T16:00:49.999Z</time></trkpt><trkpt lat="42.15158845912574" lon="8.679234084903486"><ele>128.66666666666669</ele><time>2026-05-01T16:00:50.999Z</time></trkpt><trkpt lat="42.151516712572906" lon="8.67919499244361"><ele>129.33333333333334</ele><time>2026-05-01T16:00:51.999Z</time></trkpt><trkpt lat="42.151437175064885" lon="8.67919673947176"><ele>130.0</ele><time>2026-05-01T16:00:52.999Z</time></trkpt><trkpt lat="42.15133400510407" lon="8.67924827367811"><ele>130.0</ele><time>2026-05-01T16:00:53.999Z</time></trkpt><trkpt lat="42.1512251769808" lon="8.679313194105156"><ele>130.0</ele><time>2026-05-01T16:00:54.999Z</time></trkpt><trkpt lat="42.15110591228015" lon="8.679376677912641"><ele>130.0</ele><time>2026-05-01T16:00:55.999Z</time></trkpt><trkpt lat="42.150994721132015" lon="8.679440418058217"><ele>130.0</ele><time>2026-05-01T16:00:56.999Z</time></trkpt><trkpt lat="42.15089863185229" lon="8.679529780048593"><ele>127.50000000000001</ele><time>2026-05-01T16:00:57.999Z</time></trkpt><trkpt lat="42.150817335599434" lon="8.679610880780867"><ele>125.0</ele><time>2026-05-01T16:00:58.999Z</time></trkpt><trkpt lat="42.15075031744357" lon="8.679654967853862"><ele>122.5</ele><time>2026-05-01T16:00:59.999Z</time></trkpt><trkpt lat="42.15068340849951" lon="8.679668499637941"><ele>120.0</ele><time>2026-05-01T16:01:00.999Z</time></trkpt><trkpt lat="42.15062072008489" lon="8.67963737555821"><ele>117.50000000000001</ele><time>2026-05-01T16:01:01.999Z</time></trkpt><trkpt lat="42.1505456983339" lon="8.679598946987998"><ele>115.0</ele><time>2026-05-01T16:01:02.999Z</time></trkpt><trkpt lat="42.15048348108498" lon="8.679554911164711"><ele>114.85714285714283</ele><time>2026-05-01T16:01:03.999Z</time></trkpt><trkpt lat="42.15040699277797" lon="8.67952266767117"><ele>114.71428571428571</ele><time>2026-05-01T16:01:04.999Z</time></trkpt><trkpt lat="42.15033504961625" lon="8.679484546220255"><ele>114.57142857142856</ele><time>2026-05-01T16:01:05.999Z</time></trkpt><trkpt lat="42.1502720287462" lon="8.679441113917102"><ele>114.42857142857142</ele><time>2026-05-01T16:01:06.999Z</time></trkpt><trkpt lat="42.150209254242164" lon="8.679385808196244"><ele>114.28571428571428</ele><time>2026-05-01T16:01:07.999Z</time></trkpt><trkpt lat="42.15015800175545" lon="8.679318542645266"><ele>114.14285714285714</ele><time>2026-05-01T16:01:08.999Z</time></trkpt><trkpt lat="42.15012013462204" lon="8.679240006898812"><ele>114.0</ele><time>2026-05-01T16:01:09.999Z</time></trkpt><trkpt lat="42.15011177575943" lon="8.679146166841845"><ele>114.0</ele><time>2026-05-01T16:01:10.999Z</time></trkpt><trkpt lat="42.15011358787686" lon="8.679055529236567"><ele>114.0</ele><time>2026-05-01T16:01:11.999Z</time></trkpt><trkpt lat="42.15005535209818" lon="8.678939209106941"><ele>114.0</ele><time>2026-05-01T16:01:13.999Z</time></trkpt><trkpt lat="42.14992057772046" lon="8.678922143772212"><ele>114.0</ele><time>2026-05-01T16:01:15.999Z</time></trkpt><trkpt lat="42.14983209813859" lon="8.678943762641758"><ele>114.0</ele><time>2026-05-01T16:01:16.999Z</time></trkpt><trkpt lat="42.14975701726296" lon="8.67895347133265"><ele>111.2</ele><time>2026-05-01T16:01:17.999Z</time></trkpt><trkpt lat="42.149621710396644" lon="8.67896417092668"><ele>108.4</ele><time>2026-05-01T16:01:19.999Z</time></trkpt><trkpt lat="42.149542815023665" lon="8.67892679285773"><ele>105.6</ele><time>2026-05-01T16:01:20.999Z</time></trkpt><trkpt lat="42.14945101951195" lon="8.678873358662837"><ele>102.8</ele><time>2026-05-01T16:01:21.999Z</time></trkpt><trkpt lat="42.14935166889712" lon="8.6788193446287"><ele>100.0</ele><time>2026-05-01T16:01:22.999Z</time></trkpt><trkpt lat="42.14927256542" lon="8.678765459001344"><ele>100.0</ele><time>2026-05-01T16:01:23.999Z</time></trkpt><trkpt lat="42.149198453056016" lon="8.678735445029858"><ele>100.0</ele><time>2026-05-01T16:01:24.999Z</time></trkpt><trkpt lat="42.149076732562044" lon="8.678760283980326"><ele>100.0</ele><time>2026-05-01T16:01:26.998Z</time></trkpt><trkpt lat="42.14897978955113" lon="8.678862767365288"><ele>100.0</ele><time>2026-05-01T16:01:28.998Z</time></trkpt><trkpt lat="42.148949470206894" lon="8.67894953179131"><ele>100.0</ele><time>2026-05-01T16:01:29.998Z</time></trkpt><trkpt lat="42.148911934099466" lon="8.679026122677257"><ele>100.2</ele><time>2026-05-01T16:01:30.998Z</time></trkpt><trkpt lat="42.14886642664115" lon="8.679182390779404"><ele>100.4</ele><time>2026-05-01T16:01:32.998Z</time></trkpt><trkpt lat="42.14884740407311" lon="8.679347910328397"><ele>100.6</ele><time>2026-05-01T16:01:34.998Z</time></trkpt><trkpt lat="42.148875970176796" lon="8.679469280879403"><ele>100.8</ele><time>2026-05-01T16:01:36.998Z</time></trkpt><trkpt lat="42.14891399881379" lon="8.679545406356297"><ele>101.0</ele><time>2026-05-01T16:01:37.998Z</time></trkpt><trkpt lat="42.14894118762757" lon="8.679637677972451"><ele>100.99999999999999</ele><time>2026-05-01T16:01:38.998Z</time></trkpt><trkpt lat="42.148962596877375" lon="8.679724720315061"><ele>101.0</ele><time>2026-05-01T16:01:39.998Z</time></trkpt><trkpt lat="42.14899064836717" lon="8.67986736608343"><ele>101.0</ele><time>2026-05-01T16:01:41.998Z</time></trkpt><trkpt lat="42.14894908972821" lon="8.679949951923934"><ele>101.0</ele><time>2026-05-01T16:01:43.998Z</time></trkpt><trkpt lat="42.14885851985192" lon="8.679972040246826"><ele>100.99999999999999</ele><time>2026-05-01T16:01:45.998Z</time></trkpt><trkpt lat="42.148758145988594" lon="8.679930540490515"><ele>101.0</ele><time>2026-05-01T16:01:47.998Z</time></trkpt><trkpt lat="42.148694534105445" lon="8.679959386173447"><ele>101.0</ele><time>2026-05-01T16:01:48.998Z</time></trkpt><trkpt lat="42.14861981744781" lon="8.680017285511612"><ele>101.0</ele><time>2026-05-01T16:01:49.998Z</time></trkpt><trkpt lat="42.1485550258249" lon="8.680087973870862"><ele>101.0</ele><time>2026-05-01T16:01:50.998Z</time></trkpt><trkpt lat="42.148484225780436" lon="8.680172457088316"><ele>101.0</ele><time>2026-05-01T16:01:51.998Z</time></trkpt><trkpt lat="42.148414931962606" lon="8.68025605650436"><ele>101.0</ele><time>2026-05-01T16:01:52.998Z</time></trkpt><trkpt lat="42.148347681655906" lon="8.680342573472513"><ele>103.8</ele><time>2026-05-01T16:01:53.998Z</time></trkpt><trkpt lat="42.14826403386161" lon="8.68042245679494"><ele>106.6</ele><time>2026-05-01T16:01:55Z</time></trkpt><trkpt lat="42.14816541827598" lon="8.680478636807356"><ele>109.4</ele><time>2026-05-01T16:01:56Z</time></trkpt><trkpt lat="42.14807060333746" lon="8.680504462297444"><ele>112.2</ele><time>2026-05-01T16:01:57Z</time></trkpt><trkpt lat="42.14797426242187" lon="8.680527705988714"><ele>115.0</ele><time>2026-05-01T16:01:58Z</time></trkpt><trkpt lat="42.14788625783391" lon="8.680538859624978"><ele>115.00000000000001</ele><time>2026-05-01T16:01:59Z</time></trkpt><trkpt lat="42.14780214146517" lon="8.680537102144372"><ele>115.0</ele><time>2026-05-01T16:02:00Z</time></trkpt><trkpt lat="42.147731716440816" lon="8.680519342138995"><ele>115.0</ele><time>2026-05-01T16:02:01Z</time></trkpt><trkpt lat="42.1476122350519" lon="8.680505129343269"><ele>115.0</ele><time>2026-05-01T16:02:03Z</time></trkpt><trkpt lat="42.14754478481817" lon="8.68054115153776"><ele>115.00000000000001</ele><time>2026-05-01T16:02:04Z</time></trkpt><trkpt lat="42.147483377840935" lon="8.68058688217324"><ele>115.0</ele><time>2026-05-01T16:02:05Z</time></trkpt><trkpt lat="42.14741918759285" lon="8.680638752283448"><ele>115.00000000000001</ele><time>2026-05-01T16:02:06Z</time></trkpt><trkpt lat="42.14734548751417" lon="8.680679328527997"><ele>115.0</ele><time>2026-05-01T16:02:07Z</time></trkpt><trkpt lat="42.14726417728267" lon="8.680699977799513"><ele>115.0</ele><time>2026-05-01T16:02:08Z</time></trkpt><trkpt lat="42.147180094870514" lon="8.680727652311202"><ele>115.0</ele><time>2026-05-01T16:02:09Z</time></trkpt><trkpt lat="42.14709894418668" lon="8.680766463054212"><ele>115.00000000000001</ele><time>2026-05-01T16:02:10Z</time></trkpt><trkpt lat="42.14701379321733" lon="8.680821348708188"><ele>115.0</ele><time>2026-05-01T16:02:11Z</time></trkpt><trkpt lat="42.14693019985153" lon="8.680872596631685"><ele>115.0</ele><time>2026-05-01T16:02:12Z</time></trkpt><trkpt lat="42.14685752418292" lon="8.680915903003893"><ele>115.0</ele><time>2026-05-01T16:02:13Z</time></trkpt><trkpt lat="42.14673301628503" lon="8.680948738217303"><ele>115.0</ele><time>2026-05-01T16:02:15Z</time></trkpt><trkpt lat="42.14666233927413" lon="8.68092581874374"><ele>115.0</ele><time>2026-05-01T16:02:16Z</time></trkpt><trkpt lat="42.1465806361665" lon="8.680875518384003"><ele>115.0</ele><time>2026-05-01T16:02:17Z</time></trkpt><trkpt lat="42.14649365518099" lon="8.680809592127176"><ele>118.4</ele><time>2026-05-01T16:02:18Z</time></trkpt><trkpt lat="42.14640471320903" lon="8.680752340065302"><ele>121.8</ele><time>2026-05-01T16:02:19Z</time></trkpt><trkpt lat="42.1462992603621" lon="8.680705220031939"><ele>125.19999999999999</ele><time>2026-05-01T16:02:20Z</time></trkpt><trkpt lat="42.14619395618575" lon="8.68066805770869"><ele>128.6</ele><time>2026-05-01T16:02:21Z</time></trkpt><trkpt lat="42.14609666802699" lon="8.680614535235643"><ele>132.0</ele><time>2026-05-01T16:02:22Z</time></trkpt><trkpt lat="42.14601379218457" lon="8.680556044449679"><ele>132.0</ele><time>2026-05-01T16:02:23Z</time></trkpt><trkpt lat="42.14596037529099" lon="8.680493661156426"><ele>132.0</ele><time>2026-05-01T16:02:24Z</time></trkpt><trkpt lat="42.145894900630125" lon="8.680340948237134"><ele>132.0</ele><time>2026-05-01T16:02:26Z</time></trkpt><trkpt lat="42.145887804998814" lon="8.680222083751243"><ele>132.0</ele><time>2026-05-01T16:02:27Z</time></trkpt><trkpt lat="42.14589150597965" lon="8.680089164659462"><ele>132.0</ele><time>2026-05-01T16:02:28Z</time></trkpt><trkpt lat="42.1458949003944" lon="8.679948856641461"><ele>130.83333333333334</ele><time>2026-05-01T16:02:29Z</time></trkpt><trkpt lat="42.14589852873962" lon="8.679811434041017"><ele>129.66666666666666</ele><time>2026-05-01T16:02:30Z</time></trkpt><trkpt lat="42.14589985473735" lon="8.679679198249993"><ele>128.5</ele><time>2026-05-01T16:02:31Z</time></trkpt><trkpt lat="42.14588747184845" lon="8.679567211528802"><ele>127.33333333333333</ele><time>2026-05-01T16:02:32Z</time></trkpt><trkpt lat="42.14585785185553" lon="8.679469625938403"><ele>126.16666666666666</ele><time>2026-05-01T16:02:33Z</time></trkpt><trkpt lat="42.145807341564186" lon="8.679384448017819"><ele>125.0</ele><time>2026-05-01T16:02:34Z</time></trkpt><trkpt lat="42.14573628341651" lon="8.679332364565933"><ele>125.4</ele><time>2026-05-01T16:02:35Z</time></trkpt><trkpt lat="42.145640800160415" lon="8.679304924271547"><ele>125.8</ele><time>2026-05-01T16:02:35.999Z</time></trkpt><trkpt lat="42.14553847323324" lon="8.679294823296484"><ele>126.19999999999999</ele><time>2026-05-01T16:02:36.999Z</time></trkpt><trkpt lat="42.14543155395449" lon="8.679258186857654"><ele>126.6</ele><time>2026-05-01T16:02:37.999Z</time></trkpt><trkpt lat="42.14532834780472" lon="8.679213993051844"><ele>127.0</ele><time>2026-05-01T16:02:38.999Z</time></trkpt><trkpt lat="42.145223118520946" lon="8.679185170267447"><ele>127.0</ele><time>2026-05-01T16:02:39.999Z</time></trkpt><trkpt lat="42.145120010964625" lon="8.679183946707914"><ele>126.99999999999999</ele><time>2026-05-01T16:02:40.999Z</time></trkpt><trkpt lat="42.14502117942322" lon="8.67921300150173"><ele>126.99999999999999</ele><time>2026-05-01T16:02:41.999Z</time></trkpt><trkpt lat="42.14492567763976" lon="8.679267873775812"><ele>127.0</ele><time>2026-05-01T16:02:42.999Z</time></trkpt><trkpt lat="42.14483885513443" lon="8.679340604512571"><ele>127.0</ele><time>2026-05-01T16:02:43.999Z</time></trkpt><trkpt lat="42.144761201378834" lon="8.679428622902504"><ele>127.25</ele><time>2026-05-01T16:02:44.999Z</time></trkpt><trkpt lat="42.14469032911002" lon="8.679536941989333"><ele>127.5</ele><time>2026-05-01T16:02:45.999Z</time></trkpt><trkpt lat="42.14462208731806" lon="8.679663053585791"><ele>127.75</ele><time>2026-05-01T16:02:46.999Z</time></trkpt><trkpt lat="42.14455530452015" lon="8.67979401082679"><ele>128.0</ele><time>2026-05-01T16:02:47.999Z</time></trkpt><trkpt lat="42.14448341521533" lon="8.679933416616118"><ele>128.0</ele><time>2026-05-01T16:02:48.999Z</time></trkpt><trkpt lat="42.14440577560801" lon="8.680071776805542"><ele>128.0</ele><time>2026-05-01T16:02:49.999Z</time></trkpt><trkpt lat="42.14432000348223" lon="8.680207517666638"><ele>128.0</ele><time>2026-05-01T16:02:50.999Z</time></trkpt><trkpt lat="42.1442377756072" lon="8.680359368141852"><ele>128.0</ele><time>2026-05-01T16:02:51.999Z</time></trkpt><trkpt lat="42.144137121299416" lon="8.680536266180052"><ele>127.66666666666666</ele><time>2026-05-01T16:02:52.999Z</time></trkpt><trkpt lat="42.14402981566568" lon="8.6807147782962"><ele>127.33333333333334</ele><time>2026-05-01T16:02:53.999Z</time></trkpt><trkpt lat="42.14391945221876" lon="8.680877752816386"><ele>127.0</ele><time>2026-05-01T16:02:54.999Z</time></trkpt><trkpt lat="42.14381692580196" lon="8.68103044338362"><ele>132.0</ele><time>2026-05-01T16:02:55.999Z</time></trkpt><trkpt lat="42.14372206564435" lon="8.681170722484119"><ele>137.0</ele><time>2026-05-01T16:02:56.999Z</time></trkpt><trkpt lat="42.14362733844292" lon="8.681297225124478"><ele>142.0</ele><time>2026-05-01T16:02:57.999Z</time></trkpt><trkpt lat="42.14353569904304" lon="8.681413645005323"><ele>147.0</ele><time>2026-05-01T16:02:58.999Z</time></trkpt><trkpt lat="42.14343646684749" lon="8.68151812965538"><ele>147.0</ele><time>2026-05-01T16:02:59.999Z</time></trkpt><trkpt lat="42.1433540203795" lon="8.681614829723875"><ele>147.0</ele><time>2026-05-01T16:03:00.999Z</time></trkpt><trkpt lat="42.14329054211646" lon="8.681701894175035"><ele>147.0</ele><time>2026-05-01T16:03:01.999Z</time></trkpt><trkpt lat="42.14325339491727" lon="8.681792010034316"><ele>147.0</ele><time>2026-05-01T16:03:02.999Z</time></trkpt><trkpt lat="42.14325852344199" lon="8.681888043446559"><ele>147.0</ele><time>2026-05-01T16:03:03.999Z</time></trkpt><trkpt lat="42.14329566637417" lon="8.681985976883135"><ele>147.0</ele><time>2026-05-01T16:03:04.999Z</time></trkpt><trkpt lat="42.14335644348534" lon="8.68208092433563"><ele>148.0</ele><time>2026-05-01T16:03:05.999Z</time></trkpt><trkpt lat="42.14343480774119" lon="8.682168733044207"><ele>149.0</ele><time>2026-05-01T16:03:06.999Z</time></trkpt><trkpt lat="42.14350910132678" lon="8.682248071512792"><ele>150.0</ele><time>2026-05-01T16:03:07.999Z</time></trkpt><trkpt lat="42.14355201494758" lon="8.682338808713077"><ele>151.0</ele><time>2026-05-01T16:03:08.999Z</time></trkpt><trkpt lat="42.143563252536865" lon="8.682434810161553"><ele>152.0</ele><time>2026-05-01T16:03:09.999Z</time></trkpt><trkpt lat="42.14354837614483" lon="8.68251857126563"><ele>153.0</ele><time>2026-05-01T16:03:10.999Z</time></trkpt><trkpt lat="42.14351083756167" lon="8.682611163584872"><ele>153.0</ele><time>2026-05-01T16:03:11.999Z</time></trkpt><trkpt lat="42.14345540872227" lon="8.682708772683235"><ele>153.0</ele><time>2026-05-01T16:03:12.999Z</time></trkpt><trkpt lat="42.14339527718914" lon="8.682794216798385"><ele>153.0</ele><time>2026-05-01T16:03:13.999Z</time></trkpt><trkpt lat="42.14334110743361" lon="8.682888459086985"><ele>153.0</ele><time>2026-05-01T16:03:14.999Z</time></trkpt><trkpt lat="42.14330055597531" lon="8.683004060800245"><ele>153.0</ele><time>2026-05-01T16:03:15.999Z</time></trkpt><trkpt lat="42.14328678314083" lon="8.683130690289868"><ele>153.16666666666666</ele><time>2026-05-01T16:03:16.999Z</time></trkpt><trkpt lat="42.143299993403865" lon="8.683246819579773"><ele>153.33333333333334</ele><time>2026-05-01T16:03:17.999Z</time></trkpt><trkpt lat="42.143331505939834" lon="8.683350170120685"><ele>153.5</ele><time>2026-05-01T16:03:18.999Z</time></trkpt><trkpt lat="42.14334448614908" lon="8.683435014447136"><ele>153.66666666666669</ele><time>2026-05-01T16:03:19.999Z</time></trkpt><trkpt lat="42.14327836971034" lon="8.683571115613097"><ele>153.83333333333334</ele><time>2026-05-01T16:03:21.999Z</time></trkpt><trkpt lat="42.14321171763491" lon="8.683627667316562"><ele>154.0</ele><time>2026-05-01T16:03:22.999Z</time></trkpt><trkpt lat="42.1431313146857" lon="8.68366586377039"><ele>153.5</ele><time>2026-05-01T16:03:23.999Z</time></trkpt><trkpt lat="42.14304541579688" lon="8.683682046684774"><ele>153.0</ele><time>2026-05-01T16:03:24.999Z</time></trkpt><trkpt lat="42.14295961296864" lon="8.683680689393233"><ele>152.5</ele><time>2026-05-01T16:03:25.999Z</time></trkpt><trkpt lat="42.14287575544291" lon="8.683685864346026"><ele>152.0</ele><time>2026-05-01T16:03:26.999Z</time></trkpt><trkpt lat="42.142786527424505" lon="8.683714310937594"><ele>151.5</ele><time>2026-05-01T16:03:27.998Z</time></trkpt><trkpt lat="42.14270431863028" lon="8.683764488466469"><ele>151.0</ele><time>2026-05-01T16:03:28.998Z</time></trkpt><trkpt lat="42.14263251629946" lon="8.683831720748232"><ele>151.0</ele><time>2026-05-01T16:03:29.998Z</time></trkpt><trkpt lat="42.14257710169725" lon="8.683924870709836"><ele>151.0</ele><time>2026-05-01T16:03:30.998Z</time></trkpt><trkpt lat="42.14254677465949" lon="8.684044361249521"><ele>151.0</ele><time>2026-05-01T16:03:31.998Z</time></trkpt><trkpt lat="42.14253951914674" lon="8.684178732802197"><ele>151.0</ele><time>2026-05-01T16:03:32.998Z</time></trkpt><trkpt lat="42.14252275570808" lon="8.684318719310218"><ele>151.0</ele><time>2026-05-01T16:03:33.998Z</time></trkpt><trkpt lat="42.142471473708696" lon="8.68444208340126"><ele>151.6</ele><time>2026-05-01T16:03:34.998Z</time></trkpt><trkpt lat="42.14240537372904" lon="8.684562215648732"><ele>152.2</ele><time>2026-05-01T16:03:35.998Z</time></trkpt><trkpt lat="42.142331672143015" lon="8.684662187862648"><ele>152.8</ele><time>2026-05-01T16:03:36.998Z</time></trkpt><trkpt lat="42.14224618728075" lon="8.684719817224776"><ele>153.4</ele><time>2026-05-01T16:03:37.998Z</time></trkpt><trkpt lat="42.14215323830899" lon="8.684717316052"><ele>154.0</ele><time>2026-05-01T16:03:38.998Z</time></trkpt><trkpt lat="42.14207084103933" lon="8.684716025292616"><ele>154.0</ele><time>2026-05-01T16:03:39.998Z</time></trkpt><trkpt lat="42.141991534847065" lon="8.684664260673532"><ele>154.0</ele><time>2026-05-01T16:03:40.998Z</time></trkpt><trkpt lat="42.14191080452355" lon="8.684597991969186"><ele>154.0</ele><time>2026-05-01T16:03:41.998Z</time></trkpt><trkpt lat="42.14183378695272" lon="8.684552726436507"><ele>154.0</ele><time>2026-05-01T16:03:42.998Z</time></trkpt><trkpt lat="42.141758712240474" lon="8.68453812800873"><ele>154.0</ele><time>2026-05-01T16:03:43.998Z</time></trkpt><trkpt lat="42.141688899221194" lon="8.684563372447931"><ele>154.0</ele><time>2026-05-01T16:03:44.998Z</time></trkpt><trkpt lat="42.141638458841214" lon="8.684622454922348"><ele>154.0</ele><time>2026-05-01T16:03:45.998Z</time></trkpt><trkpt lat="42.14160260616315" lon="8.684718616270258"><ele>154.0</ele><time>2026-05-01T16:03:46.998Z</time></trkpt><trkpt lat="42.14158452384212" lon="8.684826626885828"><ele>154.0</ele><time>2026-05-01T16:03:47.998Z</time></trkpt><trkpt lat="42.141584237192355" lon="8.684949121549185"><ele>154.0</ele><time>2026-05-01T16:03:48.998Z</time></trkpt><trkpt lat="42.14156801575373" lon="8.685045403129852"><ele>154.0</ele><time>2026-05-01T16:03:49.998Z</time></trkpt><trkpt lat="42.14154955321105" lon="8.685184423122998"><ele>154.0</ele><time>2026-05-01T16:03:50.998Z</time></trkpt><trkpt lat="42.14152975990801" lon="8.685321221877363"><ele>153.4</ele><time>2026-05-01T16:03:51.998Z</time></trkpt><trkpt lat="42.14151615930651" lon="8.68546624708576"><ele>152.8</ele><time>2026-05-01T16:03:52.998Z</time></trkpt><trkpt lat="42.14150293090609" lon="8.685612523562137"><ele>152.2</ele><time>2026-05-01T16:03:53.998Z</time></trkpt><trkpt lat="42.14148711295823" lon="8.685750921387376"><ele>151.6</ele><time>2026-05-01T16:03:54.998Z</time></trkpt><trkpt lat="42.14146059580641" lon="8.685884067031365"><ele>151.0</ele><time>2026-05-01T16:03:55.998Z</time></trkpt><trkpt lat="42.14142121284051" lon="8.686015681364264"><ele>152.6</ele><time>2026-05-01T16:03:56.998Z</time></trkpt><trkpt lat="42.14135954175142" lon="8.686123527781403"><ele>154.2</ele><time>2026-05-01T16:03:57.998Z</time></trkpt><trkpt lat="42.14127826441376" lon="8.686204724840445"><ele>155.8</ele><time>2026-05-01T16:03:58.998Z</time></trkpt><trkpt lat="42.141182759739344" lon="8.686254208415276"><ele>157.4</ele><time>2026-05-01T16:03:59.998Z</time></trkpt><trkpt lat="42.14107784440736" lon="8.686276979677068"><ele>159.0</ele><time>2026-05-01T16:04:01Z</time></trkpt><trkpt lat="42.140965695324745" lon="8.686287652696056"><ele>159.0</ele><time>2026-05-01T16:04:02Z</time></trkpt><trkpt lat="42.14085727520652" lon="8.686311183992055"><ele>159.0</ele><time>2026-05-01T16:04:03Z</time></trkpt><trkpt lat="42.1407586090338" lon="8.686350086142042"><ele>159.0</ele><time>2026-05-01T16:04:04Z</time></trkpt><trkpt lat="42.14067676845282" lon="8.68638048014111"><ele>159.0</ele><time>2026-05-01T16:04:05Z</time></trkpt><trkpt lat="42.14060719534386" lon="8.686424786181705"><ele>159.0</ele><time>2026-05-01T16:04:06Z</time></trkpt><trkpt lat="42.14055211758972" lon="8.686503212591216"><ele>158.2</ele><time>2026-05-01T16:04:07Z</time></trkpt><trkpt lat="42.1405312151969" lon="8.686609812170337"><ele>157.4</ele><time>2026-05-01T16:04:08Z</time></trkpt><trkpt lat="42.140535787777885" lon="8.686737789303328"><ele>156.6</ele><time>2026-05-01T16:04:09Z</time></trkpt><trkpt lat="42.14054963295203" lon="8.686873947220327"><ele>155.8</ele><time>2026-05-01T16:04:10Z</time></trkpt><trkpt lat="42.14056099944651" lon="8.687015304192371"><ele>155.0</ele><time>2026-05-01T16:04:11Z</time></trkpt><trkpt lat="42.14056896240157" lon="8.687161716094094"><ele>152.5</ele><time>2026-05-01T16:04:12Z</time></trkpt><trkpt lat="42.14057788987098" lon="8.68731113285213"><ele>150.0</ele><time>2026-05-01T16:04:13Z</time></trkpt><trkpt lat="42.14059175786661" lon="8.687473377864583"><ele>147.5</ele><time>2026-05-01T16:04:14Z</time></trkpt><trkpt lat="42.14060216673154" lon="8.687625750636634"><ele>145.0</ele><time>2026-05-01T16:04:15Z</time></trkpt><trkpt lat="42.14061319170212" lon="8.68776626335547"><ele>147.2</ele><time>2026-05-01T16:04:16Z</time></trkpt><trkpt lat="42.14062979744065" lon="8.687887518847893"><ele>149.4</ele><time>2026-05-01T16:04:17Z</time></trkpt><trkpt lat="42.14067332667389" lon="8.687994313750727"><ele>151.6</ele><time>2026-05-01T16:04:18Z</time></trkpt><trkpt lat="42.14074986111255" lon="8.688089701427655"><ele>153.8</ele><time>2026-05-01T16:04:19Z</time></trkpt><trkpt lat="42.14082976669018" lon="8.688189687432484"><ele>156.0</ele><time>2026-05-01T16:04:20Z</time></trkpt><trkpt lat="42.14089565380206" lon="8.68830784037895"><ele>156.0</ele><time>2026-05-01T16:04:21Z</time></trkpt><trkpt lat="42.14092950422805" lon="8.6884403791114"><ele>156.0</ele><time>2026-05-01T16:04:22Z</time></trkpt><trkpt lat="42.140935171207914" lon="8.688576359534304"><ele>156.0</ele><time>2026-05-01T16:04:23Z</time></trkpt><trkpt lat="42.14092957443534" lon="8.688713675732386"><ele>156.0</ele><time>2026-05-01T16:04:24Z</time></trkpt><trkpt lat="42.140926407130735" lon="8.68884597873766"><ele>156.0</ele><time>2026-05-01T16:04:25Z</time></trkpt><trkpt lat="42.1409312938556" lon="8.688988185663911"><ele>154.0</ele><time>2026-05-01T16:04:26Z</time></trkpt><trkpt lat="42.14092845581965" lon="8.68912248117945"><ele>152.0</ele><time>2026-05-01T16:04:27Z</time></trkpt><trkpt lat="42.140925682158034" lon="8.689261548262381"><ele>150.0</ele><time>2026-05-01T16:04:28Z</time></trkpt><trkpt lat="42.14092965797907" lon="8.689384333084211"><ele>148.0</ele><time>2026-05-01T16:04:29Z</time></trkpt><trkpt lat="42.140937291422894" lon="8.68950721397607"><ele>146.0</ele><time>2026-05-01T16:04:30Z</time></trkpt><trkpt lat="42.14093984130256" lon="8.689635514257215"><ele>144.4</ele><time>2026-05-01T16:04:31Z</time></trkpt><trkpt lat="42.14094490036435" lon="8.689768330610583"><ele>142.8</ele><time>2026-05-01T16:04:32Z</time></trkpt><trkpt lat="42.140949510423845" lon="8.68989378938362"><ele>141.20000000000002</ele><time>2026-05-01T16:04:33Z</time></trkpt><trkpt lat="42.14096194731947" lon="8.690006184170853"><ele>139.6</ele><time>2026-05-01T16:04:34Z</time></trkpt><trkpt lat="42.14098901837389" lon="8.690096397843165"><ele>138.0</ele><time>2026-05-01T16:04:35Z</time></trkpt><trkpt lat="42.141097996201935" lon="8.690151803805271"><ele>138.0</ele><time>2026-05-01T16:04:37Z</time></trkpt><trkpt lat="42.14116194598321" lon="8.690122096267269"><ele>138.0</ele><time>2026-05-01T16:04:38Z</time></trkpt><trkpt lat="42.1412167873486" lon="8.69006902282689"><ele>138.0</ele><time>2026-05-01T16:04:39Z</time></trkpt><trkpt lat="42.141272781565576" lon="8.690007911631145"><ele>138.0</ele><time>2026-05-01T16:04:39.999Z</time></trkpt><trkpt lat="42.14132944147024" lon="8.689943633628957"><ele>138.0</ele><time>2026-05-01T16:04:40.999Z</time></trkpt><trkpt lat="42.14139840655654" lon="8.689870382650923"><ele>138.0</ele><time>2026-05-01T16:04:41.999Z</time></trkpt><trkpt lat="42.141476369145586" lon="8.68980491493676"><ele>137.6</ele><time>2026-05-01T16:04:42.999Z</time></trkpt><trkpt lat="42.14155787017967" lon="8.689731684084688"><ele>137.20000000000002</ele><time>2026-05-01T16:04:43.999Z</time></trkpt><trkpt lat="42.14164750564608" lon="8.689662811862643"><ele>136.8</ele><time>2026-05-01T16:04:44.999Z</time></trkpt><trkpt lat="42.141734095806285" lon="8.689587092350285"><ele>136.4</ele><time>2026-05-01T16:04:45.999Z</time></trkpt><trkpt lat="42.14181664863041" lon="8.689505714927636"><ele>136.0</ele><time>2026-05-01T16:04:46.999Z</time></trkpt><trkpt lat="42.1419048996658" lon="8.68941283071307"><ele>142.0</ele><time>2026-05-01T16:04:47.999Z</time></trkpt><trkpt lat="42.14198982851276" lon="8.68932778691657"><ele>148.0</ele><time>2026-05-01T16:04:48.999Z</time></trkpt><trkpt lat="42.14207958815157" lon="8.689239168147319"><ele>154.0</ele><time>2026-05-01T16:04:49.999Z</time></trkpt><trkpt lat="42.14217672036626" lon="8.689151160284549"><ele>160.0</ele><time>2026-05-01T16:04:50.999Z</time></trkpt><trkpt lat="42.14226675234833" lon="8.689043901080789"><ele>160.0</ele><time>2026-05-01T16:04:51.999Z</time></trkpt><trkpt lat="42.14234481858766" lon="8.688925837850283"><ele>160.0</ele><time>2026-05-01T16:04:52.999Z</time></trkpt><trkpt lat="42.14241964174111" lon="8.688797528581906"><ele>160.0</ele><time>2026-05-01T16:04:53.999Z</time></trkpt><trkpt lat="42.14249750586771" lon="8.68868644665906"><ele>160.0</ele><time>2026-05-01T16:04:54.999Z</time></trkpt><trkpt lat="42.142571289754095" lon="8.688601037189255"><ele>160.0</ele><time>2026-05-01T16:04:55.999Z</time></trkpt><trkpt lat="42.14264293480089" lon="8.688531957937913"><ele>160.16666666666669</ele><time>2026-05-01T16:04:56.999Z</time></trkpt><trkpt lat="42.14271680298868" lon="8.688508553302169"><ele>160.33333333333334</ele><time>2026-05-01T16:04:57.999Z</time></trkpt><trkpt lat="42.14278886390972" lon="8.68853281344457"><ele>160.5</ele><time>2026-05-01T16:04:58.999Z</time></trkpt><trkpt lat="42.14285786696643" lon="8.688571603227281"><ele>160.66666666666666</ele><time>2026-05-01T16:04:59.999Z</time></trkpt><trkpt lat="42.142929898537524" lon="8.688625714440438"><ele>160.83333333333331</ele><time>2026-05-01T16:05:00.999Z</time></trkpt><trkpt lat="42.14300807630448" lon="8.688698705803466"><ele>161.0</ele><time>2026-05-01T16:05:01.999Z</time></trkpt><trkpt lat="42.143090126101114" lon="8.688750833720507"><ele>159.33333333333331</ele><time>2026-05-01T16:05:02.999Z</time></trkpt><trkpt lat="42.143169451058284" lon="8.688773331087113"><ele>157.66666666666666</ele><time>2026-05-01T16:05:03.999Z</time></trkpt><trkpt lat="42.14322267725721" lon="8.688818834504739"><ele>156.0</ele><time>2026-05-01T16:05:04.999Z</time></trkpt><trkpt lat="42.143260009615176" lon="8.688959535530193"><ele>154.33333333333334</ele><time>2026-05-01T16:05:06.999Z</time></trkpt><trkpt lat="42.14320952979902" lon="8.689107583727806"><ele>152.66666666666669</ele><time>2026-05-01T16:05:08.999Z</time></trkpt><trkpt lat="42.14316574350958" lon="8.689187337718774"><ele>151.0</ele><time>2026-05-01T16:05:09.999Z</time></trkpt><trkpt lat="42.143125564994854" lon="8.689261724743538"><ele>149.0</ele><time>2026-05-01T16:05:10.999Z</time></trkpt><trkpt lat="42.1430880862594" lon="8.689346584345817"><ele>147.0</ele><time>2026-05-01T16:05:11.999Z</time></trkpt><trkpt lat="42.14306012848668" lon="8.689455231934803"><ele>145.0</ele><time>2026-05-01T16:05:12.999Z</time></trkpt><trkpt lat="42.14305901454327" lon="8.689585540682302"><ele>143.0</ele><time>2026-05-01T16:05:13.999Z</time></trkpt><trkpt lat="42.1430676580882" lon="8.689731238903486"><ele>141.0</ele><time>2026-05-01T16:05:14.999Z</time></trkpt><trkpt lat="42.14307372443454" lon="8.689888875686982"><ele>138.2</ele><time>2026-05-01T16:05:15.999Z</time></trkpt><trkpt lat="42.14307485178219" lon="8.690048546859568"><ele>135.39999999999998</ele><time>2026-05-01T16:05:16.999Z</time></trkpt><trkpt lat="42.143070814225425" lon="8.690201903684615"><ele>132.6</ele><time>2026-05-01T16:05:17.999Z</time></trkpt><trkpt lat="42.143066055259915" lon="8.690344651580991"><ele>129.79999999999998</ele><time>2026-05-01T16:05:18.999Z</time></trkpt><trkpt lat="42.1430709682331" lon="8.690486239775817"><ele>127.0</ele><time>2026-05-01T16:05:19.999Z</time></trkpt><trkpt lat="42.1430876000242" lon="8.690623893672038"><ele>128.4</ele><time>2026-05-01T16:05:20.999Z</time></trkpt><trkpt lat="42.143126848023805" lon="8.690747395035034"><ele>129.79999999999998</ele><time>2026-05-01T16:05:21.999Z</time></trkpt><trkpt lat="42.14318194181769" lon="8.690856332826383"><ele>131.2</ele><time>2026-05-01T16:05:22.999Z</time></trkpt><trkpt lat="42.143243903218966" lon="8.690968912421273"><ele>132.6</ele><time>2026-05-01T16:05:23.999Z</time></trkpt><trkpt lat="42.14331426787878" lon="8.691079931124952"><ele>134.0</ele><time>2026-05-01T16:05:24.999Z</time></trkpt><trkpt lat="42.14338602650139" lon="8.691180903761865"><ele>131.66666666666666</ele><time>2026-05-01T16:05:25.999Z</time></trkpt><trkpt lat="42.14345802278771" lon="8.69127556767878"><ele>129.33333333333331</ele><time>2026-05-01T16:05:26.999Z</time></trkpt><trkpt lat="42.14353812117958" lon="8.691335009039289"><ele>127.0</ele><time>2026-05-01T16:05:27.999Z</time></trkpt><trkpt lat="42.143622504543565" lon="8.691367033301676"><ele>124.66666666666666</ele><time>2026-05-01T16:05:28.999Z</time></trkpt><trkpt lat="42.143696413024216" lon="8.691403855662799"><ele>122.33333333333333</ele><time>2026-05-01T16:05:29.999Z</time></trkpt><trkpt lat="42.143734230158934" lon="8.691490184614171"><ele>120.0</ele><time>2026-05-01T16:05:30.999Z</time></trkpt><trkpt lat="42.14372465796464" lon="8.691595208540132"><ele>120.0</ele><time>2026-05-01T16:05:31.999Z</time></trkpt><trkpt lat="42.143687951984724" lon="8.691706005923297"><ele>120.0</ele><time>2026-05-01T16:05:32.999Z</time></trkpt><trkpt lat="42.14362368195822" lon="8.691811532059932"><ele>120.0</ele><time>2026-05-01T16:05:33.998Z</time></trkpt><trkpt lat="42.14353577179225" lon="8.691890265909802"><ele>120.0</ele><time>2026-05-01T16:05:34.998Z</time></trkpt><trkpt lat="42.143454542324314" lon="8.691947125793394"><ele>120.0</ele><time>2026-05-01T16:05:35.998Z</time></trkpt><trkpt lat="42.143393650810985" lon="8.6920114450002"><ele>118.8</ele><time>2026-05-01T16:05:36.998Z</time></trkpt><trkpt lat="42.143352537445274" lon="8.692106831634192"><ele>117.6</ele><time>2026-05-01T16:05:37.998Z</time></trkpt><trkpt lat="42.14333161207379" lon="8.692223842793519"><ele>116.4</ele><time>2026-05-01T16:05:38.998Z</time></trkpt><trkpt lat="42.14331525121858" lon="8.692367740243444"><ele>115.2</ele><time>2026-05-01T16:05:39.998Z</time></trkpt><trkpt lat="42.14331027353498" lon="8.692519688655093"><ele>114.0</ele><time>2026-05-01T16:05:40.998Z</time></trkpt><trkpt lat="42.14332482049248" lon="8.692647019384506"><ele>112.16666666666667</ele><time>2026-05-01T16:05:41.998Z</time></trkpt><trkpt lat="42.14335402453102" lon="8.692764149345622"><ele>110.33333333333334</ele><time>2026-05-01T16:05:42.998Z</time></trkpt><trkpt lat="42.143396782772456" lon="8.6928581040813"><ele>108.5</ele><time>2026-05-01T16:05:43.998Z</time></trkpt><trkpt lat="42.14345433426477" lon="8.692931435286077"><ele>106.66666666666667</ele><time>2026-05-01T16:05:44.998Z</time></trkpt><trkpt lat="42.143530399009116" lon="8.692975468102548"><ele>104.83333333333334</ele><time>2026-05-01T16:05:45.998Z</time></trkpt><trkpt lat="42.14361699603643" lon="8.69299805428836"><ele>103.0</ele><time>2026-05-01T16:05:46.998Z</time></trkpt><trkpt lat="42.14370939105811" lon="8.692989151640294"><ele>103.00000000000001</ele><time>2026-05-01T16:05:47.998Z</time></trkpt><trkpt lat="42.14380860702522" lon="8.692967219156754"><ele>103.0</ele><time>2026-05-01T16:05:48.998Z</time></trkpt><trkpt lat="42.14388638282503" lon="8.69296854567632"><ele>103.0</ele><time>2026-05-01T16:05:49.998Z</time></trkpt><trkpt lat="42.14395966989679" lon="8.693094019235748"><ele>103.0</ele><time>2026-05-01T16:05:51.998Z</time></trkpt><trkpt lat="42.14396969225036" lon="8.693185444062255"><ele>103.00000000000001</ele><time>2026-05-01T16:05:52.998Z</time></trkpt><trkpt lat="42.14396132088636" lon="8.693294807665868"><ele>103.0</ele><time>2026-05-01T16:05:53.998Z</time></trkpt><trkpt lat="42.14393912718074" lon="8.693417160031423"><ele>103.0</ele><time>2026-05-01T16:05:54.998Z</time></trkpt><trkpt lat="42.14390227565837" lon="8.693540955739396"><ele>103.0</ele><time>2026-05-01T16:05:55.998Z</time></trkpt><trkpt lat="42.1438473944347" lon="8.693650546726966"><ele>103.0</ele><time>2026-05-01T16:05:56.998Z</time></trkpt><trkpt lat="42.14378889160953" lon="8.693744606418935"><ele>103.0</ele><time>2026-05-01T16:05:57.998Z</time></trkpt><trkpt lat="42.14374337032858" lon="8.693844009872365"><ele>103.0</ele><time>2026-05-01T16:05:58.998Z</time></trkpt><trkpt lat="42.14371599666383" lon="8.693966678390584"><ele>102.4</ele><time>2026-05-01T16:05:59.998Z</time></trkpt><trkpt lat="42.14370102142912" lon="8.694112834446164"><ele>101.80000000000001</ele><time>2026-05-01T16:06:00.998Z</time></trkpt><trkpt lat="42.14370331428277" lon="8.69424553445597"><ele>101.2</ele><time>2026-05-01T16:06:01.998Z</time></trkpt><trkpt lat="42.143708676735635" lon="8.694378701685995"><ele>100.6</ele><time>2026-05-01T16:06:02.998Z</time></trkpt><trkpt lat="42.143713431183166" lon="8.69449104017217"><ele>100.0</ele><time>2026-05-01T16:06:03.998Z</time></trkpt><trkpt lat="42.14364314487163" lon="8.694626862979966"><ele>100.0</ele><time>2026-05-01T16:06:05.998Z</time></trkpt><trkpt lat="42.14357449089301" lon="8.694662385587101"><ele>100.0</ele><time>2026-05-01T16:06:07Z</time></trkpt><trkpt lat="42.14348071830694" lon="8.69467280642408"><ele>100.0</ele><time>2026-05-01T16:06:08Z</time></trkpt><trkpt lat="42.14337362432409" lon="8.694670917353447"><ele>100.0</ele><time>2026-05-01T16:06:09Z</time></trkpt><trkpt lat="42.14327967334161" lon="8.694676408593335"><ele>100.0</ele><time>2026-05-01T16:06:10Z</time></trkpt><trkpt lat="42.14319756045065" lon="8.694709757406697"><ele>96.8</ele><time>2026-05-01T16:06:11Z</time></trkpt><trkpt lat="42.14312795092144" lon="8.694763506795518"><ele>93.6</ele><time>2026-05-01T16:06:12Z</time></trkpt><trkpt lat="42.143079137378" lon="8.694849360047574"><ele>90.4</ele><time>2026-05-01T16:06:13Z</time></trkpt><trkpt lat="42.1430595895608" lon="8.694957333262728"><ele>87.2</ele><time>2026-05-01T16:06:14Z</time></trkpt><trkpt lat="42.14305677639236" lon="8.695088871546844"><ele>84.0</ele><time>2026-05-01T16:06:15Z</time></trkpt><trkpt lat="42.14307701275782" lon="8.695240458818137"><ele>84.80000000000001</ele><time>2026-05-01T16:06:16Z</time></trkpt><trkpt lat="42.14310068200725" lon="8.695365611600618"><ele>85.60000000000001</ele><time>2026-05-01T16:06:17Z</time></trkpt><trkpt lat="42.14314205990824" lon="8.695480067791436"><ele>86.4</ele><time>2026-05-01T16:06:18Z</time></trkpt><trkpt lat="42.14320245765573" lon="8.695576058487829"><ele>87.2</ele><time>2026-05-01T16:06:19Z</time></trkpt><trkpt lat="42.14325076981472" lon="8.695674097330604"><ele>88.0</ele><time>2026-05-01T16:06:20Z</time></trkpt><trkpt lat="42.14325825949261" lon="8.695781575718257"><ele>88.0</ele><time>2026-05-01T16:06:21Z</time></trkpt><trkpt lat="42.143228586535045" lon="8.695906384946909"><ele>88.0</ele><time>2026-05-01T16:06:22Z</time></trkpt><trkpt lat="42.14316635010985" lon="8.696027464417556"><ele>88.0</ele><time>2026-05-01T16:06:23Z</time></trkpt><trkpt lat="42.14309324840737" lon="8.69614390914613"><ele>88.0</ele><time>2026-05-01T16:06:24Z</time></trkpt><trkpt lat="42.14303049257544" lon="8.696269886313095"><ele>88.0</ele><time>2026-05-01T16:06:25Z</time></trkpt><trkpt lat="42.14297387398031" lon="8.696401979717178"><ele>87.80000000000001</ele><time>2026-05-01T16:06:26Z</time></trkpt><trkpt lat="42.142926705554814" lon="8.696546414288942"><ele>87.6</ele><time>2026-05-01T16:06:27Z</time></trkpt><trkpt lat="42.14287144365464" lon="8.696664725610983"><ele>87.4</ele><time>2026-05-01T16:06:28Z</time></trkpt><trkpt lat="42.142803175856436" lon="8.696738521754355"><ele>87.19999999999999</ele><time>2026-05-01T16:06:29Z</time></trkpt><trkpt lat="42.142709740338326" lon="8.696762624919874"><ele>87.0</ele><time>2026-05-01T16:06:30Z</time></trkpt><trkpt lat="42.142613849626976" lon="8.696730258612815"><ele>87.0</ele><time>2026-05-01T16:06:31Z</time></trkpt><trkpt lat="42.14251443415196" lon="8.696704305283957"><ele>87.0</ele><time>2026-05-01T16:06:32Z</time></trkpt><trkpt lat="42.14241161284995" lon="8.696695790248656"><ele>87.0</ele><time>2026-05-01T16:06:33Z</time></trkpt><trkpt lat="42.142311302814306" lon="8.696711835056046"><ele>87.0</ele><time>2026-05-01T16:06:34Z</time></trkpt><trkpt lat="42.14222068494476" lon="8.696732181574118"><ele>87.0</ele><time>2026-05-01T16:06:35Z</time></trkpt><trkpt lat="42.14214131793327" lon="8.696763081070324"><ele>87.0</ele><time>2026-05-01T16:06:36Z</time></trkpt><trkpt lat="42.142069522190894" lon="8.696804689678714"><ele>87.0</ele><time>2026-05-01T16:06:37Z</time></trkpt><trkpt lat="42.14200118093137" lon="8.696857853777308"><ele>87.0</ele><time>2026-05-01T16:06:38Z</time></trkpt><trkpt lat="42.14191802694059" lon="8.696921739297"><ele>87.0</ele><time>2026-05-01T16:06:39Z</time></trkpt><trkpt lat="42.14183728675289" lon="8.696980502253979"><ele>87.0</ele><time>2026-05-01T16:06:40Z</time></trkpt><trkpt lat="42.141760198478984" lon="8.697038941996379"><ele>87.0</ele><time>2026-05-01T16:06:41Z</time></trkpt><trkpt lat="42.141684947001615" lon="8.697095002738925"><ele>87.0</ele><time>2026-05-01T16:06:42Z</time></trkpt><trkpt lat="42.14161232630506" lon="8.697144840493426"><ele>87.0</ele><time>2026-05-01T16:06:43Z</time></trkpt><trkpt lat="42.14153346734306" lon="8.697182168469896"><ele>87.0</ele><time>2026-05-01T16:06:44Z</time></trkpt><trkpt lat="42.14144749918679" lon="8.697200979607219"><ele>87.0</ele><time>2026-05-01T16:06:45Z</time></trkpt><trkpt lat="42.14136014469821" lon="8.697219938305269"><ele>87.0</ele><time>2026-05-01T16:06:46Z</time></trkpt><trkpt lat="42.14127923989599" lon="8.697225965614933"><ele>87.0</ele><time>2026-05-01T16:06:47Z</time></trkpt><trkpt lat="42.141192722434184" lon="8.697218823093115"><ele>84.39999999999999</ele><time>2026-05-01T16:06:48Z</time></trkpt><trkpt lat="42.14111245760507" lon="8.697213963110011"><ele>81.8</ele><time>2026-05-01T16:06:48.999Z</time></trkpt><trkpt lat="42.14103512566425" lon="8.69725715651671"><ele>79.2</ele><time>2026-05-01T16:06:49.999Z</time></trkpt><trkpt lat="42.14095651843946" lon="8.69735598575021"><ele>76.6</ele><time>2026-05-01T16:06:50.999Z</time></trkpt><trkpt lat="42.140885232531396" lon="8.697464723373905"><ele>74.0</ele><time>2026-05-01T16:06:51.999Z</time></trkpt><trkpt lat="42.140799034461395" lon="8.697539607720685"><ele>72.4</ele><time>2026-05-01T16:06:52.999Z</time></trkpt><trkpt lat="42.140691162029455" lon="8.697592960644979"><ele>70.80000000000001</ele><time>2026-05-01T16:06:53.999Z</time></trkpt><trkpt lat="42.14059057600916" lon="8.69764654913313"><ele>69.19999999999999</ele><time>2026-05-01T16:06:54.999Z</time></trkpt><trkpt lat="42.14049581619091" lon="8.697720060317057"><ele>67.6</ele><time>2026-05-01T16:06:55.999Z</time></trkpt><trkpt lat="42.14040464625959" lon="8.697808454384033"><ele>66.0</ele><time>2026-05-01T16:06:56.999Z</time></trkpt><trkpt lat="42.14032327082468" lon="8.697908717973064"><ele>66.0</ele><time>2026-05-01T16:06:57.999Z</time></trkpt><trkpt lat="42.14024203414798" lon="8.698012684812925"><ele>66.0</ele><time>2026-05-01T16:06:58.999Z</time></trkpt><trkpt lat="42.14015410519324" lon="8.698112985127924"><ele>66.0</ele><time>2026-05-01T16:06:59.999Z</time></trkpt><trkpt lat="42.14005595614066" lon="8.698198880641542"><ele>66.0</ele><time>2026-05-01T16:07:00.999Z</time></trkpt><trkpt lat="42.13995794384296" lon="8.698273406716975"><ele>63.0</ele><time>2026-05-01T16:07:01.999Z</time></trkpt><trkpt lat="42.13986956959328" lon="8.69836951051803"><ele>60.0</ele><time>2026-05-01T16:07:02.999Z</time></trkpt><trkpt lat="42.13979263509038" lon="8.69848244964998"><ele>57.0</ele><time>2026-05-01T16:07:03.999Z</time></trkpt><trkpt lat="42.139718107350774" lon="8.698600724008584"><ele>54.0</ele><time>2026-05-01T16:07:04.999Z</time></trkpt><trkpt lat="42.13964706376847" lon="8.698724235360547"><ele>54.0</ele><time>2026-05-01T16:07:05.999Z</time></trkpt><trkpt lat="42.13958555397478" lon="8.698854299745296"><ele>54.00000000000001</ele><time>2026-05-01T16:07:06.999Z</time></trkpt><trkpt lat="42.13953219241301" lon="8.69898454608868"><ele>54.00000000000001</ele><time>2026-05-01T16:07:07.999Z</time></trkpt><trkpt lat="42.13949776079251" lon="8.699118462181218"><ele>54.0</ele><time>2026-05-01T16:07:08.999Z</time></trkpt><trkpt lat="42.139498920544135" lon="8.699248668217498"><ele>54.0</ele><time>2026-05-01T16:07:09.999Z</time></trkpt><trkpt lat="42.13952491154337" lon="8.699389618580325"><ele>53.2</ele><time>2026-05-01T16:07:10.999Z</time></trkpt><trkpt lat="42.13957816747299" lon="8.699527659370016"><ele>52.400000000000006</ele><time>2026-05-01T16:07:11.999Z</time></trkpt><trkpt lat="42.13963395604796" lon="8.69966193396852"><ele>51.6</ele><time>2026-05-01T16:07:12.999Z</time></trkpt><trkpt lat="42.13965801369912" lon="8.699803574337514"><ele>50.8</ele><time>2026-05-01T16:07:13.999Z</time></trkpt><trkpt lat="42.13963373158229" lon="8.699941087892295"><ele>50.0</ele><time>2026-05-01T16:07:14.999Z</time></trkpt><trkpt lat="42.139581551188066" lon="8.700062328866165"><ele>50.0</ele><time>2026-05-01T16:07:15.999Z</time></trkpt><trkpt lat="42.13952551329377" lon="8.700189959330755"><ele>50.0</ele><time>2026-05-01T16:07:16.999Z</time></trkpt><trkpt lat="42.1395000430923" lon="8.700325831726326"><ele>50.0</ele><time>2026-05-01T16:07:17.999Z</time></trkpt><trkpt lat="42.13950180207637" lon="8.70046863091883"><ele>50.0</ele><time>2026-05-01T16:07:18.999Z</time></trkpt><trkpt lat="42.13950904724322" lon="8.700607647414174"><ele>50.0</ele><time>2026-05-01T16:07:19.999Z</time></trkpt><trkpt lat="42.139522909532914" lon="8.700732040352689"><ele>49.0</ele><time>2026-05-01T16:07:20.999Z</time></trkpt><trkpt lat="42.13955941755952" lon="8.700850947438461"><ele>48.0</ele><time>2026-05-01T16:07:21.999Z</time></trkpt><trkpt lat="42.139619384918134" lon="8.700964192892698"><ele>47.0</ele><time>2026-05-01T16:07:22.999Z</time></trkpt><trkpt lat="42.13968462387676" lon="8.701072291555525"><ele>46.0</ele><time>2026-05-01T16:07:23.999Z</time></trkpt><trkpt lat="42.13973352191024" lon="8.70117133157345"><ele>45.0</ele><time>2026-05-01T16:07:24.999Z</time></trkpt><trkpt lat="42.13975738015818" lon="8.701268961748676"><ele>44.2</ele><time>2026-05-01T16:07:25.999Z</time></trkpt><trkpt lat="42.139766531598" lon="8.701354953155493"><ele>43.4</ele><time>2026-05-01T16:07:26.999Z</time></trkpt><trkpt lat="42.139775938645464" lon="8.701453613624972"><ele>42.599999999999994</ele><time>2026-05-01T16:07:27.999Z</time></trkpt><trkpt lat="42.13974500918457" lon="8.701591076055541"><ele>41.8</ele><time>2026-05-01T16:07:29.999Z</time></trkpt><trkpt lat="42.13972647791122" lon="8.701766944537786"><ele>41.0</ele><time>2026-05-01T16:07:31.999Z</time></trkpt><trkpt lat="42.13972162779961" lon="8.701888492460302"><ele>41.166666666666664</ele><time>2026-05-01T16:07:32.999Z</time></trkpt><trkpt lat="42.13972103647454" lon="8.702012761401368"><ele>41.33333333333333</ele><time>2026-05-01T16:07:33.999Z</time></trkpt><trkpt lat="42.139720453393956" lon="8.70213762094123"><ele>41.5</ele><time>2026-05-01T16:07:34.999Z</time></trkpt><trkpt lat="42.13972925994393" lon="8.702257192000658"><ele>41.666666666666664</ele><time>2026-05-01T16:07:35.999Z</time></trkpt><trkpt lat="42.13974684794556" lon="8.702356585520214"><ele>41.833333333333336</ele><time>2026-05-01T16:07:36.999Z</time></trkpt><trkpt lat="42.13979480236306" lon="8.702443576140324"><ele>42.0</ele><time>2026-05-01T16:07:37.999Z</time></trkpt><trkpt lat="42.13986577143379" lon="8.70251835753904"><ele>43.0</ele><time>2026-05-01T16:07:38.999Z</time></trkpt><trkpt lat="42.139931306196665" lon="8.702592753251556"><ele>44.0</ele><time>2026-05-01T16:07:39.999Z</time></trkpt><trkpt lat="42.13996702015797" lon="8.702680667859154"><ele>45.0</ele><time>2026-05-01T16:07:40.999Z</time></trkpt><trkpt lat="42.13996277570643" lon="8.702790182350661"><ele>46.0</ele><time>2026-05-01T16:07:41.999Z</time></trkpt><trkpt lat="42.13994835303094" lon="8.702914175122034"><ele>47.0</ele><time>2026-05-01T16:07:42.998Z</time></trkpt><trkpt lat="42.13996104688963" lon="8.70304987039075"><ele>48.0</ele><time>2026-05-01T16:07:43.998Z</time></trkpt><trkpt lat="42.1400028996761" lon="8.703176203149487"><ele>48.0</ele><time>2026-05-01T16:07:44.998Z</time></trkpt><trkpt lat="42.140061300283186" lon="8.7032861644151"><ele>48.0</ele><time>2026-05-01T16:07:45.998Z</time></trkpt><trkpt lat="42.14011127262556" lon="8.703379110515026"><ele>48.0</ele><time>2026-05-01T16:07:46.998Z</time></trkpt><trkpt lat="42.14013525895993" lon="8.703482029851367"><ele>48.0</ele><time>2026-05-01T16:07:47.998Z</time></trkpt><trkpt lat="42.140111682669826" lon="8.703562009309085"><ele>48.0</ele><time>2026-05-01T16:07:48.998Z</time></trkpt><trkpt lat="42.14005795914436" lon="8.703640332488998"><ele>48.0</ele><time>2026-05-01T16:07:49.998Z</time></trkpt><trkpt lat="42.14000319179203" lon="8.703729316349937"><ele>47.4</ele><time>2026-05-01T16:07:50.998Z</time></trkpt><trkpt lat="42.13995675100271" lon="8.703854937002816"><ele>46.8</ele><time>2026-05-01T16:07:51.998Z</time></trkpt><trkpt lat="42.1399453126884" lon="8.703995394690248"><ele>46.2</ele><time>2026-05-01T16:07:52.998Z</time></trkpt><trkpt lat="42.13994957949817" lon="8.70415237859093"><ele>45.6</ele><time>2026-05-01T16:07:53.998Z</time></trkpt><trkpt lat="42.13996242444403" lon="8.704311215109492"><ele>45.0</ele><time>2026-05-01T16:07:54.998Z</time></trkpt><trkpt lat="42.1399924349378" lon="8.704457090245795"><ele>43.0</ele><time>2026-05-01T16:07:55.998Z</time></trkpt><trkpt lat="42.14004059989904" lon="8.704605018934046"><ele>41.0</ele><time>2026-05-01T16:07:56.998Z</time></trkpt><trkpt lat="42.140115191738765" lon="8.704729326103545"><ele>39.0</ele><time>2026-05-01T16:07:57.998Z</time></trkpt><trkpt lat="42.14020442401518" lon="8.704830818105574"><ele>37.0</ele><time>2026-05-01T16:07:58.998Z</time></trkpt><trkpt lat="42.14029415821721" lon="8.704927677047511"><ele>37.0</ele><time>2026-05-01T16:07:59.998Z</time></trkpt><trkpt lat="42.14035560809062" lon="8.705031444049691"><ele>37.0</ele><time>2026-05-01T16:08:00.998Z</time></trkpt><trkpt lat="42.14038834560454" lon="8.705152271797294"><ele>37.0</ele><time>2026-05-01T16:08:01.998Z</time></trkpt><trkpt lat="42.14038266955974" lon="8.705275220001587"><ele>37.0</ele><time>2026-05-01T16:08:02.998Z</time></trkpt><trkpt lat="42.14037028165493" lon="8.705404566885884"><ele>37.0</ele><time>2026-05-01T16:08:03.998Z</time></trkpt><trkpt lat="42.14038089530588" lon="8.705532770086904"><ele>36.0</ele><time>2026-05-01T16:08:04.998Z</time></trkpt><trkpt lat="42.14042242528744" lon="8.70565052746913"><ele>35.0</ele><time>2026-05-01T16:08:05.998Z</time></trkpt><trkpt lat="42.14048600252453" lon="8.705772540139751"><ele>34.0</ele><time>2026-05-01T16:08:06.998Z</time></trkpt><trkpt lat="42.14054488335449" lon="8.705907314625197"><ele>33.0</ele><time>2026-05-01T16:08:07.998Z</time></trkpt><trkpt lat="42.14058049131398" lon="8.706061794592356"><ele>32.0</ele><time>2026-05-01T16:08:08.998Z</time></trkpt><trkpt lat="42.14059283282787" lon="8.706220496486488"><ele>30.75</ele><time>2026-05-01T16:08:09.998Z</time></trkpt><trkpt lat="42.140595764677286" lon="8.70638317239569"><ele>29.5</ele><time>2026-05-01T16:08:10.998Z</time></trkpt><trkpt lat="42.14058991378364" lon="8.706540651574617"><ele>28.25</ele><time>2026-05-01T16:08:11.998Z</time></trkpt><trkpt lat="42.14057359293018" lon="8.706686878853668"><ele>27.0</ele><time>2026-05-01T16:08:13Z</time></trkpt><trkpt lat="42.14058665298593" lon="8.706831217065416"><ele>26.6</ele><time>2026-05-01T16:08:14Z</time></trkpt><trkpt lat="42.14062230254956" lon="8.706953084878212"><ele>26.200000000000003</ele><time>2026-05-01T16:08:15Z</time></trkpt><trkpt lat="42.1406794969813" lon="8.707070520536536"><ele>25.8</ele><time>2026-05-01T16:08:16Z</time></trkpt><trkpt lat="42.14075016099883" lon="8.707196646228383"><ele>25.4</ele><time>2026-05-01T16:08:17Z</time></trkpt><trkpt lat="42.140808360202406" lon="8.707307045458132"><ele>25.0</ele><time>2026-05-01T16:08:18Z</time></trkpt><trkpt lat="42.14083319716897" lon="8.70743490343359"><ele>25.000000000000004</ele><time>2026-05-01T16:08:19Z</time></trkpt><trkpt lat="42.140820402584126" lon="8.707543761303713"><ele>25.0</ele><time>2026-05-01T16:08:20Z</time></trkpt><trkpt lat="42.14076196806936" lon="8.70763900897883"><ele>25.0</ele><time>2026-05-01T16:08:21Z</time></trkpt><trkpt lat="42.14070054103312" lon="8.707725292123886"><ele>25.0</ele><time>2026-05-01T16:08:22Z</time></trkpt><trkpt lat="42.14065551607476" lon="8.707831673972548"><ele>25.000000000000004</ele><time>2026-05-01T16:08:23Z</time></trkpt><trkpt lat="42.1406578091959" lon="8.707944218645244"><ele>25.0</ele><time>2026-05-01T16:08:24Z</time></trkpt><trkpt lat="42.14068573749089" lon="8.708100895354276"><ele>25.75</ele><time>2026-05-01T16:08:25Z</time></trkpt><trkpt lat="42.14072626256087" lon="8.708272098937135"><ele>26.5</ele><time>2026-05-01T16:08:26Z</time></trkpt><trkpt lat="42.140748213387226" lon="8.708447005293454"><ele>27.25</ele><time>2026-05-01T16:08:27Z</time></trkpt><trkpt lat="42.14075040497365" lon="8.708629113412782"><ele>28.0</ele><time>2026-05-01T16:08:28Z</time></trkpt><trkpt lat="42.140736893420836" lon="8.70879964300831"><ele>28.0</ele><time>2026-05-01T16:08:29Z</time></trkpt><trkpt lat="42.140762490789314" lon="8.70896549382251"><ele>28.0</ele><time>2026-05-01T16:08:30Z</time></trkpt><trkpt lat="42.14081622688714" lon="8.709107267752186"><ele>28.0</ele><time>2026-05-01T16:08:31Z</time></trkpt><trkpt lat="42.14087119128944" lon="8.709254322662337"><ele>28.0</ele><time>2026-05-01T16:08:32Z</time></trkpt><trkpt lat="42.140904598287776" lon="8.709418842881226"><ele>26.599999999999998</ele><time>2026-05-01T16:08:33Z</time></trkpt><trkpt lat="42.1409350585129" lon="8.709577212042351"><ele>25.199999999999996</ele><time>2026-05-01T16:08:34Z</time></trkpt><trkpt lat="42.14097555894324" lon="8.709706352334043"><ele>23.8</ele><time>2026-05-01T16:08:35Z</time></trkpt><trkpt lat="42.14102448305297" lon="8.709795281978224"><ele>22.4</ele><time>2026-05-01T16:08:36Z</time></trkpt><trkpt lat="42.14109479023046" lon="8.70984042299425"><ele>21.0</ele><time>2026-05-01T16:08:37Z</time></trkpt><trkpt lat="42.14117730974146" lon="8.709829197594859"><ele>21.0</ele><time>2026-05-01T16:08:38Z</time></trkpt><trkpt lat="42.14126657235738" lon="8.709787402991084"><ele>21.0</ele><time>2026-05-01T16:08:39Z</time></trkpt><trkpt lat="42.14137204668382" lon="8.70975519555951"><ele>21.0</ele><time>2026-05-01T16:08:40Z</time></trkpt><trkpt lat="42.14147910450052" lon="8.709773482163017"><ele>21.0</ele><time>2026-05-01T16:08:41Z</time></trkpt><trkpt lat="42.14156385228838" lon="8.709802497283476"><ele>21.0</ele><time>2026-05-01T16:08:42Z</time></trkpt><trkpt lat="42.14166624027517" lon="8.709858428295293"><ele>21.0</ele><time>2026-05-01T16:08:44Z</time></trkpt><trkpt lat="42.14163666296052" lon="8.709984336737213"><ele>21.0</ele><time>2026-05-01T16:08:46Z</time></trkpt><trkpt lat="42.14157791693446" lon="8.710034617600353"><ele>21.0</ele><time>2026-05-01T16:08:47Z</time></trkpt><trkpt lat="42.14151143889725" lon="8.71009199266199"><ele>21.0</ele><time>2026-05-01T16:08:48Z</time></trkpt><trkpt lat="42.141456726560726" lon="8.710161549559407"><ele>21.0</ele><time>2026-05-01T16:08:49Z</time></trkpt><trkpt lat="42.14143609424145" lon="8.710252669500774"><ele>21.0</ele><time>2026-05-01T16:08:50Z</time></trkpt><trkpt lat="42.14142653542569" lon="8.710394927571414"><ele>20.6</ele><time>2026-05-01T16:08:51Z</time></trkpt><trkpt lat="42.141428066046515" lon="8.710539453278319"><ele>20.200000000000003</ele><time>2026-05-01T16:08:52Z</time></trkpt><trkpt lat="42.141421481193056" lon="8.710681353424448"><ele>19.799999999999997</ele><time>2026-05-01T16:08:53Z</time></trkpt><trkpt lat="42.1414262440179" lon="8.710822708696837"><ele>19.4</ele><time>2026-05-01T16:08:54Z</time></trkpt><trkpt lat="42.14145682509226" lon="8.7109615447783"><ele>19.0</ele><time>2026-05-01T16:08:55Z</time></trkpt><trkpt lat="42.141504699835075" lon="8.711101858325017"><ele>21.5</ele><time>2026-05-01T16:08:56Z</time></trkpt><trkpt lat="42.14156280162577" lon="8.71124657987168"><ele>24.0</ele><time>2026-05-01T16:08:56.999Z</time></trkpt><trkpt lat="42.1416258193436" lon="8.711393721474288"><ele>26.5</ele><time>2026-05-01T16:08:57.999Z</time></trkpt><trkpt lat="42.141696519963155" lon="8.711554473554239"><ele>29.0</ele><time>2026-05-01T16:08:58.999Z</time></trkpt><trkpt lat="42.141775275885905" lon="8.711711760547635"><ele>29.0</ele><time>2026-05-01T16:08:59.999Z</time></trkpt><trkpt lat="42.141855627027134" lon="8.711869831887295"><ele>29.0</ele><time>2026-05-01T16:09:00.999Z</time></trkpt><trkpt lat="42.141948893268854" lon="8.712027777611896"><ele>29.0</ele><time>2026-05-01T16:09:01.999Z</time></trkpt><trkpt lat="42.142032709262295" lon="8.712188152036289"><ele>29.0</ele><time>2026-05-01T16:09:02.999Z</time></trkpt><trkpt lat="42.14212084130948" lon="8.712356023426619"><ele>29.0</ele><time>2026-05-01T16:09:03.999Z</time></trkpt><trkpt lat="42.142195474451746" lon="8.712539398717269"><ele>29.0</ele><time>2026-05-01T16:09:04.999Z</time></trkpt><trkpt lat="42.142265766778095" lon="8.712718890967828"><ele>29.0</ele><time>2026-05-01T16:09:05.999Z</time></trkpt><trkpt lat="42.142337858997024" lon="8.712881864247358"><ele>29.0</ele><time>2026-05-01T16:09:06.999Z</time></trkpt><trkpt lat="42.14240228283202" lon="8.713033069076989"><ele>29.0</ele><time>2026-05-01T16:09:07.999Z</time></trkpt><trkpt lat="42.14246740877646" lon="8.713175619784407"><ele>29.0</ele><time>2026-05-01T16:09:08.999Z</time></trkpt><trkpt lat="42.14253380701338" lon="8.713305132498368"><ele>29.0</ele><time>2026-05-01T16:09:09.999Z</time></trkpt><trkpt lat="42.14259802985354" lon="8.713420350708212"><ele>29.0</ele><time>2026-05-01T16:09:10.999Z</time></trkpt><trkpt lat="42.14265957686818" lon="8.71352969164788"><ele>27.4</ele><time>2026-05-01T16:09:11.999Z</time></trkpt><trkpt lat="42.142727091190274" lon="8.713626020398504"><ele>25.799999999999997</ele><time>2026-05-01T16:09:12.999Z</time></trkpt><trkpt lat="42.14278598582132" lon="8.71371549473377"><ele>24.200000000000003</ele><time>2026-05-01T16:09:13.999Z</time></trkpt><trkpt lat="42.14285346626688" lon="8.713830682806648"><ele>22.6</ele><time>2026-05-01T16:09:14.999Z</time></trkpt><trkpt lat="42.14291659192993" lon="8.7139279265316"><ele>21.0</ele><time>2026-05-01T16:09:15.999Z</time></trkpt><trkpt lat="42.142974560709455" lon="8.714043555176653"><ele>21.0</ele><time>2026-05-01T16:09:16.999Z</time></trkpt><trkpt lat="42.143039521913025" lon="8.714157659907224"><ele>21.0</ele><time>2026-05-01T16:09:17.999Z</time></trkpt><trkpt lat="42.1431144917095" lon="8.714260316082417"><ele>21.0</ele><time>2026-05-01T16:09:18.999Z</time></trkpt><trkpt lat="42.14319942604597" lon="8.714369564530477"><ele>21.0</ele><time>2026-05-01T16:09:19.999Z</time></trkpt><trkpt lat="42.143279720914045" lon="8.714473598542547"><ele>21.0</ele><time>2026-05-01T16:09:20.999Z</time></trkpt><trkpt lat="42.14336505125309" lon="8.714554473152221"><ele>21.6</ele><time>2026-05-01T16:09:21.999Z</time></trkpt><trkpt lat="42.14346592637687" lon="8.71459443409734"><ele>22.200000000000003</ele><time>2026-05-01T16:09:22.999Z</time></trkpt><trkpt lat="42.14356974755367" lon="8.714603241558073"><ele>22.799999999999997</ele><time>2026-05-01T16:09:23.999Z</time></trkpt><trkpt lat="42.14367537348726" lon="8.714596203543461"><ele>23.4</ele><time>2026-05-01T16:09:24.999Z</time></trkpt><trkpt lat="42.143776992900996" lon="8.714625269871247"><ele>24.0</ele><time>2026-05-01T16:09:25.999Z</time></trkpt><trkpt lat="42.143870620990974" lon="8.71470967707678"><ele>24.0</ele><time>2026-05-01T16:09:26.999Z</time></trkpt><trkpt lat="42.143938011453365" lon="8.714809820610316"><ele>24.0</ele><time>2026-05-01T16:09:27.999Z</time></trkpt><trkpt lat="42.14400091339612" lon="8.714896082261852"><ele>24.0</ele><time>2026-05-01T16:09:28.999Z</time></trkpt><trkpt lat="42.14407134394331" lon="8.714944306082192"><ele>24.0</ele><time>2026-05-01T16:09:29.999Z</time></trkpt><trkpt lat="42.144150809783184" lon="8.714956130666815"><ele>24.0</ele><time>2026-05-01T16:09:30.999Z</time></trkpt><trkpt lat="42.14424194306615" lon="8.714928404171692"><ele>24.0</ele><time>2026-05-01T16:09:31.999Z</time></trkpt><trkpt lat="42.144316777903356" lon="8.714865168994962"><ele>25.0</ele><time>2026-05-01T16:09:32.999Z</time></trkpt><trkpt lat="42.14438068679872" lon="8.714782330942686"><ele>26.0</ele><time>2026-05-01T16:09:33.999Z</time></trkpt><trkpt lat="42.144430737756224" lon="8.714722266182012"><ele>27.0</ele><time>2026-05-01T16:09:34.999Z</time></trkpt><trkpt lat="42.14450212757448" lon="8.714706010310323"><ele>28.0</ele><time>2026-05-01T16:09:35.999Z</time></trkpt><trkpt lat="42.144579775191566" lon="8.714744172067084"><ele>29.0</ele><time>2026-05-01T16:09:36.999Z</time></trkpt><trkpt lat="42.14465519774152" lon="8.714793152801521"><ele>30.0</ele><time>2026-05-01T16:09:37.999Z</time></trkpt><trkpt lat="42.14474058586007" lon="8.714815129268018"><ele>30.0</ele><time>2026-05-01T16:09:38.999Z</time></trkpt><trkpt lat="42.14484274321261" lon="8.714822189098609"><ele>30.0</ele><time>2026-05-01T16:09:39.999Z</time></trkpt><trkpt lat="42.14494377123008" lon="8.71483820389018"><ele>30.0</ele><time>2026-05-01T16:09:40.999Z</time></trkpt><trkpt lat="42.14505346687359" lon="8.714866400494966"><ele>30.0</ele><time>2026-05-01T16:09:41.999Z</time></trkpt><trkpt lat="42.14516100952692" lon="8.714903963827258"><ele>30.0</ele><time>2026-05-01T16:09:42.999Z</time></trkpt><trkpt lat="42.14526576272423" lon="8.714943497281093"><ele>30.333333333333332</ele><time>2026-05-01T16:09:43.999Z</time></trkpt><trkpt lat="42.145362550062494" lon="8.714983413657553"><ele>30.666666666666664</ele><time>2026-05-01T16:09:44.999Z</time></trkpt><trkpt lat="42.145457374662264" lon="8.715024520588885"><ele>31.0</ele><time>2026-05-01T16:09:45.999Z</time></trkpt><trkpt lat="42.145522887064075" lon="8.715039137681387"><ele>31.333333333333332</ele><time>2026-05-01T16:09:46.999Z</time></trkpt><trkpt lat="42.145601311647155" lon="8.715081935774023"><ele>31.666666666666664</ele><time>2026-05-01T16:09:48.999Z</time></trkpt><trkpt lat="42.14561000413981" lon="8.715205421273154"><ele>32.0</ele><time>2026-05-01T16:09:50.998Z</time></trkpt><trkpt lat="42.14556422288193" lon="8.71529525099884"><ele>32.83333333333333</ele><time>2026-05-01T16:09:52.998Z</time></trkpt><trkpt lat="42.145514020637805" lon="8.715383263625233"><ele>33.666666666666664</ele><time>2026-05-01T16:09:54.998Z</time></trkpt><trkpt lat="42.14545441654868" lon="8.715412225575529"><ele>34.5</ele><time>2026-05-01T16:09:55.998Z</time></trkpt><trkpt lat="42.145375863916136" lon="8.71542422851339"><ele>35.333333333333336</ele><time>2026-05-01T16:09:56.998Z</time></trkpt><trkpt lat="42.14527804655129" lon="8.715426961212168"><ele>36.16666666666667</ele><time>2026-05-01T16:09:57.998Z</time></trkpt><trkpt lat="42.145153034992" lon="8.715423456096728"><ele>37.0</ele><time>2026-05-01T16:09:58.998Z</time></trkpt><trkpt lat="42.14502100174172" lon="8.715420527740411"><ele>37.0</ele><time>2026-05-01T16:09:59.998Z</time></trkpt><trkpt lat="42.14488318001242" lon="8.715449276754526"><ele>37.0</ele><time>2026-05-01T16:10:00.998Z</time></trkpt><trkpt lat="42.144756885709754" lon="8.71549206652241"><ele>37.0</ele><time>2026-05-01T16:10:01.998Z</time></trkpt><trkpt lat="42.144652301410545" lon="8.715528804317112"><ele>37.0</ele><time>2026-05-01T16:10:02.998Z</time></trkpt><trkpt lat="42.144555648732585" lon="8.71555730412296"><ele>35.833333333333336</ele><time>2026-05-01T16:10:03.998Z</time></trkpt><trkpt lat="42.144482580386075" lon="8.715602933778573"><ele>34.66666666666667</ele><time>2026-05-01T16:10:04.998Z</time></trkpt><trkpt lat="42.144426192955414" lon="8.715653121485655"><ele>33.5</ele><time>2026-05-01T16:10:05.998Z</time></trkpt><trkpt lat="42.14437052978311" lon="8.715707454370047"><ele>32.333333333333336</ele><time>2026-05-01T16:10:06.998Z</time></trkpt><trkpt lat="42.14433179956039" lon="8.715789840589371"><ele>31.166666666666668</ele><time>2026-05-01T16:10:07.998Z</time></trkpt><trkpt lat="42.14432505663263" lon="8.71590283816652"><ele>30.0</ele><time>2026-05-01T16:10:08.998Z</time></trkpt><trkpt lat="42.14434326957341" lon="8.716015222166067"><ele>31.5</ele><time>2026-05-01T16:10:09.998Z</time></trkpt><trkpt lat="42.144403991469105" lon="8.716104429032793"><ele>33.0</ele><time>2026-05-01T16:10:10.998Z</time></trkpt><trkpt lat="42.14449386964008" lon="8.71617358314794"><ele>34.5</ele><time>2026-05-01T16:10:11.998Z</time></trkpt><trkpt lat="42.144588370692055" lon="8.716230704361179"><ele>36.0</ele><time>2026-05-01T16:10:12.998Z</time></trkpt><trkpt lat="42.14465684289138" lon="8.716296144934912"><ele>37.5</ele><time>2026-05-01T16:10:13.998Z</time></trkpt><trkpt lat="42.14469032193753" lon="8.716372173835794"><ele>39.0</ele><time>2026-05-01T16:10:14.998Z</time></trkpt><trkpt lat="42.144665990719595" lon="8.716526714488355"><ele>39.0</ele><time>2026-05-01T16:10:16.998Z</time></trkpt><trkpt lat="42.1445663056935" lon="8.716628722065956"><ele>39.0</ele><time>2026-05-01T16:10:19Z</time></trkpt><trkpt lat="42.14451299137386" lon="8.71667476571397"><ele>39.0</ele><time>2026-05-01T16:10:20Z</time></trkpt><trkpt lat="42.14446102416302" lon="8.716732118690786"><ele>39.0</ele><time>2026-05-01T16:10:21Z</time></trkpt><trkpt lat="42.144410722192085" lon="8.716787058703453"><ele>39.0</ele><time>2026-05-01T16:10:22Z</time></trkpt><trkpt lat="42.14434306857709" lon="8.716857202116943"><ele>39.0</ele><time>2026-05-01T16:10:24Z</time></trkpt><trkpt lat="42.144271119096345" lon="8.71690428080733"><ele>39.833333333333336</ele><time>2026-05-01T16:10:27Z</time></trkpt><trkpt lat="42.14420306341428" lon="8.71697690332768"><ele>40.666666666666664</ele><time>2026-05-01T16:10:30Z</time></trkpt><trkpt lat="42.14420633705494" lon="8.717062913099781"><ele>41.5</ele><time>2026-05-01T16:10:31Z</time></trkpt><trkpt lat="42.14424596108576" lon="8.717161005768899"><ele>42.33333333333333</ele><time>2026-05-01T16:10:32Z</time></trkpt><trkpt lat="42.14429201873318" lon="8.717264451517071"><ele>43.166666666666664</ele><time>2026-05-01T16:10:33Z</time></trkpt><trkpt lat="42.14433828347166" lon="8.717396935500453"><ele>44.0</ele><time>2026-05-01T16:10:34Z</time></trkpt><trkpt lat="42.144400918209605" lon="8.717585576862819"><ele>45.0</ele><time>2026-05-01T16:10:35Z</time></trkpt><trkpt lat="42.14448769280408" lon="8.717812276032342"><ele>46.0</ele><time>2026-05-01T16:10:36Z</time></trkpt><trkpt lat="42.14456813316831" lon="8.718051200477092"><ele>47.0</ele><time>2026-05-01T16:10:37Z</time></trkpt><trkpt lat="42.14463176689389" lon="8.718262834265381"><ele>47.0</ele><time>2026-05-01T16:10:38Z</time></trkpt><trkpt lat="42.14468660501647" lon="8.71843663504231"><ele>47.0</ele><time>2026-05-01T16:10:39Z</time></trkpt><trkpt lat="42.14474254793815" lon="8.7185809378995"><ele>47.0</ele><time>2026-05-01T16:10:40Z</time></trkpt><trkpt lat="42.144801213353155" lon="8.718715440325099"><ele>47.0</ele><time>2026-05-01T16:10:41Z</time></trkpt><trkpt lat="42.14486218455917" lon="8.718842325220313"><ele>47.0</ele><time>2026-05-01T16:10:42Z</time></trkpt><trkpt lat="42.1449280600662" lon="8.718970032425327"><ele>47.0</ele><time>2026-05-01T16:10:43Z</time></trkpt><trkpt lat="42.14499576102385" lon="8.719107738071653"><ele>47.0</ele><time>2026-05-01T16:10:44Z</time></trkpt><trkpt lat="42.14506199835181" lon="8.719239821343319"><ele>47.0</ele><time>2026-05-01T16:10:45Z</time></trkpt><trkpt lat="42.14512811707039" lon="8.719372571755933"><ele>48.0</ele><time>2026-05-01T16:10:46Z</time></trkpt><trkpt lat="42.145199904235064" lon="8.719511703951017"><ele>49.0</ele><time>2026-05-01T16:10:47Z</time></trkpt><trkpt lat="42.14528077565589" lon="8.719666456805555"><ele>50.0</ele><time>2026-05-01T16:10:48Z</time></trkpt><trkpt lat="42.14536297499577" lon="8.719831250877752"><ele>51.0</ele><time>2026-05-01T16:10:49Z</time></trkpt><trkpt lat="42.14544930235611" lon="8.720003745898387"><ele>51.0</ele><time>2026-05-01T16:10:50Z</time></trkpt><trkpt lat="42.14553787965998" lon="8.720183572536335"><ele>51.0</ele><time>2026-05-01T16:10:51Z</time></trkpt><trkpt lat="42.145626614890226" lon="8.720371238100807"><ele>51.0</ele><time>2026-05-01T16:10:52Z</time></trkpt><trkpt lat="42.14572280687367" lon="8.720579822136667"><ele>51.0</ele><time>2026-05-01T16:10:53Z</time></trkpt><trkpt lat="42.145822147191616" lon="8.720800870191859"><ele>51.0</ele><time>2026-05-01T16:10:54Z</time></trkpt><trkpt lat="42.1459292040842" lon="8.721034834903561"><ele>51.0</ele><time>2026-05-01T16:10:55Z</time></trkpt><trkpt lat="42.146035411666176" lon="8.721286470525481"><ele>51.66666666666667</ele><time>2026-05-01T16:10:56Z</time></trkpt><trkpt lat="42.14612329454101" lon="8.721538532615735"><ele>52.333333333333336</ele><time>2026-05-01T16:10:57Z</time></trkpt><trkpt lat="42.146201990242126" lon="8.721793470661868"><ele>53.0</ele><time>2026-05-01T16:10:58Z</time></trkpt><trkpt lat="42.14628816883567" lon="8.722038854154613"><ele>53.0</ele><time>2026-05-01T16:10:59Z</time></trkpt><trkpt lat="42.146373115582335" lon="8.72227407754154"><ele>53.0</ele><time>2026-05-01T16:11:00Z</time></trkpt><trkpt lat="42.146453386219974" lon="8.722495250039724"><ele>53.0</ele><time>2026-05-01T16:11:01Z</time></trkpt><trkpt lat="42.146539664329154" lon="8.722714169225606"><ele>53.66666666666667</ele><time>2026-05-01T16:11:01.999Z</time></trkpt><trkpt lat="42.14663536798252" lon="8.722918680827627"><ele>54.33333333333333</ele><time>2026-05-01T16:11:02.999Z</time></trkpt><trkpt lat="42.14674142208521" lon="8.723113831405463"><ele>55.0</ele><time>2026-05-01T16:11:03.999Z</time></trkpt><trkpt lat="42.146868568857634" lon="8.72329977725543"><ele>55.0</ele><time>2026-05-01T16:11:04.999Z</time></trkpt><trkpt lat="42.14701458154557" lon="8.723484255167243"><ele>55.0</ele><time>2026-05-01T16:11:05.999Z</time></trkpt><trkpt lat="42.14717503348309" lon="8.72366356112027"><ele>55.0</ele><time>2026-05-01T16:11:06.999Z</time></trkpt><trkpt lat="42.14733001578954" lon="8.723837125389778"><ele>53.666666666666664</ele><time>2026-05-01T16:11:07.999Z</time></trkpt><trkpt lat="42.14747536701761" lon="8.72400228963846"><ele>52.33333333333333</ele><time>2026-05-01T16:11:08.999Z</time></trkpt><trkpt lat="42.14761736977614" lon="8.72416181418978"><ele>51.0</ele><time>2026-05-01T16:11:09.999Z</time></trkpt><trkpt lat="42.14775117241869" lon="8.724322508068074"><ele>50.33333333333333</ele><time>2026-05-01T16:11:10.999Z</time></trkpt><trkpt lat="42.14789353970821" lon="8.72449413427468"><ele>49.666666666666664</ele><time>2026-05-01T16:11:11.999Z</time></trkpt><trkpt lat="42.148042022831945" lon="8.724653963229374"><ele>49.0</ele><time>2026-05-01T16:11:12.999Z</time></trkpt><trkpt lat="42.14820680278454" lon="8.72480581609429"><ele>49.33333333333333</ele><time>2026-05-01T16:11:13.999Z</time></trkpt><trkpt lat="42.14839484159001" lon="8.724931487297507"><ele>49.66666666666667</ele><time>2026-05-01T16:11:14.999Z</time></trkpt><trkpt lat="42.148614140914056" lon="8.72500327628922"><ele>50.0</ele><time>2026-05-01T16:11:15.999Z</time></trkpt><trkpt lat="42.14884196205192" lon="8.725022126082651"><ele>50.0</ele><time>2026-05-01T16:11:16.999Z</time></trkpt><trkpt lat="42.149036473172764" lon="8.72503576193363"><ele>50.0</ele><time>2026-05-01T16:11:17.999Z</time></trkpt><trkpt lat="42.149201395695634" lon="8.725095888772445"><ele>50.0</ele><time>2026-05-01T16:11:18.999Z</time></trkpt><trkpt lat="42.14935409409996" lon="8.725217730646477"><ele>56.66666666666667</ele><time>2026-05-01T16:11:19.999Z</time></trkpt><trkpt lat="42.14949797829884" lon="8.725395045539303"><ele>63.33333333333333</ele><time>2026-05-01T16:11:20.999Z</time></trkpt><trkpt lat="42.14962982134909" lon="8.725611059924308"><ele>70.0</ele><time>2026-05-01T16:11:21.999Z</time></trkpt><trkpt lat="42.14975840362981" lon="8.725853038682722"><ele>70.5</ele><time>2026-05-01T16:11:22.999Z</time></trkpt><trkpt lat="42.14988757836373" lon="8.726104777565022"><ele>71.0</ele><time>2026-05-01T16:11:23.999Z</time></trkpt><trkpt lat="42.15001467855933" lon="8.726367546320459"><ele>71.0</ele><time>2026-05-01T16:11:24.999Z</time></trkpt><trkpt lat="42.150149431004216" lon="8.726636404514165"><ele>71.0</ele><time>2026-05-01T16:11:25.999Z</time></trkpt><trkpt lat="42.15030726129278" lon="8.726892504346507"><ele>80.0</ele><time>2026-05-01T16:11:26.999Z</time></trkpt><trkpt lat="42.150489898533486" lon="8.72712330240678"><ele>89.0</ele><time>2026-05-01T16:11:27.999Z</time></trkpt><trkpt lat="42.1506726253386" lon="8.727328802273759"><ele>88.33333333333334</ele><time>2026-05-01T16:11:28.999Z</time></trkpt><trkpt lat="42.15083289670717" lon="8.727519744197295"><ele>87.66666666666667</ele><time>2026-05-01T16:11:29.999Z</time></trkpt><trkpt lat="42.150977260483174" lon="8.727696828877379"><ele>87.0</ele><time>2026-05-01T16:11:30.999Z</time></trkpt><trkpt lat="42.151107851838525" lon="8.727868556831135"><ele>87.0</ele><time>2026-05-01T16:11:31.999Z</time></trkpt><trkpt lat="42.15122569105211" lon="8.728074068402528"><ele>87.0</ele><time>2026-05-01T16:11:32.999Z</time></trkpt><trkpt lat="42.15132232870583" lon="8.728296114398798"><ele>87.0</ele><time>2026-05-01T16:11:33.999Z</time></trkpt><trkpt lat="42.15138532984946" lon="8.728508079671636"><ele>89.33333333333333</ele><time>2026-05-01T16:11:34.999Z</time></trkpt><trkpt lat="42.15140815528158" lon="8.728698693926823"><ele>91.66666666666666</ele><time>2026-05-01T16:11:35.999Z</time></trkpt><trkpt lat="42.15137091114431" lon="8.728892444592098"><ele>94.0</ele><time>2026-05-01T16:11:36.999Z</time></trkpt><trkpt lat="42.15129124568476" lon="8.729095213961294"><ele>94.0</ele><time>2026-05-01T16:11:37.999Z</time></trkpt><trkpt lat="42.15123025264876" lon="8.729308389319497"><ele>94.0</ele><time>2026-05-01T16:11:38.999Z</time></trkpt><trkpt lat="42.15122743949498" lon="8.72955970588481"><ele>94.0</ele><time>2026-05-01T16:11:39.999Z</time></trkpt><trkpt lat="42.151246188316456" lon="8.729826817562236"><ele>96.66666666666666</ele><time>2026-05-01T16:11:40.999Z</time></trkpt><trkpt lat="42.151238011125955" lon="8.730108608854101"><ele>99.33333333333333</ele><time>2026-05-01T16:11:41.999Z</time></trkpt><trkpt lat="42.15120127043856" lon="8.730372747254638"><ele>102.0</ele><time>2026-05-01T16:11:42.999Z</time></trkpt><trkpt lat="42.15115826103413" lon="8.730637499731792"><ele>102.0</ele><time>2026-05-01T16:11:43.999Z</time></trkpt><trkpt lat="42.15110316316871" lon="8.730903906268637"><ele>102.0</ele><time>2026-05-01T16:11:44.999Z</time></trkpt><trkpt lat="42.15102949983127" lon="8.731161504084845"><ele>102.0</ele><time>2026-05-01T16:11:45.999Z</time></trkpt><trkpt lat="42.1509376676639" lon="8.731414777404826"><ele>101.33333333333334</ele><time>2026-05-01T16:11:46.999Z</time></trkpt><trkpt lat="42.15083963582505" lon="8.731667833511821"><ele>100.66666666666667</ele><time>2026-05-01T16:11:47.999Z</time></trkpt><trkpt lat="42.150746824427266" lon="8.731923705534776"><ele>100.0</ele><time>2026-05-01T16:11:48.999Z</time></trkpt><trkpt lat="42.15067216472719" lon="8.732163773074285"><ele>102.25</ele><time>2026-05-01T16:11:49.999Z</time></trkpt><trkpt lat="42.15062705657868" lon="8.73236470127637"><ele>104.5</ele><time>2026-05-01T16:11:50.999Z</time></trkpt><trkpt lat="42.15062660497045" lon="8.732543820232943"><ele>106.75</ele><time>2026-05-01T16:11:51.999Z</time></trkpt><trkpt lat="42.15068149484022" lon="8.73271039730783"><ele>109.0</ele><time>2026-05-01T16:11:52.999Z</time></trkpt><trkpt lat="42.15077875966464" lon="8.732843151658273"><ele>109.0</ele><time>2026-05-01T16:11:53.999Z</time></trkpt><trkpt lat="42.15090301456241" lon="8.732915360708953"><ele>109.0</ele><time>2026-05-01T16:11:54.998Z</time></trkpt><trkpt lat="42.151041454055836" lon="8.732887349893817"><ele>109.0</ele><time>2026-05-01T16:11:55.998Z</time></trkpt><trkpt lat="42.15117972434716" lon="8.732775455403258"><ele>109.0</ele><time>2026-05-01T16:11:56.998Z</time></trkpt><trkpt lat="42.151313656233064" lon="8.732690415057919"><ele>109.0</ele><time>2026-05-01T16:11:57.998Z</time></trkpt><trkpt lat="42.151438404649305" lon="8.732715137729345"><ele>109.0</ele><time>2026-05-01T16:11:58.998Z</time></trkpt><trkpt lat="42.151537779381904" lon="8.732831181863629"><ele>109.0</ele><time>2026-05-01T16:11:59.998Z</time></trkpt><trkpt lat="42.15159192064758" lon="8.732994916535434"><ele>109.0</ele><time>2026-05-01T16:12:00.998Z</time></trkpt><trkpt lat="42.151625428893176" lon="8.73318958213194"><ele>108.33333333333334</ele><time>2026-05-01T16:12:01.998Z</time></trkpt><trkpt lat="42.151651854909744" lon="8.733390879553347"><ele>107.66666666666666</ele><time>2026-05-01T16:12:02.998Z</time></trkpt><trkpt lat="42.15170104869035" lon="8.733607787447266"><ele>107.0</ele><time>2026-05-01T16:12:03.998Z</time></trkpt><trkpt lat="42.1517627157039" lon="8.733839819423064"><ele>110.0</ele><time>2026-05-01T16:12:04.998Z</time></trkpt><trkpt lat="42.151825697226556" lon="8.734084921766469"><ele>113.0</ele><time>2026-05-01T16:12:05.998Z</time></trkpt><trkpt lat="42.15188647770195" lon="8.734332223374736"><ele>116.0</ele><time>2026-05-01T16:12:06.998Z</time></trkpt><trkpt lat="42.15197022203213" lon="8.73458840026787"><ele>119.33333333333333</ele><time>2026-05-01T16:12:07.998Z</time></trkpt><trkpt lat="42.15207281656985" lon="8.734836548257087"><ele>122.66666666666666</ele><time>2026-05-01T16:12:08.998Z</time></trkpt><trkpt lat="42.15217852736342" lon="8.735069178172147"><ele>126.0</ele><time>2026-05-01T16:12:09.998Z</time></trkpt><trkpt lat="42.15228768248979" lon="8.735269293007358"><ele>124.33333333333334</ele><time>2026-05-01T16:12:10.998Z</time></trkpt><trkpt lat="42.15241058025115" lon="8.735421108190192"><ele>122.66666666666667</ele><time>2026-05-01T16:12:11.998Z</time></trkpt><trkpt lat="42.152546566492546" lon="8.735531600482199"><ele>121.0</ele><time>2026-05-01T16:12:12.998Z</time></trkpt><trkpt lat="42.15264227328167" lon="8.73565488908617"><ele>121.0</ele><time>2026-05-01T16:12:13.998Z</time></trkpt><trkpt lat="42.15265850645037" lon="8.735813968936553"><ele>121.0</ele><time>2026-05-01T16:12:14.998Z</time></trkpt><trkpt lat="42.15260276023734" lon="8.735950302743326"><ele>121.0</ele><time>2026-05-01T16:12:15.998Z</time></trkpt><trkpt lat="42.152497564150245" lon="8.736077075231313"><ele>121.0</ele><time>2026-05-01T16:12:16.998Z</time></trkpt><trkpt lat="42.152372243745795" lon="8.73622043677374"><ele>126.33333333333334</ele><time>2026-05-01T16:12:17.998Z</time></trkpt><trkpt lat="42.15225328105846" lon="8.736405293241637"><ele>131.66666666666666</ele><time>2026-05-01T16:12:18.998Z</time></trkpt><trkpt lat="42.152158632618196" lon="8.736631953060321"><ele>137.0</ele><time>2026-05-01T16:12:19.998Z</time></trkpt><trkpt lat="42.15209804100474" lon="8.736885084945785"><ele>138.0</ele><time>2026-05-01T16:12:20.998Z</time></trkpt><trkpt lat="42.15207354003102" lon="8.737153928235653"><ele>139.0</ele><time>2026-05-01T16:12:21.998Z</time></trkpt><trkpt lat="42.15207206253096" lon="8.737416511306328"><ele>140.0</ele><time>2026-05-01T16:12:22.998Z</time></trkpt><trkpt lat="42.15210745956612" lon="8.73765343691133"><ele>142.66666666666666</ele><time>2026-05-01T16:12:23.998Z</time></trkpt><trkpt lat="42.152189552823884" lon="8.737846350217222"><ele>145.33333333333334</ele><time>2026-05-01T16:12:25Z</time></trkpt><trkpt lat="42.15232120864461" lon="8.738002942929821"><ele>148.0</ele><time>2026-05-01T16:12:26Z</time></trkpt><trkpt lat="42.15243165768366" lon="8.738154146414866"><ele>143.0</ele><time>2026-05-01T16:12:27Z</time></trkpt><trkpt lat="42.15248366309416" lon="8.738326501259596"><ele>138.0</ele><time>2026-05-01T16:12:28Z</time></trkpt><trkpt lat="42.15248986565236" lon="8.738526946200537"><ele>133.0</ele><time>2026-05-01T16:12:29Z</time></trkpt><trkpt lat="42.15246005543454" lon="8.73874420457608"><ele>133.0</ele><time>2026-05-01T16:12:30Z</time></trkpt><trkpt lat="42.15238835906886" lon="8.738935661007176"><ele>133.0</ele><time>2026-05-01T16:12:31Z</time></trkpt><trkpt lat="42.152267903615616" lon="8.739086325443386"><ele>133.0</ele><time>2026-05-01T16:12:32Z</time></trkpt><trkpt lat="42.15213352588792" lon="8.739205667883525"><ele>137.0</ele><time>2026-05-01T16:12:33Z</time></trkpt><trkpt lat="42.15203039119005" lon="8.739337365806106"><ele>141.0</ele><time>2026-05-01T16:12:34Z</time></trkpt><trkpt lat="42.151984353029206" lon="8.73949477446988"><ele>145.0</ele><time>2026-05-01T16:12:35Z</time></trkpt><trkpt lat="42.15198103753021" lon="8.73966490098648"><ele>149.0</ele><time>2026-05-01T16:12:36Z</time></trkpt><trkpt lat="42.152035736878894" lon="8.73983016718205"><ele>149.25</ele><time>2026-05-01T16:12:37Z</time></trkpt><trkpt lat="42.15210864611934" lon="8.739976231745302"><ele>149.5</ele><time>2026-05-01T16:12:38Z</time></trkpt><trkpt lat="42.15214654870856" lon="8.740129398428639"><ele>149.75</ele><time>2026-05-01T16:12:39Z</time></trkpt><trkpt lat="42.15211957519932" lon="8.740281428911166"><ele>150.0</ele><time>2026-05-01T16:12:40Z</time></trkpt><trkpt lat="42.15203140429721" lon="8.740386526186441"><ele>150.25</ele><time>2026-05-01T16:12:41Z</time></trkpt><trkpt lat="42.15190849158454" lon="8.7404269036154"><ele>150.5</ele><time>2026-05-01T16:12:42Z</time></trkpt><trkpt lat="42.151766349268485" lon="8.740427058747537"><ele>150.75</ele><time>2026-05-01T16:12:43Z</time></trkpt><trkpt lat="42.151620704681434" lon="8.740431156695434"><ele>151.0</ele><time>2026-05-01T16:12:44Z</time></trkpt><trkpt lat="42.151465961021614" lon="8.740414591850968"><ele>153.33333333333334</ele><time>2026-05-01T16:12:45Z</time></trkpt><trkpt lat="42.15131910006619" lon="8.740343980186843"><ele>155.66666666666666</ele><time>2026-05-01T16:12:46Z</time></trkpt><trkpt lat="42.15120268631436" lon="8.74019831763048"><ele>158.0</ele><time>2026-05-01T16:12:47Z</time></trkpt><trkpt lat="42.15109995277066" lon="8.740032660238862"><ele>158.0</ele><time>2026-05-01T16:12:48Z</time></trkpt><trkpt lat="42.150970977144596" lon="8.739903202130302"><ele>158.0</ele><time>2026-05-01T16:12:49Z</time></trkpt><trkpt lat="42.150819726026086" lon="8.739850148876322"><ele>158.0</ele><time>2026-05-01T16:12:50Z</time></trkpt><trkpt lat="42.15066145312333" lon="8.739868648516403"><ele>160.66666666666666</ele><time>2026-05-01T16:12:51Z</time></trkpt><trkpt lat="42.15050989546899" lon="8.739930488336539"><ele>163.33333333333334</ele><time>2026-05-01T16:12:52Z</time></trkpt><trkpt lat="42.15036768604121" lon="8.740026986078906"><ele>166.0</ele><time>2026-05-01T16:12:53Z</time></trkpt><trkpt lat="42.15022874536846" lon="8.740109364859936"><ele>166.0</ele><time>2026-05-01T16:12:54Z</time></trkpt><trkpt lat="42.15007728759661" lon="8.740152783010153"><ele>166.0</ele><time>2026-05-01T16:12:55Z</time></trkpt><trkpt lat="42.14993798854295" lon="8.740158843186544"><ele>166.0</ele><time>2026-05-01T16:12:56Z</time></trkpt><trkpt lat="42.14981767148001" lon="8.740201335646827"><ele>166.0</ele><time>2026-05-01T16:12:57Z</time></trkpt><trkpt lat="42.14974237576675" lon="8.740317420824505"><ele>169.66666666666669</ele><time>2026-05-01T16:12:58Z</time></trkpt><trkpt lat="42.149705173819505" lon="8.740499848077153"><ele>173.33333333333334</ele><time>2026-05-01T16:12:59Z</time></trkpt><trkpt lat="42.149713545793205" lon="8.740715595579076"><ele>177.0</ele><time>2026-05-01T16:13:00Z</time></trkpt><trkpt lat="42.14973638270477" lon="8.740959464544144"><ele>178.33333333333334</ele><time>2026-05-01T16:13:01Z</time></trkpt><trkpt lat="42.1497614581918" lon="8.741211559249958"><ele>179.66666666666669</ele><time>2026-05-01T16:13:02Z</time></trkpt><trkpt lat="42.14978276373455" lon="8.74148077816663"><ele>181.0</ele><time>2026-05-01T16:13:02.999Z</time></trkpt><trkpt lat="42.14979088178153" lon="8.741760757749264"><ele>183.66666666666669</ele><time>2026-05-01T16:13:03.999Z</time></trkpt><trkpt lat="42.14980328870591" lon="8.742055714622877"><ele>186.33333333333334</ele><time>2026-05-01T16:13:04.999Z</time></trkpt><trkpt lat="42.149825866472725" lon="8.742356438847125"><ele>189.0</ele><time>2026-05-01T16:13:05.999Z</time></trkpt><trkpt lat="42.14983607348021" lon="8.742645440280116"><ele>186.66666666666666</ele><time>2026-05-01T16:13:06.999Z</time></trkpt><trkpt lat="42.14985005732792" lon="8.742920041894918"><ele>184.33333333333331</ele><time>2026-05-01T16:13:07.999Z</time></trkpt><trkpt lat="42.14986634877574" lon="8.743171275022613"><ele>182.0</ele><time>2026-05-01T16:13:08.999Z</time></trkpt><trkpt lat="42.1499107846862" lon="8.743409818196199"><ele>185.0</ele><time>2026-05-01T16:13:09.999Z</time></trkpt><trkpt lat="42.15000310293771" lon="8.743630616983914"><ele>188.0</ele><time>2026-05-01T16:13:10.999Z</time></trkpt><trkpt lat="42.15013712713544" lon="8.743835375238977"><ele>191.0</ele><time>2026-05-01T16:13:11.999Z</time></trkpt><trkpt lat="42.15028122426166" lon="8.744036290655503"><ele>191.0</ele><time>2026-05-01T16:13:12.999Z</time></trkpt><trkpt lat="42.150402506699436" lon="8.744269487137977"><ele>191.0</ele><time>2026-05-01T16:13:13.999Z</time></trkpt><trkpt lat="42.15050399999584" lon="8.744532994308745"><ele>191.0</ele><time>2026-05-01T16:13:14.999Z</time></trkpt><trkpt lat="42.150578003477904" lon="8.744812308689589"><ele>193.0</ele><time>2026-05-01T16:13:15.999Z</time></trkpt><trkpt lat="42.150634681372935" lon="8.74510434171133"><ele>195.0</ele><time>2026-05-01T16:13:16.999Z</time></trkpt><trkpt lat="42.15068663998563" lon="8.745397540123117"><ele>197.0</ele><time>2026-05-01T16:13:17.999Z</time></trkpt><trkpt lat="42.15074085336618" lon="8.745700793117974"><ele>197.0</ele><time>2026-05-01T16:13:18.999Z</time></trkpt><trkpt lat="42.15079999901483" lon="8.746002540316706"><ele>197.0</ele><time>2026-05-01T16:13:19.999Z</time></trkpt><trkpt lat="42.15086609774739" lon="8.746305893172325"><ele>200.5</ele><time>2026-05-01T16:13:20.999Z</time></trkpt><trkpt lat="42.15093782904389" lon="8.746615669341292"><ele>204.0</ele><time>2026-05-01T16:13:21.999Z</time></trkpt><trkpt lat="42.15101436304322" lon="8.746911887092269"><ele>206.0</ele><time>2026-05-01T16:13:22.999Z</time></trkpt><trkpt lat="42.15109814421563" lon="8.74721075538322"><ele>208.0</ele><time>2026-05-01T16:13:23.999Z</time></trkpt><trkpt lat="42.151181819407654" lon="8.747489854404028"><ele>213.0</ele><time>2026-05-01T16:13:24.999Z</time></trkpt><trkpt lat="42.151281510752234" lon="8.747750023146061"><ele>218.0</ele><time>2026-05-01T16:13:25.999Z</time></trkpt><trkpt lat="42.15138885432321" lon="8.747980498672723"><ele>223.0</ele><time>2026-05-01T16:13:26.999Z</time></trkpt><trkpt lat="42.15149857283922" lon="8.748181836826031"><ele>225.66666666666666</ele><time>2026-05-01T16:13:27.999Z</time></trkpt><trkpt lat="42.15162544647304" lon="8.748360010292291"><ele>228.33333333333331</ele><time>2026-05-01T16:13:28.999Z</time></trkpt><trkpt lat="42.15177887845561" lon="8.74850242239842"><ele>231.0</ele><time>2026-05-01T16:13:29.999Z</time></trkpt><trkpt lat="42.15195112719801" lon="8.748623769743789"><ele>231.0</ele><time>2026-05-01T16:13:30.999Z</time></trkpt><trkpt lat="42.15209111601523" lon="8.74878128381607"><ele>231.0</ele><time>2026-05-01T16:13:31.999Z</time></trkpt><trkpt lat="42.152200999178085" lon="8.748994615495288"><ele>231.0</ele><time>2026-05-01T16:13:32.999Z</time></trkpt><trkpt lat="42.15229745067731" lon="8.749242251443684"><ele>226.33333333333331</ele><time>2026-05-01T16:13:33.999Z</time></trkpt><trkpt lat="42.152379945806885" lon="8.74951160265761"><ele>221.66666666666666</ele><time>2026-05-01T16:13:34.999Z</time></trkpt><trkpt lat="42.1524495610096" lon="8.749792803444253"><ele>217.0</ele><time>2026-05-01T16:13:35.999Z</time></trkpt><trkpt lat="42.15249829429125" lon="8.750067366055928"><ele>218.66666666666666</ele><time>2026-05-01T16:13:36.999Z</time></trkpt><trkpt lat="42.15250807295272" lon="8.75032654060767"><ele>220.33333333333331</ele><time>2026-05-01T16:13:37.999Z</time></trkpt><trkpt lat="42.15248138859747" lon="8.750591973368612"><ele>222.0</ele><time>2026-05-01T16:13:38.999Z</time></trkpt><trkpt lat="42.15245235922641" lon="8.750870867150827"><ele>221.66666666666669</ele><time>2026-05-01T16:13:39.999Z</time></trkpt><trkpt lat="42.15240747170657" lon="8.751140773601486"><ele>221.33333333333334</ele><time>2026-05-01T16:13:40.999Z</time></trkpt><trkpt lat="42.15234441341621" lon="8.751384965016745"><ele>221.0</ele><time>2026-05-01T16:13:41.999Z</time></trkpt><trkpt lat="42.15222430777993" lon="8.751606730616244"><ele>227.66666666666669</ele><time>2026-05-01T16:13:42.999Z</time></trkpt><trkpt lat="42.15208764336747" lon="8.751818148407143"><ele>234.33333333333331</ele><time>2026-05-01T16:13:43.999Z</time></trkpt><trkpt lat="42.151944376793736" lon="8.752000753143749"><ele>241.0</ele><time>2026-05-01T16:13:44.999Z</time></trkpt><trkpt lat="42.1518287316646" lon="8.7521781025228"><ele>241.0</ele><time>2026-05-01T16:13:45.999Z</time></trkpt><trkpt lat="42.151769552434075" lon="8.752363875637453"><ele>241.0</ele><time>2026-05-01T16:13:46.999Z</time></trkpt><trkpt lat="42.151747892949516" lon="8.75255634079098"><ele>241.0</ele><time>2026-05-01T16:13:47.999Z</time></trkpt><trkpt lat="42.15177977550856" lon="8.752739313598495"><ele>241.0</ele><time>2026-05-01T16:13:48.999Z</time></trkpt><trkpt lat="42.15185793057771" lon="8.752916750756857"><ele>241.66666666666666</ele><time>2026-05-01T16:13:49.999Z</time></trkpt><trkpt lat="42.151983390850184" lon="8.753059274553191"><ele>242.33333333333331</ele><time>2026-05-01T16:13:50.999Z</time></trkpt><trkpt lat="42.152094465797674" lon="8.753208893864187"><ele>243.0</ele><time>2026-05-01T16:13:51.999Z</time></trkpt><trkpt lat="42.152167720446556" lon="8.753385536643293"><ele>242.75</ele><time>2026-05-01T16:13:52.999Z</time></trkpt><trkpt lat="42.1521801203276" lon="8.753553805288941"><ele>242.5</ele><time>2026-05-01T16:13:53.999Z</time></trkpt><trkpt lat="42.15212169197661" lon="8.753712860953867"><ele>242.25</ele><time>2026-05-01T16:13:54.999Z</time></trkpt><trkpt lat="42.15201450282664" lon="8.753845529554223"><ele>242.0</ele><time>2026-05-01T16:13:55.999Z</time></trkpt><trkpt lat="42.1518580206132" lon="8.753927456791617"><ele>242.0</ele><time>2026-05-01T16:13:56.998Z</time></trkpt><trkpt lat="42.15167588827626" lon="8.753976692848687"><ele>242.0</ele><time>2026-05-01T16:13:57.998Z</time></trkpt><trkpt lat="42.15149403228695" lon="8.754029353740327"><ele>242.0</ele><time>2026-05-01T16:13:58.998Z</time></trkpt><trkpt lat="42.151354041713496" lon="8.75415506225723"><ele>246.33333333333334</ele><time>2026-05-01T16:13:59.998Z</time></trkpt><trkpt lat="42.15126198920214" lon="8.75433230913611"><ele>250.66666666666669</ele><time>2026-05-01T16:14:00.998Z</time></trkpt><trkpt lat="42.151212474253384" lon="8.754542475007428"><ele>255.0</ele><time>2026-05-01T16:14:01.998Z</time></trkpt><trkpt lat="42.151225928259755" lon="8.754737485896964"><ele>255.0</ele><time>2026-05-01T16:14:02.998Z</time></trkpt><trkpt lat="42.15128907462052" lon="8.754920726439984"><ele>255.0</ele><time>2026-05-01T16:14:03.998Z</time></trkpt><trkpt lat="42.15139527688351" lon="8.755044247686527"><ele>255.0</ele><time>2026-05-01T16:14:04.998Z</time></trkpt><trkpt lat="42.151521065486136" lon="8.755125020260099"><ele>255.0</ele><time>2026-05-01T16:14:05.998Z</time></trkpt><trkpt lat="42.15165172768593" lon="8.755196927895248"><ele>255.66666666666669</ele><time>2026-05-01T16:14:06.998Z</time></trkpt><trkpt lat="42.15176989358271" lon="8.755315635704518"><ele>256.33333333333337</ele><time>2026-05-01T16:14:07.998Z</time></trkpt><trkpt lat="42.151868913674846" lon="8.75547351344109"><ele>257.0</ele><time>2026-05-01T16:14:08.998Z</time></trkpt><trkpt lat="42.15193121191251" lon="8.755667356077259"><ele>257.0</ele><time>2026-05-01T16:14:09.998Z</time></trkpt><trkpt lat="42.151950858358624" lon="8.755889261803818"><ele>257.0</ele><time>2026-05-01T16:14:10.998Z</time></trkpt><trkpt lat="42.1519616489957" lon="8.75612816484115"><ele>257.0</ele><time>2026-05-01T16:14:11.998Z</time></trkpt><trkpt lat="42.151962115765684" lon="8.756378623468876"><ele>260.33333333333337</ele><time>2026-05-01T16:14:12.998Z</time></trkpt><trkpt lat="42.151962640647724" lon="8.756618678358441"><ele>263.6666666666667</ele><time>2026-05-01T16:14:13.998Z</time></trkpt><trkpt lat="42.1519647363407" lon="8.75682747892222"><ele>267.0</ele><time>2026-05-01T16:14:14.998Z</time></trkpt><trkpt lat="42.15200273447376" lon="8.757018863174931"><ele>268.75</ele><time>2026-05-01T16:14:15.998Z</time></trkpt><trkpt lat="42.15207682232888" lon="8.757131058661859"><ele>270.5</ele><time>2026-05-01T16:14:16.998Z</time></trkpt><trkpt lat="42.15218299724933" lon="8.757179017492478"><ele>272.25</ele><time>2026-05-01T16:14:17.998Z</time></trkpt><trkpt lat="42.15229491938327" lon="8.757134291856415"><ele>274.0</ele><time>2026-05-01T16:14:18.998Z</time></trkpt><trkpt lat="42.15238211267924" lon="8.757017041299191"><ele>273.0</ele><time>2026-05-01T16:14:19.998Z</time></trkpt><trkpt lat="42.152430145126985" lon="8.7568434306377"><ele>272.0</ele><time>2026-05-01T16:14:20.998Z</time></trkpt><trkpt lat="42.152458685587135" lon="8.756632248835615"><ele>271.0</ele><time>2026-05-01T16:14:21.998Z</time></trkpt><trkpt lat="42.152488301131726" lon="8.756408515268898"><ele>271.0</ele><time>2026-05-01T16:14:22.998Z</time></trkpt><trkpt lat="42.15252258706889" lon="8.756184068757323"><ele>271.0</ele><time>2026-05-01T16:14:23.998Z</time></trkpt><trkpt lat="42.15256349198867" lon="8.755967548312569"><ele>271.0</ele><time>2026-05-01T16:14:24.998Z</time></trkpt><trkpt lat="42.1526304668916" lon="8.755786785581936"><ele>269.0</ele><time>2026-05-01T16:14:25.998Z</time></trkpt><trkpt lat="42.15274368922287" lon="8.75564721570865"><ele>267.0</ele><time>2026-05-01T16:14:26.998Z</time></trkpt><trkpt lat="42.15289306012824" lon="8.75554162729619"><ele>265.0</ele><time>2026-05-01T16:14:27.998Z</time></trkpt><trkpt lat="42.1530641832853" lon="8.755470144662288"><ele>270.3333333333333</ele><time>2026-05-01T16:14:28.998Z</time></trkpt><trkpt lat="42.153254390913865" lon="8.755407655375686"><ele>275.6666666666667</ele><time>2026-05-01T16:14:29.998Z</time></trkpt><trkpt lat="42.15343901930268" lon="8.75534086561769"><ele>281.0</ele><time>2026-05-01T16:14:31Z</time></trkpt><trkpt lat="42.15360757196912" lon="8.75523250466674"><ele>275.33333333333337</ele><time>2026-05-01T16:14:32Z</time></trkpt><trkpt lat="42.15374741023691" lon="8.75506962364436"><ele>269.6666666666667</ele><time>2026-05-01T16:14:33Z</time></trkpt><trkpt lat="42.15388357700189" lon="8.754913560732357"><ele>264.0</ele><time>2026-05-01T16:14:34Z</time></trkpt><trkpt lat="42.15401909164892" lon="8.754811899111447"><ele>267.5</ele><time>2026-05-01T16:14:35Z</time></trkpt><trkpt lat="42.1541596850212" lon="8.754756866549089"><ele>271.0</ele><time>2026-05-01T16:14:36Z</time></trkpt><trkpt lat="42.1542894876058" lon="8.754779485501063"><ele>274.5</ele><time>2026-05-01T16:14:37Z</time></trkpt><trkpt lat="42.154374938425974" lon="8.754880236318108"><ele>278.0</ele><time>2026-05-01T16:14:38Z</time></trkpt><trkpt lat="42.15442654485512" lon="8.755020845438821"><ele>283.0</ele><time>2026-05-01T16:14:39Z</time></trkpt><trkpt lat="42.154480824017796" lon="8.755207500009433"><ele>288.0</ele><time>2026-05-01T16:14:40Z</time></trkpt><trkpt lat="42.15456156227656" lon="8.755418929753887"><ele>293.0</ele><time>2026-05-01T16:14:41Z</time></trkpt><trkpt lat="42.15464798968723" lon="8.755650862976822"><ele>293.0</ele><time>2026-05-01T16:14:42Z</time></trkpt><trkpt lat="42.15473822165627" lon="8.755891344104482"><ele>293.0</ele><time>2026-05-01T16:14:43Z</time></trkpt><trkpt lat="42.15482488914571" lon="8.756136911278235"><ele>293.0</ele><time>2026-05-01T16:14:44Z</time></trkpt><trkpt lat="42.15490112410397" lon="8.756394943664349"><ele>293.0</ele><time>2026-05-01T16:14:45Z</time></trkpt><trkpt lat="42.154963861641434" lon="8.756624911321051"><ele>293.0</ele><time>2026-05-01T16:14:46Z</time></trkpt><trkpt lat="42.15502701225018" lon="8.756804597165893"><ele>293.0</ele><time>2026-05-01T16:14:47Z</time></trkpt><trkpt lat="42.15511327472503" lon="8.756932865283304"><ele>293.0</ele><time>2026-05-01T16:14:48Z</time></trkpt><trkpt lat="42.155231099828505" lon="8.756977738493367"><ele>293.0</ele><time>2026-05-01T16:14:49Z</time></trkpt><trkpt lat="42.15536786028829" lon="8.756930754144765"><ele>293.0</ele><time>2026-05-01T16:14:50Z</time></trkpt><trkpt lat="42.15551320249181" lon="8.756795873198138"><ele>293.0</ele><time>2026-05-01T16:14:51Z</time></trkpt><trkpt lat="42.155662955478604" lon="8.756612619152289"><ele>294.6666666666667</ele><time>2026-05-01T16:14:52Z</time></trkpt><trkpt lat="42.15582175245669" lon="8.756468132649697"><ele>296.3333333333333</ele><time>2026-05-01T16:14:53Z</time></trkpt><trkpt lat="42.156000533291376" lon="8.756402715958716"><ele>298.0</ele><time>2026-05-01T16:14:54Z</time></trkpt><trkpt lat="42.15617464717079" lon="8.7563439853846"><ele>298.0</ele><time>2026-05-01T16:14:55Z</time></trkpt><trkpt lat="42.15631691882656" lon="8.756258117636914"><ele>298.0</ele><time>2026-05-01T16:14:56Z</time></trkpt><trkpt lat="42.15646597982316" lon="8.756200933236082"><ele>298.0</ele><time>2026-05-01T16:14:57Z</time></trkpt><trkpt lat="42.156626389764405" lon="8.75620147875171"><ele>301.0</ele><time>2026-05-01T16:14:58Z</time></trkpt><trkpt lat="42.15679801224505" lon="8.756271526248723"><ele>304.0</ele><time>2026-05-01T16:14:59Z</time></trkpt><trkpt lat="42.15697949920494" lon="8.756354696818939"><ele>307.0</ele><time>2026-05-01T16:15:00Z</time></trkpt><trkpt lat="42.157151944131265" lon="8.756446866338475"><ele>307.0</ele><time>2026-05-01T16:15:01Z</time></trkpt><trkpt lat="42.157305502168555" lon="8.756557945234528"><ele>307.0</ele><time>2026-05-01T16:15:02Z</time></trkpt><trkpt lat="42.157412085127625" lon="8.756711995122762"><ele>307.0</ele><time>2026-05-01T16:15:03Z</time></trkpt><trkpt lat="42.157478254638576" lon="8.756917092796495"><ele>311.0</ele><time>2026-05-01T16:15:04Z</time></trkpt><trkpt lat="42.157532475869786" lon="8.757143873569126"><ele>315.0</ele><time>2026-05-01T16:15:05Z</time></trkpt><trkpt lat="42.15759332045139" lon="8.757364962205202"><ele>319.0</ele><time>2026-05-01T16:15:06Z</time></trkpt><trkpt lat="42.15768298876959" lon="8.757536111464052"><ele>319.0</ele><time>2026-05-01T16:15:06.999Z</time></trkpt><trkpt lat="42.15778999085711" lon="8.757657727869951"><ele>319.0</ele><time>2026-05-01T16:15:07.999Z</time></trkpt><trkpt lat="42.15789916382171" lon="8.757711052963188"><ele>319.0</ele><time>2026-05-01T16:15:08.999Z</time></trkpt><trkpt lat="42.15799909518641" lon="8.757675963880006"><ele>319.0</ele><time>2026-05-01T16:15:09.999Z</time></trkpt><trkpt lat="42.15808587586231" lon="8.757557140036985"><ele>319.0</ele><time>2026-05-01T16:15:10.999Z</time></trkpt><trkpt lat="42.158147497824054" lon="8.75738727500404"><ele>319.0</ele><time>2026-05-01T16:15:11.999Z</time></trkpt><trkpt lat="42.15815634399012" lon="8.75720089227335"><ele>319.0</ele><time>2026-05-01T16:15:12.999Z</time></trkpt><trkpt lat="42.15815877725812" lon="8.757022866072381"><ele>319.0</ele><time>2026-05-01T16:15:13.999Z</time></trkpt><trkpt lat="42.158167512692025" lon="8.756846880195255"><ele>317.75</ele><time>2026-05-01T16:15:14.999Z</time></trkpt><trkpt lat="42.1581825379208" lon="8.756666631154546"><ele>316.5</ele><time>2026-05-01T16:15:15.999Z</time></trkpt><trkpt lat="42.15821731058869" lon="8.756493715524675"><ele>315.25</ele><time>2026-05-01T16:15:16.999Z</time></trkpt><trkpt lat="42.15828677573709" lon="8.756349038987985"><ele>314.0</ele><time>2026-05-01T16:15:17.999Z</time></trkpt><trkpt lat="42.15839418007217" lon="8.756262383621356"><ele>314.0</ele><time>2026-05-01T16:15:18.999Z</time></trkpt><trkpt lat="42.158504639702734" lon="8.756258287441103"><ele>314.0</ele><time>2026-05-01T16:15:19.999Z</time></trkpt><trkpt lat="42.15859084989641" lon="8.756345456531955"><ele>314.0</ele><time>2026-05-01T16:15:20.999Z</time></trkpt><trkpt lat="42.158661308497386" lon="8.756501421806057"><ele>314.0</ele><time>2026-05-01T16:15:21.999Z</time></trkpt><trkpt lat="42.158726467872306" lon="8.756683033438179"><ele>315.6666666666667</ele><time>2026-05-01T16:15:22.999Z</time></trkpt><trkpt lat="42.158821804377126" lon="8.756876673153144"><ele>317.3333333333333</ele><time>2026-05-01T16:15:23.999Z</time></trkpt><trkpt lat="42.158950036274334" lon="8.75706314469353"><ele>319.0</ele><time>2026-05-01T16:15:24.999Z</time></trkpt><trkpt lat="42.15910425042908" lon="8.75725512232809"><ele>321.66666666666663</ele><time>2026-05-01T16:15:25.999Z</time></trkpt><trkpt lat="42.159268419705214" lon="8.757440310535683"><ele>324.3333333333333</ele><time>2026-05-01T16:15:26.999Z</time></trkpt><trkpt lat="42.15943791420669" lon="8.757611085174085"><ele>327.0</ele><time>2026-05-01T16:15:27.999Z</time></trkpt><trkpt lat="42.159612593149795" lon="8.757757252241076"><ele>331.0</ele><time>2026-05-01T16:15:28.999Z</time></trkpt><trkpt lat="42.15979133060282" lon="8.757842791300341"><ele>335.0</ele><time>2026-05-01T16:15:29.999Z</time></trkpt><trkpt lat="42.15996062240739" lon="8.757891382765404"><ele>339.0</ele><time>2026-05-01T16:15:30.999Z</time></trkpt><trkpt lat="42.16010503068153" lon="8.75795512321245"><ele>339.0</ele><time>2026-05-01T16:15:31.999Z</time></trkpt><trkpt lat="42.16022248524126" lon="8.758069948122705"><ele>339.0</ele><time>2026-05-01T16:15:32.999Z</time></trkpt><trkpt lat="42.16032941567621" lon="8.758244174405105"><ele>339.0</ele><time>2026-05-01T16:15:33.999Z</time></trkpt><trkpt lat="42.16042630241999" lon="8.7584489972258"><ele>347.6666666666667</ele><time>2026-05-01T16:15:34.999Z</time></trkpt><trkpt lat="42.16051259222388" lon="8.758683651127603"><ele>356.33333333333337</ele><time>2026-05-01T16:15:35.999Z</time></trkpt><trkpt lat="42.16056286287143" lon="8.758946557178454"><ele>365.0</ele><time>2026-05-01T16:15:36.999Z</time></trkpt><trkpt lat="42.16060992093298" lon="8.759211442956975"><ele>360.33333333333337</ele><time>2026-05-01T16:15:37.999Z</time></trkpt><trkpt lat="42.16068954659386" lon="8.759466381633999"><ele>355.6666666666667</ele><time>2026-05-01T16:15:38.999Z</time></trkpt><trkpt lat="42.16081922821589" lon="8.75969723124928"><ele>351.0</ele><time>2026-05-01T16:15:39.999Z</time></trkpt><trkpt lat="42.160963509257364" lon="8.759917576035287"><ele>351.0</ele><time>2026-05-01T16:15:40.999Z</time></trkpt><trkpt lat="42.16109902356067" lon="8.760134761806954"><ele>351.0</ele><time>2026-05-01T16:15:41.999Z</time></trkpt><trkpt lat="42.161225248694535" lon="8.760349275307181"><ele>351.0</ele><time>2026-05-01T16:15:42.999Z</time></trkpt><trkpt lat="42.16133656662516" lon="8.76053862144205"><ele>350.5</ele><time>2026-05-01T16:15:43.999Z</time></trkpt><trkpt lat="42.16143157082886" lon="8.76070042951147"><ele>350.0</ele><time>2026-05-01T16:15:44.999Z</time></trkpt><trkpt lat="42.16151661339238" lon="8.760851265482053"><ele>349.5</ele><time>2026-05-01T16:15:45.999Z</time></trkpt><trkpt lat="42.16157044347478" lon="8.761010834765877"><ele>349.0</ele><time>2026-05-01T16:15:46.999Z</time></trkpt><trkpt lat="42.16158635909131" lon="8.761194837877861"><ele>349.0</ele><time>2026-05-01T16:15:47.999Z</time></trkpt><trkpt lat="42.16156238574514" lon="8.761399231960644"><ele>349.0</ele><time>2026-05-01T16:15:48.999Z</time></trkpt><trkpt lat="42.16155196966961" lon="8.761626473948729"><ele>349.0</ele><time>2026-05-01T16:15:49.999Z</time></trkpt><trkpt lat="42.161589502560695" lon="8.761868069094751"><ele>352.0</ele><time>2026-05-01T16:15:50.999Z</time></trkpt><trkpt lat="42.16165830743531" lon="8.762122289733798"><ele>355.0</ele><time>2026-05-01T16:15:51.999Z</time></trkpt><trkpt lat="42.16172894614598" lon="8.762381221722816"><ele>358.0</ele><time>2026-05-01T16:15:52.999Z</time></trkpt><trkpt lat="42.16179114969578" lon="8.762648792009335"><ele>362.66666666666663</ele><time>2026-05-01T16:15:53.999Z</time></trkpt><trkpt lat="42.161844775596116" lon="8.76292051177911"><ele>367.3333333333333</ele><time>2026-05-01T16:15:54.999Z</time></trkpt><trkpt lat="42.161882883043916" lon="8.76319905578929"><ele>372.0</ele><time>2026-05-01T16:15:55.999Z</time></trkpt><trkpt lat="42.16190070503048" lon="8.763484197889865"><ele>373.6666666666667</ele><time>2026-05-01T16:15:56.999Z</time></trkpt><trkpt lat="42.16190028188161" lon="8.76377790106028"><ele>375.33333333333337</ele><time>2026-05-01T16:15:57.999Z</time></trkpt><trkpt lat="42.16189323805818" lon="8.76404354980701"><ele>377.0</ele><time>2026-05-01T16:15:58.999Z</time></trkpt><trkpt lat="42.16188792346256" lon="8.764283579825383"><ele>371.0</ele><time>2026-05-01T16:15:59.999Z</time></trkpt><trkpt lat="42.16188315403195" lon="8.764503464317503"><ele>365.0</ele><time>2026-05-01T16:16:00.999Z</time></trkpt><trkpt lat="42.16186054068641" lon="8.764704680270171"><ele>359.0</ele><time>2026-05-01T16:16:01.999Z</time></trkpt><trkpt lat="42.16180015335421" lon="8.7648692441438"><ele>359.0</ele><time>2026-05-01T16:16:02.998Z</time></trkpt><trkpt lat="42.16169665011609" lon="8.765002377982041"><ele>359.0</ele><time>2026-05-01T16:16:03.998Z</time></trkpt><trkpt lat="42.16155709453216" lon="8.76510756526507"><ele>359.0</ele><time>2026-05-01T16:16:04.998Z</time></trkpt><trkpt lat="42.161440166133076" lon="8.765235408873195"><ele>368.33333333333337</ele><time>2026-05-01T16:16:05.998Z</time></trkpt><trkpt lat="42.161374611943494" lon="8.765437444471846"><ele>377.6666666666667</ele><time>2026-05-01T16:16:06.998Z</time></trkpt><trkpt lat="42.16134217369587" lon="8.765686213119642"><ele>387.0</ele><time>2026-05-01T16:16:07.998Z</time></trkpt><trkpt lat="42.161285250408106" lon="8.765915599803373"><ele>385.3333333333333</ele><time>2026-05-01T16:16:08.998Z</time></trkpt><trkpt lat="42.16119369787096" lon="8.766085723637728"><ele>383.66666666666663</ele><time>2026-05-01T16:16:09.998Z</time></trkpt><trkpt lat="42.161070795915414" lon="8.76623622849096"><ele>382.0</ele><time>2026-05-01T16:16:10.998Z</time></trkpt><trkpt lat="42.16096063356115" lon="8.766413115155668"><ele>382.0</ele><time>2026-05-01T16:16:11.998Z</time></trkpt><trkpt lat="42.160884257691414" lon="8.766638556798378"><ele>382.0</ele><time>2026-05-01T16:16:12.998Z</time></trkpt><trkpt lat="42.16084932850268" lon="8.766906028424037"><ele>382.0</ele><time>2026-05-01T16:16:13.998Z</time></trkpt><trkpt lat="42.16083145639075" lon="8.767190615381262"><ele>380.3333333333333</ele><time>2026-05-01T16:16:14.998Z</time></trkpt><trkpt lat="42.1608112242204" lon="8.76747613098218"><ele>378.6666666666667</ele><time>2026-05-01T16:16:15.998Z</time></trkpt><trkpt lat="42.1607771347944" lon="8.767767212109517"><ele>377.0</ele><time>2026-05-01T16:16:16.998Z</time></trkpt><trkpt lat="42.16073219334967" lon="8.768051506488728"><ele>387.33333333333337</ele><time>2026-05-01T16:16:17.998Z</time></trkpt><trkpt lat="42.16066803789351" lon="8.768335723890436"><ele>397.6666666666667</ele><time>2026-05-01T16:16:18.998Z</time></trkpt><trkpt lat="42.16058194014677" lon="8.76861708779666"><ele>408.0</ele><time>2026-05-01T16:16:19.998Z</time></trkpt><trkpt lat="42.1604836450414" lon="8.768894491337182"><ele>408.0</ele><time>2026-05-01T16:16:20.998Z</time></trkpt><trkpt lat="42.16038766439106" lon="8.769171973461882"><ele>408.0</ele><time>2026-05-01T16:16:21.998Z</time></trkpt><trkpt lat="42.160309687559625" lon="8.769427187997035"><ele>408.0</ele><time>2026-05-01T16:16:22.998Z</time></trkpt><trkpt lat="42.16023502210191" lon="8.769659006226924"><ele>405.33333333333337</ele><time>2026-05-01T16:16:23.998Z</time></trkpt><trkpt lat="42.160182583665055" lon="8.769885512579062"><ele>402.6666666666667</ele><time>2026-05-01T16:16:24.998Z</time></trkpt><trkpt lat="42.16017187494606" lon="8.77013598161654"><ele>400.0</ele><time>2026-05-01T16:16:25.998Z</time></trkpt><trkpt lat="42.16019792576134" lon="8.770384654053988"><ele>397.75</ele><time>2026-05-01T16:16:26.998Z</time></trkpt><trkpt lat="42.1602103784474" lon="8.770599604344653"><ele>395.5</ele><time>2026-05-01T16:16:27.998Z</time></trkpt><trkpt lat="42.16017643749861" lon="8.770785736594254"><ele>393.25</ele><time>2026-05-01T16:16:28.998Z</time></trkpt><trkpt lat="42.160089284538024" lon="8.770943917343345"><ele>391.0</ele><time>2026-05-01T16:16:29.998Z</time></trkpt><trkpt lat="42.15995601707183" lon="8.771071297966678"><ele>393.25</ele><time>2026-05-01T16:16:30.998Z</time></trkpt><trkpt lat="42.15980464482041" lon="8.771126191615569"><ele>395.5</ele><time>2026-05-01T16:16:31.998Z</time></trkpt><trkpt lat="42.15965824723203" lon="8.771098237923182"><ele>397.75</ele><time>2026-05-01T16:16:32.998Z</time></trkpt><trkpt lat="42.159547762172366" lon="8.771000699935783"><ele>400.0</ele><time>2026-05-01T16:16:33.998Z</time></trkpt><trkpt lat="42.15939641679321" lon="8.770916850684168"><ele>400.0</ele><time>2026-05-01T16:16:34.998Z</time></trkpt><trkpt lat="42.15928147835178" lon="8.770928391743272"><ele>400.0</ele><time>2026-05-01T16:16:35.998Z</time></trkpt><trkpt lat="42.15918550281416" lon="8.771041430383466"><ele>400.0</ele><time>2026-05-01T16:16:37Z</time></trkpt><trkpt lat="42.15912398412675" lon="8.771232172412855"><ele>400.0</ele><time>2026-05-01T16:16:38Z</time></trkpt><trkpt lat="42.159095204487194" lon="8.771462836754853"><ele>400.0</ele><time>2026-05-01T16:16:39Z</time></trkpt><trkpt lat="42.15908140377218" lon="8.7717052218393"><ele>400.0</ele><time>2026-05-01T16:16:40Z</time></trkpt><trkpt lat="42.159044811991755" lon="8.771964114824486"><ele>400.0</ele><time>2026-05-01T16:16:41Z</time></trkpt><trkpt lat="42.15899939225446" lon="8.772227862937232"><ele>401.6666666666667</ele><time>2026-05-01T16:16:42Z</time></trkpt><trkpt lat="42.15898581429857" lon="8.772490698464415"><ele>403.33333333333337</ele><time>2026-05-01T16:16:43Z</time></trkpt><trkpt lat="42.15901414492654" lon="8.772762160703675"><ele>405.0</ele><time>2026-05-01T16:16:44Z</time></trkpt><trkpt lat="42.15905852476562" lon="8.773023220810508"><ele>405.0</ele><time>2026-05-01T16:16:45Z</time></trkpt><trkpt lat="42.1590724471387" lon="8.773271575871286"><ele>405.0</ele><time>2026-05-01T16:16:46Z</time></trkpt><trkpt lat="42.15904110165003" lon="8.77348830219777"><ele>405.0</ele><time>2026-05-01T16:16:47Z</time></trkpt><trkpt lat="42.15897082370872" lon="8.773700828202612"><ele>416.66666666666663</ele><time>2026-05-01T16:16:48Z</time></trkpt><trkpt lat="42.158850850934144" lon="8.773914249209595"><ele>428.3333333333333</ele><time>2026-05-01T16:16:49Z</time></trkpt><trkpt lat="42.15876095629036" lon="8.774132319151173"><ele>440.0</ele><time>2026-05-01T16:16:50Z</time></trkpt><trkpt lat="42.158722777252834" lon="8.77437088687762"><ele>440.0</ele><time>2026-05-01T16:16:51Z</time></trkpt><trkpt lat="42.15873367029059" lon="8.774621494432953"><ele>440.0</ele><time>2026-05-01T16:16:52Z</time></trkpt><trkpt lat="42.158768476016185" lon="8.774869594639858"><ele>440.0</ele><time>2026-05-01T16:16:53Z</time></trkpt><trkpt lat="42.15877629283965" lon="8.775115876609929"><ele>440.66666666666663</ele><time>2026-05-01T16:16:54Z</time></trkpt><trkpt lat="42.158732413266456" lon="8.77535888701201"><ele>441.33333333333337</ele><time>2026-05-01T16:16:55Z</time></trkpt><trkpt lat="42.15866510061156" lon="8.775582139836464"><ele>442.0</ele><time>2026-05-01T16:16:56Z</time></trkpt><trkpt lat="42.158611953364534" lon="8.775796973679878"><ele>442.0</ele><time>2026-05-01T16:16:57Z</time></trkpt><trkpt lat="42.15859665270421" lon="8.775984981447184"><ele>442.0</ele><time>2026-05-01T16:16:58Z</time></trkpt><trkpt lat="42.15863989376461" lon="8.776139508136493"><ele>442.0</ele><time>2026-05-01T16:16:59Z</time></trkpt><trkpt lat="42.15874162683333" lon="8.776245963571546"><ele>442.0</ele><time>2026-05-01T16:17:00Z</time></trkpt><trkpt lat="42.15888616597748" lon="8.77628566589566"><ele>436.33333333333337</ele><time>2026-05-01T16:17:01Z</time></trkpt><trkpt lat="42.15904880121605" lon="8.776294593945092"><ele>430.66666666666663</ele><time>2026-05-01T16:17:02Z</time></trkpt><trkpt lat="42.15919310057164" lon="8.77633398923432"><ele>425.0</ele><time>2026-05-01T16:17:03Z</time></trkpt><trkpt lat="42.15930895817445" lon="8.776451105221984"><ele>425.0</ele><time>2026-05-01T16:17:04Z</time></trkpt><trkpt lat="42.159390114829804" lon="8.776621733232211"><ele>425.0</ele><time>2026-05-01T16:17:05Z</time></trkpt><trkpt lat="42.159435026373835" lon="8.776809194170696"><ele>425.0</ele><time>2026-05-01T16:17:06Z</time></trkpt><trkpt lat="42.15941845794745" lon="8.776994442016843"><ele>425.0</ele><time>2026-05-01T16:17:07Z</time></trkpt><trkpt lat="42.15936401106033" lon="8.777191685625358"><ele>428.0</ele><time>2026-05-01T16:17:08Z</time></trkpt><trkpt lat="42.15928210827177" lon="8.777407564083656"><ele>431.0</ele><time>2026-05-01T16:17:09Z</time></trkpt><trkpt lat="42.159201124775876" lon="8.777625989721635"><ele>434.0</ele><time>2026-05-01T16:17:10Z</time></trkpt><trkpt lat="42.15912363089801" lon="8.777842779112405"><ele>435.3333333333333</ele><time>2026-05-01T16:17:11Z</time></trkpt><trkpt lat="42.15905741782082" lon="8.778061938077501"><ele>436.66666666666663</ele><time>2026-05-01T16:17:12Z</time></trkpt><trkpt lat="42.15900643571201" lon="8.778258573489191"><ele>438.0</ele><time>2026-05-01T16:17:13Z</time></trkpt><trkpt lat="42.159000334969676" lon="8.778428955466849"><ele>441.0</ele><time>2026-05-01T16:17:14Z</time></trkpt><trkpt lat="42.15906200062414" lon="8.77856744379118"><ele>444.0</ele><time>2026-05-01T16:17:15Z</time></trkpt><trkpt lat="42.15917909200436" lon="8.778655565077496"><ele>447.0</ele><time>2026-05-01T16:17:16Z</time></trkpt><trkpt lat="42.15932838844486" lon="8.77865237731857"><ele>450.0</ele><time>2026-05-01T16:17:17Z</time></trkpt><trkpt lat="42.15949586407699" lon="8.778593021617125"><ele>450.0</ele><time>2026-05-01T16:17:18Z</time></trkpt><trkpt lat="42.15965548231847" lon="8.778554468001497"><ele>450.0</ele><time>2026-05-01T16:17:18.999Z</time></trkpt><trkpt lat="42.15981630576425" lon="8.778594847244959"><ele>450.0</ele><time>2026-05-01T16:17:19.999Z</time></trkpt><trkpt lat="42.15995794498375" lon="8.778718412157216"><ele>447.66666666666663</ele><time>2026-05-01T16:17:20.999Z</time></trkpt><trkpt lat="42.16005494667105" lon="8.778870755251132"><ele>445.3333333333333</ele><time>2026-05-01T16:17:21.999Z</time></trkpt><trkpt lat="42.160120525624606" lon="8.779042740670551"><ele>443.0</ele><time>2026-05-01T16:17:22.999Z</time></trkpt><trkpt lat="42.16016680795254" lon="8.779247353593057"><ele>448.3333333333333</ele><time>2026-05-01T16:17:23.999Z</time></trkpt><trkpt lat="42.16019599804935" lon="8.77948148775898"><ele>453.66666666666663</ele><time>2026-05-01T16:17:24.999Z</time></trkpt><trkpt lat="42.160235393259484" lon="8.7797254641404"><ele>459.0</ele><time>2026-05-01T16:17:25.999Z</time></trkpt><trkpt lat="42.1602870269851" lon="8.779975926365784"><ele>461.33333333333337</ele><time>2026-05-01T16:17:26.999Z</time></trkpt><trkpt lat="42.1603368335077" lon="8.780225106904188"><ele>463.6666666666667</ele><time>2026-05-01T16:17:27.999Z</time></trkpt><trkpt lat="42.16037655369569" lon="8.780474473859398"><ele>466.0</ele><time>2026-05-01T16:17:28.999Z</time></trkpt><trkpt lat="42.16039833644556" lon="8.78072651924917"><ele>466.0</ele><time>2026-05-01T16:17:29.999Z</time></trkpt><trkpt lat="42.160388500364455" lon="8.78096534825986"><ele>466.0</ele><time>2026-05-01T16:17:30.999Z</time></trkpt><trkpt lat="42.16033546934263" lon="8.781181005715398"><ele>466.0</ele><time>2026-05-01T16:17:31.999Z</time></trkpt><trkpt lat="42.160273359562865" lon="8.781396927149617"><ele>466.75</ele><time>2026-05-01T16:17:32.999Z</time></trkpt><trkpt lat="42.160246840053034" lon="8.78160664833491"><ele>467.5</ele><time>2026-05-01T16:17:33.999Z</time></trkpt><trkpt lat="42.16025043690541" lon="8.781806057397239"><ele>468.25</ele><time>2026-05-01T16:17:34.999Z</time></trkpt><trkpt lat="42.16026602873046" lon="8.781955556238994"><ele>469.0</ele><time>2026-05-01T16:17:35.999Z</time></trkpt><trkpt lat="42.16028453813546" lon="8.782069979790665"><ele>469.1666666666667</ele><time>2026-05-01T16:17:36.999Z</time></trkpt><trkpt lat="42.16029776106943" lon="8.78216877759887"><ele>469.33333333333337</ele><time>2026-05-01T16:17:37.999Z</time></trkpt><trkpt lat="42.16032291943477" lon="8.782269910072133"><ele>469.5</ele><time>2026-05-01T16:17:39.999Z</time></trkpt><trkpt lat="42.16037559945258" lon="8.782373784258322"><ele>469.66666666666663</ele><time>2026-05-01T16:17:43.999Z</time></trkpt><trkpt lat="42.16041508681101" lon="8.782453002103574"><ele>469.8333333333333</ele><time>2026-05-01T16:17:44.999Z</time></trkpt><trkpt lat="42.160467884321164" lon="8.782553276871148"><ele>470.0</ele><time>2026-05-01T16:17:45.999Z</time></trkpt><trkpt lat="42.16052927626371" lon="8.78266227811153"><ele>468.25</ele><time>2026-05-01T16:17:46.999Z</time></trkpt><trkpt lat="42.16060934326745" lon="8.782784044816987"><ele>466.5</ele><time>2026-05-01T16:17:47.999Z</time></trkpt><trkpt lat="42.16068389747486" lon="8.782909094473201"><ele>464.75</ele><time>2026-05-01T16:17:48.999Z</time></trkpt><trkpt lat="42.16075541397263" lon="8.78304357554634"><ele>463.0</ele><time>2026-05-01T16:17:49.999Z</time></trkpt><trkpt lat="42.16084198129359" lon="8.783183704872338"><ele>463.0</ele><time>2026-05-01T16:17:50.999Z</time></trkpt><trkpt lat="42.16093227817416" lon="8.783331590799774"><ele>463.0</ele><time>2026-05-01T16:17:51.999Z</time></trkpt><trkpt lat="42.16103889132078" lon="8.783486502678059"><ele>463.0</ele><time>2026-05-01T16:17:52.999Z</time></trkpt><trkpt lat="42.1611664495649" lon="8.78366011914011"><ele>462.33333333333337</ele><time>2026-05-01T16:17:53.999Z</time></trkpt><trkpt lat="42.16130156269594" lon="8.78385405128461"><ele>461.66666666666663</ele><time>2026-05-01T16:17:54.999Z</time></trkpt><trkpt lat="42.16144849561422" lon="8.784067766268858"><ele>461.0</ele><time>2026-05-01T16:17:55.999Z</time></trkpt><trkpt lat="42.16159448194488" lon="8.78427517711077"><ele>467.3333333333333</ele><time>2026-05-01T16:17:56.999Z</time></trkpt><trkpt lat="42.161739559945666" lon="8.784476289471119"><ele>473.66666666666663</ele><time>2026-05-01T16:17:57.999Z</time></trkpt><trkpt lat="42.16185336388421" lon="8.784665228342657"><ele>480.0</ele><time>2026-05-01T16:17:58.999Z</time></trkpt><trkpt lat="42.16193793613844" lon="8.784844254138616"><ele>480.0</ele><time>2026-05-01T16:17:59.999Z</time></trkpt><trkpt lat="42.16198642854695" lon="8.785038367350138"><ele>480.0</ele><time>2026-05-01T16:18:00.999Z</time></trkpt><trkpt lat="42.16199031719163" lon="8.785274742713574"><ele>480.0</ele><time>2026-05-01T16:18:01.999Z</time></trkpt><trkpt lat="42.161966122548776" lon="8.785530312796721"><ele>482.33333333333337</ele><time>2026-05-01T16:18:02.999Z</time></trkpt><trkpt lat="42.16192709207735" lon="8.785779299658564"><ele>484.6666666666667</ele><time>2026-05-01T16:18:03.999Z</time></trkpt><trkpt lat="42.16189009673785" lon="8.785999226018918"><ele>487.0</ele><time>2026-05-01T16:18:04.999Z</time></trkpt><trkpt lat="42.161864697734565" lon="8.786181251670362"><ele>489.25</ele><time>2026-05-01T16:18:05.999Z</time></trkpt><trkpt lat="42.161862289200165" lon="8.78634766504128"><ele>491.5</ele><time>2026-05-01T16:18:06.999Z</time></trkpt><trkpt lat="42.16188781613948" lon="8.786492360300267"><ele>493.75</ele><time>2026-05-01T16:18:07.999Z</time></trkpt><trkpt lat="42.16196728084215" lon="8.786623707082496"><ele>496.0</ele><time>2026-05-01T16:18:08.999Z</time></trkpt><trkpt lat="42.16208947489904" lon="8.78671881879948"><ele>496.0</ele><time>2026-05-01T16:18:09.999Z</time></trkpt><trkpt lat="42.16222943757034" lon="8.786784655357911"><ele>496.0</ele><time>2026-05-01T16:18:10.999Z</time></trkpt><trkpt lat="42.16237702708219" lon="8.786850266973682"><ele>496.0</ele><time>2026-05-01T16:18:11.999Z</time></trkpt><trkpt lat="42.162525023202484" lon="8.786918649205003"><ele>495.25</ele><time>2026-05-01T16:18:12.999Z</time></trkpt><trkpt lat="42.162659011844276" lon="8.786997344467265"><ele>494.5</ele><time>2026-05-01T16:18:13.999Z</time></trkpt><trkpt lat="42.16276043031232" lon="8.787101619756365"><ele>493.75</ele><time>2026-05-01T16:18:14.998Z</time></trkpt><trkpt lat="42.16283541873262" lon="8.787253324803185"><ele>493.0</ele><time>2026-05-01T16:18:15.998Z</time></trkpt><trkpt lat="42.16290743542625" lon="8.787387671939884"><ele>493.0</ele><time>2026-05-01T16:18:16.998Z</time></trkpt><trkpt lat="42.1629920627579" lon="8.787458606091375"><ele>492.99999999999994</ele><time>2026-05-01T16:18:17.998Z</time></trkpt><trkpt lat="42.163087548129106" lon="8.787478858085988"><ele>492.99999999999994</ele><time>2026-05-01T16:18:18.998Z</time></trkpt><trkpt lat="42.16317735550181" lon="8.78747380346485"><ele>493.0</ele><time>2026-05-01T16:18:19.998Z</time></trkpt><trkpt lat="42.163260344393386" lon="8.78745730550798"><ele>493.0</ele><time>2026-05-01T16:18:20.998Z</time></trkpt><trkpt lat="42.1633389124732" lon="8.787427644251093"><ele>492.1666666666667</ele><time>2026-05-01T16:18:21.998Z</time></trkpt><trkpt lat="42.16342461513254" lon="8.7873912859381"><ele>491.33333333333337</ele><time>2026-05-01T16:18:22.998Z</time></trkpt><trkpt lat="42.163516100020516" lon="8.787361767488397"><ele>490.5</ele><time>2026-05-01T16:18:23.998Z</time></trkpt><trkpt lat="42.16361065182747" lon="8.787361635577026"><ele>489.66666666666663</ele><time>2026-05-01T16:18:24.998Z</time></trkpt><trkpt lat="42.16369854387093" lon="8.787398666948336"><ele>488.8333333333333</ele><time>2026-05-01T16:18:25.998Z</time></trkpt><trkpt lat="42.16376189404048" lon="8.787447017973287"><ele>488.0</ele><time>2026-05-01T16:18:26.998Z</time></trkpt><trkpt lat="42.16383404200492" lon="8.787541815002207"><ele>488.0</ele><time>2026-05-01T16:18:28.998Z</time></trkpt><trkpt lat="42.163882048767306" lon="8.787631868315056"><ele>487.99999999999994</ele><time>2026-05-01T16:18:30.998Z</time></trkpt><trkpt lat="42.163947999364716" lon="8.787675974864877"><ele>487.99999999999994</ele><time>2026-05-01T16:18:32.998Z</time></trkpt><trkpt lat="42.16405567890555" lon="8.787675074002903"><ele>488.0</ele><time>2026-05-01T16:18:34.998Z</time></trkpt><trkpt lat="42.16417763305143" lon="8.787571534205846"><ele>488.0</ele><time>2026-05-01T16:18:36.998Z</time></trkpt><trkpt lat="42.164256501115666" lon="8.787519732574166"><ele>488.8333333333333</ele><time>2026-05-01T16:18:37.998Z</time></trkpt><trkpt lat="42.16433610206429" lon="8.787466076962536"><ele>489.66666666666663</ele><time>2026-05-01T16:18:38.998Z</time></trkpt><trkpt lat="42.16441686877513" lon="8.787414960765334"><ele>490.5</ele><time>2026-05-01T16:18:39.998Z</time></trkpt><trkpt lat="42.164489810754006" lon="8.787373333692472"><ele>491.33333333333337</ele><time>2026-05-01T16:18:40.998Z</time></trkpt><trkpt lat="42.1645521009067" lon="8.787350260001864"><ele>492.1666666666667</ele><time>2026-05-01T16:18:41.998Z</time></trkpt><trkpt lat="42.16466528106062" lon="8.787335335979064"><ele>493.0</ele><time>2026-05-01T16:18:44Z</time></trkpt><trkpt lat="42.1647490408464" lon="8.787345720556408"><ele>493.0</ele><time>2026-05-01T16:18:46Z</time></trkpt><trkpt lat="42.164833131765235" lon="8.787390093597017"><ele>492.99999999999994</ele><time>2026-05-01T16:18:48Z</time></trkpt><trkpt lat="42.16495647309419" lon="8.787457168511393"><ele>492.99999999999994</ele><time>2026-05-01T16:18:50Z</time></trkpt><trkpt lat="42.1650201912968" lon="8.787486122801399"><ele>493.0</ele><time>2026-05-01T16:18:51Z</time></trkpt><trkpt lat="42.16509827318774" lon="8.787537985347344"><ele>493.0</ele><time>2026-05-01T16:18:53Z</time></trkpt><trkpt lat="42.165151497421384" lon="8.787605396441986"><ele>493.6666666666667</ele><time>2026-05-01T16:19:23Z</time></trkpt><trkpt lat="42.16521542884499" lon="8.787682430377293"><ele>494.33333333333337</ele><time>2026-05-01T16:19:25Z</time></trkpt><trkpt lat="42.165270144933125" lon="8.787775460801045"><ele>495.0</ele><time>2026-05-01T16:19:26.999Z</time></trkpt><trkpt lat="42.16532249402252" lon="8.787829382679664"><ele>495.66666666666663</ele><time>2026-05-01T16:19:29.999Z</time></trkpt><trkpt lat="42.165390168182" lon="8.787877161714292"><ele>496.3333333333333</ele><time>2026-05-01T16:21:20Z</time></trkpt><trkpt lat="42.1654996983029" lon="8.787943553175678"><ele>497.0</ele><time>2026-05-01T16:21:22Z</time></trkpt><trkpt lat="42.1655674625737" lon="8.788000271094644"><ele>496.99999999999994</ele><time>2026-05-01T16:21:23Z</time></trkpt><trkpt lat="42.1656346372148" lon="8.788056152860124"><ele>497.0</ele><time>2026-05-01T16:21:24Z</time></trkpt><trkpt lat="42.16569800616781" lon="8.788105445269595"><ele>497.0</ele><time>2026-05-01T16:21:25Z</time></trkpt><trkpt lat="42.1657643330659" lon="8.788149358604333"><ele>497.0</ele><time>2026-05-01T16:21:26Z</time></trkpt><trkpt lat="42.16582083394139" lon="8.78819967791574"><ele>496.99999999999994</ele><time>2026-05-01T16:21:27Z</time></trkpt><trkpt lat="42.16591267369737" lon="8.78828788031618"><ele>497.0</ele><time>2026-05-01T16:21:29Z</time></trkpt><trkpt lat="42.165968344287045" lon="8.788352569044262"><ele>498.6</ele><time>2026-05-01T16:21:31Z</time></trkpt><trkpt lat="42.16603521178051" lon="8.788384555956245"><ele>500.20000000000005</ele><time>2026-05-01T16:21:48.999Z</time></trkpt><trkpt lat="42.166128782008414" lon="8.788418094075306"><ele>501.8</ele><time>2026-05-01T16:21:50.999Z</time></trkpt><trkpt lat="42.166253065004966" lon="8.788486102723773"><ele>503.4</ele><time>2026-05-01T16:21:52.999Z</time></trkpt><trkpt lat="42.16636555303221" lon="8.788536189441631"><ele>505.0</ele><time>2026-05-01T16:21:53.999Z</time></trkpt><trkpt lat="42.16651062815679" lon="8.78860566685178"><ele>510.75</ele><time>2026-05-01T16:21:54.999Z</time></trkpt><trkpt lat="42.16664560947595" lon="8.788686302919649"><ele>516.5</ele><time>2026-05-01T16:21:55.999Z</time></trkpt><trkpt lat="42.16675868981784" lon="8.788794230262416"><ele>522.25</ele><time>2026-05-01T16:21:56.999Z</time></trkpt><trkpt lat="42.16686108503972" lon="8.788906901328826"><ele>528.0</ele><time>2026-05-01T16:21:57.999Z</time></trkpt><trkpt lat="42.16694763861918" lon="8.789032169031943"><ele>528.0</ele><time>2026-05-01T16:21:58.999Z</time></trkpt><trkpt lat="42.16701512074343" lon="8.78917323688204"><ele>528.0</ele><time>2026-05-01T16:21:59.999Z</time></trkpt><trkpt lat="42.16707459585739" lon="8.789315099160957"><ele>528.0</ele><time>2026-05-01T16:22:00.999Z</time></trkpt><trkpt lat="42.16714181984329" lon="8.789452492477828"><ele>528.0</ele><time>2026-05-01T16:22:01.999Z</time></trkpt><trkpt lat="42.167205415159856" lon="8.789578579401681"><ele>526.25</ele><time>2026-05-01T16:22:02.999Z</time></trkpt><trkpt lat="42.16726939148434" lon="8.789697189147821"><ele>524.5</ele><time>2026-05-01T16:22:03.999Z</time></trkpt><trkpt lat="42.16733402822038" lon="8.789825066244404"><ele>522.75</ele><time>2026-05-01T16:22:04.999Z</time></trkpt><trkpt lat="42.16741143958366" lon="8.789945853575622"><ele>521.0</ele><time>2026-05-01T16:22:05.999Z</time></trkpt><trkpt lat="42.16751334492021" lon="8.790052236527169"><ele>522.4</ele><time>2026-05-01T16:22:06.999Z</time></trkpt><trkpt lat="42.16761009336622" lon="8.790152541651947"><ele>523.8</ele><time>2026-05-01T16:22:07.999Z</time></trkpt><trkpt lat="42.16770270191868" lon="8.790242149397102"><ele>525.1999999999999</ele><time>2026-05-01T16:22:08.999Z</time></trkpt><trkpt lat="42.167801500585824" lon="8.790302424492689"><ele>526.6</ele><time>2026-05-01T16:22:09.999Z</time></trkpt><trkpt lat="42.167904404900135" lon="8.790323881298542"><ele>528.0</ele><time>2026-05-01T16:22:10.999Z</time></trkpt><trkpt lat="42.16799680064058" lon="8.790323055263077"><ele>528.0</ele><time>2026-05-01T16:22:11.999Z</time></trkpt><trkpt lat="42.16809714227482" lon="8.790320021903211"><ele>528.0</ele><time>2026-05-01T16:22:12.999Z</time></trkpt><trkpt lat="42.16816940779466" lon="8.790294691421014"><ele>528.0</ele><time>2026-05-01T16:22:13.999Z</time></trkpt><trkpt lat="42.168247679619675" lon="8.790247061711966"><ele>528.0</ele><time>2026-05-01T16:22:14.999Z</time></trkpt><trkpt lat="42.16831530913075" lon="8.790194539968894"><ele>528.0</ele><time>2026-05-01T16:22:15.999Z</time></trkpt><trkpt lat="42.168373527627324" lon="8.790138850343403"><ele>528.0</ele><time>2026-05-01T16:22:16.999Z</time></trkpt><trkpt lat="42.16843229405709" lon="8.790107249918796"><ele>532.6</ele><time>2026-05-01T16:22:17.999Z</time></trkpt><trkpt lat="42.16850172836675" lon="8.790072478244841"><ele>537.1999999999999</ele><time>2026-05-01T16:22:19.999Z</time></trkpt><trkpt lat="42.1685945901912" lon="8.790035531750876"><ele>541.8</ele><time>2026-05-01T16:22:22.999Z</time></trkpt><trkpt lat="42.16870593707748" lon="8.790055889502323"><ele>546.4</ele><time>2026-05-01T16:22:24.999Z</time></trkpt><trkpt lat="42.16881899831127" lon="8.79013272710727"><ele>551.0</ele><time>2026-05-01T16:22:26.998Z</time></trkpt><trkpt lat="42.16887788397478" lon="8.790191137351894"><ele>551.0</ele><time>2026-05-01T16:22:29.998Z</time></trkpt><trkpt lat="42.168943051885414" lon="8.790222955048748"><ele>551.0</ele><time>2026-05-01T16:23:12Z</time></trkpt><trkpt lat="42.16900620323145" lon="8.790254162589283"><ele>551.0</ele><time>2026-05-01T16:23:13Z</time></trkpt><trkpt lat="42.16907725395082" lon="8.790319314975507"><ele>551.0</ele><time>2026-05-01T16:23:14Z</time></trkpt><trkpt lat="42.16916167339084" lon="8.790414659570073"><ele>551.0</ele><time>2026-05-01T16:23:15Z</time></trkpt><trkpt lat="42.16927838922721" lon="8.7905514635115"><ele>556.0</ele><time>2026-05-01T16:23:16Z</time></trkpt><trkpt lat="42.16940966082423" lon="8.790702796080096"><ele>561.0</ele><time>2026-05-01T16:23:17Z</time></trkpt><trkpt lat="42.169501392969075" lon="8.790854751229006"><ele>566.0</ele><time>2026-05-01T16:23:18Z</time></trkpt><trkpt lat="42.169562782192315" lon="8.7909943411291"><ele>571.0</ele><time>2026-05-01T16:23:19Z</time></trkpt><trkpt lat="42.16961803526135" lon="8.791101522877115"><ele>571.0</ele><time>2026-05-01T16:23:20Z</time></trkpt><trkpt lat="42.16965518239083" lon="8.791180670574075"><ele>571.0</ele><time>2026-05-01T16:23:21Z</time></trkpt><trkpt lat="42.16971368330503" lon="8.791298006257813"><ele>571.0</ele><time>2026-05-01T16:23:23Z</time></trkpt><trkpt lat="42.16975123808271" lon="8.791372474153228"><ele>571.0</ele><time>2026-05-01T16:23:26Z</time></trkpt><trkpt lat="42.169816124509026" lon="8.791430793875984"><ele>571.0</ele><time>2026-05-01T16:23:37Z</time></trkpt><trkpt lat="42.169905266816116" lon="8.791474431424836"><ele>571.0</ele><time>2026-05-01T16:23:38.999Z</time></trkpt><trkpt lat="42.16999384374987" lon="8.791518439127605"><ele>571.0</ele><time>2026-05-01T16:23:40.999Z</time></trkpt><trkpt lat="42.17007786156884" lon="8.791563061653369"><ele>571.0</ele><time>2026-05-01T16:23:42.999Z</time></trkpt><trkpt lat="42.17005816178812" lon="8.79147990056311"><ele>571.0</ele><time>2026-05-01T16:23:45.999Z</time></trkpt><trkpt lat="42.16998522874132" lon="8.791440126453827"><ele>571.0</ele><time>2026-05-01T16:23:46.999Z</time></trkpt><trkpt lat="42.16987063977512" lon="8.791413877932914"><ele>571.0</ele><time>2026-05-01T16:23:47.999Z</time></trkpt><trkpt lat="42.16981376909375" lon="8.791348984067017"><ele>571.0</ele><time>2026-05-01T16:23:48.999Z</time></trkpt><trkpt lat="42.16970338104043" lon="8.79121185985548"><ele>571.0</ele><time>2026-05-01T16:23:49.999Z</time></trkpt><trkpt lat="42.16959387799768" lon="8.791010775762558"><ele>571.0</ele><time>2026-05-01T16:23:50.999Z</time></trkpt><trkpt lat="42.169476633467674" lon="8.790779113796575"><ele>571.0</ele><time>2026-05-01T16:23:51.999Z</time></trkpt><trkpt lat="42.16934954738202" lon="8.790569475438746"><ele>571.0</ele><time>2026-05-01T16:23:52.999Z</time></trkpt><trkpt lat="42.169215100087015" lon="8.790393986491459"><ele>571.0</ele><time>2026-05-01T16:23:53.999Z</time></trkpt><trkpt lat="42.16906927554039" lon="8.790244959516079"><ele>571.0</ele><time>2026-05-01T16:23:54.999Z</time></trkpt><trkpt lat="42.1689307959399" lon="8.790124922434844"><ele>571.0</ele><time>2026-05-01T16:23:55.999Z</time></trkpt><trkpt lat="42.168815590001905" lon="8.790042812918804"><ele>571.0</ele><time>2026-05-01T16:23:56.999Z</time></trkpt><trkpt lat="42.16871155205351" lon="8.789983650248828"><ele>571.0</ele><time>2026-05-01T16:23:57.999Z</time></trkpt><trkpt lat="42.16861401496892" lon="8.789948703666429"><ele>571.0</ele><time>2026-05-01T16:23:58.999Z</time></trkpt><trkpt lat="42.16851815227746" lon="8.789947968458375"><ele>571.0</ele><time>2026-05-01T16:23:59.999Z</time></trkpt><trkpt lat="42.16843050437843" lon="8.789986379545285"><ele>571.0</ele><time>2026-05-01T16:24:00.999Z</time></trkpt><trkpt lat="42.16835691514317" lon="8.790047855951656"><ele>571.0</ele><time>2026-05-01T16:24:01.999Z</time></trkpt><trkpt lat="42.16830652531769" lon="8.790104642708467"><ele>571.0</ele><time>2026-05-01T16:24:02.999Z</time></trkpt><trkpt lat="42.16819934901688" lon="8.790208380411414"><ele>571.0</ele><time>2026-05-01T16:24:04.999Z</time></trkpt><trkpt lat="42.168122363209065" lon="8.79025502913138"><ele>571.0</ele><time>2026-05-01T16:24:05.999Z</time></trkpt><trkpt lat="42.168042085765585" lon="8.790285732533183"><ele>563.8333333333334</ele><time>2026-05-01T16:24:06.999Z</time></trkpt><trkpt lat="42.16795978609583" lon="8.790285228721036"><ele>556.6666666666667</ele><time>2026-05-01T16:24:07.999Z</time></trkpt><trkpt lat="42.167871701849265" lon="8.790265695309362"><ele>549.5</ele><time>2026-05-01T16:24:08.999Z</time></trkpt><trkpt lat="42.1677899793575" lon="8.790237589449145"><ele>542.3333333333334</ele><time>2026-05-01T16:24:09.999Z</time></trkpt><trkpt lat="42.167720416610265" lon="8.790200619749351"><ele>535.1666666666666</ele><time>2026-05-01T16:24:10.999Z</time></trkpt><trkpt lat="42.167793395030195" lon="8.790256301339426"><ele>528.0</ele><time>2026-05-01T16:24:16.999Z</time></trkpt><trkpt lat="42.16785752555483" lon="8.790271365016771"><ele>528.0</ele><time>2026-05-01T16:24:17.999Z</time></trkpt><trkpt lat="42.167972475562564" lon="8.790301729605801"><ele>528.0</ele><time>2026-05-01T16:24:18.999Z</time></trkpt><trkpt lat="42.16815748350983" lon="8.790277745161188"><ele>528.0</ele><time>2026-05-01T16:24:19.999Z</time></trkpt><trkpt lat="42.16832566693411" lon="8.790178727953615"><ele>542.3333333333334</ele><time>2026-05-01T16:24:20.999Z</time></trkpt><trkpt lat="42.16848484298008" lon="8.790054031796195"><ele>556.6666666666667</ele><time>2026-05-01T16:24:21.999Z</time></trkpt><trkpt lat="42.16862717844997" lon="8.789994256630454"><ele>571.0</ele><time>2026-05-01T16:24:22.999Z</time></trkpt><trkpt lat="42.16875155993314" lon="8.790019185032952"><ele>571.0</ele><time>2026-05-01T16:24:23.999Z</time></trkpt><trkpt lat="42.16888043727184" lon="8.79010626999851"><ele>571.0</ele><time>2026-05-01T16:24:24.999Z</time></trkpt><trkpt lat="42.1690129009033" lon="8.790231942714081"><ele>571.0</ele><time>2026-05-01T16:24:25.999Z</time></trkpt><trkpt lat="42.16914056191877" lon="8.790369494179465"><ele>572.3333333333334</ele><time>2026-05-01T16:24:26.999Z</time></trkpt><trkpt lat="42.16928346834141" lon="8.790525606621767"><ele>573.6666666666666</ele><time>2026-05-01T16:24:27.999Z</time></trkpt><trkpt lat="42.16942479728157" lon="8.79072467545898"><ele>575.0</ele><time>2026-05-01T16:24:28.999Z</time></trkpt><trkpt lat="42.169552905840554" lon="8.79094220164493"><ele>573.6666666666666</ele><time>2026-05-01T16:24:29.999Z</time></trkpt><trkpt lat="42.16965679776755" lon="8.791159206837497"><ele>572.3333333333334</ele><time>2026-05-01T16:24:30.998Z</time></trkpt><trkpt lat="42.169758309856554" lon="8.791326194444306"><ele>571.0</ele><time>2026-05-01T16:24:31.998Z</time></trkpt><trkpt lat="42.169865159646086" lon="8.791454213986132"><ele>575.3333333333334</ele><time>2026-05-01T16:24:32.998Z</time></trkpt><trkpt lat="42.17000568886398" lon="8.791546600992953"><ele>579.6666666666666</ele><time>2026-05-01T16:24:33.998Z</time></trkpt><trkpt lat="42.17020097207169" lon="8.791595573725427"><ele>584.0</ele><time>2026-05-01T16:24:34.998Z</time></trkpt><trkpt lat="42.170414410063294" lon="8.791641205383046"><ele>584.0</ele><time>2026-05-01T16:24:35.998Z</time></trkpt><trkpt lat="42.17065887350627" lon="8.791689128192573"><ele>584.0</ele><time>2026-05-01T16:24:36.998Z</time></trkpt><trkpt lat="42.170887547877385" lon="8.791783007572798"><ele>578.5</ele><time>2026-05-01T16:24:37.998Z</time></trkpt><trkpt lat="42.17110080583465" lon="8.791940949993672"><ele>573.0</ele><time>2026-05-01T16:24:38.998Z</time></trkpt><trkpt lat="42.17128851223271" lon="8.792121390931719"><ele>573.0</ele><time>2026-05-01T16:24:39.998Z</time></trkpt><trkpt lat="42.171457663308324" lon="8.792259153913639"><ele>573.0</ele><time>2026-05-01T16:24:40.998Z</time></trkpt><trkpt lat="42.17164135621083" lon="8.792350435553312"><ele>573.0</ele><time>2026-05-01T16:24:41.998Z</time></trkpt><trkpt lat="42.17186795349805" lon="8.792398829260499"><ele>584.5</ele><time>2026-05-01T16:24:42.998Z</time></trkpt><trkpt lat="42.172113679018125" lon="8.792456446296372"><ele>596.0</ele><time>2026-05-01T16:24:43.998Z</time></trkpt><trkpt lat="42.17234827051279" lon="8.792551770147414"><ele>591.0</ele><time>2026-05-01T16:24:44.998Z</time></trkpt><trkpt lat="42.17257175285456" lon="8.792675056751587"><ele>586.0</ele><time>2026-05-01T16:24:45.998Z</time></trkpt><trkpt lat="42.17277365254489" lon="8.792802435501523"><ele>586.0</ele><time>2026-05-01T16:24:46.998Z</time></trkpt><trkpt lat="42.17295945777222" lon="8.792901759198081"><ele>586.0</ele><time>2026-05-01T16:24:47.998Z</time></trkpt><trkpt lat="42.17315162073493" lon="8.793000915675847"><ele>586.0</ele><time>2026-05-01T16:24:48.998Z</time></trkpt><trkpt lat="42.17333559873796" lon="8.793095266116234"><ele>592.6666666666667</ele><time>2026-05-01T16:24:49.998Z</time></trkpt><trkpt lat="42.17350707412968" lon="8.793173866234719"><ele>599.3333333333334</ele><time>2026-05-01T16:24:50.998Z</time></trkpt><trkpt lat="42.17365901848622" lon="8.793225545891621"><ele>606.0</ele><time>2026-05-01T16:24:51.998Z</time></trkpt><trkpt lat="42.17378200113947" lon="8.79332803843579"><ele>606.0</ele><time>2026-05-01T16:24:52.998Z</time></trkpt><trkpt lat="42.17387573665118" lon="8.793479010314812"><ele>606.0</ele><time>2026-05-01T16:24:53.998Z</time></trkpt><trkpt lat="42.17394963419667" lon="8.793653298654108"><ele>606.0</ele><time>2026-05-01T16:24:54.998Z</time></trkpt><trkpt lat="42.17401732684535" lon="8.793842491198008"><ele>606.6666666666666</ele><time>2026-05-01T16:24:55.998Z</time></trkpt><trkpt lat="42.17407737275956" lon="8.794031702316998"><ele>607.3333333333333</ele><time>2026-05-01T16:24:56.998Z</time></trkpt><trkpt lat="42.17414764201682" lon="8.794217628422215"><ele>608.0</ele><time>2026-05-01T16:24:57.998Z</time></trkpt><trkpt lat="42.17425424869973" lon="8.794387141568471"><ele>608.0</ele><time>2026-05-01T16:24:58.998Z</time></trkpt><trkpt lat="42.174380793229695" lon="8.794547156410342"><ele>608.0</ele><time>2026-05-01T16:24:59.998Z</time></trkpt><trkpt lat="42.17450927478302" lon="8.794712511790536"><ele>608.0</ele><time>2026-05-01T16:25:01Z</time></trkpt><trkpt lat="42.17462416190607" lon="8.794881072346328"><ele>608.0</ele><time>2026-05-01T16:25:02Z</time></trkpt><trkpt lat="42.174737443232594" lon="8.795059874566173"><ele>608.0</ele><time>2026-05-01T16:25:03Z</time></trkpt><trkpt lat="42.17485031398994" lon="8.795231588548834"><ele>608.0</ele><time>2026-05-01T16:25:04Z</time></trkpt><trkpt lat="42.174977589196835" lon="8.795389436726675"><ele>612.0</ele><time>2026-05-01T16:25:05Z</time></trkpt><trkpt lat="42.17511614838191" lon="8.795537377099699"><ele>616.0</ele><time>2026-05-01T16:25:06Z</time></trkpt><trkpt lat="42.175255883825294" lon="8.795709478437072"><ele>620.0</ele><time>2026-05-01T16:25:07Z</time></trkpt><trkpt lat="42.17534710141108" lon="8.795917207158718"><ele>615.0</ele><time>2026-05-01T16:25:08Z</time></trkpt><trkpt lat="42.17539773114636" lon="8.796128186361742"><ele>610.0</ele><time>2026-05-01T16:25:09Z</time></trkpt><trkpt lat="42.17549557318249" lon="8.796307786264327"><ele>605.0</ele><time>2026-05-01T16:25:10Z</time></trkpt><trkpt lat="42.17566834974177" lon="8.796440162692635"><ele>610.6666666666666</ele><time>2026-05-01T16:25:11Z</time></trkpt><trkpt lat="42.175827868084525" lon="8.796601440740977"><ele>616.3333333333334</ele><time>2026-05-01T16:25:12Z</time></trkpt><trkpt lat="42.17591969590786" lon="8.796828634476078"><ele>622.0</ele><time>2026-05-01T16:25:13Z</time></trkpt><trkpt lat="42.17595833333846" lon="8.797060872657655"><ele>622.0</ele><time>2026-05-01T16:25:14Z</time></trkpt><trkpt lat="42.176011586487675" lon="8.797259061468884"><ele>622.0</ele><time>2026-05-01T16:25:15Z</time></trkpt><trkpt lat="42.1761125635381" lon="8.797423660640904"><ele>622.0</ele><time>2026-05-01T16:25:16Z</time></trkpt><trkpt lat="42.17624446424928" lon="8.797522049800806"><ele>622.0</ele><time>2026-05-01T16:25:17Z</time></trkpt><trkpt lat="42.17638467296211" lon="8.797526220569061"><ele>622.0</ele><time>2026-05-01T16:25:18Z</time></trkpt><trkpt lat="42.17651911719067" lon="8.797435974613444"><ele>622.0</ele><time>2026-05-01T16:25:19Z</time></trkpt><trkpt lat="42.176665409503705" lon="8.797292405863796"><ele>627.3333333333334</ele><time>2026-05-01T16:25:20Z</time></trkpt><trkpt lat="42.176831719815425" lon="8.79722071277123"><ele>632.6666666666666</ele><time>2026-05-01T16:25:21Z</time></trkpt><trkpt lat="42.177007638167765" lon="8.797221913499914"><ele>638.0</ele><time>2026-05-01T16:25:22Z</time></trkpt><trkpt lat="42.17715660387283" lon="8.79729076756169"><ele>638.0</ele><time>2026-05-01T16:25:23Z</time></trkpt><trkpt lat="42.177279124445576" lon="8.797431480344903"><ele>638.0</ele><time>2026-05-01T16:25:24Z</time></trkpt><trkpt lat="42.17741614289369" lon="8.797601591853688"><ele>638.0</ele><time>2026-05-01T16:25:25Z</time></trkpt><trkpt lat="42.177574673245644" lon="8.797776501645282"><ele>637.3333333333333</ele><time>2026-05-01T16:25:26Z</time></trkpt><trkpt lat="42.17772244454628" lon="8.797970575497219"><ele>636.6666666666666</ele><time>2026-05-01T16:25:27Z</time></trkpt><trkpt lat="42.17782974381225" lon="8.798185044126571"><ele>636.0</ele><time>2026-05-01T16:25:28Z</time></trkpt><trkpt lat="42.17791080550503" lon="8.79837880803701"><ele>635.75</ele><time>2026-05-01T16:25:29Z</time></trkpt><trkpt lat="42.178005722728706" lon="8.798525104040676"><ele>635.5</ele><time>2026-05-01T16:25:30Z</time></trkpt><trkpt lat="42.17812194565502" lon="8.798585100942725"><ele>635.25</ele><time>2026-05-01T16:25:31Z</time></trkpt><trkpt lat="42.17826538011384" lon="8.798558569983303"><ele>635.0</ele><time>2026-05-01T16:25:32Z</time></trkpt><trkpt lat="42.17844282555541" lon="8.798471070594655"><ele>642.0</ele><time>2026-05-01T16:25:33Z</time></trkpt><trkpt lat="42.17865136209931" lon="8.798423888756886"><ele>649.0</ele><time>2026-05-01T16:25:34Z</time></trkpt><trkpt lat="42.17887286760343" lon="8.798377342200972"><ele>656.0</ele><time>2026-05-01T16:25:35Z</time></trkpt><trkpt lat="42.17909181923544" lon="8.79824230182769"><ele>656.0</ele><time>2026-05-01T16:25:36Z</time></trkpt><trkpt lat="42.179324754440806" lon="8.7980730494537"><ele>656.0</ele><time>2026-05-01T16:25:37Z</time></trkpt><trkpt lat="42.17952891624543" lon="8.797954757453544"><ele>656.0</ele><time>2026-05-01T16:25:38Z</time></trkpt><trkpt lat="42.17970095968867" lon="8.797877331996535"><ele>656.0</ele><time>2026-05-01T16:25:39Z</time></trkpt><trkpt lat="42.17987726847516" lon="8.79785683677836"><ele>656.0</ele><time>2026-05-01T16:25:40Z</time></trkpt><trkpt lat="42.180081854936155" lon="8.797900402364384"><ele>654.5</ele><time>2026-05-01T16:25:41Z</time></trkpt><trkpt lat="42.18031336893707" lon="8.797984707854464"><ele>653.0</ele><time>2026-05-01T16:25:41.999Z</time></trkpt><trkpt lat="42.18055242060337" lon="8.798067861235948"><ele>656.3333333333333</ele><time>2026-05-01T16:25:42.999Z</time></trkpt><trkpt lat="42.18077354477579" lon="8.798139380001215"><ele>659.6666666666666</ele><time>2026-05-01T16:25:43.999Z</time></trkpt><trkpt lat="42.1809669800046" lon="8.798195029054597"><ele>663.0</ele><time>2026-05-01T16:25:44.999Z</time></trkpt><trkpt lat="42.18113835598906" lon="8.798212752559824"><ele>663.0</ele><time>2026-05-01T16:25:45.999Z</time></trkpt><trkpt lat="42.18129936414177" lon="8.798165306859044"><ele>663.0</ele><time>2026-05-01T16:25:46.999Z</time></trkpt><trkpt lat="42.181472589933875" lon="8.798036331723843"><ele>663.0</ele><time>2026-05-01T16:25:47.999Z</time></trkpt><trkpt lat="42.18167031205413" lon="8.797867955380346"><ele>664.0</ele><time>2026-05-01T16:25:48.999Z</time></trkpt><trkpt lat="42.18189203878798" lon="8.797722629044754"><ele>665.0</ele><time>2026-05-01T16:25:49.999Z</time></trkpt><trkpt lat="42.18210603313928" lon="8.797574088517347"><ele>673.0</ele><time>2026-05-01T16:25:50.999Z</time></trkpt><trkpt lat="42.18230384637613" lon="8.797443863715692"><ele>681.0</ele><time>2026-05-01T16:25:51.999Z</time></trkpt><trkpt lat="42.18249714006256" lon="8.797386583253695"><ele>689.0</ele><time>2026-05-01T16:25:52.999Z</time></trkpt><trkpt lat="42.182699206680866" lon="8.797381559060014"><ele>689.0</ele><time>2026-05-01T16:25:53.999Z</time></trkpt><trkpt lat="42.182887818826664" lon="8.797403131922833"><ele>689.0</ele><time>2026-05-01T16:25:54.999Z</time></trkpt><trkpt lat="42.183040401308304" lon="8.79746878074263"><ele>689.0</ele><time>2026-05-01T16:25:55.999Z</time></trkpt><trkpt lat="42.183167179059296" lon="8.797599824183122"><ele>688.3333333333333</ele><time>2026-05-01T16:25:56.999Z</time></trkpt><trkpt lat="42.18327632624594" lon="8.797803341775294"><ele>687.6666666666666</ele><time>2026-05-01T16:25:57.999Z</time></trkpt><trkpt lat="42.18340063651355" lon="8.798020390520888"><ele>687.0</ele><time>2026-05-01T16:25:58.999Z</time></trkpt><trkpt lat="42.18358061088325" lon="8.798183692884209"><ele>687.0</ele><time>2026-05-01T16:25:59.999Z</time></trkpt><trkpt lat="42.183781683754255" lon="8.798347045729992"><ele>687.0</ele><time>2026-05-01T16:26:00.999Z</time></trkpt><trkpt lat="42.18397471629058" lon="8.79854318957139"><ele>690.0</ele><time>2026-05-01T16:26:01.999Z</time></trkpt><trkpt lat="42.184173883643304" lon="8.798749713139314"><ele>693.0</ele><time>2026-05-01T16:26:02.999Z</time></trkpt><trkpt lat="42.184387937653646" lon="8.798943377016114"><ele>693.0</ele><time>2026-05-01T16:26:03.999Z</time></trkpt><trkpt lat="42.184606305755935" lon="8.799141891586292"><ele>693.0</ele><time>2026-05-01T16:26:04.999Z</time></trkpt><trkpt lat="42.18482191696521" lon="8.799349117895032"><ele>696.5</ele><time>2026-05-01T16:26:05.999Z</time></trkpt><trkpt lat="42.185049225807106" lon="8.799538848014965"><ele>700.0</ele><time>2026-05-01T16:26:06.999Z</time></trkpt><trkpt lat="42.185248985993304" lon="8.799683735822775"><ele>700.0</ele><time>2026-05-01T16:26:07.999Z</time></trkpt><trkpt lat="42.18540806157782" lon="8.799837446326402"><ele>700.0</ele><time>2026-05-01T16:26:08.999Z</time></trkpt><trkpt lat="42.18554304306572" lon="8.799993276840173"><ele>700.0</ele><time>2026-05-01T16:26:09.999Z</time></trkpt><trkpt lat="42.18561730660685" lon="8.800227171539708"><ele>705.0</ele><time>2026-05-01T16:26:10.999Z</time></trkpt><trkpt lat="42.18563858309619" lon="8.800453576536274"><ele>710.0</ele><time>2026-05-01T16:26:11.999Z</time></trkpt><trkpt lat="42.18569622817126" lon="8.800710393277077"><ele>715.0</ele><time>2026-05-01T16:26:12.999Z</time></trkpt><trkpt lat="42.185829355643875" lon="8.800906215200854"><ele>704.5</ele><time>2026-05-01T16:26:13.999Z</time></trkpt><trkpt lat="42.18600615111977" lon="8.801106326890034"><ele>694.0</ele><time>2026-05-01T16:26:14.999Z</time></trkpt><trkpt lat="42.186187727731976" lon="8.801325908865149"><ele>694.0</ele><time>2026-05-01T16:26:15.999Z</time></trkpt><trkpt lat="42.186373232994" lon="8.801561183598984"><ele>694.0</ele><time>2026-05-01T16:26:16.999Z</time></trkpt><trkpt lat="42.1865666588789" lon="8.801808826451643"><ele>700.0</ele><time>2026-05-01T16:26:17.999Z</time></trkpt><trkpt lat="42.18676041911077" lon="8.802056318094266"><ele>706.0</ele><time>2026-05-01T16:26:18.999Z</time></trkpt><trkpt lat="42.186937211155964" lon="8.80228939671597"><ele>706.0</ele><time>2026-05-01T16:26:19.999Z</time></trkpt><trkpt lat="42.18709232192908" lon="8.802480790375775"><ele>706.0</ele><time>2026-05-01T16:26:20.999Z</time></trkpt><trkpt lat="42.187252779433194" lon="8.802613235844289"><ele>706.0</ele><time>2026-05-01T16:26:21.999Z</time></trkpt><trkpt lat="42.18744770066492" lon="8.802695460418398"><ele>708.6666666666667</ele><time>2026-05-01T16:26:22.999Z</time></trkpt><trkpt lat="42.18767080756015" lon="8.802743940618566"><ele>711.3333333333334</ele><time>2026-05-01T16:26:23.999Z</time></trkpt><trkpt lat="42.18787234274031" lon="8.802853209588363"><ele>714.0</ele><time>2026-05-01T16:26:24.999Z</time></trkpt><trkpt lat="42.18800245970994" lon="8.803020472283436"><ele>714.0</ele><time>2026-05-01T16:26:25.999Z</time></trkpt><trkpt lat="42.188054235655905" lon="8.803219982235435"><ele>714.0</ele><time>2026-05-01T16:26:26.999Z</time></trkpt><trkpt lat="42.188080262842355" lon="8.80347468849442"><ele>714.0</ele><time>2026-05-01T16:26:27.999Z</time></trkpt><trkpt lat="42.18811374050512" lon="8.803767896921999"><ele>720.5</ele><time>2026-05-01T16:26:28.999Z</time></trkpt><trkpt lat="42.18818410770389" lon="8.804080334946958"><ele>727.0</ele><time>2026-05-01T16:26:29.999Z</time></trkpt><trkpt lat="42.18825955064305" lon="8.804372158430168"><ele>727.0</ele><time>2026-05-01T16:26:30.999Z</time></trkpt><trkpt lat="42.188319631127385" lon="8.804612895391259"><ele>727.0</ele><time>2026-05-01T16:26:31.999Z</time></trkpt><trkpt lat="42.1883813479987" lon="8.804794220491653"><ele>727.0</ele><time>2026-05-01T16:26:32.998Z</time></trkpt><trkpt lat="42.18846725175912" lon="8.804919519689083"><ele>727.0</ele><time>2026-05-01T16:26:33.998Z</time></trkpt><trkpt lat="42.18861732805529" lon="8.805003569715444"><ele>727.0</ele><time>2026-05-01T16:26:34.998Z</time></trkpt><trkpt lat="42.18881570902306" lon="8.805073453871566"><ele>727.0</ele><time>2026-05-01T16:26:35.998Z</time></trkpt><trkpt lat="42.18901270485906" lon="8.805211718748932"><ele>730.0</ele><time>2026-05-01T16:26:36.998Z</time></trkpt><trkpt lat="42.18918812046776" lon="8.805429250357312"><ele>733.0</ele><time>2026-05-01T16:26:37.998Z</time></trkpt><trkpt lat="42.18932215020366" lon="8.805699478600413"><ele>733.0</ele><time>2026-05-01T16:26:38.998Z</time></trkpt><trkpt lat="42.18940224460784" lon="8.805956740167078"><ele>733.0</ele><time>2026-05-01T16:26:39.998Z</time></trkpt><trkpt lat="42.18950540409628" lon="8.806169222961913"><ele>733.0</ele><time>2026-05-01T16:26:40.998Z</time></trkpt><trkpt lat="42.18966137385819" lon="8.806319446459286"><ele>731.3333333333334</ele><time>2026-05-01T16:26:41.998Z</time></trkpt><trkpt lat="42.18982133765701" lon="8.80640921113762"><ele>729.6666666666666</ele><time>2026-05-01T16:26:42.998Z</time></trkpt><trkpt lat="42.189993002191045" lon="8.806437670950436"><ele>728.0</ele><time>2026-05-01T16:26:43.998Z</time></trkpt><trkpt lat="42.19017278901935" lon="8.806391942098186"><ele>735.3333333333333</ele><time>2026-05-01T16:26:44.998Z</time></trkpt><trkpt lat="42.19036102941302" lon="8.806322169315871"><ele>742.6666666666666</ele><time>2026-05-01T16:26:45.998Z</time></trkpt><trkpt lat="42.19053850296538" lon="8.806328601322585"><ele>750.0</ele><time>2026-05-01T16:26:46.998Z</time></trkpt><trkpt lat="42.19071916051855" lon="8.806401223484254"><ele>750.0</ele><time>2026-05-01T16:26:47.998Z</time></trkpt><trkpt lat="42.19089249822406" lon="8.806522496435925"><ele>750.0</ele><time>2026-05-01T16:26:48.998Z</time></trkpt><trkpt lat="42.191032413493744" lon="8.806687025640581"><ele>750.0</ele><time>2026-05-01T16:26:49.998Z</time></trkpt><trkpt lat="42.19118976183872" lon="8.806907157056889"><ele>751.5</ele><time>2026-05-01T16:26:50.998Z</time></trkpt><trkpt lat="42.19136612172981" lon="8.8071446514825"><ele>753.0</ele><time>2026-05-01T16:26:51.998Z</time></trkpt><trkpt lat="42.19155897095334" lon="8.807392066217085"><ele>748.5</ele><time>2026-05-01T16:26:52.998Z</time></trkpt><trkpt lat="42.19175738172492" lon="8.807656690204073"><ele>744.0</ele><time>2026-05-01T16:26:53.998Z</time></trkpt><trkpt lat="42.191951133818804" lon="8.807910303773758"><ele>744.0</ele><time>2026-05-01T16:26:54.998Z</time></trkpt><trkpt lat="42.19213659564397" lon="8.80815072007481"><ele>744.0</ele><time>2026-05-01T16:26:55.998Z</time></trkpt><trkpt lat="42.19231929010058" lon="8.80838131224276"><ele>746.0</ele><time>2026-05-01T16:26:56.998Z</time></trkpt><trkpt lat="42.192492436219915" lon="8.808607765688931"><ele>748.0</ele><time>2026-05-01T16:26:57.998Z</time></trkpt><trkpt lat="42.19264947307791" lon="8.808823823999498"><ele>748.0</ele><time>2026-05-01T16:26:58.998Z</time></trkpt><trkpt lat="42.192814416821676" lon="8.8090505554344"><ele>748.0</ele><time>2026-05-01T16:26:59.998Z</time></trkpt><trkpt lat="42.19298374067595" lon="8.809280622925641"><ele>750.0</ele><time>2026-05-01T16:27:00.998Z</time></trkpt><trkpt lat="42.193158340507175" lon="8.80952515952021"><ele>752.0</ele><time>2026-05-01T16:27:01.998Z</time></trkpt><trkpt lat="42.1933329721128" lon="8.809789522604746"><ele>752.0</ele><time>2026-05-01T16:27:02.998Z</time></trkpt><trkpt lat="42.19350473921591" lon="8.810083987768834"><ele>752.0</ele><time>2026-05-01T16:27:03.998Z</time></trkpt><trkpt lat="42.19369212579607" lon="8.810327419864432"><ele>756.5</ele><time>2026-05-01T16:27:04.998Z</time></trkpt><trkpt lat="42.19387495029076" lon="8.810583442740251"><ele>761.0</ele><time>2026-05-01T16:27:05.998Z</time></trkpt><trkpt lat="42.194049917187655" lon="8.81082564233762"><ele>763.0</ele><time>2026-05-01T16:27:07Z</time></trkpt><trkpt lat="42.19422649482731" lon="8.8110705985209"><ele>765.0</ele><time>2026-05-01T16:27:08Z</time></trkpt><trkpt lat="42.19439350001982" lon="8.811313881790577"><ele>765.0</ele><time>2026-05-01T16:27:09Z</time></trkpt><trkpt lat="42.194547710139894" lon="8.811580369052907"><ele>765.0</ele><time>2026-05-01T16:27:10Z</time></trkpt><trkpt lat="42.19469112234583" lon="8.811872616954803"><ele>767.5</ele><time>2026-05-01T16:27:11Z</time></trkpt><trkpt lat="42.19482144720557" lon="8.812179469219574"><ele>770.0</ele><time>2026-05-01T16:27:12Z</time></trkpt><trkpt lat="42.19493986230007" lon="8.812489544651266"><ele>774.0</ele><time>2026-05-01T16:27:13Z</time></trkpt><trkpt lat="42.19505236525464" lon="8.812792658043318"><ele>778.0</ele><time>2026-05-01T16:27:14Z</time></trkpt><trkpt lat="42.19517230732421" lon="8.813094185721937"><ele>778.0</ele><time>2026-05-01T16:27:15Z</time></trkpt><trkpt lat="42.1953077983593" lon="8.813389275557379"><ele>778.0</ele><time>2026-05-01T16:27:16Z</time></trkpt><trkpt lat="42.195446159873896" lon="8.813681619160276"><ele>782.0</ele><time>2026-05-01T16:27:17Z</time></trkpt><trkpt lat="42.19556738489688" lon="8.813972353842589"><ele>786.0</ele><time>2026-05-01T16:27:18Z</time></trkpt><trkpt lat="42.195670629611975" lon="8.814286837493855"><ele>784.5</ele><time>2026-05-01T16:27:19Z</time></trkpt><trkpt lat="42.19577037116344" lon="8.814606925619819"><ele>783.0</ele><time>2026-05-01T16:27:20Z</time></trkpt><trkpt lat="42.195860928065706" lon="8.814929342170675"><ele>785.0</ele><time>2026-05-01T16:27:21Z</time></trkpt><trkpt lat="42.195953915771305" lon="8.815265287960722"><ele>787.0</ele><time>2026-05-01T16:27:22Z</time></trkpt><trkpt lat="42.19604378960631" lon="8.815588353501612"><ele>787.0</ele><time>2026-05-01T16:27:23Z</time></trkpt><trkpt lat="42.19613861959314" lon="8.815887500843736"><ele>787.0</ele><time>2026-05-01T16:27:24Z</time></trkpt><trkpt lat="42.19623246196738" lon="8.816123579184021"><ele>787.0</ele><time>2026-05-01T16:27:25Z</time></trkpt><trkpt lat="42.19635299093944" lon="8.816308361416377"><ele>789.6666666666666</ele><time>2026-05-01T16:27:26Z</time></trkpt><trkpt lat="42.19651037897799" lon="8.816430174795988"><ele>792.3333333333333</ele><time>2026-05-01T16:27:27Z</time></trkpt><trkpt lat="42.19670059263117" lon="8.816516851718744"><ele>795.0</ele><time>2026-05-01T16:27:28Z</time></trkpt><trkpt lat="42.19691160070679" lon="8.816587387265269"><ele>795.0</ele><time>2026-05-01T16:27:29Z</time></trkpt><trkpt lat="42.1971257894347" lon="8.81665427838345"><ele>795.0</ele><time>2026-05-01T16:27:30Z</time></trkpt><trkpt lat="42.1973631489938" lon="8.816726707374597"><ele>796.3333333333333</ele><time>2026-05-01T16:27:31Z</time></trkpt><trkpt lat="42.197570892475525" lon="8.816831105790854"><ele>797.6666666666666</ele><time>2026-05-01T16:27:32Z</time></trkpt><trkpt lat="42.197749564626506" lon="8.816908215454374"><ele>799.0</ele><time>2026-05-01T16:27:33Z</time></trkpt><trkpt lat="42.19788950959243" lon="8.81693214805552"><ele>799.0</ele><time>2026-05-01T16:27:34Z</time></trkpt><trkpt lat="42.19799973911947" lon="8.816884380078285"><ele>799.0</ele><time>2026-05-01T16:27:35Z</time></trkpt><trkpt lat="42.19810909444906" lon="8.816761539754575"><ele>799.0</ele><time>2026-05-01T16:27:36Z</time></trkpt><trkpt lat="42.198225726690225" lon="8.816575660726398"><ele>799.0</ele><time>2026-05-01T16:27:37Z</time></trkpt><trkpt lat="42.19836483746142" lon="8.816436426744206"><ele>803.6666666666666</ele><time>2026-05-01T16:27:38Z</time></trkpt><trkpt lat="42.19853693804659" lon="8.816373377598623"><ele>808.3333333333333</ele><time>2026-05-01T16:27:39Z</time></trkpt><trkpt lat="42.19872855824739" lon="8.816412437515227"><ele>813.0</ele><time>2026-05-01T16:27:40Z</time></trkpt><trkpt lat="42.198946265011344" lon="8.816486830209106"><ele>816.0</ele><time>2026-05-01T16:27:41Z</time></trkpt><trkpt lat="42.19917190912035" lon="8.816607744142447"><ele>819.0</ele><time>2026-05-01T16:27:42Z</time></trkpt><trkpt lat="42.199403707328514" lon="8.816756628839313"><ele>817.5</ele><time>2026-05-01T16:27:43Z</time></trkpt><trkpt lat="42.19964603151154" lon="8.816902860289735"><ele>816.0</ele><time>2026-05-01T16:27:44Z</time></trkpt><trkpt lat="42.19990517574476" lon="8.81704026283615"><ele>816.0</ele><time>2026-05-01T16:27:45Z</time></trkpt><trkpt lat="42.20016929965949" lon="8.817159546647082"><ele>816.0</ele><time>2026-05-01T16:27:46Z</time></trkpt><trkpt lat="42.200403645414376" lon="8.817245097083962"><ele>816.0</ele><time>2026-05-01T16:27:47Z</time></trkpt><trkpt lat="42.200604556188004" lon="8.817337454312257"><ele>816.0</ele><time>2026-05-01T16:27:48Z</time></trkpt><trkpt lat="42.200787402104154" lon="8.817493280972357"><ele>816.0</ele><time>2026-05-01T16:27:49Z</time></trkpt><trkpt lat="42.20094863618153" lon="8.81772411217014"><ele>821.5</ele><time>2026-05-01T16:27:49.999Z</time></trkpt><trkpt lat="42.20109096110617" lon="8.817994287223426"><ele>827.0</ele><time>2026-05-01T16:27:50.999Z</time></trkpt><trkpt lat="42.20121680385348" lon="8.818232051702356"><ele>827.0</ele><time>2026-05-01T16:27:51.999Z</time></trkpt><trkpt lat="42.20132874165427" lon="8.818401522315227"><ele>827.0</ele><time>2026-05-01T16:27:52.999Z</time></trkpt><trkpt lat="42.201463085766605" lon="8.818503362164682"><ele>827.0</ele><time>2026-05-01T16:27:53.999Z</time></trkpt><trkpt lat="42.201638667171146" lon="8.818516081801295"><ele>828.6666666666667</ele><time>2026-05-01T16:27:54.999Z</time></trkpt><trkpt lat="42.20183334677875" lon="8.818486623941883"><ele>830.3333333333333</ele><time>2026-05-01T16:27:55.999Z</time></trkpt><trkpt lat="42.20203776211381" lon="8.818450907413048"><ele>832.0</ele><time>2026-05-01T16:27:56.999Z</time></trkpt><trkpt lat="42.202230767743345" lon="8.818520821785414"><ele>838.0</ele><time>2026-05-01T16:27:57.999Z</time></trkpt><trkpt lat="42.20240393876873" lon="8.818684507659121"><ele>844.0</ele><time>2026-05-01T16:27:58.999Z</time></trkpt><trkpt lat="42.202574390913625" lon="8.818883224855382"><ele>850.0</ele><time>2026-05-01T16:27:59.999Z</time></trkpt><trkpt lat="42.20275658898741" lon="8.819071825296087"><ele>850.0</ele><time>2026-05-01T16:28:00.999Z</time></trkpt><trkpt lat="42.20296846961952" lon="8.81921439404681"><ele>850.0</ele><time>2026-05-01T16:28:01.999Z</time></trkpt><trkpt lat="42.20320922674317" lon="8.819317937347533"><ele>852.0</ele><time>2026-05-01T16:28:02.999Z</time></trkpt><trkpt lat="42.20345604370425" lon="8.819393741207264"><ele>854.0</ele><time>2026-05-01T16:28:03.999Z</time></trkpt><trkpt lat="42.20370257354673" lon="8.819485036774207"><ele>854.0</ele><time>2026-05-01T16:28:04.999Z</time></trkpt><trkpt lat="42.2039331221311" lon="8.819584490714705"><ele>854.0</ele><time>2026-05-01T16:28:05.999Z</time></trkpt><trkpt lat="42.20413265175925" lon="8.819674040896322"><ele>857.3333333333334</ele><time>2026-05-01T16:28:06.999Z</time></trkpt><trkpt lat="42.20432675012845" lon="8.819718125020295"><ele>860.6666666666667</ele><time>2026-05-01T16:28:07.999Z</time></trkpt><trkpt lat="42.20452128444318" lon="8.819691375715541"><ele>864.0</ele><time>2026-05-01T16:28:08.999Z</time></trkpt><trkpt lat="42.204715466189334" lon="8.81958726047301"><ele>867.0</ele><time>2026-05-01T16:28:09.999Z</time></trkpt><trkpt lat="42.204900460459776" lon="8.819434898166678"><ele>870.0</ele><time>2026-05-01T16:28:10.999Z</time></trkpt><trkpt lat="42.205061673835495" lon="8.819338037488313"><ele>873.0</ele><time>2026-05-01T16:28:11.999Z</time></trkpt><trkpt lat="42.205243233589265" lon="8.819321774800773"><ele>873.0</ele><time>2026-05-01T16:28:12.999Z</time></trkpt><trkpt lat="42.20539979905215" lon="8.81936034219719"><ele>873.0</ele><time>2026-05-01T16:28:13.999Z</time></trkpt><trkpt lat="42.20553599593734" lon="8.819352687923098"><ele>873.0</ele><time>2026-05-01T16:28:14.999Z</time></trkpt><trkpt lat="42.20562947927496" lon="8.819240371874129"><ele>873.0</ele><time>2026-05-01T16:28:15.999Z</time></trkpt><trkpt lat="42.20566062112651" lon="8.819042068416762"><ele>878.3333333333333</ele><time>2026-05-01T16:28:16.999Z</time></trkpt><trkpt lat="42.20567301746378" lon="8.818803290714603"><ele>883.6666666666666</ele><time>2026-05-01T16:28:17.999Z</time></trkpt><trkpt lat="42.2057434181515" lon="8.818637801777127"><ele>889.0</ele><time>2026-05-01T16:28:18.999Z</time></trkpt><trkpt lat="42.205865536573754" lon="8.818554366699729"><ele>889.0</ele><time>2026-05-01T16:28:19.999Z</time></trkpt><trkpt lat="42.20602675783394" lon="8.81854132364779"><ele>889.0</ele><time>2026-05-01T16:28:20.999Z</time></trkpt><trkpt lat="42.20619912527557" lon="8.818587798754992"><ele>889.0</ele><time>2026-05-01T16:28:21.999Z</time></trkpt><trkpt lat="42.20636015813724" lon="8.818715132293905"><ele>892.0</ele><time>2026-05-01T16:28:22.999Z</time></trkpt><trkpt lat="42.20649509284898" lon="8.8189171855491"><ele>895.0</ele><time>2026-05-01T16:28:23.999Z</time></trkpt><trkpt lat="42.20662068315788" lon="8.819106606039847"><ele>898.0</ele><time>2026-05-01T16:28:24.999Z</time></trkpt><trkpt lat="42.2067669060128" lon="8.819233219138143"><ele>893.0</ele><time>2026-05-01T16:28:25.999Z</time></trkpt><trkpt lat="42.20691652808017" lon="8.819340517512597"><ele>888.0</ele><time>2026-05-01T16:28:26.999Z</time></trkpt><trkpt lat="42.20706626900237" lon="8.819415074888735"><ele>883.0</ele><time>2026-05-01T16:28:27.999Z</time></trkpt><trkpt lat="42.20721411790662" lon="8.8194002357839"><ele>887.6666666666666</ele><time>2026-05-01T16:28:28.999Z</time></trkpt><trkpt lat="42.20735975631288" lon="8.819332234930494"><ele>892.3333333333333</ele><time>2026-05-01T16:28:29.999Z</time></trkpt><trkpt lat="42.20749694966888" lon="8.819257151740468"><ele>897.0</ele><time>2026-05-01T16:28:30.999Z</time></trkpt><trkpt lat="42.207645634498846" lon="8.819239245128164"><ele>897.0</ele><time>2026-05-01T16:28:31.999Z</time></trkpt><trkpt lat="42.20778994036159" lon="8.819288193606106"><ele>897.0</ele><time>2026-05-01T16:28:32.999Z</time></trkpt><trkpt lat="42.20791318872077" lon="8.819404458212935"><ele>897.0</ele><time>2026-05-01T16:28:33.999Z</time></trkpt><trkpt lat="42.20800540224866" lon="8.819566266952586"><ele>897.0</ele><time>2026-05-01T16:28:34.999Z</time></trkpt><trkpt lat="42.20808827033578" lon="8.819735494826002"><ele>897.0</ele><time>2026-05-01T16:28:35.999Z</time></trkpt><trkpt lat="42.20818854218566" lon="8.819872517909625"><ele>897.0</ele><time>2026-05-01T16:28:36.999Z</time></trkpt><trkpt lat="42.20830051780842" lon="8.819996265227028"><ele>897.0</ele><time>2026-05-01T16:28:37.999Z</time></trkpt><trkpt lat="42.208420566879866" lon="8.820102692904365"><ele>897.6666666666667</ele><time>2026-05-01T16:28:38.999Z</time></trkpt><trkpt lat="42.2085412255211" lon="8.820215014602098"><ele>898.3333333333334</ele><time>2026-05-01T16:28:39.998Z</time></trkpt><trkpt lat="42.20866028103594" lon="8.820343298418997"><ele>899.0</ele><time>2026-05-01T16:28:40.998Z</time></trkpt><trkpt lat="42.208776850688956" lon="8.820481828844661"><ele>899.0</ele><time>2026-05-01T16:28:41.998Z</time></trkpt><trkpt lat="42.2089021541555" lon="8.820592450904718"><ele>899.0</ele><time>2026-05-01T16:28:42.998Z</time></trkpt><trkpt lat="42.20904965690972" lon="8.82065044543651"><ele>899.0</ele><time>2026-05-01T16:28:43.998Z</time></trkpt><trkpt lat="42.2092365305787" lon="8.820657278250122"><ele>903.6666666666667</ele><time>2026-05-01T16:28:44.998Z</time></trkpt><trkpt lat="42.209436037863995" lon="8.820647799391438"><ele>908.3333333333333</ele><time>2026-05-01T16:28:45.998Z</time></trkpt><trkpt lat="42.209622664429034" lon="8.820649059315112"><ele>913.0</ele><time>2026-05-01T16:28:46.998Z</time></trkpt><trkpt lat="42.20980196740949" lon="8.820656036827247"><ele>918.3333333333333</ele><time>2026-05-01T16:28:47.998Z</time></trkpt><trkpt lat="42.20995327344914" lon="8.820634998005398"><ele>923.6666666666667</ele><time>2026-05-01T16:28:48.998Z</time></trkpt><trkpt lat="42.21010255554375" lon="8.820556763853624"><ele>929.0</ele><time>2026-05-01T16:28:49.998Z</time></trkpt><trkpt lat="42.21023065817484" lon="8.820433919421925"><ele>929.0</ele><time>2026-05-01T16:28:50.998Z</time></trkpt><trkpt lat="42.210355324021236" lon="8.820318000508971"><ele>929.0</ele><time>2026-05-01T16:28:51.998Z</time></trkpt><trkpt lat="42.21047427817853" lon="8.820262214545656"><ele>929.0</ele><time>2026-05-01T16:28:52.998Z</time></trkpt><trkpt lat="42.21058146480986" lon="8.820303520162419"><ele>929.0</ele><time>2026-05-01T16:28:53.998Z</time></trkpt><trkpt lat="42.21068224236431" lon="8.82042267267353"><ele>931.3333333333334</ele><time>2026-05-01T16:28:54.998Z</time></trkpt><trkpt lat="42.2107882715518" lon="8.820601630448074"><ele>933.6666666666667</ele><time>2026-05-01T16:28:55.998Z</time></trkpt><trkpt lat="42.210920157358984" lon="8.82077440965744"><ele>936.0</ele><time>2026-05-01T16:28:56.998Z</time></trkpt><trkpt lat="42.211067752113564" lon="8.820944542075619"><ele>938.3333333333333</ele><time>2026-05-01T16:28:57.998Z</time></trkpt><trkpt lat="42.21122309345796" lon="8.821132316008061"><ele>940.6666666666666</ele><time>2026-05-01T16:28:58.998Z</time></trkpt><trkpt lat="42.21135372493532" lon="8.82134362960397"><ele>943.0</ele><time>2026-05-01T16:28:59.998Z</time></trkpt><trkpt lat="42.211451632787664" lon="8.82155969489371"><ele>939.6666666666666</ele><time>2026-05-01T16:29:00.998Z</time></trkpt><trkpt lat="42.211542901502725" lon="8.82175856600902"><ele>936.3333333333333</ele><time>2026-05-01T16:29:01.998Z</time></trkpt><trkpt lat="42.211634610889085" lon="8.821929557315114"><ele>933.0</ele><time>2026-05-01T16:29:02.998Z</time></trkpt><trkpt lat="42.21172633913944" lon="8.822050494323666"><ele>933.0</ele><time>2026-05-01T16:29:03.998Z</time></trkpt><trkpt lat="42.21182115017519" lon="8.82212339325643"><ele>933.0</ele><time>2026-05-01T16:29:04.998Z</time></trkpt><trkpt lat="42.21191208516572" lon="8.82214381339343"><ele>933.0</ele><time>2026-05-01T16:29:05.998Z</time></trkpt><trkpt lat="42.21200292408607" lon="8.822127637743296"><ele>933.0</ele><time>2026-05-01T16:29:06.998Z</time></trkpt><trkpt lat="42.21209000172923" lon="8.82209063833372"><ele>933.0</ele><time>2026-05-01T16:29:07.998Z</time></trkpt><trkpt lat="42.212175253377346" lon="8.822041028756976"><ele>933.0</ele><time>2026-05-01T16:29:08.998Z</time></trkpt><trkpt lat="42.212278140379794" lon="8.821987482381509"><ele>933.0</ele><time>2026-05-01T16:29:09.998Z</time></trkpt><trkpt lat="42.2123980749276" lon="8.8219199103499"><ele>933.0</ele><time>2026-05-01T16:29:10.998Z</time></trkpt><trkpt lat="42.21252722023603" lon="8.821832835437927"><ele>933.0</ele><time>2026-05-01T16:29:11.998Z</time></trkpt><trkpt lat="42.21265743406" lon="8.821744211311644"><ele>932.5</ele><time>2026-05-01T16:29:13Z</time></trkpt><trkpt lat="42.212786730011935" lon="8.821655724799067"><ele>932.0</ele><time>2026-05-01T16:29:14Z</time></trkpt><trkpt lat="42.212919569483404" lon="8.821573107582608"><ele>931.5</ele><time>2026-05-01T16:29:15Z</time></trkpt><trkpt lat="42.21305096333289" lon="8.821491252271771"><ele>931.0</ele><time>2026-05-01T16:29:16Z</time></trkpt><trkpt lat="42.21315798140879" lon="8.821432503383683"><ele>933.1999999999999</ele><time>2026-05-01T16:29:17Z</time></trkpt><trkpt lat="42.21324965615533" lon="8.821388017889715"><ele>935.3999999999999</ele><time>2026-05-01T16:29:18Z</time></trkpt><trkpt lat="42.21332896827642" lon="8.821361973853755"><ele>937.6</ele><time>2026-05-01T16:29:19Z</time></trkpt><trkpt lat="42.21342469235953" lon="8.821366656766658"><ele>939.8</ele><time>2026-05-01T16:29:20Z</time></trkpt><trkpt lat="42.21355107938227" lon="8.82139627867452"><ele>942.0</ele><time>2026-05-01T16:29:21Z</time></trkpt><trkpt lat="42.21369254871423" lon="8.82144706495104"><ele>942.0</ele><time>2026-05-01T16:29:22Z</time></trkpt><trkpt lat="42.213849687864624" lon="8.821488326166067"><ele>942.0</ele><time>2026-05-01T16:29:23Z</time></trkpt><trkpt lat="42.214021820949306" lon="8.82148412931112"><ele>942.0</ele><time>2026-05-01T16:29:24Z</time></trkpt><trkpt lat="42.214208617896446" lon="8.821416434106476"><ele>946.0</ele><time>2026-05-01T16:29:25Z</time></trkpt><trkpt lat="42.21439623977971" lon="8.821347690619284"><ele>950.0</ele><time>2026-05-01T16:29:26Z</time></trkpt><trkpt lat="42.21455351022754" lon="8.821339138192622"><ele>954.0</ele><time>2026-05-01T16:29:27Z</time></trkpt><trkpt lat="42.214681487865334" lon="8.821401040311684"><ele>954.0</ele><time>2026-05-01T16:29:28Z</time></trkpt><trkpt lat="42.214783456892576" lon="8.821538542375144"><ele>954.0</ele><time>2026-05-01T16:29:29Z</time></trkpt><trkpt lat="42.21487084726732" lon="8.821724551397601"><ele>954.0</ele><time>2026-05-01T16:29:30Z</time></trkpt><trkpt lat="42.214961394573336" lon="8.821896992898118"><ele>955.3333333333333</ele><time>2026-05-01T16:29:31Z</time></trkpt><trkpt lat="42.215100837003625" lon="8.8220043941077"><ele>956.6666666666666</ele><time>2026-05-01T16:29:32Z</time></trkpt><trkpt lat="42.2152741556705" lon="8.82205157031067"><ele>958.0</ele><time>2026-05-01T16:29:33Z</time></trkpt><trkpt lat="42.2154519428595" lon="8.822021577172652"><ele>958.0</ele><time>2026-05-01T16:29:34Z</time></trkpt><trkpt lat="42.21563494455794" lon="8.821936963662225"><ele>958.0</ele><time>2026-05-01T16:29:35Z</time></trkpt><trkpt lat="42.21581253766295" lon="8.821898198410171"><ele>958.0</ele><time>2026-05-01T16:29:36Z</time></trkpt><trkpt lat="42.21598467039165" lon="8.821943033745697"><ele>965.0</ele><time>2026-05-01T16:29:37Z</time></trkpt><trkpt lat="42.21614332272142" lon="8.822037706242039"><ele>972.0</ele><time>2026-05-01T16:29:38Z</time></trkpt><trkpt lat="42.21625749745158" lon="8.822164797801197"><ele>979.0</ele><time>2026-05-01T16:29:39Z</time></trkpt><trkpt lat="42.21634265649525" lon="8.822321899215726"><ele>979.0</ele><time>2026-05-01T16:29:40Z</time></trkpt><trkpt lat="42.21642016789238" lon="8.822505130627741"><ele>979.0</ele><time>2026-05-01T16:29:41Z</time></trkpt><trkpt lat="42.21651480005916" lon="8.822666607913186"><ele>979.0</ele><time>2026-05-01T16:29:42Z</time></trkpt><trkpt lat="42.216638367481394" lon="8.82279485630778"><ele>980.0</ele><time>2026-05-01T16:29:43Z</time></trkpt><trkpt lat="42.216775385629326" lon="8.822889307097709"><ele>981.0</ele><time>2026-05-01T16:29:44Z</time></trkpt><trkpt lat="42.21692196242824" lon="8.822925790029846"><ele>982.0</ele><time>2026-05-01T16:29:45Z</time></trkpt><trkpt lat="42.217073560884735" lon="8.822896906542562"><ele>982.0</ele><time>2026-05-01T16:29:46Z</time></trkpt><trkpt lat="42.217223520285536" lon="8.822868807399473"><ele>982.0</ele><time>2026-05-01T16:29:47Z</time></trkpt><trkpt lat="42.217356365877166" lon="8.822918286559505"><ele>982.0</ele><time>2026-05-01T16:29:48Z</time></trkpt><trkpt lat="42.21747108620103" lon="8.823032070668697"><ele>982.0</ele><time>2026-05-01T16:29:49Z</time></trkpt><trkpt lat="42.21758004489293" lon="8.823184543615534"><ele>988.6666666666666</ele><time>2026-05-01T16:29:50Z</time></trkpt><trkpt lat="42.21769569368782" lon="8.823314855315829"><ele>995.3333333333333</ele><time>2026-05-01T16:29:51Z</time></trkpt><trkpt lat="42.2178329918224" lon="8.823401698446377"><ele>1002.0</ele><time>2026-05-01T16:29:52Z</time></trkpt><trkpt lat="42.21799246016201" lon="8.82343697975365"><ele>1003.0</ele><time>2026-05-01T16:29:53Z</time></trkpt><trkpt lat="42.21815616227151" lon="8.823472599490344"><ele>1004.0</ele><time>2026-05-01T16:29:54Z</time></trkpt><trkpt lat="42.21830982598746" lon="8.82357900847338"><ele>1005.0</ele><time>2026-05-01T16:29:55Z</time></trkpt><trkpt lat="42.218452334558314" lon="8.823738412718816"><ele>1005.0</ele><time>2026-05-01T16:29:55.999Z</time></trkpt><trkpt lat="42.21859850048955" lon="8.82390000782616"><ele>1005.0</ele><time>2026-05-01T16:29:56.999Z</time></trkpt><trkpt lat="42.21875336120955" lon="8.82404916162636"><ele>1005.0</ele><time>2026-05-01T16:29:57.999Z</time></trkpt><trkpt lat="42.21890483343876" lon="8.824201807510155"><ele>1009.3333333333333</ele><time>2026-05-01T16:29:58.999Z</time></trkpt><trkpt lat="42.21905071674833" lon="8.824366778778307"><ele>1013.6666666666666</ele><time>2026-05-01T16:29:59.999Z</time></trkpt><trkpt lat="42.219192358319965" lon="8.824538449171362"><ele>1018.0</ele><time>2026-05-01T16:30:00.999Z</time></trkpt><trkpt lat="42.219337040740314" lon="8.824710848601287"><ele>1018.0</ele><time>2026-05-01T16:30:01.999Z</time></trkpt><trkpt lat="42.21948730983557" lon="8.824883350455725"><ele>1018.0</ele><time>2026-05-01T16:30:02.999Z</time></trkpt><trkpt lat="42.21964520214943" lon="8.825059122642642"><ele>1018.0</ele><time>2026-05-01T16:30:03.999Z</time></trkpt><trkpt lat="42.21981107157813" lon="8.825246267223891"><ele>1024.0</ele><time>2026-05-01T16:30:04.999Z</time></trkpt><trkpt lat="42.21997888787671" lon="8.825441470268897"><ele>1030.0</ele><time>2026-05-01T16:30:05.999Z</time></trkpt><trkpt lat="42.22014980455908" lon="8.82563603715459"><ele>1036.0</ele><time>2026-05-01T16:30:06.999Z</time></trkpt><trkpt lat="42.2203099386635" lon="8.825821770170606"><ele>1032.0</ele><time>2026-05-01T16:30:07.999Z</time></trkpt><trkpt lat="42.220464485534265" lon="8.826005329119639"><ele>1028.0</ele><time>2026-05-01T16:30:08.999Z</time></trkpt><trkpt lat="42.22062177217802" lon="8.826186673552677"><ele>1024.0</ele><time>2026-05-01T16:30:09.999Z</time></trkpt><trkpt lat="42.220775501237135" lon="8.826361839086188"><ele>1028.6666666666665</ele><time>2026-05-01T16:30:10.999Z</time></trkpt><trkpt lat="42.220928127844125" lon="8.82653754950383"><ele>1033.3333333333333</ele><time>2026-05-01T16:30:11.999Z</time></trkpt><trkpt lat="42.22107471952991" lon="8.826704680069138"><ele>1038.0</ele><time>2026-05-01T16:30:12.999Z</time></trkpt><trkpt lat="42.22121057550077" lon="8.826856505275726"><ele>1038.0</ele><time>2026-05-01T16:30:13.999Z</time></trkpt><trkpt lat="42.22133488030049" lon="8.826986302057753"><ele>1038.0</ele><time>2026-05-01T16:30:14.999Z</time></trkpt><trkpt lat="42.22145716016899" lon="8.82708884352379"><ele>1038.0</ele><time>2026-05-01T16:30:15.999Z</time></trkpt><trkpt lat="42.22159021851174" lon="8.827137173415542"><ele>1038.0</ele><time>2026-05-01T16:30:16.999Z</time></trkpt><trkpt lat="42.221714873333156" lon="8.827178291982381"><ele>1044.25</ele><time>2026-05-01T16:30:17.999Z</time></trkpt><trkpt lat="42.221811617602825" lon="8.827279014840684"><ele>1050.5</ele><time>2026-05-01T16:30:18.999Z</time></trkpt><trkpt lat="42.22186325432854" lon="8.82744105594429"><ele>1056.75</ele><time>2026-05-01T16:30:19.999Z</time></trkpt><trkpt lat="42.221882218185215" lon="8.827641628171191"><ele>1063.0</ele><time>2026-05-01T16:30:20.999Z</time></trkpt><trkpt lat="42.221914584451845" lon="8.827847694614151"><ele>1063.0</ele><time>2026-05-01T16:30:21.999Z</time></trkpt><trkpt lat="42.2219697907336" lon="8.828048768149054"><ele>1063.0</ele><time>2026-05-01T16:30:22.999Z</time></trkpt><trkpt lat="42.22201901454686" lon="8.82825629535401"><ele>1063.0</ele><time>2026-05-01T16:30:23.999Z</time></trkpt><trkpt lat="42.222051189289004" lon="8.828477155123124"><ele>1063.6666666666665</ele><time>2026-05-01T16:30:24.999Z</time></trkpt><trkpt lat="42.22208694811659" lon="8.828686302918392"><ele>1064.3333333333333</ele><time>2026-05-01T16:30:25.999Z</time></trkpt><trkpt lat="42.22215528506279" lon="8.82886825360278"><ele>1065.0</ele><time>2026-05-01T16:30:26.999Z</time></trkpt><trkpt lat="42.22227554750561" lon="8.829005764354415"><ele>1074.3333333333333</ele><time>2026-05-01T16:30:27.999Z</time></trkpt><trkpt lat="42.222414184691765" lon="8.829136355775063"><ele>1083.6666666666665</ele><time>2026-05-01T16:30:28.999Z</time></trkpt><trkpt lat="42.22252396109683" lon="8.82930905901006"><ele>1093.0</ele><time>2026-05-01T16:30:29.999Z</time></trkpt><trkpt lat="42.22261282673512" lon="8.829502675125005"><ele>1095.3333333333333</ele><time>2026-05-01T16:30:30.999Z</time></trkpt><trkpt lat="42.22270501874012" lon="8.829675771462993"><ele>1097.6666666666667</ele><time>2026-05-01T16:30:31.999Z</time></trkpt><trkpt lat="42.2228240696686" lon="8.829797997964565"><ele>1100.0</ele><time>2026-05-01T16:30:32.999Z</time></trkpt><trkpt lat="42.22296984762841" lon="8.829859433582998"><ele>1100.0</ele><time>2026-05-01T16:30:33.999Z</time></trkpt><trkpt lat="42.223135382860306" lon="8.829858191943908"><ele>1100.0</ele><time>2026-05-01T16:30:34.999Z</time></trkpt><trkpt lat="42.223311026795855" lon="8.829861774302257"><ele>1100.0</ele><time>2026-05-01T16:30:35.999Z</time></trkpt><trkpt lat="42.223479703866346" lon="8.829884035134132"><ele>1099.0</ele><time>2026-05-01T16:30:36.999Z</time></trkpt><trkpt lat="42.22365498501599" lon="8.829925625195639"><ele>1098.0</ele><time>2026-05-01T16:30:37.999Z</time></trkpt><trkpt lat="42.22383310018677" lon="8.829977659043942"><ele>1097.0</ele><time>2026-05-01T16:30:38.999Z</time></trkpt><trkpt lat="42.223991191585206" lon="8.830055433339222"><ele>1098.3333333333335</ele><time>2026-05-01T16:30:39.999Z</time></trkpt><trkpt lat="42.2241363120458" lon="8.830175967782672"><ele>1099.6666666666667</ele><time>2026-05-01T16:30:40.999Z</time></trkpt><trkpt lat="42.22426971909542" lon="8.830341692739058"><ele>1101.0</ele><time>2026-05-01T16:30:41.999Z</time></trkpt><trkpt lat="42.22439572822448" lon="8.83050651500157"><ele>1101.0</ele><time>2026-05-01T16:30:42.999Z</time></trkpt><trkpt lat="42.224513199852616" lon="8.830660895416479"><ele>1101.0</ele><time>2026-05-01T16:30:43.999Z</time></trkpt><trkpt lat="42.224628425532494" lon="8.830808363676473"><ele>1101.0</ele><time>2026-05-01T16:30:44.998Z</time></trkpt><trkpt lat="42.2247286681015" lon="8.830985622747766"><ele>1103.0</ele><time>2026-05-01T16:30:45.998Z</time></trkpt><trkpt lat="42.22479906795193" lon="8.831184384542558"><ele>1105.0</ele><time>2026-05-01T16:30:46.998Z</time></trkpt><trkpt lat="42.22484248160747" lon="8.831420027022936"><ele>1107.0</ele><time>2026-05-01T16:30:47.998Z</time></trkpt><trkpt lat="42.224874589362116" lon="8.831661339938487"><ele>1099.6666666666667</ele><time>2026-05-01T16:30:48.998Z</time></trkpt><trkpt lat="42.224905173878746" lon="8.831914243789505"><ele>1092.3333333333335</ele><time>2026-05-01T16:30:49.998Z</time></trkpt><trkpt lat="42.224946755212244" lon="8.832145489111978"><ele>1085.0</ele><time>2026-05-01T16:30:50.998Z</time></trkpt><trkpt lat="42.22499865285159" lon="8.832356102316266"><ele>1085.0</ele><time>2026-05-01T16:30:51.998Z</time></trkpt><trkpt lat="42.2250689479681" lon="8.83255519901984"><ele>1085.0</ele><time>2026-05-01T16:30:52.998Z</time></trkpt><trkpt lat="42.2251686076179" lon="8.83273480004415"><ele>1085.0</ele><time>2026-05-01T16:30:53.998Z</time></trkpt><trkpt lat="42.225307553625264" lon="8.832850950908382"><ele>1087.6666666666667</ele><time>2026-05-01T16:30:54.998Z</time></trkpt><trkpt lat="42.22545592987873" lon="8.832924691232439"><ele>1090.3333333333333</ele><time>2026-05-01T16:30:55.998Z</time></trkpt><trkpt lat="42.22560378143497" lon="8.832972355364662"><ele>1093.0</ele><time>2026-05-01T16:30:56.998Z</time></trkpt><trkpt lat="42.22573239229691" lon="8.833057566119944"><ele>1087.5</ele><time>2026-05-01T16:30:57.998Z</time></trkpt><trkpt lat="42.225817553070435" lon="8.833198644149123"><ele>1082.0</ele><time>2026-05-01T16:30:58.998Z</time></trkpt><trkpt lat="42.225839544191665" lon="8.833389189641553"><ele>1076.5</ele><time>2026-05-01T16:30:59.998Z</time></trkpt><trkpt lat="42.22580087179707" lon="8.833603087206189"><ele>1071.0</ele><time>2026-05-01T16:31:00.998Z</time></trkpt><trkpt lat="42.225747800093586" lon="8.833814566832347"><ele>1070.3333333333333</ele><time>2026-05-01T16:31:01.998Z</time></trkpt><trkpt lat="42.2257173970116" lon="8.83404086593288"><ele>1069.6666666666665</ele><time>2026-05-01T16:31:02.998Z</time></trkpt><trkpt lat="42.22573307271735" lon="8.834282787447032"><ele>1069.0</ele><time>2026-05-01T16:31:03.998Z</time></trkpt><trkpt lat="42.225786636900445" lon="8.834521744589853"><ele>1068.6666666666665</ele><time>2026-05-01T16:31:04.998Z</time></trkpt><trkpt lat="42.22585112871996" lon="8.834763498210211"><ele>1068.3333333333333</ele><time>2026-05-01T16:31:05.998Z</time></trkpt><trkpt lat="42.22590054694415" lon="8.83500687189136"><ele>1068.0</ele><time>2026-05-01T16:31:06.998Z</time></trkpt><trkpt lat="42.22591683960362" lon="8.835260327165749"><ele>1066.6666666666667</ele><time>2026-05-01T16:31:07.998Z</time></trkpt><trkpt lat="42.225922600645674" lon="8.835505439111488"><ele>1065.3333333333335</ele><time>2026-05-01T16:31:08.998Z</time></trkpt><trkpt lat="42.225938273796764" lon="8.835739879820427"><ele>1064.0</ele><time>2026-05-01T16:31:09.998Z</time></trkpt><trkpt lat="42.22596146294535" lon="8.835961516235887"><ele>1062.0</ele><time>2026-05-01T16:31:10.998Z</time></trkpt><trkpt lat="42.225949200330014" lon="8.836135450933352"><ele>1060.0</ele><time>2026-05-01T16:31:11.998Z</time></trkpt><trkpt lat="42.22588777417122" lon="8.836280400727006"><ele>1058.0</ele><time>2026-05-01T16:31:12.998Z</time></trkpt><trkpt lat="42.22578107539411" lon="8.836421997937737"><ele>1056.0</ele><time>2026-05-01T16:31:13.998Z</time></trkpt><trkpt lat="42.225676264513844" lon="8.836567714426565"><ele>1056.25</ele><time>2026-05-01T16:31:14.998Z</time></trkpt><trkpt lat="42.22562226724911" lon="8.836734932262507"><ele>1056.5</ele><time>2026-05-01T16:31:15.998Z</time></trkpt><trkpt lat="42.22564770188041" lon="8.836907807327723"><ele>1056.75</ele><time>2026-05-01T16:31:16.998Z</time></trkpt><trkpt lat="42.225720207784555" lon="8.837072026136774"><ele>1057.0</ele><time>2026-05-01T16:31:17.998Z</time></trkpt><trkpt lat="42.225840451198934" lon="8.837216987602707"><ele>1057.0</ele><time>2026-05-01T16:31:19Z</time></trkpt><trkpt lat="42.22598839494198" lon="8.837360693854421"><ele>1057.0</ele><time>2026-05-01T16:31:20Z</time></trkpt><trkpt lat="42.2261282942078" lon="8.83752590866923"><ele>1057.0</ele><time>2026-05-01T16:31:21Z</time></trkpt><trkpt lat="42.2262691154054" lon="8.837708743928722"><ele>1061.0</ele><time>2026-05-01T16:31:22Z</time></trkpt><trkpt lat="42.22641322288444" lon="8.837889922986793"><ele>1065.0</ele><time>2026-05-01T16:31:23Z</time></trkpt><trkpt lat="42.226554853829136" lon="8.838067455627138"><ele>1069.0</ele><time>2026-05-01T16:31:24Z</time></trkpt><trkpt lat="42.22667600124253" lon="8.83825596920968"><ele>1060.3333333333333</ele><time>2026-05-01T16:31:25Z</time></trkpt><trkpt lat="42.22677516758283" lon="8.838465182201151"><ele>1051.6666666666667</ele><time>2026-05-01T16:31:26Z</time></trkpt><trkpt lat="42.226837783195634" lon="8.83869724295767"><ele>1043.0</ele><time>2026-05-01T16:31:27Z</time></trkpt><trkpt lat="42.22687193725242" lon="8.838940656677954"><ele>1043.0</ele><time>2026-05-01T16:31:28Z</time></trkpt><trkpt lat="42.22688251525518" lon="8.839195899705452"><ele>1043.0</ele><time>2026-05-01T16:31:29Z</time></trkpt><trkpt lat="42.22689530400878" lon="8.839443141031479"><ele>1043.0</ele><time>2026-05-01T16:31:30Z</time></trkpt><trkpt lat="42.2269266310478" lon="8.839680540404347"><ele>1043.6666666666667</ele><time>2026-05-01T16:31:31Z</time></trkpt><trkpt lat="42.226974454624596" lon="8.839901711767581"><ele>1044.3333333333333</ele><time>2026-05-01T16:31:32Z</time></trkpt><trkpt lat="42.2270310988686" lon="8.840107413255428"><ele>1045.0</ele><time>2026-05-01T16:31:33Z</time></trkpt><trkpt lat="42.22711174069619" lon="8.840294832346542"><ele>1040.0</ele><time>2026-05-01T16:31:34Z</time></trkpt><trkpt lat="42.227229386943606" lon="8.840462402006704"><ele>1035.0</ele><time>2026-05-01T16:31:35Z</time></trkpt><trkpt lat="42.227371843066834" lon="8.840594004809255"><ele>1030.0</ele><time>2026-05-01T16:31:36Z</time></trkpt><trkpt lat="42.22752907651918" lon="8.840690445801345"><ele>1030.0</ele><time>2026-05-01T16:31:37Z</time></trkpt><trkpt lat="42.2276979179404" lon="8.84074759710145"><ele>1030.0</ele><time>2026-05-01T16:31:38Z</time></trkpt><trkpt lat="42.22787098374736" lon="8.840773266090407"><ele>1030.0</ele><time>2026-05-01T16:31:39Z</time></trkpt><trkpt lat="42.22803499672388" lon="8.840793207510892"><ele>1031.0</ele><time>2026-05-01T16:31:40Z</time></trkpt><trkpt lat="42.22818850049292" lon="8.840852626256847"><ele>1032.0</ele><time>2026-05-01T16:31:41Z</time></trkpt><trkpt lat="42.228330149465435" lon="8.840957127200998"><ele>1033.0</ele><time>2026-05-01T16:31:42Z</time></trkpt><trkpt lat="42.2284660362755" lon="8.841104525531556"><ele>1033.0</ele><time>2026-05-01T16:31:43Z</time></trkpt><trkpt lat="42.22860024785099" lon="8.841252917787106"><ele>1033.0</ele><time>2026-05-01T16:31:44Z</time></trkpt><trkpt lat="42.22870421707596" lon="8.841428978437854"><ele>1033.0</ele><time>2026-05-01T16:31:45Z</time></trkpt><trkpt lat="42.228751681432676" lon="8.841636119545813"><ele>1036.6666666666665</ele><time>2026-05-01T16:31:46Z</time></trkpt><trkpt lat="42.22877532070696" lon="8.841875764929217"><ele>1040.3333333333333</ele><time>2026-05-01T16:31:47Z</time></trkpt><trkpt lat="42.22880597426359" lon="8.842121058628415"><ele>1044.0</ele><time>2026-05-01T16:31:48Z</time></trkpt><trkpt lat="42.22887993799427" lon="8.842342961904121"><ele>1031.0</ele><time>2026-05-01T16:31:49Z</time></trkpt><trkpt lat="42.22899459298125" lon="8.842544158531616"><ele>1018.0</ele><time>2026-05-01T16:31:50Z</time></trkpt><trkpt lat="42.229101958396306" lon="8.842715616829679"><ele>1005.0</ele><time>2026-05-01T16:31:51Z</time></trkpt><trkpt lat="42.2291892213365" lon="8.842892437490518"><ele>1005.0</ele><time>2026-05-01T16:31:52Z</time></trkpt><trkpt lat="42.229246488908316" lon="8.843081310071764"><ele>1005.0</ele><time>2026-05-01T16:31:53Z</time></trkpt><trkpt lat="42.22926796490267" lon="8.843284943827763"><ele>1005.0</ele><time>2026-05-01T16:31:54Z</time></trkpt><trkpt lat="42.229254895515794" lon="8.843509857061209"><ele>1004.3333333333333</ele><time>2026-05-01T16:31:55Z</time></trkpt><trkpt lat="42.229227459756274" lon="8.843748835634202"><ele>1003.6666666666666</ele><time>2026-05-01T16:31:56Z</time></trkpt><trkpt lat="42.22921224733555" lon="8.84398828198497"><ele>1003.0</ele><time>2026-05-01T16:31:57Z</time></trkpt><trkpt lat="42.22921385639332" lon="8.844224730397618"><ele>997.3333333333333</ele><time>2026-05-01T16:31:57.999Z</time></trkpt><trkpt lat="42.22919625501206" lon="8.844443453107456"><ele>991.6666666666667</ele><time>2026-05-01T16:31:58.999Z</time></trkpt><trkpt lat="42.22915394845432" lon="8.844657157106612"><ele>986.0</ele><time>2026-05-01T16:31:59.999Z</time></trkpt><trkpt lat="42.229073461858874" lon="8.844848516794714"><ele>995.0</ele><time>2026-05-01T16:32:00.999Z</time></trkpt><trkpt lat="42.228974135625464" lon="8.845034010754835"><ele>1004.0</ele><time>2026-05-01T16:32:01.999Z</time></trkpt><trkpt lat="42.22887458636855" lon="8.845214626779402"><ele>1013.0</ele><time>2026-05-01T16:32:02.999Z</time></trkpt><trkpt lat="42.22880102071543" lon="8.845408049390187"><ele>1013.0</ele><time>2026-05-01T16:32:03.999Z</time></trkpt><trkpt lat="42.22878391894867" lon="8.84561991240321"><ele>1013.0</ele><time>2026-05-01T16:32:04.999Z</time></trkpt><trkpt lat="42.228808400619066" lon="8.845856483823923"><ele>1013.0</ele><time>2026-05-01T16:32:05.999Z</time></trkpt><trkpt lat="42.228868701779554" lon="8.846087887226219"><ele>1015.0</ele><time>2026-05-01T16:32:06.999Z</time></trkpt><trkpt lat="42.228911913636836" lon="8.846323801577443"><ele>1017.0</ele><time>2026-05-01T16:32:07.999Z</time></trkpt><trkpt lat="42.22892545671277" lon="8.846546520406738"><ele>1019.0</ele><time>2026-05-01T16:32:08.999Z</time></trkpt><trkpt lat="42.228925055377104" lon="8.84674895213656"><ele>1019.75</ele><time>2026-05-01T16:32:09.999Z</time></trkpt><trkpt lat="42.22896829656556" lon="8.846931772374742"><ele>1020.5</ele><time>2026-05-01T16:32:10.999Z</time></trkpt><trkpt lat="42.229060857136155" lon="8.847070360105318"><ele>1021.25</ele><time>2026-05-01T16:32:11.999Z</time></trkpt><trkpt lat="42.22920252986664" lon="8.847166239347473"><ele>1022.0</ele><time>2026-05-01T16:32:12.999Z</time></trkpt><trkpt lat="42.22937104243003" lon="8.847204489397345"><ele>1018.3333333333334</ele><time>2026-05-01T16:32:13.999Z</time></trkpt><trkpt lat="42.22955322973446" lon="8.847180844568173"><ele>1014.6666666666667</ele><time>2026-05-01T16:32:14.999Z</time></trkpt><trkpt lat="42.22974868419159" lon="8.847144396985042"><ele>1011.0</ele><time>2026-05-01T16:32:15.999Z</time></trkpt><trkpt lat="42.22993391140128" lon="8.84711888209494"><ele>1010.0</ele><time>2026-05-01T16:32:16.999Z</time></trkpt><trkpt lat="42.23011316122738" lon="8.847122455529403"><ele>1009.0</ele><time>2026-05-01T16:32:17.999Z</time></trkpt><trkpt lat="42.23029420044927" lon="8.847151201527643"><ele>1008.0</ele><time>2026-05-01T16:32:18.999Z</time></trkpt><trkpt lat="42.230476962823445" lon="8.847206553983893"><ele>1004.6666666666667</ele><time>2026-05-01T16:32:19.999Z</time></trkpt><trkpt lat="42.230652758713774" lon="8.847271478527418"><ele>1001.3333333333334</ele><time>2026-05-01T16:32:20.999Z</time></trkpt><trkpt lat="42.230829530956754" lon="8.847325003347557"><ele>998.0</ele><time>2026-05-01T16:32:21.999Z</time></trkpt><trkpt lat="42.230991927745876" lon="8.847375150654923"><ele>998.0</ele><time>2026-05-01T16:32:22.999Z</time></trkpt><trkpt lat="42.23113459911922" lon="8.84745125530362"><ele>998.0</ele><time>2026-05-01T16:32:23.999Z</time></trkpt><trkpt lat="42.23125231295162" lon="8.847595820666244"><ele>998.0</ele><time>2026-05-01T16:32:24.999Z</time></trkpt><trkpt lat="42.23135418938564" lon="8.847770043743528"><ele>995.0</ele><time>2026-05-01T16:32:25.999Z</time></trkpt><trkpt lat="42.23142507767475" lon="8.847971578079568"><ele>992.0</ele><time>2026-05-01T16:32:26.999Z</time></trkpt><trkpt lat="42.231497199735216" lon="8.848174575479755"><ele>989.0</ele><time>2026-05-01T16:32:27.999Z</time></trkpt><trkpt lat="42.23156149225532" lon="8.84839320673021"><ele>990.3333333333334</ele><time>2026-05-01T16:32:28.999Z</time></trkpt><trkpt lat="42.231613626426714" lon="8.848627730805944"><ele>991.6666666666667</ele><time>2026-05-01T16:32:29.999Z</time></trkpt><trkpt lat="42.23162419892298" lon="8.84888030945747"><ele>993.0</ele><time>2026-05-01T16:32:30.999Z</time></trkpt><trkpt lat="42.23160894718581" lon="8.849135309153368"><ele>993.6666666666667</ele><time>2026-05-01T16:32:31.999Z</time></trkpt><trkpt lat="42.23158733955768" lon="8.849387857094673"><ele>994.3333333333334</ele><time>2026-05-01T16:32:32.999Z</time></trkpt><trkpt lat="42.231602252450195" lon="8.84964150731222"><ele>995.0</ele><time>2026-05-01T16:32:33.999Z</time></trkpt><trkpt lat="42.23166287305234" lon="8.849892265911683"><ele>996.0</ele><time>2026-05-01T16:32:34.999Z</time></trkpt><trkpt lat="42.23172468371804" lon="8.850137588519045"><ele>997.0</ele><time>2026-05-01T16:32:35.999Z</time></trkpt><trkpt lat="42.23178929236409" lon="8.850377802334684"><ele>998.0</ele><time>2026-05-01T16:32:36.999Z</time></trkpt><trkpt lat="42.23183711556437" lon="8.850629142146598"><ele>998.0</ele><time>2026-05-01T16:32:37.999Z</time></trkpt><trkpt lat="42.23187510032896" lon="8.850880848205602"><ele>998.0</ele><time>2026-05-01T16:32:38.999Z</time></trkpt><trkpt lat="42.23189602266233" lon="8.851124167253081"><ele>998.0</ele><time>2026-05-01T16:32:39.999Z</time></trkpt><trkpt lat="42.23188812668466" lon="8.8513453757076"><ele>994.6666666666667</ele><time>2026-05-01T16:32:40.999Z</time></trkpt><trkpt lat="42.23183965889962" lon="8.851568640688953"><ele>991.3333333333333</ele><time>2026-05-01T16:32:41.999Z</time></trkpt><trkpt lat="42.23177781001557" lon="8.85178371385307"><ele>988.0</ele><time>2026-05-01T16:32:42.999Z</time></trkpt><trkpt lat="42.23170363788895" lon="8.85198256370533"><ele>989.0</ele><time>2026-05-01T16:32:43.999Z</time></trkpt><trkpt lat="42.231632426393695" lon="8.852164130709587"><ele>990.0</ele><time>2026-05-01T16:32:44.999Z</time></trkpt><trkpt lat="42.23158650840447" lon="8.852352210983641"><ele>991.0</ele><time>2026-05-01T16:32:45.998Z</time></trkpt><trkpt lat="42.23158779141781" lon="8.852551165969716"><ele>992.0</ele><time>2026-05-01T16:32:46.998Z</time></trkpt><trkpt lat="42.23164193848428" lon="8.852749730425106"><ele>992.0</ele><time>2026-05-01T16:32:47.998Z</time></trkpt><trkpt lat="42.231723701099206" lon="8.8529572384183"><ele>992.0</ele><time>2026-05-01T16:32:48.998Z</time></trkpt><trkpt lat="42.23183285326455" lon="8.853175347514789"><ele>992.0</ele><time>2026-05-01T16:32:49.998Z</time></trkpt><trkpt lat="42.23193911446612" lon="8.853405462736273"><ele>996.0</ele><time>2026-05-01T16:32:50.998Z</time></trkpt><trkpt lat="42.23202506179283" lon="8.85363993609435"><ele>1000.0</ele><time>2026-05-01T16:32:51.998Z</time></trkpt><trkpt lat="42.23210176531658" lon="8.853862346154084"><ele>1004.0</ele><time>2026-05-01T16:32:52.998Z</time></trkpt><trkpt lat="42.23215810133142" lon="8.854083220220708"><ele>1007.6666666666667</ele><time>2026-05-01T16:32:53.998Z</time></trkpt><trkpt lat="42.23220791496579" lon="8.854301295839083"><ele>1011.3333333333333</ele><time>2026-05-01T16:32:54.998Z</time></trkpt><trkpt lat="42.23228736221977" lon="8.854501136954337"><ele>1015.0</ele><time>2026-05-01T16:32:55.998Z</time></trkpt><trkpt lat="42.23241547966299" lon="8.854682925916833"><ele>1004.6666666666666</ele><time>2026-05-01T16:32:56.998Z</time></trkpt><trkpt lat="42.232562571464115" lon="8.85483790966621"><ele>994.3333333333333</ele><time>2026-05-01T16:32:57.998Z</time></trkpt><trkpt lat="42.2326704031" lon="8.855007669012155"><ele>984.0</ele><time>2026-05-01T16:32:58.998Z</time></trkpt><trkpt lat="42.23274954457077" lon="8.85520328433996"><ele>984.0</ele><time>2026-05-01T16:32:59.998Z</time></trkpt><trkpt lat="42.23280004010087" lon="8.855406135951277"><ele>984.0</ele><time>2026-05-01T16:33:00.998Z</time></trkpt><trkpt lat="42.232869798597974" lon="8.855591207405327"><ele>984.0</ele><time>2026-05-01T16:33:01.998Z</time></trkpt><trkpt lat="42.232967152399546" lon="8.85572311904763"><ele>984.0</ele><time>2026-05-01T16:33:02.998Z</time></trkpt><trkpt lat="42.23308523398502" lon="8.8557943009287"><ele>984.0</ele><time>2026-05-01T16:33:03.998Z</time></trkpt><trkpt lat="42.23322588763933" lon="8.85579195194787"><ele>984.0</ele><time>2026-05-01T16:33:04.998Z</time></trkpt><trkpt lat="42.23336579698774" lon="8.85575450220276"><ele>984.0</ele><time>2026-05-01T16:33:05.998Z</time></trkpt><trkpt lat="42.233499766771686" lon="8.855738834189255"><ele>977.5</ele><time>2026-05-01T16:33:06.998Z</time></trkpt><trkpt lat="42.23361908497502" lon="8.855810601512246"><ele>971.0</ele><time>2026-05-01T16:33:07.998Z</time></trkpt><trkpt lat="42.23370614544173" lon="8.855973576269195"><ele>964.5</ele><time>2026-05-01T16:33:08.998Z</time></trkpt><trkpt lat="42.23376400023172" lon="8.856164091336096"><ele>958.0</ele><time>2026-05-01T16:33:09.998Z</time></trkpt><trkpt lat="42.23376930523685" lon="8.856371689396987"><ele>958.0</ele><time>2026-05-01T16:33:10.998Z</time></trkpt><trkpt lat="42.23373176130064" lon="8.856540211377277"><ele>958.0</ele><time>2026-05-01T16:33:11.998Z</time></trkpt><trkpt lat="42.23372539316725" lon="8.856717742379473"><ele>958.0</ele><time>2026-05-01T16:33:12.998Z</time></trkpt><trkpt lat="42.23376850120694" lon="8.856838511443216"><ele>958.0</ele><time>2026-05-01T16:33:13.998Z</time></trkpt><trkpt lat="42.23386461123489" lon="8.856898909766585"><ele>954.75</ele><time>2026-05-01T16:33:14.998Z</time></trkpt><trkpt lat="42.23397260967619" lon="8.85688257955242"><ele>951.5</ele><time>2026-05-01T16:33:15.998Z</time></trkpt><trkpt lat="42.23407332999281" lon="8.85678448556917"><ele>948.25</ele><time>2026-05-01T16:33:16.998Z</time></trkpt><trkpt lat="42.23409679167503" lon="8.85662121911624"><ele>945.0</ele><time>2026-05-01T16:33:17.998Z</time></trkpt><trkpt lat="42.23406543829358" lon="8.856454904390493"><ele>945.0</ele><time>2026-05-01T16:33:18.998Z</time></trkpt><trkpt lat="42.23399400406744" lon="8.856262414284462"><ele>945.0</ele><time>2026-05-01T16:33:19.998Z</time></trkpt><trkpt lat="42.23392900669457" lon="8.856058659323104"><ele>945.0</ele><time>2026-05-01T16:33:20.998Z</time></trkpt><trkpt lat="42.23387434636224" lon="8.855849730987092"><ele>947.6666666666667</ele><time>2026-05-01T16:33:21.998Z</time></trkpt><trkpt lat="42.233810648968465" lon="8.855630251354203"><ele>950.3333333333334</ele><time>2026-05-01T16:33:22.998Z</time></trkpt><trkpt lat="42.23371769120779" lon="8.85542990279468"><ele>953.0</ele><time>2026-05-01T16:33:23.998Z</time></trkpt><trkpt lat="42.23360797226066" lon="8.85526892399491"><ele>953.0</ele><time>2026-05-01T16:33:25Z</time></trkpt><trkpt lat="42.23345578450931" lon="8.855173858713968"><ele>953.0</ele><time>2026-05-01T16:33:26Z</time></trkpt><trkpt lat="42.2332933446328" lon="8.855070897987003"><ele>953.0</ele><time>2026-05-01T16:33:27Z</time></trkpt><trkpt lat="42.23316684361041" lon="8.854912724535508"><ele>958.0</ele><time>2026-05-01T16:33:28Z</time></trkpt><trkpt lat="42.23308301170062" lon="8.854706979378008"><ele>963.0</ele><time>2026-05-01T16:33:29Z</time></trkpt><trkpt lat="42.23300390986786" lon="8.854523159171572"><ele>968.0</ele><time>2026-05-01T16:33:30Z</time></trkpt><trkpt lat="42.232915854834054" lon="8.854363964964978"><ele>964.0</ele><time>2026-05-01T16:33:31Z</time></trkpt><trkpt lat="42.23285625910173" lon="8.854200795695595"><ele>960.0</ele><time>2026-05-01T16:33:32Z</time></trkpt><trkpt lat="42.23285081377482" lon="8.854031808306528"><ele>956.0</ele><time>2026-05-01T16:33:33Z</time></trkpt><trkpt lat="42.232910477550995" lon="8.8538823417911"><ele>952.0</ele><time>2026-05-01T16:33:34Z</time></trkpt><trkpt lat="42.23299121326648" lon="8.85375041114074"><ele>952.0</ele><time>2026-05-01T16:33:35Z</time></trkpt><trkpt lat="42.233032429770674" lon="8.853600819393531"><ele>952.0</ele><time>2026-05-01T16:33:36Z</time></trkpt><trkpt lat="42.23301346005902" lon="8.853435321202495"><ele>952.0</ele><time>2026-05-01T16:33:37Z</time></trkpt><trkpt lat="42.23296203487313" lon="8.853253067735555"><ele>952.0</ele><time>2026-05-01T16:33:38Z</time></trkpt><trkpt lat="42.23292964679541" lon="8.853048718038906"><ele>949.3333333333333</ele><time>2026-05-01T16:33:39Z</time></trkpt><trkpt lat="42.232928769589094" lon="8.852832421833707"><ele>946.6666666666667</ele><time>2026-05-01T16:33:40Z</time></trkpt><trkpt lat="42.23294593834396" lon="8.852592201301855"><ele>944.0</ele><time>2026-05-01T16:33:41Z</time></trkpt><trkpt lat="42.232955540438425" lon="8.852363454184793"><ele>944.3333333333334</ele><time>2026-05-01T16:33:42Z</time></trkpt><trkpt lat="42.232961303115715" lon="8.852150609258183"><ele>944.6666666666667</ele><time>2026-05-01T16:33:43Z</time></trkpt><trkpt lat="42.232988979789646" lon="8.851943856375744"><ele>945.0</ele><time>2026-05-01T16:33:44Z</time></trkpt><trkpt lat="42.233056307018664" lon="8.851763829364279"><ele>945.0</ele><time>2026-05-01T16:33:45Z</time></trkpt><trkpt lat="42.23313692207497" lon="8.851601757492618"><ele>945.0</ele><time>2026-05-01T16:33:46Z</time></trkpt><trkpt lat="42.233204121661096" lon="8.851434714265936"><ele>945.0</ele><time>2026-05-01T16:33:47Z</time></trkpt><trkpt lat="42.23325119453229" lon="8.851223677289651"><ele>945.0</ele><time>2026-05-01T16:33:48Z</time></trkpt><trkpt lat="42.233246142979404" lon="8.850985264080977"><ele>931.6666666666667</ele><time>2026-05-01T16:33:49Z</time></trkpt><trkpt lat="42.23322470918413" lon="8.8507431657268"><ele>918.3333333333334</ele><time>2026-05-01T16:33:50Z</time></trkpt><trkpt lat="42.2332063522183" lon="8.850514833288818"><ele>905.0</ele><time>2026-05-01T16:33:51Z</time></trkpt><trkpt lat="42.23320943463551" lon="8.850299797312315"><ele>906.25</ele><time>2026-05-01T16:33:52Z</time></trkpt><trkpt lat="42.233242313840776" lon="8.850116134333692"><ele>907.5</ele><time>2026-05-01T16:33:53Z</time></trkpt><trkpt lat="42.23330875292109" lon="8.84994407289443"><ele>908.75</ele><time>2026-05-01T16:33:54Z</time></trkpt><trkpt lat="42.23339812578306" lon="8.849802388986793"><ele>910.0</ele><time>2026-05-01T16:33:55Z</time></trkpt><trkpt lat="42.233514464449385" lon="8.849705390313186"><ele>910.0</ele><time>2026-05-01T16:33:56Z</time></trkpt><trkpt lat="42.233637669299924" lon="8.849641783395644"><ele>910.0</ele><time>2026-05-01T16:33:57Z</time></trkpt><trkpt lat="42.23374149378696" lon="8.849551474478327"><ele>910.0</ele><time>2026-05-01T16:33:58Z</time></trkpt><trkpt lat="42.23380440261505" lon="8.84941607484631"><ele>910.0</ele><time>2026-05-01T16:33:59Z</time></trkpt><trkpt lat="42.23382752220317" lon="8.84923169780424"><ele>913.6666666666666</ele><time>2026-05-01T16:34:00Z</time></trkpt><trkpt lat="42.23384484737999" lon="8.849024334846503"><ele>917.3333333333333</ele><time>2026-05-01T16:34:01Z</time></trkpt><trkpt lat="42.2338753934161" lon="8.848809524204977"><ele>921.0</ele><time>2026-05-01T16:34:01.999Z</time></trkpt><trkpt lat="42.233913800863405" lon="8.848596796447609"><ele>921.3333333333333</ele><time>2026-05-01T16:34:02.999Z</time></trkpt><trkpt lat="42.233953704655434" lon="8.848380930783348"><ele>921.6666666666666</ele><time>2026-05-01T16:34:03.999Z</time></trkpt><trkpt lat="42.233985601030476" lon="8.848165915563381"><ele>922.0</ele><time>2026-05-01T16:34:04.999Z</time></trkpt><trkpt lat="42.23401914050562" lon="8.847968584428376"><ele>911.3333333333333</ele><time>2026-05-01T16:34:05.999Z</time></trkpt><trkpt lat="42.23403363559039" lon="8.847768715441456"><ele>900.6666666666667</ele><time>2026-05-01T16:34:06.999Z</time></trkpt><trkpt lat="42.23404244367286" lon="8.847573354911578"><ele>890.0</ele><time>2026-05-01T16:34:07.999Z</time></trkpt><trkpt lat="42.23403745892534" lon="8.847351685549476"><ele>888.6666666666667</ele><time>2026-05-01T16:34:08.999Z</time></trkpt><trkpt lat="42.234012890517995" lon="8.847141647910052"><ele>887.3333333333333</ele><time>2026-05-01T16:34:09.999Z</time></trkpt><trkpt lat="42.23396639244553" lon="8.846948871992604"><ele>886.0</ele><time>2026-05-01T16:34:10.999Z</time></trkpt><trkpt lat="42.233879139649595" lon="8.846783672892231"><ele>888.8</ele><time>2026-05-01T16:34:11.999Z</time></trkpt><trkpt lat="42.233767521946994" lon="8.846654535993485"><ele>891.5999999999999</ele><time>2026-05-01T16:34:12.999Z</time></trkpt><trkpt lat="42.233676201950125" lon="8.846538743032673"><ele>894.4</ele><time>2026-05-01T16:34:13.999Z</time></trkpt><trkpt lat="42.23365133201063" lon="8.846422832858874"><ele>897.2</ele><time>2026-05-01T16:34:14.999Z</time></trkpt><trkpt lat="42.23369187099242" lon="8.846332345443994"><ele>900.0</ele><time>2026-05-01T16:34:15.999Z</time></trkpt><trkpt lat="42.23378938524335" lon="8.846305184345747"><ele>900.0</ele><time>2026-05-01T16:34:16.999Z</time></trkpt><trkpt lat="42.23389474033124" lon="8.846338812536944"><ele>900.0</ele><time>2026-05-01T16:34:17.999Z</time></trkpt><trkpt lat="42.23400006347472" lon="8.846468444792084"><ele>900.0</ele><time>2026-05-01T16:34:18.999Z</time></trkpt><trkpt lat="42.23410375828766" lon="8.846671807954694"><ele>900.0</ele><time>2026-05-01T16:34:19.999Z</time></trkpt><trkpt lat="42.23421986468406" lon="8.846928277915017"><ele>893.0</ele><time>2026-05-01T16:34:20.999Z</time></trkpt><trkpt lat="42.23434128053955" lon="8.84719763268114"><ele>886.0</ele><time>2026-05-01T16:34:21.999Z</time></trkpt><trkpt lat="42.23442802651761" lon="8.847480581425172"><ele>887.3333333333333</ele><time>2026-05-01T16:34:22.999Z</time></trkpt><trkpt lat="42.2345060246083" lon="8.847760430367797"><ele>888.6666666666667</ele><time>2026-05-01T16:34:23.999Z</time></trkpt><trkpt lat="42.234534052289774" lon="8.848040354059112"><ele>890.0</ele><time>2026-05-01T16:34:24.999Z</time></trkpt><trkpt lat="42.234565411291655" lon="8.848317753440156"><ele>889.6666666666667</ele><time>2026-05-01T16:34:25.999Z</time></trkpt><trkpt lat="42.23457928167922" lon="8.848580281855252"><ele>889.3333333333333</ele><time>2026-05-01T16:34:26.999Z</time></trkpt><trkpt lat="42.23459188870576" lon="8.848810547239982"><ele>889.0</ele><time>2026-05-01T16:34:27.999Z</time></trkpt><trkpt lat="42.23462325421492" lon="8.848981339280213"><ele>889.0</ele><time>2026-05-01T16:34:28.999Z</time></trkpt><trkpt lat="42.23468134217724" lon="8.849091463648815"><ele>889.0000000000001</ele><time>2026-05-01T16:34:29.999Z</time></trkpt><trkpt lat="42.23475915454391" lon="8.84915178834662"><ele>889.0000000000001</ele><time>2026-05-01T16:34:30.999Z</time></trkpt><trkpt lat="42.23485798540188" lon="8.849124592758432"><ele>889.0</ele><time>2026-05-01T16:34:31.999Z</time></trkpt><trkpt lat="42.23494995888103" lon="8.849007674410194"><ele>889.0</ele><time>2026-05-01T16:34:32.999Z</time></trkpt><trkpt lat="42.234967054384974" lon="8.8488376273636"><ele>880.6666666666666</ele><time>2026-05-01T16:34:33.999Z</time></trkpt><trkpt lat="42.234918159670265" lon="8.848633436172005"><ele>872.3333333333333</ele><time>2026-05-01T16:34:34.999Z</time></trkpt><trkpt lat="42.23484324605309" lon="8.848430561538134"><ele>864.0</ele><time>2026-05-01T16:34:35.999Z</time></trkpt><trkpt lat="42.23482418986496" lon="8.848201076919901"><ele>863.6666666666667</ele><time>2026-05-01T16:34:36.999Z</time></trkpt><trkpt lat="42.23489601963675" lon="8.847982575698873"><ele>863.3333333333334</ele><time>2026-05-01T16:34:37.999Z</time></trkpt><trkpt lat="42.23498602558518" lon="8.847764309003622"><ele>863.0</ele><time>2026-05-01T16:34:38.999Z</time></trkpt><trkpt lat="42.235048158738024" lon="8.847513678519014"><ele>862.0</ele><time>2026-05-01T16:34:39.999Z</time></trkpt><trkpt lat="42.235052924306885" lon="8.847262189100162"><ele>861.0</ele><time>2026-05-01T16:34:40.999Z</time></trkpt><trkpt lat="42.235069957574524" lon="8.84705199164183"><ele>860.0</ele><time>2026-05-01T16:34:41.999Z</time></trkpt><trkpt lat="42.23514204577409" lon="8.846871450096012"><ele>858.3333333333334</ele><time>2026-05-01T16:34:42.999Z</time></trkpt><trkpt lat="42.23524436456115" lon="8.84671014833059"><ele>856.6666666666667</ele><time>2026-05-01T16:34:43.999Z</time></trkpt><trkpt lat="42.235383185299185" lon="8.846575174368184"><ele>855.0</ele><time>2026-05-01T16:34:44.999Z</time></trkpt><trkpt lat="42.23552958942531" lon="8.846439798976254"><ele>852.25</ele><time>2026-05-01T16:34:45.999Z</time></trkpt><trkpt lat="42.23565794581017" lon="8.846304621384892"><ele>849.5</ele><time>2026-05-01T16:34:46.999Z</time></trkpt><trkpt lat="42.23576988146292" lon="8.84618949753438"><ele>846.75</ele><time>2026-05-01T16:34:47.999Z</time></trkpt><trkpt lat="42.23589886786522" lon="8.846114891810004"><ele>844.0</ele><time>2026-05-01T16:34:48.998Z</time></trkpt><trkpt lat="42.23603448025993" lon="8.846074056145316"><ele>844.0</ele><time>2026-05-01T16:34:49.998Z</time></trkpt><trkpt lat="42.23617252884622" lon="8.846122233204332"><ele>844.0</ele><time>2026-05-01T16:34:50.998Z</time></trkpt><trkpt lat="42.23629374427217" lon="8.846256482690329"><ele>844.0</ele><time>2026-05-01T16:34:51.998Z</time></trkpt><trkpt lat="42.236397969792655" lon="8.846441928310815"><ele>842.3333333333333</ele><time>2026-05-01T16:34:52.998Z</time></trkpt><trkpt lat="42.23647813591768" lon="8.846670479995687"><ele>840.6666666666667</ele><time>2026-05-01T16:34:53.998Z</time></trkpt><trkpt lat="42.23655322702733" lon="8.846899680754051"><ele>839.0</ele><time>2026-05-01T16:34:54.998Z</time></trkpt><trkpt lat="42.23662930519028" lon="8.84707133920786"><ele>836.0</ele><time>2026-05-01T16:34:55.998Z</time></trkpt><trkpt lat="42.23671389882395" lon="8.847179813665676"><ele>833.0</ele><time>2026-05-01T16:34:56.998Z</time></trkpt><trkpt lat="42.23681579276229" lon="8.847232089335145"><ele>830.0</ele><time>2026-05-01T16:34:57.998Z</time></trkpt><trkpt lat="42.236939419887854" lon="8.84719078767177"><ele>827.0</ele><time>2026-05-01T16:34:58.998Z</time></trkpt><trkpt lat="42.237076239968665" lon="8.847067266485514"><ele>827.0</ele><time>2026-05-01T16:34:59.998Z</time></trkpt><trkpt lat="42.23723148135015" lon="8.84691072762689"><ele>827.0</ele><time>2026-05-01T16:35:00.998Z</time></trkpt><trkpt lat="42.23738204394699" lon="8.846778068803406"><ele>827.0</ele><time>2026-05-01T16:35:01.998Z</time></trkpt><trkpt lat="42.23751745611438" lon="8.846662096879232"><ele>826.5</ele><time>2026-05-01T16:35:02.998Z</time></trkpt><trkpt lat="42.23761500492843" lon="8.84653168484582"><ele>826.0</ele><time>2026-05-01T16:35:03.998Z</time></trkpt><trkpt lat="42.23769347374215" lon="8.846368279944747"><ele>825.5</ele><time>2026-05-01T16:35:04.998Z</time></trkpt><trkpt lat="42.23771867216221" lon="8.846170564620143"><ele>825.0</ele><time>2026-05-01T16:35:05.998Z</time></trkpt><trkpt lat="42.23770413483599" lon="8.845953246927337"><ele>825.0</ele><time>2026-05-01T16:35:06.998Z</time></trkpt><trkpt lat="42.23768058741155" lon="8.84571524942489"><ele>825.0</ele><time>2026-05-01T16:35:07.998Z</time></trkpt><trkpt lat="42.237661846961736" lon="8.845479347284599"><ele>825.0</ele><time>2026-05-01T16:35:08.998Z</time></trkpt><trkpt lat="42.23764406404423" lon="8.845261017479181"><ele>822.0</ele><time>2026-05-01T16:35:09.998Z</time></trkpt><trkpt lat="42.2376279184153" lon="8.845064552113588"><ele>819.0</ele><time>2026-05-01T16:35:10.998Z</time></trkpt><trkpt lat="42.23759413264015" lon="8.844890662435109"><ele>816.0</ele><time>2026-05-01T16:35:11.998Z</time></trkpt><trkpt lat="42.23753905997682" lon="8.844742943421682"><ele>813.0</ele><time>2026-05-01T16:35:12.998Z</time></trkpt><trkpt lat="42.237430032174466" lon="8.84464997199695"><ele>814.5</ele><time>2026-05-01T16:35:13.998Z</time></trkpt><trkpt lat="42.237282086673225" lon="8.84461548725832"><ele>816.0</ele><time>2026-05-01T16:35:14.998Z</time></trkpt><trkpt lat="42.237132962844726" lon="8.844578899743325"><ele>817.5</ele><time>2026-05-01T16:35:15.998Z</time></trkpt><trkpt lat="42.23702475668756" lon="8.844545075564344"><ele>819.0</ele><time>2026-05-01T16:35:16.998Z</time></trkpt><trkpt lat="42.23695672051474" lon="8.844508288731836"><ele>819.0</ele><time>2026-05-01T16:35:17.998Z</time></trkpt><trkpt lat="42.23689928884224" lon="8.844468759278222"><ele>819.0</ele><time>2026-05-01T16:35:19.998Z</time></trkpt><trkpt lat="42.236828368002406" lon="8.844413629697605"><ele>819.0</ele><time>2026-05-01T16:35:22.998Z</time></trkpt><trkpt lat="42.23670785071658" lon="8.84442112260166"><ele>819.0</ele><time>2026-05-01T16:35:24.998Z</time></trkpt><trkpt lat="42.23660225075984" lon="8.844482244282032"><ele>819.0</ele><time>2026-05-01T16:35:25.998Z</time></trkpt><trkpt lat="42.23650879474839" lon="8.844517420726762"><ele>819.8000000000001</ele><time>2026-05-01T16:35:26.998Z</time></trkpt><trkpt lat="42.236397823216414" lon="8.84454173925493"><ele>820.6</ele><time>2026-05-01T16:35:27.998Z</time></trkpt><trkpt lat="42.236288550589094" lon="8.844526371896247"><ele>821.4</ele><time>2026-05-01T16:35:28.998Z</time></trkpt><trkpt lat="42.23618109592647" lon="8.844506233069724"><ele>822.2</ele><time>2026-05-01T16:35:29.998Z</time></trkpt><trkpt lat="42.23609018126798" lon="8.844455588438752"><ele>823.0</ele><time>2026-05-01T16:35:31Z</time></trkpt><trkpt lat="42.23601500665027" lon="8.844417042599787"><ele>822.9999999999999</ele><time>2026-05-01T16:35:32Z</time></trkpt><trkpt lat="42.23594591928834" lon="8.844401192635837"><ele>823.0</ele><time>2026-05-01T16:35:33Z</time></trkpt><trkpt lat="42.23581460128278" lon="8.844380601714075"><ele>823.0</ele><time>2026-05-01T16:35:35Z</time></trkpt><trkpt lat="42.23574182298142" lon="8.844396414719824"><ele>823.0</ele><time>2026-05-01T16:35:36Z</time></trkpt><trkpt lat="42.23566596289467" lon="8.844418418329042"><ele>822.9999999999999</ele><time>2026-05-01T16:35:37Z</time></trkpt><trkpt lat="42.23558983369105" lon="8.844458763912868"><ele>823.0</ele><time>2026-05-01T16:35:38Z</time></trkpt><trkpt lat="42.235506112460314" lon="8.844499754904593"><ele>822.8333333333333</ele><time>2026-05-01T16:35:39Z</time></trkpt><trkpt lat="42.235420946169" lon="8.844538698087517"><ele>822.6666666666666</ele><time>2026-05-01T16:35:40Z</time></trkpt><trkpt lat="42.23533652653598" lon="8.84455977944637"><ele>822.5</ele><time>2026-05-01T16:35:41Z</time></trkpt><trkpt lat="42.235243119324664" lon="8.844562391256263"><ele>822.3333333333333</ele><time>2026-05-01T16:35:42Z</time></trkpt><trkpt lat="42.23516892145727" lon="8.84452464010194"><ele>822.1666666666666</ele><time>2026-05-01T16:35:43Z</time></trkpt><trkpt lat="42.235107574913386" lon="8.844431930350067"><ele>822.0</ele><time>2026-05-01T16:35:44Z</time></trkpt><trkpt lat="42.23506532505188" lon="8.844318749300792"><ele>819.8</ele><time>2026-05-01T16:35:45Z</time></trkpt><trkpt lat="42.23502857843843" lon="8.844186583923188"><ele>817.6</ele><time>2026-05-01T16:35:46Z</time></trkpt><trkpt lat="42.23499131827116" lon="8.844059695508081"><ele>815.4</ele><time>2026-05-01T16:35:47Z</time></trkpt><trkpt lat="42.23495204383456" lon="8.843931556682707"><ele>813.1999999999999</ele><time>2026-05-01T16:35:48Z</time></trkpt><trkpt lat="42.23491618344695" lon="8.843804580497993"><ele>811.0</ele><time>2026-05-01T16:35:49Z</time></trkpt><trkpt lat="42.23487527048021" lon="8.843686095663097"><ele>811.0</ele><time>2026-05-01T16:35:50Z</time></trkpt><trkpt lat="42.23482765910993" lon="8.843574426396048"><ele>811.0</ele><time>2026-05-01T16:35:51Z</time></trkpt><trkpt lat="42.234773621719945" lon="8.843472703004531"><ele>811.0</ele><time>2026-05-01T16:35:52Z</time></trkpt><trkpt lat="42.23470484934245" lon="8.843393855283379"><ele>811.0</ele><time>2026-05-01T16:35:53Z</time></trkpt><trkpt lat="42.234612835052694" lon="8.843336688775919"><ele>811.0</ele><time>2026-05-01T16:35:54Z</time></trkpt><trkpt lat="42.23450824422794" lon="8.843284480762685"><ele>813.25</ele><time>2026-05-01T16:35:55Z</time></trkpt><trkpt lat="42.23440719123144" lon="8.843217217909483"><ele>815.5</ele><time>2026-05-01T16:35:56Z</time></trkpt><trkpt lat="42.23431293028803" lon="8.843122309055321"><ele>817.75</ele><time>2026-05-01T16:35:57Z</time></trkpt><trkpt lat="42.23423489119905" lon="8.84299488862663"><ele>820.0</ele><time>2026-05-01T16:35:58Z</time></trkpt><trkpt lat="42.23416266860511" lon="8.842853360554525"><ele>820.0</ele><time>2026-05-01T16:35:59Z</time></trkpt><trkpt lat="42.23408526237937" lon="8.842712260314245"><ele>820.0</ele><time>2026-05-01T16:36:00Z</time></trkpt><trkpt lat="42.23400749078692" lon="8.84256952339426"><ele>820.0</ele><time>2026-05-01T16:36:01Z</time></trkpt><trkpt lat="42.23394433788926" lon="8.842421405543197"><ele>820.0</ele><time>2026-05-01T16:36:02Z</time></trkpt><trkpt lat="42.233872528259525" lon="8.84229133414621"><ele>820.9999999999999</ele><time>2026-05-01T16:36:03Z</time></trkpt><trkpt lat="42.23379367846297" lon="8.842199260263733"><ele>822.0</ele><time>2026-05-01T16:36:04Z</time></trkpt><trkpt lat="42.23370402070183" lon="8.842146380032537"><ele>823.0</ele><time>2026-05-01T16:36:05Z</time></trkpt><trkpt lat="42.23361757749468" lon="8.842135779216921"><ele>824.0</ele><time>2026-05-01T16:36:06Z</time></trkpt><trkpt lat="42.233537068623725" lon="8.842130320298857"><ele>824.9999999999999</ele><time>2026-05-01T16:36:06.999Z</time></trkpt><trkpt lat="42.23346852313178" lon="8.842081996522614"><ele>826.0</ele><time>2026-05-01T16:36:07.999Z</time></trkpt><trkpt lat="42.233416716402104" lon="8.84198079494421"><ele>826.0</ele><time>2026-05-01T16:36:08.999Z</time></trkpt><trkpt lat="42.2333771005105" lon="8.841867237234222"><ele>826.0</ele><time>2026-05-01T16:36:09.999Z</time></trkpt><trkpt lat="42.23334182921128" lon="8.841751409278748"><ele>826.0</ele><time>2026-05-01T16:36:10.999Z</time></trkpt><trkpt lat="42.23331784313288" lon="8.841625476490947"><ele>826.0</ele><time>2026-05-01T16:36:11.999Z</time></trkpt><trkpt lat="42.233314961121295" lon="8.841491934378524"><ele>826.0</ele><time>2026-05-01T16:36:12.999Z</time></trkpt><trkpt lat="42.23334116450122" lon="8.84136856008848"><ele>825.0</ele><time>2026-05-01T16:36:13.999Z</time></trkpt><trkpt lat="42.23339096594612" lon="8.841277282386855"><ele>824.0</ele><time>2026-05-01T16:36:14.999Z</time></trkpt><trkpt lat="42.23346636209305" lon="8.841231672306257"><ele>823.0</ele><time>2026-05-01T16:36:15.999Z</time></trkpt><trkpt lat="42.23355582951463" lon="8.841244873099523"><ele>822.0</ele><time>2026-05-01T16:36:16.999Z</time></trkpt><trkpt lat="42.23364703855792" lon="8.841278774294748"><ele>821.0</ele><time>2026-05-01T16:36:17.999Z</time></trkpt><trkpt lat="42.23374813151193" lon="8.841285388676951"><ele>821.0</ele><time>2026-05-01T16:36:18.999Z</time></trkpt><trkpt lat="42.23385750222042" lon="8.841234068791952"><ele>821.0</ele><time>2026-05-01T16:36:19.999Z</time></trkpt><trkpt lat="42.23397067503011" lon="8.841154977585909"><ele>821.0</ele><time>2026-05-01T16:36:20.999Z</time></trkpt><trkpt lat="42.23406109762653" lon="8.841038023095487"><ele>821.0</ele><time>2026-05-01T16:36:21.999Z</time></trkpt><trkpt lat="42.23410081409779" lon="8.840881305670793"><ele>819.75</ele><time>2026-05-01T16:36:22.999Z</time></trkpt><trkpt lat="42.234130677697536" lon="8.840711650519676"><ele>818.5</ele><time>2026-05-01T16:36:23.999Z</time></trkpt><trkpt lat="42.23415528269712" lon="8.840536644308601"><ele>817.25</ele><time>2026-05-01T16:36:24.999Z</time></trkpt><trkpt lat="42.23417140105243" lon="8.840381230903175"><ele>816.0</ele><time>2026-05-01T16:36:25.999Z</time></trkpt><trkpt lat="42.23417581206061" lon="8.840241951849693"><ele>817.0</ele><time>2026-05-01T16:36:26.999Z</time></trkpt><trkpt lat="42.2341747018792" lon="8.840101981763718"><ele>818.0</ele><time>2026-05-01T16:36:27.999Z</time></trkpt><trkpt lat="42.2341738708741" lon="8.839965017258846"><ele>819.0</ele><time>2026-05-01T16:36:28.999Z</time></trkpt><trkpt lat="42.23416542802463" lon="8.839827243140624"><ele>820.0</ele><time>2026-05-01T16:36:29.999Z</time></trkpt><trkpt lat="42.234164904758586" lon="8.83970916488523"><ele>821.0</ele><time>2026-05-01T16:36:30.999Z</time></trkpt><trkpt lat="42.23415376112023" lon="8.83960515658517"><ele>821.0</ele><time>2026-05-01T16:36:31.999Z</time></trkpt><trkpt lat="42.23411917473529" lon="8.839503708305523"><ele>821.0</ele><time>2026-05-01T16:36:32.999Z</time></trkpt><trkpt lat="42.2340485606434" lon="8.839426163879008"><ele>821.0</ele><time>2026-05-01T16:36:33.999Z</time></trkpt><trkpt lat="42.23396261606072" lon="8.839395304149326"><ele>821.0</ele><time>2026-05-01T16:36:34.999Z</time></trkpt><trkpt lat="42.233879979797685" lon="8.839434174253702"><ele>821.0</ele><time>2026-05-01T16:36:35.999Z</time></trkpt><trkpt lat="42.23380125408794" lon="8.83951663426091"><ele>824.8</ele><time>2026-05-01T16:36:36.999Z</time></trkpt><trkpt lat="42.23371182406558" lon="8.839587504622084"><ele>828.5999999999999</ele><time>2026-05-01T16:36:37.999Z</time></trkpt><trkpt lat="42.233605383531234" lon="8.839631539100239"><ele>832.4</ele><time>2026-05-01T16:36:38.999Z</time></trkpt><trkpt lat="42.23350058876984" lon="8.839626961263068"><ele>836.2</ele><time>2026-05-01T16:36:39.999Z</time></trkpt><trkpt lat="42.233412379290904" lon="8.83957319719143"><ele>840.0</ele><time>2026-05-01T16:36:40.999Z</time></trkpt><trkpt lat="42.233351306496374" lon="8.83947292432789"><ele>840.0</ele><time>2026-05-01T16:36:41.999Z</time></trkpt><trkpt lat="42.233308830584896" lon="8.83935211056039"><ele>840.0</ele><time>2026-05-01T16:36:42.999Z</time></trkpt><trkpt lat="42.233276807487975" lon="8.839219382950432"><ele>840.0</ele><time>2026-05-01T16:36:43.999Z</time></trkpt><trkpt lat="42.23325407534688" lon="8.839079255519893"><ele>840.0</ele><time>2026-05-01T16:36:44.999Z</time></trkpt><trkpt lat="42.2332265185118" lon="8.838932321009883"><ele>840.0</ele><time>2026-05-01T16:36:45.999Z</time></trkpt><trkpt lat="42.233191183266136" lon="8.838792811942497"><ele>843.8</ele><time>2026-05-01T16:36:46.999Z</time></trkpt><trkpt lat="42.233130038068374" lon="8.83868763434043"><ele>847.6</ele><time>2026-05-01T16:36:47.999Z</time></trkpt><trkpt lat="42.233041327812785" lon="8.838620752972734"><ele>851.4000000000001</ele><time>2026-05-01T16:36:48.999Z</time></trkpt><trkpt lat="42.23292562564448" lon="8.838598028280776"><ele>855.2</ele><time>2026-05-01T16:36:49.999Z</time></trkpt><trkpt lat="42.23280996014829" lon="8.838566786995797"><ele>859.0</ele><time>2026-05-01T16:36:50.999Z</time></trkpt><trkpt lat="42.23269132486088" lon="8.838525583391606"><ele>859.0</ele><time>2026-05-01T16:36:51.999Z</time></trkpt><trkpt lat="42.23256679284686" lon="8.83848666786324"><ele>859.0</ele><time>2026-05-01T16:36:52.999Z</time></trkpt><trkpt lat="42.23243263524203" lon="8.838454081590289"><ele>859.0</ele><time>2026-05-01T16:36:53.998Z</time></trkpt><trkpt lat="42.23229078849104" lon="8.838409404561963"><ele>859.0</ele><time>2026-05-01T16:36:54.998Z</time></trkpt><trkpt lat="42.23215228094118" lon="8.838332611214915"><ele>860.75</ele><time>2026-05-01T16:36:55.998Z</time></trkpt><trkpt lat="42.23201336893494" lon="8.838233032580039"><ele>862.5</ele><time>2026-05-01T16:36:56.998Z</time></trkpt><trkpt lat="42.23189054410872" lon="8.83812878344337"><ele>864.25</ele><time>2026-05-01T16:36:57.998Z</time></trkpt><trkpt lat="42.23180494831577" lon="8.838005246272084"><ele>866.0</ele><time>2026-05-01T16:36:58.998Z</time></trkpt><trkpt lat="42.231759312557" lon="8.83787829584131"><ele>866.0</ele><time>2026-05-01T16:36:59.998Z</time></trkpt><trkpt lat="42.23176052197814" lon="8.837745296372328"><ele>866.0</ele><time>2026-05-01T16:37:00.998Z</time></trkpt><trkpt lat="42.231812241466294" lon="8.837595210925837"><ele>866.0</ele><time>2026-05-01T16:37:01.998Z</time></trkpt><trkpt lat="42.23189925723149" lon="8.837437889722368"><ele>866.0</ele><time>2026-05-01T16:37:02.998Z</time></trkpt><trkpt lat="42.23198939321632" lon="8.837290872271575"><ele>865.25</ele><time>2026-05-01T16:37:03.998Z</time></trkpt><trkpt lat="42.232047471584536" lon="8.837144941789443"><ele>864.5</ele><time>2026-05-01T16:37:04.998Z</time></trkpt><trkpt lat="42.23206997172702" lon="8.836981334643315"><ele>863.75</ele><time>2026-05-01T16:37:05.998Z</time></trkpt><trkpt lat="42.23204422863318" lon="8.836796657736642"><ele>863.0</ele><time>2026-05-01T16:37:06.998Z</time></trkpt><trkpt lat="42.231994662323025" lon="8.83659753045324"><ele>863.0</ele><time>2026-05-01T16:37:07.998Z</time></trkpt><trkpt lat="42.231924965542206" lon="8.836411958100738"><ele>863.0</ele><time>2026-05-01T16:37:08.998Z</time></trkpt><trkpt lat="42.231837887897804" lon="8.83622836805141"><ele>863.0</ele><time>2026-05-01T16:37:09.998Z</time></trkpt><trkpt lat="42.2317228779659" lon="8.836058343900744"><ele>866.0</ele><time>2026-05-01T16:37:10.998Z</time></trkpt><trkpt lat="42.23158083910853" lon="8.835921856080834"><ele>869.0</ele><time>2026-05-01T16:37:11.998Z</time></trkpt><trkpt lat="42.231433284940465" lon="8.835789049629843"><ele>872.0</ele><time>2026-05-01T16:37:12.998Z</time></trkpt><trkpt lat="42.23130049603829" lon="8.835664261200781"><ele>872.0</ele><time>2026-05-01T16:37:13.998Z</time></trkpt><trkpt lat="42.23117644637149" lon="8.835548359639404"><ele>872.0</ele><time>2026-05-01T16:37:14.998Z</time></trkpt><trkpt lat="42.231066209315934" lon="8.835428940815492"><ele>872.0</ele><time>2026-05-01T16:37:15.998Z</time></trkpt><trkpt lat="42.23097642710437" lon="8.835304024226618"><ele>872.0</ele><time>2026-05-01T16:37:16.998Z</time></trkpt><trkpt lat="42.23091749928367" lon="8.835147974287024"><ele>867.0</ele><time>2026-05-01T16:37:17.998Z</time></trkpt><trkpt lat="42.23088592989875" lon="8.834959337253748"><ele>862.0</ele><time>2026-05-01T16:37:18.998Z</time></trkpt><trkpt lat="42.230858978833055" lon="8.834768940222638"><ele>857.0</ele><time>2026-05-01T16:37:19.998Z</time></trkpt><trkpt lat="42.23083060551192" lon="8.834578779869359"><ele>852.0</ele><time>2026-05-01T16:37:20.998Z</time></trkpt><trkpt lat="42.230817704809866" lon="8.834387597478043"><ele>852.75</ele><time>2026-05-01T16:37:21.998Z</time></trkpt><trkpt lat="42.230827524315245" lon="8.834212537100672"><ele>853.5</ele><time>2026-05-01T16:37:22.998Z</time></trkpt><trkpt lat="42.230871717191405" lon="8.834059633672101"><ele>854.25</ele><time>2026-05-01T16:37:23.998Z</time></trkpt><trkpt lat="42.23095577262881" lon="8.833942567078997"><ele>855.0</ele><time>2026-05-01T16:37:24.998Z</time></trkpt><trkpt lat="42.23105785784213" lon="8.833856967402697"><ele>855.0</ele><time>2026-05-01T16:37:25.998Z</time></trkpt><trkpt lat="42.231188955042924" lon="8.833793869026415"><ele>855.0</ele><time>2026-05-01T16:37:26.998Z</time></trkpt><trkpt lat="42.23133071576328" lon="8.833743050911709"><ele>855.0</ele><time>2026-05-01T16:37:27.998Z</time></trkpt><trkpt lat="42.231481684886354" lon="8.83369369693125"><ele>855.0</ele><time>2026-05-01T16:37:28.998Z</time></trkpt><trkpt lat="42.23163363171223" lon="8.833638936935062"><ele>850.3333333333333</ele><time>2026-05-01T16:37:29.998Z</time></trkpt><trkpt lat="42.23178988714202" lon="8.8335824316668"><ele>845.6666666666666</ele><time>2026-05-01T16:37:30.998Z</time></trkpt><trkpt lat="42.2319662573747" lon="8.833556697599917"><ele>841.0</ele><time>2026-05-01T16:37:31.998Z</time></trkpt><trkpt lat="42.232149225537654" lon="8.833559226278737"><ele>838.3333333333333</ele><time>2026-05-01T16:37:32.998Z</time></trkpt><trkpt lat="42.232342437835605" lon="8.833589162220377"><ele>835.6666666666667</ele><time>2026-05-01T16:37:33.998Z</time></trkpt><trkpt lat="42.23252456337434" lon="8.833626042426278"><ele>833.0</ele><time>2026-05-01T16:37:34.998Z</time></trkpt><trkpt lat="42.23268542574087" lon="8.833666373363625"><ele>833.0</ele><time>2026-05-01T16:37:35.998Z</time></trkpt><trkpt lat="42.23281113677696" lon="8.833675773914035"><ele>833.0</ele><time>2026-05-01T16:37:37Z</time></trkpt><trkpt lat="42.23290487526535" lon="8.833613540065953"><ele>833.0</ele><time>2026-05-01T16:37:38Z</time></trkpt><trkpt lat="42.232975920775836" lon="8.833494572845803"><ele>833.0</ele><time>2026-05-01T16:37:39Z</time></trkpt><trkpt lat="42.233042881076756" lon="8.833307592341292"><ele>838.0</ele><time>2026-05-01T16:37:40Z</time></trkpt><trkpt lat="42.233115631965944" lon="8.83312217573916"><ele>843.0</ele><time>2026-05-01T16:37:41Z</time></trkpt><trkpt lat="42.233208466370854" lon="8.832985719375698"><ele>848.0</ele><time>2026-05-01T16:37:42Z</time></trkpt><trkpt lat="42.233336755453344" lon="8.832923519558985"><ele>853.0</ele><time>2026-05-01T16:37:43Z</time></trkpt><trkpt lat="42.233503995354425" lon="8.832931403037795"><ele>853.0</ele><time>2026-05-01T16:37:44Z</time></trkpt><trkpt lat="42.23368787882479" lon="8.83295874939811"><ele>853.0</ele><time>2026-05-01T16:37:45Z</time></trkpt><trkpt lat="42.23386664290149" lon="8.8329709210397"><ele>853.0</ele><time>2026-05-01T16:37:46Z</time></trkpt><trkpt lat="42.234018157505524" lon="8.832932755313017"><ele>854.25</ele><time>2026-05-01T16:37:47Z</time></trkpt><trkpt lat="42.234154187438904" lon="8.832858097010197"><ele>855.5</ele><time>2026-05-01T16:37:48Z</time></trkpt><trkpt lat="42.23426139057832" lon="8.832736031333717"><ele>856.75</ele><time>2026-05-01T16:37:49Z</time></trkpt><trkpt lat="42.23434184666762" lon="8.832587323604317"><ele>858.0</ele><time>2026-05-01T16:37:50Z</time></trkpt><trkpt lat="42.234386142034516" lon="8.83243476329608"><ele>858.0</ele><time>2026-05-01T16:37:51Z</time></trkpt><trkpt lat="42.234392789045216" lon="8.832285718026629"><ele>858.0</ele><time>2026-05-01T16:37:52Z</time></trkpt><trkpt lat="42.23434052908755" lon="8.832148216671571"><ele>858.0</ele><time>2026-05-01T16:37:53Z</time></trkpt><trkpt lat="42.23426385159514" lon="8.832025938325309"><ele>858.0</ele><time>2026-05-01T16:37:54Z</time></trkpt><trkpt lat="42.234167280860945" lon="8.831956582481627"><ele>858.0</ele><time>2026-05-01T16:37:55Z</time></trkpt><trkpt lat="42.23408690181717" lon="8.831889452538624"><ele>858.0</ele><time>2026-05-01T16:37:56Z</time></trkpt><trkpt lat="42.23403996171833" lon="8.831797316091542"><ele>858.0</ele><time>2026-05-01T16:37:57Z</time></trkpt><trkpt lat="42.234023080447706" lon="8.831688336063758"><ele>858.0</ele><time>2026-05-01T16:37:58Z</time></trkpt><trkpt lat="42.23402871261484" lon="8.831577086470428"><ele>858.0</ele><time>2026-05-01T16:37:59Z</time></trkpt><trkpt lat="42.23405526588655" lon="8.831453973497668"><ele>858.0</ele><time>2026-05-01T16:38:00Z</time></trkpt><trkpt lat="42.234097325725095" lon="8.831343224323648"><ele>859.2</ele><time>2026-05-01T16:38:01Z</time></trkpt><trkpt lat="42.234141465687614" lon="8.831250438366364"><ele>860.4</ele><time>2026-05-01T16:38:02Z</time></trkpt><trkpt lat="42.23417739765441" lon="8.831143179373157"><ele>861.6000000000001</ele><time>2026-05-01T16:38:03Z</time></trkpt><trkpt lat="42.23420961662432" lon="8.831013426157996"><ele>862.8000000000001</ele><time>2026-05-01T16:38:04Z</time></trkpt><trkpt lat="42.23423733862968" lon="8.830854686018377"><ele>864.0</ele><time>2026-05-01T16:38:05Z</time></trkpt><trkpt lat="42.234265930858776" lon="8.83067552695301"><ele>867.0</ele><time>2026-05-01T16:38:06Z</time></trkpt><trkpt lat="42.234316746637255" lon="8.830485211928265"><ele>870.0</ele><time>2026-05-01T16:38:07Z</time></trkpt><trkpt lat="42.234388398553946" lon="8.83029660104414"><ele>873.0</ele><time>2026-05-01T16:38:08Z</time></trkpt><trkpt lat="42.23444074257842" lon="8.830084398800484"><ele>875.5</ele><time>2026-05-01T16:38:09Z</time></trkpt><trkpt lat="42.234481147849806" lon="8.829874220953483"><ele>878.0</ele><time>2026-05-01T16:38:10Z</time></trkpt><trkpt lat="42.23451131567265" lon="8.829684132712105"><ele>880.5</ele><time>2026-05-01T16:38:11Z</time></trkpt><trkpt lat="42.23454190196557" lon="8.82952283205697"><ele>883.0</ele><time>2026-05-01T16:38:12Z</time></trkpt><trkpt lat="42.23454591074506" lon="8.829371910157676"><ele>882.75</ele><time>2026-05-01T16:38:13Z</time></trkpt><trkpt lat="42.2344972570903" lon="8.829217535612013"><ele>882.5</ele><time>2026-05-01T16:38:14Z</time></trkpt><trkpt lat="42.23442813057932" lon="8.829037767232936"><ele>882.25</ele><time>2026-05-01T16:38:14.999Z</time></trkpt><trkpt lat="42.23436193961852" lon="8.828839018776948"><ele>882.0</ele><time>2026-05-01T16:38:15.999Z</time></trkpt><trkpt lat="42.234304563282144" lon="8.828643003427276"><ele>879.5</ele><time>2026-05-01T16:38:16.999Z</time></trkpt><trkpt lat="42.234245368836106" lon="8.828467369201512"><ele>877.0</ele><time>2026-05-01T16:38:17.999Z</time></trkpt><trkpt lat="42.23418731565593" lon="8.828304104379946"><ele>874.5</ele><time>2026-05-01T16:38:18.999Z</time></trkpt><trkpt lat="42.234156677424316" lon="8.828141762701621"><ele>872.0</ele><time>2026-05-01T16:38:19.999Z</time></trkpt><trkpt lat="42.23415633519979" lon="8.827982524008553"><ele>872.0</ele><time>2026-05-01T16:38:20.999Z</time></trkpt><trkpt lat="42.234144847066524" lon="8.827845782033963"><ele>872.0</ele><time>2026-05-01T16:38:21.999Z</time></trkpt><trkpt lat="42.234067781208566" lon="8.827756196953969"><ele>872.0</ele><time>2026-05-01T16:38:22.999Z</time></trkpt><trkpt lat="42.2339620932413" lon="8.82768867124539"><ele>872.0</ele><time>2026-05-01T16:38:23.999Z</time></trkpt><trkpt lat="42.23388202312946" lon="8.827600723573985"><ele>872.0</ele><time>2026-05-01T16:38:24.999Z</time></trkpt><trkpt lat="42.233858965143796" lon="8.827474273412717"><ele>870.4000000000001</ele><time>2026-05-01T16:38:25.999Z</time></trkpt><trkpt lat="42.233894474492814" lon="8.827361949618997"><ele>868.8000000000001</ele><time>2026-05-01T16:38:26.999Z</time></trkpt><trkpt lat="42.23396994960685" lon="8.827299420638882"><ele>867.2</ele><time>2026-05-01T16:38:27.999Z</time></trkpt><trkpt lat="42.23404577287716" lon="8.827245601591114"><ele>865.6</ele><time>2026-05-01T16:38:28.999Z</time></trkpt><trkpt lat="42.23411095405777" lon="8.8271526296266"><ele>864.0</ele><time>2026-05-01T16:38:29.999Z</time></trkpt><trkpt lat="42.234132574258226" lon="8.827011184247063"><ele>864.0</ele><time>2026-05-01T16:38:30.999Z</time></trkpt><trkpt lat="42.234111670249554" lon="8.82684998140436"><ele>864.0</ele><time>2026-05-01T16:38:31.999Z</time></trkpt><trkpt lat="42.234055791774736" lon="8.826678670021103"><ele>864.0</ele><time>2026-05-01T16:38:32.999Z</time></trkpt><trkpt lat="42.23400169713757" lon="8.826497015464627"><ele>864.0</ele><time>2026-05-01T16:38:33.999Z</time></trkpt><trkpt lat="42.23393961636336" lon="8.826316859536707"><ele>866.75</ele><time>2026-05-01T16:38:34.999Z</time></trkpt><trkpt lat="42.23388148817397" lon="8.826141887412039"><ele>869.5</ele><time>2026-05-01T16:38:35.999Z</time></trkpt><trkpt lat="42.23380442940206" lon="8.825992393496529"><ele>872.25</ele><time>2026-05-01T16:38:36.999Z</time></trkpt><trkpt lat="42.23370690737616" lon="8.825860301118464"><ele>875.0</ele><time>2026-05-01T16:38:37.999Z</time></trkpt><trkpt lat="42.23360343822996" lon="8.825729649127991"><ele>875.0</ele><time>2026-05-01T16:38:38.999Z</time></trkpt><trkpt lat="42.23352381436179" lon="8.825583295252716"><ele>875.0</ele><time>2026-05-01T16:38:39.999Z</time></trkpt><trkpt lat="42.23344777507554" lon="8.825439222586782"><ele>875.0</ele><time>2026-05-01T16:38:40.999Z</time></trkpt><trkpt lat="42.23336810956326" lon="8.82531358067444"><ele>875.0</ele><time>2026-05-01T16:38:41.999Z</time></trkpt><trkpt lat="42.23326548891223" lon="8.82523293797817"><ele>875.0</ele><time>2026-05-01T16:38:42.999Z</time></trkpt><trkpt lat="42.23315349195639" lon="8.8251686754959"><ele>875.0</ele><time>2026-05-01T16:38:43.999Z</time></trkpt><trkpt lat="42.23303932120694" lon="8.825098241994565"><ele>875.0</ele><time>2026-05-01T16:38:44.999Z</time></trkpt><trkpt lat="42.2329159732887" lon="8.825029440363217"><ele>875.0</ele><time>2026-05-01T16:38:45.999Z</time></trkpt><trkpt lat="42.23277629848551" lon="8.824958860611051"><ele>872.3333333333334</ele><time>2026-05-01T16:38:46.999Z</time></trkpt><trkpt lat="42.23263759431072" lon="8.824871115777931"><ele>869.6666666666667</ele><time>2026-05-01T16:38:47.999Z</time></trkpt><trkpt lat="42.232503094836396" lon="8.824770603613235"><ele>867.0</ele><time>2026-05-01T16:38:48.999Z</time></trkpt><trkpt lat="42.2323620464757" lon="8.824680580254887"><ele>872.25</ele><time>2026-05-01T16:38:49.999Z</time></trkpt><trkpt lat="42.23224572396348" lon="8.824596370610749"><ele>877.5</ele><time>2026-05-01T16:38:50.999Z</time></trkpt><trkpt lat="42.23212911453074" lon="8.824509297757958"><ele>882.75</ele><time>2026-05-01T16:38:51.999Z</time></trkpt><trkpt lat="42.23201578962327" lon="8.824439037095193"><ele>888.0</ele><time>2026-05-01T16:38:52.999Z</time></trkpt><trkpt lat="42.23190667016742" lon="8.824357294257796"><ele>883.4</ele><time>2026-05-01T16:38:53.999Z</time></trkpt><trkpt lat="42.231809244757315" lon="8.82426899926901"><ele>878.8</ele><time>2026-05-01T16:38:54.999Z</time></trkpt><trkpt lat="42.231743361076525" lon="8.824167751288037"><ele>874.2</ele><time>2026-05-01T16:38:55.999Z</time></trkpt><trkpt lat="42.23171165359257" lon="8.82404199530519"><ele>869.6</ele><time>2026-05-01T16:38:56.999Z</time></trkpt><trkpt lat="42.23173402601041" lon="8.823913307283753"><ele>865.0</ele><time>2026-05-01T16:38:57.999Z</time></trkpt><trkpt lat="42.23180062296159" lon="8.823805457388264"><ele>865.0</ele><time>2026-05-01T16:38:58.999Z</time></trkpt><trkpt lat="42.23190475803756" lon="8.823701062664774"><ele>865.0</ele><time>2026-05-01T16:38:59.999Z</time></trkpt><trkpt lat="42.23200866316743" lon="8.823574078859426"><ele>865.0</ele><time>2026-05-01T16:39:00.999Z</time></trkpt><trkpt lat="42.232087760849716" lon="8.823413054124897"><ele>865.0</ele><time>2026-05-01T16:39:01.999Z</time></trkpt><trkpt lat="42.23214078836652" lon="8.82324885598096"><ele>866.75</ele><time>2026-05-01T16:39:02.998Z</time></trkpt><trkpt lat="42.232146886214245" lon="8.82307331898821"><ele>868.5</ele><time>2026-05-01T16:39:03.998Z</time></trkpt><trkpt lat="42.23214790492561" lon="8.822911924174795"><ele>870.25</ele><time>2026-05-01T16:39:04.998Z</time></trkpt><trkpt lat="42.2321911344281" lon="8.82278566365761"><ele>872.0</ele><time>2026-05-01T16:39:05.998Z</time></trkpt><trkpt lat="42.23227143077576" lon="8.822654664293767"><ele>866.25</ele><time>2026-05-01T16:39:06.998Z</time></trkpt><trkpt lat="42.2323845487587" lon="8.822552906201688"><ele>860.5</ele><time>2026-05-01T16:39:07.998Z</time></trkpt><trkpt lat="42.23250201783536" lon="8.82245083886888"><ele>854.75</ele><time>2026-05-01T16:39:08.998Z</time></trkpt><trkpt lat="42.232612939351355" lon="8.82233742593319"><ele>849.0</ele><time>2026-05-01T16:39:09.998Z</time></trkpt><trkpt lat="42.2326978942252" lon="8.822162080419028"><ele>849.0</ele><time>2026-05-01T16:39:10.998Z</time></trkpt><trkpt lat="42.23277323166682" lon="8.821960101936346"><ele>849.0</ele><time>2026-05-01T16:39:11.998Z</time></trkpt><trkpt lat="42.23285949025509" lon="8.821761582253524"><ele>849.0</ele><time>2026-05-01T16:39:12.998Z</time></trkpt><trkpt lat="42.23295827669783" lon="8.821597872588441"><ele>852.5</ele><time>2026-05-01T16:39:13.998Z</time></trkpt><trkpt lat="42.23306360815614" lon="8.82145829117952"><ele>856.0</ele><time>2026-05-01T16:39:14.998Z</time></trkpt><trkpt lat="42.23314994499921" lon="8.821320948327887"><ele>859.5</ele><time>2026-05-01T16:39:15.998Z</time></trkpt><trkpt lat="42.2332052056139" lon="8.82118992190601"><ele>863.0</ele><time>2026-05-01T16:39:16.998Z</time></trkpt><trkpt lat="42.233231633503465" lon="8.821069566398199"><ele>863.5999999999999</ele><time>2026-05-01T16:39:17.998Z</time></trkpt><trkpt lat="42.23321557577287" lon="8.820958935202409"><ele>864.1999999999999</ele><time>2026-05-01T16:39:18.998Z</time></trkpt><trkpt lat="42.233156029854584" lon="8.82086894667405"><ele>864.8</ele><time>2026-05-01T16:39:19.998Z</time></trkpt><trkpt lat="42.233064895834566" lon="8.820809373916463"><ele>865.4</ele><time>2026-05-01T16:39:20.998Z</time></trkpt><trkpt lat="42.23295578944217" lon="8.820717073114826"><ele>866.0</ele><time>2026-05-01T16:39:21.998Z</time></trkpt><trkpt lat="42.2328642044941" lon="8.820639037660287"><ele>866.0</ele><time>2026-05-01T16:39:22.998Z</time></trkpt><trkpt lat="42.23279900522078" lon="8.820537507851316"><ele>865.9999999999999</ele><time>2026-05-01T16:39:23.998Z</time></trkpt><trkpt lat="42.23278576034405" lon="8.820414737769413"><ele>865.9999999999999</ele><time>2026-05-01T16:39:24.998Z</time></trkpt><trkpt lat="42.23281351855466" lon="8.820282944448177"><ele>866.0</ele><time>2026-05-01T16:39:25.998Z</time></trkpt><trkpt lat="42.23286012135076" lon="8.82013022139029"><ele>866.0</ele><time>2026-05-01T16:39:26.998Z</time></trkpt><trkpt lat="42.232906017934326" lon="8.819971123318872"><ele>865.3333333333334</ele><time>2026-05-01T16:39:27.998Z</time></trkpt><trkpt lat="42.23293316011315" lon="8.819778222742086"><ele>864.6666666666667</ele><time>2026-05-01T16:39:28.998Z</time></trkpt><trkpt lat="42.232960308237125" lon="8.819572914949696"><ele>864.0</ele><time>2026-05-01T16:39:29.998Z</time></trkpt><trkpt lat="42.23303955377366" lon="8.819384581343119"><ele>852.6666666666667</ele><time>2026-05-01T16:39:30.998Z</time></trkpt><trkpt lat="42.23314550027784" lon="8.819213605581863"><ele>841.3333333333334</ele><time>2026-05-01T16:39:31.998Z</time></trkpt><trkpt lat="42.23324774323288" lon="8.819065716135917"><ele>830.0</ele><time>2026-05-01T16:39:32.998Z</time></trkpt><trkpt lat="42.233363003143765" lon="8.818952757645572"><ele>830.0</ele><time>2026-05-01T16:39:33.998Z</time></trkpt><trkpt lat="42.23348455478703" lon="8.818890167384199"><ele>830.0</ele><time>2026-05-01T16:39:34.998Z</time></trkpt><trkpt lat="42.23360661816383" lon="8.818842629048602"><ele>830.0</ele><time>2026-05-01T16:39:35.998Z</time></trkpt><trkpt lat="42.23371396640921" lon="8.81875830232013"><ele>830.0</ele><time>2026-05-01T16:39:36.998Z</time></trkpt><trkpt lat="42.23381077031111" lon="8.818636314323635"><ele>830.0</ele><time>2026-05-01T16:39:37.998Z</time></trkpt><trkpt lat="42.23389343328559" lon="8.818489199083105"><ele>830.0</ele><time>2026-05-01T16:39:38.998Z</time></trkpt><trkpt lat="42.23394390568464" lon="8.818337202407735"><ele>830.0</ele><time>2026-05-01T16:39:39.998Z</time></trkpt><trkpt lat="42.23394439856678" lon="8.81816170449879"><ele>830.0</ele><time>2026-05-01T16:39:40.998Z</time></trkpt><trkpt lat="42.23392974644755" lon="8.81797659211564"><ele>828.5</ele><time>2026-05-01T16:39:41.998Z</time></trkpt><trkpt lat="42.2339277066529" lon="8.817796863971546"><ele>827.0</ele><time>2026-05-01T16:39:43Z</time></trkpt><trkpt lat="42.23395389456057" lon="8.817631909916697"><ele>825.5</ele><time>2026-05-01T16:39:44Z</time></trkpt><trkpt lat="42.234008692033576" lon="8.817467749884624"><ele>824.0</ele><time>2026-05-01T16:39:45Z</time></trkpt><trkpt lat="42.234082942892776" lon="8.817323000705105"><ele>824.0</ele><time>2026-05-01T16:39:46Z</time></trkpt><trkpt lat="42.23417021343008" lon="8.817197264315096"><ele>824.0</ele><time>2026-05-01T16:39:47Z</time></trkpt><trkpt lat="42.234249327434846" lon="8.817065132840417"><ele>824.0</ele><time>2026-05-01T16:39:48Z</time></trkpt><trkpt lat="42.2342932449357" lon="8.816901328892625"><ele>824.0</ele><time>2026-05-01T16:39:49Z</time></trkpt><trkpt lat="42.234296339839396" lon="8.81671822101664"><ele>824.3333333333334</ele><time>2026-05-01T16:39:50Z</time></trkpt><trkpt lat="42.23428032464873" lon="8.816518349710593"><ele>824.6666666666667</ele><time>2026-05-01T16:39:51Z</time></trkpt><trkpt lat="42.23424521779243" lon="8.81631592019088"><ele>825.0</ele><time>2026-05-01T16:39:52Z</time></trkpt><trkpt lat="42.234187188056104" lon="8.816115229678944"><ele>824.75</ele><time>2026-05-01T16:39:53Z</time></trkpt><trkpt lat="42.2341345979787" lon="8.815922073627828"><ele>824.5</ele><time>2026-05-01T16:39:54Z</time></trkpt><trkpt lat="42.23411205174392" lon="8.815728450659917"><ele>824.25</ele><time>2026-05-01T16:39:55Z</time></trkpt><trkpt lat="42.23412983335376" lon="8.815557850747178"><ele>824.0</ele><time>2026-05-01T16:39:56Z</time></trkpt><trkpt lat="42.234197026280825" lon="8.815436336649697"><ele>824.0</ele><time>2026-05-01T16:39:57Z</time></trkpt><trkpt lat="42.23429588370889" lon="8.815363047504029"><ele>824.0</ele><time>2026-05-01T16:39:58Z</time></trkpt><trkpt lat="42.23439241624988" lon="8.815306075056164"><ele>824.0</ele><time>2026-05-01T16:39:59Z</time></trkpt><trkpt lat="42.23446302708084" lon="8.815198630416225"><ele>824.0</ele><time>2026-05-01T16:40:00Z</time></trkpt><trkpt lat="42.23448888472759" lon="8.815054987199227"><ele>824.0</ele><time>2026-05-01T16:40:01Z</time></trkpt><trkpt lat="42.23446234689908" lon="8.81488716842368"><ele>824.75</ele><time>2026-05-01T16:40:02Z</time></trkpt><trkpt lat="42.23441938836661" lon="8.814726375885774"><ele>825.5</ele><time>2026-05-01T16:40:03Z</time></trkpt><trkpt lat="42.234351496500935" lon="8.814569573585967"><ele>826.25</ele><time>2026-05-01T16:40:04Z</time></trkpt><trkpt lat="42.23427518888294" lon="8.814432682254175"><ele>827.0</ele><time>2026-05-01T16:40:05Z</time></trkpt><trkpt lat="42.23419418500731" lon="8.814319762933268"><ele>827.8</ele><time>2026-05-01T16:40:06Z</time></trkpt><trkpt lat="42.23414669689733" lon="8.814207107984046"><ele>828.6</ele><time>2026-05-01T16:40:07Z</time></trkpt><trkpt lat="42.23417209238029" lon="8.814078135449433"><ele>829.4</ele><time>2026-05-01T16:40:08Z</time></trkpt><trkpt lat="42.234258880221375" lon="8.813974032940752"><ele>830.1999999999999</ele><time>2026-05-01T16:40:09Z</time></trkpt><trkpt lat="42.234376836576054" lon="8.813909723578757"><ele>831.0</ele><time>2026-05-01T16:40:10Z</time></trkpt><trkpt lat="42.234523793137214" lon="8.81388036842943"><ele>831.0</ele><time>2026-05-01T16:40:11Z</time></trkpt><trkpt lat="42.23467614889296" lon="8.813857373110965"><ele>831.0</ele><time>2026-05-01T16:40:12Z</time></trkpt><trkpt lat="42.234829034866834" lon="8.813824668662324"><ele>831.0</ele><time>2026-05-01T16:40:13Z</time></trkpt><trkpt lat="42.23497728304868" lon="8.8137838357691"><ele>830.25</ele><time>2026-05-01T16:40:14Z</time></trkpt><trkpt lat="42.23510502128576" lon="8.813739480224768"><ele>829.5</ele><time>2026-05-01T16:40:15Z</time></trkpt><trkpt lat="42.23521159057535" lon="8.813666053678359"><ele>828.75</ele><time>2026-05-01T16:40:16Z</time></trkpt><trkpt lat="42.23529201779867" lon="8.813534161785055"><ele>828.0</ele><time>2026-05-01T16:40:17Z</time></trkpt><trkpt lat="42.235336074171556" lon="8.81337881601873"><ele>828.0</ele><time>2026-05-01T16:40:18Z</time></trkpt><trkpt lat="42.23534830113535" lon="8.813203395130532"><ele>828.0</ele><time>2026-05-01T16:40:18.999Z</time></trkpt><trkpt lat="42.23537250189535" lon="8.813034154586035"><ele>828.0</ele><time>2026-05-01T16:40:19.999Z</time></trkpt><trkpt lat="42.235466867094885" lon="8.812937340854978"><ele>828.0</ele><time>2026-05-01T16:40:20.999Z</time></trkpt><trkpt lat="42.235598711542735" lon="8.812910952680912"><ele>823.0</ele><time>2026-05-01T16:40:21.999Z</time></trkpt><trkpt lat="42.235741869108146" lon="8.81294134999194"><ele>818.0</ele><time>2026-05-01T16:40:22.999Z</time></trkpt><trkpt lat="42.23587333259503" lon="8.812997658477423"><ele>813.0</ele><time>2026-05-01T16:40:23.999Z</time></trkpt><trkpt lat="42.23597834081435" lon="8.813031883311103"><ele>808.0</ele><time>2026-05-01T16:40:24.999Z</time></trkpt><trkpt lat="42.236051105661524" lon="8.812987147493859"><ele>808.0</ele><time>2026-05-01T16:40:25.999Z</time></trkpt><trkpt lat="42.23609478827525" lon="8.812881936877162"><ele>808.0</ele><time>2026-05-01T16:40:26.999Z</time></trkpt><trkpt lat="42.23613435928353" lon="8.812738827169667"><ele>808.0</ele><time>2026-05-01T16:40:27.999Z</time></trkpt><trkpt lat="42.23620576879411" lon="8.812594073340787"><ele>808.0</ele><time>2026-05-01T16:40:28.999Z</time></trkpt><trkpt lat="42.23632768567209" lon="8.812494859871824"><ele>806.3333333333333</ele><time>2026-05-01T16:40:29.999Z</time></trkpt><trkpt lat="42.23647351004918" lon="8.81243559780361"><ele>804.6666666666667</ele><time>2026-05-01T16:40:30.999Z</time></trkpt><trkpt lat="42.236619528300736" lon="8.812350854308681"><ele>803.0</ele><time>2026-05-01T16:40:31.999Z</time></trkpt><trkpt lat="42.236759121668996" lon="8.81221700524151"><ele>803.0</ele><time>2026-05-01T16:40:32.999Z</time></trkpt><trkpt lat="42.236879005303734" lon="8.812073817606942"><ele>803.0</ele><time>2026-05-01T16:40:33.999Z</time></trkpt><trkpt lat="42.23699260876513" lon="8.811944813809136"><ele>803.0</ele><time>2026-05-01T16:40:34.999Z</time></trkpt><trkpt lat="42.23709074856434" lon="8.811796334384317"><ele>810.3333333333334</ele><time>2026-05-01T16:40:35.999Z</time></trkpt><trkpt lat="42.2371671656604" lon="8.811609468662184"><ele>817.6666666666667</ele><time>2026-05-01T16:40:36.999Z</time></trkpt><trkpt lat="42.23721335896255" lon="8.811382643445405"><ele>825.0</ele><time>2026-05-01T16:40:37.999Z</time></trkpt><trkpt lat="42.23726201191369" lon="8.81115589551391"><ele>818.0</ele><time>2026-05-01T16:40:38.999Z</time></trkpt><trkpt lat="42.237357222474145" lon="8.810963314523905"><ele>811.0</ele><time>2026-05-01T16:40:39.999Z</time></trkpt><trkpt lat="42.237488206980416" lon="8.810803821816375"><ele>804.0</ele><time>2026-05-01T16:40:40.999Z</time></trkpt><trkpt lat="42.237614620943134" lon="8.810643598327445"><ele>804.0</ele><time>2026-05-01T16:40:41.999Z</time></trkpt><trkpt lat="42.23772413445635" lon="8.810471730996197"><ele>804.0</ele><time>2026-05-01T16:40:42.999Z</time></trkpt><trkpt lat="42.23784264537646" lon="8.810342899750317"><ele>804.0</ele><time>2026-05-01T16:40:43.999Z</time></trkpt><trkpt lat="42.237972634766976" lon="8.810243684566661"><ele>807.0</ele><time>2026-05-01T16:40:44.999Z</time></trkpt><trkpt lat="42.23806723272271" lon="8.810129868874858"><ele>810.0</ele><time>2026-05-01T16:40:45.999Z</time></trkpt><trkpt lat="42.23811901884393" lon="8.80996244704716"><ele>813.0</ele><time>2026-05-01T16:40:46.999Z</time></trkpt><trkpt lat="42.238153027101916" lon="8.809762907336706"><ele>816.0</ele><time>2026-05-01T16:40:47.999Z</time></trkpt><trkpt lat="42.23816670623435" lon="8.809545629305886"><ele>814.5</ele><time>2026-05-01T16:40:48.999Z</time></trkpt><trkpt lat="42.23815580330428" lon="8.80933387451937"><ele>813.0</ele><time>2026-05-01T16:40:49.999Z</time></trkpt><trkpt lat="42.23813133162819" lon="8.809143424632694"><ele>811.5</ele><time>2026-05-01T16:40:50.999Z</time></trkpt><trkpt lat="42.23811413238975" lon="8.808960905538"><ele>810.0</ele><time>2026-05-01T16:40:51.999Z</time></trkpt><trkpt lat="42.23807919708484" lon="8.808790294361856"><ele>810.0</ele><time>2026-05-01T16:40:52.999Z</time></trkpt><trkpt lat="42.23804132258835" lon="8.808629106649045"><ele>810.0</ele><time>2026-05-01T16:40:53.999Z</time></trkpt><trkpt lat="42.23799175661568" lon="8.808483530953247"><ele>810.0</ele><time>2026-05-01T16:40:54.999Z</time></trkpt><trkpt lat="42.23793457582493" lon="8.808358366201691"><ele>810.0</ele><time>2026-05-01T16:40:55.999Z</time></trkpt><trkpt lat="42.23787003431448" lon="8.808241789060572"><ele>805.25</ele><time>2026-05-01T16:40:56.999Z</time></trkpt><trkpt lat="42.23779505624174" lon="8.808144371931254"><ele>800.5</ele><time>2026-05-01T16:40:57.999Z</time></trkpt><trkpt lat="42.237691873898925" lon="8.808102473319764"><ele>795.75</ele><time>2026-05-01T16:40:58.999Z</time></trkpt><trkpt lat="42.2375602694495" lon="8.808112293417626"><ele>791.0</ele><time>2026-05-01T16:40:59.999Z</time></trkpt><trkpt lat="42.23743373888274" lon="8.808138011980258"><ele>791.0</ele><time>2026-05-01T16:41:00.999Z</time></trkpt><trkpt lat="42.237311712597034" lon="8.808169840086263"><ele>791.0</ele><time>2026-05-01T16:41:01.999Z</time></trkpt><trkpt lat="42.23719536154386" lon="8.808201230766583"><ele>791.0</ele><time>2026-05-01T16:41:02.999Z</time></trkpt><trkpt lat="42.23708145425202" lon="8.808248747425692"><ele>791.0</ele><time>2026-05-01T16:41:03.999Z</time></trkpt><trkpt lat="42.236968396979755" lon="8.808348324095796"><ele>793.5</ele><time>2026-05-01T16:41:04.999Z</time></trkpt><trkpt lat="42.23685612050968" lon="8.80846117891508"><ele>796.0</ele><time>2026-05-01T16:41:05.998Z</time></trkpt><trkpt lat="42.23674379508686" lon="8.808570129588505"><ele>798.5</ele><time>2026-05-01T16:41:06.998Z</time></trkpt><trkpt lat="42.23662695312988" lon="8.808675992633102"><ele>801.0</ele><time>2026-05-01T16:41:07.998Z</time></trkpt><trkpt lat="42.23651354729396" lon="8.808780172302383"><ele>800.0</ele><time>2026-05-01T16:41:08.998Z</time></trkpt><trkpt lat="42.23640860482004" lon="8.808866938213278"><ele>799.0</ele><time>2026-05-01T16:41:09.998Z</time></trkpt><trkpt lat="42.23630234100793" lon="8.80891873374477"><ele>798.0</ele><time>2026-05-01T16:41:10.998Z</time></trkpt><trkpt lat="42.236189379173354" lon="8.808941378175739"><ele>797.0</ele><time>2026-05-01T16:41:11.998Z</time></trkpt><trkpt lat="42.236064948756145" lon="8.808915177708007"><ele>797.0</ele><time>2026-05-01T16:41:12.998Z</time></trkpt><trkpt lat="42.23594517483478" lon="8.808853155900728"><ele>797.0</ele><time>2026-05-01T16:41:13.998Z</time></trkpt><trkpt lat="42.23582541779899" lon="8.808745706020453"><ele>797.0</ele><time>2026-05-01T16:41:14.998Z</time></trkpt><trkpt lat="42.23570693115461" lon="8.808630667562365"><ele>797.0</ele><time>2026-05-01T16:41:15.998Z</time></trkpt><trkpt lat="42.235580140786695" lon="8.808528648802028"><ele>795.25</ele><time>2026-05-01T16:41:16.998Z</time></trkpt><trkpt lat="42.235448393748875" lon="8.808459766289307"><ele>793.5</ele><time>2026-05-01T16:41:17.998Z</time></trkpt><trkpt lat="42.23531678833341" lon="8.808393831606134"><ele>791.75</ele><time>2026-05-01T16:41:18.998Z</time></trkpt><trkpt lat="42.23519034303513" lon="8.80831353016277"><ele>790.0</ele><time>2026-05-01T16:41:19.998Z</time></trkpt><trkpt lat="42.235070191146605" lon="8.80821737983298"><ele>790.0</ele><time>2026-05-01T16:41:20.998Z</time></trkpt><trkpt lat="42.2349451309374" lon="8.8081292772084"><ele>790.0</ele><time>2026-05-01T16:41:21.998Z</time></trkpt><trkpt lat="42.23482556868938" lon="8.808019581281483"><ele>790.0</ele><time>2026-05-01T16:41:22.998Z</time></trkpt><trkpt lat="42.23471239668664" lon="8.807899285009613"><ele>790.0</ele><time>2026-05-01T16:41:23.998Z</time></trkpt><trkpt lat="42.23461771099016" lon="8.807746724314372"><ele>793.5</ele><time>2026-05-01T16:41:24.998Z</time></trkpt><trkpt lat="42.23455523792717" lon="8.807582273533232"><ele>797.0</ele><time>2026-05-01T16:41:25.998Z</time></trkpt><trkpt lat="42.23453117460731" lon="8.807406540754535"><ele>800.5</ele><time>2026-05-01T16:41:26.998Z</time></trkpt><trkpt lat="42.234541933132476" lon="8.807219970712268"><ele>804.0</ele><time>2026-05-01T16:41:27.998Z</time></trkpt><trkpt lat="42.23458133849525" lon="8.807025733137106"><ele>804.0</ele><time>2026-05-01T16:41:28.998Z</time></trkpt><trkpt lat="42.2346074434895" lon="8.806853577696272"><ele>804.0</ele><time>2026-05-01T16:41:29.998Z</time></trkpt><trkpt lat="42.23458576736154" lon="8.806682687236922"><ele>804.0</ele><time>2026-05-01T16:41:30.998Z</time></trkpt><trkpt lat="42.23450121025622" lon="8.806522023356942"><ele>804.0</ele><time>2026-05-01T16:41:31.998Z</time></trkpt><trkpt lat="42.23439227126129" lon="8.806369264828525"><ele>800.3333333333333</ele><time>2026-05-01T16:41:32.998Z</time></trkpt><trkpt lat="42.23429929090906" lon="8.806195758484598"><ele>796.6666666666666</ele><time>2026-05-01T16:41:33.998Z</time></trkpt><trkpt lat="42.234257950944595" lon="8.806000537483493"><ele>793.0</ele><time>2026-05-01T16:41:34.998Z</time></trkpt><trkpt lat="42.23422476644592" lon="8.805795735597068"><ele>797.5</ele><time>2026-05-01T16:41:35.998Z</time></trkpt><trkpt lat="42.234156801294695" lon="8.805622946654927"><ele>802.0</ele><time>2026-05-01T16:41:36.998Z</time></trkpt><trkpt lat="42.23406196428094" lon="8.805481470086184"><ele>806.5</ele><time>2026-05-01T16:41:37.998Z</time></trkpt><trkpt lat="42.23397243784534" lon="8.80534192732668"><ele>811.0</ele><time>2026-05-01T16:41:38.998Z</time></trkpt><trkpt lat="42.233916361011694" lon="8.805175538333915"><ele>805.25</ele><time>2026-05-01T16:41:39.998Z</time></trkpt><trkpt lat="42.23389379340465" lon="8.805005469112018"><ele>799.5</ele><time>2026-05-01T16:41:40.998Z</time></trkpt><trkpt lat="42.23384888646445" lon="8.804846981699695"><ele>793.75</ele><time>2026-05-01T16:41:41.998Z</time></trkpt><trkpt lat="42.2337657250318" lon="8.804710525952016"><ele>788.0</ele><time>2026-05-01T16:41:42.998Z</time></trkpt><trkpt lat="42.233683718841824" lon="8.804580127038289"><ele>788.0</ele><time>2026-05-01T16:41:43.998Z</time></trkpt><trkpt lat="42.23363885089577" lon="8.8044510344695"><ele>788.0</ele><time>2026-05-01T16:41:44.998Z</time></trkpt><trkpt lat="42.23363484027401" lon="8.804311329018747"><ele>788.0</ele><time>2026-05-01T16:41:45.998Z</time></trkpt><trkpt lat="42.23366613776" lon="8.804171261453108"><ele>788.0</ele><time>2026-05-01T16:41:46.998Z</time></trkpt><trkpt lat="42.23371113100378" lon="8.804040446275062"><ele>788.0</ele><time>2026-05-01T16:41:47.998Z</time></trkpt><trkpt lat="42.23374048276614" lon="8.803913521108313"><ele>785.5000000000001</ele><time>2026-05-01T16:41:49Z</time></trkpt><trkpt lat="42.23375156927673" lon="8.803784398118255"><ele>783.0</ele><time>2026-05-01T16:41:50Z</time></trkpt><trkpt lat="42.23375445528362" lon="8.803663777890167"><ele>780.5</ele><time>2026-05-01T16:41:51Z</time></trkpt><trkpt lat="42.23373966173729" lon="8.803558662664956"><ele>778.0</ele><time>2026-05-01T16:41:52Z</time></trkpt><trkpt lat="42.23370539692233" lon="8.803451783627755"><ele>775.5000000000001</ele><time>2026-05-01T16:41:53Z</time></trkpt><trkpt lat="42.23366130977197" lon="8.803353043956205"><ele>773.0</ele><time>2026-05-01T16:41:54Z</time></trkpt><trkpt lat="42.23361166603724" lon="8.803266951782046"><ele>769.0</ele><time>2026-05-01T16:41:55Z</time></trkpt><trkpt lat="42.23355304864129" lon="8.803194690376671"><ele>765.0</ele><time>2026-05-01T16:41:56Z</time></trkpt><trkpt lat="42.233481074619725" lon="8.803140043191616"><ele>761.0</ele><time>2026-05-01T16:41:57Z</time></trkpt><trkpt lat="42.23338638768606" lon="8.803103471565318"><ele>757.0</ele><time>2026-05-01T16:41:58Z</time></trkpt><trkpt lat="42.23328118190306" lon="8.803069271475342"><ele>753.0</ele><time>2026-05-01T16:41:59Z</time></trkpt><trkpt lat="42.2331855139532" lon="8.803027339812864"><ele>755.8333333333334</ele><time>2026-05-01T16:42:00Z</time></trkpt><trkpt lat="42.233099264646775" lon="8.802979349165232"><ele>758.6666666666667</ele><time>2026-05-01T16:42:01Z</time></trkpt><trkpt lat="42.233028946664106" lon="8.802910585992477"><ele>761.5</ele><time>2026-05-01T16:42:02Z</time></trkpt><trkpt lat="42.232996121822374" lon="8.802816453084935"><ele>764.3333333333334</ele><time>2026-05-01T16:42:03Z</time></trkpt><trkpt lat="42.23301715545326" lon="8.80271180556496"><ele>767.1666666666667</ele><time>2026-05-01T16:42:04Z</time></trkpt><trkpt lat="42.233069227418945" lon="8.802605605861082"><ele>770.0</ele><time>2026-05-01T16:42:05Z</time></trkpt><trkpt lat="42.23309454074347" lon="8.802515058092236"><ele>770.0000000000001</ele><time>2026-05-01T16:42:06Z</time></trkpt><trkpt lat="42.233099560668514" lon="8.802406839861632"><ele>770.0</ele><time>2026-05-01T16:42:07Z</time></trkpt><trkpt lat="42.233085858907884" lon="8.802296234493513"><ele>770.0</ele><time>2026-05-01T16:42:08Z</time></trkpt><trkpt lat="42.23306759304274" lon="8.802187595484712"><ele>770.0</ele><time>2026-05-01T16:42:09Z</time></trkpt><trkpt lat="42.233053152175415" lon="8.80207123496641"><ele>770.0000000000001</ele><time>2026-05-01T16:42:10Z</time></trkpt><trkpt lat="42.233043992416306" lon="8.801957940831883"><ele>770.0</ele><time>2026-05-01T16:42:11Z</time></trkpt><trkpt lat="42.23307070692161" lon="8.801851516343325"><ele>768.1666666666667</ele><time>2026-05-01T16:42:12Z</time></trkpt><trkpt lat="42.233110355377434" lon="8.801764558315002"><ele>766.3333333333334</ele><time>2026-05-01T16:42:13Z</time></trkpt><trkpt lat="42.233158598658484" lon="8.801685078186676"><ele>764.5</ele><time>2026-05-01T16:42:14Z</time></trkpt><trkpt lat="42.23321068538242" lon="8.801608369376844"><ele>762.6666666666667</ele><time>2026-05-01T16:42:15Z</time></trkpt><trkpt lat="42.233272404789375" lon="8.801530295226579"><ele>760.8333333333334</ele><time>2026-05-01T16:42:16Z</time></trkpt><trkpt lat="42.23334297562922" lon="8.801458053806142"><ele>759.0</ele><time>2026-05-01T16:42:17Z</time></trkpt><trkpt lat="42.23341080083829" lon="8.801383287539432"><ele>754.5</ele><time>2026-05-01T16:42:18Z</time></trkpt><trkpt lat="42.233461011067824" lon="8.801298453592103"><ele>750.0</ele><time>2026-05-01T16:42:19Z</time></trkpt><trkpt lat="42.2334779780751" lon="8.801203545991068"><ele>745.5</ele><time>2026-05-01T16:42:20Z</time></trkpt><trkpt lat="42.23345046851636" lon="8.801111454057336"><ele>741.0</ele><time>2026-05-01T16:42:21Z</time></trkpt><trkpt lat="42.23341566866485" lon="8.801015030592199"><ele>736.5</ele><time>2026-05-01T16:42:22Z</time></trkpt><trkpt lat="42.233345098097104" lon="8.800938333582065"><ele>732.0</ele><time>2026-05-01T16:42:23Z</time></trkpt><trkpt lat="42.23325784554311" lon="8.800898711727449"><ele>731.0</ele><time>2026-05-01T16:42:24Z</time></trkpt><trkpt lat="42.23316552415652" lon="8.800888189833701"><ele>730.0</ele><time>2026-05-01T16:42:24.999Z</time></trkpt><trkpt lat="42.23307415533521" lon="8.800889313864982"><ele>729.0</ele><time>2026-05-01T16:42:25.999Z</time></trkpt><trkpt lat="42.232978529465406" lon="8.800893089653584"><ele>728.0</ele><time>2026-05-01T16:42:26.999Z</time></trkpt><trkpt lat="42.23288421878931" lon="8.800869958081536"><ele>727.0</ele><time>2026-05-01T16:42:27.999Z</time></trkpt><trkpt lat="42.232798025365376" lon="8.800820368558012"><ele>729.3333333333334</ele><time>2026-05-01T16:42:28.999Z</time></trkpt><trkpt lat="42.23270812111129" lon="8.800771913361988"><ele>731.6666666666667</ele><time>2026-05-01T16:42:29.999Z</time></trkpt><trkpt lat="42.23261886157989" lon="8.800744420027701"><ele>734.0</ele><time>2026-05-01T16:42:30.999Z</time></trkpt><trkpt lat="42.23253707054951" lon="8.800708039749908"><ele>736.3333333333334</ele><time>2026-05-01T16:42:31.999Z</time></trkpt><trkpt lat="42.23247691131555" lon="8.800641307822408"><ele>738.6666666666666</ele><time>2026-05-01T16:42:32.999Z</time></trkpt><trkpt lat="42.232451478799824" lon="8.80054109876172"><ele>741.0</ele><time>2026-05-01T16:42:33.999Z</time></trkpt><trkpt lat="42.23245581250923" lon="8.800434119995943"><ele>741.0</ele><time>2026-05-01T16:42:34.999Z</time></trkpt><trkpt lat="42.23248382496536" lon="8.80032842822937"><ele>741.0</ele><time>2026-05-01T16:42:35.999Z</time></trkpt><trkpt lat="42.23250244486915" lon="8.800236278128507"><ele>741.0</ele><time>2026-05-01T16:42:36.999Z</time></trkpt><trkpt lat="42.2325168185519" lon="8.800146095450328"><ele>741.0</ele><time>2026-05-01T16:42:37.999Z</time></trkpt><trkpt lat="42.23250388020199" lon="8.799978716322371"><ele>741.0</ele><time>2026-05-01T16:42:39.999Z</time></trkpt><trkpt lat="42.23246042671379" lon="8.799895278601955"><ele>741.0</ele><time>2026-05-01T16:42:40.999Z</time></trkpt><trkpt lat="42.23240177524029" lon="8.799809873245023"><ele>742.5999999999999</ele><time>2026-05-01T16:42:41.999Z</time></trkpt><trkpt lat="42.23234666438162" lon="8.79971581189341"><ele>744.2</ele><time>2026-05-01T16:42:42.999Z</time></trkpt><trkpt lat="42.23228490139131" lon="8.799621790924283"><ele>745.8</ele><time>2026-05-01T16:42:43.999Z</time></trkpt><trkpt lat="42.23222058117519" lon="8.799533425343428"><ele>747.4000000000001</ele><time>2026-05-01T16:42:44.999Z</time></trkpt><trkpt lat="42.23215280891831" lon="8.79944816866451"><ele>749.0</ele><time>2026-05-01T16:42:45.999Z</time></trkpt><trkpt lat="42.232080816710955" lon="8.799379015773193"><ele>746.5</ele><time>2026-05-01T16:42:46.999Z</time></trkpt><trkpt lat="42.232012014222484" lon="8.799313236651193"><ele>744.0</ele><time>2026-05-01T16:42:47.999Z</time></trkpt><trkpt lat="42.23194424494276" lon="8.79924843123271"><ele>741.5</ele><time>2026-05-01T16:42:48.999Z</time></trkpt><trkpt lat="42.23187998072683" lon="8.79918282114936"><ele>739.0</ele><time>2026-05-01T16:42:49.999Z</time></trkpt><trkpt lat="42.23181670927096" lon="8.799116973067818"><ele>736.5</ele><time>2026-05-01T16:42:50.999Z</time></trkpt><trkpt lat="42.23176383276339" lon="8.79904601142328"><ele>734.0</ele><time>2026-05-01T16:42:51.999Z</time></trkpt><trkpt lat="42.23172800788665" lon="8.798960002045597"><ele>734.0</ele><time>2026-05-01T16:42:52.999Z</time></trkpt><trkpt lat="42.23172127361575" lon="8.798862036132158"><ele>734.0</ele><time>2026-05-01T16:42:53.999Z</time></trkpt><trkpt lat="42.23176830760041" lon="8.798789003104543"><ele>734.0</ele><time>2026-05-01T16:42:54.999Z</time></trkpt><trkpt lat="42.23184193617012" lon="8.798751720646086"><ele>734.0</ele><time>2026-05-01T16:42:55.999Z</time></trkpt><trkpt lat="42.231920742035996" lon="8.79874408487763"><ele>734.0</ele><time>2026-05-01T16:42:56.999Z</time></trkpt><trkpt lat="42.23201101546656" lon="8.798756782452658"><ele>734.0</ele><time>2026-05-01T16:42:57.999Z</time></trkpt><trkpt lat="42.232116653012454" lon="8.798775379060729"><ele>734.0</ele><time>2026-05-01T16:42:58.999Z</time></trkpt><trkpt lat="42.23222399489056" lon="8.798793221435304"><ele>734.0</ele><time>2026-05-01T16:42:59.999Z</time></trkpt><trkpt lat="42.2323215504107" lon="8.798822182957847"><ele>734.0</ele><time>2026-05-01T16:43:00.999Z</time></trkpt><trkpt lat="42.232406940301786" lon="8.79884426688336"><ele>734.0</ele><time>2026-05-01T16:43:01.999Z</time></trkpt><trkpt lat="42.23248697930042" lon="8.79885065098859"><ele>734.0</ele><time>2026-05-01T16:43:02.999Z</time></trkpt><trkpt lat="42.23256407544803" lon="8.798842888518124"><ele>732.4000000000001</ele><time>2026-05-01T16:43:03.999Z</time></trkpt><trkpt lat="42.23264616064126" lon="8.79881267410976"><ele>730.8</ele><time>2026-05-01T16:43:04.999Z</time></trkpt><trkpt lat="42.23273726541413" lon="8.798753575395748"><ele>729.2</ele><time>2026-05-01T16:43:05.999Z</time></trkpt><trkpt lat="42.232822554089715" lon="8.79867638856674"><ele>727.5999999999999</ele><time>2026-05-01T16:43:06.999Z</time></trkpt><trkpt lat="42.232890256766076" lon="8.798591814621455"><ele>726.0</ele><time>2026-05-01T16:43:07.999Z</time></trkpt><trkpt lat="42.23293391785116" lon="8.798472638210642"><ele>726.0</ele><time>2026-05-01T16:43:08.999Z</time></trkpt><trkpt lat="42.23296595102302" lon="8.798329804578781"><ele>726.0</ele><time>2026-05-01T16:43:09.999Z</time></trkpt><trkpt lat="42.232982178555424" lon="8.798163941999391"><ele>726.0</ele><time>2026-05-01T16:43:10.999Z</time></trkpt><trkpt lat="42.23298860881798" lon="8.798007025233963"><ele>726.0</ele><time>2026-05-01T16:43:11.999Z</time></trkpt><trkpt lat="42.232977757054314" lon="8.797865358813617"><ele>726.0</ele><time>2026-05-01T16:43:12.998Z</time></trkpt><trkpt lat="42.232939166789855" lon="8.797739035389656"><ele>726.0</ele><time>2026-05-01T16:43:13.998Z</time></trkpt><trkpt lat="42.23286755240839" lon="8.797633141236187"><ele>726.0</ele><time>2026-05-01T16:43:14.998Z</time></trkpt><trkpt lat="42.23283353767076" lon="8.797518918868507"><ele>726.0</ele><time>2026-05-01T16:43:15.998Z</time></trkpt><trkpt lat="42.232854169835925" lon="8.797399854595652"><ele>726.0</ele><time>2026-05-01T16:43:16.998Z</time></trkpt><trkpt lat="42.23292110251655" lon="8.797311738726211"><ele>726.5</ele><time>2026-05-01T16:43:17.998Z</time></trkpt><trkpt lat="42.23303042523243" lon="8.79727781242421"><ele>727.0</ele><time>2026-05-01T16:43:18.998Z</time></trkpt><trkpt lat="42.23314329995877" lon="8.797232822704235"><ele>727.5</ele><time>2026-05-01T16:43:19.998Z</time></trkpt><trkpt lat="42.233252104349795" lon="8.797153395714897"><ele>728.0</ele><time>2026-05-01T16:43:20.998Z</time></trkpt><trkpt lat="42.23335283428082" lon="8.797042642986112"><ele>724.4</ele><time>2026-05-01T16:43:21.998Z</time></trkpt><trkpt lat="42.233448133862815" lon="8.796916628930651"><ele>720.8</ele><time>2026-05-01T16:43:22.998Z</time></trkpt><trkpt lat="42.23352393219661" lon="8.796795317507826"><ele>717.2</ele><time>2026-05-01T16:43:23.998Z</time></trkpt><trkpt lat="42.233571400543205" lon="8.79668602917972"><ele>713.6</ele><time>2026-05-01T16:43:24.998Z</time></trkpt><trkpt lat="42.23357623493288" lon="8.796584245704402"><ele>710.0</ele><time>2026-05-01T16:43:25.998Z</time></trkpt><trkpt lat="42.23353189443548" lon="8.796479893143523"><ele>710.0</ele><time>2026-05-01T16:43:26.998Z</time></trkpt><trkpt lat="42.23347435793739" lon="8.79635442500665"><ele>710.0</ele><time>2026-05-01T16:43:27.998Z</time></trkpt><trkpt lat="42.23343614543026" lon="8.796203899220231"><ele>710.0</ele><time>2026-05-01T16:43:28.998Z</time></trkpt><trkpt lat="42.23343963533712" lon="8.796041771329028"><ele>710.0</ele><time>2026-05-01T16:43:29.998Z</time></trkpt><trkpt lat="42.23344866999415" lon="8.79587449731753"><ele>710.0</ele><time>2026-05-01T16:43:30.998Z</time></trkpt><trkpt lat="42.23345920933275" lon="8.795688671986778"><ele>710.0</ele><time>2026-05-01T16:43:31.998Z</time></trkpt><trkpt lat="42.23350166724223" lon="8.795518742982985"><ele>710.0</ele><time>2026-05-01T16:43:32.998Z</time></trkpt><trkpt lat="42.23358595141349" lon="8.79539642884307"><ele>710.0</ele><time>2026-05-01T16:43:33.998Z</time></trkpt><trkpt lat="42.23370406202465" lon="8.795323317510153"><ele>710.0</ele><time>2026-05-01T16:43:34.998Z</time></trkpt><trkpt lat="42.23380353628293" lon="8.795247957517248"><ele>710.0</ele><time>2026-05-01T16:43:35.998Z</time></trkpt><trkpt lat="42.23387271790568" lon="8.795133381053258"><ele>710.0</ele><time>2026-05-01T16:43:36.998Z</time></trkpt><trkpt lat="42.23389882972753" lon="8.794974332637615"><ele>710.0</ele><time>2026-05-01T16:43:37.998Z</time></trkpt><trkpt lat="42.23390841490452" lon="8.79479008743507"><ele>712.5</ele><time>2026-05-01T16:43:38.998Z</time></trkpt><trkpt lat="42.23393312302658" lon="8.794606924757113"><ele>715.0</ele><time>2026-05-01T16:43:39.998Z</time></trkpt><trkpt lat="42.23397103160739" lon="8.794414058831936"><ele>717.5</ele><time>2026-05-01T16:43:40.998Z</time></trkpt><trkpt lat="42.234033060774976" lon="8.794239603298271"><ele>720.0</ele><time>2026-05-01T16:43:41.998Z</time></trkpt><trkpt lat="42.23411709763824" lon="8.794088290713985"><ele>712.75</ele><time>2026-05-01T16:43:42.998Z</time></trkpt><trkpt lat="42.23418459721679" lon="8.793942444768781"><ele>705.5</ele><time>2026-05-01T16:43:43.998Z</time></trkpt><trkpt lat="42.234219866406804" lon="8.793766854065295"><ele>698.25</ele><time>2026-05-01T16:43:44.998Z</time></trkpt><trkpt lat="42.23424786023863" lon="8.793565503980036"><ele>691.0</ele><time>2026-05-01T16:43:45.998Z</time></trkpt><trkpt lat="42.2342660598884" lon="8.793371828690299"><ele>691.0</ele><time>2026-05-01T16:43:46.998Z</time></trkpt><trkpt lat="42.23428025220386" lon="8.793216046485114"><ele>691.0</ele><time>2026-05-01T16:43:47.998Z</time></trkpt><trkpt lat="42.23429831979981" lon="8.793082109118776"><ele>691.0</ele><time>2026-05-01T16:43:48.998Z</time></trkpt><trkpt lat="42.23432764397912" lon="8.792955654289212"><ele>691.0</ele><time>2026-05-01T16:43:49.998Z</time></trkpt><trkpt lat="42.234374675424995" lon="8.792837038387336"><ele>691.0</ele><time>2026-05-01T16:43:50.998Z</time></trkpt><trkpt lat="42.23443480233444" lon="8.792723887822774"><ele>692.8</ele><time>2026-05-01T16:43:51.998Z</time></trkpt><trkpt lat="42.23449666785909" lon="8.792608429074232"><ele>694.5999999999999</ele><time>2026-05-01T16:43:52.998Z</time></trkpt><trkpt lat="42.234547658934645" lon="8.792488330779246"><ele>696.4</ele><time>2026-05-01T16:43:53.998Z</time></trkpt><trkpt lat="42.23457703421249" lon="8.792350007475664"><ele>698.2</ele><time>2026-05-01T16:43:55Z</time></trkpt><trkpt lat="42.23459397821715" lon="8.792206446773262"><ele>700.0</ele><time>2026-05-01T16:43:56Z</time></trkpt><trkpt lat="42.2346149433515" lon="8.792060878018843"><ele>700.0</ele><time>2026-05-01T16:43:57Z</time></trkpt><trkpt lat="42.23464280632461" lon="8.791913310595081"><ele>700.0</ele><time>2026-05-01T16:43:58Z</time></trkpt><trkpt lat="42.2346736486959" lon="8.791785355064162"><ele>700.0</ele><time>2026-05-01T16:43:59Z</time></trkpt><trkpt lat="42.234732704133776" lon="8.791668751227961"><ele>700.0</ele><time>2026-05-01T16:44:00Z</time></trkpt><trkpt lat="42.234776799097276" lon="8.791540302716705"><ele>700.0</ele><time>2026-05-01T16:44:01Z</time></trkpt><trkpt lat="42.23478960487844" lon="8.79138944738379"><ele>700.75</ele><time>2026-05-01T16:44:02Z</time></trkpt><trkpt lat="42.23479439807684" lon="8.79122699489417"><ele>701.5</ele><time>2026-05-01T16:44:03Z</time></trkpt><trkpt lat="42.234777587574634" lon="8.79107092907167"><ele>702.25</ele><time>2026-05-01T16:44:04Z</time></trkpt><trkpt lat="42.23474731000164" lon="8.790921991765053"><ele>703.0</ele><time>2026-05-01T16:44:05Z</time></trkpt><trkpt lat="42.23470128397822" lon="8.790795983490522"><ele>703.0</ele><time>2026-05-01T16:44:06Z</time></trkpt><trkpt lat="42.23464274430598" lon="8.790678992944084"><ele>703.0</ele><time>2026-05-01T16:44:07Z</time></trkpt><trkpt lat="42.23459142829028" lon="8.790564057675837"><ele>703.0</ele><time>2026-05-01T16:44:08Z</time></trkpt><trkpt lat="42.23455620880451" lon="8.790455236857776"><ele>703.0</ele><time>2026-05-01T16:44:09Z</time></trkpt><trkpt lat="42.23453346730124" lon="8.790321843589966"><ele>703.0</ele><time>2026-05-01T16:44:10Z</time></trkpt><trkpt lat="42.23451766763738" lon="8.790188091668444"><ele>700.0</ele><time>2026-05-01T16:44:11Z</time></trkpt><trkpt lat="42.234500463770026" lon="8.790053552960694"><ele>697.0</ele><time>2026-05-01T16:44:12Z</time></trkpt><trkpt lat="42.23447625894355" lon="8.789916288189387"><ele>694.0</ele><time>2026-05-01T16:44:13Z</time></trkpt><trkpt lat="42.23444823423939" lon="8.7897853704494"><ele>691.0</ele><time>2026-05-01T16:44:14Z</time></trkpt><trkpt lat="42.234398743879" lon="8.789665508631641"><ele>688.0</ele><time>2026-05-01T16:44:15Z</time></trkpt><trkpt lat="42.23435598504507" lon="8.78955476294694"><ele>688.0</ele><time>2026-05-01T16:44:16Z</time></trkpt><trkpt lat="42.23437392499754" lon="8.789444036078287"><ele>688.0</ele><time>2026-05-01T16:44:17Z</time></trkpt><trkpt lat="42.23443686892802" lon="8.789371498678827"><ele>688.0</ele><time>2026-05-01T16:44:18Z</time></trkpt><trkpt lat="42.23451449710749" lon="8.789343237964761"><ele>688.0</ele><time>2026-05-01T16:44:19Z</time></trkpt><trkpt lat="42.23461139490947" lon="8.78932931119537"><ele>688.0</ele><time>2026-05-01T16:44:20Z</time></trkpt><trkpt lat="42.23472273459191" lon="8.789340174492306"><ele>682.5999999999999</ele><time>2026-05-01T16:44:21Z</time></trkpt><trkpt lat="42.23483408201623" lon="8.78933957077893"><ele>677.1999999999999</ele><time>2026-05-01T16:44:22Z</time></trkpt><trkpt lat="42.234926190231285" lon="8.789284043804122"><ele>671.8</ele><time>2026-05-01T16:44:23Z</time></trkpt><trkpt lat="42.23499295679036" lon="8.789178579577301"><ele>666.4</ele><time>2026-05-01T16:44:24Z</time></trkpt><trkpt lat="42.23505310532583" lon="8.789029098772428"><ele>661.0</ele><time>2026-05-01T16:44:25Z</time></trkpt><trkpt lat="42.235102668252374" lon="8.788857025840354"><ele>661.0</ele><time>2026-05-01T16:44:26Z</time></trkpt><trkpt lat="42.235151649573474" lon="8.788669448835318"><ele>661.0</ele><time>2026-05-01T16:44:27Z</time></trkpt><trkpt lat="42.23520782460972" lon="8.78847633825855"><ele>661.0</ele><time>2026-05-01T16:44:28Z</time></trkpt><trkpt lat="42.235269373032736" lon="8.788303774641015"><ele>661.0</ele><time>2026-05-01T16:44:29Z</time></trkpt><trkpt lat="42.235349478760604" lon="8.788163028032505"><ele>659.8</ele><time>2026-05-01T16:44:29.999Z</time></trkpt><trkpt lat="42.23544221708984" lon="8.78804676923354"><ele>658.5999999999999</ele><time>2026-05-01T16:44:30.999Z</time></trkpt><trkpt lat="42.23553289468432" lon="8.787960223241502"><ele>657.4</ele><time>2026-05-01T16:44:31.999Z</time></trkpt><trkpt lat="42.23561154469926" lon="8.78791055786746"><ele>656.2</ele><time>2026-05-01T16:44:32.999Z</time></trkpt><trkpt lat="42.23568933145253" lon="8.787893563099855"><ele>655.0</ele><time>2026-05-01T16:44:33.999Z</time></trkpt><trkpt lat="42.23576271100136" lon="8.787920006578506"><ele>655.0</ele><time>2026-05-01T16:44:34.999Z</time></trkpt><trkpt lat="42.23584579877258" lon="8.787999667327226"><ele>655.0</ele><time>2026-05-01T16:44:36.999Z</time></trkpt><trkpt lat="42.235949273040305" lon="8.788078446487752"><ele>655.0</ele><time>2026-05-01T16:44:38.999Z</time></trkpt><trkpt lat="42.23601427523714" lon="8.788092719374626"><ele>655.0</ele><time>2026-05-01T16:44:39.999Z</time></trkpt><trkpt lat="42.23611835834507" lon="8.788004852278851"><ele>655.0</ele><time>2026-05-01T16:44:41.999Z</time></trkpt><trkpt lat="42.23617380183149" lon="8.78794306425959"><ele>655.0</ele><time>2026-05-01T16:44:42.999Z</time></trkpt><trkpt lat="42.23624357337029" lon="8.787879810264382"><ele>655.0</ele><time>2026-05-01T16:44:43.999Z</time></trkpt><trkpt lat="42.236318366013165" lon="8.787803174964207"><ele>655.0</ele><time>2026-05-01T16:44:44.999Z</time></trkpt><trkpt lat="42.23639882010725" lon="8.787744868929417"><ele>655.0</ele><time>2026-05-01T16:44:45.999Z</time></trkpt><trkpt lat="42.23648345303215" lon="8.787725911991734"><ele>655.0</ele><time>2026-05-01T16:44:46.999Z</time></trkpt><trkpt lat="42.23656696132949" lon="8.787752437791491"><ele>655.0</ele><time>2026-05-01T16:44:47.999Z</time></trkpt><trkpt lat="42.23664502019169" lon="8.787801089783551"><ele>656.0</ele><time>2026-05-01T16:44:48.999Z</time></trkpt><trkpt lat="42.2367302391637" lon="8.787822651914949"><ele>657.0</ele><time>2026-05-01T16:44:49.999Z</time></trkpt><trkpt lat="42.236809321908574" lon="8.787776752401543"><ele>658.0</ele><time>2026-05-01T16:44:50.999Z</time></trkpt><trkpt lat="42.23688050031118" lon="8.787686057730568"><ele>659.0</ele><time>2026-05-01T16:44:51.999Z</time></trkpt><trkpt lat="42.23697075403192" lon="8.787620626223877"><ele>660.0</ele><time>2026-05-01T16:44:52.999Z</time></trkpt><trkpt lat="42.237077456772084" lon="8.78761321951623"><ele>660.0</ele><time>2026-05-01T16:44:53.999Z</time></trkpt><trkpt lat="42.23718503290378" lon="8.787655984538457"><ele>660.0</ele><time>2026-05-01T16:44:54.999Z</time></trkpt><trkpt lat="42.237289917075664" lon="8.78770501631926"><ele>660.0</ele><time>2026-05-01T16:44:55.999Z</time></trkpt><trkpt lat="42.237389004354426" lon="8.787743286300584"><ele>660.0</ele><time>2026-05-01T16:44:56.999Z</time></trkpt><trkpt lat="42.23748538285649" lon="8.787718058035699"><ele>660.0</ele><time>2026-05-01T16:44:57.999Z</time></trkpt><trkpt lat="42.237571074177374" lon="8.787628774117456"><ele>658.0</ele><time>2026-05-01T16:44:58.999Z</time></trkpt><trkpt lat="42.237646795291155" lon="8.787543790516475"><ele>656.0</ele><time>2026-05-01T16:44:59.999Z</time></trkpt><trkpt lat="42.23773241343953" lon="8.787534222271988"><ele>654.0</ele><time>2026-05-01T16:45:00.999Z</time></trkpt><trkpt lat="42.23781875026192" lon="8.787570153057388"><ele>652.0</ele><time>2026-05-01T16:45:01.999Z</time></trkpt><trkpt lat="42.237906003880575" lon="8.787637337969013"><ele>650.0</ele><time>2026-05-01T16:45:02.999Z</time></trkpt><trkpt lat="42.23798054151928" lon="8.787737623749498"><ele>645.8</ele><time>2026-05-01T16:45:03.999Z</time></trkpt><trkpt lat="42.23803951589746" lon="8.787858802412824"><ele>641.6</ele><time>2026-05-01T16:45:04.999Z</time></trkpt><trkpt lat="42.238089508700845" lon="8.787987029796898"><ele>637.4</ele><time>2026-05-01T16:45:05.999Z</time></trkpt><trkpt lat="42.23812317319687" lon="8.788097461588686"><ele>633.2</ele><time>2026-05-01T16:45:06.999Z</time></trkpt><trkpt lat="42.23815060519417" lon="8.78820346999459"><ele>629.0</ele><time>2026-05-01T16:45:07.999Z</time></trkpt><trkpt lat="42.23817568580957" lon="8.788311489391885"><ele>629.0</ele><time>2026-05-01T16:45:08.999Z</time></trkpt><trkpt lat="42.238198828990996" lon="8.788415040414883"><ele>629.0</ele><time>2026-05-01T16:45:09.999Z</time></trkpt><trkpt lat="42.238231542121966" lon="8.788510180478186"><ele>629.0</ele><time>2026-05-01T16:45:10.999Z</time></trkpt><trkpt lat="42.23829461254293" lon="8.78855794163107"><ele>629.0</ele><time>2026-05-01T16:45:11.999Z</time></trkpt><trkpt lat="42.23837837283034" lon="8.788543753389028"><ele>629.0</ele><time>2026-05-01T16:45:12.999Z</time></trkpt><trkpt lat="42.23847000115392" lon="8.788499072085942"><ele>629.0</ele><time>2026-05-01T16:45:13.999Z</time></trkpt><trkpt lat="42.23855992936656" lon="8.788437298860398"><ele>629.0</ele><time>2026-05-01T16:45:14.999Z</time></trkpt><trkpt lat="42.23863905932239" lon="8.788364823795597"><ele>629.0</ele><time>2026-05-01T16:45:15.999Z</time></trkpt><trkpt lat="42.23869981827125" lon="8.788265223312985"><ele>629.0</ele><time>2026-05-01T16:45:16.999Z</time></trkpt><trkpt lat="42.238741797469366" lon="8.788141552074885"><ele>629.0</ele><time>2026-05-01T16:45:17.998Z</time></trkpt><trkpt lat="42.23875674979691" lon="8.78799820996268"><ele>629.0</ele><time>2026-05-01T16:45:18.998Z</time></trkpt><trkpt lat="42.238773354988645" lon="8.787856953740809"><ele>629.0</ele><time>2026-05-01T16:45:19.998Z</time></trkpt><trkpt lat="42.23880676895755" lon="8.787718175251948"><ele>629.0</ele><time>2026-05-01T16:45:20.998Z</time></trkpt><trkpt lat="42.23884596402089" lon="8.787595883634182"><ele>629.0</ele><time>2026-05-01T16:45:21.998Z</time></trkpt><trkpt lat="42.238914197654566" lon="8.787508367363179"><ele>629.0</ele><time>2026-05-01T16:45:22.998Z</time></trkpt><trkpt lat="42.23900717753201" lon="8.7874598888403"><ele>629.0</ele><time>2026-05-01T16:45:23.998Z</time></trkpt><trkpt lat="42.23910619991671" lon="8.787426283713238"><ele>630.0</ele><time>2026-05-01T16:45:24.998Z</time></trkpt><trkpt lat="42.23921412023312" lon="8.787404340723631"><ele>631.0</ele><time>2026-05-01T16:45:25.998Z</time></trkpt><trkpt lat="42.23933123393755" lon="8.787409062201279"><ele>632.0</ele><time>2026-05-01T16:45:26.998Z</time></trkpt><trkpt lat="42.239455272785804" lon="8.787415606649262"><ele>633.0</ele><time>2026-05-01T16:45:27.998Z</time></trkpt><trkpt lat="42.23957684734748" lon="8.787438726222236"><ele>633.0</ele><time>2026-05-01T16:45:28.998Z</time></trkpt><trkpt lat="42.23969290336082" lon="8.787440678661643"><ele>633.0</ele><time>2026-05-01T16:45:29.998Z</time></trkpt><trkpt lat="42.23980587209175" lon="8.787423763722211"><ele>633.0</ele><time>2026-05-01T16:45:30.998Z</time></trkpt><trkpt lat="42.239907654320454" lon="8.787375761993133"><ele>633.0</ele><time>2026-05-01T16:45:31.998Z</time></trkpt><trkpt lat="42.24000058674645" lon="8.787311744769884"><ele>633.0</ele><time>2026-05-01T16:45:32.998Z</time></trkpt><trkpt lat="42.24008097171836" lon="8.787230582404419"><ele>634.4</ele><time>2026-05-01T16:45:33.998Z</time></trkpt><trkpt lat="42.24016045669922" lon="8.787147441989726"><ele>635.8</ele><time>2026-05-01T16:45:34.998Z</time></trkpt><trkpt lat="42.24023646773532" lon="8.787062242862893"><ele>637.2</ele><time>2026-05-01T16:45:35.998Z</time></trkpt><trkpt lat="42.24030536244741" lon="8.786982483981534"><ele>638.6</ele><time>2026-05-01T16:45:36.998Z</time></trkpt><trkpt lat="42.24036907349536" lon="8.78690560759391"><ele>640.0</ele><time>2026-05-01T16:45:37.998Z</time></trkpt><trkpt lat="42.240423677591394" lon="8.786821744218091"><ele>640.0</ele><time>2026-05-01T16:45:38.998Z</time></trkpt><trkpt lat="42.24047171697078" lon="8.78671665303549"><ele>640.0</ele><time>2026-05-01T16:45:39.998Z</time></trkpt><trkpt lat="42.24053063671109" lon="8.786595729402928"><ele>640.0</ele><time>2026-05-01T16:45:40.998Z</time></trkpt><trkpt lat="42.24059291290194" lon="8.786481117341054"><ele>640.0</ele><time>2026-05-01T16:45:41.998Z</time></trkpt><trkpt lat="42.24065159134958" lon="8.78635684298136"><ele>640.0</ele><time>2026-05-01T16:45:42.998Z</time></trkpt><trkpt lat="42.24071782099694" lon="8.786231248409706"><ele>634.25</ele><time>2026-05-01T16:45:43.998Z</time></trkpt><trkpt lat="42.24079252045489" lon="8.786105839991698"><ele>628.5</ele><time>2026-05-01T16:45:44.998Z</time></trkpt><trkpt lat="42.24086541962951" lon="8.785978498093344"><ele>622.75</ele><time>2026-05-01T16:45:45.998Z</time></trkpt><trkpt lat="42.240935948271016" lon="8.785856382679732"><ele>617.0</ele><time>2026-05-01T16:45:46.998Z</time></trkpt><trkpt lat="42.24099175629814" lon="8.785726788326638"><ele>617.0</ele><time>2026-05-01T16:45:47.998Z</time></trkpt><trkpt lat="42.24102658021973" lon="8.785590041330764"><ele>617.0</ele><time>2026-05-01T16:45:48.998Z</time></trkpt><trkpt lat="42.2410588039781" lon="8.785440665735562"><ele>617.0</ele><time>2026-05-01T16:45:49.998Z</time></trkpt><trkpt lat="42.241104489402396" lon="8.78529389713378"><ele>617.0</ele><time>2026-05-01T16:45:50.998Z</time></trkpt><trkpt lat="42.241160545099106" lon="8.785158301831299"><ele>620.6</ele><time>2026-05-01T16:45:51.998Z</time></trkpt><trkpt lat="42.24122556353881" lon="8.785042742147102"><ele>624.2</ele><time>2026-05-01T16:45:52.998Z</time></trkpt><trkpt lat="42.2413155715632" lon="8.784968464479984"><ele>627.8</ele><time>2026-05-01T16:45:53.998Z</time></trkpt><trkpt lat="42.24141400000963" lon="8.784899190884996"><ele>631.4</ele><time>2026-05-01T16:45:54.998Z</time></trkpt><trkpt lat="42.2415148571345" lon="8.784833921070119"><ele>635.0</ele><time>2026-05-01T16:45:55.998Z</time></trkpt><trkpt lat="42.24160933044941" lon="8.784772492634872"><ele>629.25</ele><time>2026-05-01T16:45:56.998Z</time></trkpt><trkpt lat="42.24167984810304" lon="8.784680557057102"><ele>623.5</ele><time>2026-05-01T16:45:57.998Z</time></trkpt><trkpt lat="42.241716858401055" lon="8.784542291927126"><ele>617.75</ele><time>2026-05-01T16:45:58.998Z</time></trkpt><trkpt lat="42.24177972162111" lon="8.784406126902397"><ele>612.0</ele><time>2026-05-01T16:45:59.998Z</time></trkpt><trkpt lat="42.24188349447416" lon="8.784294675036053"><ele>612.0</ele><time>2026-05-01T16:46:01Z</time></trkpt><trkpt lat="42.24199258741736" lon="8.784179327894043"><ele>612.0</ele><time>2026-05-01T16:46:02Z</time></trkpt><trkpt lat="42.242107119385025" lon="8.784090956910141"><ele>612.0</ele><time>2026-05-01T16:46:03Z</time></trkpt><trkpt lat="42.24221609553478" lon="8.784020810601046"><ele>612.0</ele><time>2026-05-01T16:46:04Z</time></trkpt><trkpt lat="42.24228790017051" lon="8.783911812514352"><ele>605.0</ele><time>2026-05-01T16:46:05Z</time></trkpt><trkpt lat="42.2423565041535" lon="8.783803697703489"><ele>598.0</ele><time>2026-05-01T16:46:06Z</time></trkpt><trkpt lat="42.24245057504771" lon="8.78374108251194"><ele>591.0</ele><time>2026-05-01T16:46:07Z</time></trkpt><trkpt lat="42.242564099800155" lon="8.78373113738049"><ele>584.0</ele><time>2026-05-01T16:46:08Z</time></trkpt><trkpt lat="42.24267911950653" lon="8.7837542745618"><ele>577.0</ele><time>2026-05-01T16:46:09Z</time></trkpt><trkpt lat="42.242778241246654" lon="8.783753107146211"><ele>577.0</ele><time>2026-05-01T16:46:10Z</time></trkpt><trkpt lat="42.24286245385889" lon="8.783702149831353"><ele>577.0</ele><time>2026-05-01T16:46:11Z</time></trkpt><trkpt lat="42.24292892221182" lon="8.783614899202133"><ele>577.0</ele><time>2026-05-01T16:46:12Z</time></trkpt><trkpt lat="42.24297750661113" lon="8.783483531742473"><ele>577.0</ele><time>2026-05-01T16:46:13Z</time></trkpt><trkpt lat="42.24300846341657" lon="8.783342007910877"><ele>577.0</ele><time>2026-05-01T16:46:14Z</time></trkpt><trkpt lat="42.24301220925614" lon="8.783208837960634"><ele>575.6666666666667</ele><time>2026-05-01T16:46:15Z</time></trkpt><trkpt lat="42.243007269630134" lon="8.783089280812455"><ele>574.3333333333334</ele><time>2026-05-01T16:46:16Z</time></trkpt><trkpt lat="42.243006204233254" lon="8.782982307880951"><ele>573.0</ele><time>2026-05-01T16:46:17Z</time></trkpt><trkpt lat="42.243003665639016" lon="8.782884203221466"><ele>571.6666666666666</ele><time>2026-05-01T16:46:18Z</time></trkpt><trkpt lat="42.24303695443004" lon="8.782757745377939"><ele>570.3333333333333</ele><time>2026-05-01T16:46:20Z</time></trkpt><trkpt lat="42.243094344152496" lon="8.782721608001042"><ele>569.0</ele><time>2026-05-01T16:46:24Z</time></trkpt><trkpt lat="42.243169735161594" lon="8.782696771422936"><ele>571.25</ele><time>2026-05-01T16:46:32Z</time></trkpt><trkpt lat="42.24325216931802" lon="8.782565312607222"><ele>573.5</ele><time>2026-05-01T16:46:34Z</time></trkpt><trkpt lat="42.24326925562456" lon="8.78242879540678"><ele>575.75</ele><time>2026-05-01T16:46:35Z</time></trkpt><trkpt lat="42.243302007992526" lon="8.782268958799781"><ele>578.0</ele><time>2026-05-01T16:46:36Z</time></trkpt><trkpt lat="42.243328059216694" lon="8.782105502584226"><ele>578.0</ele><time>2026-05-01T16:46:37Z</time></trkpt><trkpt lat="42.243348785800656" lon="8.781929763565453"><ele>578.0</ele><time>2026-05-01T16:46:38Z</time></trkpt><trkpt lat="42.24335676635295" lon="8.781757921545546"><ele>578.0</ele><time>2026-05-01T16:46:38.999Z</time></trkpt><trkpt lat="42.24333604114571" lon="8.781577080983853"><ele>578.0</ele><time>2026-05-01T16:46:39.999Z</time></trkpt><trkpt lat="42.243294022300894" lon="8.78140253784114"><ele>577.75</ele><time>2026-05-01T16:46:40.999Z</time></trkpt><trkpt lat="42.24323415392157" lon="8.781243052551837"><ele>577.5</ele><time>2026-05-01T16:46:41.999Z</time></trkpt><trkpt lat="42.24314535494145" lon="8.78110537894493"><ele>577.25</ele><time>2026-05-01T16:46:42.999Z</time></trkpt><trkpt lat="42.24301490251345" lon="8.780995771463495"><ele>577.0</ele><time>2026-05-01T16:46:43.999Z</time></trkpt><trkpt lat="42.24286636882101" lon="8.780913643496152"><ele>582.3333333333334</ele><time>2026-05-01T16:46:44.999Z</time></trkpt><trkpt lat="42.242721976211286" lon="8.780810455444675"><ele>587.6666666666666</ele><time>2026-05-01T16:46:45.999Z</time></trkpt><trkpt lat="42.242605030022915" lon="8.780679310480938"><ele>593.0</ele><time>2026-05-01T16:46:46.999Z</time></trkpt><trkpt lat="42.24252538284652" lon="8.780520721081768"><ele>593.0</ele><time>2026-05-01T16:46:47.999Z</time></trkpt><trkpt lat="42.24247174039526" lon="8.78033613868877"><ele>593.0</ele><time>2026-05-01T16:46:48.999Z</time></trkpt><trkpt lat="42.242451177182026" lon="8.780138765176567"><ele>593.0</ele><time>2026-05-01T16:46:49.999Z</time></trkpt><trkpt lat="42.24241362772618" lon="8.779952297493761"><ele>593.0</ele><time>2026-05-01T16:46:50.999Z</time></trkpt><trkpt lat="42.24234424910024" lon="8.779768581246165"><ele>593.3333333333333</ele><time>2026-05-01T16:46:51.999Z</time></trkpt><trkpt lat="42.24226484078069" lon="8.779585319999375"><ele>593.6666666666666</ele><time>2026-05-01T16:46:52.999Z</time></trkpt><trkpt lat="42.24219100636078" lon="8.779391945812941"><ele>594.0</ele><time>2026-05-01T16:46:53.999Z</time></trkpt><trkpt lat="42.242118869210046" lon="8.779196731001374"><ele>594.0</ele><time>2026-05-01T16:46:54.999Z</time></trkpt><trkpt lat="42.24203766408067" lon="8.779005638524636"><ele>594.0</ele><time>2026-05-01T16:46:55.999Z</time></trkpt><trkpt lat="42.241951879404176" lon="8.778836353204253"><ele>594.0</ele><time>2026-05-01T16:46:56.999Z</time></trkpt><trkpt lat="42.24186110584352" lon="8.778688405212812"><ele>594.0</ele><time>2026-05-01T16:46:57.999Z</time></trkpt><trkpt lat="42.24176643220094" lon="8.778568171819826"><ele>594.0</ele><time>2026-05-01T16:46:58.999Z</time></trkpt><trkpt lat="42.2416617473413" lon="8.778472379445205"><ele>594.0</ele><time>2026-05-01T16:46:59.999Z</time></trkpt><trkpt lat="42.241540695990764" lon="8.778417626363344"><ele>594.0</ele><time>2026-05-01T16:47:00.999Z</time></trkpt><trkpt lat="42.241390594628555" lon="8.778413069613903"><ele>591.75</ele><time>2026-05-01T16:47:01.999Z</time></trkpt><trkpt lat="42.24123824064109" lon="8.778430370788575"><ele>589.5</ele><time>2026-05-01T16:47:02.999Z</time></trkpt><trkpt lat="42.24110233586911" lon="8.778384627158896"><ele>587.25</ele><time>2026-05-01T16:47:03.999Z</time></trkpt><trkpt lat="42.24098204158285" lon="8.778273756132219"><ele>585.0</ele><time>2026-05-01T16:47:04.999Z</time></trkpt><trkpt lat="42.240885274403574" lon="8.778132097166214"><ele>585.0</ele><time>2026-05-01T16:47:05.999Z</time></trkpt><trkpt lat="42.240801605942885" lon="8.777981175532188"><ele>585.0</ele><time>2026-05-01T16:47:06.999Z</time></trkpt><trkpt lat="42.2407082289395" lon="8.777841823754951"><ele>585.0</ele><time>2026-05-01T16:47:07.999Z</time></trkpt><trkpt lat="42.240585619532155" lon="8.77773619828094"><ele>585.0</ele><time>2026-05-01T16:47:08.999Z</time></trkpt><trkpt lat="42.240444125407684" lon="8.777686890963274"><ele>585.5</ele><time>2026-05-01T16:47:09.999Z</time></trkpt><trkpt lat="42.24030629591151" lon="8.77762654674385"><ele>586.0</ele><time>2026-05-01T16:47:10.999Z</time></trkpt><trkpt lat="42.24019882307708" lon="8.77756781607048"><ele>586.5</ele><time>2026-05-01T16:47:11.999Z</time></trkpt><trkpt lat="42.2400965675342" lon="8.77749409376778"><ele>587.0</ele><time>2026-05-01T16:47:12.999Z</time></trkpt><trkpt lat="42.240018808649765" lon="8.777385926480786"><ele>587.0</ele><time>2026-05-01T16:47:13.999Z</time></trkpt><trkpt lat="42.239983303560756" lon="8.777238476792165"><ele>587.0</ele><time>2026-05-01T16:47:14.999Z</time></trkpt><trkpt lat="42.23997063463055" lon="8.777068126942938"><ele>587.0</ele><time>2026-05-01T16:47:15.999Z</time></trkpt><trkpt lat="42.23995577487485" lon="8.776889159181897"><ele>587.0</ele><time>2026-05-01T16:47:16.999Z</time></trkpt><trkpt lat="42.239933966905674" lon="8.776726973357896"><ele>589.6</ele><time>2026-05-01T16:47:17.999Z</time></trkpt><trkpt lat="42.23990646532641" lon="8.77656180955489"><ele>592.2</ele><time>2026-05-01T16:47:18.999Z</time></trkpt><trkpt lat="42.23988097129229" lon="8.776419333781368"><ele>594.8</ele><time>2026-05-01T16:47:19.999Z</time></trkpt><trkpt lat="42.239840977683926" lon="8.776288992555026"><ele>597.4</ele><time>2026-05-01T16:47:20.999Z</time></trkpt><trkpt lat="42.239781326147124" lon="8.776175746933145"><ele>600.0</ele><time>2026-05-01T16:47:21.999Z</time></trkpt><trkpt lat="42.23968463981457" lon="8.776093182717226"><ele>600.0</ele><time>2026-05-01T16:47:22.999Z</time></trkpt><trkpt lat="42.23956614484783" lon="8.776031856052848"><ele>600.0</ele><time>2026-05-01T16:47:23.999Z</time></trkpt><trkpt lat="42.239448647208334" lon="8.775981354718642"><ele>600.0</ele><time>2026-05-01T16:47:24.999Z</time></trkpt><trkpt lat="42.23934132986114" lon="8.775926536656373"><ele>600.0</ele><time>2026-05-01T16:47:25.998Z</time></trkpt><trkpt lat="42.23923466797096" lon="8.775902165938787"><ele>600.0</ele><time>2026-05-01T16:47:26.998Z</time></trkpt><trkpt lat="42.23912830951066" lon="8.775892446262521"><ele>600.0</ele><time>2026-05-01T16:47:27.998Z</time></trkpt><trkpt lat="42.23902337264125" lon="8.775918656591026"><ele>600.0</ele><time>2026-05-01T16:47:28.998Z</time></trkpt><trkpt lat="42.23892849621607" lon="8.775953676170406"><ele>600.0</ele><time>2026-05-01T16:47:29.998Z</time></trkpt><trkpt lat="42.238839619553744" lon="8.775945441276773"><ele>600.0</ele><time>2026-05-01T16:47:30.998Z</time></trkpt><trkpt lat="42.238764510258136" lon="8.775872527393"><ele>600.0</ele><time>2026-05-01T16:47:31.998Z</time></trkpt><trkpt lat="42.23872267400797" lon="8.775745452506081"><ele>600.0</ele><time>2026-05-01T16:47:32.998Z</time></trkpt><trkpt lat="42.23871225383102" lon="8.77558905478082"><ele>600.0</ele><time>2026-05-01T16:47:33.998Z</time></trkpt><trkpt lat="42.23870658487097" lon="8.775428555622872"><ele>600.0</ele><time>2026-05-01T16:47:34.998Z</time></trkpt><trkpt lat="42.2387008706924" lon="8.775259048110991"><ele>596.3333333333334</ele><time>2026-05-01T16:47:35.998Z</time></trkpt><trkpt lat="42.238687137260754" lon="8.775075320760468"><ele>592.6666666666667</ele><time>2026-05-01T16:47:36.998Z</time></trkpt><trkpt lat="42.2386615583844" lon="8.774877572642442"><ele>589.0</ele><time>2026-05-01T16:47:37.998Z</time></trkpt><trkpt lat="42.23862435503858" lon="8.774652956404818"><ele>589.0</ele><time>2026-05-01T16:47:38.998Z</time></trkpt><trkpt lat="42.238584039128476" lon="8.77442364943555"><ele>589.0</ele><time>2026-05-01T16:47:39.998Z</time></trkpt><trkpt lat="42.23854134833786" lon="8.774193853212513"><ele>589.0</ele><time>2026-05-01T16:47:40.998Z</time></trkpt><trkpt lat="42.238497357304595" lon="8.773988832498869"><ele>586.25</ele><time>2026-05-01T16:47:41.998Z</time></trkpt><trkpt lat="42.23844928895403" lon="8.773812252631847"><ele>583.5</ele><time>2026-05-01T16:47:42.998Z</time></trkpt><trkpt lat="42.23839325651682" lon="8.773642400189889"><ele>580.75</ele><time>2026-05-01T16:47:43.998Z</time></trkpt><trkpt lat="42.23831811168951" lon="8.773501729422705"><ele>578.0</ele><time>2026-05-01T16:47:44.998Z</time></trkpt><trkpt lat="42.23822163023923" lon="8.773408767122941"><ele>576.25</ele><time>2026-05-01T16:47:45.998Z</time></trkpt><trkpt lat="42.23809352367503" lon="8.77335505134483"><ele>574.5</ele><time>2026-05-01T16:47:46.998Z</time></trkpt><trkpt lat="42.23794565714956" lon="8.773352199642767"><ele>572.75</ele><time>2026-05-01T16:47:47.998Z</time></trkpt><trkpt lat="42.237798550965216" lon="8.773389882767502"><ele>571.0</ele><time>2026-05-01T16:47:48.998Z</time></trkpt><trkpt lat="42.23767425371142" lon="8.773452578491776"><ele>571.0</ele><time>2026-05-01T16:47:49.998Z</time></trkpt><trkpt lat="42.23755337909889" lon="8.773499879266518"><ele>571.0</ele><time>2026-05-01T16:47:50.998Z</time></trkpt><trkpt lat="42.237436447823846" lon="8.773520073969328"><ele>571.0</ele><time>2026-05-01T16:47:51.998Z</time></trkpt><trkpt lat="42.23733724312033" lon="8.773482805763296"><ele>571.0</ele><time>2026-05-01T16:47:52.998Z</time></trkpt><trkpt lat="42.2372612684536" lon="8.773388580673261"><ele>571.0</ele><time>2026-05-01T16:47:53.998Z</time></trkpt><trkpt lat="42.2372255875637" lon="8.77327006822093"><ele>571.0</ele><time>2026-05-01T16:47:54.998Z</time></trkpt><trkpt lat="42.23721368861275" lon="8.77312548725071"><ele>571.0</ele><time>2026-05-01T16:47:55.998Z</time></trkpt><trkpt lat="42.23722756979368" lon="8.77297878731234"><ele>571.0</ele><time>2026-05-01T16:47:56.998Z</time></trkpt><trkpt lat="42.23729305530953" lon="8.772844778753491"><ele>571.0</ele><time>2026-05-01T16:47:57.998Z</time></trkpt><trkpt lat="42.23738784613466" lon="8.77272538221158"><ele>570.0</ele><time>2026-05-01T16:47:58.998Z</time></trkpt><trkpt lat="42.23747507306509" lon="8.772632990094307"><ele>569.0</ele><time>2026-05-01T16:47:59.998Z</time></trkpt><trkpt lat="42.23752147147236" lon="8.7725184507608"><ele>568.0</ele><time>2026-05-01T16:48:00.998Z</time></trkpt><trkpt lat="42.237515605532344" lon="8.772385975320105"><ele>567.0</ele><time>2026-05-01T16:48:01.998Z</time></trkpt><trkpt lat="42.23745712358261" lon="8.772260659444889"><ele>566.0</ele><time>2026-05-01T16:48:02.998Z</time></trkpt><trkpt lat="42.23739383604719" lon="8.772126748373326"><ele>566.0</ele><time>2026-05-01T16:48:03.998Z</time></trkpt><trkpt lat="42.23736695680458" lon="8.771992555725332"><ele>566.0</ele><time>2026-05-01T16:48:04.998Z</time></trkpt><trkpt lat="42.23739256240452" lon="8.77186646870761"><ele>566.0</ele><time>2026-05-01T16:48:05.998Z</time></trkpt><trkpt lat="42.2374611705777" lon="8.771780627664956"><ele>566.0</ele><time>2026-05-01T16:48:07Z</time></trkpt><trkpt lat="42.23755745982353" lon="8.771732601773259"><ele>566.0</ele><time>2026-05-01T16:48:08Z</time></trkpt><trkpt lat="42.23767895881284" lon="8.77171804591982"><ele>565.5</ele><time>2026-05-01T16:48:09Z</time></trkpt><trkpt lat="42.23782053780706" lon="8.771730095413666"><ele>565.0</ele><time>2026-05-01T16:48:10Z</time></trkpt><trkpt lat="42.23795877711845" lon="8.771761625273554"><ele>564.5</ele><time>2026-05-01T16:48:11Z</time></trkpt><trkpt lat="42.23811025852209" lon="8.771783494840038"><ele>564.0</ele><time>2026-05-01T16:48:12Z</time></trkpt><trkpt lat="42.23824712628248" lon="8.77177503451545"><ele>564.0</ele><time>2026-05-01T16:48:13Z</time></trkpt><trkpt lat="42.2383674182889" lon="8.771738320951066"><ele>564.0</ele><time>2026-05-01T16:48:14Z</time></trkpt><trkpt lat="42.23846777608767" lon="8.771653187879702"><ele>564.0</ele><time>2026-05-01T16:48:15Z</time></trkpt><trkpt lat="42.23855676560791" lon="8.771526716972819"><ele>564.0</ele><time>2026-05-01T16:48:16Z</time></trkpt><trkpt lat="42.23862088061126" lon="8.771342489874218"><ele>564.0</ele><time>2026-05-01T16:48:17Z</time></trkpt><trkpt lat="42.23868230166714" lon="8.771148333986709"><ele>564.0</ele><time>2026-05-01T16:48:18Z</time></trkpt><trkpt lat="42.23876450601794" lon="8.770960546002355"><ele>564.0</ele><time>2026-05-01T16:48:19Z</time></trkpt><trkpt lat="42.23886840914403" lon="8.770804291740765"><ele>564.5</ele><time>2026-05-01T16:48:20Z</time></trkpt><trkpt lat="42.23899073819772" lon="8.770661813892518"><ele>565.0</ele><time>2026-05-01T16:48:21Z</time></trkpt><trkpt lat="42.239103590793675" lon="8.770544500572013"><ele>565.5</ele><time>2026-05-01T16:48:22Z</time></trkpt><trkpt lat="42.2392207857652" lon="8.770456703978622"><ele>566.0</ele><time>2026-05-01T16:48:23Z</time></trkpt><trkpt lat="42.23934624633221" lon="8.770408553843435"><ele>566.0</ele><time>2026-05-01T16:48:24Z</time></trkpt><trkpt lat="42.23946274726985" lon="8.77042294228155"><ele>566.0</ele><time>2026-05-01T16:48:25Z</time></trkpt><trkpt lat="42.2395534934405" lon="8.77050171433942"><ele>566.0</ele><time>2026-05-01T16:48:26Z</time></trkpt><trkpt lat="42.239616264106715" lon="8.7706226297162"><ele>566.0</ele><time>2026-05-01T16:48:27Z</time></trkpt><trkpt lat="42.23964844890237" lon="8.770776622867231"><ele>566.0</ele><time>2026-05-01T16:48:28Z</time></trkpt><trkpt lat="42.23964202595822" lon="8.770933987778431"><ele>566.0</ele><time>2026-05-01T16:48:29Z</time></trkpt><trkpt lat="42.23962316809147" lon="8.771114067624822"><ele>566.0</ele><time>2026-05-01T16:48:30Z</time></trkpt><trkpt lat="42.239647080065566" lon="8.771298378284927"><ele>566.0</ele><time>2026-05-01T16:48:31Z</time></trkpt><trkpt lat="42.2397232657296" lon="8.771477711264836"><ele>565.3333333333333</ele><time>2026-05-01T16:48:32Z</time></trkpt><trkpt lat="42.23982441424445" lon="8.771646054872187"><ele>564.6666666666666</ele><time>2026-05-01T16:48:33Z</time></trkpt><trkpt lat="42.239959523553225" lon="8.771766330909367"><ele>564.0</ele><time>2026-05-01T16:48:34Z</time></trkpt><trkpt lat="42.24012009012059" lon="8.771839205458337"><ele>556.6666666666666</ele><time>2026-05-01T16:48:35Z</time></trkpt><trkpt lat="42.240286937870756" lon="8.771896053304308"><ele>549.3333333333333</ele><time>2026-05-01T16:48:36Z</time></trkpt><trkpt lat="42.24046197747552" lon="8.771932595709622"><ele>542.0</ele><time>2026-05-01T16:48:37Z</time></trkpt><trkpt lat="42.2406416123347" lon="8.771958759881503"><ele>542.0</ele><time>2026-05-01T16:48:38Z</time></trkpt><trkpt lat="42.240814073604966" lon="8.772003370396266"><ele>542.0</ele><time>2026-05-01T16:48:39Z</time></trkpt><trkpt lat="42.24095878779467" lon="8.772102548762199"><ele>542.0</ele><time>2026-05-01T16:48:40Z</time></trkpt><trkpt lat="42.24108134229913" lon="8.77222830390929"><ele>542.0</ele><time>2026-05-01T16:48:41Z</time></trkpt><trkpt lat="42.24121055441978" lon="8.772328923285636"><ele>542.0</ele><time>2026-05-01T16:48:42Z</time></trkpt><trkpt lat="42.24136678206122" lon="8.772382410913824"><ele>542.0</ele><time>2026-05-01T16:48:43Z</time></trkpt><trkpt lat="42.24154273273084" lon="8.772388960014387"><ele>545.3333333333333</ele><time>2026-05-01T16:48:43.999Z</time></trkpt><trkpt lat="42.2417043344618" lon="8.772354928567433"><ele>548.6666666666666</ele><time>2026-05-01T16:48:44.999Z</time></trkpt><trkpt lat="42.24185206900149" lon="8.77231606259174"><ele>552.0</ele><time>2026-05-01T16:48:45.999Z</time></trkpt><trkpt lat="42.24199282163851" lon="8.772332810307924"><ele>552.0</ele><time>2026-05-01T16:48:46.999Z</time></trkpt><trkpt lat="42.24212334771753" lon="8.772422850244356"><ele>552.0</ele><time>2026-05-01T16:48:47.999Z</time></trkpt><trkpt lat="42.24225224136037" lon="8.772536704333408"><ele>552.0</ele><time>2026-05-01T16:48:48.999Z</time></trkpt><trkpt lat="42.24239890469828" lon="8.772630679195796"><ele>555.5</ele><time>2026-05-01T16:48:49.999Z</time></trkpt><trkpt lat="42.242552556724426" lon="8.772684803445555"><ele>559.0</ele><time>2026-05-01T16:48:50.999Z</time></trkpt><trkpt lat="42.24269227859773" lon="8.77272678644966"><ele>562.5</ele><time>2026-05-01T16:48:51.999Z</time></trkpt><trkpt lat="42.2428223225116" lon="8.772757119391525"><ele>566.0</ele><time>2026-05-01T16:48:52.999Z</time></trkpt><trkpt lat="42.24294379190468" lon="8.772784200864955"><ele>562.0</ele><time>2026-05-01T16:48:53.999Z</time></trkpt><trkpt lat="42.24305260680204" lon="8.77276946033578"><ele>558.0</ele><time>2026-05-01T16:48:54.999Z</time></trkpt><trkpt lat="42.24314878565605" lon="8.772686123399014"><ele>554.0</ele><time>2026-05-01T16:48:55.999Z</time></trkpt><trkpt lat="42.24324263367693" lon="8.77256764508911"><ele>550.0</ele><time>2026-05-01T16:48:56.999Z</time></trkpt><trkpt lat="42.24333263365954" lon="8.772453425400844"><ele>550.0</ele><time>2026-05-01T16:48:57.999Z</time></trkpt><trkpt lat="42.24339297869856" lon="8.772330179121491"><ele>550.0</ele><time>2026-05-01T16:48:58.999Z</time></trkpt><trkpt lat="42.24339837270643" lon="8.772187128648827"><ele>550.0</ele><time>2026-05-01T16:48:59.999Z</time></trkpt><trkpt lat="42.243357284106466" lon="8.772038939439936"><ele>550.0</ele><time>2026-05-01T16:49:00.999Z</time></trkpt><trkpt lat="42.243314425164336" lon="8.771895323738004"><ele>550.0</ele><time>2026-05-01T16:49:01.999Z</time></trkpt><trkpt lat="42.24331981415328" lon="8.771767913048752"><ele>556.2</ele><time>2026-05-01T16:49:02.999Z</time></trkpt><trkpt lat="42.24338650077928" lon="8.771660594658885"><ele>562.4</ele><time>2026-05-01T16:49:03.999Z</time></trkpt><trkpt lat="42.2434543002182" lon="8.77155142412133"><ele>568.6</ele><time>2026-05-01T16:49:04.999Z</time></trkpt><trkpt lat="42.24351734563614" lon="8.771435168811124"><ele>574.8</ele><time>2026-05-01T16:49:05.999Z</time></trkpt><trkpt lat="42.24358786034882" lon="8.771352565386612"><ele>581.0</ele><time>2026-05-01T16:49:06.999Z</time></trkpt><trkpt lat="42.24368589762334" lon="8.77132239855015"><ele>581.0</ele><time>2026-05-01T16:49:07.999Z</time></trkpt><trkpt lat="42.243802168460114" lon="8.771316932429984"><ele>581.0</ele><time>2026-05-01T16:49:08.999Z</time></trkpt><trkpt lat="42.24392762911376" lon="8.771300136707545"><ele>581.0</ele><time>2026-05-01T16:49:09.999Z</time></trkpt><trkpt lat="42.244043504985775" lon="8.77127365574474"><ele>581.0</ele><time>2026-05-01T16:49:10.999Z</time></trkpt><trkpt lat="42.24414141490524" lon="8.771206886491594"><ele>577.75</ele><time>2026-05-01T16:49:11.999Z</time></trkpt><trkpt lat="42.24422520990024" lon="8.771084445462206"><ele>574.5</ele><time>2026-05-01T16:49:12.999Z</time></trkpt><trkpt lat="42.244288619074574" lon="8.770925847738924"><ele>571.25</ele><time>2026-05-01T16:49:13.999Z</time></trkpt><trkpt lat="42.244354189062975" lon="8.770757069080291"><ele>568.0</ele><time>2026-05-01T16:49:14.999Z</time></trkpt><trkpt lat="42.24443309881341" lon="8.770592970012826"><ele>568.0</ele><time>2026-05-01T16:49:15.999Z</time></trkpt><trkpt lat="42.244518486069865" lon="8.770452453265117"><ele>568.0</ele><time>2026-05-01T16:49:16.999Z</time></trkpt><trkpt lat="42.24459391498759" lon="8.770332382564618"><ele>568.0</ele><time>2026-05-01T16:49:17.999Z</time></trkpt><trkpt lat="42.24468475466945" lon="8.77025352746837"><ele>568.0</ele><time>2026-05-01T16:49:18.999Z</time></trkpt><trkpt lat="42.24478945026569" lon="8.770246500230114"><ele>560.5</ele><time>2026-05-01T16:49:19.999Z</time></trkpt><trkpt lat="42.24491249725448" lon="8.77028272303599"><ele>553.0</ele><time>2026-05-01T16:49:20.999Z</time></trkpt><trkpt lat="42.245035793945355" lon="8.770335091674953"><ele>545.5</ele><time>2026-05-01T16:49:21.999Z</time></trkpt><trkpt lat="42.24515738793004" lon="8.770388084078117"><ele>538.0</ele><time>2026-05-01T16:49:22.999Z</time></trkpt><trkpt lat="42.24527796130222" lon="8.770491831434539"><ele>538.0</ele><time>2026-05-01T16:49:23.999Z</time></trkpt><trkpt lat="42.24539250393782" lon="8.770608004324027"><ele>538.0</ele><time>2026-05-01T16:49:24.999Z</time></trkpt><trkpt lat="42.24551505523674" lon="8.770709346470897"><ele>538.0</ele><time>2026-05-01T16:49:25.999Z</time></trkpt><trkpt lat="42.245634700393595" lon="8.770789478830237"><ele>538.0</ele><time>2026-05-01T16:49:26.999Z</time></trkpt><trkpt lat="42.2457670593986" lon="8.770849411880997"><ele>540.5</ele><time>2026-05-01T16:49:27.999Z</time></trkpt><trkpt lat="42.24590731187347" lon="8.770897931381985"><ele>543.0</ele><time>2026-05-01T16:49:28.999Z</time></trkpt><trkpt lat="42.246036884110836" lon="8.770941633487146"><ele>545.5</ele><time>2026-05-01T16:49:29.999Z</time></trkpt><trkpt lat="42.246173826164316" lon="8.770977132328131"><ele>548.0</ele><time>2026-05-01T16:49:30.998Z</time></trkpt><trkpt lat="42.246294489851" lon="8.771014413295964"><ele>543.0</ele><time>2026-05-01T16:49:31.998Z</time></trkpt><trkpt lat="42.24640518140921" lon="8.771049742614915"><ele>538.0</ele><time>2026-05-01T16:49:32.998Z</time></trkpt><trkpt lat="42.246505888525654" lon="8.771083437529654"><ele>533.0</ele><time>2026-05-01T16:49:33.998Z</time></trkpt><trkpt lat="42.246593259764346" lon="8.771108430063274"><ele>528.0</ele><time>2026-05-01T16:49:34.998Z</time></trkpt><trkpt lat="42.246662348637024" lon="8.771126667170032"><ele>523.0</ele><time>2026-05-01T16:49:35.998Z</time></trkpt><trkpt lat="42.246793691270945" lon="8.77110340148695"><ele>523.0</ele><time>2026-05-01T16:50:16Z</time></trkpt><trkpt lat="42.24689521991964" lon="8.771042435123046"><ele>523.0</ele><time>2026-05-01T16:50:17Z</time></trkpt><trkpt lat="42.24697371025727" lon="8.770948906940303"><ele>523.0</ele><time>2026-05-01T16:50:18Z</time></trkpt><trkpt lat="42.247004414628236" lon="8.770829362302486"><ele>523.0</ele><time>2026-05-01T16:50:19Z</time></trkpt><trkpt lat="42.246997353279816" lon="8.770694504855829"><ele>523.0</ele><time>2026-05-01T16:50:20Z</time></trkpt><trkpt lat="42.24694729399296" lon="8.770531541385338"><ele>529.6666666666667</ele><time>2026-05-01T16:50:21Z</time></trkpt><trkpt lat="42.24687042010984" lon="8.770354672770587"><ele>536.3333333333334</ele><time>2026-05-01T16:50:22Z</time></trkpt><trkpt lat="42.24678494053859" lon="8.770163811242698"><ele>543.0</ele><time>2026-05-01T16:50:23Z</time></trkpt><trkpt lat="42.24670933842042" lon="8.769974749048297"><ele>543.0</ele><time>2026-05-01T16:50:24Z</time></trkpt><trkpt lat="42.24667582133952" lon="8.769802690879695"><ele>543.0</ele><time>2026-05-01T16:50:25Z</time></trkpt><trkpt lat="42.246695247949205" lon="8.769625555789364"><ele>543.0</ele><time>2026-05-01T16:50:26Z</time></trkpt><trkpt lat="42.24672835999119" lon="8.76945680056622"><ele>543.0</ele><time>2026-05-01T16:50:27Z</time></trkpt><trkpt lat="42.2467215029106" lon="8.769306542316857"><ele>538.75</ele><time>2026-05-01T16:50:28Z</time></trkpt><trkpt lat="42.24667246222747" lon="8.769141787440947"><ele>534.5</ele><time>2026-05-01T16:50:29Z</time></trkpt><trkpt lat="42.24659300746533" lon="8.768979258727605"><ele>530.25</ele><time>2026-05-01T16:50:30Z</time></trkpt><trkpt lat="42.2465220770314" lon="8.768825503296219"><ele>526.0</ele><time>2026-05-01T16:50:31Z</time></trkpt><trkpt lat="42.24646897724309" lon="8.768713946434392"><ele>532.0</ele><time>2026-05-01T16:50:32Z</time></trkpt><trkpt lat="42.24642186240418" lon="8.768638759356394"><ele>538.0</ele><time>2026-05-01T16:50:33Z</time></trkpt><trkpt lat="42.24637106170788" lon="8.76858755727163"><ele>544.0</ele><time>2026-05-01T16:50:34Z</time></trkpt><trkpt lat="42.24629135476025" lon="8.76850692812472"><ele>550.0</ele><time>2026-05-01T16:50:36Z</time></trkpt><trkpt lat="42.24621835634272" lon="8.768439512669229"><ele>556.0</ele><time>2026-05-01T16:50:38Z</time></trkpt><trkpt lat="42.2461560454971" lon="8.768364623057598"><ele>562.0</ele><time>2026-05-01T16:50:40Z</time></trkpt><trkpt lat="42.246092331986254" lon="8.768344335820382"><ele>562.0</ele><time>2026-05-01T16:50:43Z</time></trkpt><trkpt lat="42.24609754548886" lon="8.76820821960431"><ele>562.0</ele><time>2026-05-01T16:51:37.998Z</time></trkpt><trkpt lat="42.24608761363265" lon="8.768100417089997"><ele>562.0</ele><time>2026-05-01T16:51:38.998Z</time></trkpt><trkpt lat="42.24607614905556" lon="8.767979492979878"><ele>562.0</ele><time>2026-05-01T16:51:39.998Z</time></trkpt><trkpt lat="42.246068180740174" lon="8.767857396688644"><ele>562.0</ele><time>2026-05-01T16:51:40.998Z</time></trkpt><trkpt lat="42.24607859076362" lon="8.76774017769069"><ele>562.0</ele><time>2026-05-01T16:51:41.998Z</time></trkpt><trkpt lat="42.24612563700001" lon="8.76764098055426"><ele>562.0</ele><time>2026-05-01T16:51:42.998Z</time></trkpt><trkpt lat="42.246194467744836" lon="8.767565762001142"><ele>562.0</ele><time>2026-05-01T16:51:43.998Z</time></trkpt><trkpt lat="42.2462746025109" lon="8.76751375973377"><ele>562.0</ele><time>2026-05-01T16:51:44.998Z</time></trkpt><trkpt lat="42.246354735473645" lon="8.767443379291258"><ele>562.0</ele><time>2026-05-01T16:51:45.998Z</time></trkpt><trkpt lat="42.24643788751023" lon="8.767370450355305"><ele>553.0</ele><time>2026-05-01T16:51:46.998Z</time></trkpt><trkpt lat="42.24652693656468" lon="8.767299118481333"><ele>544.0</ele><time>2026-05-01T16:51:47.998Z</time></trkpt><trkpt lat="42.24662350346119" lon="8.767247280338859"><ele>535.0</ele><time>2026-05-01T16:51:48.998Z</time></trkpt><trkpt lat="42.24668770379157" lon="8.76721844721169"><ele>526.0</ele><time>2026-05-01T16:51:49.998Z</time></trkpt><trkpt lat="42.24677434686963" lon="8.76720540896519"><ele>517.0</ele><time>2026-05-01T16:51:51.998Z</time></trkpt><trkpt lat="42.246844601598525" lon="8.767185137949262"><ele>508.0</ele><time>2026-05-01T16:51:58.998Z</time></trkpt><trkpt lat="42.246921851324565" lon="8.767061984589853"><ele>508.0</ele><time>2026-05-01T16:52:43.999Z</time></trkpt><trkpt lat="42.24700914875547" lon="8.76696437812276"><ele>507.99999999999994</ele><time>2026-05-01T16:52:45.999Z</time></trkpt><trkpt lat="42.24711585345625" lon="8.766858937231843"><ele>507.99999999999994</ele><time>2026-05-01T16:52:47.999Z</time></trkpt><trkpt lat="42.247184426901924" lon="8.766789418580643"><ele>508.0</ele><time>2026-05-01T16:52:48.999Z</time></trkpt><trkpt lat="42.24726207592161" lon="8.76671115327499"><ele>508.0</ele><time>2026-05-01T16:52:49.999Z</time></trkpt><trkpt lat="42.247350367668666" lon="8.766633709364248"><ele>507.00000000000006</ele><time>2026-05-01T16:52:50.999Z</time></trkpt><trkpt lat="42.247429571978316" lon="8.766556969268303"><ele>506.0</ele><time>2026-05-01T16:52:51.999Z</time></trkpt><trkpt lat="42.24750809238762" lon="8.76648733966684"><ele>505.0</ele><time>2026-05-01T16:52:52.999Z</time></trkpt><trkpt lat="42.24758316499156" lon="8.76642057170383"><ele>504.0</ele><time>2026-05-01T16:52:53.999Z</time></trkpt><trkpt lat="42.24765338480698" lon="8.76635541474295"><ele>503.00000000000006</ele><time>2026-05-01T16:52:54.999Z</time></trkpt><trkpt lat="42.24771477111296" lon="8.766280896726757"><ele>502.0</ele><time>2026-05-01T16:52:55.999Z</time></trkpt><trkpt lat="42.24775703360379" lon="8.766183554147863"><ele>502.0</ele><time>2026-05-01T16:52:56.999Z</time></trkpt><trkpt lat="42.247763960784816" lon="8.76605275537992"><ele>502.0</ele><time>2026-05-01T16:52:57.999Z</time></trkpt><trkpt lat="42.24772074161175" lon="8.765914945284413"><ele>502.0</ele><time>2026-05-01T16:52:58.999Z</time></trkpt><trkpt lat="42.247654829585265" lon="8.765762731642246"><ele>502.0</ele><time>2026-05-01T16:52:59.999Z</time></trkpt><trkpt lat="42.247571266144185" lon="8.765612678615131"><ele>504.33333333333337</ele><time>2026-05-01T16:53:00.999Z</time></trkpt><trkpt lat="42.24747130566659" lon="8.76546216562029"><ele>506.66666666666663</ele><time>2026-05-01T16:53:01.999Z</time></trkpt><trkpt lat="42.24735763453002" lon="8.76531181222777"><ele>509.0</ele><time>2026-05-01T16:53:02.999Z</time></trkpt><trkpt lat="42.24723977057761" lon="8.765159399889086"><ele>513.75</ele><time>2026-05-01T16:53:03.999Z</time></trkpt><trkpt lat="42.24712939464956" lon="8.765009151120635"><ele>518.5</ele><time>2026-05-01T16:53:04.999Z</time></trkpt><trkpt lat="42.2470282470922" lon="8.764870645710454"><ele>523.25</ele><time>2026-05-01T16:53:05.999Z</time></trkpt><trkpt lat="42.246928073957825" lon="8.764739562675025"><ele>528.0</ele><time>2026-05-01T16:53:06.999Z</time></trkpt><trkpt lat="42.24683802400395" lon="8.764605449773827"><ele>528.0</ele><time>2026-05-01T16:53:07.999Z</time></trkpt><trkpt lat="42.246764934729406" lon="8.764458947640478"><ele>528.0</ele><time>2026-05-01T16:53:08.999Z</time></trkpt><trkpt lat="42.24671816124692" lon="8.764295896242535"><ele>528.0</ele><time>2026-05-01T16:53:09.999Z</time></trkpt><trkpt lat="42.24670020929318" lon="8.764117949865355"><ele>528.0</ele><time>2026-05-01T16:53:10.999Z</time></trkpt><trkpt lat="42.24671393114584" lon="8.763928154022013"><ele>528.6666666666666</ele><time>2026-05-01T16:53:11.999Z</time></trkpt><trkpt lat="42.246765431712866" lon="8.76373703428536"><ele>529.3333333333333</ele><time>2026-05-01T16:53:12.999Z</time></trkpt><trkpt lat="42.2468585407763" lon="8.763562875574824"><ele>530.0</ele><time>2026-05-01T16:53:13.999Z</time></trkpt><trkpt lat="42.24699455338507" lon="8.763428026276056"><ele>530.0</ele><time>2026-05-01T16:53:14.999Z</time></trkpt><trkpt lat="42.247149588431164" lon="8.763321685529709"><ele>530.0</ele><time>2026-05-01T16:53:15.999Z</time></trkpt><trkpt lat="42.24731851546204" lon="8.763226298409155"><ele>530.0</ele><time>2026-05-01T16:53:16.999Z</time></trkpt><trkpt lat="42.24748363836825" lon="8.76315356819821"><ele>517.75</ele><time>2026-05-01T16:53:17.999Z</time></trkpt><trkpt lat="42.24762833729444" lon="8.7630892260141"><ele>505.5</ele><time>2026-05-01T16:53:18.999Z</time></trkpt><trkpt lat="42.247751110314645" lon="8.763025802108853"><ele>493.25</ele><time>2026-05-01T16:53:19.999Z</time></trkpt><trkpt lat="42.247841501406356" lon="8.762901021449062"><ele>481.0</ele><time>2026-05-01T16:53:20.999Z</time></trkpt><trkpt lat="42.247884255421894" lon="8.762734648429308"><ele>488.33333333333337</ele><time>2026-05-01T16:53:21.999Z</time></trkpt><trkpt lat="42.24788749276592" lon="8.762534457626126"><ele>495.66666666666663</ele><time>2026-05-01T16:53:22.999Z</time></trkpt><trkpt lat="42.24786856518759" lon="8.762317572007271"><ele>503.0</ele><time>2026-05-01T16:53:23.999Z</time></trkpt><trkpt lat="42.24783895290974" lon="8.762080427609542"><ele>498.66666666666663</ele><time>2026-05-01T16:53:24.999Z</time></trkpt><trkpt lat="42.247799141561565" lon="8.761839970851687"><ele>494.33333333333337</ele><time>2026-05-01T16:53:25.999Z</time></trkpt><trkpt lat="42.24774941099" lon="8.761607969069079"><ele>490.0</ele><time>2026-05-01T16:53:26.999Z</time></trkpt><trkpt lat="42.24770160693845" lon="8.761393095679185"><ele>490.0</ele><time>2026-05-01T16:53:27.999Z</time></trkpt><trkpt lat="42.24766445531526" lon="8.761229418854125"><ele>490.0</ele><time>2026-05-01T16:53:28.999Z</time></trkpt><trkpt lat="42.24759275364738" lon="8.76111491237687"><ele>490.0</ele><time>2026-05-01T16:53:29.999Z</time></trkpt><trkpt lat="42.247481769385914" lon="8.761029540177766"><ele>490.0</ele><time>2026-05-01T16:53:30.999Z</time></trkpt><trkpt lat="42.24734685704761" lon="8.76093533792148"><ele>499.5</ele><time>2026-05-01T16:53:31.999Z</time></trkpt><trkpt lat="42.247233025913594" lon="8.760801954404686"><ele>509.0</ele><time>2026-05-01T16:53:32.999Z</time></trkpt><trkpt lat="42.24716167775041" lon="8.76064524372716"><ele>518.5</ele><time>2026-05-01T16:53:33.999Z</time></trkpt><trkpt lat="42.24714600186354" lon="8.760495633299348"><ele>528.0</ele><time>2026-05-01T16:53:34.999Z</time></trkpt><trkpt lat="42.247184447588594" lon="8.760351946758073"><ele>528.0</ele><time>2026-05-01T16:53:35.998Z</time></trkpt><trkpt lat="42.24725801474882" lon="8.760251754558873"><ele>528.0</ele><time>2026-05-01T16:53:36.998Z</time></trkpt><trkpt lat="42.24737657572119" lon="8.760211985206281"><ele>528.0</ele><time>2026-05-01T16:53:37.998Z</time></trkpt><trkpt lat="42.24751007125188" lon="8.760243659922386"><ele>528.0</ele><time>2026-05-01T16:53:38.998Z</time></trkpt><trkpt lat="42.247647523869" lon="8.760356919989853"><ele>514.75</ele><time>2026-05-01T16:53:39.998Z</time></trkpt><trkpt lat="42.24776874718831" lon="8.760499308673033"><ele>501.5</ele><time>2026-05-01T16:53:40.998Z</time></trkpt><trkpt lat="42.247877255885705" lon="8.76063899983605"><ele>488.25</ele><time>2026-05-01T16:53:41.998Z</time></trkpt><trkpt lat="42.247990947618774" lon="8.76068006007"><ele>475.0</ele><time>2026-05-01T16:53:42.998Z</time></trkpt><trkpt lat="42.24812950505148" lon="8.760617959197088"><ele>472.75</ele><time>2026-05-01T16:53:43.998Z</time></trkpt><trkpt lat="42.24825183047468" lon="8.760527628958474"><ele>470.5</ele><time>2026-05-01T16:53:44.998Z</time></trkpt><trkpt lat="42.24837136117165" lon="8.760548861699565"><ele>468.25</ele><time>2026-05-01T16:53:45.998Z</time></trkpt><trkpt lat="42.248464279046786" lon="8.760673129053284"><ele>466.0</ele><time>2026-05-01T16:53:46.998Z</time></trkpt><trkpt lat="42.2485254244049" lon="8.760857021303359"><ele>459.5</ele><time>2026-05-01T16:53:47.998Z</time></trkpt><trkpt lat="42.24855428406333" lon="8.761055594743187"><ele>453.0</ele><time>2026-05-01T16:53:48.998Z</time></trkpt><trkpt lat="42.24858545120962" lon="8.761209394975246"><ele>446.5</ele><time>2026-05-01T16:53:49.998Z</time></trkpt><trkpt lat="42.24866673820034" lon="8.761318171820406"><ele>440.0</ele><time>2026-05-01T16:53:50.998Z</time></trkpt><trkpt lat="42.24880206460793" lon="8.761386618996076"><ele>445.3333333333333</ele><time>2026-05-01T16:53:51.998Z</time></trkpt><trkpt lat="42.2489628879164" lon="8.761424299640183"><ele>450.66666666666663</ele><time>2026-05-01T16:53:52.998Z</time></trkpt><trkpt lat="42.24914210480879" lon="8.761434105192748"><ele>456.0</ele><time>2026-05-01T16:53:53.998Z</time></trkpt><trkpt lat="42.249318354946986" lon="8.761480860756336"><ele>456.0</ele><time>2026-05-01T16:53:54.998Z</time></trkpt><trkpt lat="42.24949687155062" lon="8.761573336024714"><ele>456.0</ele><time>2026-05-01T16:53:55.998Z</time></trkpt><trkpt lat="42.24966653572685" lon="8.761702105413079"><ele>456.0</ele><time>2026-05-01T16:53:56.998Z</time></trkpt><trkpt lat="42.2497997977406" lon="8.76186399446296"><ele>449.0</ele><time>2026-05-01T16:53:57.998Z</time></trkpt><trkpt lat="42.249911357925974" lon="8.762038192307712"><ele>442.0</ele><time>2026-05-01T16:53:58.998Z</time></trkpt><trkpt lat="42.25000656289121" lon="8.76223457268764"><ele>435.0</ele><time>2026-05-01T16:53:59.998Z</time></trkpt><trkpt lat="42.25007410620843" lon="8.762466564165669"><ele>435.0</ele><time>2026-05-01T16:54:00.998Z</time></trkpt><trkpt lat="42.250124865118565" lon="8.76269067000278"><ele>435.0</ele><time>2026-05-01T16:54:01.998Z</time></trkpt><trkpt lat="42.25017109638563" lon="8.762869869691333"><ele>435.0</ele><time>2026-05-01T16:54:02.998Z</time></trkpt><trkpt lat="42.250232392514135" lon="8.763000364627787"><ele>435.0</ele><time>2026-05-01T16:54:03.998Z</time></trkpt><trkpt lat="42.25033311034332" lon="8.763096362692355"><ele>437.0</ele><time>2026-05-01T16:54:04.998Z</time></trkpt><trkpt lat="42.250473830206424" lon="8.763165744605208"><ele>439.0</ele><time>2026-05-01T16:54:05.998Z</time></trkpt><trkpt lat="42.25059070376234" lon="8.763244262341594"><ele>441.0</ele><time>2026-05-01T16:54:06.998Z</time></trkpt><trkpt lat="42.250660991658364" lon="8.763398452950964"><ele>443.0</ele><time>2026-05-01T16:54:07.998Z</time></trkpt><trkpt lat="42.25071371783323" lon="8.763593462807842"><ele>432.25</ele><time>2026-05-01T16:54:08.998Z</time></trkpt><trkpt lat="42.25079140985172" lon="8.763747313952976"><ele>421.5</ele><time>2026-05-01T16:54:09.998Z</time></trkpt><trkpt lat="42.25088945653981" lon="8.763837649299866"><ele>410.75</ele><time>2026-05-01T16:54:10.998Z</time></trkpt><trkpt lat="42.25100419799359" lon="8.763842465480137"><ele>400.0</ele><time>2026-05-01T16:54:11.998Z</time></trkpt><trkpt lat="42.25112780005716" lon="8.763779831165602"><ele>400.0</ele><time>2026-05-01T16:54:12.998Z</time></trkpt><trkpt lat="42.25125871883821" lon="8.763704065510911"><ele>400.0</ele><time>2026-05-01T16:54:13.998Z</time></trkpt><trkpt lat="42.25137363499458" lon="8.763646601185755"><ele>400.0</ele><time>2026-05-01T16:54:14.998Z</time></trkpt><trkpt lat="42.2514565884158" lon="8.763579918733514"><ele>400.0</ele><time>2026-05-01T16:54:15.998Z</time></trkpt><trkpt lat="42.251493055175494" lon="8.763469776603625"><ele>405.6666666666667</ele><time>2026-05-01T16:54:16.998Z</time></trkpt><trkpt lat="42.251481132240365" lon="8.763308211435346"><ele>411.33333333333337</ele><time>2026-05-01T16:54:17.998Z</time></trkpt><trkpt lat="42.25143400983915" lon="8.763109424945053"><ele>417.0</ele><time>2026-05-01T16:54:18.998Z</time></trkpt><trkpt lat="42.251373041380944" lon="8.762882012786557"><ele>428.0</ele><time>2026-05-01T16:54:19.998Z</time></trkpt><trkpt lat="42.25133011894334" lon="8.762643278831701"><ele>439.0</ele><time>2026-05-01T16:54:20.998Z</time></trkpt><trkpt lat="42.251297889775365" lon="8.762387051232174"><ele>450.0</ele><time>2026-05-01T16:54:21.998Z</time></trkpt><trkpt lat="42.251271866284036" lon="8.762123839925941"><ele>450.0</ele><time>2026-05-01T16:54:22.998Z</time></trkpt><trkpt lat="42.25124128717073" lon="8.761875749549807"><ele>450.0</ele><time>2026-05-01T16:54:23.998Z</time></trkpt><trkpt lat="42.25121450080679" lon="8.761643385733322"><ele>450.0</ele><time>2026-05-01T16:54:25Z</time></trkpt><trkpt lat="42.25121476224784" lon="8.7614456420261"><ele>450.5</ele><time>2026-05-01T16:54:26Z</time></trkpt><trkpt lat="42.251258122617514" lon="8.761290444379709"><ele>451.0</ele><time>2026-05-01T16:54:27Z</time></trkpt><trkpt lat="42.251360491337245" lon="8.76116768983163"><ele>451.5</ele><time>2026-05-01T16:54:28Z</time></trkpt><trkpt lat="42.251501747575304" lon="8.761080028907868"><ele>452.0</ele><time>2026-05-01T16:54:29Z</time></trkpt><trkpt lat="42.25163069000924" lon="8.760973706331352"><ele>445.5</ele><time>2026-05-01T16:54:30Z</time></trkpt><trkpt lat="42.25174038809462" lon="8.760821040603139"><ele>439.0</ele><time>2026-05-01T16:54:31Z</time></trkpt><trkpt lat="42.251854991908964" lon="8.760710250695654"><ele>432.5</ele><time>2026-05-01T16:54:32Z</time></trkpt><trkpt lat="42.25199261396807" lon="8.760701575150575"><ele>426.0</ele><time>2026-05-01T16:54:33Z</time></trkpt><trkpt lat="42.252104093370804" lon="8.76069928444559"><ele>426.0</ele><time>2026-05-01T16:54:34Z</time></trkpt><trkpt lat="42.25217829699344" lon="8.760633929544191"><ele>426.0</ele><time>2026-05-01T16:54:35Z</time></trkpt><trkpt lat="42.25222289305467" lon="8.760493441269618"><ele>426.0</ele><time>2026-05-01T16:54:36Z</time></trkpt><trkpt lat="42.25224548781763" lon="8.760304663277068"><ele>426.0</ele><time>2026-05-01T16:54:37Z</time></trkpt><trkpt lat="42.25227088506268" lon="8.760124331419126"><ele>431.25</ele><time>2026-05-01T16:54:38Z</time></trkpt><trkpt lat="42.2522733734489" lon="8.759975612302178"><ele>436.5</ele><time>2026-05-01T16:54:39Z</time></trkpt><trkpt lat="42.25221595934348" lon="8.759851992024016"><ele>441.75</ele><time>2026-05-01T16:54:40Z</time></trkpt><trkpt lat="42.252132705950864" lon="8.759717006303163"><ele>447.0</ele><time>2026-05-01T16:54:41Z</time></trkpt><trkpt lat="42.252071513475585" lon="8.759575540797524"><ele>447.0</ele><time>2026-05-01T16:54:42Z</time></trkpt><trkpt lat="42.25206901445627" lon="8.759413664354696"><ele>447.0</ele><time>2026-05-01T16:54:43Z</time></trkpt><trkpt lat="42.252102523059975" lon="8.759199135194834"><ele>447.0</ele><time>2026-05-01T16:54:44Z</time></trkpt><trkpt lat="42.25214927513371" lon="8.758978130887291"><ele>450.66666666666663</ele><time>2026-05-01T16:54:45Z</time></trkpt><trkpt lat="42.25220267793071" lon="8.758751875708432"><ele>454.3333333333333</ele><time>2026-05-01T16:54:46Z</time></trkpt><trkpt lat="42.25228475462035" lon="8.758552041308588"><ele>458.0</ele><time>2026-05-01T16:54:47Z</time></trkpt><trkpt lat="42.25239446118146" lon="8.758398172319653"><ele>449.25</ele><time>2026-05-01T16:54:48Z</time></trkpt><trkpt lat="42.25252043423385" lon="8.758308138894241"><ele>440.5</ele><time>2026-05-01T16:54:49Z</time></trkpt><trkpt lat="42.2526528236335" lon="8.758287196448753"><ele>431.75</ele><time>2026-05-01T16:54:50Z</time></trkpt><trkpt lat="42.25277202880002" lon="8.75833762848877"><ele>423.0</ele><time>2026-05-01T16:54:51Z</time></trkpt><trkpt lat="42.252890277790904" lon="8.758390934014274"><ele>423.0</ele><time>2026-05-01T16:54:52Z</time></trkpt><trkpt lat="42.25299402711168" lon="8.75835645344566"><ele>423.0</ele><time>2026-05-01T16:54:53Z</time></trkpt><trkpt lat="42.25308102483598" lon="8.758233673165565"><ele>423.0</ele><time>2026-05-01T16:54:54Z</time></trkpt><trkpt lat="42.25315925086818" lon="8.75805320444981"><ele>423.0</ele><time>2026-05-01T16:54:55Z</time></trkpt><trkpt lat="42.253247817754975" lon="8.757885627337222"><ele>416.5</ele><time>2026-05-01T16:54:56Z</time></trkpt><trkpt lat="42.25336831830256" lon="8.757804627225179"><ele>410.0</ele><time>2026-05-01T16:54:57Z</time></trkpt><trkpt lat="42.25350206566222" lon="8.757808847292614"><ele>403.5</ele><time>2026-05-01T16:54:57.999Z</time></trkpt><trkpt lat="42.253631254920016" lon="8.75789095408391"><ele>397.0</ele><time>2026-05-01T16:54:58.999Z</time></trkpt><trkpt lat="42.25376700705993" lon="8.75798641201169"><ele>397.0</ele><time>2026-05-01T16:54:59.999Z</time></trkpt><trkpt lat="42.25392643259175" lon="8.758025007957716"><ele>397.0</ele><time>2026-05-01T16:55:00.999Z</time></trkpt><trkpt lat="42.2540864289445" lon="8.758022781796665"><ele>397.0</ele><time>2026-05-01T16:55:01.999Z</time></trkpt><trkpt lat="42.25423522989301" lon="8.757977702135205"><ele>398.5</ele><time>2026-05-01T16:55:02.999Z</time></trkpt><trkpt lat="42.25436628861809" lon="8.757905186651636"><ele>400.0</ele><time>2026-05-01T16:55:03.999Z</time></trkpt><trkpt lat="42.25445612572427" lon="8.757783321918922"><ele>401.5</ele><time>2026-05-01T16:55:04.999Z</time></trkpt><trkpt lat="42.25450551630867" lon="8.757619058825965"><ele>403.0</ele><time>2026-05-01T16:55:05.999Z</time></trkpt><trkpt lat="42.254516015130164" lon="8.757425189920752"><ele>403.0</ele><time>2026-05-01T16:55:06.999Z</time></trkpt><trkpt lat="42.254475152948395" lon="8.75721496341985"><ele>403.0</ele><time>2026-05-01T16:55:07.999Z</time></trkpt><trkpt lat="42.25440237465634" lon="8.757010281285732"><ele>403.0</ele><time>2026-05-01T16:55:08.999Z</time></trkpt><trkpt lat="42.25429626630816" lon="8.756798350127818"><ele>400.0</ele><time>2026-05-01T16:55:09.999Z</time></trkpt><trkpt lat="42.25419423619921" lon="8.756581337724212"><ele>397.0</ele><time>2026-05-01T16:55:10.999Z</time></trkpt><trkpt lat="42.254104198847074" lon="8.756366608547987"><ele>394.0</ele><time>2026-05-01T16:55:11.999Z</time></trkpt><trkpt lat="42.254001388065674" lon="8.756161206091921"><ele>395.6666666666667</ele><time>2026-05-01T16:55:12.999Z</time></trkpt><trkpt lat="42.253859251280964" lon="8.755981072761726"><ele>397.33333333333337</ele><time>2026-05-01T16:55:13.999Z</time></trkpt><trkpt lat="42.25371144084947" lon="8.75581014508773"><ele>399.0</ele><time>2026-05-01T16:55:14.999Z</time></trkpt><trkpt lat="42.25357635742752" lon="8.75564191525076"><ele>399.0</ele><time>2026-05-01T16:55:15.999Z</time></trkpt><trkpt lat="42.25344091902966" lon="8.75549797538523"><ele>399.0</ele><time>2026-05-01T16:55:16.999Z</time></trkpt><trkpt lat="42.25328534074741" lon="8.755393815945958"><ele>399.0</ele><time>2026-05-01T16:55:17.999Z</time></trkpt><trkpt lat="42.25310170083712" lon="8.755317351612097"><ele>396.33333333333337</ele><time>2026-05-01T16:55:18.999Z</time></trkpt><trkpt lat="42.25291872677038" lon="8.755269750692898"><ele>393.6666666666667</ele><time>2026-05-01T16:55:19.999Z</time></trkpt><trkpt lat="42.2527391788347" lon="8.755212157374322"><ele>391.0</ele><time>2026-05-01T16:55:20.999Z</time></trkpt><trkpt lat="42.25258448095578" lon="8.755144330846013"><ele>391.0</ele><time>2026-05-01T16:55:21.999Z</time></trkpt><trkpt lat="42.25246692017381" lon="8.755029866941003"><ele>391.0</ele><time>2026-05-01T16:55:22.999Z</time></trkpt><trkpt lat="42.25239176209214" lon="8.75486474531728"><ele>391.0</ele><time>2026-05-01T16:55:23.999Z</time></trkpt><trkpt lat="42.252337117778815" lon="8.754643103131373"><ele>391.33333333333337</ele><time>2026-05-01T16:55:24.999Z</time></trkpt><trkpt lat="42.25228431074662" lon="8.75439892648067"><ele>391.66666666666663</ele><time>2026-05-01T16:55:25.999Z</time></trkpt><trkpt lat="42.252206690699964" lon="8.754180618107394"><ele>392.0</ele><time>2026-05-01T16:55:26.999Z</time></trkpt><trkpt lat="42.25211679988078" lon="8.754036737157463"><ele>392.0</ele><time>2026-05-01T16:55:27.999Z</time></trkpt><trkpt lat="42.252003457969195" lon="8.75393891860944"><ele>392.0</ele><time>2026-05-01T16:55:28.999Z</time></trkpt><trkpt lat="42.25184648722871" lon="8.75388769971653"><ele>392.0</ele><time>2026-05-01T16:55:29.999Z</time></trkpt><trkpt lat="42.251690450554655" lon="8.753788455038256"><ele>392.0</ele><time>2026-05-01T16:55:30.999Z</time></trkpt><trkpt lat="42.251580246016964" lon="8.753607105615021"><ele>392.0</ele><time>2026-05-01T16:55:31.999Z</time></trkpt><trkpt lat="42.251500381456445" lon="8.753364487681077"><ele>392.0</ele><time>2026-05-01T16:55:32.999Z</time></trkpt><trkpt lat="42.25143575774825" lon="8.753098085220236"><ele>393.66666666666663</ele><time>2026-05-01T16:55:33.999Z</time></trkpt><trkpt lat="42.25137486176142" lon="8.752837291759239"><ele>395.33333333333337</ele><time>2026-05-01T16:55:34.999Z</time></trkpt><trkpt lat="42.25128670084027" lon="8.752622001697116"><ele>397.0</ele><time>2026-05-01T16:55:35.999Z</time></trkpt><trkpt lat="42.25120425580486" lon="8.75246254714171"><ele>397.0</ele><time>2026-05-01T16:55:36.999Z</time></trkpt><trkpt lat="42.251191901067244" lon="8.752327054879148"><ele>397.0</ele><time>2026-05-01T16:55:37.999Z</time></trkpt><trkpt lat="42.251255632870865" lon="8.752177305430864"><ele>397.0</ele><time>2026-05-01T16:55:38.999Z</time></trkpt><trkpt lat="42.251349762686" lon="8.752003680810049"><ele>397.0</ele><time>2026-05-01T16:55:39.999Z</time></trkpt><trkpt lat="42.251417506012174" lon="8.751802458365392"><ele>391.0</ele><time>2026-05-01T16:55:40.999Z</time></trkpt><trkpt lat="42.25142557589041" lon="8.751593940664117"><ele>385.0</ele><time>2026-05-01T16:55:41.999Z</time></trkpt><trkpt lat="42.25138139447237" lon="8.751405363226185"><ele>379.0</ele><time>2026-05-01T16:55:42.999Z</time></trkpt><trkpt lat="42.251270934178024" lon="8.751248799393487"><ele>379.0</ele><time>2026-05-01T16:55:43.999Z</time></trkpt><trkpt lat="42.25112073389484" lon="8.751137148556325"><ele>379.0</ele><time>2026-05-01T16:55:44.999Z</time></trkpt><trkpt lat="42.2509498984294" lon="8.751044828333885"><ele>379.0</ele><time>2026-05-01T16:55:45.999Z</time></trkpt><trkpt lat="42.250810906360435" lon="8.750921684867619"><ele>371.0</ele><time>2026-05-01T16:55:46.999Z</time></trkpt><trkpt lat="42.25073189784735" lon="8.750730929001458"><ele>363.0</ele><time>2026-05-01T16:55:47.999Z</time></trkpt><trkpt lat="42.25068918677853" lon="8.7504872366371"><ele>355.0</ele><time>2026-05-01T16:55:48.999Z</time></trkpt><trkpt lat="42.25066490801865" lon="8.750226692294085"><ele>351.0</ele><time>2026-05-01T16:55:49.999Z</time></trkpt><trkpt lat="42.250682492920554" lon="8.74995516538566"><ele>347.0</ele><time>2026-05-01T16:55:50.999Z</time></trkpt><trkpt lat="42.25072870748948" lon="8.749678166455126"><ele>343.0</ele><time>2026-05-01T16:55:51.999Z</time></trkpt><trkpt lat="42.250748893097935" lon="8.749406957585553"><ele>347.66666666666663</ele><time>2026-05-01T16:55:52.999Z</time></trkpt><trkpt lat="42.250726004834526" lon="8.749158256487055"><ele>352.3333333333333</ele><time>2026-05-01T16:55:53.999Z</time></trkpt><trkpt lat="42.25067699237854" lon="8.748938900371744"><ele>357.0</ele><time>2026-05-01T16:55:54.998Z</time></trkpt><trkpt lat="42.25059990333134" lon="8.748774894613808"><ele>357.0</ele><time>2026-05-01T16:55:55.998Z</time></trkpt><trkpt lat="42.25049048266394" lon="8.748681973671504"><ele>357.0</ele><time>2026-05-01T16:55:56.998Z</time></trkpt><trkpt lat="42.25035807556396" lon="8.748668030541708"><ele>357.0</ele><time>2026-05-01T16:55:57.998Z</time></trkpt><trkpt lat="42.25019398900131" lon="8.748698722301098"><ele>357.0</ele><time>2026-05-01T16:55:58.998Z</time></trkpt><trkpt lat="42.25000969277136" lon="8.748726958489701"><ele>357.0</ele><time>2026-05-01T16:55:59.998Z</time></trkpt><trkpt lat="42.24982726758289" lon="8.748694281730332"><ele>357.0</ele><time>2026-05-01T16:56:00.998Z</time></trkpt><trkpt lat="42.249676513590686" lon="8.748643590374375"><ele>357.0</ele><time>2026-05-01T16:56:01.998Z</time></trkpt><trkpt lat="42.24955819899198" lon="8.748634456124854"><ele>352.0</ele><time>2026-05-01T16:56:02.998Z</time></trkpt><trkpt lat="42.24944849274076" lon="8.748689580387804"><ele>347.0</ele><time>2026-05-01T16:56:03.998Z</time></trkpt><trkpt lat="42.2493433614073" lon="8.748819972441964"><ele>342.0</ele><time>2026-05-01T16:56:04.998Z</time></trkpt><trkpt lat="42.24922363253728" lon="8.748983831711449"><ele>337.0</ele><time>2026-05-01T16:56:05.998Z</time></trkpt><trkpt lat="42.24910622192392" lon="8.749129199339967"><ele>337.0</ele><time>2026-05-01T16:56:06.998Z</time></trkpt><trkpt lat="42.24900698177475" lon="8.74920848601445"><ele>337.0</ele><time>2026-05-01T16:56:07.998Z</time></trkpt><trkpt lat="42.24890709657454" lon="8.749218906575605"><ele>337.0</ele><time>2026-05-01T16:56:08.998Z</time></trkpt><trkpt lat="42.248807147266184" lon="8.749143122471658"><ele>337.0</ele><time>2026-05-01T16:56:09.998Z</time></trkpt><trkpt lat="42.2487350944768" lon="8.748997014808753"><ele>350.66666666666663</ele><time>2026-05-01T16:56:10.998Z</time></trkpt><trkpt lat="42.24872209645444" lon="8.748807975853524"><ele>364.3333333333333</ele><time>2026-05-01T16:56:11.998Z</time></trkpt><trkpt lat="42.24875826447081" lon="8.748590828378097"><ele>378.0</ele><time>2026-05-01T16:56:12.998Z</time></trkpt><trkpt lat="42.24883189414026" lon="8.748376512668957"><ele>380.66666666666663</ele><time>2026-05-01T16:56:13.998Z</time></trkpt><trkpt lat="42.24893201204556" lon="8.748159446834329"><ele>383.3333333333333</ele><time>2026-05-01T16:56:14.998Z</time></trkpt><trkpt lat="42.24903966660698" lon="8.747949081121279"><ele>386.0</ele><time>2026-05-01T16:56:15.998Z</time></trkpt><trkpt lat="42.249095450358155" lon="8.747728066835124"><ele>358.3333333333333</ele><time>2026-05-01T16:56:16.998Z</time></trkpt><trkpt lat="42.24911941737392" lon="8.74751043186248"><ele>330.66666666666663</ele><time>2026-05-01T16:56:17.998Z</time></trkpt><trkpt lat="42.24910688206716" lon="8.747289842992101"><ele>303.0</ele><time>2026-05-01T16:56:18.998Z</time></trkpt><trkpt lat="42.2490510537573" lon="8.747091147504095"><ele>323.3333333333333</ele><time>2026-05-01T16:56:19.998Z</time></trkpt><trkpt lat="42.24895658524129" lon="8.746883590660135"><ele>343.66666666666663</ele><time>2026-05-01T16:56:20.998Z</time></trkpt><trkpt lat="42.24886193169916" lon="8.746670634364449"><ele>364.0</ele><time>2026-05-01T16:56:21.998Z</time></trkpt><trkpt lat="42.24879450485164" lon="8.746457584495426"><ele>364.0</ele><time>2026-05-01T16:56:22.998Z</time></trkpt><trkpt lat="42.24875289766113" lon="8.74625709923965"><ele>364.0</ele><time>2026-05-01T16:56:23.998Z</time></trkpt><trkpt lat="42.248759280662775" lon="8.746064653986517"><ele>364.0</ele><time>2026-05-01T16:56:24.998Z</time></trkpt><trkpt lat="42.24882428925766" lon="8.745867987182367"><ele>361.0</ele><time>2026-05-01T16:56:25.998Z</time></trkpt><trkpt lat="42.24892483800625" lon="8.745651032882996"><ele>358.0</ele><time>2026-05-01T16:56:26.998Z</time></trkpt><trkpt lat="42.24903892821404" lon="8.74544567800299"><ele>355.0</ele><time>2026-05-01T16:56:27.998Z</time></trkpt><trkpt lat="42.24916408772836" lon="8.745258830935922"><ele>340.3333333333333</ele><time>2026-05-01T16:56:28.998Z</time></trkpt><trkpt lat="42.249265170586284" lon="8.745065190831998"><ele>325.6666666666667</ele><time>2026-05-01T16:56:29.998Z</time></trkpt><trkpt lat="42.249335901835536" lon="8.74483675313946"><ele>311.0</ele><time>2026-05-01T16:56:31Z</time></trkpt><trkpt lat="42.24937635249657" lon="8.744568621889456"><ele>310.33333333333337</ele><time>2026-05-01T16:56:32Z</time></trkpt><trkpt lat="42.249406844393434" lon="8.744300345227545"><ele>309.6666666666667</ele><time>2026-05-01T16:56:33Z</time></trkpt><trkpt lat="42.249440980944286" lon="8.744045766354045"><ele>309.0</ele><time>2026-05-01T16:56:34Z</time></trkpt><trkpt lat="42.24947017820134" lon="8.743833860879965"><ele>309.0</ele><time>2026-05-01T16:56:35Z</time></trkpt><trkpt lat="42.24949467984929" lon="8.743668759254726"><ele>309.0</ele><time>2026-05-01T16:56:36Z</time></trkpt><trkpt lat="42.24947422676621" lon="8.74352138226463"><ele>309.0</ele><time>2026-05-01T16:56:37Z</time></trkpt><trkpt lat="42.24939566501541" lon="8.743401948260692"><ele>309.0</ele><time>2026-05-01T16:56:38Z</time></trkpt><trkpt lat="42.249255461752014" lon="8.743319966156506"><ele>309.0</ele><time>2026-05-01T16:56:39Z</time></trkpt><trkpt lat="42.24908350983599" lon="8.743266192114794"><ele>309.0</ele><time>2026-05-01T16:56:40Z</time></trkpt><trkpt lat="42.248912777007305" lon="8.743247073660788"><ele>309.0</ele><time>2026-05-01T16:56:41Z</time></trkpt><trkpt lat="42.248755607366554" lon="8.743225176325808"><ele>309.0</ele><time>2026-05-01T16:56:42Z</time></trkpt><trkpt lat="42.248627353404494" lon="8.743163008889939"><ele>309.0</ele><time>2026-05-01T16:56:43Z</time></trkpt><trkpt lat="42.248545436328385" lon="8.743049657511563"><ele>309.0</ele><time>2026-05-01T16:56:44Z</time></trkpt><trkpt lat="42.24850964321132" lon="8.742888473062859"><ele>309.0</ele><time>2026-05-01T16:56:45Z</time></trkpt><trkpt lat="42.248516266916944" lon="8.742699499616807"><ele>306.75</ele><time>2026-05-01T16:56:46Z</time></trkpt><trkpt lat="42.24855042689169" lon="8.742497206750157"><ele>304.5</ele><time>2026-05-01T16:56:47Z</time></trkpt><trkpt lat="42.24857212916774" lon="8.74230849275933"><ele>302.25</ele><time>2026-05-01T16:56:48Z</time></trkpt><trkpt lat="42.24855219441757" lon="8.742127472467983"><ele>300.0</ele><time>2026-05-01T16:56:49Z</time></trkpt><trkpt lat="42.24846554153776" lon="8.741956853575129"><ele>296.0</ele><time>2026-05-01T16:56:50Z</time></trkpt><trkpt lat="42.24832986691773" lon="8.741810000047277"><ele>292.0</ele><time>2026-05-01T16:56:51Z</time></trkpt><trkpt lat="42.24822159037366" lon="8.74164824351393"><ele>288.0</ele><time>2026-05-01T16:56:52Z</time></trkpt><trkpt lat="42.24817378195252" lon="8.741450612575447"><ele>288.0</ele><time>2026-05-01T16:56:53Z</time></trkpt><trkpt lat="42.248157803564155" lon="8.741214903858637"><ele>288.0</ele><time>2026-05-01T16:56:54Z</time></trkpt><trkpt lat="42.24812537776743" lon="8.74098884693271"><ele>288.0</ele><time>2026-05-01T16:56:55Z</time></trkpt><trkpt lat="42.24811175926529" lon="8.740775007463013"><ele>285.3333333333333</ele><time>2026-05-01T16:56:56Z</time></trkpt><trkpt lat="42.24813755399498" lon="8.740576545781316"><ele>282.66666666666663</ele><time>2026-05-01T16:56:57Z</time></trkpt><trkpt lat="42.248208308287545" lon="8.740375177495288"><ele>280.0</ele><time>2026-05-01T16:56:58Z</time></trkpt><trkpt lat="42.24829420019772" lon="8.740171833716918"><ele>280.0</ele><time>2026-05-01T16:56:59Z</time></trkpt><trkpt lat="42.24840909313345" lon="8.739987806605106"><ele>280.0</ele><time>2026-05-01T16:57:00Z</time></trkpt><trkpt lat="42.248544993925094" lon="8.739824927515267"><ele>280.0</ele><time>2026-05-01T16:57:01Z</time></trkpt><trkpt lat="42.248681294215245" lon="8.739639075930974"><ele>280.0</ele><time>2026-05-01T16:57:02Z</time></trkpt><trkpt lat="42.24876544675801" lon="8.739419385100653"><ele>280.0</ele><time>2026-05-01T16:57:03Z</time></trkpt><trkpt lat="42.24881985849402" lon="8.739190129715443"><ele>280.0</ele><time>2026-05-01T16:57:04Z</time></trkpt><trkpt lat="42.248912484885345" lon="8.739002914978478"><ele>274.66666666666663</ele><time>2026-05-01T16:57:05Z</time></trkpt><trkpt lat="42.24904260930235" lon="8.7388832912306"><ele>269.3333333333333</ele><time>2026-05-01T16:57:06Z</time></trkpt><trkpt lat="42.249203095517515" lon="8.73886078328112"><ele>264.0</ele><time>2026-05-01T16:57:07Z</time></trkpt><trkpt lat="42.249370374633024" lon="8.73887013849897"><ele>264.0</ele><time>2026-05-01T16:57:08Z</time></trkpt><trkpt lat="42.24953835393631" lon="8.738850164818071"><ele>264.0</ele><time>2026-05-01T16:57:09Z</time></trkpt><trkpt lat="42.2496795037238" lon="8.738758210170946"><ele>264.0</ele><time>2026-05-01T16:57:10Z</time></trkpt><trkpt lat="42.249800448258014" lon="8.738596458684192"><ele>261.25</ele><time>2026-05-01T16:57:11Z</time></trkpt><trkpt lat="42.24991112285338" lon="8.738413750664757"><ele>258.5</ele><time>2026-05-01T16:57:12Z</time></trkpt><trkpt lat="42.249990806988826" lon="8.738239615904407"><ele>255.75</ele><time>2026-05-01T16:57:13Z</time></trkpt><trkpt lat="42.25000619566529" lon="8.738079126330668"><ele>253.0</ele><time>2026-05-01T16:57:14Z</time></trkpt><trkpt lat="42.249941374066076" lon="8.737925435870489"><ele>253.0</ele><time>2026-05-01T16:57:15Z</time></trkpt><trkpt lat="42.24982813636363" lon="8.73779510700453"><ele>253.0</ele><time>2026-05-01T16:57:16Z</time></trkpt><trkpt lat="42.24966158373857" lon="8.737694839973082"><ele>253.0</ele><time>2026-05-01T16:57:16.999Z</time></trkpt><trkpt lat="42.24946275651955" lon="8.737614741543402"><ele>252.0</ele><time>2026-05-01T16:57:17.999Z</time></trkpt><trkpt lat="42.249265118469424" lon="8.73755589588861"><ele>251.0</ele><time>2026-05-01T16:57:18.999Z</time></trkpt><trkpt lat="42.249055269036106" lon="8.7374949192378"><ele>250.0</ele><time>2026-05-01T16:57:19.999Z</time></trkpt><trkpt lat="42.24884778313276" lon="8.737448656069075"><ele>252.0</ele><time>2026-05-01T16:57:20.999Z</time></trkpt><trkpt lat="42.2486600238012" lon="8.73744585962441"><ele>254.0</ele><time>2026-05-01T16:57:21.999Z</time></trkpt><trkpt lat="42.248502976175885" lon="8.737468362132946"><ele>256.0</ele><time>2026-05-01T16:57:22.999Z</time></trkpt><trkpt lat="42.24837419573878" lon="8.737405182857028"><ele>256.0</ele><time>2026-05-01T16:57:23.999Z</time></trkpt><trkpt lat="42.248315323563034" lon="8.737273574181453"><ele>256.0</ele><time>2026-05-01T16:57:24.999Z</time></trkpt><trkpt lat="42.248311180594264" lon="8.737094219748954"><ele>256.0</ele><time>2026-05-01T16:57:25.999Z</time></trkpt><trkpt lat="42.248369968509635" lon="8.736910990894229"><ele>256.0</ele><time>2026-05-01T16:57:26.999Z</time></trkpt><trkpt lat="42.24848019150315" lon="8.736730302940506"><ele>256.66666666666663</ele><time>2026-05-01T16:57:27.999Z</time></trkpt><trkpt lat="42.24860587626914" lon="8.7365282217075"><ele>257.3333333333333</ele><time>2026-05-01T16:57:28.999Z</time></trkpt><trkpt lat="42.2487302230021" lon="8.736302924811563"><ele>258.0</ele><time>2026-05-01T16:57:29.999Z</time></trkpt><trkpt lat="42.2488245228183" lon="8.736090835168921"><ele>258.0</ele><time>2026-05-01T16:57:30.999Z</time></trkpt><trkpt lat="42.24889504466119" lon="8.735924943617084"><ele>258.0</ele><time>2026-05-01T16:57:31.999Z</time></trkpt><trkpt lat="42.248897169122" lon="8.735764116870188"><ele>258.0</ele><time>2026-05-01T16:57:32.999Z</time></trkpt><trkpt lat="42.248830793775774" lon="8.73560806103797"><ele>258.0</ele><time>2026-05-01T16:57:33.999Z</time></trkpt><trkpt lat="42.24871183582643" lon="8.735466745325658"><ele>258.0</ele><time>2026-05-01T16:57:34.999Z</time></trkpt><trkpt lat="42.248559657654745" lon="8.735321729487483"><ele>258.0</ele><time>2026-05-01T16:57:35.999Z</time></trkpt><trkpt lat="42.248435550339245" lon="8.735119950048365"><ele>258.0</ele><time>2026-05-01T16:57:36.999Z</time></trkpt><trkpt lat="42.2483305654835" lon="8.734875690238546"><ele>252.33333333333331</ele><time>2026-05-01T16:57:37.999Z</time></trkpt><trkpt lat="42.24826337740224" lon="8.734628161799211"><ele>246.66666666666666</ele><time>2026-05-01T16:57:38.999Z</time></trkpt><trkpt lat="42.24821770133345" lon="8.734411204665012"><ele>241.0</ele><time>2026-05-01T16:57:39.999Z</time></trkpt><trkpt lat="42.248153402532814" lon="8.734258501317218"><ele>239.66666666666666</ele><time>2026-05-01T16:57:40.999Z</time></trkpt><trkpt lat="42.248033074061574" lon="8.734188282388805"><ele>238.33333333333331</ele><time>2026-05-01T16:57:41.999Z</time></trkpt><trkpt lat="42.24786974545745" lon="8.734177205461538"><ele>237.0</ele><time>2026-05-01T16:57:42.999Z</time></trkpt><trkpt lat="42.24769778640223" lon="8.734142823145506"><ele>237.0</ele><time>2026-05-01T16:57:43.999Z</time></trkpt><trkpt lat="42.24754139517317" lon="8.734012676483049"><ele>237.0</ele><time>2026-05-01T16:57:44.999Z</time></trkpt><trkpt lat="42.2474026630488" lon="8.733822658531102"><ele>237.0</ele><time>2026-05-01T16:57:45.999Z</time></trkpt><trkpt lat="42.247249555054" lon="8.73364484145282"><ele>237.0</ele><time>2026-05-01T16:57:46.999Z</time></trkpt><trkpt lat="42.247097233820426" lon="8.733548894446093"><ele>237.0</ele><time>2026-05-01T16:57:47.999Z</time></trkpt><trkpt lat="42.246968721674094" lon="8.73345737008021"><ele>237.0</ele><time>2026-05-01T16:57:48.999Z</time></trkpt><trkpt lat="42.24689448727744" lon="8.733334765508264"><ele>237.0</ele><time>2026-05-01T16:57:49.999Z</time></trkpt><trkpt lat="42.24687049117004" lon="8.733165139248502"><ele>237.0</ele><time>2026-05-01T16:57:50.999Z</time></trkpt><trkpt lat="42.246881837661164" lon="8.732973483199071"><ele>237.0</ele><time>2026-05-01T16:57:51.999Z</time></trkpt><trkpt lat="42.2468500800463" lon="8.732812535559752"><ele>237.0</ele><time>2026-05-01T16:57:52.999Z</time></trkpt><trkpt lat="42.24674460598249" lon="8.732695031168555"><ele>237.0</ele><time>2026-05-01T16:57:53.999Z</time></trkpt><trkpt lat="42.246588729234915" lon="8.73262448534139"><ele>228.0</ele><time>2026-05-01T16:57:54.999Z</time></trkpt><trkpt lat="42.246400599993265" lon="8.732614139375647"><ele>219.0</ele><time>2026-05-01T16:57:55.999Z</time></trkpt><trkpt lat="42.24618929565108" lon="8.732598769438033"><ele>210.0</ele><time>2026-05-01T16:57:56.999Z</time></trkpt><trkpt lat="42.245977075800305" lon="8.732573744319467"><ele>210.0</ele><time>2026-05-01T16:57:57.999Z</time></trkpt><trkpt lat="42.24575388567586" lon="8.732537182041263"><ele>210.0</ele><time>2026-05-01T16:57:58.999Z</time></trkpt><trkpt lat="42.24550985859246" lon="8.732498564081704"><ele>206.5</ele><time>2026-05-01T16:57:59.999Z</time></trkpt><trkpt lat="42.24526541181971" lon="8.732479271163827"><ele>203.0</ele><time>2026-05-01T16:58:00.999Z</time></trkpt><trkpt lat="42.24503262342194" lon="8.732460713013896"><ele>203.0</ele><time>2026-05-01T16:58:01.999Z</time></trkpt><trkpt lat="42.244812139959386" lon="8.732465340374562"><ele>203.0</ele><time>2026-05-01T16:58:02.999Z</time></trkpt><trkpt lat="42.24461696185785" lon="8.732468532759349"><ele>203.0</ele><time>2026-05-01T16:58:03.999Z</time></trkpt><trkpt lat="42.244443230803725" lon="8.732518703427465"><ele>200.33333333333334</ele><time>2026-05-01T16:58:04.999Z</time></trkpt><trkpt lat="42.244294072055624" lon="8.73264095416437"><ele>197.66666666666669</ele><time>2026-05-01T16:58:05.999Z</time></trkpt><trkpt lat="42.244160781126574" lon="8.732735283563487"><ele>195.0</ele><time>2026-05-01T16:58:06.999Z</time></trkpt><trkpt lat="42.244033261219435" lon="8.732718317297206"><ele>198.33333333333331</ele><time>2026-05-01T16:58:07.999Z</time></trkpt><trkpt lat="42.24391274223272" lon="8.732598830286717"><ele>201.66666666666666</ele><time>2026-05-01T16:58:08.999Z</time></trkpt><trkpt lat="42.24378846721949" lon="8.732453286274037"><ele>205.0</ele><time>2026-05-01T16:58:09.998Z</time></trkpt><trkpt lat="42.24363778427868" lon="8.732323860076809"><ele>205.0</ele><time>2026-05-01T16:58:10.998Z</time></trkpt><trkpt lat="42.24346967429237" lon="8.732251306456774"><ele>205.0</ele><time>2026-05-01T16:58:11.998Z</time></trkpt><trkpt lat="42.24329945101809" lon="8.732238670599585"><ele>205.0</ele><time>2026-05-01T16:58:12.998Z</time></trkpt><trkpt lat="42.24313250702235" lon="8.732305972311432"><ele>200.33333333333331</ele><time>2026-05-01T16:58:13.998Z</time></trkpt><trkpt lat="42.24296941938645" lon="8.732448934195633"><ele>195.66666666666666</ele><time>2026-05-01T16:58:14.998Z</time></trkpt><trkpt lat="42.242795124519446" lon="8.732578199937517"><ele>191.0</ele><time>2026-05-01T16:58:15.998Z</time></trkpt><trkpt lat="42.242588998584125" lon="8.732671229773569"><ele>191.0</ele><time>2026-05-01T16:58:16.998Z</time></trkpt><trkpt lat="42.24237236020895" lon="8.732720865064708"><ele>191.0</ele><time>2026-05-01T16:58:17.998Z</time></trkpt><trkpt lat="42.24215091356012" lon="8.73270709517877"><ele>191.0</ele><time>2026-05-01T16:58:18.998Z</time></trkpt><trkpt lat="42.24195437089223" lon="8.73269717262241"><ele>191.25</ele><time>2026-05-01T16:58:19.998Z</time></trkpt><trkpt lat="42.24177708498972" lon="8.732694906679352"><ele>191.5</ele><time>2026-05-01T16:58:20.998Z</time></trkpt><trkpt lat="42.241636102418305" lon="8.732705957660462"><ele>191.75</ele><time>2026-05-01T16:58:21.998Z</time></trkpt><trkpt lat="42.24152589713777" lon="8.732685977076628"><ele>192.0</ele><time>2026-05-01T16:58:22.998Z</time></trkpt><trkpt lat="42.241455238756835" lon="8.732621413312101"><ele>192.0</ele><time>2026-05-01T16:58:23.998Z</time></trkpt><trkpt lat="42.241429280339936" lon="8.732510945050537"><ele>192.0</ele><time>2026-05-01T16:58:24.998Z</time></trkpt><trkpt lat="42.24141206336023" lon="8.732358077817116"><ele>192.0</ele><time>2026-05-01T16:58:25.998Z</time></trkpt><trkpt lat="42.24140634681331" lon="8.732211050760602"><ele>192.0</ele><time>2026-05-01T16:58:26.998Z</time></trkpt><trkpt lat="42.241437894705086" lon="8.732079731468327"><ele>192.0</ele><time>2026-05-01T16:58:27.998Z</time></trkpt><trkpt lat="42.24151120074022" lon="8.731986905990391"><ele>192.0</ele><time>2026-05-01T16:58:28.998Z</time></trkpt><trkpt lat="42.241645158189925" lon="8.731965907082902"><ele>192.0</ele><time>2026-05-01T16:58:29.998Z</time></trkpt><trkpt lat="42.24180113567567" lon="8.731957797785693"><ele>192.0</ele><time>2026-05-01T16:58:30.998Z</time></trkpt><trkpt lat="42.24197571654969" lon="8.731944789553463"><ele>192.0</ele><time>2026-05-01T16:58:31.998Z</time></trkpt><trkpt lat="42.24215071946871" lon="8.731948539743213"><ele>192.0</ele><time>2026-05-01T16:58:32.998Z</time></trkpt><trkpt lat="42.242321105303105" lon="8.731965273026457"><ele>192.0</ele><time>2026-05-01T16:58:33.998Z</time></trkpt><trkpt lat="42.24246637148399" lon="8.73194294395075"><ele>192.66666666666669</ele><time>2026-05-01T16:58:34.998Z</time></trkpt><trkpt lat="42.24260931196568" lon="8.731822979709811"><ele>193.33333333333334</ele><time>2026-05-01T16:58:35.998Z</time></trkpt><trkpt lat="42.24276251846412" lon="8.731633740784906"><ele>194.0</ele><time>2026-05-01T16:58:37Z</time></trkpt><trkpt lat="42.24289391519145" lon="8.731410842992181"><ele>194.0</ele><time>2026-05-01T16:58:38Z</time></trkpt><trkpt lat="42.24304739762468" lon="8.731210761713148"><ele>194.0</ele><time>2026-05-01T16:58:39Z</time></trkpt><trkpt lat="42.24323400119172" lon="8.731051512161882"><ele>194.0</ele><time>2026-05-01T16:58:40Z</time></trkpt><trkpt lat="42.243422763247736" lon="8.730930210497078"><ele>192.66666666666669</ele><time>2026-05-01T16:58:41Z</time></trkpt><trkpt lat="42.24361985219771" lon="8.730876577460812"><ele>191.33333333333334</ele><time>2026-05-01T16:58:42Z</time></trkpt><trkpt lat="42.24382261333591" lon="8.730865357514201"><ele>190.0</ele><time>2026-05-01T16:58:43Z</time></trkpt><trkpt lat="42.24404751832101" lon="8.730853093913511"><ele>187.5</ele><time>2026-05-01T16:58:44Z</time></trkpt><trkpt lat="42.24428119373508" lon="8.730809965904573"><ele>185.0</ele><time>2026-05-01T16:58:45Z</time></trkpt><trkpt lat="42.24452402109793" lon="8.730743687191552"><ele>185.0</ele><time>2026-05-01T16:58:46Z</time></trkpt><trkpt lat="42.24475591864525" lon="8.73065130374379"><ele>185.0</ele><time>2026-05-01T16:58:47Z</time></trkpt><trkpt lat="42.244978118901834" lon="8.73052368681965"><ele>179.33333333333331</ele><time>2026-05-01T16:58:48Z</time></trkpt><trkpt lat="42.245192419382136" lon="8.730434586558165"><ele>173.66666666666666</ele><time>2026-05-01T16:58:49Z</time></trkpt><trkpt lat="42.24540256563016" lon="8.730381354086596"><ele>168.0</ele><time>2026-05-01T16:58:50Z</time></trkpt><trkpt lat="42.2456247306931" lon="8.73037068692878"><ele>164.0</ele><time>2026-05-01T16:58:51Z</time></trkpt><trkpt lat="42.245867686832554" lon="8.730385475956144"><ele>160.0</ele><time>2026-05-01T16:58:52Z</time></trkpt><trkpt lat="42.24611056166281" lon="8.730388457065853"><ele>160.0</ele><time>2026-05-01T16:58:53Z</time></trkpt><trkpt lat="42.24634762239988" lon="8.73036564965381"><ele>160.0</ele><time>2026-05-01T16:58:54Z</time></trkpt><trkpt lat="42.24656179398006" lon="8.730332093570986"><ele>154.66666666666669</ele><time>2026-05-01T16:58:55Z</time></trkpt><trkpt lat="42.24676741138244" lon="8.73027704163565"><ele>149.33333333333334</ele><time>2026-05-01T16:58:56Z</time></trkpt><trkpt lat="42.24696574115005" lon="8.730170798867606"><ele>144.0</ele><time>2026-05-01T16:58:57Z</time></trkpt><trkpt lat="42.247164807748256" lon="8.730056344995335"><ele>156.5</ele><time>2026-05-01T16:58:58Z</time></trkpt><trkpt lat="42.24737999790412" lon="8.729994771854104"><ele>169.0</ele><time>2026-05-01T16:58:59Z</time></trkpt><trkpt lat="42.247610062157605" lon="8.729984410108274"><ele>169.0</ele><time>2026-05-01T16:59:00Z</time></trkpt><trkpt lat="42.2478342838518" lon="8.729982906933248"><ele>169.0</ele><time>2026-05-01T16:59:01Z</time></trkpt><trkpt lat="42.24804597162055" lon="8.729983436468189"><ele>169.0</ele><time>2026-05-01T16:59:02Z</time></trkpt><trkpt lat="42.248230325836566" lon="8.729965179376535"><ele>164.75</ele><time>2026-05-01T16:59:03Z</time></trkpt><trkpt lat="42.24838849689503" lon="8.729970253691379"><ele>160.5</ele><time>2026-05-01T16:59:04Z</time></trkpt><trkpt lat="42.2485256905565" lon="8.729977563522201"><ele>156.25</ele><time>2026-05-01T16:59:05Z</time></trkpt><trkpt lat="42.24864193257801" lon="8.729971587657007"><ele>152.0</ele><time>2026-05-01T16:59:06Z</time></trkpt><trkpt lat="42.24872880191826" lon="8.729946289674803"><ele>152.0</ele><time>2026-05-01T16:59:07Z</time></trkpt><trkpt lat="42.24880301091258" lon="8.729868488409071"><ele>152.0</ele><time>2026-05-01T16:59:09Z</time></trkpt><trkpt lat="42.2488125299824" lon="8.729743914530058"><ele>152.0</ele><time>2026-05-01T16:59:19Z</time></trkpt><trkpt lat="42.2488484464089" lon="8.729661809549473"><ele>152.0</ele><time>2026-05-01T16:59:20Z</time></trkpt><trkpt lat="42.248878925410594" lon="8.7295730607081"><ele>152.0</ele><time>2026-05-01T16:59:21Z</time></trkpt><trkpt lat="42.24890734792367" lon="8.729475306848242"><ele>152.0</ele><time>2026-05-01T16:59:22Z</time></trkpt><trkpt lat="42.248936401284354" lon="8.729374288910119"><ele>150.16666666666666</ele><time>2026-05-01T16:59:23Z</time></trkpt><trkpt lat="42.248961323060364" lon="8.72927172121832"><ele>148.33333333333331</ele><time>2026-05-01T16:59:24Z</time></trkpt><trkpt lat="42.248986504300916" lon="8.729169720533463"><ele>146.5</ele><time>2026-05-01T16:59:24.999Z</time></trkpt><trkpt lat="42.24901138063693" lon="8.72905940898313"><ele>144.66666666666666</ele><time>2026-05-01T16:59:25.999Z</time></trkpt><trkpt lat="42.24904118514332" lon="8.728944460873066"><ele>142.83333333333334</ele><time>2026-05-01T16:59:26.999Z</time></trkpt><trkpt lat="42.24907447477974" lon="8.728822001476228"><ele>141.0</ele><time>2026-05-01T16:59:27.999Z</time></trkpt><trkpt lat="42.24911473713491" lon="8.72869823220439"><ele>141.0</ele><time>2026-05-01T16:59:28.999Z</time></trkpt><trkpt lat="42.249161404704935" lon="8.728571486015145"><ele>141.0</ele><time>2026-05-01T16:59:29.999Z</time></trkpt><trkpt lat="42.24921295847401" lon="8.728450574829505"><ele>141.0</ele><time>2026-05-01T16:59:30.999Z</time></trkpt><trkpt lat="42.249268052728254" lon="8.728323422948481"><ele>141.0</ele><time>2026-05-01T16:59:31.999Z</time></trkpt><trkpt lat="42.249314743233455" lon="8.728184369059294"><ele>141.0</ele><time>2026-05-01T16:59:32.999Z</time></trkpt><trkpt lat="42.249341127290094" lon="8.728037731908831"><ele>143.0</ele><time>2026-05-01T16:59:33.999Z</time></trkpt><trkpt lat="42.24934725249055" lon="8.72788329101886"><ele>145.0</ele><time>2026-05-01T16:59:34.999Z</time></trkpt><trkpt lat="42.24934247150031" lon="8.72772687168013"><ele>147.0</ele><time>2026-05-01T16:59:35.999Z</time></trkpt><trkpt lat="42.24931339838311" lon="8.727578360505108"><ele>149.0</ele><time>2026-05-01T16:59:36.999Z</time></trkpt><trkpt lat="42.249265878935134" lon="8.727441106966545"><ele>149.0</ele><time>2026-05-01T16:59:37.999Z</time></trkpt><trkpt lat="42.24922679668641" lon="8.72728920385693"><ele>149.0</ele><time>2026-05-01T16:59:38.999Z</time></trkpt><trkpt lat="42.249229205423724" lon="8.727127016966893"><ele>149.0</ele><time>2026-05-01T16:59:39.999Z</time></trkpt><trkpt lat="42.249267710246414" lon="8.726964103068761"><ele>149.0</ele><time>2026-05-01T16:59:40.999Z</time></trkpt><trkpt lat="42.24932602204241" lon="8.726805697099088"><ele>150.0</ele><time>2026-05-01T16:59:41.999Z</time></trkpt><trkpt lat="42.24939916028128" lon="8.72665982392262"><ele>151.0</ele><time>2026-05-01T16:59:42.999Z</time></trkpt><trkpt lat="42.24948472378599" lon="8.726523960247928"><ele>152.0</ele><time>2026-05-01T16:59:43.999Z</time></trkpt><trkpt lat="42.24957398303557" lon="8.726394240436724"><ele>153.0</ele><time>2026-05-01T16:59:44.999Z</time></trkpt><trkpt lat="42.24965880490768" lon="8.726257541993403"><ele>153.0</ele><time>2026-05-01T16:59:45.999Z</time></trkpt><trkpt lat="42.24973585301016" lon="8.726114835766161"><ele>153.0</ele><time>2026-05-01T16:59:46.999Z</time></trkpt><trkpt lat="42.24978430940292" lon="8.725954305329479"><ele>153.0</ele><time>2026-05-01T16:59:47.999Z</time></trkpt><trkpt lat="42.24983050113223" lon="8.725786455819122"><ele>153.0</ele><time>2026-05-01T16:59:48.999Z</time></trkpt><trkpt lat="42.24986100104758" lon="8.725614846132657"><ele>153.5</ele><time>2026-05-01T16:59:49.999Z</time></trkpt><trkpt lat="42.249867589155144" lon="8.725437145723266"><ele>154.0</ele><time>2026-05-01T16:59:50.999Z</time></trkpt><trkpt lat="42.249841999390156" lon="8.725256994899079"><ele>154.5</ele><time>2026-05-01T16:59:51.999Z</time></trkpt><trkpt lat="42.24980653853319" lon="8.725097820382542"><ele>155.0</ele><time>2026-05-01T16:59:52.999Z</time></trkpt><trkpt lat="42.24973438060386" lon="8.724972241878032"><ele>155.0</ele><time>2026-05-01T16:59:53.999Z</time></trkpt><trkpt lat="42.24966549062964" lon="8.724874810169949"><ele>155.0</ele><time>2026-05-01T16:59:54.999Z</time></trkpt><trkpt lat="42.249634285415475" lon="8.724754199549288"><ele>155.0</ele><time>2026-05-01T16:59:55.999Z</time></trkpt><trkpt lat="42.249645006753" lon="8.724634050293309"><ele>155.0</ele><time>2026-05-01T16:59:56.999Z</time></trkpt><trkpt lat="42.24969854653514" lon="8.724514464929175"><ele>155.0</ele><time>2026-05-01T16:59:57.999Z</time></trkpt><trkpt lat="42.24976226588601" lon="8.7243947503693"><ele>151.0</ele><time>2026-05-01T16:59:58.999Z</time></trkpt><trkpt lat="42.2498340848866" lon="8.72430486130213"><ele>147.0</ele><time>2026-05-01T16:59:59.999Z</time></trkpt><trkpt lat="42.249925779170674" lon="8.724261553590138"><ele>143.0</ele><time>2026-05-01T17:00:00.999Z</time></trkpt><trkpt lat="42.250031101755674" lon="8.72428700193942"><ele>139.0</ele><time>2026-05-01T17:00:01.999Z</time></trkpt><trkpt lat="42.250139902378244" lon="8.724374538401607"><ele>135.0</ele><time>2026-05-01T17:00:02.999Z</time></trkpt><trkpt lat="42.250251838878185" lon="8.724480174173"><ele>131.33333333333334</ele><time>2026-05-01T17:00:03.999Z</time></trkpt><trkpt lat="42.25038450615072" lon="8.724581363968712"><ele>127.66666666666667</ele><time>2026-05-01T17:00:04.999Z</time></trkpt><trkpt lat="42.25052735157985" lon="8.72467649452297"><ele>124.0</ele><time>2026-05-01T17:00:05.999Z</time></trkpt><trkpt lat="42.25067736692242" lon="8.724769095270823"><ele>124.0</ele><time>2026-05-01T17:00:06.999Z</time></trkpt><trkpt lat="42.2508231874954" lon="8.724846193326696"><ele>124.0</ele><time>2026-05-01T17:00:07.999Z</time></trkpt><trkpt lat="42.25095656878761" lon="8.724900350836288"><ele>124.0</ele><time>2026-05-01T17:00:08.999Z</time></trkpt><trkpt lat="42.251089085066006" lon="8.72491273436606"><ele>124.0</ele><time>2026-05-01T17:00:09.999Z</time></trkpt><trkpt lat="42.25121394041115" lon="8.724881799256153"><ele>124.0</ele><time>2026-05-01T17:00:10.999Z</time></trkpt><trkpt lat="42.25134939163679" lon="8.72481538995197"><ele>124.0</ele><time>2026-05-01T17:00:11.999Z</time></trkpt><trkpt lat="42.25148535068678" lon="8.724736181600372"><ele>124.0</ele><time>2026-05-01T17:00:12.999Z</time></trkpt><trkpt lat="42.251633730231624" lon="8.72466902473252"><ele>124.0</ele><time>2026-05-01T17:00:13.999Z</time></trkpt><trkpt lat="42.25178462465377" lon="8.724613541894621"><ele>121.5</ele><time>2026-05-01T17:00:14.999Z</time></trkpt><trkpt lat="42.25194190141482" lon="8.724576989466728"><ele>119.0</ele><time>2026-05-01T17:00:15.998Z</time></trkpt><trkpt lat="42.25207886932938" lon="8.724585933094462"><ele>116.5</ele><time>2026-05-01T17:00:16.998Z</time></trkpt><trkpt lat="42.252215498266395" lon="8.724631597565077"><ele>114.0</ele><time>2026-05-01T17:00:17.998Z</time></trkpt><trkpt lat="42.252332275748486" lon="8.724641977686295"><ele>115.75</ele><time>2026-05-01T17:00:18.998Z</time></trkpt><trkpt lat="42.252440514405656" lon="8.724596826492654"><ele>117.5</ele><time>2026-05-01T17:00:19.998Z</time></trkpt><trkpt lat="42.25253070597615" lon="8.724462414865897"><ele>119.25</ele><time>2026-05-01T17:00:20.998Z</time></trkpt><trkpt lat="42.252624947374265" lon="8.724302848261255"><ele>121.0</ele><time>2026-05-01T17:00:21.998Z</time></trkpt><trkpt lat="42.25273930563355" lon="8.724144163044102"><ele>121.0</ele><time>2026-05-01T17:00:22.998Z</time></trkpt><trkpt lat="42.252851403960044" lon="8.723983086022583"><ele>121.0</ele><time>2026-05-01T17:00:23.998Z</time></trkpt><trkpt lat="42.252953493030326" lon="8.723831437272995"><ele>121.0</ele><time>2026-05-01T17:00:24.998Z</time></trkpt><trkpt lat="42.25305831589414" lon="8.723691571774479"><ele>119.33333333333334</ele><time>2026-05-01T17:00:25.998Z</time></trkpt><trkpt lat="42.25318484312639" lon="8.723582095966542"><ele>117.66666666666666</ele><time>2026-05-01T17:00:26.998Z</time></trkpt><trkpt lat="42.253337695776246" lon="8.723528552063648"><ele>116.0</ele><time>2026-05-01T17:00:27.998Z</time></trkpt><trkpt lat="42.25349314574403" lon="8.723493528476387"><ele>116.0</ele><time>2026-05-01T17:00:28.998Z</time></trkpt><trkpt lat="42.25363414093654" lon="8.723430922371334"><ele>116.0</ele><time>2026-05-01T17:00:29.998Z</time></trkpt><trkpt lat="42.253745280025626" lon="8.72334236836251"><ele>116.0</ele><time>2026-05-01T17:00:30.998Z</time></trkpt><trkpt lat="42.25381732508543" lon="8.723207378938788"><ele>116.0</ele><time>2026-05-01T17:00:31.998Z</time></trkpt><trkpt lat="42.25386397383183" lon="8.72302426941229"><ele>116.0</ele><time>2026-05-01T17:00:32.998Z</time></trkpt><trkpt lat="42.25385729796175" lon="8.722792781982045"><ele>116.0</ele><time>2026-05-01T17:00:33.998Z</time></trkpt><trkpt lat="42.25387927032416" lon="8.722617425024923"><ele>116.0</ele><time>2026-05-01T17:00:34.998Z</time></trkpt><trkpt lat="42.2538643511905" lon="8.722465106162733"><ele>116.0</ele><time>2026-05-01T17:00:35.998Z</time></trkpt><trkpt lat="42.253786340559174" lon="8.72233908571165"><ele>115.75</ele><time>2026-05-01T17:00:36.998Z</time></trkpt><trkpt lat="42.25369096900086" lon="8.722212378419849"><ele>115.5</ele><time>2026-05-01T17:00:37.998Z</time></trkpt><trkpt lat="42.253633114570356" lon="8.722118346553989"><ele>115.25</ele><time>2026-05-01T17:00:38.998Z</time></trkpt><trkpt lat="42.25362327309045" lon="8.721919928337506"><ele>115.0</ele><time>2026-05-01T17:00:39.998Z</time></trkpt><trkpt lat="42.2536457190491" lon="8.721754814309916"><ele>114.25</ele><time>2026-05-01T17:00:40.998Z</time></trkpt><trkpt lat="42.25366709839066" lon="8.721591079185528"><ele>113.5</ele><time>2026-05-01T17:00:41.998Z</time></trkpt><trkpt lat="42.253692923740445" lon="8.721440553783706"><ele>112.75</ele><time>2026-05-01T17:00:43Z</time></trkpt><trkpt lat="42.253753632371605" lon="8.721327754283296"><ele>112.0</ele><time>2026-05-01T17:00:44Z</time></trkpt><trkpt lat="42.25385937601193" lon="8.721246249766661"><ele>109.75</ele><time>2026-05-01T17:00:45Z</time></trkpt><trkpt lat="42.25397247711002" lon="8.721173589370771"><ele>107.5</ele><time>2026-05-01T17:00:46Z</time></trkpt><trkpt lat="42.25408265189631" lon="8.721092768634085"><ele>105.25</ele><time>2026-05-01T17:00:47Z</time></trkpt><trkpt lat="42.254184861302406" lon="8.720995832839945"><ele>103.0</ele><time>2026-05-01T17:00:48Z</time></trkpt><trkpt lat="42.254286084063075" lon="8.72090315963596"><ele>103.0</ele><time>2026-05-01T17:00:49Z</time></trkpt><trkpt lat="42.25438342091307" lon="8.720808323206363"><ele>103.0</ele><time>2026-05-01T17:00:50Z</time></trkpt><trkpt lat="42.25447303664222" lon="8.720693297667129"><ele>103.0</ele><time>2026-05-01T17:00:51Z</time></trkpt><trkpt lat="42.254555643414854" lon="8.720555033581935"><ele>103.0</ele><time>2026-05-01T17:00:52Z</time></trkpt><trkpt lat="42.25463284074695" lon="8.720392302824738"><ele>104.75</ele><time>2026-05-01T17:00:53Z</time></trkpt><trkpt lat="42.25470296562656" lon="8.72021876144281"><ele>106.5</ele><time>2026-05-01T17:00:54Z</time></trkpt><trkpt lat="42.25476945930316" lon="8.720040566541988"><ele>108.25</ele><time>2026-05-01T17:00:55Z</time></trkpt><trkpt lat="42.25483614314774" lon="8.719870736887833"><ele>110.0</ele><time>2026-05-01T17:00:56Z</time></trkpt><trkpt lat="42.25489476317636" lon="8.719702284995092"><ele>106.5</ele><time>2026-05-01T17:00:57Z</time></trkpt><trkpt lat="42.25494707968961" lon="8.719541720964461"><ele>103.0</ele><time>2026-05-01T17:00:58Z</time></trkpt><trkpt lat="42.25498988750631" lon="8.719385372628482"><ele>99.5</ele><time>2026-05-01T17:00:59Z</time></trkpt><trkpt lat="42.25503441562875" lon="8.71923469281087"><ele>96.0</ele><time>2026-05-01T17:01:00Z</time></trkpt><trkpt lat="42.255095286223195" lon="8.719080029051936"><ele>96.0</ele><time>2026-05-01T17:01:01Z</time></trkpt><trkpt lat="42.25516372914486" lon="8.718926183386616"><ele>96.0</ele><time>2026-05-01T17:01:02Z</time></trkpt><trkpt lat="42.25525511989054" lon="8.718788880805095"><ele>96.0</ele><time>2026-05-01T17:01:03Z</time></trkpt><trkpt lat="42.255372739841015" lon="8.718688968879935"><ele>96.0</ele><time>2026-05-01T17:01:04Z</time></trkpt><trkpt lat="42.25549892582007" lon="8.718598482270151"><ele>98.0</ele><time>2026-05-01T17:01:05Z</time></trkpt><trkpt lat="42.25561561798701" lon="8.718500123871554"><ele>100.0</ele><time>2026-05-01T17:01:06Z</time></trkpt><trkpt lat="42.25571878275753" lon="8.718376011470403"><ele>102.0</ele><time>2026-05-01T17:01:07Z</time></trkpt><trkpt lat="42.25581101097327" lon="8.718231814409187"><ele>104.0</ele><time>2026-05-01T17:01:08Z</time></trkpt><trkpt lat="42.25589925999691" lon="8.71808306581218"><ele>100.75</ele><time>2026-05-01T17:01:09Z</time></trkpt><trkpt lat="42.25599209148078" lon="8.717932218442265"><ele>97.5</ele><time>2026-05-01T17:01:10Z</time></trkpt><trkpt lat="42.25608613916952" lon="8.717801707208864"><ele>94.25</ele><time>2026-05-01T17:01:11Z</time></trkpt><trkpt lat="42.256186577509446" lon="8.717683872679107"><ele>91.0</ele><time>2026-05-01T17:01:12Z</time></trkpt><trkpt lat="42.256302688651324" lon="8.717601470214442"><ele>91.0</ele><time>2026-05-01T17:01:13Z</time></trkpt><trkpt lat="42.256427970506174" lon="8.717532286109465"><ele>91.0</ele><time>2026-05-01T17:01:14Z</time></trkpt><trkpt lat="42.25655903282051" lon="8.717459923152868"><ele>91.0</ele><time>2026-05-01T17:01:15Z</time></trkpt><trkpt lat="42.25669366458303" lon="8.717367896478518"><ele>91.0</ele><time>2026-05-01T17:01:16Z</time></trkpt><trkpt lat="42.256829183350234" lon="8.717274019816466"><ele>86.33333333333333</ele><time>2026-05-01T17:01:17Z</time></trkpt><trkpt lat="42.25696640610304" lon="8.717176796266259"><ele>81.66666666666667</ele><time>2026-05-01T17:01:18Z</time></trkpt><trkpt lat="42.25710673195369" lon="8.717082323777559"><ele>77.0</ele><time>2026-05-01T17:01:19Z</time></trkpt><trkpt lat="42.25724738197951" lon="8.71699230403585"><ele>80.0</ele><time>2026-05-01T17:01:20Z</time></trkpt><trkpt lat="42.25738679053762" lon="8.716899372793002"><ele>83.0</ele><time>2026-05-01T17:01:21Z</time></trkpt><trkpt lat="42.25752947644456" lon="8.716822279189813"><ele>86.0</ele><time>2026-05-01T17:01:22Z</time></trkpt><trkpt lat="42.2576755934188" lon="8.71676020976594"><ele>86.0</ele><time>2026-05-01T17:01:23Z</time></trkpt><trkpt lat="42.25781626911329" lon="8.716716571125271"><ele>86.0</ele><time>2026-05-01T17:01:24Z</time></trkpt><trkpt lat="42.25796536280186" lon="8.716689421022696"><ele>86.0</ele><time>2026-05-01T17:01:25Z</time></trkpt><trkpt lat="42.25810591271243" lon="8.716607570097382"><ele>86.0</ele><time>2026-05-01T17:01:26Z</time></trkpt><trkpt lat="42.2582476757464" lon="8.716517413949514"><ele>84.75</ele><time>2026-05-01T17:01:26.999Z</time></trkpt><trkpt lat="42.25838639477652" lon="8.716425127080417"><ele>83.5</ele><time>2026-05-01T17:01:27.999Z</time></trkpt><trkpt lat="42.25850623657149" lon="8.716300847371299"><ele>82.25</ele><time>2026-05-01T17:01:28.999Z</time></trkpt><trkpt lat="42.258618604804255" lon="8.716201909916222"><ele>81.0</ele><time>2026-05-01T17:01:29.999Z</time></trkpt><trkpt lat="42.25871887012409" lon="8.716057497179724"><ele>81.0</ele><time>2026-05-01T17:01:30.999Z</time></trkpt><trkpt lat="42.25881337623464" lon="8.715880610032332"><ele>81.0</ele><time>2026-05-01T17:01:31.999Z</time></trkpt><trkpt lat="42.258892711852866" lon="8.715690028046017"><ele>81.0</ele><time>2026-05-01T17:01:32.999Z</time></trkpt><trkpt lat="42.25899500316659" lon="8.715558444463957"><ele>76.75</ele><time>2026-05-01T17:01:33.999Z</time></trkpt><trkpt lat="42.25911323804593" lon="8.715469957948324"><ele>72.5</ele><time>2026-05-01T17:01:34.999Z</time></trkpt><trkpt lat="42.2592104155392" lon="8.715350283708117"><ele>68.25</ele><time>2026-05-01T17:01:35.999Z</time></trkpt><trkpt lat="42.25925417530101" lon="8.715208841530309"><ele>64.0</ele><time>2026-05-01T17:01:36.999Z</time></trkpt><trkpt lat="42.259281785878095" lon="8.715087565672022"><ele>64.0</ele><time>2026-05-01T17:01:37.999Z</time></trkpt><trkpt lat="42.259259868698116" lon="8.714917362803545"><ele>64.0</ele><time>2026-05-01T17:01:38.999Z</time></trkpt><trkpt lat="42.259229646802474" lon="8.714726447293843"><ele>64.0</ele><time>2026-05-01T17:01:39.999Z</time></trkpt><trkpt lat="42.2591543930243" lon="8.714487986840894"><ele>64.66666666666666</ele><time>2026-05-01T17:01:40.999Z</time></trkpt><trkpt lat="42.25913441875928" lon="8.714285891379332"><ele>65.33333333333333</ele><time>2026-05-01T17:01:41.999Z</time></trkpt><trkpt lat="42.259117172103736" lon="8.71407304526247"><ele>66.0</ele><time>2026-05-01T17:01:42.999Z</time></trkpt><trkpt lat="42.2591181366217" lon="8.713879180127819"><ele>66.0</ele><time>2026-05-01T17:01:43.999Z</time></trkpt><trkpt lat="42.259144695444085" lon="8.713719381205744"><ele>66.0</ele><time>2026-05-01T17:01:44.999Z</time></trkpt><trkpt lat="42.259186226897604" lon="8.713566865836018"><ele>66.0</ele><time>2026-05-01T17:01:45.999Z</time></trkpt><trkpt lat="42.25923140852966" lon="8.713388204099473"><ele>66.0</ele><time>2026-05-01T17:01:46.999Z</time></trkpt><trkpt lat="42.25929671492834" lon="8.713236170908607"><ele>67.5</ele><time>2026-05-01T17:01:47.999Z</time></trkpt><trkpt lat="42.259402267379436" lon="8.713135732650391"><ele>69.0</ele><time>2026-05-01T17:01:48.999Z</time></trkpt><trkpt lat="42.259495523258764" lon="8.713015148219151"><ele>70.5</ele><time>2026-05-01T17:01:49.999Z</time></trkpt><trkpt lat="42.25959849768932" lon="8.712931580740385"><ele>72.0</ele><time>2026-05-01T17:01:50.999Z</time></trkpt><trkpt lat="42.259704122969744" lon="8.712851287649883"><ele>67.0</ele><time>2026-05-01T17:01:51.999Z</time></trkpt><trkpt lat="42.25980525678462" lon="8.712771388922985"><ele>62.0</ele><time>2026-05-01T17:01:52.999Z</time></trkpt><trkpt lat="42.25990170242845" lon="8.712687146002091"><ele>57.0</ele><time>2026-05-01T17:01:53.999Z</time></trkpt><trkpt lat="42.25998237154976" lon="8.712596063682675"><ele>52.0</ele><time>2026-05-01T17:01:54.999Z</time></trkpt><trkpt lat="42.260046782595374" lon="8.712493035211912"><ele>47.0</ele><time>2026-05-01T17:01:55.999Z</time></trkpt><trkpt lat="42.26007462338567" lon="8.712388684720402"><ele>47.0</ele><time>2026-05-01T17:01:56.999Z</time></trkpt><trkpt lat="42.26011290172948" lon="8.712296961409761"><ele>47.0</ele><time>2026-05-01T17:01:57.999Z</time></trkpt><trkpt lat="42.260137058719586" lon="8.712196811662025"><ele>47.0</ele><time>2026-05-01T17:01:59.999Z</time></trkpt><trkpt lat="42.26011358249864" lon="8.712080726195126"><ele>47.0</ele><time>2026-05-01T17:02:15.998Z</time></trkpt><trkpt lat="42.260111870415145" lon="8.711994075146858"><ele>47.0</ele><time>2026-05-01T17:02:16.998Z</time></trkpt><trkpt lat="42.26011835039788" lon="8.711884296234146"><ele>47.0</ele><time>2026-05-01T17:02:17.998Z</time></trkpt><trkpt lat="42.26013981146257" lon="8.711780400768955"><ele>49.400000000000006</ele><time>2026-05-01T17:02:18.998Z</time></trkpt><trkpt lat="42.260173166646375" lon="8.711655889777555"><ele>51.800000000000004</ele><time>2026-05-01T17:02:19.998Z</time></trkpt><trkpt lat="42.26019543484917" lon="8.711535737871722"><ele>54.2</ele><time>2026-05-01T17:02:20.998Z</time></trkpt><trkpt lat="42.26022618996835" lon="8.711414084258722"><ele>56.6</ele><time>2026-05-01T17:02:21.998Z</time></trkpt><trkpt lat="42.26027264868831" lon="8.711289081006523"><ele>59.0</ele><time>2026-05-01T17:02:22.998Z</time></trkpt><trkpt lat="42.26032090627996" lon="8.711164915637358"><ele>61.800000000000004</ele><time>2026-05-01T17:02:23.998Z</time></trkpt><trkpt lat="42.26037096142067" lon="8.711041401143072"><ele>64.60000000000001</ele><time>2026-05-01T17:02:24.998Z</time></trkpt><trkpt lat="42.260430320545744" lon="8.710925551110217"><ele>67.4</ele><time>2026-05-01T17:02:25.998Z</time></trkpt><trkpt lat="42.26049277896438" lon="8.710803937605949"><ele>70.2</ele><time>2026-05-01T17:02:26.998Z</time></trkpt><trkpt lat="42.2605622015154" lon="8.710671719345703"><ele>73.0</ele><time>2026-05-01T17:02:27.998Z</time></trkpt><trkpt lat="42.260646365909786" lon="8.710539962562137"><ele>68.25</ele><time>2026-05-01T17:02:28.998Z</time></trkpt><trkpt lat="42.260749376947416" lon="8.710419685836651"><ele>63.5</ele><time>2026-05-01T17:02:29.998Z</time></trkpt><trkpt lat="42.26085140990099" lon="8.710297351297243"><ele>58.75</ele><time>2026-05-01T17:02:30.998Z</time></trkpt><trkpt lat="42.26095924657171" lon="8.710177369795552"><ele>54.0</ele><time>2026-05-01T17:02:31.998Z</time></trkpt><trkpt lat="42.26105691528329" lon="8.710053304590296"><ele>54.0</ele><time>2026-05-01T17:02:32.998Z</time></trkpt><trkpt lat="42.261148782112095" lon="8.709918879033982"><ele>54.0</ele><time>2026-05-01T17:02:33.998Z</time></trkpt><trkpt lat="42.26123511699729" lon="8.709793333553707"><ele>54.0</ele><time>2026-05-01T17:02:34.998Z</time></trkpt><trkpt lat="42.261313737484365" lon="8.709681767204534"><ele>54.0</ele><time>2026-05-01T17:02:35.998Z</time></trkpt><trkpt lat="42.26139320636734" lon="8.709577635014982"><ele>50.400000000000006</ele><time>2026-05-01T17:02:36.998Z</time></trkpt><trkpt lat="42.26147939151419" lon="8.709477604116119"><ele>46.800000000000004</ele><time>2026-05-01T17:02:37.998Z</time></trkpt><trkpt lat="42.261551856030785" lon="8.709389295330823"><ele>43.2</ele><time>2026-05-01T17:02:38.998Z</time></trkpt><trkpt lat="42.26163862265981" lon="8.709339930235561"><ele>39.6</ele><time>2026-05-01T17:02:39.998Z</time></trkpt><trkpt lat="42.261729645060115" lon="8.70928401590697"><ele>36.0</ele><time>2026-05-01T17:02:40.998Z</time></trkpt><trkpt lat="42.261799800332156" lon="8.709150767226651"><ele>36.0</ele><time>2026-05-01T17:02:41.998Z</time></trkpt><trkpt lat="42.261888247738455" lon="8.709057861338342"><ele>36.0</ele><time>2026-05-01T17:02:42.998Z</time></trkpt><trkpt lat="42.26199024890885" lon="8.708988405230903"><ele>36.0</ele><time>2026-05-01T17:02:43.998Z</time></trkpt><trkpt lat="42.26209490623142" lon="8.708931913801186"><ele>36.0</ele><time>2026-05-01T17:02:44.998Z</time></trkpt><trkpt lat="42.26218437805413" lon="8.708908571440427"><ele>36.0</ele><time>2026-05-01T17:02:45.998Z</time></trkpt><trkpt lat="42.26225662252926" lon="8.708862214541327"><ele>36.0</ele><time>2026-05-01T17:02:46.998Z</time></trkpt><trkpt lat="42.262317416793074" lon="8.70883940057401"><ele>26.0</ele><time>2026-05-01T17:02:47.998Z</time></trkpt><trkpt lat="42.262386692670994" lon="8.708799914188408"><ele>26.0</ele><time>2026-05-01T17:02:50Z</time></trkpt><trkpt lat="42.262374230112975" lon="8.708890559622711"><ele>26.0</ele><time>2026-05-01T17:02:54Z</time></trkpt><trkpt lat="42.26232057173149" lon="8.708937157550434"><ele>26.0</ele><time>2026-05-01T17:04:33.998Z</time></trkpt></trkseg></trk></gpx>